<?xml version="1.0" encoding="UTF-8" standalone="no" ?>
<gpx xmlns="http://www.topografix.com/GPX/1/1" xmlns:xsi="http://www.w3.org/2001/XMLSchema-instance" xsi:schemaLocation="http://www.topografix.com/GPX/1/1 http://www.topografix.com/GPX/1/1/gpx.xsd" version="1.1" creator="VisuGPX - https://www.visugpx.com">
  <metadata>
    <name>#velotaf24/14</name>
  </metadata>
  <trk>
    <name><![CDATA[#velotaf24/14_1]]></name>
    <trkseg>
      <trkpt lat="50.02317" lon="4.32072">
        <ele>257.4</ele>
        <time>2024-04-29T04:52:02Z</time>
      </trkpt>
      <trkpt lat="50.02317" lon="4.32077">
        <ele>256.2</ele>
        <time>2024-04-29T04:52:03Z</time>
      </trkpt>
      <trkpt lat="50.02317" lon="4.32077">
        <ele>256.2</ele>
        <time>2024-04-29T04:52:04Z</time>
      </trkpt>
      <trkpt lat="50.02315" lon="4.32081">
        <ele>256.8</ele>
        <time>2024-04-29T04:52:05Z</time>
      </trkpt>
      <trkpt lat="50.02314" lon="4.32082">
        <ele>257.2</ele>
        <time>2024-04-29T04:52:06Z</time>
      </trkpt>
      <trkpt lat="50.02312" lon="4.32085">
        <ele>257.4</ele>
        <time>2024-04-29T04:52:07Z</time>
      </trkpt>
      <trkpt lat="50.02321" lon="4.32081">
        <ele>258</ele>
        <time>2024-04-29T04:53:48Z</time>
      </trkpt>
      <trkpt lat="50.02321" lon="4.32081">
        <ele>258</ele>
        <time>2024-04-29T04:53:49Z</time>
      </trkpt>
      <trkpt lat="50.0232" lon="4.32081">
        <ele>258</ele>
        <time>2024-04-29T04:53:50Z</time>
      </trkpt>
      <trkpt lat="50.0232" lon="4.32081">
        <ele>258</ele>
        <time>2024-04-29T04:53:51Z</time>
      </trkpt>
      <trkpt lat="50.02319" lon="4.32081">
        <ele>258</ele>
        <time>2024-04-29T04:53:52Z</time>
      </trkpt>
      <trkpt lat="50.02318" lon="4.32082">
        <ele>258</ele>
        <time>2024-04-29T04:53:53Z</time>
      </trkpt>
      <trkpt lat="50.02317" lon="4.32083">
        <ele>258</ele>
        <time>2024-04-29T04:53:54Z</time>
      </trkpt>
      <trkpt lat="50.02317" lon="4.32083">
        <ele>258</ele>
        <time>2024-04-29T04:53:55Z</time>
      </trkpt>
      <trkpt lat="50.02316" lon="4.32085">
        <ele>258</ele>
        <time>2024-04-29T04:53:56Z</time>
      </trkpt>
      <trkpt lat="50.02315" lon="4.32086">
        <ele>258</ele>
        <time>2024-04-29T04:53:57Z</time>
      </trkpt>
      <trkpt lat="50.02315" lon="4.32086">
        <ele>258</ele>
        <time>2024-04-29T04:53:58Z</time>
      </trkpt>
      <trkpt lat="50.02314" lon="4.32087">
        <ele>258</ele>
        <time>2024-04-29T04:53:59Z</time>
      </trkpt>
      <trkpt lat="50.02313" lon="4.32088">
        <ele>258</ele>
        <time>2024-04-29T04:54:00Z</time>
      </trkpt>
      <trkpt lat="50.02312" lon="4.32089">
        <ele>258</ele>
        <time>2024-04-29T04:54:01Z</time>
      </trkpt>
      <trkpt lat="50.02312" lon="4.3209">
        <ele>258</ele>
        <time>2024-04-29T04:54:02Z</time>
      </trkpt>
      <trkpt lat="50.02311" lon="4.3209">
        <ele>258</ele>
        <time>2024-04-29T04:54:03Z</time>
      </trkpt>
      <trkpt lat="50.02311" lon="4.3209">
        <ele>258.2</ele>
        <time>2024-04-29T04:54:04Z</time>
      </trkpt>
      <trkpt lat="50.02308" lon="4.3209">
        <ele>258.6</ele>
        <time>2024-04-29T04:54:05Z</time>
      </trkpt>
      <trkpt lat="50.02306" lon="4.32091">
        <ele>258.6</ele>
        <time>2024-04-29T04:54:06Z</time>
      </trkpt>
      <trkpt lat="50.02305" lon="4.32091">
        <ele>258.8</ele>
        <time>2024-04-29T04:54:07Z</time>
      </trkpt>
      <trkpt lat="50.02303" lon="4.32091">
        <ele>259</ele>
        <time>2024-04-29T04:54:08Z</time>
      </trkpt>
      <trkpt lat="50.02294" lon="4.32098">
        <ele>259</ele>
        <time>2024-04-29T04:54:25Z</time>
      </trkpt>
      <trkpt lat="50.02293" lon="4.321">
        <ele>259</ele>
        <time>2024-04-29T04:54:26Z</time>
      </trkpt>
      <trkpt lat="50.02293" lon="4.32102">
        <ele>258.8</ele>
        <time>2024-04-29T04:54:27Z</time>
      </trkpt>
      <trkpt lat="50.02291" lon="4.32104">
        <ele>259</ele>
        <time>2024-04-29T04:54:28Z</time>
      </trkpt>
      <trkpt lat="50.02289" lon="4.32105">
        <ele>259</ele>
        <time>2024-04-29T04:54:29Z</time>
      </trkpt>
      <trkpt lat="50.02287" lon="4.32105">
        <ele>259</ele>
        <time>2024-04-29T04:54:30Z</time>
      </trkpt>
      <trkpt lat="50.02285" lon="4.32103">
        <ele>259</ele>
        <time>2024-04-29T04:54:31Z</time>
      </trkpt>
      <trkpt lat="50.02284" lon="4.32101">
        <ele>259</ele>
        <time>2024-04-29T04:54:32Z</time>
      </trkpt>
      <trkpt lat="50.02283" lon="4.32097">
        <ele>259</ele>
        <time>2024-04-29T04:54:33Z</time>
      </trkpt>
      <trkpt lat="50.02283" lon="4.32093">
        <ele>259</ele>
        <time>2024-04-29T04:54:34Z</time>
      </trkpt>
      <trkpt lat="50.02283" lon="4.3209">
        <ele>259</ele>
        <time>2024-04-29T04:54:35Z</time>
      </trkpt>
      <trkpt lat="50.02283" lon="4.32086">
        <ele>259.2</ele>
        <time>2024-04-29T04:54:36Z</time>
      </trkpt>
      <trkpt lat="50.02283" lon="4.32083">
        <ele>259.2</ele>
        <time>2024-04-29T04:54:37Z</time>
      </trkpt>
      <trkpt lat="50.02282" lon="4.3208">
        <ele>259.2</ele>
        <time>2024-04-29T04:54:38Z</time>
      </trkpt>
      <trkpt lat="50.02282" lon="4.32078">
        <ele>259.4</ele>
        <time>2024-04-29T04:54:39Z</time>
      </trkpt>
      <trkpt lat="50.02281" lon="4.32075">
        <ele>259.6</ele>
        <time>2024-04-29T04:54:40Z</time>
      </trkpt>
      <trkpt lat="50.02281" lon="4.32072">
        <ele>259.6</ele>
        <time>2024-04-29T04:54:41Z</time>
      </trkpt>
      <trkpt lat="50.02281" lon="4.32069">
        <ele>259.8</ele>
        <time>2024-04-29T04:54:42Z</time>
      </trkpt>
      <trkpt lat="50.0228" lon="4.32066">
        <ele>260</ele>
        <time>2024-04-29T04:54:43Z</time>
      </trkpt>
      <trkpt lat="50.02279" lon="4.32063">
        <ele>260.2</ele>
        <time>2024-04-29T04:54:44Z</time>
      </trkpt>
      <trkpt lat="50.02278" lon="4.32059">
        <ele>260.4</ele>
        <time>2024-04-29T04:54:45Z</time>
      </trkpt>
      <trkpt lat="50.02278" lon="4.32055">
        <ele>260.8</ele>
        <time>2024-04-29T04:54:46Z</time>
      </trkpt>
      <trkpt lat="50.02278" lon="4.32051">
        <ele>260.8</ele>
        <time>2024-04-29T04:54:47Z</time>
      </trkpt>
      <trkpt lat="50.02278" lon="4.32046">
        <ele>261</ele>
        <time>2024-04-29T04:54:48Z</time>
      </trkpt>
      <trkpt lat="50.02277" lon="4.3204">
        <ele>261</ele>
        <time>2024-04-29T04:54:49Z</time>
      </trkpt>
      <trkpt lat="50.02276" lon="4.32035">
        <ele>261.6</ele>
        <time>2024-04-29T04:54:50Z</time>
      </trkpt>
      <trkpt lat="50.02276" lon="4.3203">
        <ele>262.2</ele>
        <time>2024-04-29T04:54:51Z</time>
      </trkpt>
      <trkpt lat="50.02276" lon="4.32026">
        <ele>262.8</ele>
        <time>2024-04-29T04:54:52Z</time>
      </trkpt>
      <trkpt lat="50.02276" lon="4.32022">
        <ele>263.2</ele>
        <time>2024-04-29T04:54:53Z</time>
      </trkpt>
      <trkpt lat="50.02276" lon="4.32019">
        <ele>263.6</ele>
        <time>2024-04-29T04:54:54Z</time>
      </trkpt>
      <trkpt lat="50.02276" lon="4.32016">
        <ele>263.6</ele>
        <time>2024-04-29T04:54:55Z</time>
      </trkpt>
      <trkpt lat="50.02275" lon="4.32013">
        <ele>264</ele>
        <time>2024-04-29T04:54:56Z</time>
      </trkpt>
      <trkpt lat="50.02274" lon="4.3201">
        <ele>264.2</ele>
        <time>2024-04-29T04:54:57Z</time>
      </trkpt>
      <trkpt lat="50.02273" lon="4.32006">
        <ele>264.2</ele>
        <time>2024-04-29T04:54:58Z</time>
      </trkpt>
      <trkpt lat="50.02272" lon="4.32002">
        <ele>264.2</ele>
        <time>2024-04-29T04:54:59Z</time>
      </trkpt>
      <trkpt lat="50.0227" lon="4.31998">
        <ele>264.4</ele>
        <time>2024-04-29T04:55:00Z</time>
      </trkpt>
      <trkpt lat="50.02269" lon="4.31995">
        <ele>264.6</ele>
        <time>2024-04-29T04:55:01Z</time>
      </trkpt>
      <trkpt lat="50.02267" lon="4.31991">
        <ele>264.4</ele>
        <time>2024-04-29T04:55:02Z</time>
      </trkpt>
      <trkpt lat="50.02266" lon="4.31987">
        <ele>264.4</ele>
        <time>2024-04-29T04:55:03Z</time>
      </trkpt>
      <trkpt lat="50.02264" lon="4.31983">
        <ele>264.6</ele>
        <time>2024-04-29T04:55:04Z</time>
      </trkpt>
      <trkpt lat="50.02262" lon="4.3198">
        <ele>264.8</ele>
        <time>2024-04-29T04:55:05Z</time>
      </trkpt>
      <trkpt lat="50.02262" lon="4.31976">
        <ele>264.8</ele>
        <time>2024-04-29T04:55:06Z</time>
      </trkpt>
      <trkpt lat="50.02263" lon="4.31971">
        <ele>264.8</ele>
        <time>2024-04-29T04:55:07Z</time>
      </trkpt>
      <trkpt lat="50.02265" lon="4.31966">
        <ele>265</ele>
        <time>2024-04-29T04:55:08Z</time>
      </trkpt>
      <trkpt lat="50.02267" lon="4.31961">
        <ele>265.8</ele>
        <time>2024-04-29T04:55:09Z</time>
      </trkpt>
      <trkpt lat="50.02269" lon="4.31955">
        <ele>266.2</ele>
        <time>2024-04-29T04:55:10Z</time>
      </trkpt>
      <trkpt lat="50.02272" lon="4.31949">
        <ele>266.4</ele>
        <time>2024-04-29T04:55:11Z</time>
      </trkpt>
      <trkpt lat="50.02274" lon="4.31944">
        <ele>266.4</ele>
        <time>2024-04-29T04:55:12Z</time>
      </trkpt>
      <trkpt lat="50.02276" lon="4.31938">
        <ele>266.4</ele>
        <time>2024-04-29T04:55:13Z</time>
      </trkpt>
      <trkpt lat="50.02278" lon="4.31933">
        <ele>266.6</ele>
        <time>2024-04-29T04:55:14Z</time>
      </trkpt>
      <trkpt lat="50.0228" lon="4.31927">
        <ele>266.8</ele>
        <time>2024-04-29T04:55:15Z</time>
      </trkpt>
      <trkpt lat="50.02282" lon="4.31922">
        <ele>266.8</ele>
        <time>2024-04-29T04:55:16Z</time>
      </trkpt>
      <trkpt lat="50.02283" lon="4.31917">
        <ele>267</ele>
        <time>2024-04-29T04:55:17Z</time>
      </trkpt>
      <trkpt lat="50.02285" lon="4.31912">
        <ele>266.8</ele>
        <time>2024-04-29T04:55:18Z</time>
      </trkpt>
      <trkpt lat="50.02287" lon="4.31907">
        <ele>267.2</ele>
        <time>2024-04-29T04:55:19Z</time>
      </trkpt>
      <trkpt lat="50.02288" lon="4.31902">
        <ele>267</ele>
        <time>2024-04-29T04:55:20Z</time>
      </trkpt>
      <trkpt lat="50.02289" lon="4.31897">
        <ele>267.2</ele>
        <time>2024-04-29T04:55:21Z</time>
      </trkpt>
      <trkpt lat="50.0229" lon="4.31892">
        <ele>267.2</ele>
        <time>2024-04-29T04:55:22Z</time>
      </trkpt>
      <trkpt lat="50.02292" lon="4.31888">
        <ele>267.2</ele>
        <time>2024-04-29T04:55:23Z</time>
      </trkpt>
      <trkpt lat="50.02293" lon="4.31883">
        <ele>267.4</ele>
        <time>2024-04-29T04:55:24Z</time>
      </trkpt>
      <trkpt lat="50.02295" lon="4.31879">
        <ele>267.4</ele>
        <time>2024-04-29T04:55:25Z</time>
      </trkpt>
      <trkpt lat="50.02296" lon="4.31875">
        <ele>267.2</ele>
        <time>2024-04-29T04:55:26Z</time>
      </trkpt>
      <trkpt lat="50.02298" lon="4.31871">
        <ele>267.6</ele>
        <time>2024-04-29T04:55:27Z</time>
      </trkpt>
      <trkpt lat="50.02299" lon="4.31867">
        <ele>268</ele>
        <time>2024-04-29T04:55:28Z</time>
      </trkpt>
      <trkpt lat="50.02301" lon="4.31863">
        <ele>268.2</ele>
        <time>2024-04-29T04:55:29Z</time>
      </trkpt>
      <trkpt lat="50.02302" lon="4.31859">
        <ele>268.6</ele>
        <time>2024-04-29T04:55:30Z</time>
      </trkpt>
      <trkpt lat="50.02304" lon="4.31856">
        <ele>268.8</ele>
        <time>2024-04-29T04:55:31Z</time>
      </trkpt>
      <trkpt lat="50.02305" lon="4.31852">
        <ele>269</ele>
        <time>2024-04-29T04:55:32Z</time>
      </trkpt>
      <trkpt lat="50.02305" lon="4.31848">
        <ele>269.2</ele>
        <time>2024-04-29T04:55:33Z</time>
      </trkpt>
      <trkpt lat="50.02305" lon="4.31844">
        <ele>269.6</ele>
        <time>2024-04-29T04:55:34Z</time>
      </trkpt>
      <trkpt lat="50.02304" lon="4.3184">
        <ele>269.8</ele>
        <time>2024-04-29T04:55:35Z</time>
      </trkpt>
      <trkpt lat="50.02303" lon="4.31836">
        <ele>269.8</ele>
        <time>2024-04-29T04:55:36Z</time>
      </trkpt>
      <trkpt lat="50.02301" lon="4.31833">
        <ele>270</ele>
        <time>2024-04-29T04:55:37Z</time>
      </trkpt>
      <trkpt lat="50.02299" lon="4.31829">
        <ele>270.2</ele>
        <time>2024-04-29T04:55:38Z</time>
      </trkpt>
      <trkpt lat="50.02297" lon="4.31826">
        <ele>270.2</ele>
        <time>2024-04-29T04:55:39Z</time>
      </trkpt>
      <trkpt lat="50.02296" lon="4.31823">
        <ele>270.4</ele>
        <time>2024-04-29T04:55:40Z</time>
      </trkpt>
      <trkpt lat="50.02294" lon="4.3182">
        <ele>270.4</ele>
        <time>2024-04-29T04:55:41Z</time>
      </trkpt>
      <trkpt lat="50.02292" lon="4.31816">
        <ele>270.4</ele>
        <time>2024-04-29T04:55:42Z</time>
      </trkpt>
      <trkpt lat="50.0229" lon="4.31813">
        <ele>270.4</ele>
        <time>2024-04-29T04:55:43Z</time>
      </trkpt>
      <trkpt lat="50.02288" lon="4.3181">
        <ele>270.6</ele>
        <time>2024-04-29T04:55:44Z</time>
      </trkpt>
      <trkpt lat="50.02287" lon="4.31806">
        <ele>270.8</ele>
        <time>2024-04-29T04:55:45Z</time>
      </trkpt>
      <trkpt lat="50.02285" lon="4.31803">
        <ele>270.8</ele>
        <time>2024-04-29T04:55:46Z</time>
      </trkpt>
      <trkpt lat="50.02283" lon="4.318">
        <ele>270.8</ele>
        <time>2024-04-29T04:55:47Z</time>
      </trkpt>
      <trkpt lat="50.02281" lon="4.31796">
        <ele>271</ele>
        <time>2024-04-29T04:55:48Z</time>
      </trkpt>
      <trkpt lat="50.02279" lon="4.31793">
        <ele>271.2</ele>
        <time>2024-04-29T04:55:49Z</time>
      </trkpt>
      <trkpt lat="50.02277" lon="4.3179">
        <ele>271.6</ele>
        <time>2024-04-29T04:55:50Z</time>
      </trkpt>
      <trkpt lat="50.02275" lon="4.31786">
        <ele>272</ele>
        <time>2024-04-29T04:55:51Z</time>
      </trkpt>
      <trkpt lat="50.02273" lon="4.31782">
        <ele>273</ele>
        <time>2024-04-29T04:55:52Z</time>
      </trkpt>
      <trkpt lat="50.02272" lon="4.31779">
        <ele>273.6</ele>
        <time>2024-04-29T04:55:53Z</time>
      </trkpt>
      <trkpt lat="50.0227" lon="4.31775">
        <ele>273.8</ele>
        <time>2024-04-29T04:55:54Z</time>
      </trkpt>
      <trkpt lat="50.02268" lon="4.31772">
        <ele>274</ele>
        <time>2024-04-29T04:55:55Z</time>
      </trkpt>
      <trkpt lat="50.02266" lon="4.31768">
        <ele>274.2</ele>
        <time>2024-04-29T04:55:56Z</time>
      </trkpt>
      <trkpt lat="50.02264" lon="4.31764">
        <ele>274.2</ele>
        <time>2024-04-29T04:55:57Z</time>
      </trkpt>
      <trkpt lat="50.02262" lon="4.3176">
        <ele>274.4</ele>
        <time>2024-04-29T04:55:58Z</time>
      </trkpt>
      <trkpt lat="50.0226" lon="4.31756">
        <ele>274.4</ele>
        <time>2024-04-29T04:55:59Z</time>
      </trkpt>
      <trkpt lat="50.02258" lon="4.31752">
        <ele>274.8</ele>
        <time>2024-04-29T04:56:00Z</time>
      </trkpt>
      <trkpt lat="50.02256" lon="4.31748">
        <ele>274.8</ele>
        <time>2024-04-29T04:56:01Z</time>
      </trkpt>
      <trkpt lat="50.02255" lon="4.31745">
        <ele>275.4</ele>
        <time>2024-04-29T04:56:02Z</time>
      </trkpt>
      <trkpt lat="50.02253" lon="4.31741">
        <ele>275.8</ele>
        <time>2024-04-29T04:56:03Z</time>
      </trkpt>
      <trkpt lat="50.02252" lon="4.31737">
        <ele>276</ele>
        <time>2024-04-29T04:56:04Z</time>
      </trkpt>
      <trkpt lat="50.0225" lon="4.31733">
        <ele>276.2</ele>
        <time>2024-04-29T04:56:05Z</time>
      </trkpt>
      <trkpt lat="50.02248" lon="4.31729">
        <ele>276.6</ele>
        <time>2024-04-29T04:56:06Z</time>
      </trkpt>
      <trkpt lat="50.02247" lon="4.31725">
        <ele>276.6</ele>
        <time>2024-04-29T04:56:07Z</time>
      </trkpt>
      <trkpt lat="50.02245" lon="4.31721">
        <ele>277</ele>
        <time>2024-04-29T04:56:08Z</time>
      </trkpt>
      <trkpt lat="50.02244" lon="4.31717">
        <ele>277</ele>
        <time>2024-04-29T04:56:09Z</time>
      </trkpt>
      <trkpt lat="50.02242" lon="4.31713">
        <ele>277.2</ele>
        <time>2024-04-29T04:56:10Z</time>
      </trkpt>
      <trkpt lat="50.0224" lon="4.31709">
        <ele>277.4</ele>
        <time>2024-04-29T04:56:11Z</time>
      </trkpt>
      <trkpt lat="50.02238" lon="4.31705">
        <ele>277.6</ele>
        <time>2024-04-29T04:56:12Z</time>
      </trkpt>
      <trkpt lat="50.02236" lon="4.31701">
        <ele>277.6</ele>
        <time>2024-04-29T04:56:13Z</time>
      </trkpt>
      <trkpt lat="50.02234" lon="4.31698">
        <ele>277.8</ele>
        <time>2024-04-29T04:56:14Z</time>
      </trkpt>
      <trkpt lat="50.02232" lon="4.31694">
        <ele>278</ele>
        <time>2024-04-29T04:56:15Z</time>
      </trkpt>
      <trkpt lat="50.02231" lon="4.3169">
        <ele>278</ele>
        <time>2024-04-29T04:56:16Z</time>
      </trkpt>
      <trkpt lat="50.02229" lon="4.31685">
        <ele>278.2</ele>
        <time>2024-04-29T04:56:17Z</time>
      </trkpt>
      <trkpt lat="50.02227" lon="4.31681">
        <ele>278.4</ele>
        <time>2024-04-29T04:56:18Z</time>
      </trkpt>
      <trkpt lat="50.02225" lon="4.31677">
        <ele>278.4</ele>
        <time>2024-04-29T04:56:19Z</time>
      </trkpt>
      <trkpt lat="50.02223" lon="4.31673">
        <ele>278.6</ele>
        <time>2024-04-29T04:56:20Z</time>
      </trkpt>
      <trkpt lat="50.02221" lon="4.31669">
        <ele>279</ele>
        <time>2024-04-29T04:56:21Z</time>
      </trkpt>
      <trkpt lat="50.02219" lon="4.31665">
        <ele>279</ele>
        <time>2024-04-29T04:56:22Z</time>
      </trkpt>
      <trkpt lat="50.02217" lon="4.3166">
        <ele>279.2</ele>
        <time>2024-04-29T04:56:23Z</time>
      </trkpt>
      <trkpt lat="50.02215" lon="4.31656">
        <ele>279.8</ele>
        <time>2024-04-29T04:56:24Z</time>
      </trkpt>
      <trkpt lat="50.02213" lon="4.31652">
        <ele>280.4</ele>
        <time>2024-04-29T04:56:25Z</time>
      </trkpt>
      <trkpt lat="50.02211" lon="4.31647">
        <ele>280.4</ele>
        <time>2024-04-29T04:56:26Z</time>
      </trkpt>
      <trkpt lat="50.02209" lon="4.31643">
        <ele>280.4</ele>
        <time>2024-04-29T04:56:27Z</time>
      </trkpt>
      <trkpt lat="50.02206" lon="4.31639">
        <ele>280.4</ele>
        <time>2024-04-29T04:56:28Z</time>
      </trkpt>
      <trkpt lat="50.02204" lon="4.31635">
        <ele>280.6</ele>
        <time>2024-04-29T04:56:29Z</time>
      </trkpt>
      <trkpt lat="50.02202" lon="4.31632">
        <ele>280.6</ele>
        <time>2024-04-29T04:56:30Z</time>
      </trkpt>
      <trkpt lat="50.02199" lon="4.31628">
        <ele>280.6</ele>
        <time>2024-04-29T04:56:31Z</time>
      </trkpt>
      <trkpt lat="50.02196" lon="4.31625">
        <ele>281</ele>
        <time>2024-04-29T04:56:32Z</time>
      </trkpt>
      <trkpt lat="50.02194" lon="4.31621">
        <ele>281</ele>
        <time>2024-04-29T04:56:33Z</time>
      </trkpt>
      <trkpt lat="50.02191" lon="4.31618">
        <ele>281</ele>
        <time>2024-04-29T04:56:34Z</time>
      </trkpt>
      <trkpt lat="50.02188" lon="4.31615">
        <ele>281.2</ele>
        <time>2024-04-29T04:56:35Z</time>
      </trkpt>
      <trkpt lat="50.02185" lon="4.31612">
        <ele>281.2</ele>
        <time>2024-04-29T04:56:36Z</time>
      </trkpt>
      <trkpt lat="50.02181" lon="4.31609">
        <ele>281.2</ele>
        <time>2024-04-29T04:56:37Z</time>
      </trkpt>
      <trkpt lat="50.02178" lon="4.31607">
        <ele>281.2</ele>
        <time>2024-04-29T04:56:38Z</time>
      </trkpt>
      <trkpt lat="50.02175" lon="4.31605">
        <ele>281.2</ele>
        <time>2024-04-29T04:56:39Z</time>
      </trkpt>
      <trkpt lat="50.02171" lon="4.31603">
        <ele>281.2</ele>
        <time>2024-04-29T04:56:40Z</time>
      </trkpt>
      <trkpt lat="50.02167" lon="4.31601">
        <ele>281.2</ele>
        <time>2024-04-29T04:56:41Z</time>
      </trkpt>
      <trkpt lat="50.02164" lon="4.31599">
        <ele>281.4</ele>
        <time>2024-04-29T04:56:42Z</time>
      </trkpt>
      <trkpt lat="50.02161" lon="4.31598">
        <ele>281.4</ele>
        <time>2024-04-29T04:56:43Z</time>
      </trkpt>
      <trkpt lat="50.02158" lon="4.31596">
        <ele>282</ele>
        <time>2024-04-29T04:56:44Z</time>
      </trkpt>
      <trkpt lat="50.02154" lon="4.31595">
        <ele>282.2</ele>
        <time>2024-04-29T04:56:45Z</time>
      </trkpt>
      <trkpt lat="50.02151" lon="4.31593">
        <ele>282.4</ele>
        <time>2024-04-29T04:56:46Z</time>
      </trkpt>
      <trkpt lat="50.02148" lon="4.31591">
        <ele>282.8</ele>
        <time>2024-04-29T04:56:47Z</time>
      </trkpt>
      <trkpt lat="50.02144" lon="4.3159">
        <ele>283</ele>
        <time>2024-04-29T04:56:48Z</time>
      </trkpt>
      <trkpt lat="50.02141" lon="4.31589">
        <ele>283.2</ele>
        <time>2024-04-29T04:56:49Z</time>
      </trkpt>
      <trkpt lat="50.02138" lon="4.31587">
        <ele>283.4</ele>
        <time>2024-04-29T04:56:50Z</time>
      </trkpt>
      <trkpt lat="50.02134" lon="4.31585">
        <ele>283.8</ele>
        <time>2024-04-29T04:56:51Z</time>
      </trkpt>
      <trkpt lat="50.02131" lon="4.31583">
        <ele>284</ele>
        <time>2024-04-29T04:56:52Z</time>
      </trkpt>
      <trkpt lat="50.02127" lon="4.31581">
        <ele>284</ele>
        <time>2024-04-29T04:56:53Z</time>
      </trkpt>
      <trkpt lat="50.02124" lon="4.31579">
        <ele>284.4</ele>
        <time>2024-04-29T04:56:54Z</time>
      </trkpt>
      <trkpt lat="50.0212" lon="4.31577">
        <ele>284.4</ele>
        <time>2024-04-29T04:56:55Z</time>
      </trkpt>
      <trkpt lat="50.02116" lon="4.31575">
        <ele>284.6</ele>
        <time>2024-04-29T04:56:56Z</time>
      </trkpt>
      <trkpt lat="50.02113" lon="4.31573">
        <ele>284.8</ele>
        <time>2024-04-29T04:56:57Z</time>
      </trkpt>
      <trkpt lat="50.02109" lon="4.31572">
        <ele>284.8</ele>
        <time>2024-04-29T04:56:58Z</time>
      </trkpt>
      <trkpt lat="50.02106" lon="4.3157">
        <ele>285</ele>
        <time>2024-04-29T04:56:59Z</time>
      </trkpt>
      <trkpt lat="50.02102" lon="4.31568">
        <ele>284.8</ele>
        <time>2024-04-29T04:57:00Z</time>
      </trkpt>
      <trkpt lat="50.02099" lon="4.31566">
        <ele>285</ele>
        <time>2024-04-29T04:57:01Z</time>
      </trkpt>
      <trkpt lat="50.02096" lon="4.31565">
        <ele>285</ele>
        <time>2024-04-29T04:57:02Z</time>
      </trkpt>
      <trkpt lat="50.02092" lon="4.31563">
        <ele>285.2</ele>
        <time>2024-04-29T04:57:03Z</time>
      </trkpt>
      <trkpt lat="50.02089" lon="4.31562">
        <ele>285.2</ele>
        <time>2024-04-29T04:57:04Z</time>
      </trkpt>
      <trkpt lat="50.02086" lon="4.31561">
        <ele>285.2</ele>
        <time>2024-04-29T04:57:05Z</time>
      </trkpt>
      <trkpt lat="50.02083" lon="4.31559">
        <ele>285.2</ele>
        <time>2024-04-29T04:57:06Z</time>
      </trkpt>
      <trkpt lat="50.02079" lon="4.31557">
        <ele>285.4</ele>
        <time>2024-04-29T04:57:07Z</time>
      </trkpt>
      <trkpt lat="50.02076" lon="4.31556">
        <ele>285.4</ele>
        <time>2024-04-29T04:57:08Z</time>
      </trkpt>
      <trkpt lat="50.02073" lon="4.31554">
        <ele>285.4</ele>
        <time>2024-04-29T04:57:09Z</time>
      </trkpt>
      <trkpt lat="50.02069" lon="4.31553">
        <ele>285.6</ele>
        <time>2024-04-29T04:57:10Z</time>
      </trkpt>
      <trkpt lat="50.02066" lon="4.31551">
        <ele>285.8</ele>
        <time>2024-04-29T04:57:11Z</time>
      </trkpt>
      <trkpt lat="50.02063" lon="4.3155">
        <ele>285.8</ele>
        <time>2024-04-29T04:57:12Z</time>
      </trkpt>
      <trkpt lat="50.02059" lon="4.31548">
        <ele>285.8</ele>
        <time>2024-04-29T04:57:13Z</time>
      </trkpt>
      <trkpt lat="50.02056" lon="4.31547">
        <ele>286.2</ele>
        <time>2024-04-29T04:57:14Z</time>
      </trkpt>
      <trkpt lat="50.02053" lon="4.31545">
        <ele>286.2</ele>
        <time>2024-04-29T04:57:15Z</time>
      </trkpt>
      <trkpt lat="50.02049" lon="4.31544">
        <ele>286.6</ele>
        <time>2024-04-29T04:57:16Z</time>
      </trkpt>
      <trkpt lat="50.02046" lon="4.31542">
        <ele>287</ele>
        <time>2024-04-29T04:57:17Z</time>
      </trkpt>
      <trkpt lat="50.02043" lon="4.31541">
        <ele>287.2</ele>
        <time>2024-04-29T04:57:18Z</time>
      </trkpt>
      <trkpt lat="50.02039" lon="4.31539">
        <ele>287.2</ele>
        <time>2024-04-29T04:57:19Z</time>
      </trkpt>
      <trkpt lat="50.02036" lon="4.31538">
        <ele>287.6</ele>
        <time>2024-04-29T04:57:20Z</time>
      </trkpt>
      <trkpt lat="50.02032" lon="4.31536">
        <ele>287.6</ele>
        <time>2024-04-29T04:57:21Z</time>
      </trkpt>
      <trkpt lat="50.02029" lon="4.31535">
        <ele>287.8</ele>
        <time>2024-04-29T04:57:22Z</time>
      </trkpt>
      <trkpt lat="50.02025" lon="4.31534">
        <ele>288</ele>
        <time>2024-04-29T04:57:23Z</time>
      </trkpt>
      <trkpt lat="50.02022" lon="4.31532">
        <ele>288</ele>
        <time>2024-04-29T04:57:24Z</time>
      </trkpt>
      <trkpt lat="50.02018" lon="4.31531">
        <ele>288</ele>
        <time>2024-04-29T04:57:25Z</time>
      </trkpt>
      <trkpt lat="50.02015" lon="4.31529">
        <ele>288</ele>
        <time>2024-04-29T04:57:26Z</time>
      </trkpt>
      <trkpt lat="50.02011" lon="4.31528">
        <ele>288</ele>
        <time>2024-04-29T04:57:27Z</time>
      </trkpt>
      <trkpt lat="50.02008" lon="4.31526">
        <ele>288</ele>
        <time>2024-04-29T04:57:28Z</time>
      </trkpt>
      <trkpt lat="50.02004" lon="4.31525">
        <ele>288.2</ele>
        <time>2024-04-29T04:57:29Z</time>
      </trkpt>
      <trkpt lat="50.02001" lon="4.31524">
        <ele>288.4</ele>
        <time>2024-04-29T04:57:30Z</time>
      </trkpt>
      <trkpt lat="50.01997" lon="4.31522">
        <ele>288.6</ele>
        <time>2024-04-29T04:57:31Z</time>
      </trkpt>
      <trkpt lat="50.01994" lon="4.31521">
        <ele>288.6</ele>
        <time>2024-04-29T04:57:32Z</time>
      </trkpt>
      <trkpt lat="50.0199" lon="4.3152">
        <ele>288.8</ele>
        <time>2024-04-29T04:57:33Z</time>
      </trkpt>
      <trkpt lat="50.01987" lon="4.31518">
        <ele>289</ele>
        <time>2024-04-29T04:57:34Z</time>
      </trkpt>
      <trkpt lat="50.01984" lon="4.31517">
        <ele>289.2</ele>
        <time>2024-04-29T04:57:35Z</time>
      </trkpt>
      <trkpt lat="50.0198" lon="4.31516">
        <ele>289.4</ele>
        <time>2024-04-29T04:57:36Z</time>
      </trkpt>
      <trkpt lat="50.01977" lon="4.31515">
        <ele>289.4</ele>
        <time>2024-04-29T04:57:37Z</time>
      </trkpt>
      <trkpt lat="50.01974" lon="4.31513">
        <ele>289.6</ele>
        <time>2024-04-29T04:57:38Z</time>
      </trkpt>
      <trkpt lat="50.0197" lon="4.31512">
        <ele>289.8</ele>
        <time>2024-04-29T04:57:39Z</time>
      </trkpt>
      <trkpt lat="50.01967" lon="4.31511">
        <ele>290.2</ele>
        <time>2024-04-29T04:57:40Z</time>
      </trkpt>
      <trkpt lat="50.01964" lon="4.3151">
        <ele>290.4</ele>
        <time>2024-04-29T04:57:41Z</time>
      </trkpt>
      <trkpt lat="50.0196" lon="4.31508">
        <ele>290.4</ele>
        <time>2024-04-29T04:57:42Z</time>
      </trkpt>
      <trkpt lat="50.01957" lon="4.31507">
        <ele>290.4</ele>
        <time>2024-04-29T04:57:43Z</time>
      </trkpt>
      <trkpt lat="50.01954" lon="4.31506">
        <ele>290.6</ele>
        <time>2024-04-29T04:57:44Z</time>
      </trkpt>
      <trkpt lat="50.0195" lon="4.31505">
        <ele>290.6</ele>
        <time>2024-04-29T04:57:45Z</time>
      </trkpt>
      <trkpt lat="50.01947" lon="4.31503">
        <ele>290.6</ele>
        <time>2024-04-29T04:57:46Z</time>
      </trkpt>
      <trkpt lat="50.01943" lon="4.31502">
        <ele>290.6</ele>
        <time>2024-04-29T04:57:47Z</time>
      </trkpt>
      <trkpt lat="50.0194" lon="4.31501">
        <ele>290.6</ele>
        <time>2024-04-29T04:57:48Z</time>
      </trkpt>
      <trkpt lat="50.01936" lon="4.315">
        <ele>291</ele>
        <time>2024-04-29T04:57:49Z</time>
      </trkpt>
      <trkpt lat="50.01932" lon="4.31499">
        <ele>291</ele>
        <time>2024-04-29T04:57:50Z</time>
      </trkpt>
      <trkpt lat="50.01928" lon="4.31497">
        <ele>291</ele>
        <time>2024-04-29T04:57:51Z</time>
      </trkpt>
      <trkpt lat="50.01925" lon="4.31496">
        <ele>291.2</ele>
        <time>2024-04-29T04:57:52Z</time>
      </trkpt>
      <trkpt lat="50.01921" lon="4.31495">
        <ele>291.2</ele>
        <time>2024-04-29T04:57:53Z</time>
      </trkpt>
      <trkpt lat="50.01917" lon="4.31494">
        <ele>291.2</ele>
        <time>2024-04-29T04:57:54Z</time>
      </trkpt>
      <trkpt lat="50.01913" lon="4.31493">
        <ele>291.2</ele>
        <time>2024-04-29T04:57:55Z</time>
      </trkpt>
      <trkpt lat="50.01909" lon="4.31491">
        <ele>291.2</ele>
        <time>2024-04-29T04:57:56Z</time>
      </trkpt>
      <trkpt lat="50.01905" lon="4.3149">
        <ele>291.2</ele>
        <time>2024-04-29T04:57:57Z</time>
      </trkpt>
      <trkpt lat="50.01902" lon="4.31489">
        <ele>291.2</ele>
        <time>2024-04-29T04:57:58Z</time>
      </trkpt>
      <trkpt lat="50.01897" lon="4.31487">
        <ele>291.2</ele>
        <time>2024-04-29T04:57:59Z</time>
      </trkpt>
      <trkpt lat="50.01893" lon="4.31486">
        <ele>291.2</ele>
        <time>2024-04-29T04:58:00Z</time>
      </trkpt>
      <trkpt lat="50.01889" lon="4.31485">
        <ele>291.4</ele>
        <time>2024-04-29T04:58:01Z</time>
      </trkpt>
      <trkpt lat="50.01885" lon="4.31483">
        <ele>291.2</ele>
        <time>2024-04-29T04:58:02Z</time>
      </trkpt>
      <trkpt lat="50.01881" lon="4.31482">
        <ele>291.4</ele>
        <time>2024-04-29T04:58:03Z</time>
      </trkpt>
      <trkpt lat="50.01877" lon="4.3148">
        <ele>291.2</ele>
        <time>2024-04-29T04:58:04Z</time>
      </trkpt>
      <trkpt lat="50.01873" lon="4.31478">
        <ele>291.4</ele>
        <time>2024-04-29T04:58:05Z</time>
      </trkpt>
      <trkpt lat="50.01868" lon="4.31476">
        <ele>291.4</ele>
        <time>2024-04-29T04:58:06Z</time>
      </trkpt>
      <trkpt lat="50.01864" lon="4.31474">
        <ele>291.4</ele>
        <time>2024-04-29T04:58:07Z</time>
      </trkpt>
      <trkpt lat="50.0186" lon="4.31473">
        <ele>291.6</ele>
        <time>2024-04-29T04:58:08Z</time>
      </trkpt>
      <trkpt lat="50.01856" lon="4.31471">
        <ele>291.4</ele>
        <time>2024-04-29T04:58:09Z</time>
      </trkpt>
      <trkpt lat="50.01851" lon="4.31469">
        <ele>291.2</ele>
        <time>2024-04-29T04:58:10Z</time>
      </trkpt>
      <trkpt lat="50.01847" lon="4.31467">
        <ele>291.4</ele>
        <time>2024-04-29T04:58:11Z</time>
      </trkpt>
      <trkpt lat="50.01843" lon="4.31465">
        <ele>291.4</ele>
        <time>2024-04-29T04:58:12Z</time>
      </trkpt>
      <trkpt lat="50.01839" lon="4.31463">
        <ele>291.4</ele>
        <time>2024-04-29T04:58:13Z</time>
      </trkpt>
      <trkpt lat="50.01835" lon="4.31461">
        <ele>291.6</ele>
        <time>2024-04-29T04:58:14Z</time>
      </trkpt>
      <trkpt lat="50.01831" lon="4.31459">
        <ele>291.8</ele>
        <time>2024-04-29T04:58:15Z</time>
      </trkpt>
      <trkpt lat="50.01827" lon="4.31457">
        <ele>292.2</ele>
        <time>2024-04-29T04:58:16Z</time>
      </trkpt>
      <trkpt lat="50.01823" lon="4.31455">
        <ele>292.4</ele>
        <time>2024-04-29T04:58:17Z</time>
      </trkpt>
      <trkpt lat="50.01819" lon="4.31453">
        <ele>292.6</ele>
        <time>2024-04-29T04:58:18Z</time>
      </trkpt>
      <trkpt lat="50.01815" lon="4.31451">
        <ele>292.8</ele>
        <time>2024-04-29T04:58:19Z</time>
      </trkpt>
      <trkpt lat="50.01811" lon="4.31449">
        <ele>293.2</ele>
        <time>2024-04-29T04:58:20Z</time>
      </trkpt>
      <trkpt lat="50.01807" lon="4.31447">
        <ele>293.2</ele>
        <time>2024-04-29T04:58:21Z</time>
      </trkpt>
      <trkpt lat="50.01802" lon="4.31445">
        <ele>293.2</ele>
        <time>2024-04-29T04:58:22Z</time>
      </trkpt>
      <trkpt lat="50.01798" lon="4.31443">
        <ele>293.6</ele>
        <time>2024-04-29T04:58:23Z</time>
      </trkpt>
      <trkpt lat="50.01794" lon="4.31441">
        <ele>293.6</ele>
        <time>2024-04-29T04:58:24Z</time>
      </trkpt>
      <trkpt lat="50.0179" lon="4.31438">
        <ele>293.8</ele>
        <time>2024-04-29T04:58:25Z</time>
      </trkpt>
      <trkpt lat="50.01786" lon="4.31436">
        <ele>293.8</ele>
        <time>2024-04-29T04:58:26Z</time>
      </trkpt>
      <trkpt lat="50.01782" lon="4.31433">
        <ele>294</ele>
        <time>2024-04-29T04:58:27Z</time>
      </trkpt>
      <trkpt lat="50.01778" lon="4.31431">
        <ele>294</ele>
        <time>2024-04-29T04:58:28Z</time>
      </trkpt>
      <trkpt lat="50.01774" lon="4.31428">
        <ele>294.2</ele>
        <time>2024-04-29T04:58:29Z</time>
      </trkpt>
      <trkpt lat="50.01771" lon="4.31425">
        <ele>294.4</ele>
        <time>2024-04-29T04:58:30Z</time>
      </trkpt>
      <trkpt lat="50.01767" lon="4.31422">
        <ele>294.4</ele>
        <time>2024-04-29T04:58:31Z</time>
      </trkpt>
      <trkpt lat="50.01763" lon="4.31418">
        <ele>294.8</ele>
        <time>2024-04-29T04:58:32Z</time>
      </trkpt>
      <trkpt lat="50.01759" lon="4.31415">
        <ele>294.8</ele>
        <time>2024-04-29T04:58:33Z</time>
      </trkpt>
      <trkpt lat="50.01756" lon="4.31412">
        <ele>295</ele>
        <time>2024-04-29T04:58:34Z</time>
      </trkpt>
      <trkpt lat="50.01752" lon="4.31408">
        <ele>295.4</ele>
        <time>2024-04-29T04:58:35Z</time>
      </trkpt>
      <trkpt lat="50.01749" lon="4.31405">
        <ele>295.4</ele>
        <time>2024-04-29T04:58:36Z</time>
      </trkpt>
      <trkpt lat="50.01745" lon="4.31402">
        <ele>295.6</ele>
        <time>2024-04-29T04:58:37Z</time>
      </trkpt>
      <trkpt lat="50.01741" lon="4.31398">
        <ele>295.8</ele>
        <time>2024-04-29T04:58:38Z</time>
      </trkpt>
      <trkpt lat="50.01738" lon="4.31395">
        <ele>296</ele>
        <time>2024-04-29T04:58:39Z</time>
      </trkpt>
      <trkpt lat="50.01734" lon="4.31391">
        <ele>296.2</ele>
        <time>2024-04-29T04:58:40Z</time>
      </trkpt>
      <trkpt lat="50.0173" lon="4.31388">
        <ele>296.4</ele>
        <time>2024-04-29T04:58:41Z</time>
      </trkpt>
      <trkpt lat="50.01726" lon="4.31386">
        <ele>296.4</ele>
        <time>2024-04-29T04:58:42Z</time>
      </trkpt>
      <trkpt lat="50.01722" lon="4.31383">
        <ele>296.4</ele>
        <time>2024-04-29T04:58:43Z</time>
      </trkpt>
      <trkpt lat="50.01718" lon="4.3138">
        <ele>296.4</ele>
        <time>2024-04-29T04:58:44Z</time>
      </trkpt>
      <trkpt lat="50.01714" lon="4.31377">
        <ele>296.6</ele>
        <time>2024-04-29T04:58:45Z</time>
      </trkpt>
      <trkpt lat="50.0171" lon="4.31375">
        <ele>296.6</ele>
        <time>2024-04-29T04:58:46Z</time>
      </trkpt>
      <trkpt lat="50.01706" lon="4.31372">
        <ele>296.8</ele>
        <time>2024-04-29T04:58:47Z</time>
      </trkpt>
      <trkpt lat="50.01702" lon="4.3137">
        <ele>297</ele>
        <time>2024-04-29T04:58:48Z</time>
      </trkpt>
      <trkpt lat="50.01698" lon="4.31368">
        <ele>297</ele>
        <time>2024-04-29T04:58:49Z</time>
      </trkpt>
      <trkpt lat="50.01694" lon="4.31366">
        <ele>297</ele>
        <time>2024-04-29T04:58:50Z</time>
      </trkpt>
      <trkpt lat="50.0169" lon="4.31364">
        <ele>297.2</ele>
        <time>2024-04-29T04:58:51Z</time>
      </trkpt>
      <trkpt lat="50.01685" lon="4.31363">
        <ele>297.4</ele>
        <time>2024-04-29T04:58:52Z</time>
      </trkpt>
      <trkpt lat="50.01681" lon="4.31361">
        <ele>297.6</ele>
        <time>2024-04-29T04:58:53Z</time>
      </trkpt>
      <trkpt lat="50.01677" lon="4.31359">
        <ele>297.6</ele>
        <time>2024-04-29T04:58:54Z</time>
      </trkpt>
      <trkpt lat="50.01673" lon="4.31357">
        <ele>297.8</ele>
        <time>2024-04-29T04:58:55Z</time>
      </trkpt>
      <trkpt lat="50.01669" lon="4.31355">
        <ele>297.8</ele>
        <time>2024-04-29T04:58:56Z</time>
      </trkpt>
      <trkpt lat="50.01665" lon="4.31352">
        <ele>298</ele>
        <time>2024-04-29T04:58:57Z</time>
      </trkpt>
      <trkpt lat="50.0166" lon="4.3135">
        <ele>298</ele>
        <time>2024-04-29T04:58:58Z</time>
      </trkpt>
      <trkpt lat="50.01656" lon="4.31348">
        <ele>298</ele>
        <time>2024-04-29T04:58:59Z</time>
      </trkpt>
      <trkpt lat="50.01652" lon="4.31345">
        <ele>298.2</ele>
        <time>2024-04-29T04:59:00Z</time>
      </trkpt>
      <trkpt lat="50.01648" lon="4.31342">
        <ele>298.2</ele>
        <time>2024-04-29T04:59:01Z</time>
      </trkpt>
      <trkpt lat="50.01644" lon="4.31338">
        <ele>298.4</ele>
        <time>2024-04-29T04:59:02Z</time>
      </trkpt>
      <trkpt lat="50.0164" lon="4.31335">
        <ele>298.8</ele>
        <time>2024-04-29T04:59:03Z</time>
      </trkpt>
      <trkpt lat="50.01637" lon="4.31331">
        <ele>299.2</ele>
        <time>2024-04-29T04:59:04Z</time>
      </trkpt>
      <trkpt lat="50.01633" lon="4.31328">
        <ele>299.2</ele>
        <time>2024-04-29T04:59:05Z</time>
      </trkpt>
      <trkpt lat="50.0163" lon="4.31325">
        <ele>299.2</ele>
        <time>2024-04-29T04:59:06Z</time>
      </trkpt>
      <trkpt lat="50.01626" lon="4.31321">
        <ele>299.4</ele>
        <time>2024-04-29T04:59:07Z</time>
      </trkpt>
      <trkpt lat="50.01623" lon="4.31318">
        <ele>299.4</ele>
        <time>2024-04-29T04:59:08Z</time>
      </trkpt>
      <trkpt lat="50.0162" lon="4.31314">
        <ele>299.8</ele>
        <time>2024-04-29T04:59:09Z</time>
      </trkpt>
      <trkpt lat="50.01616" lon="4.3131">
        <ele>299.8</ele>
        <time>2024-04-29T04:59:10Z</time>
      </trkpt>
      <trkpt lat="50.01613" lon="4.31307">
        <ele>300.2</ele>
        <time>2024-04-29T04:59:11Z</time>
      </trkpt>
      <trkpt lat="50.0161" lon="4.31303">
        <ele>300.4</ele>
        <time>2024-04-29T04:59:12Z</time>
      </trkpt>
      <trkpt lat="50.01606" lon="4.313">
        <ele>300.4</ele>
        <time>2024-04-29T04:59:13Z</time>
      </trkpt>
      <trkpt lat="50.01603" lon="4.31296">
        <ele>300.4</ele>
        <time>2024-04-29T04:59:14Z</time>
      </trkpt>
      <trkpt lat="50.016" lon="4.31293">
        <ele>300.6</ele>
        <time>2024-04-29T04:59:15Z</time>
      </trkpt>
      <trkpt lat="50.01596" lon="4.3129">
        <ele>300.8</ele>
        <time>2024-04-29T04:59:16Z</time>
      </trkpt>
      <trkpt lat="50.01593" lon="4.31286">
        <ele>300.8</ele>
        <time>2024-04-29T04:59:17Z</time>
      </trkpt>
      <trkpt lat="50.0159" lon="4.31282">
        <ele>300.8</ele>
        <time>2024-04-29T04:59:18Z</time>
      </trkpt>
      <trkpt lat="50.01587" lon="4.31277">
        <ele>301</ele>
        <time>2024-04-29T04:59:19Z</time>
      </trkpt>
      <trkpt lat="50.01586" lon="4.31271">
        <ele>301.2</ele>
        <time>2024-04-29T04:59:20Z</time>
      </trkpt>
      <trkpt lat="50.01586" lon="4.31265">
        <ele>301.2</ele>
        <time>2024-04-29T04:59:21Z</time>
      </trkpt>
      <trkpt lat="50.01586" lon="4.31258">
        <ele>301.2</ele>
        <time>2024-04-29T04:59:22Z</time>
      </trkpt>
      <trkpt lat="50.01587" lon="4.31251">
        <ele>301.6</ele>
        <time>2024-04-29T04:59:23Z</time>
      </trkpt>
      <trkpt lat="50.01588" lon="4.31244">
        <ele>301.8</ele>
        <time>2024-04-29T04:59:24Z</time>
      </trkpt>
      <trkpt lat="50.01589" lon="4.31236">
        <ele>302</ele>
        <time>2024-04-29T04:59:25Z</time>
      </trkpt>
      <trkpt lat="50.0159" lon="4.31229">
        <ele>302</ele>
        <time>2024-04-29T04:59:26Z</time>
      </trkpt>
      <trkpt lat="50.01591" lon="4.31221">
        <ele>302.4</ele>
        <time>2024-04-29T04:59:27Z</time>
      </trkpt>
      <trkpt lat="50.01592" lon="4.31214">
        <ele>302.2</ele>
        <time>2024-04-29T04:59:28Z</time>
      </trkpt>
      <trkpt lat="50.01594" lon="4.31206">
        <ele>302.4</ele>
        <time>2024-04-29T04:59:29Z</time>
      </trkpt>
      <trkpt lat="50.01596" lon="4.31198">
        <ele>302.4</ele>
        <time>2024-04-29T04:59:30Z</time>
      </trkpt>
      <trkpt lat="50.01597" lon="4.3119">
        <ele>302.4</ele>
        <time>2024-04-29T04:59:31Z</time>
      </trkpt>
      <trkpt lat="50.01599" lon="4.31182">
        <ele>302.6</ele>
        <time>2024-04-29T04:59:32Z</time>
      </trkpt>
      <trkpt lat="50.01601" lon="4.31174">
        <ele>302.6</ele>
        <time>2024-04-29T04:59:33Z</time>
      </trkpt>
      <trkpt lat="50.01603" lon="4.31166">
        <ele>302.6</ele>
        <time>2024-04-29T04:59:34Z</time>
      </trkpt>
      <trkpt lat="50.01605" lon="4.31157">
        <ele>302.4</ele>
        <time>2024-04-29T04:59:35Z</time>
      </trkpt>
      <trkpt lat="50.01607" lon="4.31149">
        <ele>302.4</ele>
        <time>2024-04-29T04:59:36Z</time>
      </trkpt>
      <trkpt lat="50.01608" lon="4.31141">
        <ele>302.4</ele>
        <time>2024-04-29T04:59:37Z</time>
      </trkpt>
      <trkpt lat="50.0161" lon="4.31132">
        <ele>302.2</ele>
        <time>2024-04-29T04:59:38Z</time>
      </trkpt>
      <trkpt lat="50.01612" lon="4.31123">
        <ele>302.2</ele>
        <time>2024-04-29T04:59:39Z</time>
      </trkpt>
      <trkpt lat="50.01614" lon="4.31113">
        <ele>302.2</ele>
        <time>2024-04-29T04:59:40Z</time>
      </trkpt>
      <trkpt lat="50.01617" lon="4.31104">
        <ele>302</ele>
        <time>2024-04-29T04:59:41Z</time>
      </trkpt>
      <trkpt lat="50.01619" lon="4.31094">
        <ele>302</ele>
        <time>2024-04-29T04:59:42Z</time>
      </trkpt>
      <trkpt lat="50.01621" lon="4.31084">
        <ele>301.8</ele>
        <time>2024-04-29T04:59:43Z</time>
      </trkpt>
      <trkpt lat="50.01624" lon="4.31074">
        <ele>301.6</ele>
        <time>2024-04-29T04:59:44Z</time>
      </trkpt>
      <trkpt lat="50.01626" lon="4.31064">
        <ele>301</ele>
        <time>2024-04-29T04:59:45Z</time>
      </trkpt>
      <trkpt lat="50.01628" lon="4.31054">
        <ele>300.6</ele>
        <time>2024-04-29T04:59:46Z</time>
      </trkpt>
      <trkpt lat="50.0163" lon="4.31044">
        <ele>300.4</ele>
        <time>2024-04-29T04:59:47Z</time>
      </trkpt>
      <trkpt lat="50.01632" lon="4.31033">
        <ele>300.4</ele>
        <time>2024-04-29T04:59:48Z</time>
      </trkpt>
      <trkpt lat="50.01634" lon="4.31023">
        <ele>300.2</ele>
        <time>2024-04-29T04:59:49Z</time>
      </trkpt>
      <trkpt lat="50.01636" lon="4.31012">
        <ele>300.2</ele>
        <time>2024-04-29T04:59:50Z</time>
      </trkpt>
      <trkpt lat="50.01639" lon="4.31001">
        <ele>300</ele>
        <time>2024-04-29T04:59:51Z</time>
      </trkpt>
      <trkpt lat="50.01641" lon="4.3099">
        <ele>300</ele>
        <time>2024-04-29T04:59:52Z</time>
      </trkpt>
      <trkpt lat="50.01644" lon="4.30979">
        <ele>299.8</ele>
        <time>2024-04-29T04:59:53Z</time>
      </trkpt>
      <trkpt lat="50.01646" lon="4.30968">
        <ele>299.6</ele>
        <time>2024-04-29T04:59:54Z</time>
      </trkpt>
      <trkpt lat="50.01649" lon="4.30957">
        <ele>299.6</ele>
        <time>2024-04-29T04:59:55Z</time>
      </trkpt>
      <trkpt lat="50.01651" lon="4.30945">
        <ele>299.4</ele>
        <time>2024-04-29T04:59:56Z</time>
      </trkpt>
      <trkpt lat="50.01654" lon="4.30934">
        <ele>299.4</ele>
        <time>2024-04-29T04:59:57Z</time>
      </trkpt>
      <trkpt lat="50.01656" lon="4.30922">
        <ele>299.2</ele>
        <time>2024-04-29T04:59:58Z</time>
      </trkpt>
      <trkpt lat="50.01659" lon="4.30911">
        <ele>299.2</ele>
        <time>2024-04-29T04:59:59Z</time>
      </trkpt>
      <trkpt lat="50.01662" lon="4.309">
        <ele>298.6</ele>
        <time>2024-04-29T05:00:00Z</time>
      </trkpt>
      <trkpt lat="50.01664" lon="4.30888">
        <ele>298.4</ele>
        <time>2024-04-29T05:00:01Z</time>
      </trkpt>
      <trkpt lat="50.01666" lon="4.30877">
        <ele>298</ele>
        <time>2024-04-29T05:00:02Z</time>
      </trkpt>
      <trkpt lat="50.01668" lon="4.30865">
        <ele>297.6</ele>
        <time>2024-04-29T05:00:03Z</time>
      </trkpt>
      <trkpt lat="50.01671" lon="4.30854">
        <ele>297.4</ele>
        <time>2024-04-29T05:00:04Z</time>
      </trkpt>
      <trkpt lat="50.01673" lon="4.30842">
        <ele>297</ele>
        <time>2024-04-29T05:00:05Z</time>
      </trkpt>
      <trkpt lat="50.01676" lon="4.30831">
        <ele>296.4</ele>
        <time>2024-04-29T05:00:06Z</time>
      </trkpt>
      <trkpt lat="50.01679" lon="4.30819">
        <ele>296.2</ele>
        <time>2024-04-29T05:00:07Z</time>
      </trkpt>
      <trkpt lat="50.01681" lon="4.30808">
        <ele>296</ele>
        <time>2024-04-29T05:00:08Z</time>
      </trkpt>
      <trkpt lat="50.01683" lon="4.30797">
        <ele>295.4</ele>
        <time>2024-04-29T05:00:09Z</time>
      </trkpt>
      <trkpt lat="50.01686" lon="4.30787">
        <ele>295.4</ele>
        <time>2024-04-29T05:00:10Z</time>
      </trkpt>
      <trkpt lat="50.01688" lon="4.30776">
        <ele>295.2</ele>
        <time>2024-04-29T05:00:11Z</time>
      </trkpt>
      <trkpt lat="50.0169" lon="4.30766">
        <ele>295.2</ele>
        <time>2024-04-29T05:00:12Z</time>
      </trkpt>
      <trkpt lat="50.01693" lon="4.30755">
        <ele>295</ele>
        <time>2024-04-29T05:00:13Z</time>
      </trkpt>
      <trkpt lat="50.01695" lon="4.30745">
        <ele>294.8</ele>
        <time>2024-04-29T05:00:14Z</time>
      </trkpt>
      <trkpt lat="50.01697" lon="4.30735">
        <ele>294.6</ele>
        <time>2024-04-29T05:00:15Z</time>
      </trkpt>
      <trkpt lat="50.01699" lon="4.30726">
        <ele>294.6</ele>
        <time>2024-04-29T05:00:16Z</time>
      </trkpt>
      <trkpt lat="50.017" lon="4.30716">
        <ele>294.8</ele>
        <time>2024-04-29T05:00:17Z</time>
      </trkpt>
      <trkpt lat="50.01702" lon="4.30707">
        <ele>294.8</ele>
        <time>2024-04-29T05:00:18Z</time>
      </trkpt>
      <trkpt lat="50.01704" lon="4.30698">
        <ele>294.8</ele>
        <time>2024-04-29T05:00:19Z</time>
      </trkpt>
      <trkpt lat="50.01706" lon="4.30689">
        <ele>294.6</ele>
        <time>2024-04-29T05:00:20Z</time>
      </trkpt>
      <trkpt lat="50.01708" lon="4.3068">
        <ele>294.8</ele>
        <time>2024-04-29T05:00:21Z</time>
      </trkpt>
      <trkpt lat="50.01709" lon="4.30671">
        <ele>294.8</ele>
        <time>2024-04-29T05:00:22Z</time>
      </trkpt>
      <trkpt lat="50.01711" lon="4.30662">
        <ele>294.8</ele>
        <time>2024-04-29T05:00:23Z</time>
      </trkpt>
      <trkpt lat="50.01713" lon="4.30653">
        <ele>294.8</ele>
        <time>2024-04-29T05:00:24Z</time>
      </trkpt>
      <trkpt lat="50.01715" lon="4.30645">
        <ele>295</ele>
        <time>2024-04-29T05:00:25Z</time>
      </trkpt>
      <trkpt lat="50.01717" lon="4.30636">
        <ele>295.2</ele>
        <time>2024-04-29T05:00:26Z</time>
      </trkpt>
      <trkpt lat="50.01719" lon="4.30628">
        <ele>295.4</ele>
        <time>2024-04-29T05:00:27Z</time>
      </trkpt>
      <trkpt lat="50.0172" lon="4.30619">
        <ele>295.6</ele>
        <time>2024-04-29T05:00:28Z</time>
      </trkpt>
      <trkpt lat="50.01722" lon="4.30611">
        <ele>295.6</ele>
        <time>2024-04-29T05:00:29Z</time>
      </trkpt>
      <trkpt lat="50.01724" lon="4.30603">
        <ele>295.6</ele>
        <time>2024-04-29T05:00:30Z</time>
      </trkpt>
      <trkpt lat="50.01726" lon="4.30594">
        <ele>295.6</ele>
        <time>2024-04-29T05:00:31Z</time>
      </trkpt>
      <trkpt lat="50.01727" lon="4.30586">
        <ele>296</ele>
        <time>2024-04-29T05:00:32Z</time>
      </trkpt>
      <trkpt lat="50.01729" lon="4.30578">
        <ele>296.2</ele>
        <time>2024-04-29T05:00:33Z</time>
      </trkpt>
      <trkpt lat="50.01731" lon="4.30569">
        <ele>296.4</ele>
        <time>2024-04-29T05:00:34Z</time>
      </trkpt>
      <trkpt lat="50.01732" lon="4.30561">
        <ele>296.4</ele>
        <time>2024-04-29T05:00:35Z</time>
      </trkpt>
      <trkpt lat="50.01734" lon="4.30553">
        <ele>296.6</ele>
        <time>2024-04-29T05:00:36Z</time>
      </trkpt>
      <trkpt lat="50.01736" lon="4.30545">
        <ele>296.8</ele>
        <time>2024-04-29T05:00:37Z</time>
      </trkpt>
      <trkpt lat="50.01738" lon="4.30536">
        <ele>296.8</ele>
        <time>2024-04-29T05:00:38Z</time>
      </trkpt>
      <trkpt lat="50.01739" lon="4.30528">
        <ele>296.8</ele>
        <time>2024-04-29T05:00:39Z</time>
      </trkpt>
      <trkpt lat="50.01741" lon="4.30519">
        <ele>296.8</ele>
        <time>2024-04-29T05:00:40Z</time>
      </trkpt>
      <trkpt lat="50.01743" lon="4.30511">
        <ele>296.8</ele>
        <time>2024-04-29T05:00:41Z</time>
      </trkpt>
      <trkpt lat="50.01745" lon="4.30503">
        <ele>296.8</ele>
        <time>2024-04-29T05:00:42Z</time>
      </trkpt>
      <trkpt lat="50.01746" lon="4.30494">
        <ele>297.2</ele>
        <time>2024-04-29T05:00:43Z</time>
      </trkpt>
      <trkpt lat="50.01748" lon="4.30486">
        <ele>297.4</ele>
        <time>2024-04-29T05:00:44Z</time>
      </trkpt>
      <trkpt lat="50.0175" lon="4.30478">
        <ele>297.4</ele>
        <time>2024-04-29T05:00:45Z</time>
      </trkpt>
      <trkpt lat="50.01752" lon="4.3047">
        <ele>297.6</ele>
        <time>2024-04-29T05:00:46Z</time>
      </trkpt>
      <trkpt lat="50.01753" lon="4.30461">
        <ele>297.8</ele>
        <time>2024-04-29T05:00:47Z</time>
      </trkpt>
      <trkpt lat="50.01755" lon="4.30453">
        <ele>297.8</ele>
        <time>2024-04-29T05:00:48Z</time>
      </trkpt>
      <trkpt lat="50.01757" lon="4.30445">
        <ele>297.8</ele>
        <time>2024-04-29T05:00:49Z</time>
      </trkpt>
      <trkpt lat="50.01759" lon="4.30437">
        <ele>298</ele>
        <time>2024-04-29T05:00:50Z</time>
      </trkpt>
      <trkpt lat="50.0176" lon="4.30428">
        <ele>298</ele>
        <time>2024-04-29T05:00:51Z</time>
      </trkpt>
      <trkpt lat="50.01762" lon="4.3042">
        <ele>298</ele>
        <time>2024-04-29T05:00:52Z</time>
      </trkpt>
      <trkpt lat="50.01763" lon="4.30411">
        <ele>298</ele>
        <time>2024-04-29T05:00:53Z</time>
      </trkpt>
      <trkpt lat="50.01763" lon="4.30403">
        <ele>298</ele>
        <time>2024-04-29T05:00:54Z</time>
      </trkpt>
      <trkpt lat="50.01763" lon="4.30394">
        <ele>298.2</ele>
        <time>2024-04-29T05:00:55Z</time>
      </trkpt>
      <trkpt lat="50.01762" lon="4.30385">
        <ele>298.2</ele>
        <time>2024-04-29T05:00:56Z</time>
      </trkpt>
      <trkpt lat="50.0176" lon="4.30377">
        <ele>298.2</ele>
        <time>2024-04-29T05:00:57Z</time>
      </trkpt>
      <trkpt lat="50.01758" lon="4.30369">
        <ele>298.2</ele>
        <time>2024-04-29T05:00:58Z</time>
      </trkpt>
      <trkpt lat="50.01757" lon="4.30361">
        <ele>298.2</ele>
        <time>2024-04-29T05:00:59Z</time>
      </trkpt>
      <trkpt lat="50.01755" lon="4.30354">
        <ele>298.4</ele>
        <time>2024-04-29T05:01:00Z</time>
      </trkpt>
      <trkpt lat="50.01752" lon="4.30346">
        <ele>298.4</ele>
        <time>2024-04-29T05:01:01Z</time>
      </trkpt>
      <trkpt lat="50.0175" lon="4.30338">
        <ele>298.6</ele>
        <time>2024-04-29T05:01:02Z</time>
      </trkpt>
      <trkpt lat="50.01749" lon="4.30331">
        <ele>298.8</ele>
        <time>2024-04-29T05:01:03Z</time>
      </trkpt>
      <trkpt lat="50.01747" lon="4.30323">
        <ele>299</ele>
        <time>2024-04-29T05:01:04Z</time>
      </trkpt>
      <trkpt lat="50.01745" lon="4.30315">
        <ele>299.2</ele>
        <time>2024-04-29T05:01:05Z</time>
      </trkpt>
      <trkpt lat="50.01743" lon="4.30308">
        <ele>299.2</ele>
        <time>2024-04-29T05:01:06Z</time>
      </trkpt>
      <trkpt lat="50.01741" lon="4.303">
        <ele>299.4</ele>
        <time>2024-04-29T05:01:07Z</time>
      </trkpt>
      <trkpt lat="50.01739" lon="4.30293">
        <ele>299.8</ele>
        <time>2024-04-29T05:01:08Z</time>
      </trkpt>
      <trkpt lat="50.01737" lon="4.30286">
        <ele>300</ele>
        <time>2024-04-29T05:01:09Z</time>
      </trkpt>
      <trkpt lat="50.01735" lon="4.30278">
        <ele>300.2</ele>
        <time>2024-04-29T05:01:10Z</time>
      </trkpt>
      <trkpt lat="50.01733" lon="4.3027">
        <ele>300.4</ele>
        <time>2024-04-29T05:01:11Z</time>
      </trkpt>
      <trkpt lat="50.01731" lon="4.30262">
        <ele>300.6</ele>
        <time>2024-04-29T05:01:12Z</time>
      </trkpt>
      <trkpt lat="50.01729" lon="4.30255">
        <ele>300.8</ele>
        <time>2024-04-29T05:01:13Z</time>
      </trkpt>
      <trkpt lat="50.01727" lon="4.30248">
        <ele>300.8</ele>
        <time>2024-04-29T05:01:14Z</time>
      </trkpt>
      <trkpt lat="50.01725" lon="4.30241">
        <ele>300.8</ele>
        <time>2024-04-29T05:01:15Z</time>
      </trkpt>
      <trkpt lat="50.01723" lon="4.30234">
        <ele>301</ele>
        <time>2024-04-29T05:01:16Z</time>
      </trkpt>
      <trkpt lat="50.01722" lon="4.30227">
        <ele>301</ele>
        <time>2024-04-29T05:01:17Z</time>
      </trkpt>
      <trkpt lat="50.0172" lon="4.30219">
        <ele>301</ele>
        <time>2024-04-29T05:01:18Z</time>
      </trkpt>
      <trkpt lat="50.01718" lon="4.30211">
        <ele>301</ele>
        <time>2024-04-29T05:01:19Z</time>
      </trkpt>
      <trkpt lat="50.01717" lon="4.30203">
        <ele>301</ele>
        <time>2024-04-29T05:01:20Z</time>
      </trkpt>
      <trkpt lat="50.01715" lon="4.30195">
        <ele>301</ele>
        <time>2024-04-29T05:01:21Z</time>
      </trkpt>
      <trkpt lat="50.01713" lon="4.30187">
        <ele>300.8</ele>
        <time>2024-04-29T05:01:22Z</time>
      </trkpt>
      <trkpt lat="50.01711" lon="4.3018">
        <ele>301</ele>
        <time>2024-04-29T05:01:23Z</time>
      </trkpt>
      <trkpt lat="50.01709" lon="4.30172">
        <ele>301</ele>
        <time>2024-04-29T05:01:24Z</time>
      </trkpt>
      <trkpt lat="50.01707" lon="4.30164">
        <ele>300.8</ele>
        <time>2024-04-29T05:01:25Z</time>
      </trkpt>
      <trkpt lat="50.01705" lon="4.30157">
        <ele>301</ele>
        <time>2024-04-29T05:01:26Z</time>
      </trkpt>
      <trkpt lat="50.01704" lon="4.30149">
        <ele>300.8</ele>
        <time>2024-04-29T05:01:27Z</time>
      </trkpt>
      <trkpt lat="50.01702" lon="4.30141">
        <ele>301</ele>
        <time>2024-04-29T05:01:28Z</time>
      </trkpt>
      <trkpt lat="50.017" lon="4.30132">
        <ele>300.8</ele>
        <time>2024-04-29T05:01:29Z</time>
      </trkpt>
      <trkpt lat="50.01698" lon="4.30124">
        <ele>300.8</ele>
        <time>2024-04-29T05:01:30Z</time>
      </trkpt>
      <trkpt lat="50.01696" lon="4.30115">
        <ele>300.8</ele>
        <time>2024-04-29T05:01:31Z</time>
      </trkpt>
      <trkpt lat="50.01694" lon="4.30106">
        <ele>300.8</ele>
        <time>2024-04-29T05:01:32Z</time>
      </trkpt>
      <trkpt lat="50.01691" lon="4.30096">
        <ele>300.8</ele>
        <time>2024-04-29T05:01:33Z</time>
      </trkpt>
      <trkpt lat="50.01689" lon="4.30087">
        <ele>300.6</ele>
        <time>2024-04-29T05:01:34Z</time>
      </trkpt>
      <trkpt lat="50.01687" lon="4.30077">
        <ele>300.6</ele>
        <time>2024-04-29T05:01:35Z</time>
      </trkpt>
      <trkpt lat="50.01684" lon="4.30067">
        <ele>300.6</ele>
        <time>2024-04-29T05:01:36Z</time>
      </trkpt>
      <trkpt lat="50.01682" lon="4.30057">
        <ele>300.6</ele>
        <time>2024-04-29T05:01:37Z</time>
      </trkpt>
      <trkpt lat="50.0168" lon="4.30047">
        <ele>300.6</ele>
        <time>2024-04-29T05:01:38Z</time>
      </trkpt>
      <trkpt lat="50.01678" lon="4.30036">
        <ele>300.6</ele>
        <time>2024-04-29T05:01:39Z</time>
      </trkpt>
      <trkpt lat="50.01676" lon="4.30027">
        <ele>300.6</ele>
        <time>2024-04-29T05:01:40Z</time>
      </trkpt>
      <trkpt lat="50.01674" lon="4.30017">
        <ele>300.6</ele>
        <time>2024-04-29T05:01:41Z</time>
      </trkpt>
      <trkpt lat="50.01672" lon="4.30007">
        <ele>300.6</ele>
        <time>2024-04-29T05:01:42Z</time>
      </trkpt>
      <trkpt lat="50.0167" lon="4.29997">
        <ele>300.6</ele>
        <time>2024-04-29T05:01:43Z</time>
      </trkpt>
      <trkpt lat="50.01668" lon="4.29987">
        <ele>300.6</ele>
        <time>2024-04-29T05:01:44Z</time>
      </trkpt>
      <trkpt lat="50.01667" lon="4.29977">
        <ele>300.6</ele>
        <time>2024-04-29T05:01:45Z</time>
      </trkpt>
      <trkpt lat="50.01665" lon="4.29966">
        <ele>300.6</ele>
        <time>2024-04-29T05:01:46Z</time>
      </trkpt>
      <trkpt lat="50.01663" lon="4.29956">
        <ele>300.4</ele>
        <time>2024-04-29T05:01:47Z</time>
      </trkpt>
      <trkpt lat="50.01661" lon="4.29947">
        <ele>300.6</ele>
        <time>2024-04-29T05:01:48Z</time>
      </trkpt>
      <trkpt lat="50.01659" lon="4.29937">
        <ele>300.6</ele>
        <time>2024-04-29T05:01:49Z</time>
      </trkpt>
      <trkpt lat="50.01656" lon="4.29926">
        <ele>300.6</ele>
        <time>2024-04-29T05:01:50Z</time>
      </trkpt>
      <trkpt lat="50.01654" lon="4.29915">
        <ele>300.4</ele>
        <time>2024-04-29T05:01:51Z</time>
      </trkpt>
      <trkpt lat="50.01652" lon="4.29905">
        <ele>300.6</ele>
        <time>2024-04-29T05:01:52Z</time>
      </trkpt>
      <trkpt lat="50.0165" lon="4.29895">
        <ele>300.4</ele>
        <time>2024-04-29T05:01:53Z</time>
      </trkpt>
      <trkpt lat="50.01648" lon="4.29885">
        <ele>300.4</ele>
        <time>2024-04-29T05:01:54Z</time>
      </trkpt>
      <trkpt lat="50.01645" lon="4.29875">
        <ele>300.4</ele>
        <time>2024-04-29T05:01:55Z</time>
      </trkpt>
      <trkpt lat="50.01643" lon="4.29864">
        <ele>300.4</ele>
        <time>2024-04-29T05:01:56Z</time>
      </trkpt>
      <trkpt lat="50.01641" lon="4.29853">
        <ele>300.2</ele>
        <time>2024-04-29T05:01:57Z</time>
      </trkpt>
      <trkpt lat="50.01639" lon="4.29843">
        <ele>300.4</ele>
        <time>2024-04-29T05:01:58Z</time>
      </trkpt>
      <trkpt lat="50.01637" lon="4.29833">
        <ele>300.4</ele>
        <time>2024-04-29T05:01:59Z</time>
      </trkpt>
      <trkpt lat="50.01635" lon="4.29822">
        <ele>300.4</ele>
        <time>2024-04-29T05:02:00Z</time>
      </trkpt>
      <trkpt lat="50.01632" lon="4.29813">
        <ele>300.4</ele>
        <time>2024-04-29T05:02:01Z</time>
      </trkpt>
      <trkpt lat="50.0163" lon="4.29802">
        <ele>300.2</ele>
        <time>2024-04-29T05:02:02Z</time>
      </trkpt>
      <trkpt lat="50.01628" lon="4.29791">
        <ele>300.4</ele>
        <time>2024-04-29T05:02:03Z</time>
      </trkpt>
      <trkpt lat="50.01626" lon="4.29781">
        <ele>300.2</ele>
        <time>2024-04-29T05:02:04Z</time>
      </trkpt>
      <trkpt lat="50.01625" lon="4.29771">
        <ele>300.2</ele>
        <time>2024-04-29T05:02:05Z</time>
      </trkpt>
      <trkpt lat="50.01623" lon="4.2976">
        <ele>300</ele>
        <time>2024-04-29T05:02:06Z</time>
      </trkpt>
      <trkpt lat="50.01621" lon="4.2975">
        <ele>300</ele>
        <time>2024-04-29T05:02:07Z</time>
      </trkpt>
      <trkpt lat="50.01619" lon="4.2974">
        <ele>299.6</ele>
        <time>2024-04-29T05:02:08Z</time>
      </trkpt>
      <trkpt lat="50.01617" lon="4.2973">
        <ele>299.6</ele>
        <time>2024-04-29T05:02:09Z</time>
      </trkpt>
      <trkpt lat="50.01615" lon="4.2972">
        <ele>299.4</ele>
        <time>2024-04-29T05:02:10Z</time>
      </trkpt>
      <trkpt lat="50.01613" lon="4.29709">
        <ele>299.4</ele>
        <time>2024-04-29T05:02:11Z</time>
      </trkpt>
      <trkpt lat="50.01611" lon="4.29699">
        <ele>299.2</ele>
        <time>2024-04-29T05:02:12Z</time>
      </trkpt>
      <trkpt lat="50.01608" lon="4.29689">
        <ele>299.2</ele>
        <time>2024-04-29T05:02:13Z</time>
      </trkpt>
      <trkpt lat="50.01606" lon="4.29679">
        <ele>299.2</ele>
        <time>2024-04-29T05:02:14Z</time>
      </trkpt>
      <trkpt lat="50.01605" lon="4.29669">
        <ele>299.2</ele>
        <time>2024-04-29T05:02:15Z</time>
      </trkpt>
      <trkpt lat="50.01603" lon="4.29659">
        <ele>299</ele>
        <time>2024-04-29T05:02:16Z</time>
      </trkpt>
      <trkpt lat="50.01601" lon="4.29649">
        <ele>299</ele>
        <time>2024-04-29T05:02:17Z</time>
      </trkpt>
      <trkpt lat="50.01599" lon="4.29638">
        <ele>299</ele>
        <time>2024-04-29T05:02:18Z</time>
      </trkpt>
      <trkpt lat="50.01596" lon="4.29628">
        <ele>298.8</ele>
        <time>2024-04-29T05:02:19Z</time>
      </trkpt>
      <trkpt lat="50.01594" lon="4.29618">
        <ele>299</ele>
        <time>2024-04-29T05:02:20Z</time>
      </trkpt>
      <trkpt lat="50.01592" lon="4.29607">
        <ele>299</ele>
        <time>2024-04-29T05:02:21Z</time>
      </trkpt>
      <trkpt lat="50.0159" lon="4.29597">
        <ele>299</ele>
        <time>2024-04-29T05:02:22Z</time>
      </trkpt>
      <trkpt lat="50.01588" lon="4.29587">
        <ele>298.8</ele>
        <time>2024-04-29T05:02:23Z</time>
      </trkpt>
      <trkpt lat="50.01586" lon="4.29577">
        <ele>298.8</ele>
        <time>2024-04-29T05:02:24Z</time>
      </trkpt>
      <trkpt lat="50.01584" lon="4.29567">
        <ele>299</ele>
        <time>2024-04-29T05:02:25Z</time>
      </trkpt>
      <trkpt lat="50.01582" lon="4.29557">
        <ele>298.8</ele>
        <time>2024-04-29T05:02:26Z</time>
      </trkpt>
      <trkpt lat="50.0158" lon="4.29547">
        <ele>298.6</ele>
        <time>2024-04-29T05:02:27Z</time>
      </trkpt>
      <trkpt lat="50.01578" lon="4.29537">
        <ele>298.6</ele>
        <time>2024-04-29T05:02:28Z</time>
      </trkpt>
      <trkpt lat="50.01575" lon="4.29527">
        <ele>298.4</ele>
        <time>2024-04-29T05:02:29Z</time>
      </trkpt>
      <trkpt lat="50.01573" lon="4.29517">
        <ele>298.6</ele>
        <time>2024-04-29T05:02:30Z</time>
      </trkpt>
      <trkpt lat="50.01571" lon="4.29507">
        <ele>298.4</ele>
        <time>2024-04-29T05:02:31Z</time>
      </trkpt>
      <trkpt lat="50.01569" lon="4.29498">
        <ele>298.4</ele>
        <time>2024-04-29T05:02:32Z</time>
      </trkpt>
      <trkpt lat="50.01567" lon="4.29488">
        <ele>298.4</ele>
        <time>2024-04-29T05:02:33Z</time>
      </trkpt>
      <trkpt lat="50.01565" lon="4.29478">
        <ele>298.2</ele>
        <time>2024-04-29T05:02:34Z</time>
      </trkpt>
      <trkpt lat="50.01562" lon="4.29468">
        <ele>298.2</ele>
        <time>2024-04-29T05:02:35Z</time>
      </trkpt>
      <trkpt lat="50.01561" lon="4.29458">
        <ele>298.2</ele>
        <time>2024-04-29T05:02:36Z</time>
      </trkpt>
      <trkpt lat="50.01559" lon="4.29448">
        <ele>298</ele>
        <time>2024-04-29T05:02:37Z</time>
      </trkpt>
      <trkpt lat="50.01556" lon="4.29439">
        <ele>298</ele>
        <time>2024-04-29T05:02:38Z</time>
      </trkpt>
      <trkpt lat="50.01554" lon="4.29429">
        <ele>297.8</ele>
        <time>2024-04-29T05:02:39Z</time>
      </trkpt>
      <trkpt lat="50.01552" lon="4.29419">
        <ele>297.8</ele>
        <time>2024-04-29T05:02:40Z</time>
      </trkpt>
      <trkpt lat="50.0155" lon="4.2941">
        <ele>297.8</ele>
        <time>2024-04-29T05:02:41Z</time>
      </trkpt>
      <trkpt lat="50.01548" lon="4.294">
        <ele>297.8</ele>
        <time>2024-04-29T05:02:42Z</time>
      </trkpt>
      <trkpt lat="50.01546" lon="4.2939">
        <ele>297.6</ele>
        <time>2024-04-29T05:02:43Z</time>
      </trkpt>
      <trkpt lat="50.01543" lon="4.2938">
        <ele>297.6</ele>
        <time>2024-04-29T05:02:44Z</time>
      </trkpt>
      <trkpt lat="50.01541" lon="4.2937">
        <ele>297.6</ele>
        <time>2024-04-29T05:02:45Z</time>
      </trkpt>
      <trkpt lat="50.01539" lon="4.2936">
        <ele>297.6</ele>
        <time>2024-04-29T05:02:46Z</time>
      </trkpt>
      <trkpt lat="50.01537" lon="4.29351">
        <ele>297.4</ele>
        <time>2024-04-29T05:02:47Z</time>
      </trkpt>
      <trkpt lat="50.01534" lon="4.29341">
        <ele>297.6</ele>
        <time>2024-04-29T05:02:48Z</time>
      </trkpt>
      <trkpt lat="50.01532" lon="4.29331">
        <ele>297.4</ele>
        <time>2024-04-29T05:02:49Z</time>
      </trkpt>
      <trkpt lat="50.0153" lon="4.29321">
        <ele>297.6</ele>
        <time>2024-04-29T05:02:50Z</time>
      </trkpt>
      <trkpt lat="50.01529" lon="4.29311">
        <ele>297.2</ele>
        <time>2024-04-29T05:02:51Z</time>
      </trkpt>
      <trkpt lat="50.01526" lon="4.29301">
        <ele>297.4</ele>
        <time>2024-04-29T05:02:52Z</time>
      </trkpt>
      <trkpt lat="50.01524" lon="4.2929">
        <ele>297</ele>
        <time>2024-04-29T05:02:53Z</time>
      </trkpt>
      <trkpt lat="50.01522" lon="4.2928">
        <ele>297.2</ele>
        <time>2024-04-29T05:02:54Z</time>
      </trkpt>
      <trkpt lat="50.0152" lon="4.29269">
        <ele>297</ele>
        <time>2024-04-29T05:02:55Z</time>
      </trkpt>
      <trkpt lat="50.01518" lon="4.29258">
        <ele>297</ele>
        <time>2024-04-29T05:02:56Z</time>
      </trkpt>
      <trkpt lat="50.01516" lon="4.29248">
        <ele>297</ele>
        <time>2024-04-29T05:02:57Z</time>
      </trkpt>
      <trkpt lat="50.01514" lon="4.29237">
        <ele>296.8</ele>
        <time>2024-04-29T05:02:58Z</time>
      </trkpt>
      <trkpt lat="50.01512" lon="4.29227">
        <ele>297</ele>
        <time>2024-04-29T05:02:59Z</time>
      </trkpt>
      <trkpt lat="50.0151" lon="4.29217">
        <ele>296.8</ele>
        <time>2024-04-29T05:03:00Z</time>
      </trkpt>
      <trkpt lat="50.01507" lon="4.29207">
        <ele>296.8</ele>
        <time>2024-04-29T05:03:01Z</time>
      </trkpt>
      <trkpt lat="50.01505" lon="4.29197">
        <ele>296.8</ele>
        <time>2024-04-29T05:03:02Z</time>
      </trkpt>
      <trkpt lat="50.01503" lon="4.29187">
        <ele>296.8</ele>
        <time>2024-04-29T05:03:03Z</time>
      </trkpt>
      <trkpt lat="50.01501" lon="4.29177">
        <ele>296.8</ele>
        <time>2024-04-29T05:03:04Z</time>
      </trkpt>
      <trkpt lat="50.01499" lon="4.29166">
        <ele>296.8</ele>
        <time>2024-04-29T05:03:05Z</time>
      </trkpt>
      <trkpt lat="50.01497" lon="4.29156">
        <ele>296.8</ele>
        <time>2024-04-29T05:03:06Z</time>
      </trkpt>
      <trkpt lat="50.01495" lon="4.29146">
        <ele>296.8</ele>
        <time>2024-04-29T05:03:07Z</time>
      </trkpt>
      <trkpt lat="50.01493" lon="4.29136">
        <ele>296.8</ele>
        <time>2024-04-29T05:03:08Z</time>
      </trkpt>
      <trkpt lat="50.0149" lon="4.29126">
        <ele>296.6</ele>
        <time>2024-04-29T05:03:09Z</time>
      </trkpt>
      <trkpt lat="50.01488" lon="4.29115">
        <ele>296.6</ele>
        <time>2024-04-29T05:03:10Z</time>
      </trkpt>
      <trkpt lat="50.01486" lon="4.29105">
        <ele>296</ele>
        <time>2024-04-29T05:03:11Z</time>
      </trkpt>
      <trkpt lat="50.01484" lon="4.29094">
        <ele>296</ele>
        <time>2024-04-29T05:03:12Z</time>
      </trkpt>
      <trkpt lat="50.01482" lon="4.29084">
        <ele>295.6</ele>
        <time>2024-04-29T05:03:13Z</time>
      </trkpt>
      <trkpt lat="50.01479" lon="4.29074">
        <ele>295.4</ele>
        <time>2024-04-29T05:03:14Z</time>
      </trkpt>
      <trkpt lat="50.01477" lon="4.29064">
        <ele>295.2</ele>
        <time>2024-04-29T05:03:15Z</time>
      </trkpt>
      <trkpt lat="50.01475" lon="4.29053">
        <ele>295</ele>
        <time>2024-04-29T05:03:16Z</time>
      </trkpt>
      <trkpt lat="50.01473" lon="4.29043">
        <ele>295</ele>
        <time>2024-04-29T05:03:17Z</time>
      </trkpt>
      <trkpt lat="50.0147" lon="4.29034">
        <ele>294.8</ele>
        <time>2024-04-29T05:03:18Z</time>
      </trkpt>
      <trkpt lat="50.01469" lon="4.29024">
        <ele>294.6</ele>
        <time>2024-04-29T05:03:19Z</time>
      </trkpt>
      <trkpt lat="50.01467" lon="4.29013">
        <ele>294.8</ele>
        <time>2024-04-29T05:03:20Z</time>
      </trkpt>
      <trkpt lat="50.01464" lon="4.29002">
        <ele>294.6</ele>
        <time>2024-04-29T05:03:21Z</time>
      </trkpt>
      <trkpt lat="50.01462" lon="4.28992">
        <ele>294.4</ele>
        <time>2024-04-29T05:03:22Z</time>
      </trkpt>
      <trkpt lat="50.0146" lon="4.28981">
        <ele>294.6</ele>
        <time>2024-04-29T05:03:23Z</time>
      </trkpt>
      <trkpt lat="50.01458" lon="4.2897">
        <ele>294.4</ele>
        <time>2024-04-29T05:03:24Z</time>
      </trkpt>
      <trkpt lat="50.01456" lon="4.2896">
        <ele>294.4</ele>
        <time>2024-04-29T05:03:25Z</time>
      </trkpt>
      <trkpt lat="50.01453" lon="4.28949">
        <ele>294.6</ele>
        <time>2024-04-29T05:03:26Z</time>
      </trkpt>
      <trkpt lat="50.01451" lon="4.28939">
        <ele>294.4</ele>
        <time>2024-04-29T05:03:27Z</time>
      </trkpt>
      <trkpt lat="50.01449" lon="4.28929">
        <ele>294.2</ele>
        <time>2024-04-29T05:03:28Z</time>
      </trkpt>
      <trkpt lat="50.01447" lon="4.28919">
        <ele>294.4</ele>
        <time>2024-04-29T05:03:29Z</time>
      </trkpt>
      <trkpt lat="50.01445" lon="4.28909">
        <ele>294</ele>
        <time>2024-04-29T05:03:30Z</time>
      </trkpt>
      <trkpt lat="50.01443" lon="4.28899">
        <ele>294.2</ele>
        <time>2024-04-29T05:03:31Z</time>
      </trkpt>
      <trkpt lat="50.01441" lon="4.28888">
        <ele>294.2</ele>
        <time>2024-04-29T05:03:32Z</time>
      </trkpt>
      <trkpt lat="50.01439" lon="4.28878">
        <ele>294</ele>
        <time>2024-04-29T05:03:33Z</time>
      </trkpt>
      <trkpt lat="50.01437" lon="4.28868">
        <ele>294.2</ele>
        <time>2024-04-29T05:03:34Z</time>
      </trkpt>
      <trkpt lat="50.01434" lon="4.28858">
        <ele>294</ele>
        <time>2024-04-29T05:03:35Z</time>
      </trkpt>
      <trkpt lat="50.01432" lon="4.28848">
        <ele>294</ele>
        <time>2024-04-29T05:03:36Z</time>
      </trkpt>
      <trkpt lat="50.0143" lon="4.28838">
        <ele>294.2</ele>
        <time>2024-04-29T05:03:37Z</time>
      </trkpt>
      <trkpt lat="50.01428" lon="4.28828">
        <ele>294</ele>
        <time>2024-04-29T05:03:38Z</time>
      </trkpt>
      <trkpt lat="50.01426" lon="4.28819">
        <ele>294.2</ele>
        <time>2024-04-29T05:03:39Z</time>
      </trkpt>
      <trkpt lat="50.01424" lon="4.28809">
        <ele>294.2</ele>
        <time>2024-04-29T05:03:40Z</time>
      </trkpt>
      <trkpt lat="50.01422" lon="4.28799">
        <ele>294.2</ele>
        <time>2024-04-29T05:03:41Z</time>
      </trkpt>
      <trkpt lat="50.0142" lon="4.28789">
        <ele>294.4</ele>
        <time>2024-04-29T05:03:42Z</time>
      </trkpt>
      <trkpt lat="50.01418" lon="4.2878">
        <ele>294.4</ele>
        <time>2024-04-29T05:03:43Z</time>
      </trkpt>
      <trkpt lat="50.01415" lon="4.2877">
        <ele>294.4</ele>
        <time>2024-04-29T05:03:44Z</time>
      </trkpt>
      <trkpt lat="50.01413" lon="4.28761">
        <ele>294.2</ele>
        <time>2024-04-29T05:03:45Z</time>
      </trkpt>
      <trkpt lat="50.01411" lon="4.28751">
        <ele>294.4</ele>
        <time>2024-04-29T05:03:46Z</time>
      </trkpt>
      <trkpt lat="50.01408" lon="4.28742">
        <ele>294.4</ele>
        <time>2024-04-29T05:03:47Z</time>
      </trkpt>
      <trkpt lat="50.01406" lon="4.28732">
        <ele>294.2</ele>
        <time>2024-04-29T05:03:48Z</time>
      </trkpt>
      <trkpt lat="50.01404" lon="4.28722">
        <ele>294.4</ele>
        <time>2024-04-29T05:03:49Z</time>
      </trkpt>
      <trkpt lat="50.01402" lon="4.28712">
        <ele>294.4</ele>
        <time>2024-04-29T05:03:50Z</time>
      </trkpt>
      <trkpt lat="50.01399" lon="4.28702">
        <ele>294.4</ele>
        <time>2024-04-29T05:03:51Z</time>
      </trkpt>
      <trkpt lat="50.01397" lon="4.28692">
        <ele>294.4</ele>
        <time>2024-04-29T05:03:52Z</time>
      </trkpt>
      <trkpt lat="50.01394" lon="4.28682">
        <ele>294.4</ele>
        <time>2024-04-29T05:03:53Z</time>
      </trkpt>
      <trkpt lat="50.01392" lon="4.28672">
        <ele>294.2</ele>
        <time>2024-04-29T05:03:54Z</time>
      </trkpt>
      <trkpt lat="50.0139" lon="4.28662">
        <ele>294.2</ele>
        <time>2024-04-29T05:03:55Z</time>
      </trkpt>
      <trkpt lat="50.01387" lon="4.28651">
        <ele>293.8</ele>
        <time>2024-04-29T05:03:56Z</time>
      </trkpt>
      <trkpt lat="50.01385" lon="4.28639">
        <ele>293.2</ele>
        <time>2024-04-29T05:03:57Z</time>
      </trkpt>
      <trkpt lat="50.01382" lon="4.28627">
        <ele>293</ele>
        <time>2024-04-29T05:03:58Z</time>
      </trkpt>
      <trkpt lat="50.0138" lon="4.28615">
        <ele>292.8</ele>
        <time>2024-04-29T05:03:59Z</time>
      </trkpt>
      <trkpt lat="50.01378" lon="4.28604">
        <ele>292.8</ele>
        <time>2024-04-29T05:04:00Z</time>
      </trkpt>
      <trkpt lat="50.01375" lon="4.2859">
        <ele>292.6</ele>
        <time>2024-04-29T05:04:01Z</time>
      </trkpt>
      <trkpt lat="50.01372" lon="4.28578">
        <ele>292.4</ele>
        <time>2024-04-29T05:04:02Z</time>
      </trkpt>
      <trkpt lat="50.0137" lon="4.28566">
        <ele>292.2</ele>
        <time>2024-04-29T05:04:03Z</time>
      </trkpt>
      <trkpt lat="50.01367" lon="4.28554">
        <ele>292</ele>
        <time>2024-04-29T05:04:04Z</time>
      </trkpt>
      <trkpt lat="50.01364" lon="4.28542">
        <ele>291.8</ele>
        <time>2024-04-29T05:04:05Z</time>
      </trkpt>
      <trkpt lat="50.01361" lon="4.28529">
        <ele>291.6</ele>
        <time>2024-04-29T05:04:06Z</time>
      </trkpt>
      <trkpt lat="50.01359" lon="4.28517">
        <ele>291.2</ele>
        <time>2024-04-29T05:04:07Z</time>
      </trkpt>
      <trkpt lat="50.01356" lon="4.28504">
        <ele>291.2</ele>
        <time>2024-04-29T05:04:08Z</time>
      </trkpt>
      <trkpt lat="50.01354" lon="4.28491">
        <ele>291</ele>
        <time>2024-04-29T05:04:09Z</time>
      </trkpt>
      <trkpt lat="50.01351" lon="4.28477">
        <ele>290.8</ele>
        <time>2024-04-29T05:04:10Z</time>
      </trkpt>
      <trkpt lat="50.01347" lon="4.28463">
        <ele>290.6</ele>
        <time>2024-04-29T05:04:11Z</time>
      </trkpt>
      <trkpt lat="50.01345" lon="4.2845">
        <ele>290.2</ele>
        <time>2024-04-29T05:04:12Z</time>
      </trkpt>
      <trkpt lat="50.01342" lon="4.28436">
        <ele>290</ele>
        <time>2024-04-29T05:04:13Z</time>
      </trkpt>
      <trkpt lat="50.01339" lon="4.28423">
        <ele>289</ele>
        <time>2024-04-29T05:04:14Z</time>
      </trkpt>
      <trkpt lat="50.01336" lon="4.2841">
        <ele>288.6</ele>
        <time>2024-04-29T05:04:15Z</time>
      </trkpt>
      <trkpt lat="50.01333" lon="4.28397">
        <ele>288</ele>
        <time>2024-04-29T05:04:16Z</time>
      </trkpt>
      <trkpt lat="50.0133" lon="4.28383">
        <ele>287.8</ele>
        <time>2024-04-29T05:04:17Z</time>
      </trkpt>
      <trkpt lat="50.01327" lon="4.28369">
        <ele>287.6</ele>
        <time>2024-04-29T05:04:18Z</time>
      </trkpt>
      <trkpt lat="50.01324" lon="4.28356">
        <ele>287.2</ele>
        <time>2024-04-29T05:04:19Z</time>
      </trkpt>
      <trkpt lat="50.01321" lon="4.28342">
        <ele>286.8</ele>
        <time>2024-04-29T05:04:20Z</time>
      </trkpt>
      <trkpt lat="50.01318" lon="4.28328">
        <ele>286.4</ele>
        <time>2024-04-29T05:04:21Z</time>
      </trkpt>
      <trkpt lat="50.01315" lon="4.28314">
        <ele>286</ele>
        <time>2024-04-29T05:04:22Z</time>
      </trkpt>
      <trkpt lat="50.01312" lon="4.28299">
        <ele>285.8</ele>
        <time>2024-04-29T05:04:23Z</time>
      </trkpt>
      <trkpt lat="50.01309" lon="4.28285">
        <ele>285.8</ele>
        <time>2024-04-29T05:04:24Z</time>
      </trkpt>
      <trkpt lat="50.01306" lon="4.28271">
        <ele>285</ele>
        <time>2024-04-29T05:04:25Z</time>
      </trkpt>
      <trkpt lat="50.01303" lon="4.28256">
        <ele>284.4</ele>
        <time>2024-04-29T05:04:26Z</time>
      </trkpt>
      <trkpt lat="50.013" lon="4.28242">
        <ele>284.2</ele>
        <time>2024-04-29T05:04:27Z</time>
      </trkpt>
      <trkpt lat="50.01297" lon="4.28227">
        <ele>284</ele>
        <time>2024-04-29T05:04:28Z</time>
      </trkpt>
      <trkpt lat="50.01295" lon="4.28212">
        <ele>284</ele>
        <time>2024-04-29T05:04:29Z</time>
      </trkpt>
      <trkpt lat="50.01292" lon="4.28197">
        <ele>283.4</ele>
        <time>2024-04-29T05:04:30Z</time>
      </trkpt>
      <trkpt lat="50.01289" lon="4.28182">
        <ele>282.8</ele>
        <time>2024-04-29T05:04:31Z</time>
      </trkpt>
      <trkpt lat="50.01286" lon="4.28168">
        <ele>282.4</ele>
        <time>2024-04-29T05:04:32Z</time>
      </trkpt>
      <trkpt lat="50.01283" lon="4.28153">
        <ele>281.8</ele>
        <time>2024-04-29T05:04:33Z</time>
      </trkpt>
      <trkpt lat="50.0128" lon="4.28139">
        <ele>281.8</ele>
        <time>2024-04-29T05:04:34Z</time>
      </trkpt>
      <trkpt lat="50.01277" lon="4.28126">
        <ele>281.6</ele>
        <time>2024-04-29T05:04:35Z</time>
      </trkpt>
      <trkpt lat="50.01273" lon="4.28112">
        <ele>281.6</ele>
        <time>2024-04-29T05:04:36Z</time>
      </trkpt>
      <trkpt lat="50.0127" lon="4.28099">
        <ele>281.4</ele>
        <time>2024-04-29T05:04:37Z</time>
      </trkpt>
      <trkpt lat="50.01267" lon="4.28086">
        <ele>281.2</ele>
        <time>2024-04-29T05:04:38Z</time>
      </trkpt>
      <trkpt lat="50.01264" lon="4.28073">
        <ele>280.8</ele>
        <time>2024-04-29T05:04:39Z</time>
      </trkpt>
      <trkpt lat="50.01262" lon="4.28061">
        <ele>280.8</ele>
        <time>2024-04-29T05:04:40Z</time>
      </trkpt>
      <trkpt lat="50.01259" lon="4.28049">
        <ele>280.6</ele>
        <time>2024-04-29T05:04:41Z</time>
      </trkpt>
      <trkpt lat="50.01257" lon="4.28037">
        <ele>280.8</ele>
        <time>2024-04-29T05:04:42Z</time>
      </trkpt>
      <trkpt lat="50.01254" lon="4.28025">
        <ele>280.8</ele>
        <time>2024-04-29T05:04:43Z</time>
      </trkpt>
      <trkpt lat="50.01251" lon="4.28013">
        <ele>280.8</ele>
        <time>2024-04-29T05:04:44Z</time>
      </trkpt>
      <trkpt lat="50.01248" lon="4.28002">
        <ele>280.6</ele>
        <time>2024-04-29T05:04:45Z</time>
      </trkpt>
      <trkpt lat="50.01245" lon="4.2799">
        <ele>281</ele>
        <time>2024-04-29T05:04:46Z</time>
      </trkpt>
      <trkpt lat="50.01243" lon="4.27979">
        <ele>280.8</ele>
        <time>2024-04-29T05:04:47Z</time>
      </trkpt>
      <trkpt lat="50.0124" lon="4.27968">
        <ele>280.6</ele>
        <time>2024-04-29T05:04:48Z</time>
      </trkpt>
      <trkpt lat="50.01238" lon="4.27957">
        <ele>280.6</ele>
        <time>2024-04-29T05:04:49Z</time>
      </trkpt>
      <trkpt lat="50.01235" lon="4.27946">
        <ele>280.6</ele>
        <time>2024-04-29T05:04:50Z</time>
      </trkpt>
      <trkpt lat="50.01233" lon="4.27935">
        <ele>280.6</ele>
        <time>2024-04-29T05:04:51Z</time>
      </trkpt>
      <trkpt lat="50.0123" lon="4.27924">
        <ele>281.4</ele>
        <time>2024-04-29T05:04:52Z</time>
      </trkpt>
      <trkpt lat="50.01228" lon="4.27913">
        <ele>281.4</ele>
        <time>2024-04-29T05:04:53Z</time>
      </trkpt>
      <trkpt lat="50.01225" lon="4.27902">
        <ele>281.6</ele>
        <time>2024-04-29T05:04:54Z</time>
      </trkpt>
      <trkpt lat="50.01222" lon="4.27891">
        <ele>282</ele>
        <time>2024-04-29T05:04:55Z</time>
      </trkpt>
      <trkpt lat="50.0122" lon="4.2788">
        <ele>281.8</ele>
        <time>2024-04-29T05:04:56Z</time>
      </trkpt>
      <trkpt lat="50.01217" lon="4.2787">
        <ele>281.8</ele>
        <time>2024-04-29T05:04:57Z</time>
      </trkpt>
      <trkpt lat="50.01215" lon="4.27858">
        <ele>281.8</ele>
        <time>2024-04-29T05:04:58Z</time>
      </trkpt>
      <trkpt lat="50.01212" lon="4.27847">
        <ele>282</ele>
        <time>2024-04-29T05:04:59Z</time>
      </trkpt>
      <trkpt lat="50.0121" lon="4.27836">
        <ele>281.4</ele>
        <time>2024-04-29T05:05:00Z</time>
      </trkpt>
      <trkpt lat="50.01207" lon="4.27826">
        <ele>281.2</ele>
        <time>2024-04-29T05:05:01Z</time>
      </trkpt>
      <trkpt lat="50.01205" lon="4.27815">
        <ele>281</ele>
        <time>2024-04-29T05:05:02Z</time>
      </trkpt>
      <trkpt lat="50.01204" lon="4.27804">
        <ele>280.8</ele>
        <time>2024-04-29T05:05:03Z</time>
      </trkpt>
      <trkpt lat="50.01202" lon="4.27793">
        <ele>280.8</ele>
        <time>2024-04-29T05:05:04Z</time>
      </trkpt>
      <trkpt lat="50.01201" lon="4.2778">
        <ele>280.8</ele>
        <time>2024-04-29T05:05:05Z</time>
      </trkpt>
      <trkpt lat="50.01199" lon="4.27769">
        <ele>280.6</ele>
        <time>2024-04-29T05:05:06Z</time>
      </trkpt>
      <trkpt lat="50.01197" lon="4.27757">
        <ele>280.4</ele>
        <time>2024-04-29T05:05:07Z</time>
      </trkpt>
      <trkpt lat="50.01195" lon="4.27746">
        <ele>280.4</ele>
        <time>2024-04-29T05:05:08Z</time>
      </trkpt>
      <trkpt lat="50.01193" lon="4.27734">
        <ele>280.2</ele>
        <time>2024-04-29T05:05:09Z</time>
      </trkpt>
      <trkpt lat="50.01191" lon="4.27723">
        <ele>280.2</ele>
        <time>2024-04-29T05:05:10Z</time>
      </trkpt>
      <trkpt lat="50.01189" lon="4.27713">
        <ele>280.4</ele>
        <time>2024-04-29T05:05:11Z</time>
      </trkpt>
      <trkpt lat="50.01186" lon="4.27702">
        <ele>280.4</ele>
        <time>2024-04-29T05:05:12Z</time>
      </trkpt>
      <trkpt lat="50.01184" lon="4.27691">
        <ele>280.4</ele>
        <time>2024-04-29T05:05:13Z</time>
      </trkpt>
      <trkpt lat="50.01182" lon="4.27681">
        <ele>280.4</ele>
        <time>2024-04-29T05:05:14Z</time>
      </trkpt>
      <trkpt lat="50.01179" lon="4.2767">
        <ele>280.2</ele>
        <time>2024-04-29T05:05:15Z</time>
      </trkpt>
      <trkpt lat="50.01177" lon="4.27661">
        <ele>280.4</ele>
        <time>2024-04-29T05:05:16Z</time>
      </trkpt>
      <trkpt lat="50.01175" lon="4.2765">
        <ele>280.6</ele>
        <time>2024-04-29T05:05:17Z</time>
      </trkpt>
      <trkpt lat="50.01172" lon="4.2764">
        <ele>281.2</ele>
        <time>2024-04-29T05:05:18Z</time>
      </trkpt>
      <trkpt lat="50.01169" lon="4.2763">
        <ele>281.2</ele>
        <time>2024-04-29T05:05:19Z</time>
      </trkpt>
      <trkpt lat="50.01166" lon="4.2762">
        <ele>281.4</ele>
        <time>2024-04-29T05:05:20Z</time>
      </trkpt>
      <trkpt lat="50.01164" lon="4.2761">
        <ele>281.4</ele>
        <time>2024-04-29T05:05:21Z</time>
      </trkpt>
      <trkpt lat="50.01162" lon="4.276">
        <ele>281.4</ele>
        <time>2024-04-29T05:05:22Z</time>
      </trkpt>
      <trkpt lat="50.01159" lon="4.2759">
        <ele>281</ele>
        <time>2024-04-29T05:05:23Z</time>
      </trkpt>
      <trkpt lat="50.01156" lon="4.2758">
        <ele>281</ele>
        <time>2024-04-29T05:05:24Z</time>
      </trkpt>
      <trkpt lat="50.01154" lon="4.27571">
        <ele>281.2</ele>
        <time>2024-04-29T05:05:25Z</time>
      </trkpt>
      <trkpt lat="50.01152" lon="4.27561">
        <ele>281.2</ele>
        <time>2024-04-29T05:05:26Z</time>
      </trkpt>
      <trkpt lat="50.0115" lon="4.2755">
        <ele>281.2</ele>
        <time>2024-04-29T05:05:27Z</time>
      </trkpt>
      <trkpt lat="50.01147" lon="4.2754">
        <ele>281.2</ele>
        <time>2024-04-29T05:05:28Z</time>
      </trkpt>
      <trkpt lat="50.01145" lon="4.27529">
        <ele>281.4</ele>
        <time>2024-04-29T05:05:29Z</time>
      </trkpt>
      <trkpt lat="50.01142" lon="4.27519">
        <ele>281.6</ele>
        <time>2024-04-29T05:05:30Z</time>
      </trkpt>
      <trkpt lat="50.01139" lon="4.27508">
        <ele>281.4</ele>
        <time>2024-04-29T05:05:31Z</time>
      </trkpt>
      <trkpt lat="50.01137" lon="4.27498">
        <ele>281.4</ele>
        <time>2024-04-29T05:05:32Z</time>
      </trkpt>
      <trkpt lat="50.01134" lon="4.27487">
        <ele>281.4</ele>
        <time>2024-04-29T05:05:33Z</time>
      </trkpt>
      <trkpt lat="50.01132" lon="4.27477">
        <ele>281.4</ele>
        <time>2024-04-29T05:05:34Z</time>
      </trkpt>
      <trkpt lat="50.01129" lon="4.27466">
        <ele>281.4</ele>
        <time>2024-04-29T05:05:35Z</time>
      </trkpt>
      <trkpt lat="50.01127" lon="4.27456">
        <ele>281.4</ele>
        <time>2024-04-29T05:05:36Z</time>
      </trkpt>
      <trkpt lat="50.01125" lon="4.27445">
        <ele>281.4</ele>
        <time>2024-04-29T05:05:37Z</time>
      </trkpt>
      <trkpt lat="50.01122" lon="4.27434">
        <ele>281.4</ele>
        <time>2024-04-29T05:05:38Z</time>
      </trkpt>
      <trkpt lat="50.0112" lon="4.27423">
        <ele>281.4</ele>
        <time>2024-04-29T05:05:39Z</time>
      </trkpt>
      <trkpt lat="50.01117" lon="4.27412">
        <ele>281.4</ele>
        <time>2024-04-29T05:05:40Z</time>
      </trkpt>
      <trkpt lat="50.01115" lon="4.27401">
        <ele>281.4</ele>
        <time>2024-04-29T05:05:41Z</time>
      </trkpt>
      <trkpt lat="50.01113" lon="4.2739">
        <ele>281.2</ele>
        <time>2024-04-29T05:05:42Z</time>
      </trkpt>
      <trkpt lat="50.01111" lon="4.27379">
        <ele>281.4</ele>
        <time>2024-04-29T05:05:43Z</time>
      </trkpt>
      <trkpt lat="50.01109" lon="4.27368">
        <ele>281.4</ele>
        <time>2024-04-29T05:05:44Z</time>
      </trkpt>
      <trkpt lat="50.01107" lon="4.27358">
        <ele>281.4</ele>
        <time>2024-04-29T05:05:45Z</time>
      </trkpt>
      <trkpt lat="50.01105" lon="4.27347">
        <ele>281.4</ele>
        <time>2024-04-29T05:05:46Z</time>
      </trkpt>
      <trkpt lat="50.01103" lon="4.27336">
        <ele>281.4</ele>
        <time>2024-04-29T05:05:47Z</time>
      </trkpt>
      <trkpt lat="50.01101" lon="4.27326">
        <ele>281.4</ele>
        <time>2024-04-29T05:05:48Z</time>
      </trkpt>
      <trkpt lat="50.01099" lon="4.27315">
        <ele>281.4</ele>
        <time>2024-04-29T05:05:49Z</time>
      </trkpt>
      <trkpt lat="50.01097" lon="4.27305">
        <ele>281.4</ele>
        <time>2024-04-29T05:05:50Z</time>
      </trkpt>
      <trkpt lat="50.01095" lon="4.27296">
        <ele>281.4</ele>
        <time>2024-04-29T05:05:51Z</time>
      </trkpt>
      <trkpt lat="50.01093" lon="4.27286">
        <ele>281.6</ele>
        <time>2024-04-29T05:05:52Z</time>
      </trkpt>
      <trkpt lat="50.01091" lon="4.27277">
        <ele>281.4</ele>
        <time>2024-04-29T05:05:53Z</time>
      </trkpt>
      <trkpt lat="50.01089" lon="4.27267">
        <ele>281.4</ele>
        <time>2024-04-29T05:05:54Z</time>
      </trkpt>
      <trkpt lat="50.01087" lon="4.27258">
        <ele>281.4</ele>
        <time>2024-04-29T05:05:55Z</time>
      </trkpt>
      <trkpt lat="50.01085" lon="4.27248">
        <ele>281.6</ele>
        <time>2024-04-29T05:05:56Z</time>
      </trkpt>
      <trkpt lat="50.01084" lon="4.27238">
        <ele>281.6</ele>
        <time>2024-04-29T05:05:57Z</time>
      </trkpt>
      <trkpt lat="50.01082" lon="4.27229">
        <ele>281.6</ele>
        <time>2024-04-29T05:05:58Z</time>
      </trkpt>
      <trkpt lat="50.01081" lon="4.27219">
        <ele>282</ele>
        <time>2024-04-29T05:05:59Z</time>
      </trkpt>
      <trkpt lat="50.0108" lon="4.27209">
        <ele>282.2</ele>
        <time>2024-04-29T05:06:00Z</time>
      </trkpt>
      <trkpt lat="50.01079" lon="4.272">
        <ele>282.4</ele>
        <time>2024-04-29T05:06:01Z</time>
      </trkpt>
      <trkpt lat="50.01079" lon="4.27191">
        <ele>282.8</ele>
        <time>2024-04-29T05:06:02Z</time>
      </trkpt>
      <trkpt lat="50.01078" lon="4.27181">
        <ele>282.8</ele>
        <time>2024-04-29T05:06:03Z</time>
      </trkpt>
      <trkpt lat="50.01078" lon="4.27172">
        <ele>283.4</ele>
        <time>2024-04-29T05:06:04Z</time>
      </trkpt>
      <trkpt lat="50.01078" lon="4.27163">
        <ele>283.6</ele>
        <time>2024-04-29T05:06:05Z</time>
      </trkpt>
      <trkpt lat="50.01078" lon="4.27154">
        <ele>284.2</ele>
        <time>2024-04-29T05:06:06Z</time>
      </trkpt>
      <trkpt lat="50.01078" lon="4.27145">
        <ele>284.8</ele>
        <time>2024-04-29T05:06:07Z</time>
      </trkpt>
      <trkpt lat="50.01078" lon="4.27136">
        <ele>285</ele>
        <time>2024-04-29T05:06:08Z</time>
      </trkpt>
      <trkpt lat="50.01078" lon="4.27127">
        <ele>285.4</ele>
        <time>2024-04-29T05:06:09Z</time>
      </trkpt>
      <trkpt lat="50.01078" lon="4.27118">
        <ele>285.4</ele>
        <time>2024-04-29T05:06:10Z</time>
      </trkpt>
      <trkpt lat="50.01079" lon="4.2711">
        <ele>285.8</ele>
        <time>2024-04-29T05:06:11Z</time>
      </trkpt>
      <trkpt lat="50.0108" lon="4.27101">
        <ele>286</ele>
        <time>2024-04-29T05:06:12Z</time>
      </trkpt>
      <trkpt lat="50.01081" lon="4.27092">
        <ele>286.4</ele>
        <time>2024-04-29T05:06:13Z</time>
      </trkpt>
      <trkpt lat="50.01082" lon="4.27082">
        <ele>286.6</ele>
        <time>2024-04-29T05:06:14Z</time>
      </trkpt>
      <trkpt lat="50.01084" lon="4.27073">
        <ele>286.8</ele>
        <time>2024-04-29T05:06:15Z</time>
      </trkpt>
      <trkpt lat="50.01086" lon="4.27064">
        <ele>287</ele>
        <time>2024-04-29T05:06:16Z</time>
      </trkpt>
      <trkpt lat="50.01088" lon="4.27055">
        <ele>287.4</ele>
        <time>2024-04-29T05:06:17Z</time>
      </trkpt>
      <trkpt lat="50.0109" lon="4.27046">
        <ele>287.6</ele>
        <time>2024-04-29T05:06:18Z</time>
      </trkpt>
      <trkpt lat="50.01093" lon="4.27037">
        <ele>287.8</ele>
        <time>2024-04-29T05:06:19Z</time>
      </trkpt>
      <trkpt lat="50.01095" lon="4.27028">
        <ele>288.2</ele>
        <time>2024-04-29T05:06:20Z</time>
      </trkpt>
      <trkpt lat="50.01098" lon="4.27018">
        <ele>288.2</ele>
        <time>2024-04-29T05:06:21Z</time>
      </trkpt>
      <trkpt lat="50.01102" lon="4.27009">
        <ele>288.2</ele>
        <time>2024-04-29T05:06:22Z</time>
      </trkpt>
      <trkpt lat="50.01105" lon="4.26999">
        <ele>288.2</ele>
        <time>2024-04-29T05:06:23Z</time>
      </trkpt>
      <trkpt lat="50.01109" lon="4.2699">
        <ele>288.2</ele>
        <time>2024-04-29T05:06:24Z</time>
      </trkpt>
      <trkpt lat="50.01113" lon="4.2698">
        <ele>288.2</ele>
        <time>2024-04-29T05:06:25Z</time>
      </trkpt>
      <trkpt lat="50.01116" lon="4.26971">
        <ele>288.2</ele>
        <time>2024-04-29T05:06:26Z</time>
      </trkpt>
      <trkpt lat="50.0112" lon="4.26962">
        <ele>288.2</ele>
        <time>2024-04-29T05:06:27Z</time>
      </trkpt>
      <trkpt lat="50.01123" lon="4.26953">
        <ele>288.2</ele>
        <time>2024-04-29T05:06:28Z</time>
      </trkpt>
      <trkpt lat="50.01127" lon="4.26943">
        <ele>288.2</ele>
        <time>2024-04-29T05:06:29Z</time>
      </trkpt>
      <trkpt lat="50.01131" lon="4.26934">
        <ele>288.2</ele>
        <time>2024-04-29T05:06:30Z</time>
      </trkpt>
      <trkpt lat="50.01134" lon="4.26925">
        <ele>288.2</ele>
        <time>2024-04-29T05:06:31Z</time>
      </trkpt>
      <trkpt lat="50.01138" lon="4.26916">
        <ele>288.2</ele>
        <time>2024-04-29T05:06:32Z</time>
      </trkpt>
      <trkpt lat="50.01142" lon="4.26907">
        <ele>288.2</ele>
        <time>2024-04-29T05:06:33Z</time>
      </trkpt>
      <trkpt lat="50.01146" lon="4.26898">
        <ele>288.2</ele>
        <time>2024-04-29T05:06:34Z</time>
      </trkpt>
      <trkpt lat="50.0115" lon="4.26888">
        <ele>288.4</ele>
        <time>2024-04-29T05:06:35Z</time>
      </trkpt>
      <trkpt lat="50.01153" lon="4.26879">
        <ele>288.2</ele>
        <time>2024-04-29T05:06:36Z</time>
      </trkpt>
      <trkpt lat="50.01157" lon="4.26869">
        <ele>288.2</ele>
        <time>2024-04-29T05:06:37Z</time>
      </trkpt>
      <trkpt lat="50.01161" lon="4.2686">
        <ele>288.2</ele>
        <time>2024-04-29T05:06:38Z</time>
      </trkpt>
      <trkpt lat="50.01166" lon="4.2685">
        <ele>288.2</ele>
        <time>2024-04-29T05:06:39Z</time>
      </trkpt>
      <trkpt lat="50.0117" lon="4.2684">
        <ele>288.2</ele>
        <time>2024-04-29T05:06:40Z</time>
      </trkpt>
      <trkpt lat="50.01174" lon="4.2683">
        <ele>288.2</ele>
        <time>2024-04-29T05:06:41Z</time>
      </trkpt>
      <trkpt lat="50.01178" lon="4.26819">
        <ele>288.2</ele>
        <time>2024-04-29T05:06:42Z</time>
      </trkpt>
      <trkpt lat="50.01182" lon="4.26809">
        <ele>288.2</ele>
        <time>2024-04-29T05:06:43Z</time>
      </trkpt>
      <trkpt lat="50.01186" lon="4.26798">
        <ele>288.2</ele>
        <time>2024-04-29T05:06:44Z</time>
      </trkpt>
      <trkpt lat="50.01191" lon="4.26787">
        <ele>288</ele>
        <time>2024-04-29T05:06:45Z</time>
      </trkpt>
      <trkpt lat="50.01195" lon="4.26775">
        <ele>288</ele>
        <time>2024-04-29T05:06:46Z</time>
      </trkpt>
      <trkpt lat="50.012" lon="4.26764">
        <ele>288</ele>
        <time>2024-04-29T05:06:47Z</time>
      </trkpt>
      <trkpt lat="50.01205" lon="4.26753">
        <ele>288</ele>
        <time>2024-04-29T05:06:48Z</time>
      </trkpt>
      <trkpt lat="50.0121" lon="4.26741">
        <ele>288</ele>
        <time>2024-04-29T05:06:49Z</time>
      </trkpt>
      <trkpt lat="50.01214" lon="4.26729">
        <ele>288</ele>
        <time>2024-04-29T05:06:50Z</time>
      </trkpt>
      <trkpt lat="50.01219" lon="4.26717">
        <ele>287.8</ele>
        <time>2024-04-29T05:06:51Z</time>
      </trkpt>
      <trkpt lat="50.01224" lon="4.26704">
        <ele>287.4</ele>
        <time>2024-04-29T05:06:52Z</time>
      </trkpt>
      <trkpt lat="50.01229" lon="4.26692">
        <ele>287.2</ele>
        <time>2024-04-29T05:06:53Z</time>
      </trkpt>
      <trkpt lat="50.01234" lon="4.26679">
        <ele>287</ele>
        <time>2024-04-29T05:06:54Z</time>
      </trkpt>
      <trkpt lat="50.0124" lon="4.26666">
        <ele>286.8</ele>
        <time>2024-04-29T05:06:55Z</time>
      </trkpt>
      <trkpt lat="50.01245" lon="4.26653">
        <ele>286.6</ele>
        <time>2024-04-29T05:06:56Z</time>
      </trkpt>
      <trkpt lat="50.01251" lon="4.26639">
        <ele>286.2</ele>
        <time>2024-04-29T05:06:57Z</time>
      </trkpt>
      <trkpt lat="50.01256" lon="4.26625">
        <ele>286.2</ele>
        <time>2024-04-29T05:06:58Z</time>
      </trkpt>
      <trkpt lat="50.01262" lon="4.26611">
        <ele>285.2</ele>
        <time>2024-04-29T05:06:59Z</time>
      </trkpt>
      <trkpt lat="50.01268" lon="4.26597">
        <ele>284</ele>
        <time>2024-04-29T05:07:00Z</time>
      </trkpt>
      <trkpt lat="50.01273" lon="4.26582">
        <ele>283.2</ele>
        <time>2024-04-29T05:07:01Z</time>
      </trkpt>
      <trkpt lat="50.01278" lon="4.26567">
        <ele>282.8</ele>
        <time>2024-04-29T05:07:02Z</time>
      </trkpt>
      <trkpt lat="50.01283" lon="4.26551">
        <ele>282.4</ele>
        <time>2024-04-29T05:07:03Z</time>
      </trkpt>
      <trkpt lat="50.01287" lon="4.26534">
        <ele>282.2</ele>
        <time>2024-04-29T05:07:04Z</time>
      </trkpt>
      <trkpt lat="50.01291" lon="4.26517">
        <ele>282</ele>
        <time>2024-04-29T05:07:05Z</time>
      </trkpt>
      <trkpt lat="50.01294" lon="4.265">
        <ele>281.6</ele>
        <time>2024-04-29T05:07:06Z</time>
      </trkpt>
      <trkpt lat="50.01297" lon="4.26482">
        <ele>280.8</ele>
        <time>2024-04-29T05:07:07Z</time>
      </trkpt>
      <trkpt lat="50.01299" lon="4.26464">
        <ele>280.2</ele>
        <time>2024-04-29T05:07:08Z</time>
      </trkpt>
      <trkpt lat="50.01302" lon="4.26446">
        <ele>280.2</ele>
        <time>2024-04-29T05:07:09Z</time>
      </trkpt>
      <trkpt lat="50.01304" lon="4.26428">
        <ele>279.6</ele>
        <time>2024-04-29T05:07:10Z</time>
      </trkpt>
      <trkpt lat="50.01306" lon="4.2641">
        <ele>279.2</ele>
        <time>2024-04-29T05:07:11Z</time>
      </trkpt>
      <trkpt lat="50.01308" lon="4.26393">
        <ele>278.2</ele>
        <time>2024-04-29T05:07:12Z</time>
      </trkpt>
      <trkpt lat="50.01311" lon="4.26377">
        <ele>277.4</ele>
        <time>2024-04-29T05:07:13Z</time>
      </trkpt>
      <trkpt lat="50.01314" lon="4.26361">
        <ele>277</ele>
        <time>2024-04-29T05:07:14Z</time>
      </trkpt>
      <trkpt lat="50.01317" lon="4.26346">
        <ele>276</ele>
        <time>2024-04-29T05:07:15Z</time>
      </trkpt>
      <trkpt lat="50.0132" lon="4.26331">
        <ele>275.6</ele>
        <time>2024-04-29T05:07:16Z</time>
      </trkpt>
      <trkpt lat="50.01324" lon="4.26317">
        <ele>275</ele>
        <time>2024-04-29T05:07:17Z</time>
      </trkpt>
      <trkpt lat="50.01327" lon="4.26304">
        <ele>274.8</ele>
        <time>2024-04-29T05:07:18Z</time>
      </trkpt>
      <trkpt lat="50.01332" lon="4.26291">
        <ele>274.6</ele>
        <time>2024-04-29T05:07:19Z</time>
      </trkpt>
      <trkpt lat="50.01336" lon="4.26279">
        <ele>274.6</ele>
        <time>2024-04-29T05:07:20Z</time>
      </trkpt>
      <trkpt lat="50.0134" lon="4.26267">
        <ele>274.6</ele>
        <time>2024-04-29T05:07:21Z</time>
      </trkpt>
      <trkpt lat="50.01345" lon="4.26255">
        <ele>274.6</ele>
        <time>2024-04-29T05:07:22Z</time>
      </trkpt>
      <trkpt lat="50.01349" lon="4.26244">
        <ele>274.6</ele>
        <time>2024-04-29T05:07:23Z</time>
      </trkpt>
      <trkpt lat="50.01353" lon="4.26233">
        <ele>274.6</ele>
        <time>2024-04-29T05:07:24Z</time>
      </trkpt>
      <trkpt lat="50.01357" lon="4.26223">
        <ele>274.6</ele>
        <time>2024-04-29T05:07:25Z</time>
      </trkpt>
      <trkpt lat="50.01361" lon="4.26213">
        <ele>274.6</ele>
        <time>2024-04-29T05:07:26Z</time>
      </trkpt>
      <trkpt lat="50.01365" lon="4.26203">
        <ele>274.6</ele>
        <time>2024-04-29T05:07:27Z</time>
      </trkpt>
      <trkpt lat="50.01368" lon="4.26193">
        <ele>274.6</ele>
        <time>2024-04-29T05:07:28Z</time>
      </trkpt>
      <trkpt lat="50.01372" lon="4.26183">
        <ele>274.6</ele>
        <time>2024-04-29T05:07:29Z</time>
      </trkpt>
      <trkpt lat="50.01376" lon="4.26173">
        <ele>274.6</ele>
        <time>2024-04-29T05:07:30Z</time>
      </trkpt>
      <trkpt lat="50.01379" lon="4.26164">
        <ele>274.6</ele>
        <time>2024-04-29T05:07:31Z</time>
      </trkpt>
      <trkpt lat="50.01382" lon="4.26155">
        <ele>275</ele>
        <time>2024-04-29T05:07:32Z</time>
      </trkpt>
      <trkpt lat="50.01386" lon="4.26146">
        <ele>275.2</ele>
        <time>2024-04-29T05:07:33Z</time>
      </trkpt>
      <trkpt lat="50.01389" lon="4.26137">
        <ele>275.4</ele>
        <time>2024-04-29T05:07:34Z</time>
      </trkpt>
      <trkpt lat="50.01393" lon="4.26127">
        <ele>275.4</ele>
        <time>2024-04-29T05:07:35Z</time>
      </trkpt>
      <trkpt lat="50.01396" lon="4.26118">
        <ele>275.8</ele>
        <time>2024-04-29T05:07:36Z</time>
      </trkpt>
      <trkpt lat="50.014" lon="4.26109">
        <ele>276.2</ele>
        <time>2024-04-29T05:07:37Z</time>
      </trkpt>
      <trkpt lat="50.01404" lon="4.261">
        <ele>276.4</ele>
        <time>2024-04-29T05:07:38Z</time>
      </trkpt>
      <trkpt lat="50.01408" lon="4.2609">
        <ele>276.6</ele>
        <time>2024-04-29T05:07:39Z</time>
      </trkpt>
      <trkpt lat="50.01411" lon="4.26081">
        <ele>276.6</ele>
        <time>2024-04-29T05:07:40Z</time>
      </trkpt>
      <trkpt lat="50.01415" lon="4.26071">
        <ele>276.8</ele>
        <time>2024-04-29T05:07:41Z</time>
      </trkpt>
      <trkpt lat="50.01419" lon="4.26061">
        <ele>276.6</ele>
        <time>2024-04-29T05:07:42Z</time>
      </trkpt>
      <trkpt lat="50.01422" lon="4.26051">
        <ele>276.8</ele>
        <time>2024-04-29T05:07:43Z</time>
      </trkpt>
      <trkpt lat="50.01426" lon="4.26041">
        <ele>276.6</ele>
        <time>2024-04-29T05:07:44Z</time>
      </trkpt>
      <trkpt lat="50.0143" lon="4.26031">
        <ele>276.6</ele>
        <time>2024-04-29T05:07:45Z</time>
      </trkpt>
      <trkpt lat="50.01434" lon="4.2602">
        <ele>276.8</ele>
        <time>2024-04-29T05:07:46Z</time>
      </trkpt>
      <trkpt lat="50.01437" lon="4.2601">
        <ele>276.6</ele>
        <time>2024-04-29T05:07:47Z</time>
      </trkpt>
      <trkpt lat="50.01441" lon="4.25999">
        <ele>276.6</ele>
        <time>2024-04-29T05:07:48Z</time>
      </trkpt>
      <trkpt lat="50.01444" lon="4.25987">
        <ele>276.6</ele>
        <time>2024-04-29T05:07:49Z</time>
      </trkpt>
      <trkpt lat="50.01447" lon="4.25975">
        <ele>276.4</ele>
        <time>2024-04-29T05:07:50Z</time>
      </trkpt>
      <trkpt lat="50.01449" lon="4.25963">
        <ele>276.4</ele>
        <time>2024-04-29T05:07:51Z</time>
      </trkpt>
      <trkpt lat="50.01451" lon="4.25951">
        <ele>276.4</ele>
        <time>2024-04-29T05:07:52Z</time>
      </trkpt>
      <trkpt lat="50.01453" lon="4.25939">
        <ele>276.4</ele>
        <time>2024-04-29T05:07:53Z</time>
      </trkpt>
      <trkpt lat="50.01454" lon="4.25926">
        <ele>276</ele>
        <time>2024-04-29T05:07:54Z</time>
      </trkpt>
      <trkpt lat="50.01455" lon="4.25913">
        <ele>276</ele>
        <time>2024-04-29T05:07:55Z</time>
      </trkpt>
      <trkpt lat="50.01455" lon="4.259">
        <ele>275.6</ele>
        <time>2024-04-29T05:07:56Z</time>
      </trkpt>
      <trkpt lat="50.01456" lon="4.25887">
        <ele>275.4</ele>
        <time>2024-04-29T05:07:57Z</time>
      </trkpt>
      <trkpt lat="50.01456" lon="4.25873">
        <ele>275.2</ele>
        <time>2024-04-29T05:07:58Z</time>
      </trkpt>
      <trkpt lat="50.01456" lon="4.2586">
        <ele>274.8</ele>
        <time>2024-04-29T05:07:59Z</time>
      </trkpt>
      <trkpt lat="50.01456" lon="4.25847">
        <ele>274.6</ele>
        <time>2024-04-29T05:08:00Z</time>
      </trkpt>
      <trkpt lat="50.01457" lon="4.25833">
        <ele>274.6</ele>
        <time>2024-04-29T05:08:01Z</time>
      </trkpt>
      <trkpt lat="50.01458" lon="4.2582">
        <ele>274.4</ele>
        <time>2024-04-29T05:08:02Z</time>
      </trkpt>
      <trkpt lat="50.01459" lon="4.25807">
        <ele>274.4</ele>
        <time>2024-04-29T05:08:03Z</time>
      </trkpt>
      <trkpt lat="50.01461" lon="4.25794">
        <ele>274.2</ele>
        <time>2024-04-29T05:08:04Z</time>
      </trkpt>
      <trkpt lat="50.01464" lon="4.2578">
        <ele>274.2</ele>
        <time>2024-04-29T05:08:05Z</time>
      </trkpt>
      <trkpt lat="50.01467" lon="4.25768">
        <ele>274.2</ele>
        <time>2024-04-29T05:08:06Z</time>
      </trkpt>
      <trkpt lat="50.0147" lon="4.25755">
        <ele>273.8</ele>
        <time>2024-04-29T05:08:07Z</time>
      </trkpt>
      <trkpt lat="50.01474" lon="4.25743">
        <ele>273.4</ele>
        <time>2024-04-29T05:08:08Z</time>
      </trkpt>
      <trkpt lat="50.01478" lon="4.25731">
        <ele>273.2</ele>
        <time>2024-04-29T05:08:09Z</time>
      </trkpt>
      <trkpt lat="50.01483" lon="4.2572">
        <ele>273.2</ele>
        <time>2024-04-29T05:08:10Z</time>
      </trkpt>
      <trkpt lat="50.01488" lon="4.2571">
        <ele>272.8</ele>
        <time>2024-04-29T05:08:11Z</time>
      </trkpt>
      <trkpt lat="50.01492" lon="4.25701">
        <ele>272.4</ele>
        <time>2024-04-29T05:08:12Z</time>
      </trkpt>
      <trkpt lat="50.01496" lon="4.25692">
        <ele>272.4</ele>
        <time>2024-04-29T05:08:13Z</time>
      </trkpt>
      <trkpt lat="50.01501" lon="4.25684">
        <ele>272.4</ele>
        <time>2024-04-29T05:08:14Z</time>
      </trkpt>
      <trkpt lat="50.01505" lon="4.25676">
        <ele>272.4</ele>
        <time>2024-04-29T05:08:15Z</time>
      </trkpt>
      <trkpt lat="50.01508" lon="4.25668">
        <ele>272.4</ele>
        <time>2024-04-29T05:08:16Z</time>
      </trkpt>
      <trkpt lat="50.01512" lon="4.25661">
        <ele>272.4</ele>
        <time>2024-04-29T05:08:17Z</time>
      </trkpt>
      <trkpt lat="50.01515" lon="4.25653">
        <ele>272.4</ele>
        <time>2024-04-29T05:08:18Z</time>
      </trkpt>
      <trkpt lat="50.01519" lon="4.25647">
        <ele>272.2</ele>
        <time>2024-04-29T05:08:19Z</time>
      </trkpt>
      <trkpt lat="50.01523" lon="4.25641">
        <ele>272.2</ele>
        <time>2024-04-29T05:08:20Z</time>
      </trkpt>
      <trkpt lat="50.01526" lon="4.25635">
        <ele>272.4</ele>
        <time>2024-04-29T05:08:21Z</time>
      </trkpt>
      <trkpt lat="50.0153" lon="4.2563">
        <ele>272.4</ele>
        <time>2024-04-29T05:08:22Z</time>
      </trkpt>
      <trkpt lat="50.01534" lon="4.25626">
        <ele>272.8</ele>
        <time>2024-04-29T05:08:23Z</time>
      </trkpt>
      <trkpt lat="50.01539" lon="4.25624">
        <ele>273.2</ele>
        <time>2024-04-29T05:08:24Z</time>
      </trkpt>
      <trkpt lat="50.01544" lon="4.25622">
        <ele>273.8</ele>
        <time>2024-04-29T05:08:25Z</time>
      </trkpt>
      <trkpt lat="50.01549" lon="4.25619">
        <ele>274.2</ele>
        <time>2024-04-29T05:08:26Z</time>
      </trkpt>
      <trkpt lat="50.01554" lon="4.25615">
        <ele>274.6</ele>
        <time>2024-04-29T05:08:27Z</time>
      </trkpt>
      <trkpt lat="50.01558" lon="4.2561">
        <ele>275.2</ele>
        <time>2024-04-29T05:08:28Z</time>
      </trkpt>
      <trkpt lat="50.01562" lon="4.25604">
        <ele>275.6</ele>
        <time>2024-04-29T05:08:29Z</time>
      </trkpt>
      <trkpt lat="50.01565" lon="4.25597">
        <ele>276</ele>
        <time>2024-04-29T05:08:30Z</time>
      </trkpt>
      <trkpt lat="50.01568" lon="4.2559">
        <ele>276.4</ele>
        <time>2024-04-29T05:08:31Z</time>
      </trkpt>
      <trkpt lat="50.0157" lon="4.25583">
        <ele>277</ele>
        <time>2024-04-29T05:08:32Z</time>
      </trkpt>
      <trkpt lat="50.01572" lon="4.25575">
        <ele>277.4</ele>
        <time>2024-04-29T05:08:33Z</time>
      </trkpt>
      <trkpt lat="50.01573" lon="4.25567">
        <ele>277.6</ele>
        <time>2024-04-29T05:08:34Z</time>
      </trkpt>
      <trkpt lat="50.01575" lon="4.25559">
        <ele>278</ele>
        <time>2024-04-29T05:08:35Z</time>
      </trkpt>
      <trkpt lat="50.01577" lon="4.25551">
        <ele>278</ele>
        <time>2024-04-29T05:08:36Z</time>
      </trkpt>
      <trkpt lat="50.01579" lon="4.25544">
        <ele>278</ele>
        <time>2024-04-29T05:08:37Z</time>
      </trkpt>
      <trkpt lat="50.01581" lon="4.25536">
        <ele>278.2</ele>
        <time>2024-04-29T05:08:38Z</time>
      </trkpt>
      <trkpt lat="50.01582" lon="4.25528">
        <ele>278.2</ele>
        <time>2024-04-29T05:08:39Z</time>
      </trkpt>
      <trkpt lat="50.01584" lon="4.25521">
        <ele>278.2</ele>
        <time>2024-04-29T05:08:40Z</time>
      </trkpt>
      <trkpt lat="50.01586" lon="4.25513">
        <ele>278.4</ele>
        <time>2024-04-29T05:08:41Z</time>
      </trkpt>
      <trkpt lat="50.01588" lon="4.25505">
        <ele>278.4</ele>
        <time>2024-04-29T05:08:42Z</time>
      </trkpt>
      <trkpt lat="50.01589" lon="4.25496">
        <ele>278.4</ele>
        <time>2024-04-29T05:08:43Z</time>
      </trkpt>
      <trkpt lat="50.01589" lon="4.25488">
        <ele>278.6</ele>
        <time>2024-04-29T05:08:44Z</time>
      </trkpt>
      <trkpt lat="50.01589" lon="4.2548">
        <ele>278.6</ele>
        <time>2024-04-29T05:08:45Z</time>
      </trkpt>
      <trkpt lat="50.01587" lon="4.25471">
        <ele>278.8</ele>
        <time>2024-04-29T05:08:46Z</time>
      </trkpt>
      <trkpt lat="50.01585" lon="4.25464">
        <ele>279</ele>
        <time>2024-04-29T05:08:47Z</time>
      </trkpt>
      <trkpt lat="50.01581" lon="4.25457">
        <ele>279.4</ele>
        <time>2024-04-29T05:08:48Z</time>
      </trkpt>
      <trkpt lat="50.01578" lon="4.25451">
        <ele>279.6</ele>
        <time>2024-04-29T05:08:49Z</time>
      </trkpt>
      <trkpt lat="50.01574" lon="4.25445">
        <ele>280</ele>
        <time>2024-04-29T05:08:50Z</time>
      </trkpt>
      <trkpt lat="50.01569" lon="4.25439">
        <ele>280.2</ele>
        <time>2024-04-29T05:08:51Z</time>
      </trkpt>
      <trkpt lat="50.01565" lon="4.25433">
        <ele>280.4</ele>
        <time>2024-04-29T05:08:52Z</time>
      </trkpt>
      <trkpt lat="50.01562" lon="4.25426">
        <ele>280.8</ele>
        <time>2024-04-29T05:08:53Z</time>
      </trkpt>
      <trkpt lat="50.0156" lon="4.25418">
        <ele>281.4</ele>
        <time>2024-04-29T05:08:54Z</time>
      </trkpt>
      <trkpt lat="50.0156" lon="4.25409">
        <ele>281.8</ele>
        <time>2024-04-29T05:08:55Z</time>
      </trkpt>
      <trkpt lat="50.01561" lon="4.254">
        <ele>282</ele>
        <time>2024-04-29T05:08:56Z</time>
      </trkpt>
      <trkpt lat="50.01563" lon="4.25392">
        <ele>282</ele>
        <time>2024-04-29T05:08:57Z</time>
      </trkpt>
      <trkpt lat="50.01565" lon="4.25383">
        <ele>282.2</ele>
        <time>2024-04-29T05:08:58Z</time>
      </trkpt>
      <trkpt lat="50.01567" lon="4.25375">
        <ele>282.2</ele>
        <time>2024-04-29T05:08:59Z</time>
      </trkpt>
      <trkpt lat="50.0157" lon="4.25366">
        <ele>282.2</ele>
        <time>2024-04-29T05:09:00Z</time>
      </trkpt>
      <trkpt lat="50.01572" lon="4.25358">
        <ele>282.2</ele>
        <time>2024-04-29T05:09:01Z</time>
      </trkpt>
      <trkpt lat="50.01574" lon="4.2535">
        <ele>282.4</ele>
        <time>2024-04-29T05:09:02Z</time>
      </trkpt>
      <trkpt lat="50.01576" lon="4.25342">
        <ele>282.4</ele>
        <time>2024-04-29T05:09:03Z</time>
      </trkpt>
      <trkpt lat="50.01578" lon="4.25333">
        <ele>282.8</ele>
        <time>2024-04-29T05:09:04Z</time>
      </trkpt>
      <trkpt lat="50.0158" lon="4.25325">
        <ele>283</ele>
        <time>2024-04-29T05:09:05Z</time>
      </trkpt>
      <trkpt lat="50.01582" lon="4.25317">
        <ele>283</ele>
        <time>2024-04-29T05:09:06Z</time>
      </trkpt>
      <trkpt lat="50.01584" lon="4.25309">
        <ele>283.2</ele>
        <time>2024-04-29T05:09:07Z</time>
      </trkpt>
      <trkpt lat="50.01586" lon="4.25301">
        <ele>283.2</ele>
        <time>2024-04-29T05:09:08Z</time>
      </trkpt>
      <trkpt lat="50.01588" lon="4.25293">
        <ele>283.2</ele>
        <time>2024-04-29T05:09:09Z</time>
      </trkpt>
      <trkpt lat="50.01589" lon="4.25285">
        <ele>283.4</ele>
        <time>2024-04-29T05:09:10Z</time>
      </trkpt>
      <trkpt lat="50.01591" lon="4.25277">
        <ele>283.4</ele>
        <time>2024-04-29T05:09:11Z</time>
      </trkpt>
      <trkpt lat="50.01593" lon="4.25269">
        <ele>283.6</ele>
        <time>2024-04-29T05:09:12Z</time>
      </trkpt>
      <trkpt lat="50.01595" lon="4.25261">
        <ele>283.8</ele>
        <time>2024-04-29T05:09:13Z</time>
      </trkpt>
      <trkpt lat="50.01596" lon="4.25253">
        <ele>283.8</ele>
        <time>2024-04-29T05:09:14Z</time>
      </trkpt>
      <trkpt lat="50.01598" lon="4.25245">
        <ele>284</ele>
        <time>2024-04-29T05:09:15Z</time>
      </trkpt>
      <trkpt lat="50.016" lon="4.25237">
        <ele>284</ele>
        <time>2024-04-29T05:09:16Z</time>
      </trkpt>
      <trkpt lat="50.01601" lon="4.25229">
        <ele>284.2</ele>
        <time>2024-04-29T05:09:17Z</time>
      </trkpt>
      <trkpt lat="50.01603" lon="4.25221">
        <ele>284.4</ele>
        <time>2024-04-29T05:09:18Z</time>
      </trkpt>
      <trkpt lat="50.01605" lon="4.25213">
        <ele>284.4</ele>
        <time>2024-04-29T05:09:19Z</time>
      </trkpt>
      <trkpt lat="50.01607" lon="4.25205">
        <ele>284.4</ele>
        <time>2024-04-29T05:09:20Z</time>
      </trkpt>
      <trkpt lat="50.01609" lon="4.25198">
        <ele>284.4</ele>
        <time>2024-04-29T05:09:21Z</time>
      </trkpt>
      <trkpt lat="50.0161" lon="4.2519">
        <ele>284.8</ele>
        <time>2024-04-29T05:09:22Z</time>
      </trkpt>
      <trkpt lat="50.01612" lon="4.25182">
        <ele>284.6</ele>
        <time>2024-04-29T05:09:23Z</time>
      </trkpt>
      <trkpt lat="50.01614" lon="4.25174">
        <ele>284.8</ele>
        <time>2024-04-29T05:09:24Z</time>
      </trkpt>
      <trkpt lat="50.01616" lon="4.25166">
        <ele>285</ele>
        <time>2024-04-29T05:09:25Z</time>
      </trkpt>
      <trkpt lat="50.01618" lon="4.25158">
        <ele>285.2</ele>
        <time>2024-04-29T05:09:26Z</time>
      </trkpt>
      <trkpt lat="50.0162" lon="4.2515">
        <ele>285.4</ele>
        <time>2024-04-29T05:09:27Z</time>
      </trkpt>
      <trkpt lat="50.01621" lon="4.25142">
        <ele>285.6</ele>
        <time>2024-04-29T05:09:28Z</time>
      </trkpt>
      <trkpt lat="50.01623" lon="4.25133">
        <ele>286</ele>
        <time>2024-04-29T05:09:29Z</time>
      </trkpt>
      <trkpt lat="50.01625" lon="4.25125">
        <ele>286</ele>
        <time>2024-04-29T05:09:30Z</time>
      </trkpt>
      <trkpt lat="50.01626" lon="4.25116">
        <ele>286.2</ele>
        <time>2024-04-29T05:09:31Z</time>
      </trkpt>
      <trkpt lat="50.01628" lon="4.25108">
        <ele>286.2</ele>
        <time>2024-04-29T05:09:32Z</time>
      </trkpt>
      <trkpt lat="50.0163" lon="4.25099">
        <ele>286.6</ele>
        <time>2024-04-29T05:09:33Z</time>
      </trkpt>
      <trkpt lat="50.01632" lon="4.25091">
        <ele>286.8</ele>
        <time>2024-04-29T05:09:34Z</time>
      </trkpt>
      <trkpt lat="50.01634" lon="4.25082">
        <ele>287.2</ele>
        <time>2024-04-29T05:09:35Z</time>
      </trkpt>
      <trkpt lat="50.01636" lon="4.25073">
        <ele>287.2</ele>
        <time>2024-04-29T05:09:36Z</time>
      </trkpt>
      <trkpt lat="50.01638" lon="4.25065">
        <ele>287.4</ele>
        <time>2024-04-29T05:09:37Z</time>
      </trkpt>
      <trkpt lat="50.0164" lon="4.25056">
        <ele>287.4</ele>
        <time>2024-04-29T05:09:38Z</time>
      </trkpt>
      <trkpt lat="50.01642" lon="4.25047">
        <ele>287.6</ele>
        <time>2024-04-29T05:09:39Z</time>
      </trkpt>
      <trkpt lat="50.01644" lon="4.25038">
        <ele>287.6</ele>
        <time>2024-04-29T05:09:40Z</time>
      </trkpt>
      <trkpt lat="50.01646" lon="4.25029">
        <ele>287.8</ele>
        <time>2024-04-29T05:09:41Z</time>
      </trkpt>
      <trkpt lat="50.01648" lon="4.2502">
        <ele>288</ele>
        <time>2024-04-29T05:09:42Z</time>
      </trkpt>
      <trkpt lat="50.0165" lon="4.25011">
        <ele>288.2</ele>
        <time>2024-04-29T05:09:43Z</time>
      </trkpt>
      <trkpt lat="50.01652" lon="4.25002">
        <ele>288.2</ele>
        <time>2024-04-29T05:09:44Z</time>
      </trkpt>
      <trkpt lat="50.01654" lon="4.24993">
        <ele>288.2</ele>
        <time>2024-04-29T05:09:45Z</time>
      </trkpt>
      <trkpt lat="50.01656" lon="4.24984">
        <ele>288.2</ele>
        <time>2024-04-29T05:09:46Z</time>
      </trkpt>
      <trkpt lat="50.01658" lon="4.24976">
        <ele>288.4</ele>
        <time>2024-04-29T05:09:47Z</time>
      </trkpt>
      <trkpt lat="50.01661" lon="4.24967">
        <ele>288.6</ele>
        <time>2024-04-29T05:09:48Z</time>
      </trkpt>
      <trkpt lat="50.01664" lon="4.24958">
        <ele>288.6</ele>
        <time>2024-04-29T05:09:49Z</time>
      </trkpt>
      <trkpt lat="50.01667" lon="4.2495">
        <ele>288.6</ele>
        <time>2024-04-29T05:09:50Z</time>
      </trkpt>
      <trkpt lat="50.0167" lon="4.24942">
        <ele>288.8</ele>
        <time>2024-04-29T05:09:51Z</time>
      </trkpt>
      <trkpt lat="50.01673" lon="4.24934">
        <ele>289</ele>
        <time>2024-04-29T05:09:52Z</time>
      </trkpt>
      <trkpt lat="50.01677" lon="4.24926">
        <ele>289.2</ele>
        <time>2024-04-29T05:09:53Z</time>
      </trkpt>
      <trkpt lat="50.0168" lon="4.24919">
        <ele>289.4</ele>
        <time>2024-04-29T05:09:54Z</time>
      </trkpt>
      <trkpt lat="50.01684" lon="4.24912">
        <ele>289.4</ele>
        <time>2024-04-29T05:09:55Z</time>
      </trkpt>
      <trkpt lat="50.01688" lon="4.24905">
        <ele>290</ele>
        <time>2024-04-29T05:09:56Z</time>
      </trkpt>
      <trkpt lat="50.01693" lon="4.24898">
        <ele>290</ele>
        <time>2024-04-29T05:09:57Z</time>
      </trkpt>
      <trkpt lat="50.01697" lon="4.24891">
        <ele>290.6</ele>
        <time>2024-04-29T05:09:58Z</time>
      </trkpt>
      <trkpt lat="50.01702" lon="4.24884">
        <ele>291.4</ele>
        <time>2024-04-29T05:09:59Z</time>
      </trkpt>
      <trkpt lat="50.01707" lon="4.24878">
        <ele>291.8</ele>
        <time>2024-04-29T05:10:00Z</time>
      </trkpt>
      <trkpt lat="50.01712" lon="4.24872">
        <ele>292</ele>
        <time>2024-04-29T05:10:01Z</time>
      </trkpt>
      <trkpt lat="50.01717" lon="4.24866">
        <ele>292.2</ele>
        <time>2024-04-29T05:10:02Z</time>
      </trkpt>
      <trkpt lat="50.01722" lon="4.2486">
        <ele>292.4</ele>
        <time>2024-04-29T05:10:03Z</time>
      </trkpt>
      <trkpt lat="50.01728" lon="4.24855">
        <ele>292.6</ele>
        <time>2024-04-29T05:10:04Z</time>
      </trkpt>
      <trkpt lat="50.01733" lon="4.24849">
        <ele>292.8</ele>
        <time>2024-04-29T05:10:05Z</time>
      </trkpt>
      <trkpt lat="50.01739" lon="4.24843">
        <ele>292.8</ele>
        <time>2024-04-29T05:10:06Z</time>
      </trkpt>
      <trkpt lat="50.01745" lon="4.24836">
        <ele>293</ele>
        <time>2024-04-29T05:10:07Z</time>
      </trkpt>
      <trkpt lat="50.0175" lon="4.2483">
        <ele>293</ele>
        <time>2024-04-29T05:10:08Z</time>
      </trkpt>
      <trkpt lat="50.01756" lon="4.24824">
        <ele>293</ele>
        <time>2024-04-29T05:10:09Z</time>
      </trkpt>
      <trkpt lat="50.01762" lon="4.24817">
        <ele>293</ele>
        <time>2024-04-29T05:10:10Z</time>
      </trkpt>
      <trkpt lat="50.01768" lon="4.24811">
        <ele>293.2</ele>
        <time>2024-04-29T05:10:11Z</time>
      </trkpt>
      <trkpt lat="50.01774" lon="4.24804">
        <ele>293</ele>
        <time>2024-04-29T05:10:12Z</time>
      </trkpt>
      <trkpt lat="50.0178" lon="4.24797">
        <ele>293</ele>
        <time>2024-04-29T05:10:13Z</time>
      </trkpt>
      <trkpt lat="50.01786" lon="4.2479">
        <ele>293</ele>
        <time>2024-04-29T05:10:14Z</time>
      </trkpt>
      <trkpt lat="50.01792" lon="4.24782">
        <ele>292.8</ele>
        <time>2024-04-29T05:10:15Z</time>
      </trkpt>
      <trkpt lat="50.01798" lon="4.24775">
        <ele>292.8</ele>
        <time>2024-04-29T05:10:16Z</time>
      </trkpt>
      <trkpt lat="50.01803" lon="4.24766">
        <ele>292.6</ele>
        <time>2024-04-29T05:10:17Z</time>
      </trkpt>
      <trkpt lat="50.01809" lon="4.24758">
        <ele>292.6</ele>
        <time>2024-04-29T05:10:18Z</time>
      </trkpt>
      <trkpt lat="50.01815" lon="4.24749">
        <ele>292.6</ele>
        <time>2024-04-29T05:10:19Z</time>
      </trkpt>
      <trkpt lat="50.0182" lon="4.24739">
        <ele>292.4</ele>
        <time>2024-04-29T05:10:20Z</time>
      </trkpt>
      <trkpt lat="50.01826" lon="4.2473">
        <ele>292.2</ele>
        <time>2024-04-29T05:10:21Z</time>
      </trkpt>
      <trkpt lat="50.01831" lon="4.2472">
        <ele>292.2</ele>
        <time>2024-04-29T05:10:22Z</time>
      </trkpt>
      <trkpt lat="50.01836" lon="4.24709">
        <ele>292</ele>
        <time>2024-04-29T05:10:23Z</time>
      </trkpt>
      <trkpt lat="50.01841" lon="4.24698">
        <ele>291.6</ele>
        <time>2024-04-29T05:10:24Z</time>
      </trkpt>
      <trkpt lat="50.01846" lon="4.24687">
        <ele>291.2</ele>
        <time>2024-04-29T05:10:25Z</time>
      </trkpt>
      <trkpt lat="50.01849" lon="4.24675">
        <ele>291</ele>
        <time>2024-04-29T05:10:26Z</time>
      </trkpt>
      <trkpt lat="50.01853" lon="4.24662">
        <ele>290.6</ele>
        <time>2024-04-29T05:10:27Z</time>
      </trkpt>
      <trkpt lat="50.01856" lon="4.24649">
        <ele>290.6</ele>
        <time>2024-04-29T05:10:28Z</time>
      </trkpt>
      <trkpt lat="50.01858" lon="4.24636">
        <ele>290.4</ele>
        <time>2024-04-29T05:10:29Z</time>
      </trkpt>
      <trkpt lat="50.0186" lon="4.24623">
        <ele>289.8</ele>
        <time>2024-04-29T05:10:30Z</time>
      </trkpt>
      <trkpt lat="50.01861" lon="4.2461">
        <ele>289.6</ele>
        <time>2024-04-29T05:10:31Z</time>
      </trkpt>
      <trkpt lat="50.01862" lon="4.24596">
        <ele>289</ele>
        <time>2024-04-29T05:10:32Z</time>
      </trkpt>
      <trkpt lat="50.01862" lon="4.24583">
        <ele>288.8</ele>
        <time>2024-04-29T05:10:33Z</time>
      </trkpt>
      <trkpt lat="50.01862" lon="4.2457">
        <ele>288.6</ele>
        <time>2024-04-29T05:10:34Z</time>
      </trkpt>
      <trkpt lat="50.01862" lon="4.24557">
        <ele>288.2</ele>
        <time>2024-04-29T05:10:35Z</time>
      </trkpt>
      <trkpt lat="50.01862" lon="4.24544">
        <ele>287.8</ele>
        <time>2024-04-29T05:10:36Z</time>
      </trkpt>
      <trkpt lat="50.01862" lon="4.24531">
        <ele>287.4</ele>
        <time>2024-04-29T05:10:37Z</time>
      </trkpt>
      <trkpt lat="50.01861" lon="4.24518">
        <ele>287.4</ele>
        <time>2024-04-29T05:10:38Z</time>
      </trkpt>
      <trkpt lat="50.0186" lon="4.24505">
        <ele>287.2</ele>
        <time>2024-04-29T05:10:39Z</time>
      </trkpt>
      <trkpt lat="50.01859" lon="4.24492">
        <ele>287</ele>
        <time>2024-04-29T05:10:40Z</time>
      </trkpt>
      <trkpt lat="50.01858" lon="4.2448">
        <ele>287</ele>
        <time>2024-04-29T05:10:41Z</time>
      </trkpt>
      <trkpt lat="50.01856" lon="4.24468">
        <ele>286.8</ele>
        <time>2024-04-29T05:10:42Z</time>
      </trkpt>
      <trkpt lat="50.01853" lon="4.24456">
        <ele>286.6</ele>
        <time>2024-04-29T05:10:43Z</time>
      </trkpt>
      <trkpt lat="50.01851" lon="4.24444">
        <ele>286.4</ele>
        <time>2024-04-29T05:10:44Z</time>
      </trkpt>
      <trkpt lat="50.01848" lon="4.24432">
        <ele>286.4</ele>
        <time>2024-04-29T05:10:45Z</time>
      </trkpt>
      <trkpt lat="50.01845" lon="4.24421">
        <ele>285.4</ele>
        <time>2024-04-29T05:10:46Z</time>
      </trkpt>
      <trkpt lat="50.01842" lon="4.24409">
        <ele>285</ele>
        <time>2024-04-29T05:10:47Z</time>
      </trkpt>
      <trkpt lat="50.01839" lon="4.24397">
        <ele>284.8</ele>
        <time>2024-04-29T05:10:48Z</time>
      </trkpt>
      <trkpt lat="50.01836" lon="4.24386">
        <ele>284.8</ele>
        <time>2024-04-29T05:10:49Z</time>
      </trkpt>
      <trkpt lat="50.01833" lon="4.24375">
        <ele>284.8</ele>
        <time>2024-04-29T05:10:50Z</time>
      </trkpt>
      <trkpt lat="50.0183" lon="4.24363">
        <ele>284.6</ele>
        <time>2024-04-29T05:10:51Z</time>
      </trkpt>
      <trkpt lat="50.01827" lon="4.24352">
        <ele>284.6</ele>
        <time>2024-04-29T05:10:52Z</time>
      </trkpt>
      <trkpt lat="50.01824" lon="4.24341">
        <ele>284.4</ele>
        <time>2024-04-29T05:10:53Z</time>
      </trkpt>
      <trkpt lat="50.01821" lon="4.24329">
        <ele>284.6</ele>
        <time>2024-04-29T05:10:54Z</time>
      </trkpt>
      <trkpt lat="50.01818" lon="4.24318">
        <ele>284.6</ele>
        <time>2024-04-29T05:10:55Z</time>
      </trkpt>
      <trkpt lat="50.01814" lon="4.24307">
        <ele>284.4</ele>
        <time>2024-04-29T05:10:56Z</time>
      </trkpt>
      <trkpt lat="50.01811" lon="4.24296">
        <ele>284.4</ele>
        <time>2024-04-29T05:10:57Z</time>
      </trkpt>
      <trkpt lat="50.01808" lon="4.24284">
        <ele>284.4</ele>
        <time>2024-04-29T05:10:58Z</time>
      </trkpt>
      <trkpt lat="50.01805" lon="4.24273">
        <ele>284.2</ele>
        <time>2024-04-29T05:10:59Z</time>
      </trkpt>
      <trkpt lat="50.01801" lon="4.24262">
        <ele>283.8</ele>
        <time>2024-04-29T05:11:00Z</time>
      </trkpt>
      <trkpt lat="50.01798" lon="4.2425">
        <ele>283.8</ele>
        <time>2024-04-29T05:11:01Z</time>
      </trkpt>
      <trkpt lat="50.01795" lon="4.24239">
        <ele>283.6</ele>
        <time>2024-04-29T05:11:02Z</time>
      </trkpt>
      <trkpt lat="50.01792" lon="4.24227">
        <ele>283.4</ele>
        <time>2024-04-29T05:11:03Z</time>
      </trkpt>
      <trkpt lat="50.01788" lon="4.24215">
        <ele>283.2</ele>
        <time>2024-04-29T05:11:04Z</time>
      </trkpt>
      <trkpt lat="50.01785" lon="4.24204">
        <ele>282.8</ele>
        <time>2024-04-29T05:11:05Z</time>
      </trkpt>
      <trkpt lat="50.01782" lon="4.24192">
        <ele>282.6</ele>
        <time>2024-04-29T05:11:06Z</time>
      </trkpt>
      <trkpt lat="50.01778" lon="4.2418">
        <ele>282.4</ele>
        <time>2024-04-29T05:11:07Z</time>
      </trkpt>
      <trkpt lat="50.01775" lon="4.24167">
        <ele>282</ele>
        <time>2024-04-29T05:11:08Z</time>
      </trkpt>
      <trkpt lat="50.01771" lon="4.24155">
        <ele>281.6</ele>
        <time>2024-04-29T05:11:09Z</time>
      </trkpt>
      <trkpt lat="50.01767" lon="4.24142">
        <ele>281</ele>
        <time>2024-04-29T05:11:10Z</time>
      </trkpt>
      <trkpt lat="50.01763" lon="4.24129">
        <ele>281</ele>
        <time>2024-04-29T05:11:11Z</time>
      </trkpt>
      <trkpt lat="50.01758" lon="4.24117">
        <ele>281</ele>
        <time>2024-04-29T05:11:12Z</time>
      </trkpt>
      <trkpt lat="50.01753" lon="4.24104">
        <ele>280.6</ele>
        <time>2024-04-29T05:11:13Z</time>
      </trkpt>
      <trkpt lat="50.01748" lon="4.24092">
        <ele>280</ele>
        <time>2024-04-29T05:11:14Z</time>
      </trkpt>
      <trkpt lat="50.01742" lon="4.2408">
        <ele>279.6</ele>
        <time>2024-04-29T05:11:15Z</time>
      </trkpt>
      <trkpt lat="50.01736" lon="4.24067">
        <ele>279.2</ele>
        <time>2024-04-29T05:11:16Z</time>
      </trkpt>
      <trkpt lat="50.01729" lon="4.24055">
        <ele>279</ele>
        <time>2024-04-29T05:11:17Z</time>
      </trkpt>
      <trkpt lat="50.01723" lon="4.24043">
        <ele>278.2</ele>
        <time>2024-04-29T05:11:18Z</time>
      </trkpt>
      <trkpt lat="50.01716" lon="4.2403">
        <ele>277.6</ele>
        <time>2024-04-29T05:11:19Z</time>
      </trkpt>
      <trkpt lat="50.01709" lon="4.24018">
        <ele>277</ele>
        <time>2024-04-29T05:11:20Z</time>
      </trkpt>
      <trkpt lat="50.01703" lon="4.24005">
        <ele>276.4</ele>
        <time>2024-04-29T05:11:21Z</time>
      </trkpt>
      <trkpt lat="50.01697" lon="4.23992">
        <ele>275.8</ele>
        <time>2024-04-29T05:11:22Z</time>
      </trkpt>
      <trkpt lat="50.01691" lon="4.23977">
        <ele>275.2</ele>
        <time>2024-04-29T05:11:23Z</time>
      </trkpt>
      <trkpt lat="50.01688" lon="4.23961">
        <ele>274.2</ele>
        <time>2024-04-29T05:11:24Z</time>
      </trkpt>
      <trkpt lat="50.01685" lon="4.23945">
        <ele>273.6</ele>
        <time>2024-04-29T05:11:25Z</time>
      </trkpt>
      <trkpt lat="50.01683" lon="4.23928">
        <ele>272.4</ele>
        <time>2024-04-29T05:11:26Z</time>
      </trkpt>
      <trkpt lat="50.01681" lon="4.23912">
        <ele>272</ele>
        <time>2024-04-29T05:11:27Z</time>
      </trkpt>
      <trkpt lat="50.01679" lon="4.23896">
        <ele>271.6</ele>
        <time>2024-04-29T05:11:28Z</time>
      </trkpt>
      <trkpt lat="50.01678" lon="4.23881">
        <ele>271.2</ele>
        <time>2024-04-29T05:11:29Z</time>
      </trkpt>
      <trkpt lat="50.01678" lon="4.23867">
        <ele>270.6</ele>
        <time>2024-04-29T05:11:30Z</time>
      </trkpt>
      <trkpt lat="50.01678" lon="4.23854">
        <ele>269.6</ele>
        <time>2024-04-29T05:11:31Z</time>
      </trkpt>
      <trkpt lat="50.01679" lon="4.23842">
        <ele>269.4</ele>
        <time>2024-04-29T05:11:32Z</time>
      </trkpt>
      <trkpt lat="50.01682" lon="4.23831">
        <ele>269.4</ele>
        <time>2024-04-29T05:11:33Z</time>
      </trkpt>
      <trkpt lat="50.01686" lon="4.23821">
        <ele>269.2</ele>
        <time>2024-04-29T05:11:34Z</time>
      </trkpt>
      <trkpt lat="50.0169" lon="4.23812">
        <ele>269.2</ele>
        <time>2024-04-29T05:11:35Z</time>
      </trkpt>
      <trkpt lat="50.01694" lon="4.23802">
        <ele>269</ele>
        <time>2024-04-29T05:11:36Z</time>
      </trkpt>
      <trkpt lat="50.01697" lon="4.23793">
        <ele>269.2</ele>
        <time>2024-04-29T05:11:37Z</time>
      </trkpt>
      <trkpt lat="50.01701" lon="4.23784">
        <ele>269</ele>
        <time>2024-04-29T05:11:38Z</time>
      </trkpt>
      <trkpt lat="50.01704" lon="4.23775">
        <ele>269</ele>
        <time>2024-04-29T05:11:39Z</time>
      </trkpt>
      <trkpt lat="50.01707" lon="4.23766">
        <ele>269.2</ele>
        <time>2024-04-29T05:11:40Z</time>
      </trkpt>
      <trkpt lat="50.01711" lon="4.23757">
        <ele>269</ele>
        <time>2024-04-29T05:11:41Z</time>
      </trkpt>
      <trkpt lat="50.01714" lon="4.23748">
        <ele>269.6</ele>
        <time>2024-04-29T05:11:42Z</time>
      </trkpt>
      <trkpt lat="50.01717" lon="4.23739">
        <ele>270.4</ele>
        <time>2024-04-29T05:11:43Z</time>
      </trkpt>
      <trkpt lat="50.01721" lon="4.2373">
        <ele>271</ele>
        <time>2024-04-29T05:11:44Z</time>
      </trkpt>
      <trkpt lat="50.01724" lon="4.23721">
        <ele>271.8</ele>
        <time>2024-04-29T05:11:45Z</time>
      </trkpt>
      <trkpt lat="50.01727" lon="4.23712">
        <ele>272.4</ele>
        <time>2024-04-29T05:11:46Z</time>
      </trkpt>
      <trkpt lat="50.01731" lon="4.23703">
        <ele>272.8</ele>
        <time>2024-04-29T05:11:47Z</time>
      </trkpt>
      <trkpt lat="50.01734" lon="4.23694">
        <ele>272.8</ele>
        <time>2024-04-29T05:11:48Z</time>
      </trkpt>
      <trkpt lat="50.01738" lon="4.23685">
        <ele>273</ele>
        <time>2024-04-29T05:11:49Z</time>
      </trkpt>
      <trkpt lat="50.01741" lon="4.23676">
        <ele>273</ele>
        <time>2024-04-29T05:11:50Z</time>
      </trkpt>
      <trkpt lat="50.01744" lon="4.23666">
        <ele>273.4</ele>
        <time>2024-04-29T05:11:51Z</time>
      </trkpt>
      <trkpt lat="50.01747" lon="4.23657">
        <ele>273.6</ele>
        <time>2024-04-29T05:11:52Z</time>
      </trkpt>
      <trkpt lat="50.0175" lon="4.23647">
        <ele>274.2</ele>
        <time>2024-04-29T05:11:53Z</time>
      </trkpt>
      <trkpt lat="50.01753" lon="4.23637">
        <ele>274.2</ele>
        <time>2024-04-29T05:11:54Z</time>
      </trkpt>
      <trkpt lat="50.01756" lon="4.23627">
        <ele>274.6</ele>
        <time>2024-04-29T05:11:55Z</time>
      </trkpt>
      <trkpt lat="50.01759" lon="4.23617">
        <ele>274.8</ele>
        <time>2024-04-29T05:11:56Z</time>
      </trkpt>
      <trkpt lat="50.01762" lon="4.23607">
        <ele>275</ele>
        <time>2024-04-29T05:11:57Z</time>
      </trkpt>
      <trkpt lat="50.01764" lon="4.23597">
        <ele>275</ele>
        <time>2024-04-29T05:11:58Z</time>
      </trkpt>
      <trkpt lat="50.01767" lon="4.23587">
        <ele>275.2</ele>
        <time>2024-04-29T05:11:59Z</time>
      </trkpt>
      <trkpt lat="50.01769" lon="4.23577">
        <ele>275.2</ele>
        <time>2024-04-29T05:12:00Z</time>
      </trkpt>
      <trkpt lat="50.01771" lon="4.23567">
        <ele>275.2</ele>
        <time>2024-04-29T05:12:01Z</time>
      </trkpt>
      <trkpt lat="50.01773" lon="4.23557">
        <ele>275.2</ele>
        <time>2024-04-29T05:12:02Z</time>
      </trkpt>
      <trkpt lat="50.01775" lon="4.23548">
        <ele>275.4</ele>
        <time>2024-04-29T05:12:03Z</time>
      </trkpt>
      <trkpt lat="50.01778" lon="4.23539">
        <ele>275.4</ele>
        <time>2024-04-29T05:12:04Z</time>
      </trkpt>
      <trkpt lat="50.01779" lon="4.23529">
        <ele>275.2</ele>
        <time>2024-04-29T05:12:05Z</time>
      </trkpt>
      <trkpt lat="50.01781" lon="4.23521">
        <ele>275.2</ele>
        <time>2024-04-29T05:12:06Z</time>
      </trkpt>
      <trkpt lat="50.01783" lon="4.23512">
        <ele>275.2</ele>
        <time>2024-04-29T05:12:07Z</time>
      </trkpt>
      <trkpt lat="50.01785" lon="4.23503">
        <ele>275.4</ele>
        <time>2024-04-29T05:12:08Z</time>
      </trkpt>
      <trkpt lat="50.01788" lon="4.23495">
        <ele>275.6</ele>
        <time>2024-04-29T05:12:09Z</time>
      </trkpt>
      <trkpt lat="50.0179" lon="4.23487">
        <ele>275.6</ele>
        <time>2024-04-29T05:12:10Z</time>
      </trkpt>
      <trkpt lat="50.01792" lon="4.23479">
        <ele>275.6</ele>
        <time>2024-04-29T05:12:11Z</time>
      </trkpt>
      <trkpt lat="50.01794" lon="4.23471">
        <ele>275.8</ele>
        <time>2024-04-29T05:12:12Z</time>
      </trkpt>
      <trkpt lat="50.01796" lon="4.23462">
        <ele>276</ele>
        <time>2024-04-29T05:12:13Z</time>
      </trkpt>
      <trkpt lat="50.01799" lon="4.23454">
        <ele>276.6</ele>
        <time>2024-04-29T05:12:14Z</time>
      </trkpt>
      <trkpt lat="50.01801" lon="4.23446">
        <ele>276.8</ele>
        <time>2024-04-29T05:12:15Z</time>
      </trkpt>
      <trkpt lat="50.01803" lon="4.23438">
        <ele>276.8</ele>
        <time>2024-04-29T05:12:16Z</time>
      </trkpt>
      <trkpt lat="50.01806" lon="4.2343">
        <ele>277.2</ele>
        <time>2024-04-29T05:12:17Z</time>
      </trkpt>
      <trkpt lat="50.01808" lon="4.23422">
        <ele>277.4</ele>
        <time>2024-04-29T05:12:18Z</time>
      </trkpt>
      <trkpt lat="50.0181" lon="4.23414">
        <ele>278</ele>
        <time>2024-04-29T05:12:19Z</time>
      </trkpt>
      <trkpt lat="50.01812" lon="4.23406">
        <ele>278.2</ele>
        <time>2024-04-29T05:12:20Z</time>
      </trkpt>
      <trkpt lat="50.01814" lon="4.23398">
        <ele>278.4</ele>
        <time>2024-04-29T05:12:21Z</time>
      </trkpt>
      <trkpt lat="50.01816" lon="4.23389">
        <ele>278.6</ele>
        <time>2024-04-29T05:12:22Z</time>
      </trkpt>
      <trkpt lat="50.01818" lon="4.23381">
        <ele>278.8</ele>
        <time>2024-04-29T05:12:23Z</time>
      </trkpt>
      <trkpt lat="50.0182" lon="4.23373">
        <ele>279</ele>
        <time>2024-04-29T05:12:24Z</time>
      </trkpt>
      <trkpt lat="50.01823" lon="4.23365">
        <ele>279.2</ele>
        <time>2024-04-29T05:12:25Z</time>
      </trkpt>
      <trkpt lat="50.01824" lon="4.23357">
        <ele>279.4</ele>
        <time>2024-04-29T05:12:26Z</time>
      </trkpt>
      <trkpt lat="50.01826" lon="4.23349">
        <ele>279.6</ele>
        <time>2024-04-29T05:12:27Z</time>
      </trkpt>
      <trkpt lat="50.01829" lon="4.23341">
        <ele>279.8</ele>
        <time>2024-04-29T05:12:28Z</time>
      </trkpt>
      <trkpt lat="50.01831" lon="4.23333">
        <ele>280.2</ele>
        <time>2024-04-29T05:12:29Z</time>
      </trkpt>
      <trkpt lat="50.01833" lon="4.23325">
        <ele>280.4</ele>
        <time>2024-04-29T05:12:30Z</time>
      </trkpt>
      <trkpt lat="50.01835" lon="4.23317">
        <ele>280.6</ele>
        <time>2024-04-29T05:12:31Z</time>
      </trkpt>
      <trkpt lat="50.01837" lon="4.23309">
        <ele>280.6</ele>
        <time>2024-04-29T05:12:32Z</time>
      </trkpt>
      <trkpt lat="50.01839" lon="4.23301">
        <ele>281</ele>
        <time>2024-04-29T05:12:33Z</time>
      </trkpt>
      <trkpt lat="50.01841" lon="4.23293">
        <ele>281</ele>
        <time>2024-04-29T05:12:34Z</time>
      </trkpt>
      <trkpt lat="50.01844" lon="4.23285">
        <ele>281.8</ele>
        <time>2024-04-29T05:12:35Z</time>
      </trkpt>
      <trkpt lat="50.01846" lon="4.23277">
        <ele>282.2</ele>
        <time>2024-04-29T05:12:36Z</time>
      </trkpt>
      <trkpt lat="50.01848" lon="4.23269">
        <ele>282.4</ele>
        <time>2024-04-29T05:12:37Z</time>
      </trkpt>
      <trkpt lat="50.0185" lon="4.23261">
        <ele>282.4</ele>
        <time>2024-04-29T05:12:38Z</time>
      </trkpt>
      <trkpt lat="50.01852" lon="4.23253">
        <ele>283.2</ele>
        <time>2024-04-29T05:12:39Z</time>
      </trkpt>
      <trkpt lat="50.01856" lon="4.23244">
        <ele>283.4</ele>
        <time>2024-04-29T05:12:40Z</time>
      </trkpt>
      <trkpt lat="50.01859" lon="4.23236">
        <ele>283.8</ele>
        <time>2024-04-29T05:12:41Z</time>
      </trkpt>
      <trkpt lat="50.01861" lon="4.23229">
        <ele>284</ele>
        <time>2024-04-29T05:12:42Z</time>
      </trkpt>
      <trkpt lat="50.01865" lon="4.23222">
        <ele>284.2</ele>
        <time>2024-04-29T05:12:43Z</time>
      </trkpt>
      <trkpt lat="50.01869" lon="4.23214">
        <ele>284.4</ele>
        <time>2024-04-29T05:12:44Z</time>
      </trkpt>
      <trkpt lat="50.01873" lon="4.23208">
        <ele>284.4</ele>
        <time>2024-04-29T05:12:45Z</time>
      </trkpt>
      <trkpt lat="50.01878" lon="4.23202">
        <ele>284.6</ele>
        <time>2024-04-29T05:12:46Z</time>
      </trkpt>
      <trkpt lat="50.01882" lon="4.23197">
        <ele>284.8</ele>
        <time>2024-04-29T05:12:47Z</time>
      </trkpt>
      <trkpt lat="50.01887" lon="4.23191">
        <ele>284.8</ele>
        <time>2024-04-29T05:12:48Z</time>
      </trkpt>
      <trkpt lat="50.01892" lon="4.23187">
        <ele>284.8</ele>
        <time>2024-04-29T05:12:49Z</time>
      </trkpt>
      <trkpt lat="50.01897" lon="4.23183">
        <ele>285</ele>
        <time>2024-04-29T05:12:50Z</time>
      </trkpt>
      <trkpt lat="50.01902" lon="4.23179">
        <ele>285.2</ele>
        <time>2024-04-29T05:12:51Z</time>
      </trkpt>
      <trkpt lat="50.01908" lon="4.23176">
        <ele>285.2</ele>
        <time>2024-04-29T05:12:52Z</time>
      </trkpt>
      <trkpt lat="50.01913" lon="4.23173">
        <ele>285.2</ele>
        <time>2024-04-29T05:12:53Z</time>
      </trkpt>
      <trkpt lat="50.01919" lon="4.2317">
        <ele>285.6</ele>
        <time>2024-04-29T05:12:54Z</time>
      </trkpt>
      <trkpt lat="50.01924" lon="4.23167">
        <ele>285.8</ele>
        <time>2024-04-29T05:12:55Z</time>
      </trkpt>
      <trkpt lat="50.0193" lon="4.23164">
        <ele>286</ele>
        <time>2024-04-29T05:12:56Z</time>
      </trkpt>
      <trkpt lat="50.01936" lon="4.23161">
        <ele>286.4</ele>
        <time>2024-04-29T05:12:57Z</time>
      </trkpt>
      <trkpt lat="50.01942" lon="4.23159">
        <ele>287</ele>
        <time>2024-04-29T05:12:58Z</time>
      </trkpt>
      <trkpt lat="50.01949" lon="4.23157">
        <ele>287</ele>
        <time>2024-04-29T05:12:59Z</time>
      </trkpt>
      <trkpt lat="50.01955" lon="4.23154">
        <ele>287.8</ele>
        <time>2024-04-29T05:13:00Z</time>
      </trkpt>
      <trkpt lat="50.01961" lon="4.23152">
        <ele>288.2</ele>
        <time>2024-04-29T05:13:01Z</time>
      </trkpt>
      <trkpt lat="50.01967" lon="4.23149">
        <ele>288.4</ele>
        <time>2024-04-29T05:13:02Z</time>
      </trkpt>
      <trkpt lat="50.01973" lon="4.23147">
        <ele>288.6</ele>
        <time>2024-04-29T05:13:03Z</time>
      </trkpt>
      <trkpt lat="50.01979" lon="4.23144">
        <ele>288.6</ele>
        <time>2024-04-29T05:13:04Z</time>
      </trkpt>
      <trkpt lat="50.01985" lon="4.23142">
        <ele>288.4</ele>
        <time>2024-04-29T05:13:05Z</time>
      </trkpt>
      <trkpt lat="50.0199" lon="4.23139">
        <ele>288.6</ele>
        <time>2024-04-29T05:13:06Z</time>
      </trkpt>
      <trkpt lat="50.01996" lon="4.23137">
        <ele>288.6</ele>
        <time>2024-04-29T05:13:07Z</time>
      </trkpt>
      <trkpt lat="50.02003" lon="4.23134">
        <ele>288.4</ele>
        <time>2024-04-29T05:13:08Z</time>
      </trkpt>
      <trkpt lat="50.02009" lon="4.23132">
        <ele>288.6</ele>
        <time>2024-04-29T05:13:09Z</time>
      </trkpt>
      <trkpt lat="50.02015" lon="4.23129">
        <ele>288.6</ele>
        <time>2024-04-29T05:13:10Z</time>
      </trkpt>
      <trkpt lat="50.02021" lon="4.23127">
        <ele>288.8</ele>
        <time>2024-04-29T05:13:11Z</time>
      </trkpt>
      <trkpt lat="50.02027" lon="4.23124">
        <ele>288.8</ele>
        <time>2024-04-29T05:13:12Z</time>
      </trkpt>
      <trkpt lat="50.02033" lon="4.23121">
        <ele>288.6</ele>
        <time>2024-04-29T05:13:13Z</time>
      </trkpt>
      <trkpt lat="50.02039" lon="4.23118">
        <ele>288.8</ele>
        <time>2024-04-29T05:13:14Z</time>
      </trkpt>
      <trkpt lat="50.02045" lon="4.23116">
        <ele>288.8</ele>
        <time>2024-04-29T05:13:15Z</time>
      </trkpt>
      <trkpt lat="50.02052" lon="4.23114">
        <ele>288.8</ele>
        <time>2024-04-29T05:13:16Z</time>
      </trkpt>
      <trkpt lat="50.02058" lon="4.23111">
        <ele>289</ele>
        <time>2024-04-29T05:13:17Z</time>
      </trkpt>
      <trkpt lat="50.02065" lon="4.23108">
        <ele>288.8</ele>
        <time>2024-04-29T05:13:18Z</time>
      </trkpt>
      <trkpt lat="50.02071" lon="4.23105">
        <ele>289.2</ele>
        <time>2024-04-29T05:13:19Z</time>
      </trkpt>
      <trkpt lat="50.02077" lon="4.23102">
        <ele>289.2</ele>
        <time>2024-04-29T05:13:20Z</time>
      </trkpt>
      <trkpt lat="50.02083" lon="4.231">
        <ele>289.2</ele>
        <time>2024-04-29T05:13:21Z</time>
      </trkpt>
      <trkpt lat="50.02089" lon="4.23097">
        <ele>289.4</ele>
        <time>2024-04-29T05:13:22Z</time>
      </trkpt>
      <trkpt lat="50.02095" lon="4.23094">
        <ele>289.4</ele>
        <time>2024-04-29T05:13:23Z</time>
      </trkpt>
      <trkpt lat="50.02102" lon="4.23091">
        <ele>289.6</ele>
        <time>2024-04-29T05:13:24Z</time>
      </trkpt>
      <trkpt lat="50.02108" lon="4.23089">
        <ele>289.6</ele>
        <time>2024-04-29T05:13:25Z</time>
      </trkpt>
      <trkpt lat="50.02115" lon="4.23087">
        <ele>289.6</ele>
        <time>2024-04-29T05:13:26Z</time>
      </trkpt>
      <trkpt lat="50.02121" lon="4.23084">
        <ele>289.6</ele>
        <time>2024-04-29T05:13:27Z</time>
      </trkpt>
      <trkpt lat="50.02127" lon="4.23081">
        <ele>289.6</ele>
        <time>2024-04-29T05:13:28Z</time>
      </trkpt>
      <trkpt lat="50.02133" lon="4.23079">
        <ele>289.8</ele>
        <time>2024-04-29T05:13:29Z</time>
      </trkpt>
      <trkpt lat="50.0214" lon="4.23076">
        <ele>289.8</ele>
        <time>2024-04-29T05:13:30Z</time>
      </trkpt>
      <trkpt lat="50.02147" lon="4.23073">
        <ele>289.8</ele>
        <time>2024-04-29T05:13:31Z</time>
      </trkpt>
      <trkpt lat="50.02154" lon="4.23071">
        <ele>289.8</ele>
        <time>2024-04-29T05:13:32Z</time>
      </trkpt>
      <trkpt lat="50.0216" lon="4.23068">
        <ele>289.8</ele>
        <time>2024-04-29T05:13:33Z</time>
      </trkpt>
      <trkpt lat="50.02166" lon="4.23066">
        <ele>289.8</ele>
        <time>2024-04-29T05:13:34Z</time>
      </trkpt>
      <trkpt lat="50.02173" lon="4.23063">
        <ele>289.8</ele>
        <time>2024-04-29T05:13:35Z</time>
      </trkpt>
      <trkpt lat="50.0218" lon="4.2306">
        <ele>289.8</ele>
        <time>2024-04-29T05:13:36Z</time>
      </trkpt>
      <trkpt lat="50.02186" lon="4.23058">
        <ele>289.8</ele>
        <time>2024-04-29T05:13:37Z</time>
      </trkpt>
      <trkpt lat="50.02192" lon="4.23054">
        <ele>289.8</ele>
        <time>2024-04-29T05:13:38Z</time>
      </trkpt>
      <trkpt lat="50.02198" lon="4.23051">
        <ele>289.6</ele>
        <time>2024-04-29T05:13:39Z</time>
      </trkpt>
      <trkpt lat="50.02204" lon="4.23048">
        <ele>289.8</ele>
        <time>2024-04-29T05:13:40Z</time>
      </trkpt>
      <trkpt lat="50.0221" lon="4.23045">
        <ele>289.8</ele>
        <time>2024-04-29T05:13:41Z</time>
      </trkpt>
      <trkpt lat="50.02217" lon="4.23042">
        <ele>289.8</ele>
        <time>2024-04-29T05:13:42Z</time>
      </trkpt>
      <trkpt lat="50.02223" lon="4.23039">
        <ele>289.8</ele>
        <time>2024-04-29T05:13:43Z</time>
      </trkpt>
      <trkpt lat="50.02229" lon="4.23036">
        <ele>289.6</ele>
        <time>2024-04-29T05:13:44Z</time>
      </trkpt>
      <trkpt lat="50.02235" lon="4.23033">
        <ele>289.8</ele>
        <time>2024-04-29T05:13:45Z</time>
      </trkpt>
      <trkpt lat="50.02241" lon="4.23031">
        <ele>289.6</ele>
        <time>2024-04-29T05:13:46Z</time>
      </trkpt>
      <trkpt lat="50.02247" lon="4.23029">
        <ele>289.6</ele>
        <time>2024-04-29T05:13:47Z</time>
      </trkpt>
      <trkpt lat="50.02253" lon="4.23026">
        <ele>289.6</ele>
        <time>2024-04-29T05:13:48Z</time>
      </trkpt>
      <trkpt lat="50.02259" lon="4.23024">
        <ele>289.6</ele>
        <time>2024-04-29T05:13:49Z</time>
      </trkpt>
      <trkpt lat="50.02265" lon="4.23022">
        <ele>289.4</ele>
        <time>2024-04-29T05:13:50Z</time>
      </trkpt>
      <trkpt lat="50.02271" lon="4.23019">
        <ele>289.6</ele>
        <time>2024-04-29T05:13:51Z</time>
      </trkpt>
      <trkpt lat="50.02277" lon="4.23016">
        <ele>289.6</ele>
        <time>2024-04-29T05:13:52Z</time>
      </trkpt>
      <trkpt lat="50.02283" lon="4.23014">
        <ele>289.6</ele>
        <time>2024-04-29T05:13:53Z</time>
      </trkpt>
      <trkpt lat="50.02289" lon="4.23011">
        <ele>289.6</ele>
        <time>2024-04-29T05:13:54Z</time>
      </trkpt>
      <trkpt lat="50.02295" lon="4.23008">
        <ele>289.6</ele>
        <time>2024-04-29T05:13:55Z</time>
      </trkpt>
      <trkpt lat="50.02302" lon="4.23005">
        <ele>289.4</ele>
        <time>2024-04-29T05:13:56Z</time>
      </trkpt>
      <trkpt lat="50.02309" lon="4.23002">
        <ele>289.6</ele>
        <time>2024-04-29T05:13:57Z</time>
      </trkpt>
      <trkpt lat="50.02315" lon="4.22999">
        <ele>289.4</ele>
        <time>2024-04-29T05:13:58Z</time>
      </trkpt>
      <trkpt lat="50.02321" lon="4.22997">
        <ele>289.4</ele>
        <time>2024-04-29T05:13:59Z</time>
      </trkpt>
      <trkpt lat="50.02327" lon="4.22995">
        <ele>289.2</ele>
        <time>2024-04-29T05:14:00Z</time>
      </trkpt>
      <trkpt lat="50.02333" lon="4.22993">
        <ele>289.2</ele>
        <time>2024-04-29T05:14:01Z</time>
      </trkpt>
      <trkpt lat="50.0234" lon="4.2299">
        <ele>289.2</ele>
        <time>2024-04-29T05:14:02Z</time>
      </trkpt>
      <trkpt lat="50.02346" lon="4.22987">
        <ele>289.2</ele>
        <time>2024-04-29T05:14:03Z</time>
      </trkpt>
      <trkpt lat="50.02353" lon="4.22984">
        <ele>289.2</ele>
        <time>2024-04-29T05:14:04Z</time>
      </trkpt>
      <trkpt lat="50.02359" lon="4.22982">
        <ele>289</ele>
        <time>2024-04-29T05:14:05Z</time>
      </trkpt>
      <trkpt lat="50.02366" lon="4.22979">
        <ele>289</ele>
        <time>2024-04-29T05:14:06Z</time>
      </trkpt>
      <trkpt lat="50.02374" lon="4.22977">
        <ele>289</ele>
        <time>2024-04-29T05:14:07Z</time>
      </trkpt>
      <trkpt lat="50.02381" lon="4.22973">
        <ele>289.2</ele>
        <time>2024-04-29T05:14:08Z</time>
      </trkpt>
      <trkpt lat="50.02388" lon="4.2297">
        <ele>288.6</ele>
        <time>2024-04-29T05:14:09Z</time>
      </trkpt>
      <trkpt lat="50.02395" lon="4.22967">
        <ele>287.8</ele>
        <time>2024-04-29T05:14:10Z</time>
      </trkpt>
      <trkpt lat="50.02402" lon="4.22964">
        <ele>287.6</ele>
        <time>2024-04-29T05:14:11Z</time>
      </trkpt>
      <trkpt lat="50.02408" lon="4.22961">
        <ele>287.2</ele>
        <time>2024-04-29T05:14:12Z</time>
      </trkpt>
      <trkpt lat="50.02416" lon="4.22959">
        <ele>287.2</ele>
        <time>2024-04-29T05:14:13Z</time>
      </trkpt>
      <trkpt lat="50.02423" lon="4.22955">
        <ele>287.2</ele>
        <time>2024-04-29T05:14:14Z</time>
      </trkpt>
      <trkpt lat="50.02432" lon="4.22953">
        <ele>287</ele>
        <time>2024-04-29T05:14:15Z</time>
      </trkpt>
      <trkpt lat="50.0244" lon="4.2295">
        <ele>286.8</ele>
        <time>2024-04-29T05:14:16Z</time>
      </trkpt>
      <trkpt lat="50.02447" lon="4.22947">
        <ele>286.8</ele>
        <time>2024-04-29T05:14:17Z</time>
      </trkpt>
      <trkpt lat="50.02457" lon="4.22945">
        <ele>286.8</ele>
        <time>2024-04-29T05:14:18Z</time>
      </trkpt>
      <trkpt lat="50.02464" lon="4.22942">
        <ele>286.8</ele>
        <time>2024-04-29T05:14:19Z</time>
      </trkpt>
      <trkpt lat="50.02473" lon="4.22939">
        <ele>286.8</ele>
        <time>2024-04-29T05:14:20Z</time>
      </trkpt>
      <trkpt lat="50.02481" lon="4.22936">
        <ele>286.8</ele>
        <time>2024-04-29T05:14:21Z</time>
      </trkpt>
      <trkpt lat="50.02488" lon="4.22932">
        <ele>286.4</ele>
        <time>2024-04-29T05:14:22Z</time>
      </trkpt>
      <trkpt lat="50.02497" lon="4.22929">
        <ele>286.2</ele>
        <time>2024-04-29T05:14:23Z</time>
      </trkpt>
      <trkpt lat="50.02506" lon="4.22926">
        <ele>286.2</ele>
        <time>2024-04-29T05:14:24Z</time>
      </trkpt>
      <trkpt lat="50.02514" lon="4.22922">
        <ele>285.6</ele>
        <time>2024-04-29T05:14:25Z</time>
      </trkpt>
      <trkpt lat="50.02523" lon="4.22919">
        <ele>285.6</ele>
        <time>2024-04-29T05:14:26Z</time>
      </trkpt>
      <trkpt lat="50.02532" lon="4.22916">
        <ele>285</ele>
        <time>2024-04-29T05:14:27Z</time>
      </trkpt>
      <trkpt lat="50.0254" lon="4.22912">
        <ele>284.8</ele>
        <time>2024-04-29T05:14:28Z</time>
      </trkpt>
      <trkpt lat="50.02548" lon="4.22909">
        <ele>284.6</ele>
        <time>2024-04-29T05:14:29Z</time>
      </trkpt>
      <trkpt lat="50.02555" lon="4.22906">
        <ele>284.6</ele>
        <time>2024-04-29T05:14:30Z</time>
      </trkpt>
      <trkpt lat="50.02564" lon="4.22903">
        <ele>284.4</ele>
        <time>2024-04-29T05:14:31Z</time>
      </trkpt>
      <trkpt lat="50.02572" lon="4.22901">
        <ele>284.2</ele>
        <time>2024-04-29T05:14:32Z</time>
      </trkpt>
      <trkpt lat="50.0258" lon="4.22898">
        <ele>284.2</ele>
        <time>2024-04-29T05:14:33Z</time>
      </trkpt>
      <trkpt lat="50.02588" lon="4.22895">
        <ele>284.2</ele>
        <time>2024-04-29T05:14:34Z</time>
      </trkpt>
      <trkpt lat="50.02597" lon="4.22892">
        <ele>284</ele>
        <time>2024-04-29T05:14:35Z</time>
      </trkpt>
      <trkpt lat="50.02605" lon="4.22889">
        <ele>283.8</ele>
        <time>2024-04-29T05:14:36Z</time>
      </trkpt>
      <trkpt lat="50.02612" lon="4.22886">
        <ele>283.8</ele>
        <time>2024-04-29T05:14:37Z</time>
      </trkpt>
      <trkpt lat="50.0262" lon="4.22883">
        <ele>283.6</ele>
        <time>2024-04-29T05:14:38Z</time>
      </trkpt>
      <trkpt lat="50.02629" lon="4.22881">
        <ele>283.6</ele>
        <time>2024-04-29T05:14:39Z</time>
      </trkpt>
      <trkpt lat="50.02638" lon="4.22877">
        <ele>283.6</ele>
        <time>2024-04-29T05:14:40Z</time>
      </trkpt>
      <trkpt lat="50.02647" lon="4.22875">
        <ele>283.4</ele>
        <time>2024-04-29T05:14:41Z</time>
      </trkpt>
      <trkpt lat="50.02656" lon="4.22872">
        <ele>283.2</ele>
        <time>2024-04-29T05:14:42Z</time>
      </trkpt>
      <trkpt lat="50.02665" lon="4.22868">
        <ele>282.6</ele>
        <time>2024-04-29T05:14:43Z</time>
      </trkpt>
      <trkpt lat="50.02674" lon="4.22864">
        <ele>282.2</ele>
        <time>2024-04-29T05:14:44Z</time>
      </trkpt>
      <trkpt lat="50.02683" lon="4.2286">
        <ele>281.8</ele>
        <time>2024-04-29T05:14:45Z</time>
      </trkpt>
      <trkpt lat="50.02692" lon="4.22856">
        <ele>281.4</ele>
        <time>2024-04-29T05:14:46Z</time>
      </trkpt>
      <trkpt lat="50.02701" lon="4.22852">
        <ele>281.4</ele>
        <time>2024-04-29T05:14:47Z</time>
      </trkpt>
      <trkpt lat="50.0271" lon="4.22849">
        <ele>281.2</ele>
        <time>2024-04-29T05:14:48Z</time>
      </trkpt>
      <trkpt lat="50.0272" lon="4.22845">
        <ele>280.8</ele>
        <time>2024-04-29T05:14:49Z</time>
      </trkpt>
      <trkpt lat="50.02729" lon="4.22841">
        <ele>280.4</ele>
        <time>2024-04-29T05:14:50Z</time>
      </trkpt>
      <trkpt lat="50.02738" lon="4.22837">
        <ele>280</ele>
        <time>2024-04-29T05:14:51Z</time>
      </trkpt>
      <trkpt lat="50.02747" lon="4.22834">
        <ele>279.8</ele>
        <time>2024-04-29T05:14:52Z</time>
      </trkpt>
      <trkpt lat="50.02756" lon="4.22829">
        <ele>279.4</ele>
        <time>2024-04-29T05:14:53Z</time>
      </trkpt>
      <trkpt lat="50.02765" lon="4.22826">
        <ele>279</ele>
        <time>2024-04-29T05:14:54Z</time>
      </trkpt>
      <trkpt lat="50.02775" lon="4.22822">
        <ele>278.4</ele>
        <time>2024-04-29T05:14:55Z</time>
      </trkpt>
      <trkpt lat="50.02784" lon="4.22819">
        <ele>278.2</ele>
        <time>2024-04-29T05:14:56Z</time>
      </trkpt>
      <trkpt lat="50.02793" lon="4.22815">
        <ele>277.8</ele>
        <time>2024-04-29T05:14:57Z</time>
      </trkpt>
      <trkpt lat="50.02801" lon="4.22811">
        <ele>277.4</ele>
        <time>2024-04-29T05:14:58Z</time>
      </trkpt>
      <trkpt lat="50.02811" lon="4.22807">
        <ele>276.8</ele>
        <time>2024-04-29T05:14:59Z</time>
      </trkpt>
      <trkpt lat="50.02821" lon="4.22804">
        <ele>276.6</ele>
        <time>2024-04-29T05:15:00Z</time>
      </trkpt>
      <trkpt lat="50.0283" lon="4.228">
        <ele>276</ele>
        <time>2024-04-29T05:15:01Z</time>
      </trkpt>
      <trkpt lat="50.02839" lon="4.22797">
        <ele>275.6</ele>
        <time>2024-04-29T05:15:02Z</time>
      </trkpt>
      <trkpt lat="50.02848" lon="4.22794">
        <ele>275</ele>
        <time>2024-04-29T05:15:03Z</time>
      </trkpt>
      <trkpt lat="50.02856" lon="4.2279">
        <ele>274.6</ele>
        <time>2024-04-29T05:15:04Z</time>
      </trkpt>
      <trkpt lat="50.02863" lon="4.22787">
        <ele>274.6</ele>
        <time>2024-04-29T05:15:05Z</time>
      </trkpt>
      <trkpt lat="50.02871" lon="4.22783">
        <ele>274.6</ele>
        <time>2024-04-29T05:15:06Z</time>
      </trkpt>
      <trkpt lat="50.02878" lon="4.2278">
        <ele>274.4</ele>
        <time>2024-04-29T05:15:07Z</time>
      </trkpt>
      <trkpt lat="50.02887" lon="4.22777">
        <ele>274.6</ele>
        <time>2024-04-29T05:15:08Z</time>
      </trkpt>
      <trkpt lat="50.02894" lon="4.22773">
        <ele>274.6</ele>
        <time>2024-04-29T05:15:09Z</time>
      </trkpt>
      <trkpt lat="50.02902" lon="4.2277">
        <ele>274.4</ele>
        <time>2024-04-29T05:15:10Z</time>
      </trkpt>
      <trkpt lat="50.02909" lon="4.22767">
        <ele>274.4</ele>
        <time>2024-04-29T05:15:11Z</time>
      </trkpt>
      <trkpt lat="50.02916" lon="4.22765">
        <ele>274.4</ele>
        <time>2024-04-29T05:15:12Z</time>
      </trkpt>
      <trkpt lat="50.0292" lon="4.22762">
        <ele>274.4</ele>
        <time>2024-04-29T05:15:13Z</time>
      </trkpt>
      <trkpt lat="50.02927" lon="4.22758">
        <ele>274.6</ele>
        <time>2024-04-29T05:15:14Z</time>
      </trkpt>
      <trkpt lat="50.02933" lon="4.22755">
        <ele>274.8</ele>
        <time>2024-04-29T05:15:15Z</time>
      </trkpt>
      <trkpt lat="50.0294" lon="4.22753">
        <ele>275</ele>
        <time>2024-04-29T05:15:16Z</time>
      </trkpt>
      <trkpt lat="50.02947" lon="4.22751">
        <ele>275.4</ele>
        <time>2024-04-29T05:15:17Z</time>
      </trkpt>
      <trkpt lat="50.02953" lon="4.22748">
        <ele>275.8</ele>
        <time>2024-04-29T05:15:18Z</time>
      </trkpt>
      <trkpt lat="50.02958" lon="4.22746">
        <ele>276.6</ele>
        <time>2024-04-29T05:15:19Z</time>
      </trkpt>
      <trkpt lat="50.02966" lon="4.22744">
        <ele>277.2</ele>
        <time>2024-04-29T05:15:20Z</time>
      </trkpt>
      <trkpt lat="50.02974" lon="4.22742">
        <ele>277.6</ele>
        <time>2024-04-29T05:15:21Z</time>
      </trkpt>
      <trkpt lat="50.0298" lon="4.22739">
        <ele>277.8</ele>
        <time>2024-04-29T05:15:22Z</time>
      </trkpt>
      <trkpt lat="50.02986" lon="4.22737">
        <ele>278.2</ele>
        <time>2024-04-29T05:15:23Z</time>
      </trkpt>
      <trkpt lat="50.02993" lon="4.22735">
        <ele>278.2</ele>
        <time>2024-04-29T05:15:24Z</time>
      </trkpt>
      <trkpt lat="50.03" lon="4.22733">
        <ele>278.4</ele>
        <time>2024-04-29T05:15:25Z</time>
      </trkpt>
      <trkpt lat="50.03007" lon="4.22731">
        <ele>278.6</ele>
        <time>2024-04-29T05:15:26Z</time>
      </trkpt>
      <trkpt lat="50.03013" lon="4.22728">
        <ele>278.6</ele>
        <time>2024-04-29T05:15:27Z</time>
      </trkpt>
      <trkpt lat="50.03019" lon="4.22726">
        <ele>278.6</ele>
        <time>2024-04-29T05:15:28Z</time>
      </trkpt>
      <trkpt lat="50.03026" lon="4.22724">
        <ele>279</ele>
        <time>2024-04-29T05:15:29Z</time>
      </trkpt>
      <trkpt lat="50.03033" lon="4.22722">
        <ele>279</ele>
        <time>2024-04-29T05:15:30Z</time>
      </trkpt>
      <trkpt lat="50.03041" lon="4.2272">
        <ele>279</ele>
        <time>2024-04-29T05:15:31Z</time>
      </trkpt>
      <trkpt lat="50.03048" lon="4.22718">
        <ele>279.2</ele>
        <time>2024-04-29T05:15:32Z</time>
      </trkpt>
      <trkpt lat="50.03055" lon="4.22715">
        <ele>279.6</ele>
        <time>2024-04-29T05:15:33Z</time>
      </trkpt>
      <trkpt lat="50.03061" lon="4.22712">
        <ele>279.8</ele>
        <time>2024-04-29T05:15:34Z</time>
      </trkpt>
      <trkpt lat="50.03068" lon="4.2271">
        <ele>280.2</ele>
        <time>2024-04-29T05:15:35Z</time>
      </trkpt>
      <trkpt lat="50.03075" lon="4.22707">
        <ele>280.2</ele>
        <time>2024-04-29T05:15:36Z</time>
      </trkpt>
      <trkpt lat="50.03082" lon="4.22704">
        <ele>280.2</ele>
        <time>2024-04-29T05:15:37Z</time>
      </trkpt>
      <trkpt lat="50.03089" lon="4.22702">
        <ele>280.2</ele>
        <time>2024-04-29T05:15:38Z</time>
      </trkpt>
      <trkpt lat="50.03096" lon="4.22699">
        <ele>280.2</ele>
        <time>2024-04-29T05:15:39Z</time>
      </trkpt>
      <trkpt lat="50.03103" lon="4.22697">
        <ele>280.4</ele>
        <time>2024-04-29T05:15:40Z</time>
      </trkpt>
      <trkpt lat="50.0311" lon="4.22695">
        <ele>280.2</ele>
        <time>2024-04-29T05:15:41Z</time>
      </trkpt>
      <trkpt lat="50.03117" lon="4.22691">
        <ele>280.2</ele>
        <time>2024-04-29T05:15:42Z</time>
      </trkpt>
      <trkpt lat="50.03125" lon="4.22688">
        <ele>280.2</ele>
        <time>2024-04-29T05:15:43Z</time>
      </trkpt>
      <trkpt lat="50.03134" lon="4.22684">
        <ele>280.2</ele>
        <time>2024-04-29T05:15:44Z</time>
      </trkpt>
      <trkpt lat="50.03142" lon="4.22679">
        <ele>279.8</ele>
        <time>2024-04-29T05:15:45Z</time>
      </trkpt>
      <trkpt lat="50.03151" lon="4.22674">
        <ele>279.6</ele>
        <time>2024-04-29T05:15:46Z</time>
      </trkpt>
      <trkpt lat="50.03158" lon="4.22668">
        <ele>279.4</ele>
        <time>2024-04-29T05:15:47Z</time>
      </trkpt>
      <trkpt lat="50.03166" lon="4.22661">
        <ele>279.4</ele>
        <time>2024-04-29T05:15:48Z</time>
      </trkpt>
      <trkpt lat="50.03173" lon="4.22654">
        <ele>279.4</ele>
        <time>2024-04-29T05:15:49Z</time>
      </trkpt>
      <trkpt lat="50.0318" lon="4.22647">
        <ele>279.2</ele>
        <time>2024-04-29T05:15:50Z</time>
      </trkpt>
      <trkpt lat="50.03188" lon="4.22639">
        <ele>279</ele>
        <time>2024-04-29T05:15:51Z</time>
      </trkpt>
      <trkpt lat="50.03195" lon="4.22631">
        <ele>279</ele>
        <time>2024-04-29T05:15:52Z</time>
      </trkpt>
      <trkpt lat="50.03201" lon="4.22623">
        <ele>279</ele>
        <time>2024-04-29T05:15:53Z</time>
      </trkpt>
      <trkpt lat="50.03208" lon="4.22615">
        <ele>278.8</ele>
        <time>2024-04-29T05:15:54Z</time>
      </trkpt>
      <trkpt lat="50.03215" lon="4.22607">
        <ele>278.6</ele>
        <time>2024-04-29T05:15:55Z</time>
      </trkpt>
      <trkpt lat="50.03222" lon="4.22599">
        <ele>278.2</ele>
        <time>2024-04-29T05:15:56Z</time>
      </trkpt>
      <trkpt lat="50.03229" lon="4.22591">
        <ele>277.6</ele>
        <time>2024-04-29T05:15:57Z</time>
      </trkpt>
      <trkpt lat="50.03236" lon="4.22583">
        <ele>277.4</ele>
        <time>2024-04-29T05:15:58Z</time>
      </trkpt>
      <trkpt lat="50.03243" lon="4.22574">
        <ele>277.2</ele>
        <time>2024-04-29T05:15:59Z</time>
      </trkpt>
      <trkpt lat="50.0325" lon="4.22566">
        <ele>277.2</ele>
        <time>2024-04-29T05:16:00Z</time>
      </trkpt>
      <trkpt lat="50.03257" lon="4.22558">
        <ele>277.2</ele>
        <time>2024-04-29T05:16:01Z</time>
      </trkpt>
      <trkpt lat="50.03265" lon="4.22549">
        <ele>277</ele>
        <time>2024-04-29T05:16:02Z</time>
      </trkpt>
      <trkpt lat="50.03272" lon="4.2254">
        <ele>276.8</ele>
        <time>2024-04-29T05:16:03Z</time>
      </trkpt>
      <trkpt lat="50.0328" lon="4.22531">
        <ele>276.8</ele>
        <time>2024-04-29T05:16:04Z</time>
      </trkpt>
      <trkpt lat="50.03287" lon="4.22522">
        <ele>276.6</ele>
        <time>2024-04-29T05:16:05Z</time>
      </trkpt>
      <trkpt lat="50.03295" lon="4.22513">
        <ele>276.6</ele>
        <time>2024-04-29T05:16:06Z</time>
      </trkpt>
      <trkpt lat="50.03304" lon="4.22504">
        <ele>276.4</ele>
        <time>2024-04-29T05:16:07Z</time>
      </trkpt>
      <trkpt lat="50.03313" lon="4.22496">
        <ele>276.2</ele>
        <time>2024-04-29T05:16:08Z</time>
      </trkpt>
      <trkpt lat="50.03323" lon="4.2249">
        <ele>275.8</ele>
        <time>2024-04-29T05:16:09Z</time>
      </trkpt>
      <trkpt lat="50.03334" lon="4.22487">
        <ele>275</ele>
        <time>2024-04-29T05:16:10Z</time>
      </trkpt>
      <trkpt lat="50.03344" lon="4.22486">
        <ele>274.6</ele>
        <time>2024-04-29T05:16:11Z</time>
      </trkpt>
      <trkpt lat="50.03355" lon="4.22486">
        <ele>274.2</ele>
        <time>2024-04-29T05:16:12Z</time>
      </trkpt>
      <trkpt lat="50.03366" lon="4.22486">
        <ele>274</ele>
        <time>2024-04-29T05:16:13Z</time>
      </trkpt>
      <trkpt lat="50.03377" lon="4.22486">
        <ele>273.4</ele>
        <time>2024-04-29T05:16:14Z</time>
      </trkpt>
      <trkpt lat="50.03388" lon="4.22486">
        <ele>272.8</ele>
        <time>2024-04-29T05:16:15Z</time>
      </trkpt>
      <trkpt lat="50.03399" lon="4.22486">
        <ele>272.8</ele>
        <time>2024-04-29T05:16:16Z</time>
      </trkpt>
      <trkpt lat="50.0341" lon="4.22487">
        <ele>271.8</ele>
        <time>2024-04-29T05:16:17Z</time>
      </trkpt>
      <trkpt lat="50.0342" lon="4.22487">
        <ele>271</ele>
        <time>2024-04-29T05:16:18Z</time>
      </trkpt>
      <trkpt lat="50.03431" lon="4.22486">
        <ele>270.4</ele>
        <time>2024-04-29T05:16:19Z</time>
      </trkpt>
      <trkpt lat="50.03442" lon="4.22486">
        <ele>269.6</ele>
        <time>2024-04-29T05:16:20Z</time>
      </trkpt>
      <trkpt lat="50.03452" lon="4.22485">
        <ele>268.4</ele>
        <time>2024-04-29T05:16:21Z</time>
      </trkpt>
      <trkpt lat="50.03464" lon="4.22484">
        <ele>267.4</ele>
        <time>2024-04-29T05:16:22Z</time>
      </trkpt>
      <trkpt lat="50.03475" lon="4.22481">
        <ele>266.6</ele>
        <time>2024-04-29T05:16:23Z</time>
      </trkpt>
      <trkpt lat="50.03486" lon="4.22477">
        <ele>266.4</ele>
        <time>2024-04-29T05:16:24Z</time>
      </trkpt>
      <trkpt lat="50.03496" lon="4.2247">
        <ele>265.8</ele>
        <time>2024-04-29T05:16:25Z</time>
      </trkpt>
      <trkpt lat="50.03506" lon="4.22461">
        <ele>265.6</ele>
        <time>2024-04-29T05:16:26Z</time>
      </trkpt>
      <trkpt lat="50.03516" lon="4.2245">
        <ele>265</ele>
        <time>2024-04-29T05:16:27Z</time>
      </trkpt>
      <trkpt lat="50.03524" lon="4.22437">
        <ele>264.8</ele>
        <time>2024-04-29T05:16:28Z</time>
      </trkpt>
      <trkpt lat="50.03532" lon="4.22424">
        <ele>264.6</ele>
        <time>2024-04-29T05:16:29Z</time>
      </trkpt>
      <trkpt lat="50.03539" lon="4.22412">
        <ele>264.2</ele>
        <time>2024-04-29T05:16:30Z</time>
      </trkpt>
      <trkpt lat="50.03546" lon="4.22402">
        <ele>263.6</ele>
        <time>2024-04-29T05:16:31Z</time>
      </trkpt>
      <trkpt lat="50.03554" lon="4.22393">
        <ele>263</ele>
        <time>2024-04-29T05:16:32Z</time>
      </trkpt>
      <trkpt lat="50.03562" lon="4.22388">
        <ele>262</ele>
        <time>2024-04-29T05:16:33Z</time>
      </trkpt>
      <trkpt lat="50.03572" lon="4.22387">
        <ele>261.4</ele>
        <time>2024-04-29T05:16:34Z</time>
      </trkpt>
      <trkpt lat="50.03581" lon="4.2239">
        <ele>260</ele>
        <time>2024-04-29T05:16:35Z</time>
      </trkpt>
      <trkpt lat="50.03589" lon="4.22397">
        <ele>258.4</ele>
        <time>2024-04-29T05:16:36Z</time>
      </trkpt>
      <trkpt lat="50.03597" lon="4.22405">
        <ele>258.4</ele>
        <time>2024-04-29T05:16:37Z</time>
      </trkpt>
      <trkpt lat="50.03605" lon="4.22413">
        <ele>257.4</ele>
        <time>2024-04-29T05:16:38Z</time>
      </trkpt>
      <trkpt lat="50.03613" lon="4.22419">
        <ele>257</ele>
        <time>2024-04-29T05:16:39Z</time>
      </trkpt>
      <trkpt lat="50.03622" lon="4.22424">
        <ele>256.8</ele>
        <time>2024-04-29T05:16:40Z</time>
      </trkpt>
      <trkpt lat="50.03632" lon="4.22425">
        <ele>256.6</ele>
        <time>2024-04-29T05:16:41Z</time>
      </trkpt>
      <trkpt lat="50.0364" lon="4.22422">
        <ele>256.2</ele>
        <time>2024-04-29T05:16:42Z</time>
      </trkpt>
      <trkpt lat="50.03648" lon="4.22416">
        <ele>255.6</ele>
        <time>2024-04-29T05:16:43Z</time>
      </trkpt>
      <trkpt lat="50.03655" lon="4.22407">
        <ele>255.2</ele>
        <time>2024-04-29T05:16:44Z</time>
      </trkpt>
      <trkpt lat="50.03661" lon="4.22397">
        <ele>254.8</ele>
        <time>2024-04-29T05:16:45Z</time>
      </trkpt>
      <trkpt lat="50.03668" lon="4.22388">
        <ele>254.8</ele>
        <time>2024-04-29T05:16:46Z</time>
      </trkpt>
      <trkpt lat="50.03675" lon="4.22379">
        <ele>254.6</ele>
        <time>2024-04-29T05:16:47Z</time>
      </trkpt>
      <trkpt lat="50.03682" lon="4.2237">
        <ele>254.6</ele>
        <time>2024-04-29T05:16:48Z</time>
      </trkpt>
      <trkpt lat="50.0369" lon="4.22361">
        <ele>254.4</ele>
        <time>2024-04-29T05:16:49Z</time>
      </trkpt>
      <trkpt lat="50.03697" lon="4.22354">
        <ele>254.4</ele>
        <time>2024-04-29T05:16:50Z</time>
      </trkpt>
      <trkpt lat="50.03705" lon="4.22347">
        <ele>254.2</ele>
        <time>2024-04-29T05:16:51Z</time>
      </trkpt>
      <trkpt lat="50.03713" lon="4.2234">
        <ele>254</ele>
        <time>2024-04-29T05:16:52Z</time>
      </trkpt>
      <trkpt lat="50.03722" lon="4.22334">
        <ele>253.8</ele>
        <time>2024-04-29T05:16:53Z</time>
      </trkpt>
      <trkpt lat="50.0373" lon="4.22328">
        <ele>253.4</ele>
        <time>2024-04-29T05:16:54Z</time>
      </trkpt>
      <trkpt lat="50.03739" lon="4.22323">
        <ele>253</ele>
        <time>2024-04-29T05:16:55Z</time>
      </trkpt>
      <trkpt lat="50.03747" lon="4.22319">
        <ele>252.2</ele>
        <time>2024-04-29T05:16:56Z</time>
      </trkpt>
      <trkpt lat="50.03755" lon="4.22314">
        <ele>251.8</ele>
        <time>2024-04-29T05:16:57Z</time>
      </trkpt>
      <trkpt lat="50.03763" lon="4.22309">
        <ele>251.8</ele>
        <time>2024-04-29T05:16:58Z</time>
      </trkpt>
      <trkpt lat="50.0377" lon="4.22302">
        <ele>251.6</ele>
        <time>2024-04-29T05:16:59Z</time>
      </trkpt>
      <trkpt lat="50.03776" lon="4.22295">
        <ele>251.4</ele>
        <time>2024-04-29T05:17:00Z</time>
      </trkpt>
      <trkpt lat="50.03782" lon="4.22286">
        <ele>251.4</ele>
        <time>2024-04-29T05:17:01Z</time>
      </trkpt>
      <trkpt lat="50.03786" lon="4.22277">
        <ele>251.4</ele>
        <time>2024-04-29T05:17:02Z</time>
      </trkpt>
      <trkpt lat="50.03789" lon="4.22267">
        <ele>251.2</ele>
        <time>2024-04-29T05:17:03Z</time>
      </trkpt>
      <trkpt lat="50.03791" lon="4.22257">
        <ele>251.2</ele>
        <time>2024-04-29T05:17:04Z</time>
      </trkpt>
      <trkpt lat="50.03792" lon="4.22247">
        <ele>251.2</ele>
        <time>2024-04-29T05:17:05Z</time>
      </trkpt>
      <trkpt lat="50.03793" lon="4.22237">
        <ele>251.4</ele>
        <time>2024-04-29T05:17:06Z</time>
      </trkpt>
      <trkpt lat="50.03794" lon="4.22228">
        <ele>251.4</ele>
        <time>2024-04-29T05:17:07Z</time>
      </trkpt>
      <trkpt lat="50.03795" lon="4.22219">
        <ele>251.6</ele>
        <time>2024-04-29T05:17:08Z</time>
      </trkpt>
      <trkpt lat="50.03796" lon="4.2221">
        <ele>252.4</ele>
        <time>2024-04-29T05:17:09Z</time>
      </trkpt>
      <trkpt lat="50.03797" lon="4.22202">
        <ele>252.6</ele>
        <time>2024-04-29T05:17:10Z</time>
      </trkpt>
      <trkpt lat="50.03799" lon="4.22194">
        <ele>253</ele>
        <time>2024-04-29T05:17:11Z</time>
      </trkpt>
      <trkpt lat="50.03801" lon="4.22186">
        <ele>253.8</ele>
        <time>2024-04-29T05:17:12Z</time>
      </trkpt>
      <trkpt lat="50.03803" lon="4.22178">
        <ele>254.2</ele>
        <time>2024-04-29T05:17:13Z</time>
      </trkpt>
      <trkpt lat="50.03805" lon="4.22171">
        <ele>254.4</ele>
        <time>2024-04-29T05:17:14Z</time>
      </trkpt>
      <trkpt lat="50.03808" lon="4.22163">
        <ele>255</ele>
        <time>2024-04-29T05:17:15Z</time>
      </trkpt>
      <trkpt lat="50.0381" lon="4.22156">
        <ele>256</ele>
        <time>2024-04-29T05:17:16Z</time>
      </trkpt>
      <trkpt lat="50.03812" lon="4.22149">
        <ele>256.4</ele>
        <time>2024-04-29T05:17:17Z</time>
      </trkpt>
      <trkpt lat="50.03814" lon="4.22141">
        <ele>256.8</ele>
        <time>2024-04-29T05:17:18Z</time>
      </trkpt>
      <trkpt lat="50.03816" lon="4.22133">
        <ele>257.4</ele>
        <time>2024-04-29T05:17:19Z</time>
      </trkpt>
      <trkpt lat="50.03817" lon="4.22126">
        <ele>257.4</ele>
        <time>2024-04-29T05:17:20Z</time>
      </trkpt>
      <trkpt lat="50.03819" lon="4.22118">
        <ele>258.2</ele>
        <time>2024-04-29T05:17:21Z</time>
      </trkpt>
      <trkpt lat="50.03821" lon="4.2211">
        <ele>258.4</ele>
        <time>2024-04-29T05:17:22Z</time>
      </trkpt>
      <trkpt lat="50.03823" lon="4.22102">
        <ele>258.8</ele>
        <time>2024-04-29T05:17:23Z</time>
      </trkpt>
      <trkpt lat="50.03824" lon="4.22094">
        <ele>259.2</ele>
        <time>2024-04-29T05:17:24Z</time>
      </trkpt>
      <trkpt lat="50.03826" lon="4.22086">
        <ele>259.6</ele>
        <time>2024-04-29T05:17:25Z</time>
      </trkpt>
      <trkpt lat="50.03827" lon="4.22078">
        <ele>260.2</ele>
        <time>2024-04-29T05:17:26Z</time>
      </trkpt>
      <trkpt lat="50.03828" lon="4.2207">
        <ele>260.4</ele>
        <time>2024-04-29T05:17:27Z</time>
      </trkpt>
      <trkpt lat="50.0383" lon="4.22062">
        <ele>260.8</ele>
        <time>2024-04-29T05:17:28Z</time>
      </trkpt>
      <trkpt lat="50.03832" lon="4.22054">
        <ele>261</ele>
        <time>2024-04-29T05:17:29Z</time>
      </trkpt>
      <trkpt lat="50.03833" lon="4.22046">
        <ele>261.6</ele>
        <time>2024-04-29T05:17:30Z</time>
      </trkpt>
      <trkpt lat="50.03834" lon="4.22037">
        <ele>262</ele>
        <time>2024-04-29T05:17:31Z</time>
      </trkpt>
      <trkpt lat="50.03836" lon="4.22029">
        <ele>262.2</ele>
        <time>2024-04-29T05:17:32Z</time>
      </trkpt>
      <trkpt lat="50.03837" lon="4.2202">
        <ele>262.8</ele>
        <time>2024-04-29T05:17:33Z</time>
      </trkpt>
      <trkpt lat="50.03839" lon="4.22012">
        <ele>262.8</ele>
        <time>2024-04-29T05:17:34Z</time>
      </trkpt>
      <trkpt lat="50.0384" lon="4.22003">
        <ele>263</ele>
        <time>2024-04-29T05:17:35Z</time>
      </trkpt>
      <trkpt lat="50.03842" lon="4.21995">
        <ele>263.4</ele>
        <time>2024-04-29T05:17:36Z</time>
      </trkpt>
      <trkpt lat="50.03843" lon="4.21987">
        <ele>263.6</ele>
        <time>2024-04-29T05:17:37Z</time>
      </trkpt>
      <trkpt lat="50.03845" lon="4.21979">
        <ele>264</ele>
        <time>2024-04-29T05:17:38Z</time>
      </trkpt>
      <trkpt lat="50.03846" lon="4.21971">
        <ele>264.2</ele>
        <time>2024-04-29T05:17:39Z</time>
      </trkpt>
      <trkpt lat="50.03848" lon="4.21962">
        <ele>264.4</ele>
        <time>2024-04-29T05:17:40Z</time>
      </trkpt>
      <trkpt lat="50.0385" lon="4.21954">
        <ele>264.6</ele>
        <time>2024-04-29T05:17:41Z</time>
      </trkpt>
      <trkpt lat="50.03851" lon="4.21946">
        <ele>264.6</ele>
        <time>2024-04-29T05:17:42Z</time>
      </trkpt>
      <trkpt lat="50.03852" lon="4.21938">
        <ele>265.2</ele>
        <time>2024-04-29T05:17:43Z</time>
      </trkpt>
      <trkpt lat="50.03854" lon="4.2193">
        <ele>265.6</ele>
        <time>2024-04-29T05:17:44Z</time>
      </trkpt>
      <trkpt lat="50.03855" lon="4.21921">
        <ele>265.8</ele>
        <time>2024-04-29T05:17:45Z</time>
      </trkpt>
      <trkpt lat="50.03856" lon="4.21913">
        <ele>265.8</ele>
        <time>2024-04-29T05:17:46Z</time>
      </trkpt>
      <trkpt lat="50.03858" lon="4.21905">
        <ele>266</ele>
        <time>2024-04-29T05:17:47Z</time>
      </trkpt>
      <trkpt lat="50.03859" lon="4.21896">
        <ele>266.4</ele>
        <time>2024-04-29T05:17:48Z</time>
      </trkpt>
      <trkpt lat="50.03861" lon="4.21888">
        <ele>266.6</ele>
        <time>2024-04-29T05:17:49Z</time>
      </trkpt>
      <trkpt lat="50.03862" lon="4.21879">
        <ele>267</ele>
        <time>2024-04-29T05:17:50Z</time>
      </trkpt>
      <trkpt lat="50.03864" lon="4.21871">
        <ele>267</ele>
        <time>2024-04-29T05:17:51Z</time>
      </trkpt>
      <trkpt lat="50.03865" lon="4.21862">
        <ele>267</ele>
        <time>2024-04-29T05:17:52Z</time>
      </trkpt>
      <trkpt lat="50.03867" lon="4.21853">
        <ele>267.4</ele>
        <time>2024-04-29T05:17:53Z</time>
      </trkpt>
      <trkpt lat="50.03868" lon="4.21844">
        <ele>267.6</ele>
        <time>2024-04-29T05:17:54Z</time>
      </trkpt>
      <trkpt lat="50.0387" lon="4.21834">
        <ele>267.6</ele>
        <time>2024-04-29T05:17:55Z</time>
      </trkpt>
      <trkpt lat="50.03871" lon="4.21825">
        <ele>267.8</ele>
        <time>2024-04-29T05:17:56Z</time>
      </trkpt>
      <trkpt lat="50.03873" lon="4.21815">
        <ele>268</ele>
        <time>2024-04-29T05:17:57Z</time>
      </trkpt>
      <trkpt lat="50.03876" lon="4.21805">
        <ele>268.4</ele>
        <time>2024-04-29T05:17:58Z</time>
      </trkpt>
      <trkpt lat="50.03878" lon="4.21795">
        <ele>268.2</ele>
        <time>2024-04-29T05:17:59Z</time>
      </trkpt>
      <trkpt lat="50.03881" lon="4.21786">
        <ele>268.2</ele>
        <time>2024-04-29T05:18:00Z</time>
      </trkpt>
      <trkpt lat="50.03884" lon="4.21777">
        <ele>268.2</ele>
        <time>2024-04-29T05:18:01Z</time>
      </trkpt>
      <trkpt lat="50.03888" lon="4.21767">
        <ele>268.4</ele>
        <time>2024-04-29T05:18:02Z</time>
      </trkpt>
      <trkpt lat="50.03892" lon="4.21758">
        <ele>268.2</ele>
        <time>2024-04-29T05:18:03Z</time>
      </trkpt>
      <trkpt lat="50.03896" lon="4.2175">
        <ele>268.2</ele>
        <time>2024-04-29T05:18:04Z</time>
      </trkpt>
      <trkpt lat="50.03901" lon="4.21741">
        <ele>268.4</ele>
        <time>2024-04-29T05:18:05Z</time>
      </trkpt>
      <trkpt lat="50.03906" lon="4.21733">
        <ele>268.4</ele>
        <time>2024-04-29T05:18:06Z</time>
      </trkpt>
      <trkpt lat="50.0391" lon="4.21725">
        <ele>268.2</ele>
        <time>2024-04-29T05:18:07Z</time>
      </trkpt>
      <trkpt lat="50.03915" lon="4.21717">
        <ele>268.4</ele>
        <time>2024-04-29T05:18:08Z</time>
      </trkpt>
      <trkpt lat="50.0392" lon="4.21708">
        <ele>268.2</ele>
        <time>2024-04-29T05:18:09Z</time>
      </trkpt>
      <trkpt lat="50.03925" lon="4.217">
        <ele>268.2</ele>
        <time>2024-04-29T05:18:10Z</time>
      </trkpt>
      <trkpt lat="50.0393" lon="4.21692">
        <ele>268</ele>
        <time>2024-04-29T05:18:11Z</time>
      </trkpt>
      <trkpt lat="50.03935" lon="4.21684">
        <ele>267.2</ele>
        <time>2024-04-29T05:18:12Z</time>
      </trkpt>
      <trkpt lat="50.03941" lon="4.21676">
        <ele>267</ele>
        <time>2024-04-29T05:18:13Z</time>
      </trkpt>
      <trkpt lat="50.03946" lon="4.21669">
        <ele>266.6</ele>
        <time>2024-04-29T05:18:14Z</time>
      </trkpt>
      <trkpt lat="50.03952" lon="4.21662">
        <ele>266.4</ele>
        <time>2024-04-29T05:18:15Z</time>
      </trkpt>
      <trkpt lat="50.03959" lon="4.21657">
        <ele>266.2</ele>
        <time>2024-04-29T05:18:16Z</time>
      </trkpt>
      <trkpt lat="50.03967" lon="4.21654">
        <ele>266.2</ele>
        <time>2024-04-29T05:18:17Z</time>
      </trkpt>
      <trkpt lat="50.03974" lon="4.21653">
        <ele>266</ele>
        <time>2024-04-29T05:18:18Z</time>
      </trkpt>
      <trkpt lat="50.03982" lon="4.21652">
        <ele>266</ele>
        <time>2024-04-29T05:18:19Z</time>
      </trkpt>
      <trkpt lat="50.03989" lon="4.21652">
        <ele>266</ele>
        <time>2024-04-29T05:18:20Z</time>
      </trkpt>
      <trkpt lat="50.03997" lon="4.21652">
        <ele>266</ele>
        <time>2024-04-29T05:18:21Z</time>
      </trkpt>
      <trkpt lat="50.04005" lon="4.21652">
        <ele>265.8</ele>
        <time>2024-04-29T05:18:22Z</time>
      </trkpt>
      <trkpt lat="50.04013" lon="4.2165">
        <ele>265.8</ele>
        <time>2024-04-29T05:18:23Z</time>
      </trkpt>
      <trkpt lat="50.0402" lon="4.21647">
        <ele>265.8</ele>
        <time>2024-04-29T05:18:24Z</time>
      </trkpt>
      <trkpt lat="50.04027" lon="4.21642">
        <ele>265.8</ele>
        <time>2024-04-29T05:18:25Z</time>
      </trkpt>
      <trkpt lat="50.04034" lon="4.21634">
        <ele>265.8</ele>
        <time>2024-04-29T05:18:26Z</time>
      </trkpt>
      <trkpt lat="50.0404" lon="4.21625">
        <ele>265.6</ele>
        <time>2024-04-29T05:18:27Z</time>
      </trkpt>
      <trkpt lat="50.04045" lon="4.21616">
        <ele>265.6</ele>
        <time>2024-04-29T05:18:28Z</time>
      </trkpt>
      <trkpt lat="50.04051" lon="4.21606">
        <ele>265.6</ele>
        <time>2024-04-29T05:18:29Z</time>
      </trkpt>
      <trkpt lat="50.04056" lon="4.21596">
        <ele>265.6</ele>
        <time>2024-04-29T05:18:30Z</time>
      </trkpt>
      <trkpt lat="50.04063" lon="4.21587">
        <ele>265.6</ele>
        <time>2024-04-29T05:18:31Z</time>
      </trkpt>
      <trkpt lat="50.04069" lon="4.21578">
        <ele>265.4</ele>
        <time>2024-04-29T05:18:32Z</time>
      </trkpt>
      <trkpt lat="50.04077" lon="4.2157">
        <ele>265.2</ele>
        <time>2024-04-29T05:18:33Z</time>
      </trkpt>
      <trkpt lat="50.04084" lon="4.21564">
        <ele>265.2</ele>
        <time>2024-04-29T05:18:34Z</time>
      </trkpt>
      <trkpt lat="50.04093" lon="4.21559">
        <ele>264.8</ele>
        <time>2024-04-29T05:18:35Z</time>
      </trkpt>
      <trkpt lat="50.04102" lon="4.21557">
        <ele>264.6</ele>
        <time>2024-04-29T05:18:36Z</time>
      </trkpt>
      <trkpt lat="50.04111" lon="4.21555">
        <ele>264.6</ele>
        <time>2024-04-29T05:18:37Z</time>
      </trkpt>
      <trkpt lat="50.04121" lon="4.21555">
        <ele>264.4</ele>
        <time>2024-04-29T05:18:38Z</time>
      </trkpt>
      <trkpt lat="50.04131" lon="4.21556">
        <ele>264</ele>
        <time>2024-04-29T05:18:39Z</time>
      </trkpt>
      <trkpt lat="50.04142" lon="4.21556">
        <ele>264</ele>
        <time>2024-04-29T05:18:40Z</time>
      </trkpt>
      <trkpt lat="50.04153" lon="4.21555">
        <ele>263.4</ele>
        <time>2024-04-29T05:18:41Z</time>
      </trkpt>
      <trkpt lat="50.04164" lon="4.21555">
        <ele>263</ele>
        <time>2024-04-29T05:18:42Z</time>
      </trkpt>
      <trkpt lat="50.04176" lon="4.21555">
        <ele>262.2</ele>
        <time>2024-04-29T05:18:43Z</time>
      </trkpt>
      <trkpt lat="50.04188" lon="4.21555">
        <ele>261.8</ele>
        <time>2024-04-29T05:18:44Z</time>
      </trkpt>
      <trkpt lat="50.04201" lon="4.21555">
        <ele>261.6</ele>
        <time>2024-04-29T05:18:45Z</time>
      </trkpt>
      <trkpt lat="50.04213" lon="4.21555">
        <ele>261</ele>
        <time>2024-04-29T05:18:46Z</time>
      </trkpt>
      <trkpt lat="50.04226" lon="4.21556">
        <ele>261</ele>
        <time>2024-04-29T05:18:47Z</time>
      </trkpt>
      <trkpt lat="50.04239" lon="4.21557">
        <ele>260.6</ele>
        <time>2024-04-29T05:18:48Z</time>
      </trkpt>
      <trkpt lat="50.04251" lon="4.21557">
        <ele>259.4</ele>
        <time>2024-04-29T05:18:49Z</time>
      </trkpt>
      <trkpt lat="50.04264" lon="4.21558">
        <ele>258.2</ele>
        <time>2024-04-29T05:18:50Z</time>
      </trkpt>
      <trkpt lat="50.04276" lon="4.21558">
        <ele>257.2</ele>
        <time>2024-04-29T05:18:51Z</time>
      </trkpt>
      <trkpt lat="50.04289" lon="4.21557">
        <ele>255.8</ele>
        <time>2024-04-29T05:18:52Z</time>
      </trkpt>
      <trkpt lat="50.04301" lon="4.21553">
        <ele>254.2</ele>
        <time>2024-04-29T05:18:53Z</time>
      </trkpt>
      <trkpt lat="50.04312" lon="4.21547">
        <ele>253</ele>
        <time>2024-04-29T05:18:54Z</time>
      </trkpt>
      <trkpt lat="50.04323" lon="4.21537">
        <ele>251</ele>
        <time>2024-04-29T05:18:55Z</time>
      </trkpt>
      <trkpt lat="50.04332" lon="4.21524">
        <ele>249.4</ele>
        <time>2024-04-29T05:18:56Z</time>
      </trkpt>
      <trkpt lat="50.04341" lon="4.2151">
        <ele>247.8</ele>
        <time>2024-04-29T05:18:57Z</time>
      </trkpt>
      <trkpt lat="50.0435" lon="4.21494">
        <ele>246.8</ele>
        <time>2024-04-29T05:18:58Z</time>
      </trkpt>
      <trkpt lat="50.0436" lon="4.21478">
        <ele>246</ele>
        <time>2024-04-29T05:18:59Z</time>
      </trkpt>
      <trkpt lat="50.04369" lon="4.21462">
        <ele>245.4</ele>
        <time>2024-04-29T05:19:00Z</time>
      </trkpt>
      <trkpt lat="50.04378" lon="4.21445">
        <ele>244.6</ele>
        <time>2024-04-29T05:19:01Z</time>
      </trkpt>
      <trkpt lat="50.04387" lon="4.21427">
        <ele>244</ele>
        <time>2024-04-29T05:19:02Z</time>
      </trkpt>
      <trkpt lat="50.04395" lon="4.21408">
        <ele>243.8</ele>
        <time>2024-04-29T05:19:03Z</time>
      </trkpt>
      <trkpt lat="50.04403" lon="4.21389">
        <ele>243.2</ele>
        <time>2024-04-29T05:19:04Z</time>
      </trkpt>
      <trkpt lat="50.0441" lon="4.2137">
        <ele>242.4</ele>
        <time>2024-04-29T05:19:05Z</time>
      </trkpt>
      <trkpt lat="50.04418" lon="4.2135">
        <ele>241</ele>
        <time>2024-04-29T05:19:06Z</time>
      </trkpt>
      <trkpt lat="50.04425" lon="4.21331">
        <ele>240</ele>
        <time>2024-04-29T05:19:07Z</time>
      </trkpt>
      <trkpt lat="50.04433" lon="4.21312">
        <ele>240</ele>
        <time>2024-04-29T05:19:08Z</time>
      </trkpt>
      <trkpt lat="50.0444" lon="4.21294">
        <ele>239</ele>
        <time>2024-04-29T05:19:09Z</time>
      </trkpt>
      <trkpt lat="50.04448" lon="4.21276">
        <ele>237</ele>
        <time>2024-04-29T05:19:10Z</time>
      </trkpt>
      <trkpt lat="50.04456" lon="4.2126">
        <ele>235</ele>
        <time>2024-04-29T05:19:11Z</time>
      </trkpt>
      <trkpt lat="50.04465" lon="4.21244">
        <ele>233.8</ele>
        <time>2024-04-29T05:19:12Z</time>
      </trkpt>
      <trkpt lat="50.04474" lon="4.21229">
        <ele>232</ele>
        <time>2024-04-29T05:19:13Z</time>
      </trkpt>
      <trkpt lat="50.04483" lon="4.21216">
        <ele>230.2</ele>
        <time>2024-04-29T05:19:14Z</time>
      </trkpt>
      <trkpt lat="50.04493" lon="4.21203">
        <ele>229</ele>
        <time>2024-04-29T05:19:15Z</time>
      </trkpt>
      <trkpt lat="50.04502" lon="4.21191">
        <ele>228.2</ele>
        <time>2024-04-29T05:19:16Z</time>
      </trkpt>
      <trkpt lat="50.04512" lon="4.2118">
        <ele>228</ele>
        <time>2024-04-29T05:19:17Z</time>
      </trkpt>
      <trkpt lat="50.04521" lon="4.21169">
        <ele>227.8</ele>
        <time>2024-04-29T05:19:18Z</time>
      </trkpt>
      <trkpt lat="50.04531" lon="4.2116">
        <ele>227.6</ele>
        <time>2024-04-29T05:19:19Z</time>
      </trkpt>
      <trkpt lat="50.04541" lon="4.21152">
        <ele>227.4</ele>
        <time>2024-04-29T05:19:20Z</time>
      </trkpt>
      <trkpt lat="50.04551" lon="4.21144">
        <ele>227.2</ele>
        <time>2024-04-29T05:19:21Z</time>
      </trkpt>
      <trkpt lat="50.04561" lon="4.21136">
        <ele>227.2</ele>
        <time>2024-04-29T05:19:22Z</time>
      </trkpt>
      <trkpt lat="50.04571" lon="4.2113">
        <ele>227.2</ele>
        <time>2024-04-29T05:19:23Z</time>
      </trkpt>
      <trkpt lat="50.04581" lon="4.21124">
        <ele>227</ele>
        <time>2024-04-29T05:19:24Z</time>
      </trkpt>
      <trkpt lat="50.04591" lon="4.21118">
        <ele>227</ele>
        <time>2024-04-29T05:19:25Z</time>
      </trkpt>
      <trkpt lat="50.04601" lon="4.21114">
        <ele>227</ele>
        <time>2024-04-29T05:19:26Z</time>
      </trkpt>
      <trkpt lat="50.04611" lon="4.21109">
        <ele>227</ele>
        <time>2024-04-29T05:19:27Z</time>
      </trkpt>
      <trkpt lat="50.04621" lon="4.21105">
        <ele>227</ele>
        <time>2024-04-29T05:19:28Z</time>
      </trkpt>
      <trkpt lat="50.0463" lon="4.21101">
        <ele>227</ele>
        <time>2024-04-29T05:19:29Z</time>
      </trkpt>
      <trkpt lat="50.0464" lon="4.21097">
        <ele>227</ele>
        <time>2024-04-29T05:19:30Z</time>
      </trkpt>
      <trkpt lat="50.04649" lon="4.21093">
        <ele>226.8</ele>
        <time>2024-04-29T05:19:31Z</time>
      </trkpt>
      <trkpt lat="50.04658" lon="4.21089">
        <ele>227</ele>
        <time>2024-04-29T05:19:32Z</time>
      </trkpt>
      <trkpt lat="50.04667" lon="4.21085">
        <ele>226.8</ele>
        <time>2024-04-29T05:19:33Z</time>
      </trkpt>
      <trkpt lat="50.04677" lon="4.21081">
        <ele>227</ele>
        <time>2024-04-29T05:19:34Z</time>
      </trkpt>
      <trkpt lat="50.04686" lon="4.21077">
        <ele>226.8</ele>
        <time>2024-04-29T05:19:35Z</time>
      </trkpt>
      <trkpt lat="50.04695" lon="4.21073">
        <ele>226.8</ele>
        <time>2024-04-29T05:19:36Z</time>
      </trkpt>
      <trkpt lat="50.04705" lon="4.2107">
        <ele>227</ele>
        <time>2024-04-29T05:19:37Z</time>
      </trkpt>
      <trkpt lat="50.04714" lon="4.21066">
        <ele>227</ele>
        <time>2024-04-29T05:19:38Z</time>
      </trkpt>
      <trkpt lat="50.04723" lon="4.21062">
        <ele>227</ele>
        <time>2024-04-29T05:19:39Z</time>
      </trkpt>
      <trkpt lat="50.04733" lon="4.21058">
        <ele>226.8</ele>
        <time>2024-04-29T05:19:40Z</time>
      </trkpt>
      <trkpt lat="50.04742" lon="4.21054">
        <ele>226.6</ele>
        <time>2024-04-29T05:19:41Z</time>
      </trkpt>
      <trkpt lat="50.04751" lon="4.21049">
        <ele>226.4</ele>
        <time>2024-04-29T05:19:42Z</time>
      </trkpt>
      <trkpt lat="50.0476" lon="4.21044">
        <ele>226.4</ele>
        <time>2024-04-29T05:19:43Z</time>
      </trkpt>
      <trkpt lat="50.04769" lon="4.21039">
        <ele>226.4</ele>
        <time>2024-04-29T05:19:44Z</time>
      </trkpt>
      <trkpt lat="50.04778" lon="4.21033">
        <ele>226.2</ele>
        <time>2024-04-29T05:19:45Z</time>
      </trkpt>
      <trkpt lat="50.04786" lon="4.21027">
        <ele>226</ele>
        <time>2024-04-29T05:19:46Z</time>
      </trkpt>
      <trkpt lat="50.04795" lon="4.21021">
        <ele>225.6</ele>
        <time>2024-04-29T05:19:47Z</time>
      </trkpt>
      <trkpt lat="50.04803" lon="4.21015">
        <ele>225.4</ele>
        <time>2024-04-29T05:19:48Z</time>
      </trkpt>
      <trkpt lat="50.04812" lon="4.21007">
        <ele>225.4</ele>
        <time>2024-04-29T05:19:49Z</time>
      </trkpt>
      <trkpt lat="50.0482" lon="4.21">
        <ele>225</ele>
        <time>2024-04-29T05:19:50Z</time>
      </trkpt>
      <trkpt lat="50.04828" lon="4.20992">
        <ele>224.8</ele>
        <time>2024-04-29T05:19:51Z</time>
      </trkpt>
      <trkpt lat="50.04836" lon="4.20984">
        <ele>224.8</ele>
        <time>2024-04-29T05:19:52Z</time>
      </trkpt>
      <trkpt lat="50.04844" lon="4.20975">
        <ele>224.8</ele>
        <time>2024-04-29T05:19:53Z</time>
      </trkpt>
      <trkpt lat="50.04852" lon="4.20967">
        <ele>224.4</ele>
        <time>2024-04-29T05:19:54Z</time>
      </trkpt>
      <trkpt lat="50.0486" lon="4.20959">
        <ele>224.2</ele>
        <time>2024-04-29T05:19:55Z</time>
      </trkpt>
      <trkpt lat="50.04868" lon="4.2095">
        <ele>223.8</ele>
        <time>2024-04-29T05:19:56Z</time>
      </trkpt>
      <trkpt lat="50.04875" lon="4.20941">
        <ele>223.4</ele>
        <time>2024-04-29T05:19:57Z</time>
      </trkpt>
      <trkpt lat="50.04883" lon="4.20931">
        <ele>223</ele>
        <time>2024-04-29T05:19:58Z</time>
      </trkpt>
      <trkpt lat="50.0489" lon="4.2092">
        <ele>222.8</ele>
        <time>2024-04-29T05:19:59Z</time>
      </trkpt>
      <trkpt lat="50.04897" lon="4.20909">
        <ele>222.8</ele>
        <time>2024-04-29T05:20:00Z</time>
      </trkpt>
      <trkpt lat="50.04904" lon="4.20898">
        <ele>222.4</ele>
        <time>2024-04-29T05:20:01Z</time>
      </trkpt>
      <trkpt lat="50.04911" lon="4.20887">
        <ele>222</ele>
        <time>2024-04-29T05:20:02Z</time>
      </trkpt>
      <trkpt lat="50.04919" lon="4.20876">
        <ele>221.6</ele>
        <time>2024-04-29T05:20:03Z</time>
      </trkpt>
      <trkpt lat="50.04928" lon="4.20867">
        <ele>221.4</ele>
        <time>2024-04-29T05:20:04Z</time>
      </trkpt>
      <trkpt lat="50.04937" lon="4.20859">
        <ele>221</ele>
        <time>2024-04-29T05:20:05Z</time>
      </trkpt>
      <trkpt lat="50.04947" lon="4.20853">
        <ele>220.8</ele>
        <time>2024-04-29T05:20:06Z</time>
      </trkpt>
      <trkpt lat="50.04958" lon="4.20849">
        <ele>220</ele>
        <time>2024-04-29T05:20:07Z</time>
      </trkpt>
      <trkpt lat="50.0497" lon="4.20848">
        <ele>219.8</ele>
        <time>2024-04-29T05:20:08Z</time>
      </trkpt>
      <trkpt lat="50.04982" lon="4.2085">
        <ele>219</ele>
        <time>2024-04-29T05:20:09Z</time>
      </trkpt>
      <trkpt lat="50.04994" lon="4.20855">
        <ele>218.2</ele>
        <time>2024-04-29T05:20:10Z</time>
      </trkpt>
      <trkpt lat="50.05006" lon="4.20861">
        <ele>217.6</ele>
        <time>2024-04-29T05:20:11Z</time>
      </trkpt>
      <trkpt lat="50.05017" lon="4.20869">
        <ele>216.6</ele>
        <time>2024-04-29T05:20:12Z</time>
      </trkpt>
      <trkpt lat="50.05028" lon="4.20876">
        <ele>215.8</ele>
        <time>2024-04-29T05:20:13Z</time>
      </trkpt>
      <trkpt lat="50.05039" lon="4.20884">
        <ele>215.8</ele>
        <time>2024-04-29T05:20:14Z</time>
      </trkpt>
      <trkpt lat="50.05048" lon="4.20892">
        <ele>214.8</ele>
        <time>2024-04-29T05:20:15Z</time>
      </trkpt>
      <trkpt lat="50.05057" lon="4.209">
        <ele>213.4</ele>
        <time>2024-04-29T05:20:16Z</time>
      </trkpt>
      <trkpt lat="50.05066" lon="4.20907">
        <ele>212</ele>
        <time>2024-04-29T05:20:17Z</time>
      </trkpt>
      <trkpt lat="50.05076" lon="4.20913">
        <ele>211</ele>
        <time>2024-04-29T05:20:18Z</time>
      </trkpt>
      <trkpt lat="50.05085" lon="4.2092">
        <ele>210.2</ele>
        <time>2024-04-29T05:20:19Z</time>
      </trkpt>
      <trkpt lat="50.05093" lon="4.20928">
        <ele>209.2</ele>
        <time>2024-04-29T05:20:20Z</time>
      </trkpt>
      <trkpt lat="50.05101" lon="4.20938">
        <ele>208.4</ele>
        <time>2024-04-29T05:20:21Z</time>
      </trkpt>
      <trkpt lat="50.05108" lon="4.20947">
        <ele>207.6</ele>
        <time>2024-04-29T05:20:22Z</time>
      </trkpt>
      <trkpt lat="50.05116" lon="4.20955">
        <ele>207</ele>
        <time>2024-04-29T05:20:23Z</time>
      </trkpt>
      <trkpt lat="50.05124" lon="4.20963">
        <ele>206.6</ele>
        <time>2024-04-29T05:20:24Z</time>
      </trkpt>
      <trkpt lat="50.05131" lon="4.20971">
        <ele>206.4</ele>
        <time>2024-04-29T05:20:25Z</time>
      </trkpt>
      <trkpt lat="50.05138" lon="4.20979">
        <ele>206.2</ele>
        <time>2024-04-29T05:20:26Z</time>
      </trkpt>
      <trkpt lat="50.05144" lon="4.20987">
        <ele>206.2</ele>
        <time>2024-04-29T05:20:27Z</time>
      </trkpt>
      <trkpt lat="50.05151" lon="4.20993">
        <ele>206.4</ele>
        <time>2024-04-29T05:20:28Z</time>
      </trkpt>
      <trkpt lat="50.05157" lon="4.20998">
        <ele>206.2</ele>
        <time>2024-04-29T05:20:29Z</time>
      </trkpt>
      <trkpt lat="50.05163" lon="4.21003">
        <ele>206.2</ele>
        <time>2024-04-29T05:20:30Z</time>
      </trkpt>
      <trkpt lat="50.0517" lon="4.21007">
        <ele>206.2</ele>
        <time>2024-04-29T05:20:31Z</time>
      </trkpt>
      <trkpt lat="50.05176" lon="4.2101">
        <ele>206.2</ele>
        <time>2024-04-29T05:20:32Z</time>
      </trkpt>
      <trkpt lat="50.05182" lon="4.21012">
        <ele>206.2</ele>
        <time>2024-04-29T05:20:33Z</time>
      </trkpt>
      <trkpt lat="50.05188" lon="4.21013">
        <ele>206.2</ele>
        <time>2024-04-29T05:20:34Z</time>
      </trkpt>
      <trkpt lat="50.05194" lon="4.21013">
        <ele>206.2</ele>
        <time>2024-04-29T05:20:35Z</time>
      </trkpt>
      <trkpt lat="50.052" lon="4.21013">
        <ele>206.4</ele>
        <time>2024-04-29T05:20:36Z</time>
      </trkpt>
      <trkpt lat="50.05206" lon="4.21013">
        <ele>206.6</ele>
        <time>2024-04-29T05:20:37Z</time>
      </trkpt>
      <trkpt lat="50.05211" lon="4.21014">
        <ele>206.8</ele>
        <time>2024-04-29T05:20:38Z</time>
      </trkpt>
      <trkpt lat="50.05216" lon="4.21013">
        <ele>207</ele>
        <time>2024-04-29T05:20:39Z</time>
      </trkpt>
      <trkpt lat="50.05221" lon="4.21013">
        <ele>207.2</ele>
        <time>2024-04-29T05:20:40Z</time>
      </trkpt>
      <trkpt lat="50.05225" lon="4.21013">
        <ele>208</ele>
        <time>2024-04-29T05:20:41Z</time>
      </trkpt>
      <trkpt lat="50.05228" lon="4.21014">
        <ele>209.2</ele>
        <time>2024-04-29T05:20:42Z</time>
      </trkpt>
      <trkpt lat="50.05229" lon="4.21015">
        <ele>210</ele>
        <time>2024-04-29T05:20:43Z</time>
      </trkpt>
      <trkpt lat="50.05231" lon="4.21017">
        <ele>211</ele>
        <time>2024-04-29T05:20:44Z</time>
      </trkpt>
      <trkpt lat="50.05233" lon="4.21018">
        <ele>211.8</ele>
        <time>2024-04-29T05:20:45Z</time>
      </trkpt>
      <trkpt lat="50.05235" lon="4.21016">
        <ele>212.2</ele>
        <time>2024-04-29T05:20:46Z</time>
      </trkpt>
      <trkpt lat="50.05237" lon="4.21013">
        <ele>212.6</ele>
        <time>2024-04-29T05:20:47Z</time>
      </trkpt>
      <trkpt lat="50.0524" lon="4.21009">
        <ele>212.6</ele>
        <time>2024-04-29T05:20:48Z</time>
      </trkpt>
      <trkpt lat="50.05245" lon="4.21008">
        <ele>212.8</ele>
        <time>2024-04-29T05:20:49Z</time>
      </trkpt>
      <trkpt lat="50.05251" lon="4.21007">
        <ele>212.8</ele>
        <time>2024-04-29T05:20:50Z</time>
      </trkpt>
      <trkpt lat="50.05257" lon="4.21007">
        <ele>212.8</ele>
        <time>2024-04-29T05:20:51Z</time>
      </trkpt>
      <trkpt lat="50.05264" lon="4.21006">
        <ele>213</ele>
        <time>2024-04-29T05:20:52Z</time>
      </trkpt>
      <trkpt lat="50.05271" lon="4.21006">
        <ele>213</ele>
        <time>2024-04-29T05:20:53Z</time>
      </trkpt>
      <trkpt lat="50.05278" lon="4.21005">
        <ele>212.8</ele>
        <time>2024-04-29T05:20:54Z</time>
      </trkpt>
      <trkpt lat="50.05285" lon="4.21004">
        <ele>213</ele>
        <time>2024-04-29T05:20:55Z</time>
      </trkpt>
      <trkpt lat="50.05293" lon="4.21003">
        <ele>212.8</ele>
        <time>2024-04-29T05:20:56Z</time>
      </trkpt>
      <trkpt lat="50.053" lon="4.21003">
        <ele>212.8</ele>
        <time>2024-04-29T05:20:57Z</time>
      </trkpt>
      <trkpt lat="50.05307" lon="4.21002">
        <ele>212.8</ele>
        <time>2024-04-29T05:20:58Z</time>
      </trkpt>
      <trkpt lat="50.05314" lon="4.21001">
        <ele>213</ele>
        <time>2024-04-29T05:20:59Z</time>
      </trkpt>
      <trkpt lat="50.05321" lon="4.21">
        <ele>212.4</ele>
        <time>2024-04-29T05:21:00Z</time>
      </trkpt>
      <trkpt lat="50.05328" lon="4.20999">
        <ele>212.4</ele>
        <time>2024-04-29T05:21:01Z</time>
      </trkpt>
      <trkpt lat="50.05335" lon="4.20998">
        <ele>212</ele>
        <time>2024-04-29T05:21:02Z</time>
      </trkpt>
      <trkpt lat="50.05342" lon="4.20998">
        <ele>211.6</ele>
        <time>2024-04-29T05:21:03Z</time>
      </trkpt>
      <trkpt lat="50.05349" lon="4.20997">
        <ele>211.8</ele>
        <time>2024-04-29T05:21:04Z</time>
      </trkpt>
      <trkpt lat="50.05356" lon="4.20997">
        <ele>211.6</ele>
        <time>2024-04-29T05:21:05Z</time>
      </trkpt>
      <trkpt lat="50.05363" lon="4.20997">
        <ele>211.6</ele>
        <time>2024-04-29T05:21:06Z</time>
      </trkpt>
      <trkpt lat="50.05369" lon="4.20996">
        <ele>211.8</ele>
        <time>2024-04-29T05:21:07Z</time>
      </trkpt>
      <trkpt lat="50.05376" lon="4.20996">
        <ele>211.6</ele>
        <time>2024-04-29T05:21:08Z</time>
      </trkpt>
      <trkpt lat="50.05382" lon="4.20996">
        <ele>211.6</ele>
        <time>2024-04-29T05:21:09Z</time>
      </trkpt>
      <trkpt lat="50.05389" lon="4.20996">
        <ele>211.6</ele>
        <time>2024-04-29T05:21:10Z</time>
      </trkpt>
      <trkpt lat="50.05396" lon="4.20997">
        <ele>211.6</ele>
        <time>2024-04-29T05:21:11Z</time>
      </trkpt>
      <trkpt lat="50.05402" lon="4.20998">
        <ele>211.6</ele>
        <time>2024-04-29T05:21:12Z</time>
      </trkpt>
      <trkpt lat="50.05409" lon="4.20998">
        <ele>212.2</ele>
        <time>2024-04-29T05:21:13Z</time>
      </trkpt>
      <trkpt lat="50.05415" lon="4.20998">
        <ele>212.6</ele>
        <time>2024-04-29T05:21:14Z</time>
      </trkpt>
      <trkpt lat="50.05422" lon="4.20998">
        <ele>213</ele>
        <time>2024-04-29T05:21:15Z</time>
      </trkpt>
      <trkpt lat="50.05429" lon="4.20999">
        <ele>213.2</ele>
        <time>2024-04-29T05:21:16Z</time>
      </trkpt>
      <trkpt lat="50.05435" lon="4.20999">
        <ele>213.8</ele>
        <time>2024-04-29T05:21:17Z</time>
      </trkpt>
      <trkpt lat="50.05442" lon="4.20998">
        <ele>214.2</ele>
        <time>2024-04-29T05:21:18Z</time>
      </trkpt>
      <trkpt lat="50.05448" lon="4.20996">
        <ele>214.6</ele>
        <time>2024-04-29T05:21:19Z</time>
      </trkpt>
      <trkpt lat="50.05454" lon="4.20993">
        <ele>214.6</ele>
        <time>2024-04-29T05:21:20Z</time>
      </trkpt>
      <trkpt lat="50.0546" lon="4.20989">
        <ele>214.8</ele>
        <time>2024-04-29T05:21:21Z</time>
      </trkpt>
      <trkpt lat="50.05465" lon="4.20985">
        <ele>215.2</ele>
        <time>2024-04-29T05:21:22Z</time>
      </trkpt>
      <trkpt lat="50.05471" lon="4.2098">
        <ele>215.4</ele>
        <time>2024-04-29T05:21:23Z</time>
      </trkpt>
      <trkpt lat="50.05477" lon="4.20976">
        <ele>215.8</ele>
        <time>2024-04-29T05:21:24Z</time>
      </trkpt>
      <trkpt lat="50.05483" lon="4.20972">
        <ele>216.2</ele>
        <time>2024-04-29T05:21:25Z</time>
      </trkpt>
      <trkpt lat="50.05489" lon="4.20967">
        <ele>216.4</ele>
        <time>2024-04-29T05:21:26Z</time>
      </trkpt>
      <trkpt lat="50.05495" lon="4.20962">
        <ele>216.6</ele>
        <time>2024-04-29T05:21:27Z</time>
      </trkpt>
      <trkpt lat="50.05501" lon="4.20957">
        <ele>217.2</ele>
        <time>2024-04-29T05:21:28Z</time>
      </trkpt>
      <trkpt lat="50.05508" lon="4.20952">
        <ele>217.2</ele>
        <time>2024-04-29T05:21:29Z</time>
      </trkpt>
      <trkpt lat="50.05514" lon="4.20947">
        <ele>217.4</ele>
        <time>2024-04-29T05:21:30Z</time>
      </trkpt>
      <trkpt lat="50.05521" lon="4.20941">
        <ele>217.6</ele>
        <time>2024-04-29T05:21:31Z</time>
      </trkpt>
      <trkpt lat="50.05528" lon="4.20936">
        <ele>217.4</ele>
        <time>2024-04-29T05:21:32Z</time>
      </trkpt>
      <trkpt lat="50.05535" lon="4.2093">
        <ele>217.6</ele>
        <time>2024-04-29T05:21:33Z</time>
      </trkpt>
      <trkpt lat="50.05543" lon="4.20924">
        <ele>217.4</ele>
        <time>2024-04-29T05:21:34Z</time>
      </trkpt>
      <trkpt lat="50.0555" lon="4.20918">
        <ele>217.4</ele>
        <time>2024-04-29T05:21:35Z</time>
      </trkpt>
      <trkpt lat="50.05558" lon="4.20912">
        <ele>217.4</ele>
        <time>2024-04-29T05:21:36Z</time>
      </trkpt>
      <trkpt lat="50.05565" lon="4.20905">
        <ele>217.4</ele>
        <time>2024-04-29T05:21:37Z</time>
      </trkpt>
      <trkpt lat="50.05573" lon="4.20899">
        <ele>217.6</ele>
        <time>2024-04-29T05:21:38Z</time>
      </trkpt>
      <trkpt lat="50.05581" lon="4.20893">
        <ele>217.2</ele>
        <time>2024-04-29T05:21:39Z</time>
      </trkpt>
      <trkpt lat="50.05589" lon="4.20887">
        <ele>216.8</ele>
        <time>2024-04-29T05:21:40Z</time>
      </trkpt>
      <trkpt lat="50.05597" lon="4.2088">
        <ele>216.2</ele>
        <time>2024-04-29T05:21:41Z</time>
      </trkpt>
      <trkpt lat="50.05605" lon="4.20874">
        <ele>216.2</ele>
        <time>2024-04-29T05:21:42Z</time>
      </trkpt>
      <trkpt lat="50.05614" lon="4.20867">
        <ele>216</ele>
        <time>2024-04-29T05:21:43Z</time>
      </trkpt>
      <trkpt lat="50.05622" lon="4.20861">
        <ele>215.6</ele>
        <time>2024-04-29T05:21:44Z</time>
      </trkpt>
      <trkpt lat="50.0563" lon="4.20854">
        <ele>215.2</ele>
        <time>2024-04-29T05:21:45Z</time>
      </trkpt>
      <trkpt lat="50.05639" lon="4.20847">
        <ele>214.6</ele>
        <time>2024-04-29T05:21:46Z</time>
      </trkpt>
      <trkpt lat="50.05647" lon="4.2084">
        <ele>214</ele>
        <time>2024-04-29T05:21:47Z</time>
      </trkpt>
      <trkpt lat="50.05656" lon="4.20833">
        <ele>213.6</ele>
        <time>2024-04-29T05:21:48Z</time>
      </trkpt>
      <trkpt lat="50.05664" lon="4.20826">
        <ele>213</ele>
        <time>2024-04-29T05:21:49Z</time>
      </trkpt>
      <trkpt lat="50.05673" lon="4.20819">
        <ele>212.8</ele>
        <time>2024-04-29T05:21:50Z</time>
      </trkpt>
      <trkpt lat="50.05681" lon="4.20812">
        <ele>212.6</ele>
        <time>2024-04-29T05:21:51Z</time>
      </trkpt>
      <trkpt lat="50.0569" lon="4.20806">
        <ele>212.2</ele>
        <time>2024-04-29T05:21:52Z</time>
      </trkpt>
      <trkpt lat="50.05698" lon="4.20799">
        <ele>212</ele>
        <time>2024-04-29T05:21:53Z</time>
      </trkpt>
      <trkpt lat="50.05706" lon="4.20793">
        <ele>211.8</ele>
        <time>2024-04-29T05:21:54Z</time>
      </trkpt>
      <trkpt lat="50.05714" lon="4.20787">
        <ele>211.8</ele>
        <time>2024-04-29T05:21:55Z</time>
      </trkpt>
      <trkpt lat="50.05721" lon="4.20781">
        <ele>211.4</ele>
        <time>2024-04-29T05:21:56Z</time>
      </trkpt>
      <trkpt lat="50.05727" lon="4.20776">
        <ele>211.4</ele>
        <time>2024-04-29T05:21:57Z</time>
      </trkpt>
      <trkpt lat="50.05734" lon="4.20771">
        <ele>211.4</ele>
        <time>2024-04-29T05:21:58Z</time>
      </trkpt>
      <trkpt lat="50.0574" lon="4.20766">
        <ele>211.2</ele>
        <time>2024-04-29T05:21:59Z</time>
      </trkpt>
      <trkpt lat="50.05745" lon="4.20762">
        <ele>211.2</ele>
        <time>2024-04-29T05:22:00Z</time>
      </trkpt>
      <trkpt lat="50.05751" lon="4.20757">
        <ele>211.2</ele>
        <time>2024-04-29T05:22:01Z</time>
      </trkpt>
      <trkpt lat="50.05757" lon="4.20753">
        <ele>211.2</ele>
        <time>2024-04-29T05:22:02Z</time>
      </trkpt>
      <trkpt lat="50.05762" lon="4.20749">
        <ele>211.4</ele>
        <time>2024-04-29T05:22:03Z</time>
      </trkpt>
      <trkpt lat="50.05767" lon="4.20745">
        <ele>211.4</ele>
        <time>2024-04-29T05:22:04Z</time>
      </trkpt>
      <trkpt lat="50.05773" lon="4.20741">
        <ele>211.4</ele>
        <time>2024-04-29T05:22:05Z</time>
      </trkpt>
      <trkpt lat="50.05778" lon="4.20737">
        <ele>211.4</ele>
        <time>2024-04-29T05:22:06Z</time>
      </trkpt>
      <trkpt lat="50.05783" lon="4.20733">
        <ele>211.6</ele>
        <time>2024-04-29T05:22:07Z</time>
      </trkpt>
      <trkpt lat="50.05788" lon="4.20729">
        <ele>211.8</ele>
        <time>2024-04-29T05:22:08Z</time>
      </trkpt>
      <trkpt lat="50.05794" lon="4.20725">
        <ele>212</ele>
        <time>2024-04-29T05:22:09Z</time>
      </trkpt>
      <trkpt lat="50.05799" lon="4.2072">
        <ele>212.4</ele>
        <time>2024-04-29T05:22:10Z</time>
      </trkpt>
      <trkpt lat="50.05804" lon="4.20716">
        <ele>212.6</ele>
        <time>2024-04-29T05:22:11Z</time>
      </trkpt>
      <trkpt lat="50.05809" lon="4.20712">
        <ele>213</ele>
        <time>2024-04-29T05:22:12Z</time>
      </trkpt>
      <trkpt lat="50.05815" lon="4.20708">
        <ele>213.4</ele>
        <time>2024-04-29T05:22:13Z</time>
      </trkpt>
      <trkpt lat="50.0582" lon="4.20703">
        <ele>214.2</ele>
        <time>2024-04-29T05:22:14Z</time>
      </trkpt>
      <trkpt lat="50.05826" lon="4.20698">
        <ele>214.4</ele>
        <time>2024-04-29T05:22:15Z</time>
      </trkpt>
      <trkpt lat="50.05832" lon="4.20693">
        <ele>215</ele>
        <time>2024-04-29T05:22:16Z</time>
      </trkpt>
      <trkpt lat="50.05838" lon="4.20688">
        <ele>216.2</ele>
        <time>2024-04-29T05:22:17Z</time>
      </trkpt>
      <trkpt lat="50.05845" lon="4.20683">
        <ele>216.8</ele>
        <time>2024-04-29T05:22:18Z</time>
      </trkpt>
      <trkpt lat="50.05851" lon="4.20678">
        <ele>217.2</ele>
        <time>2024-04-29T05:22:19Z</time>
      </trkpt>
      <trkpt lat="50.05858" lon="4.20672">
        <ele>217.4</ele>
        <time>2024-04-29T05:22:20Z</time>
      </trkpt>
      <trkpt lat="50.05865" lon="4.20667">
        <ele>217.4</ele>
        <time>2024-04-29T05:22:21Z</time>
      </trkpt>
      <trkpt lat="50.05872" lon="4.20661">
        <ele>217.6</ele>
        <time>2024-04-29T05:22:22Z</time>
      </trkpt>
      <trkpt lat="50.0588" lon="4.20655">
        <ele>217.6</ele>
        <time>2024-04-29T05:22:23Z</time>
      </trkpt>
      <trkpt lat="50.05887" lon="4.20648">
        <ele>217.6</ele>
        <time>2024-04-29T05:22:24Z</time>
      </trkpt>
      <trkpt lat="50.05896" lon="4.20642">
        <ele>217.6</ele>
        <time>2024-04-29T05:22:25Z</time>
      </trkpt>
      <trkpt lat="50.05904" lon="4.20636">
        <ele>217.6</ele>
        <time>2024-04-29T05:22:26Z</time>
      </trkpt>
      <trkpt lat="50.05913" lon="4.2063">
        <ele>217.8</ele>
        <time>2024-04-29T05:22:27Z</time>
      </trkpt>
      <trkpt lat="50.05922" lon="4.20624">
        <ele>217.6</ele>
        <time>2024-04-29T05:22:28Z</time>
      </trkpt>
      <trkpt lat="50.05931" lon="4.20618">
        <ele>217.6</ele>
        <time>2024-04-29T05:22:29Z</time>
      </trkpt>
      <trkpt lat="50.05941" lon="4.20612">
        <ele>217.8</ele>
        <time>2024-04-29T05:22:30Z</time>
      </trkpt>
      <trkpt lat="50.05951" lon="4.20607">
        <ele>217.4</ele>
        <time>2024-04-29T05:22:31Z</time>
      </trkpt>
      <trkpt lat="50.05961" lon="4.20601">
        <ele>216.8</ele>
        <time>2024-04-29T05:22:32Z</time>
      </trkpt>
      <trkpt lat="50.05971" lon="4.20595">
        <ele>216.4</ele>
        <time>2024-04-29T05:22:33Z</time>
      </trkpt>
      <trkpt lat="50.05981" lon="4.20589">
        <ele>215.6</ele>
        <time>2024-04-29T05:22:34Z</time>
      </trkpt>
      <trkpt lat="50.05992" lon="4.20583">
        <ele>214.6</ele>
        <time>2024-04-29T05:22:35Z</time>
      </trkpt>
      <trkpt lat="50.06002" lon="4.20577">
        <ele>213.8</ele>
        <time>2024-04-29T05:22:36Z</time>
      </trkpt>
      <trkpt lat="50.06013" lon="4.2057">
        <ele>213</ele>
        <time>2024-04-29T05:22:37Z</time>
      </trkpt>
      <trkpt lat="50.06024" lon="4.20564">
        <ele>212.2</ele>
        <time>2024-04-29T05:22:38Z</time>
      </trkpt>
      <trkpt lat="50.06035" lon="4.20557">
        <ele>211.6</ele>
        <time>2024-04-29T05:22:39Z</time>
      </trkpt>
      <trkpt lat="50.06047" lon="4.20551">
        <ele>210.8</ele>
        <time>2024-04-29T05:22:40Z</time>
      </trkpt>
      <trkpt lat="50.06058" lon="4.20545">
        <ele>210</ele>
        <time>2024-04-29T05:22:41Z</time>
      </trkpt>
      <trkpt lat="50.0607" lon="4.20538">
        <ele>208.8</ele>
        <time>2024-04-29T05:22:42Z</time>
      </trkpt>
      <trkpt lat="50.06081" lon="4.20531">
        <ele>208</ele>
        <time>2024-04-29T05:22:43Z</time>
      </trkpt>
      <trkpt lat="50.06093" lon="4.20525">
        <ele>207.2</ele>
        <time>2024-04-29T05:22:44Z</time>
      </trkpt>
      <trkpt lat="50.06104" lon="4.20518">
        <ele>206.2</ele>
        <time>2024-04-29T05:22:45Z</time>
      </trkpt>
      <trkpt lat="50.06116" lon="4.20511">
        <ele>205.2</ele>
        <time>2024-04-29T05:22:46Z</time>
      </trkpt>
      <trkpt lat="50.06127" lon="4.20504">
        <ele>205.2</ele>
        <time>2024-04-29T05:22:47Z</time>
      </trkpt>
      <trkpt lat="50.06138" lon="4.20498">
        <ele>204</ele>
        <time>2024-04-29T05:22:48Z</time>
      </trkpt>
      <trkpt lat="50.06149" lon="4.20492">
        <ele>202.6</ele>
        <time>2024-04-29T05:22:49Z</time>
      </trkpt>
      <trkpt lat="50.06159" lon="4.20486">
        <ele>201.6</ele>
        <time>2024-04-29T05:22:50Z</time>
      </trkpt>
      <trkpt lat="50.06169" lon="4.2048">
        <ele>200.4</ele>
        <time>2024-04-29T05:22:51Z</time>
      </trkpt>
      <trkpt lat="50.06179" lon="4.20474">
        <ele>199.4</ele>
        <time>2024-04-29T05:22:52Z</time>
      </trkpt>
      <trkpt lat="50.06189" lon="4.20469">
        <ele>198.4</ele>
        <time>2024-04-29T05:22:53Z</time>
      </trkpt>
      <trkpt lat="50.06199" lon="4.20464">
        <ele>197.6</ele>
        <time>2024-04-29T05:22:54Z</time>
      </trkpt>
      <trkpt lat="50.06208" lon="4.20458">
        <ele>197</ele>
        <time>2024-04-29T05:22:55Z</time>
      </trkpt>
      <trkpt lat="50.06217" lon="4.20454">
        <ele>196.4</ele>
        <time>2024-04-29T05:22:56Z</time>
      </trkpt>
      <trkpt lat="50.06225" lon="4.20449">
        <ele>196.4</ele>
        <time>2024-04-29T05:22:57Z</time>
      </trkpt>
      <trkpt lat="50.06233" lon="4.20444">
        <ele>196.2</ele>
        <time>2024-04-29T05:22:58Z</time>
      </trkpt>
      <trkpt lat="50.06241" lon="4.2044">
        <ele>196.2</ele>
        <time>2024-04-29T05:22:59Z</time>
      </trkpt>
      <trkpt lat="50.06249" lon="4.20436">
        <ele>196.2</ele>
        <time>2024-04-29T05:23:00Z</time>
      </trkpt>
      <trkpt lat="50.06256" lon="4.20432">
        <ele>196.2</ele>
        <time>2024-04-29T05:23:01Z</time>
      </trkpt>
      <trkpt lat="50.06262" lon="4.20428">
        <ele>196.2</ele>
        <time>2024-04-29T05:23:02Z</time>
      </trkpt>
      <trkpt lat="50.06269" lon="4.20424">
        <ele>196</ele>
        <time>2024-04-29T05:23:03Z</time>
      </trkpt>
      <trkpt lat="50.06275" lon="4.20421">
        <ele>196.2</ele>
        <time>2024-04-29T05:23:04Z</time>
      </trkpt>
      <trkpt lat="50.06281" lon="4.20417">
        <ele>196.2</ele>
        <time>2024-04-29T05:23:05Z</time>
      </trkpt>
      <trkpt lat="50.06286" lon="4.20412">
        <ele>196.2</ele>
        <time>2024-04-29T05:23:06Z</time>
      </trkpt>
      <trkpt lat="50.0629" lon="4.20405">
        <ele>197.2</ele>
        <time>2024-04-29T05:23:07Z</time>
      </trkpt>
      <trkpt lat="50.06293" lon="4.20396">
        <ele>198</ele>
        <time>2024-04-29T05:23:08Z</time>
      </trkpt>
      <trkpt lat="50.06295" lon="4.20386">
        <ele>198</ele>
        <time>2024-04-29T05:23:09Z</time>
      </trkpt>
      <trkpt lat="50.06296" lon="4.20375">
        <ele>198.4</ele>
        <time>2024-04-29T05:23:10Z</time>
      </trkpt>
      <trkpt lat="50.06296" lon="4.20363">
        <ele>198.6</ele>
        <time>2024-04-29T05:23:11Z</time>
      </trkpt>
      <trkpt lat="50.06297" lon="4.20352">
        <ele>198.8</ele>
        <time>2024-04-29T05:23:12Z</time>
      </trkpt>
      <trkpt lat="50.06297" lon="4.2034">
        <ele>199</ele>
        <time>2024-04-29T05:23:13Z</time>
      </trkpt>
      <trkpt lat="50.06297" lon="4.20329">
        <ele>199.2</ele>
        <time>2024-04-29T05:23:14Z</time>
      </trkpt>
      <trkpt lat="50.06297" lon="4.20317">
        <ele>199.4</ele>
        <time>2024-04-29T05:23:15Z</time>
      </trkpt>
      <trkpt lat="50.06298" lon="4.20306">
        <ele>199.4</ele>
        <time>2024-04-29T05:23:16Z</time>
      </trkpt>
      <trkpt lat="50.06298" lon="4.20294">
        <ele>199.8</ele>
        <time>2024-04-29T05:23:17Z</time>
      </trkpt>
      <trkpt lat="50.06298" lon="4.20282">
        <ele>199.8</ele>
        <time>2024-04-29T05:23:18Z</time>
      </trkpt>
      <trkpt lat="50.06299" lon="4.2027">
        <ele>200</ele>
        <time>2024-04-29T05:23:19Z</time>
      </trkpt>
      <trkpt lat="50.06299" lon="4.20258">
        <ele>200</ele>
        <time>2024-04-29T05:23:20Z</time>
      </trkpt>
      <trkpt lat="50.063" lon="4.20245">
        <ele>200</ele>
        <time>2024-04-29T05:23:21Z</time>
      </trkpt>
      <trkpt lat="50.063" lon="4.20233">
        <ele>200</ele>
        <time>2024-04-29T05:23:22Z</time>
      </trkpt>
      <trkpt lat="50.06301" lon="4.20221">
        <ele>200.2</ele>
        <time>2024-04-29T05:23:23Z</time>
      </trkpt>
      <trkpt lat="50.06302" lon="4.20209">
        <ele>200</ele>
        <time>2024-04-29T05:23:24Z</time>
      </trkpt>
      <trkpt lat="50.06302" lon="4.20197">
        <ele>200</ele>
        <time>2024-04-29T05:23:25Z</time>
      </trkpt>
      <trkpt lat="50.06302" lon="4.20185">
        <ele>200</ele>
        <time>2024-04-29T05:23:26Z</time>
      </trkpt>
      <trkpt lat="50.06302" lon="4.20173">
        <ele>200</ele>
        <time>2024-04-29T05:23:27Z</time>
      </trkpt>
      <trkpt lat="50.06303" lon="4.2016">
        <ele>199.8</ele>
        <time>2024-04-29T05:23:28Z</time>
      </trkpt>
      <trkpt lat="50.06304" lon="4.20147">
        <ele>199.8</ele>
        <time>2024-04-29T05:23:29Z</time>
      </trkpt>
      <trkpt lat="50.06304" lon="4.20134">
        <ele>199.6</ele>
        <time>2024-04-29T05:23:30Z</time>
      </trkpt>
      <trkpt lat="50.06304" lon="4.20121">
        <ele>199.6</ele>
        <time>2024-04-29T05:23:31Z</time>
      </trkpt>
      <trkpt lat="50.06305" lon="4.20108">
        <ele>199.6</ele>
        <time>2024-04-29T05:23:32Z</time>
      </trkpt>
      <trkpt lat="50.06306" lon="4.20096">
        <ele>199.4</ele>
        <time>2024-04-29T05:23:33Z</time>
      </trkpt>
      <trkpt lat="50.06308" lon="4.20083">
        <ele>199.4</ele>
        <time>2024-04-29T05:23:34Z</time>
      </trkpt>
      <trkpt lat="50.06312" lon="4.20071">
        <ele>199.2</ele>
        <time>2024-04-29T05:23:35Z</time>
      </trkpt>
      <trkpt lat="50.06315" lon="4.20059">
        <ele>199.2</ele>
        <time>2024-04-29T05:23:36Z</time>
      </trkpt>
      <trkpt lat="50.06319" lon="4.20047">
        <ele>199</ele>
        <time>2024-04-29T05:23:37Z</time>
      </trkpt>
      <trkpt lat="50.06321" lon="4.20035">
        <ele>198.6</ele>
        <time>2024-04-29T05:23:38Z</time>
      </trkpt>
      <trkpt lat="50.06322" lon="4.20023">
        <ele>198.4</ele>
        <time>2024-04-29T05:23:39Z</time>
      </trkpt>
      <trkpt lat="50.06323" lon="4.2001">
        <ele>198</ele>
        <time>2024-04-29T05:23:40Z</time>
      </trkpt>
      <trkpt lat="50.06322" lon="4.19998">
        <ele>198</ele>
        <time>2024-04-29T05:23:41Z</time>
      </trkpt>
      <trkpt lat="50.06321" lon="4.19985">
        <ele>197.6</ele>
        <time>2024-04-29T05:23:42Z</time>
      </trkpt>
      <trkpt lat="50.06321" lon="4.19972">
        <ele>197.4</ele>
        <time>2024-04-29T05:23:43Z</time>
      </trkpt>
      <trkpt lat="50.06324" lon="4.19959">
        <ele>197</ele>
        <time>2024-04-29T05:23:44Z</time>
      </trkpt>
      <trkpt lat="50.06327" lon="4.19947">
        <ele>196.8</ele>
        <time>2024-04-29T05:23:45Z</time>
      </trkpt>
      <trkpt lat="50.06334" lon="4.19936">
        <ele>196.6</ele>
        <time>2024-04-29T05:23:46Z</time>
      </trkpt>
      <trkpt lat="50.06341" lon="4.19927">
        <ele>196.2</ele>
        <time>2024-04-29T05:23:47Z</time>
      </trkpt>
      <trkpt lat="50.0635" lon="4.1992">
        <ele>196.2</ele>
        <time>2024-04-29T05:23:48Z</time>
      </trkpt>
      <trkpt lat="50.0636" lon="4.19914">
        <ele>196.2</ele>
        <time>2024-04-29T05:23:49Z</time>
      </trkpt>
      <trkpt lat="50.06369" lon="4.19909">
        <ele>196.2</ele>
        <time>2024-04-29T05:23:50Z</time>
      </trkpt>
      <trkpt lat="50.06379" lon="4.19904">
        <ele>196</ele>
        <time>2024-04-29T05:23:51Z</time>
      </trkpt>
      <trkpt lat="50.06388" lon="4.199">
        <ele>196</ele>
        <time>2024-04-29T05:23:52Z</time>
      </trkpt>
      <trkpt lat="50.06397" lon="4.19895">
        <ele>195.6</ele>
        <time>2024-04-29T05:23:53Z</time>
      </trkpt>
      <trkpt lat="50.06406" lon="4.19888">
        <ele>194.6</ele>
        <time>2024-04-29T05:23:54Z</time>
      </trkpt>
      <trkpt lat="50.06413" lon="4.19879">
        <ele>193.8</ele>
        <time>2024-04-29T05:23:55Z</time>
      </trkpt>
      <trkpt lat="50.06418" lon="4.19868">
        <ele>193.2</ele>
        <time>2024-04-29T05:23:56Z</time>
      </trkpt>
      <trkpt lat="50.06422" lon="4.19855">
        <ele>192.4</ele>
        <time>2024-04-29T05:23:57Z</time>
      </trkpt>
      <trkpt lat="50.06425" lon="4.19843">
        <ele>191.2</ele>
        <time>2024-04-29T05:23:58Z</time>
      </trkpt>
      <trkpt lat="50.06427" lon="4.1983">
        <ele>190.6</ele>
        <time>2024-04-29T05:23:59Z</time>
      </trkpt>
      <trkpt lat="50.0643" lon="4.19818">
        <ele>190.4</ele>
        <time>2024-04-29T05:24:00Z</time>
      </trkpt>
      <trkpt lat="50.06432" lon="4.19806">
        <ele>190.2</ele>
        <time>2024-04-29T05:24:01Z</time>
      </trkpt>
      <trkpt lat="50.06435" lon="4.19794">
        <ele>190</ele>
        <time>2024-04-29T05:24:02Z</time>
      </trkpt>
      <trkpt lat="50.06437" lon="4.19782">
        <ele>189.8</ele>
        <time>2024-04-29T05:24:03Z</time>
      </trkpt>
      <trkpt lat="50.0644" lon="4.1977">
        <ele>189.8</ele>
        <time>2024-04-29T05:24:04Z</time>
      </trkpt>
      <trkpt lat="50.06442" lon="4.19758">
        <ele>189.8</ele>
        <time>2024-04-29T05:24:05Z</time>
      </trkpt>
      <trkpt lat="50.06444" lon="4.19746">
        <ele>189.6</ele>
        <time>2024-04-29T05:24:06Z</time>
      </trkpt>
      <trkpt lat="50.06446" lon="4.19735">
        <ele>189.6</ele>
        <time>2024-04-29T05:24:07Z</time>
      </trkpt>
      <trkpt lat="50.06447" lon="4.19723">
        <ele>189.4</ele>
        <time>2024-04-29T05:24:08Z</time>
      </trkpt>
      <trkpt lat="50.06449" lon="4.19712">
        <ele>189.4</ele>
        <time>2024-04-29T05:24:09Z</time>
      </trkpt>
      <trkpt lat="50.0645" lon="4.19701">
        <ele>189.6</ele>
        <time>2024-04-29T05:24:10Z</time>
      </trkpt>
      <trkpt lat="50.06451" lon="4.1969">
        <ele>189.6</ele>
        <time>2024-04-29T05:24:11Z</time>
      </trkpt>
      <trkpt lat="50.06452" lon="4.1968">
        <ele>189.4</ele>
        <time>2024-04-29T05:24:12Z</time>
      </trkpt>
      <trkpt lat="50.06453" lon="4.19669">
        <ele>189.4</ele>
        <time>2024-04-29T05:24:13Z</time>
      </trkpt>
      <trkpt lat="50.06454" lon="4.19659">
        <ele>189.6</ele>
        <time>2024-04-29T05:24:14Z</time>
      </trkpt>
      <trkpt lat="50.06455" lon="4.19649">
        <ele>189.6</ele>
        <time>2024-04-29T05:24:15Z</time>
      </trkpt>
      <trkpt lat="50.06456" lon="4.19639">
        <ele>189.8</ele>
        <time>2024-04-29T05:24:16Z</time>
      </trkpt>
      <trkpt lat="50.06459" lon="4.19629">
        <ele>190</ele>
        <time>2024-04-29T05:24:17Z</time>
      </trkpt>
      <trkpt lat="50.06462" lon="4.1962">
        <ele>190.4</ele>
        <time>2024-04-29T05:24:18Z</time>
      </trkpt>
      <trkpt lat="50.06465" lon="4.19611">
        <ele>190.6</ele>
        <time>2024-04-29T05:24:19Z</time>
      </trkpt>
      <trkpt lat="50.06469" lon="4.19603">
        <ele>190.8</ele>
        <time>2024-04-29T05:24:20Z</time>
      </trkpt>
      <trkpt lat="50.06473" lon="4.19595">
        <ele>190.8</ele>
        <time>2024-04-29T05:24:21Z</time>
      </trkpt>
      <trkpt lat="50.06477" lon="4.19588">
        <ele>191.2</ele>
        <time>2024-04-29T05:24:22Z</time>
      </trkpt>
      <trkpt lat="50.06482" lon="4.1958">
        <ele>191.2</ele>
        <time>2024-04-29T05:24:23Z</time>
      </trkpt>
      <trkpt lat="50.06486" lon="4.19573">
        <ele>191.4</ele>
        <time>2024-04-29T05:24:24Z</time>
      </trkpt>
      <trkpt lat="50.06492" lon="4.19566">
        <ele>191.8</ele>
        <time>2024-04-29T05:24:25Z</time>
      </trkpt>
      <trkpt lat="50.06497" lon="4.1956">
        <ele>192</ele>
        <time>2024-04-29T05:24:26Z</time>
      </trkpt>
      <trkpt lat="50.06503" lon="4.19555">
        <ele>192.4</ele>
        <time>2024-04-29T05:24:27Z</time>
      </trkpt>
      <trkpt lat="50.0651" lon="4.19552">
        <ele>192.6</ele>
        <time>2024-04-29T05:24:28Z</time>
      </trkpt>
      <trkpt lat="50.06517" lon="4.19551">
        <ele>193.2</ele>
        <time>2024-04-29T05:24:29Z</time>
      </trkpt>
      <trkpt lat="50.06524" lon="4.19551">
        <ele>193.6</ele>
        <time>2024-04-29T05:24:30Z</time>
      </trkpt>
      <trkpt lat="50.06531" lon="4.1955">
        <ele>193.6</ele>
        <time>2024-04-29T05:24:31Z</time>
      </trkpt>
      <trkpt lat="50.06538" lon="4.1955">
        <ele>194</ele>
        <time>2024-04-29T05:24:32Z</time>
      </trkpt>
      <trkpt lat="50.06545" lon="4.1955">
        <ele>194.2</ele>
        <time>2024-04-29T05:24:33Z</time>
      </trkpt>
      <trkpt lat="50.06553" lon="4.1955">
        <ele>194.2</ele>
        <time>2024-04-29T05:24:34Z</time>
      </trkpt>
      <trkpt lat="50.0656" lon="4.1955">
        <ele>194.2</ele>
        <time>2024-04-29T05:24:35Z</time>
      </trkpt>
      <trkpt lat="50.06567" lon="4.19549">
        <ele>194.2</ele>
        <time>2024-04-29T05:24:36Z</time>
      </trkpt>
      <trkpt lat="50.06574" lon="4.19549">
        <ele>194.2</ele>
        <time>2024-04-29T05:24:37Z</time>
      </trkpt>
      <trkpt lat="50.06582" lon="4.19549">
        <ele>194.2</ele>
        <time>2024-04-29T05:24:38Z</time>
      </trkpt>
      <trkpt lat="50.06589" lon="4.19549">
        <ele>194.2</ele>
        <time>2024-04-29T05:24:39Z</time>
      </trkpt>
      <trkpt lat="50.06596" lon="4.19549">
        <ele>194.2</ele>
        <time>2024-04-29T05:24:40Z</time>
      </trkpt>
      <trkpt lat="50.06603" lon="4.19548">
        <ele>194.2</ele>
        <time>2024-04-29T05:24:41Z</time>
      </trkpt>
      <trkpt lat="50.06611" lon="4.19548">
        <ele>194.2</ele>
        <time>2024-04-29T05:24:42Z</time>
      </trkpt>
      <trkpt lat="50.06618" lon="4.19547">
        <ele>194</ele>
        <time>2024-04-29T05:24:43Z</time>
      </trkpt>
      <trkpt lat="50.06625" lon="4.19547">
        <ele>194.2</ele>
        <time>2024-04-29T05:24:44Z</time>
      </trkpt>
      <trkpt lat="50.06633" lon="4.19547">
        <ele>194</ele>
        <time>2024-04-29T05:24:45Z</time>
      </trkpt>
      <trkpt lat="50.0664" lon="4.19547">
        <ele>194</ele>
        <time>2024-04-29T05:24:46Z</time>
      </trkpt>
      <trkpt lat="50.06647" lon="4.19547">
        <ele>193.8</ele>
        <time>2024-04-29T05:24:47Z</time>
      </trkpt>
      <trkpt lat="50.06654" lon="4.19546">
        <ele>194</ele>
        <time>2024-04-29T05:24:48Z</time>
      </trkpt>
      <trkpt lat="50.06661" lon="4.19546">
        <ele>193.4</ele>
        <time>2024-04-29T05:24:49Z</time>
      </trkpt>
      <trkpt lat="50.06668" lon="4.19546">
        <ele>193.4</ele>
        <time>2024-04-29T05:24:50Z</time>
      </trkpt>
      <trkpt lat="50.06675" lon="4.19546">
        <ele>193.2</ele>
        <time>2024-04-29T05:24:51Z</time>
      </trkpt>
      <trkpt lat="50.06682" lon="4.19545">
        <ele>193.2</ele>
        <time>2024-04-29T05:24:52Z</time>
      </trkpt>
      <trkpt lat="50.06689" lon="4.19545">
        <ele>193.4</ele>
        <time>2024-04-29T05:24:53Z</time>
      </trkpt>
      <trkpt lat="50.06696" lon="4.19545">
        <ele>193.2</ele>
        <time>2024-04-29T05:24:54Z</time>
      </trkpt>
      <trkpt lat="50.06703" lon="4.19546">
        <ele>193.2</ele>
        <time>2024-04-29T05:24:55Z</time>
      </trkpt>
      <trkpt lat="50.0671" lon="4.19546">
        <ele>193.2</ele>
        <time>2024-04-29T05:24:56Z</time>
      </trkpt>
      <trkpt lat="50.06717" lon="4.19547">
        <ele>193.2</ele>
        <time>2024-04-29T05:24:57Z</time>
      </trkpt>
      <trkpt lat="50.06724" lon="4.19548">
        <ele>193.2</ele>
        <time>2024-04-29T05:24:58Z</time>
      </trkpt>
      <trkpt lat="50.06731" lon="4.1955">
        <ele>193</ele>
        <time>2024-04-29T05:24:59Z</time>
      </trkpt>
      <trkpt lat="50.06737" lon="4.19551">
        <ele>193.4</ele>
        <time>2024-04-29T05:25:00Z</time>
      </trkpt>
      <trkpt lat="50.06744" lon="4.19553">
        <ele>193.8</ele>
        <time>2024-04-29T05:25:01Z</time>
      </trkpt>
      <trkpt lat="50.06751" lon="4.19555">
        <ele>194.2</ele>
        <time>2024-04-29T05:25:02Z</time>
      </trkpt>
      <trkpt lat="50.06757" lon="4.19557">
        <ele>194.6</ele>
        <time>2024-04-29T05:25:03Z</time>
      </trkpt>
      <trkpt lat="50.06764" lon="4.19559">
        <ele>194.6</ele>
        <time>2024-04-29T05:25:04Z</time>
      </trkpt>
      <trkpt lat="50.0677" lon="4.19561">
        <ele>194.6</ele>
        <time>2024-04-29T05:25:05Z</time>
      </trkpt>
      <trkpt lat="50.06777" lon="4.19563">
        <ele>194.8</ele>
        <time>2024-04-29T05:25:06Z</time>
      </trkpt>
      <trkpt lat="50.06783" lon="4.19565">
        <ele>194.8</ele>
        <time>2024-04-29T05:25:07Z</time>
      </trkpt>
      <trkpt lat="50.0679" lon="4.19567">
        <ele>195</ele>
        <time>2024-04-29T05:25:08Z</time>
      </trkpt>
      <trkpt lat="50.06796" lon="4.1957">
        <ele>195</ele>
        <time>2024-04-29T05:25:09Z</time>
      </trkpt>
      <trkpt lat="50.06803" lon="4.19572">
        <ele>195</ele>
        <time>2024-04-29T05:25:10Z</time>
      </trkpt>
      <trkpt lat="50.0681" lon="4.19575">
        <ele>195.2</ele>
        <time>2024-04-29T05:25:11Z</time>
      </trkpt>
      <trkpt lat="50.06817" lon="4.19577">
        <ele>195</ele>
        <time>2024-04-29T05:25:12Z</time>
      </trkpt>
      <trkpt lat="50.06823" lon="4.1958">
        <ele>195.2</ele>
        <time>2024-04-29T05:25:13Z</time>
      </trkpt>
      <trkpt lat="50.0683" lon="4.19583">
        <ele>195.4</ele>
        <time>2024-04-29T05:25:14Z</time>
      </trkpt>
      <trkpt lat="50.06837" lon="4.19585">
        <ele>195.8</ele>
        <time>2024-04-29T05:25:15Z</time>
      </trkpt>
      <trkpt lat="50.06845" lon="4.19588">
        <ele>196</ele>
        <time>2024-04-29T05:25:16Z</time>
      </trkpt>
      <trkpt lat="50.06852" lon="4.19591">
        <ele>196</ele>
        <time>2024-04-29T05:25:17Z</time>
      </trkpt>
      <trkpt lat="50.06859" lon="4.19594">
        <ele>196</ele>
        <time>2024-04-29T05:25:18Z</time>
      </trkpt>
      <trkpt lat="50.06867" lon="4.19596">
        <ele>196</ele>
        <time>2024-04-29T05:25:19Z</time>
      </trkpt>
      <trkpt lat="50.06874" lon="4.19599">
        <ele>196</ele>
        <time>2024-04-29T05:25:20Z</time>
      </trkpt>
      <trkpt lat="50.06882" lon="4.19602">
        <ele>196</ele>
        <time>2024-04-29T05:25:21Z</time>
      </trkpt>
      <trkpt lat="50.0689" lon="4.19604">
        <ele>196.2</ele>
        <time>2024-04-29T05:25:22Z</time>
      </trkpt>
      <trkpt lat="50.06898" lon="4.19606">
        <ele>196</ele>
        <time>2024-04-29T05:25:23Z</time>
      </trkpt>
      <trkpt lat="50.06906" lon="4.19608">
        <ele>196.2</ele>
        <time>2024-04-29T05:25:24Z</time>
      </trkpt>
      <trkpt lat="50.06913" lon="4.1961">
        <ele>196</ele>
        <time>2024-04-29T05:25:25Z</time>
      </trkpt>
      <trkpt lat="50.06921" lon="4.19611">
        <ele>196.2</ele>
        <time>2024-04-29T05:25:26Z</time>
      </trkpt>
      <trkpt lat="50.06929" lon="4.19611">
        <ele>196</ele>
        <time>2024-04-29T05:25:27Z</time>
      </trkpt>
      <trkpt lat="50.06937" lon="4.19611">
        <ele>195.4</ele>
        <time>2024-04-29T05:25:28Z</time>
      </trkpt>
      <trkpt lat="50.06945" lon="4.19611">
        <ele>195.4</ele>
        <time>2024-04-29T05:25:29Z</time>
      </trkpt>
      <trkpt lat="50.06953" lon="4.1961">
        <ele>195</ele>
        <time>2024-04-29T05:25:30Z</time>
      </trkpt>
      <trkpt lat="50.06961" lon="4.19609">
        <ele>194.8</ele>
        <time>2024-04-29T05:25:31Z</time>
      </trkpt>
      <trkpt lat="50.06968" lon="4.19608">
        <ele>194.2</ele>
        <time>2024-04-29T05:25:32Z</time>
      </trkpt>
      <trkpt lat="50.06976" lon="4.19607">
        <ele>193.8</ele>
        <time>2024-04-29T05:25:33Z</time>
      </trkpt>
      <trkpt lat="50.06983" lon="4.19606">
        <ele>193.4</ele>
        <time>2024-04-29T05:25:34Z</time>
      </trkpt>
      <trkpt lat="50.06991" lon="4.19605">
        <ele>193</ele>
        <time>2024-04-29T05:25:35Z</time>
      </trkpt>
      <trkpt lat="50.06998" lon="4.19603">
        <ele>193</ele>
        <time>2024-04-29T05:25:36Z</time>
      </trkpt>
      <trkpt lat="50.07006" lon="4.19602">
        <ele>192.8</ele>
        <time>2024-04-29T05:25:37Z</time>
      </trkpt>
      <trkpt lat="50.07013" lon="4.19601">
        <ele>192.6</ele>
        <time>2024-04-29T05:25:38Z</time>
      </trkpt>
      <trkpt lat="50.07021" lon="4.19599">
        <ele>192.4</ele>
        <time>2024-04-29T05:25:39Z</time>
      </trkpt>
      <trkpt lat="50.07028" lon="4.19598">
        <ele>192.4</ele>
        <time>2024-04-29T05:25:40Z</time>
      </trkpt>
      <trkpt lat="50.07036" lon="4.19597">
        <ele>192.4</ele>
        <time>2024-04-29T05:25:41Z</time>
      </trkpt>
      <trkpt lat="50.07043" lon="4.19596">
        <ele>192.4</ele>
        <time>2024-04-29T05:25:42Z</time>
      </trkpt>
      <trkpt lat="50.07051" lon="4.19595">
        <ele>192.2</ele>
        <time>2024-04-29T05:25:43Z</time>
      </trkpt>
      <trkpt lat="50.07058" lon="4.19593">
        <ele>192.2</ele>
        <time>2024-04-29T05:25:44Z</time>
      </trkpt>
      <trkpt lat="50.07066" lon="4.19592">
        <ele>192</ele>
        <time>2024-04-29T05:25:45Z</time>
      </trkpt>
      <trkpt lat="50.07073" lon="4.19591">
        <ele>192.2</ele>
        <time>2024-04-29T05:25:46Z</time>
      </trkpt>
      <trkpt lat="50.07081" lon="4.19589">
        <ele>192.2</ele>
        <time>2024-04-29T05:25:47Z</time>
      </trkpt>
      <trkpt lat="50.07088" lon="4.19588">
        <ele>192.2</ele>
        <time>2024-04-29T05:25:48Z</time>
      </trkpt>
      <trkpt lat="50.07096" lon="4.19587">
        <ele>192.2</ele>
        <time>2024-04-29T05:25:49Z</time>
      </trkpt>
      <trkpt lat="50.07104" lon="4.19585">
        <ele>192.2</ele>
        <time>2024-04-29T05:25:50Z</time>
      </trkpt>
      <trkpt lat="50.07111" lon="4.19584">
        <ele>192.2</ele>
        <time>2024-04-29T05:25:51Z</time>
      </trkpt>
      <trkpt lat="50.07119" lon="4.19583">
        <ele>192.2</ele>
        <time>2024-04-29T05:25:52Z</time>
      </trkpt>
      <trkpt lat="50.07127" lon="4.19582">
        <ele>192.2</ele>
        <time>2024-04-29T05:25:53Z</time>
      </trkpt>
      <trkpt lat="50.07134" lon="4.19581">
        <ele>192</ele>
        <time>2024-04-29T05:25:54Z</time>
      </trkpt>
      <trkpt lat="50.07142" lon="4.1958">
        <ele>192</ele>
        <time>2024-04-29T05:25:55Z</time>
      </trkpt>
      <trkpt lat="50.07149" lon="4.19579">
        <ele>192.2</ele>
        <time>2024-04-29T05:25:56Z</time>
      </trkpt>
      <trkpt lat="50.07157" lon="4.19578">
        <ele>192.2</ele>
        <time>2024-04-29T05:25:57Z</time>
      </trkpt>
      <trkpt lat="50.07165" lon="4.19577">
        <ele>192</ele>
        <time>2024-04-29T05:25:58Z</time>
      </trkpt>
      <trkpt lat="50.07173" lon="4.19576">
        <ele>192.2</ele>
        <time>2024-04-29T05:25:59Z</time>
      </trkpt>
      <trkpt lat="50.07181" lon="4.19575">
        <ele>192</ele>
        <time>2024-04-29T05:26:00Z</time>
      </trkpt>
      <trkpt lat="50.07189" lon="4.19574">
        <ele>192.2</ele>
        <time>2024-04-29T05:26:01Z</time>
      </trkpt>
      <trkpt lat="50.07197" lon="4.19573">
        <ele>192</ele>
        <time>2024-04-29T05:26:02Z</time>
      </trkpt>
      <trkpt lat="50.07205" lon="4.19572">
        <ele>192</ele>
        <time>2024-04-29T05:26:03Z</time>
      </trkpt>
      <trkpt lat="50.07213" lon="4.19571">
        <ele>191.8</ele>
        <time>2024-04-29T05:26:04Z</time>
      </trkpt>
      <trkpt lat="50.0722" lon="4.1957">
        <ele>191.8</ele>
        <time>2024-04-29T05:26:05Z</time>
      </trkpt>
      <trkpt lat="50.07228" lon="4.1957">
        <ele>191.8</ele>
        <time>2024-04-29T05:26:06Z</time>
      </trkpt>
      <trkpt lat="50.07236" lon="4.19569">
        <ele>191.6</ele>
        <time>2024-04-29T05:26:07Z</time>
      </trkpt>
      <trkpt lat="50.07243" lon="4.19568">
        <ele>191.4</ele>
        <time>2024-04-29T05:26:08Z</time>
      </trkpt>
      <trkpt lat="50.07251" lon="4.19567">
        <ele>191.2</ele>
        <time>2024-04-29T05:26:09Z</time>
      </trkpt>
      <trkpt lat="50.07259" lon="4.19566">
        <ele>191.2</ele>
        <time>2024-04-29T05:26:10Z</time>
      </trkpt>
      <trkpt lat="50.07267" lon="4.19566">
        <ele>191</ele>
        <time>2024-04-29T05:26:11Z</time>
      </trkpt>
      <trkpt lat="50.07274" lon="4.19565">
        <ele>191</ele>
        <time>2024-04-29T05:26:12Z</time>
      </trkpt>
      <trkpt lat="50.07282" lon="4.19564">
        <ele>191</ele>
        <time>2024-04-29T05:26:13Z</time>
      </trkpt>
      <trkpt lat="50.0729" lon="4.19563">
        <ele>191</ele>
        <time>2024-04-29T05:26:14Z</time>
      </trkpt>
      <trkpt lat="50.07297" lon="4.19563">
        <ele>190.6</ele>
        <time>2024-04-29T05:26:15Z</time>
      </trkpt>
      <trkpt lat="50.07305" lon="4.19562">
        <ele>190.6</ele>
        <time>2024-04-29T05:26:16Z</time>
      </trkpt>
      <trkpt lat="50.07313" lon="4.19561">
        <ele>190.4</ele>
        <time>2024-04-29T05:26:17Z</time>
      </trkpt>
      <trkpt lat="50.07321" lon="4.1956">
        <ele>190.4</ele>
        <time>2024-04-29T05:26:18Z</time>
      </trkpt>
      <trkpt lat="50.07328" lon="4.1956">
        <ele>190.2</ele>
        <time>2024-04-29T05:26:19Z</time>
      </trkpt>
      <trkpt lat="50.07336" lon="4.19559">
        <ele>190.2</ele>
        <time>2024-04-29T05:26:20Z</time>
      </trkpt>
      <trkpt lat="50.07344" lon="4.19559">
        <ele>190.2</ele>
        <time>2024-04-29T05:26:21Z</time>
      </trkpt>
      <trkpt lat="50.07352" lon="4.19558">
        <ele>190</ele>
        <time>2024-04-29T05:26:22Z</time>
      </trkpt>
      <trkpt lat="50.0736" lon="4.19558">
        <ele>189.2</ele>
        <time>2024-04-29T05:26:23Z</time>
      </trkpt>
      <trkpt lat="50.07367" lon="4.19557">
        <ele>189.2</ele>
        <time>2024-04-29T05:26:24Z</time>
      </trkpt>
      <trkpt lat="50.07375" lon="4.19557">
        <ele>188.8</ele>
        <time>2024-04-29T05:26:25Z</time>
      </trkpt>
      <trkpt lat="50.07383" lon="4.19556">
        <ele>188.4</ele>
        <time>2024-04-29T05:26:26Z</time>
      </trkpt>
      <trkpt lat="50.07391" lon="4.19556">
        <ele>188.2</ele>
        <time>2024-04-29T05:26:27Z</time>
      </trkpt>
      <trkpt lat="50.07399" lon="4.19556">
        <ele>188</ele>
        <time>2024-04-29T05:26:28Z</time>
      </trkpt>
      <trkpt lat="50.07407" lon="4.19557">
        <ele>187.8</ele>
        <time>2024-04-29T05:26:29Z</time>
      </trkpt>
      <trkpt lat="50.07414" lon="4.19557">
        <ele>187.8</ele>
        <time>2024-04-29T05:26:30Z</time>
      </trkpt>
      <trkpt lat="50.07422" lon="4.19558">
        <ele>188</ele>
        <time>2024-04-29T05:26:31Z</time>
      </trkpt>
      <trkpt lat="50.0743" lon="4.19559">
        <ele>187.8</ele>
        <time>2024-04-29T05:26:32Z</time>
      </trkpt>
      <trkpt lat="50.07439" lon="4.19561">
        <ele>187.8</ele>
        <time>2024-04-29T05:26:33Z</time>
      </trkpt>
      <trkpt lat="50.07447" lon="4.19562">
        <ele>187.8</ele>
        <time>2024-04-29T05:26:34Z</time>
      </trkpt>
      <trkpt lat="50.07455" lon="4.19563">
        <ele>187.6</ele>
        <time>2024-04-29T05:26:35Z</time>
      </trkpt>
      <trkpt lat="50.07463" lon="4.19564">
        <ele>187.4</ele>
        <time>2024-04-29T05:26:36Z</time>
      </trkpt>
      <trkpt lat="50.07471" lon="4.19565">
        <ele>187.4</ele>
        <time>2024-04-29T05:26:37Z</time>
      </trkpt>
      <trkpt lat="50.07479" lon="4.19566">
        <ele>187.4</ele>
        <time>2024-04-29T05:26:38Z</time>
      </trkpt>
      <trkpt lat="50.07487" lon="4.19567">
        <ele>187.4</ele>
        <time>2024-04-29T05:26:39Z</time>
      </trkpt>
      <trkpt lat="50.07495" lon="4.19567">
        <ele>187</ele>
        <time>2024-04-29T05:26:40Z</time>
      </trkpt>
      <trkpt lat="50.07504" lon="4.19565">
        <ele>187</ele>
        <time>2024-04-29T05:26:41Z</time>
      </trkpt>
      <trkpt lat="50.07511" lon="4.19563">
        <ele>186.8</ele>
        <time>2024-04-29T05:26:42Z</time>
      </trkpt>
      <trkpt lat="50.07519" lon="4.19558">
        <ele>186.4</ele>
        <time>2024-04-29T05:26:43Z</time>
      </trkpt>
      <trkpt lat="50.07526" lon="4.19552">
        <ele>186.2</ele>
        <time>2024-04-29T05:26:44Z</time>
      </trkpt>
      <trkpt lat="50.07531" lon="4.19545">
        <ele>186.2</ele>
        <time>2024-04-29T05:26:45Z</time>
      </trkpt>
      <trkpt lat="50.07537" lon="4.19536">
        <ele>186.2</ele>
        <time>2024-04-29T05:26:46Z</time>
      </trkpt>
      <trkpt lat="50.07541" lon="4.19527">
        <ele>186</ele>
        <time>2024-04-29T05:26:47Z</time>
      </trkpt>
      <trkpt lat="50.07545" lon="4.19516">
        <ele>185.8</ele>
        <time>2024-04-29T05:26:48Z</time>
      </trkpt>
      <trkpt lat="50.07549" lon="4.19506">
        <ele>185.8</ele>
        <time>2024-04-29T05:26:49Z</time>
      </trkpt>
      <trkpt lat="50.07553" lon="4.19495">
        <ele>185.6</ele>
        <time>2024-04-29T05:26:50Z</time>
      </trkpt>
      <trkpt lat="50.07556" lon="4.19485">
        <ele>185.4</ele>
        <time>2024-04-29T05:26:51Z</time>
      </trkpt>
      <trkpt lat="50.0756" lon="4.19474">
        <ele>185.2</ele>
        <time>2024-04-29T05:26:52Z</time>
      </trkpt>
      <trkpt lat="50.07563" lon="4.19464">
        <ele>185.2</ele>
        <time>2024-04-29T05:26:53Z</time>
      </trkpt>
      <trkpt lat="50.07567" lon="4.19454">
        <ele>185</ele>
        <time>2024-04-29T05:26:54Z</time>
      </trkpt>
      <trkpt lat="50.07571" lon="4.19445">
        <ele>184.8</ele>
        <time>2024-04-29T05:26:55Z</time>
      </trkpt>
      <trkpt lat="50.07575" lon="4.19435">
        <ele>184.8</ele>
        <time>2024-04-29T05:26:56Z</time>
      </trkpt>
      <trkpt lat="50.07579" lon="4.19426">
        <ele>185</ele>
        <time>2024-04-29T05:26:57Z</time>
      </trkpt>
      <trkpt lat="50.07583" lon="4.19417">
        <ele>184.8</ele>
        <time>2024-04-29T05:26:58Z</time>
      </trkpt>
      <trkpt lat="50.07587" lon="4.19408">
        <ele>184.8</ele>
        <time>2024-04-29T05:26:59Z</time>
      </trkpt>
      <trkpt lat="50.07592" lon="4.19399">
        <ele>184.8</ele>
        <time>2024-04-29T05:27:00Z</time>
      </trkpt>
      <trkpt lat="50.07598" lon="4.19391">
        <ele>184.8</ele>
        <time>2024-04-29T05:27:01Z</time>
      </trkpt>
      <trkpt lat="50.07603" lon="4.19384">
        <ele>184.8</ele>
        <time>2024-04-29T05:27:02Z</time>
      </trkpt>
      <trkpt lat="50.07609" lon="4.19377">
        <ele>184.6</ele>
        <time>2024-04-29T05:27:03Z</time>
      </trkpt>
      <trkpt lat="50.07615" lon="4.19372">
        <ele>184.6</ele>
        <time>2024-04-29T05:27:04Z</time>
      </trkpt>
      <trkpt lat="50.07621" lon="4.19367">
        <ele>184.6</ele>
        <time>2024-04-29T05:27:05Z</time>
      </trkpt>
      <trkpt lat="50.07627" lon="4.19363">
        <ele>184.6</ele>
        <time>2024-04-29T05:27:06Z</time>
      </trkpt>
      <trkpt lat="50.07633" lon="4.19358">
        <ele>184.6</ele>
        <time>2024-04-29T05:27:07Z</time>
      </trkpt>
      <trkpt lat="50.07639" lon="4.19354">
        <ele>184.6</ele>
        <time>2024-04-29T05:27:08Z</time>
      </trkpt>
      <trkpt lat="50.07645" lon="4.19349">
        <ele>184.6</ele>
        <time>2024-04-29T05:27:09Z</time>
      </trkpt>
      <trkpt lat="50.07651" lon="4.19344">
        <ele>184.6</ele>
        <time>2024-04-29T05:27:10Z</time>
      </trkpt>
      <trkpt lat="50.07657" lon="4.19339">
        <ele>184.8</ele>
        <time>2024-04-29T05:27:11Z</time>
      </trkpt>
      <trkpt lat="50.07662" lon="4.19334">
        <ele>184.8</ele>
        <time>2024-04-29T05:27:12Z</time>
      </trkpt>
      <trkpt lat="50.07668" lon="4.1933">
        <ele>184.8</ele>
        <time>2024-04-29T05:27:13Z</time>
      </trkpt>
      <trkpt lat="50.07673" lon="4.19325">
        <ele>184.8</ele>
        <time>2024-04-29T05:27:14Z</time>
      </trkpt>
      <trkpt lat="50.07679" lon="4.1932">
        <ele>185</ele>
        <time>2024-04-29T05:27:15Z</time>
      </trkpt>
      <trkpt lat="50.07685" lon="4.19316">
        <ele>185</ele>
        <time>2024-04-29T05:27:16Z</time>
      </trkpt>
      <trkpt lat="50.0769" lon="4.19311">
        <ele>185.4</ele>
        <time>2024-04-29T05:27:17Z</time>
      </trkpt>
      <trkpt lat="50.07696" lon="4.19307">
        <ele>185.8</ele>
        <time>2024-04-29T05:27:18Z</time>
      </trkpt>
      <trkpt lat="50.07702" lon="4.19303">
        <ele>186.2</ele>
        <time>2024-04-29T05:27:19Z</time>
      </trkpt>
      <trkpt lat="50.07708" lon="4.19299">
        <ele>186.6</ele>
        <time>2024-04-29T05:27:20Z</time>
      </trkpt>
      <trkpt lat="50.07713" lon="4.19296">
        <ele>186.8</ele>
        <time>2024-04-29T05:27:21Z</time>
      </trkpt>
      <trkpt lat="50.07719" lon="4.19293">
        <ele>187.2</ele>
        <time>2024-04-29T05:27:22Z</time>
      </trkpt>
      <trkpt lat="50.07725" lon="4.1929">
        <ele>187.4</ele>
        <time>2024-04-29T05:27:23Z</time>
      </trkpt>
      <trkpt lat="50.0773" lon="4.19287">
        <ele>188</ele>
        <time>2024-04-29T05:27:24Z</time>
      </trkpt>
      <trkpt lat="50.07736" lon="4.19284">
        <ele>188.2</ele>
        <time>2024-04-29T05:27:25Z</time>
      </trkpt>
      <trkpt lat="50.07742" lon="4.1928">
        <ele>188.8</ele>
        <time>2024-04-29T05:27:26Z</time>
      </trkpt>
      <trkpt lat="50.07748" lon="4.19276">
        <ele>189</ele>
        <time>2024-04-29T05:27:27Z</time>
      </trkpt>
      <trkpt lat="50.07753" lon="4.19272">
        <ele>189.2</ele>
        <time>2024-04-29T05:27:28Z</time>
      </trkpt>
      <trkpt lat="50.0776" lon="4.19268">
        <ele>189.2</ele>
        <time>2024-04-29T05:27:29Z</time>
      </trkpt>
      <trkpt lat="50.07766" lon="4.19264">
        <ele>189.4</ele>
        <time>2024-04-29T05:27:30Z</time>
      </trkpt>
      <trkpt lat="50.07772" lon="4.19259">
        <ele>189.8</ele>
        <time>2024-04-29T05:27:31Z</time>
      </trkpt>
      <trkpt lat="50.07778" lon="4.19254">
        <ele>190.2</ele>
        <time>2024-04-29T05:27:32Z</time>
      </trkpt>
      <trkpt lat="50.07785" lon="4.19249">
        <ele>190.6</ele>
        <time>2024-04-29T05:27:33Z</time>
      </trkpt>
      <trkpt lat="50.07792" lon="4.19244">
        <ele>190.6</ele>
        <time>2024-04-29T05:27:34Z</time>
      </trkpt>
      <trkpt lat="50.07798" lon="4.19239">
        <ele>191</ele>
        <time>2024-04-29T05:27:35Z</time>
      </trkpt>
      <trkpt lat="50.07804" lon="4.19233">
        <ele>190.8</ele>
        <time>2024-04-29T05:27:36Z</time>
      </trkpt>
      <trkpt lat="50.07811" lon="4.19228">
        <ele>190.8</ele>
        <time>2024-04-29T05:27:37Z</time>
      </trkpt>
      <trkpt lat="50.07817" lon="4.19223">
        <ele>191</ele>
        <time>2024-04-29T05:27:38Z</time>
      </trkpt>
      <trkpt lat="50.07823" lon="4.19218">
        <ele>191</ele>
        <time>2024-04-29T05:27:39Z</time>
      </trkpt>
      <trkpt lat="50.0783" lon="4.19213">
        <ele>191.2</ele>
        <time>2024-04-29T05:27:40Z</time>
      </trkpt>
      <trkpt lat="50.07836" lon="4.19208">
        <ele>191</ele>
        <time>2024-04-29T05:27:41Z</time>
      </trkpt>
      <trkpt lat="50.07843" lon="4.19202">
        <ele>191</ele>
        <time>2024-04-29T05:27:42Z</time>
      </trkpt>
      <trkpt lat="50.07849" lon="4.19198">
        <ele>191</ele>
        <time>2024-04-29T05:27:43Z</time>
      </trkpt>
      <trkpt lat="50.07856" lon="4.19193">
        <ele>191</ele>
        <time>2024-04-29T05:27:44Z</time>
      </trkpt>
      <trkpt lat="50.07863" lon="4.19188">
        <ele>190.8</ele>
        <time>2024-04-29T05:27:45Z</time>
      </trkpt>
      <trkpt lat="50.07869" lon="4.19183">
        <ele>190.6</ele>
        <time>2024-04-29T05:27:46Z</time>
      </trkpt>
      <trkpt lat="50.07876" lon="4.19179">
        <ele>190.6</ele>
        <time>2024-04-29T05:27:47Z</time>
      </trkpt>
      <trkpt lat="50.07883" lon="4.19174">
        <ele>190.4</ele>
        <time>2024-04-29T05:27:48Z</time>
      </trkpt>
      <trkpt lat="50.0789" lon="4.1917">
        <ele>190.4</ele>
        <time>2024-04-29T05:27:49Z</time>
      </trkpt>
      <trkpt lat="50.07898" lon="4.19165">
        <ele>190.4</ele>
        <time>2024-04-29T05:27:50Z</time>
      </trkpt>
      <trkpt lat="50.07905" lon="4.19161">
        <ele>190.2</ele>
        <time>2024-04-29T05:27:51Z</time>
      </trkpt>
      <trkpt lat="50.07913" lon="4.19156">
        <ele>190</ele>
        <time>2024-04-29T05:27:52Z</time>
      </trkpt>
      <trkpt lat="50.0792" lon="4.19151">
        <ele>190</ele>
        <time>2024-04-29T05:27:53Z</time>
      </trkpt>
      <trkpt lat="50.07928" lon="4.19146">
        <ele>189.6</ele>
        <time>2024-04-29T05:27:54Z</time>
      </trkpt>
      <trkpt lat="50.07936" lon="4.19141">
        <ele>189.4</ele>
        <time>2024-04-29T05:27:55Z</time>
      </trkpt>
      <trkpt lat="50.07943" lon="4.19136">
        <ele>189.2</ele>
        <time>2024-04-29T05:27:56Z</time>
      </trkpt>
      <trkpt lat="50.07951" lon="4.19131">
        <ele>189</ele>
        <time>2024-04-29T05:27:57Z</time>
      </trkpt>
      <trkpt lat="50.07959" lon="4.19126">
        <ele>188.4</ele>
        <time>2024-04-29T05:27:58Z</time>
      </trkpt>
      <trkpt lat="50.07966" lon="4.19122">
        <ele>188.2</ele>
        <time>2024-04-29T05:27:59Z</time>
      </trkpt>
      <trkpt lat="50.07974" lon="4.19118">
        <ele>187.8</ele>
        <time>2024-04-29T05:28:00Z</time>
      </trkpt>
      <trkpt lat="50.07981" lon="4.19114">
        <ele>187.6</ele>
        <time>2024-04-29T05:28:01Z</time>
      </trkpt>
      <trkpt lat="50.07989" lon="4.19111">
        <ele>187</ele>
        <time>2024-04-29T05:28:02Z</time>
      </trkpt>
      <trkpt lat="50.07996" lon="4.19108">
        <ele>187</ele>
        <time>2024-04-29T05:28:03Z</time>
      </trkpt>
      <trkpt lat="50.08004" lon="4.19105">
        <ele>186.6</ele>
        <time>2024-04-29T05:28:04Z</time>
      </trkpt>
      <trkpt lat="50.08011" lon="4.19103">
        <ele>186.2</ele>
        <time>2024-04-29T05:28:05Z</time>
      </trkpt>
      <trkpt lat="50.08018" lon="4.19101">
        <ele>186</ele>
        <time>2024-04-29T05:28:06Z</time>
      </trkpt>
      <trkpt lat="50.08025" lon="4.19099">
        <ele>186</ele>
        <time>2024-04-29T05:28:07Z</time>
      </trkpt>
      <trkpt lat="50.08033" lon="4.19097">
        <ele>186</ele>
        <time>2024-04-29T05:28:08Z</time>
      </trkpt>
      <trkpt lat="50.0804" lon="4.19095">
        <ele>185.8</ele>
        <time>2024-04-29T05:28:09Z</time>
      </trkpt>
      <trkpt lat="50.08047" lon="4.19094">
        <ele>186</ele>
        <time>2024-04-29T05:28:10Z</time>
      </trkpt>
      <trkpt lat="50.08054" lon="4.19093">
        <ele>186</ele>
        <time>2024-04-29T05:28:11Z</time>
      </trkpt>
      <trkpt lat="50.08061" lon="4.19092">
        <ele>186</ele>
        <time>2024-04-29T05:28:12Z</time>
      </trkpt>
      <trkpt lat="50.08068" lon="4.19092">
        <ele>185.8</ele>
        <time>2024-04-29T05:28:13Z</time>
      </trkpt>
      <trkpt lat="50.08076" lon="4.19091">
        <ele>185.8</ele>
        <time>2024-04-29T05:28:14Z</time>
      </trkpt>
      <trkpt lat="50.08083" lon="4.19091">
        <ele>185.6</ele>
        <time>2024-04-29T05:28:15Z</time>
      </trkpt>
      <trkpt lat="50.0809" lon="4.1909">
        <ele>185.6</ele>
        <time>2024-04-29T05:28:16Z</time>
      </trkpt>
      <trkpt lat="50.08098" lon="4.1909">
        <ele>185.6</ele>
        <time>2024-04-29T05:28:17Z</time>
      </trkpt>
      <trkpt lat="50.08105" lon="4.19089">
        <ele>185.6</ele>
        <time>2024-04-29T05:28:18Z</time>
      </trkpt>
      <trkpt lat="50.08112" lon="4.19089">
        <ele>185.6</ele>
        <time>2024-04-29T05:28:19Z</time>
      </trkpt>
      <trkpt lat="50.08119" lon="4.19088">
        <ele>185.4</ele>
        <time>2024-04-29T05:28:20Z</time>
      </trkpt>
      <trkpt lat="50.08127" lon="4.19087">
        <ele>185.4</ele>
        <time>2024-04-29T05:28:21Z</time>
      </trkpt>
      <trkpt lat="50.08134" lon="4.19086">
        <ele>185.4</ele>
        <time>2024-04-29T05:28:22Z</time>
      </trkpt>
      <trkpt lat="50.08141" lon="4.19086">
        <ele>185.4</ele>
        <time>2024-04-29T05:28:23Z</time>
      </trkpt>
      <trkpt lat="50.08148" lon="4.19085">
        <ele>185.4</ele>
        <time>2024-04-29T05:28:24Z</time>
      </trkpt>
      <trkpt lat="50.08155" lon="4.19085">
        <ele>185.2</ele>
        <time>2024-04-29T05:28:25Z</time>
      </trkpt>
      <trkpt lat="50.08162" lon="4.19085">
        <ele>185.2</ele>
        <time>2024-04-29T05:28:26Z</time>
      </trkpt>
      <trkpt lat="50.0817" lon="4.19085">
        <ele>185.2</ele>
        <time>2024-04-29T05:28:27Z</time>
      </trkpt>
      <trkpt lat="50.08177" lon="4.19087">
        <ele>185.2</ele>
        <time>2024-04-29T05:28:28Z</time>
      </trkpt>
      <trkpt lat="50.08183" lon="4.19088">
        <ele>185.2</ele>
        <time>2024-04-29T05:28:29Z</time>
      </trkpt>
      <trkpt lat="50.0819" lon="4.1909">
        <ele>185</ele>
        <time>2024-04-29T05:28:30Z</time>
      </trkpt>
      <trkpt lat="50.08196" lon="4.19093">
        <ele>185.2</ele>
        <time>2024-04-29T05:28:31Z</time>
      </trkpt>
      <trkpt lat="50.08203" lon="4.19095">
        <ele>185.2</ele>
        <time>2024-04-29T05:28:32Z</time>
      </trkpt>
      <trkpt lat="50.08209" lon="4.19099">
        <ele>185.2</ele>
        <time>2024-04-29T05:28:33Z</time>
      </trkpt>
      <trkpt lat="50.08215" lon="4.19102">
        <ele>185.2</ele>
        <time>2024-04-29T05:28:34Z</time>
      </trkpt>
      <trkpt lat="50.08222" lon="4.19106">
        <ele>185.2</ele>
        <time>2024-04-29T05:28:35Z</time>
      </trkpt>
      <trkpt lat="50.08228" lon="4.19109">
        <ele>185.6</ele>
        <time>2024-04-29T05:28:36Z</time>
      </trkpt>
      <trkpt lat="50.08234" lon="4.19113">
        <ele>186</ele>
        <time>2024-04-29T05:28:37Z</time>
      </trkpt>
      <trkpt lat="50.0824" lon="4.19117">
        <ele>186.4</ele>
        <time>2024-04-29T05:28:38Z</time>
      </trkpt>
      <trkpt lat="50.08247" lon="4.19121">
        <ele>186.6</ele>
        <time>2024-04-29T05:28:39Z</time>
      </trkpt>
      <trkpt lat="50.08253" lon="4.19124">
        <ele>186.8</ele>
        <time>2024-04-29T05:28:40Z</time>
      </trkpt>
      <trkpt lat="50.08259" lon="4.19128">
        <ele>187</ele>
        <time>2024-04-29T05:28:41Z</time>
      </trkpt>
      <trkpt lat="50.08266" lon="4.19132">
        <ele>187</ele>
        <time>2024-04-29T05:28:42Z</time>
      </trkpt>
      <trkpt lat="50.08272" lon="4.19137">
        <ele>187.2</ele>
        <time>2024-04-29T05:28:43Z</time>
      </trkpt>
      <trkpt lat="50.08278" lon="4.19141">
        <ele>187.2</ele>
        <time>2024-04-29T05:28:44Z</time>
      </trkpt>
      <trkpt lat="50.08284" lon="4.19145">
        <ele>187.2</ele>
        <time>2024-04-29T05:28:45Z</time>
      </trkpt>
      <trkpt lat="50.0829" lon="4.1915">
        <ele>187.4</ele>
        <time>2024-04-29T05:28:46Z</time>
      </trkpt>
      <trkpt lat="50.08296" lon="4.19154">
        <ele>187.6</ele>
        <time>2024-04-29T05:28:47Z</time>
      </trkpt>
      <trkpt lat="50.08302" lon="4.19159">
        <ele>187.8</ele>
        <time>2024-04-29T05:28:48Z</time>
      </trkpt>
      <trkpt lat="50.08308" lon="4.19164">
        <ele>188</ele>
        <time>2024-04-29T05:28:49Z</time>
      </trkpt>
      <trkpt lat="50.08314" lon="4.19168">
        <ele>188.2</ele>
        <time>2024-04-29T05:28:50Z</time>
      </trkpt>
      <trkpt lat="50.08321" lon="4.19172">
        <ele>188.2</ele>
        <time>2024-04-29T05:28:51Z</time>
      </trkpt>
      <trkpt lat="50.08327" lon="4.19176">
        <ele>188.2</ele>
        <time>2024-04-29T05:28:52Z</time>
      </trkpt>
      <trkpt lat="50.08333" lon="4.1918">
        <ele>188.4</ele>
        <time>2024-04-29T05:28:53Z</time>
      </trkpt>
      <trkpt lat="50.08339" lon="4.19184">
        <ele>188.6</ele>
        <time>2024-04-29T05:28:54Z</time>
      </trkpt>
      <trkpt lat="50.08346" lon="4.19186">
        <ele>188.6</ele>
        <time>2024-04-29T05:28:55Z</time>
      </trkpt>
      <trkpt lat="50.08352" lon="4.19189">
        <ele>188.4</ele>
        <time>2024-04-29T05:28:56Z</time>
      </trkpt>
      <trkpt lat="50.08359" lon="4.19192">
        <ele>188.8</ele>
        <time>2024-04-29T05:28:57Z</time>
      </trkpt>
      <trkpt lat="50.08365" lon="4.19194">
        <ele>188.8</ele>
        <time>2024-04-29T05:28:58Z</time>
      </trkpt>
      <trkpt lat="50.08372" lon="4.19196">
        <ele>189</ele>
        <time>2024-04-29T05:28:59Z</time>
      </trkpt>
      <trkpt lat="50.08378" lon="4.19197">
        <ele>189.4</ele>
        <time>2024-04-29T05:29:00Z</time>
      </trkpt>
      <trkpt lat="50.08384" lon="4.19199">
        <ele>189.4</ele>
        <time>2024-04-29T05:29:01Z</time>
      </trkpt>
      <trkpt lat="50.08391" lon="4.19201">
        <ele>189.6</ele>
        <time>2024-04-29T05:29:02Z</time>
      </trkpt>
      <trkpt lat="50.08398" lon="4.19202">
        <ele>189.8</ele>
        <time>2024-04-29T05:29:03Z</time>
      </trkpt>
      <trkpt lat="50.08405" lon="4.19204">
        <ele>189.8</ele>
        <time>2024-04-29T05:29:04Z</time>
      </trkpt>
      <trkpt lat="50.08411" lon="4.19205">
        <ele>190.2</ele>
        <time>2024-04-29T05:29:05Z</time>
      </trkpt>
      <trkpt lat="50.08418" lon="4.19206">
        <ele>190.6</ele>
        <time>2024-04-29T05:29:06Z</time>
      </trkpt>
      <trkpt lat="50.08425" lon="4.19208">
        <ele>190.8</ele>
        <time>2024-04-29T05:29:07Z</time>
      </trkpt>
      <trkpt lat="50.08432" lon="4.1921">
        <ele>191.2</ele>
        <time>2024-04-29T05:29:08Z</time>
      </trkpt>
      <trkpt lat="50.08438" lon="4.19211">
        <ele>191</ele>
        <time>2024-04-29T05:29:09Z</time>
      </trkpt>
      <trkpt lat="50.08445" lon="4.19213">
        <ele>191.4</ele>
        <time>2024-04-29T05:29:10Z</time>
      </trkpt>
      <trkpt lat="50.08452" lon="4.19215">
        <ele>191.4</ele>
        <time>2024-04-29T05:29:11Z</time>
      </trkpt>
      <trkpt lat="50.08459" lon="4.19217">
        <ele>191.8</ele>
        <time>2024-04-29T05:29:12Z</time>
      </trkpt>
      <trkpt lat="50.08466" lon="4.19219">
        <ele>191.8</ele>
        <time>2024-04-29T05:29:13Z</time>
      </trkpt>
      <trkpt lat="50.08474" lon="4.19222">
        <ele>192</ele>
        <time>2024-04-29T05:29:14Z</time>
      </trkpt>
      <trkpt lat="50.08481" lon="4.19225">
        <ele>192.4</ele>
        <time>2024-04-29T05:29:15Z</time>
      </trkpt>
      <trkpt lat="50.08488" lon="4.19229">
        <ele>192.2</ele>
        <time>2024-04-29T05:29:16Z</time>
      </trkpt>
      <trkpt lat="50.08495" lon="4.19232">
        <ele>192.2</ele>
        <time>2024-04-29T05:29:17Z</time>
      </trkpt>
      <trkpt lat="50.08502" lon="4.19236">
        <ele>192.4</ele>
        <time>2024-04-29T05:29:18Z</time>
      </trkpt>
      <trkpt lat="50.0851" lon="4.1924">
        <ele>192.2</ele>
        <time>2024-04-29T05:29:19Z</time>
      </trkpt>
      <trkpt lat="50.08517" lon="4.19244">
        <ele>192.2</ele>
        <time>2024-04-29T05:29:20Z</time>
      </trkpt>
      <trkpt lat="50.08524" lon="4.19249">
        <ele>192.4</ele>
        <time>2024-04-29T05:29:21Z</time>
      </trkpt>
      <trkpt lat="50.08532" lon="4.19253">
        <ele>192.4</ele>
        <time>2024-04-29T05:29:22Z</time>
      </trkpt>
      <trkpt lat="50.0854" lon="4.19258">
        <ele>192.4</ele>
        <time>2024-04-29T05:29:23Z</time>
      </trkpt>
      <trkpt lat="50.08548" lon="4.19263">
        <ele>192.4</ele>
        <time>2024-04-29T05:29:24Z</time>
      </trkpt>
      <trkpt lat="50.08556" lon="4.19267">
        <ele>192</ele>
        <time>2024-04-29T05:29:25Z</time>
      </trkpt>
      <trkpt lat="50.08564" lon="4.19272">
        <ele>191.8</ele>
        <time>2024-04-29T05:29:26Z</time>
      </trkpt>
      <trkpt lat="50.08573" lon="4.19277">
        <ele>191.6</ele>
        <time>2024-04-29T05:29:27Z</time>
      </trkpt>
      <trkpt lat="50.08581" lon="4.19282">
        <ele>191.4</ele>
        <time>2024-04-29T05:29:28Z</time>
      </trkpt>
      <trkpt lat="50.08589" lon="4.19287">
        <ele>191</ele>
        <time>2024-04-29T05:29:29Z</time>
      </trkpt>
      <trkpt lat="50.08598" lon="4.19291">
        <ele>190.2</ele>
        <time>2024-04-29T05:29:30Z</time>
      </trkpt>
      <trkpt lat="50.08606" lon="4.19296">
        <ele>190</ele>
        <time>2024-04-29T05:29:31Z</time>
      </trkpt>
      <trkpt lat="50.08615" lon="4.193">
        <ele>189.6</ele>
        <time>2024-04-29T05:29:32Z</time>
      </trkpt>
      <trkpt lat="50.08623" lon="4.19303">
        <ele>189.2</ele>
        <time>2024-04-29T05:29:33Z</time>
      </trkpt>
      <trkpt lat="50.08631" lon="4.19307">
        <ele>189</ele>
        <time>2024-04-29T05:29:34Z</time>
      </trkpt>
      <trkpt lat="50.08639" lon="4.1931">
        <ele>188.6</ele>
        <time>2024-04-29T05:29:35Z</time>
      </trkpt>
      <trkpt lat="50.08647" lon="4.19314">
        <ele>188.2</ele>
        <time>2024-04-29T05:29:36Z</time>
      </trkpt>
      <trkpt lat="50.08656" lon="4.19317">
        <ele>187.6</ele>
        <time>2024-04-29T05:29:37Z</time>
      </trkpt>
      <trkpt lat="50.08665" lon="4.1932">
        <ele>186.6</ele>
        <time>2024-04-29T05:29:38Z</time>
      </trkpt>
      <trkpt lat="50.08674" lon="4.19323">
        <ele>185.8</ele>
        <time>2024-04-29T05:29:39Z</time>
      </trkpt>
      <trkpt lat="50.08683" lon="4.19326">
        <ele>185.8</ele>
        <time>2024-04-29T05:29:40Z</time>
      </trkpt>
      <trkpt lat="50.08692" lon="4.19329">
        <ele>185.2</ele>
        <time>2024-04-29T05:29:41Z</time>
      </trkpt>
      <trkpt lat="50.08701" lon="4.19331">
        <ele>184.8</ele>
        <time>2024-04-29T05:29:42Z</time>
      </trkpt>
      <trkpt lat="50.0871" lon="4.19333">
        <ele>184.2</ele>
        <time>2024-04-29T05:29:43Z</time>
      </trkpt>
      <trkpt lat="50.08719" lon="4.19334">
        <ele>184.2</ele>
        <time>2024-04-29T05:29:44Z</time>
      </trkpt>
      <trkpt lat="50.08727" lon="4.19335">
        <ele>183.8</ele>
        <time>2024-04-29T05:29:45Z</time>
      </trkpt>
      <trkpt lat="50.08736" lon="4.19335">
        <ele>183.8</ele>
        <time>2024-04-29T05:29:46Z</time>
      </trkpt>
      <trkpt lat="50.08745" lon="4.19334">
        <ele>183.6</ele>
        <time>2024-04-29T05:29:47Z</time>
      </trkpt>
      <trkpt lat="50.08753" lon="4.19334">
        <ele>183.4</ele>
        <time>2024-04-29T05:29:48Z</time>
      </trkpt>
      <trkpt lat="50.08762" lon="4.19333">
        <ele>183.2</ele>
        <time>2024-04-29T05:29:49Z</time>
      </trkpt>
      <trkpt lat="50.0877" lon="4.19332">
        <ele>183</ele>
        <time>2024-04-29T05:29:50Z</time>
      </trkpt>
      <trkpt lat="50.08778" lon="4.19331">
        <ele>182.8</ele>
        <time>2024-04-29T05:29:51Z</time>
      </trkpt>
      <trkpt lat="50.08786" lon="4.1933">
        <ele>182.6</ele>
        <time>2024-04-29T05:29:52Z</time>
      </trkpt>
      <trkpt lat="50.08794" lon="4.1933">
        <ele>182.4</ele>
        <time>2024-04-29T05:29:53Z</time>
      </trkpt>
      <trkpt lat="50.08802" lon="4.19329">
        <ele>182.2</ele>
        <time>2024-04-29T05:29:54Z</time>
      </trkpt>
      <trkpt lat="50.0881" lon="4.19328">
        <ele>182</ele>
        <time>2024-04-29T05:29:55Z</time>
      </trkpt>
      <trkpt lat="50.08817" lon="4.19327">
        <ele>182</ele>
        <time>2024-04-29T05:29:56Z</time>
      </trkpt>
      <trkpt lat="50.08825" lon="4.19327">
        <ele>181.8</ele>
        <time>2024-04-29T05:29:57Z</time>
      </trkpt>
      <trkpt lat="50.08833" lon="4.19325">
        <ele>181.8</ele>
        <time>2024-04-29T05:29:58Z</time>
      </trkpt>
      <trkpt lat="50.0884" lon="4.19324">
        <ele>181.6</ele>
        <time>2024-04-29T05:29:59Z</time>
      </trkpt>
      <trkpt lat="50.08848" lon="4.19323">
        <ele>181.6</ele>
        <time>2024-04-29T05:30:00Z</time>
      </trkpt>
      <trkpt lat="50.08855" lon="4.19322">
        <ele>181.6</ele>
        <time>2024-04-29T05:30:01Z</time>
      </trkpt>
      <trkpt lat="50.08863" lon="4.19321">
        <ele>181.6</ele>
        <time>2024-04-29T05:30:02Z</time>
      </trkpt>
      <trkpt lat="50.08871" lon="4.1932">
        <ele>181.4</ele>
        <time>2024-04-29T05:30:03Z</time>
      </trkpt>
      <trkpt lat="50.08878" lon="4.19319">
        <ele>181.6</ele>
        <time>2024-04-29T05:30:04Z</time>
      </trkpt>
      <trkpt lat="50.08886" lon="4.19318">
        <ele>181.6</ele>
        <time>2024-04-29T05:30:05Z</time>
      </trkpt>
      <trkpt lat="50.08893" lon="4.19318">
        <ele>181.6</ele>
        <time>2024-04-29T05:30:06Z</time>
      </trkpt>
      <trkpt lat="50.08901" lon="4.19318">
        <ele>181.6</ele>
        <time>2024-04-29T05:30:07Z</time>
      </trkpt>
      <trkpt lat="50.08908" lon="4.19319">
        <ele>181.4</ele>
        <time>2024-04-29T05:30:08Z</time>
      </trkpt>
      <trkpt lat="50.08916" lon="4.19321">
        <ele>181.6</ele>
        <time>2024-04-29T05:30:09Z</time>
      </trkpt>
      <trkpt lat="50.08923" lon="4.19324">
        <ele>181.6</ele>
        <time>2024-04-29T05:30:10Z</time>
      </trkpt>
      <trkpt lat="50.0893" lon="4.19327">
        <ele>181.6</ele>
        <time>2024-04-29T05:30:11Z</time>
      </trkpt>
      <trkpt lat="50.08937" lon="4.1933">
        <ele>181.6</ele>
        <time>2024-04-29T05:30:12Z</time>
      </trkpt>
      <trkpt lat="50.08944" lon="4.19333">
        <ele>181.8</ele>
        <time>2024-04-29T05:30:13Z</time>
      </trkpt>
      <trkpt lat="50.08951" lon="4.19336">
        <ele>181.8</ele>
        <time>2024-04-29T05:30:14Z</time>
      </trkpt>
      <trkpt lat="50.08958" lon="4.19338">
        <ele>182</ele>
        <time>2024-04-29T05:30:15Z</time>
      </trkpt>
      <trkpt lat="50.08965" lon="4.19341">
        <ele>182</ele>
        <time>2024-04-29T05:30:16Z</time>
      </trkpt>
      <trkpt lat="50.08971" lon="4.19344">
        <ele>182</ele>
        <time>2024-04-29T05:30:17Z</time>
      </trkpt>
      <trkpt lat="50.08978" lon="4.19347">
        <ele>182</ele>
        <time>2024-04-29T05:30:18Z</time>
      </trkpt>
      <trkpt lat="50.08984" lon="4.1935">
        <ele>182</ele>
        <time>2024-04-29T05:30:19Z</time>
      </trkpt>
      <trkpt lat="50.08991" lon="4.19352">
        <ele>182</ele>
        <time>2024-04-29T05:30:20Z</time>
      </trkpt>
      <trkpt lat="50.08998" lon="4.19355">
        <ele>182.4</ele>
        <time>2024-04-29T05:30:21Z</time>
      </trkpt>
      <trkpt lat="50.09004" lon="4.19357">
        <ele>182.6</ele>
        <time>2024-04-29T05:30:22Z</time>
      </trkpt>
      <trkpt lat="50.09011" lon="4.19359">
        <ele>182.6</ele>
        <time>2024-04-29T05:30:23Z</time>
      </trkpt>
      <trkpt lat="50.09018" lon="4.1936">
        <ele>183.2</ele>
        <time>2024-04-29T05:30:24Z</time>
      </trkpt>
      <trkpt lat="50.09024" lon="4.19361">
        <ele>183.8</ele>
        <time>2024-04-29T05:30:25Z</time>
      </trkpt>
      <trkpt lat="50.09031" lon="4.19362">
        <ele>184.4</ele>
        <time>2024-04-29T05:30:26Z</time>
      </trkpt>
      <trkpt lat="50.09038" lon="4.19362">
        <ele>184.8</ele>
        <time>2024-04-29T05:30:27Z</time>
      </trkpt>
      <trkpt lat="50.09045" lon="4.19363">
        <ele>185</ele>
        <time>2024-04-29T05:30:28Z</time>
      </trkpt>
      <trkpt lat="50.09051" lon="4.19363">
        <ele>185.4</ele>
        <time>2024-04-29T05:30:29Z</time>
      </trkpt>
      <trkpt lat="50.09058" lon="4.19363">
        <ele>185.6</ele>
        <time>2024-04-29T05:30:30Z</time>
      </trkpt>
      <trkpt lat="50.09065" lon="4.19363">
        <ele>185.6</ele>
        <time>2024-04-29T05:30:31Z</time>
      </trkpt>
      <trkpt lat="50.09072" lon="4.19363">
        <ele>185.8</ele>
        <time>2024-04-29T05:30:32Z</time>
      </trkpt>
      <trkpt lat="50.09078" lon="4.19363">
        <ele>186</ele>
        <time>2024-04-29T05:30:33Z</time>
      </trkpt>
      <trkpt lat="50.09085" lon="4.19362">
        <ele>186.2</ele>
        <time>2024-04-29T05:30:34Z</time>
      </trkpt>
      <trkpt lat="50.09092" lon="4.19362">
        <ele>186.4</ele>
        <time>2024-04-29T05:30:35Z</time>
      </trkpt>
      <trkpt lat="50.09099" lon="4.19362">
        <ele>186.4</ele>
        <time>2024-04-29T05:30:36Z</time>
      </trkpt>
      <trkpt lat="50.09105" lon="4.19362">
        <ele>186.6</ele>
        <time>2024-04-29T05:30:37Z</time>
      </trkpt>
      <trkpt lat="50.09112" lon="4.19362">
        <ele>186.6</ele>
        <time>2024-04-29T05:30:38Z</time>
      </trkpt>
      <trkpt lat="50.09119" lon="4.19363">
        <ele>186.8</ele>
        <time>2024-04-29T05:30:39Z</time>
      </trkpt>
      <trkpt lat="50.09126" lon="4.19363">
        <ele>187</ele>
        <time>2024-04-29T05:30:40Z</time>
      </trkpt>
      <trkpt lat="50.09133" lon="4.19363">
        <ele>187.2</ele>
        <time>2024-04-29T05:30:41Z</time>
      </trkpt>
      <trkpt lat="50.0914" lon="4.19364">
        <ele>187.2</ele>
        <time>2024-04-29T05:30:42Z</time>
      </trkpt>
      <trkpt lat="50.09146" lon="4.19364">
        <ele>187.4</ele>
        <time>2024-04-29T05:30:43Z</time>
      </trkpt>
      <trkpt lat="50.09153" lon="4.19364">
        <ele>187.4</ele>
        <time>2024-04-29T05:30:44Z</time>
      </trkpt>
      <trkpt lat="50.09161" lon="4.19364">
        <ele>187.4</ele>
        <time>2024-04-29T05:30:45Z</time>
      </trkpt>
      <trkpt lat="50.09168" lon="4.19363">
        <ele>187.4</ele>
        <time>2024-04-29T05:30:46Z</time>
      </trkpt>
      <trkpt lat="50.09175" lon="4.19363">
        <ele>187.4</ele>
        <time>2024-04-29T05:30:47Z</time>
      </trkpt>
      <trkpt lat="50.09182" lon="4.19363">
        <ele>187.6</ele>
        <time>2024-04-29T05:30:48Z</time>
      </trkpt>
      <trkpt lat="50.0919" lon="4.19362">
        <ele>187.6</ele>
        <time>2024-04-29T05:30:49Z</time>
      </trkpt>
      <trkpt lat="50.09197" lon="4.19361">
        <ele>187.6</ele>
        <time>2024-04-29T05:30:50Z</time>
      </trkpt>
      <trkpt lat="50.09204" lon="4.1936">
        <ele>187.4</ele>
        <time>2024-04-29T05:30:51Z</time>
      </trkpt>
      <trkpt lat="50.09212" lon="4.19358">
        <ele>187.4</ele>
        <time>2024-04-29T05:30:52Z</time>
      </trkpt>
      <trkpt lat="50.09219" lon="4.19356">
        <ele>187.6</ele>
        <time>2024-04-29T05:30:53Z</time>
      </trkpt>
      <trkpt lat="50.09226" lon="4.19354">
        <ele>187.4</ele>
        <time>2024-04-29T05:30:54Z</time>
      </trkpt>
      <trkpt lat="50.09233" lon="4.19351">
        <ele>187.4</ele>
        <time>2024-04-29T05:30:55Z</time>
      </trkpt>
      <trkpt lat="50.09241" lon="4.19349">
        <ele>187.4</ele>
        <time>2024-04-29T05:30:56Z</time>
      </trkpt>
      <trkpt lat="50.09248" lon="4.19346">
        <ele>187.4</ele>
        <time>2024-04-29T05:30:57Z</time>
      </trkpt>
      <trkpt lat="50.09255" lon="4.19344">
        <ele>187.2</ele>
        <time>2024-04-29T05:30:58Z</time>
      </trkpt>
      <trkpt lat="50.09262" lon="4.19341">
        <ele>187</ele>
        <time>2024-04-29T05:30:59Z</time>
      </trkpt>
      <trkpt lat="50.0927" lon="4.19338">
        <ele>187</ele>
        <time>2024-04-29T05:31:00Z</time>
      </trkpt>
      <trkpt lat="50.09277" lon="4.19336">
        <ele>186.8</ele>
        <time>2024-04-29T05:31:01Z</time>
      </trkpt>
      <trkpt lat="50.09284" lon="4.19335">
        <ele>186.6</ele>
        <time>2024-04-29T05:31:02Z</time>
      </trkpt>
      <trkpt lat="50.09291" lon="4.19333">
        <ele>186.6</ele>
        <time>2024-04-29T05:31:03Z</time>
      </trkpt>
      <trkpt lat="50.09299" lon="4.19332">
        <ele>186.4</ele>
        <time>2024-04-29T05:31:04Z</time>
      </trkpt>
      <trkpt lat="50.09306" lon="4.19332">
        <ele>186.2</ele>
        <time>2024-04-29T05:31:05Z</time>
      </trkpt>
      <trkpt lat="50.09314" lon="4.19331">
        <ele>186.2</ele>
        <time>2024-04-29T05:31:06Z</time>
      </trkpt>
      <trkpt lat="50.09321" lon="4.19331">
        <ele>186.2</ele>
        <time>2024-04-29T05:31:07Z</time>
      </trkpt>
      <trkpt lat="50.09328" lon="4.19332">
        <ele>186</ele>
        <time>2024-04-29T05:31:08Z</time>
      </trkpt>
      <trkpt lat="50.09335" lon="4.19332">
        <ele>185.8</ele>
        <time>2024-04-29T05:31:09Z</time>
      </trkpt>
      <trkpt lat="50.09343" lon="4.19333">
        <ele>185.6</ele>
        <time>2024-04-29T05:31:10Z</time>
      </trkpt>
      <trkpt lat="50.0935" lon="4.19334">
        <ele>185.6</ele>
        <time>2024-04-29T05:31:11Z</time>
      </trkpt>
      <trkpt lat="50.09357" lon="4.19335">
        <ele>185.4</ele>
        <time>2024-04-29T05:31:12Z</time>
      </trkpt>
      <trkpt lat="50.09364" lon="4.19337">
        <ele>185.2</ele>
        <time>2024-04-29T05:31:13Z</time>
      </trkpt>
      <trkpt lat="50.09371" lon="4.19341">
        <ele>185.2</ele>
        <time>2024-04-29T05:31:14Z</time>
      </trkpt>
      <trkpt lat="50.09378" lon="4.19346">
        <ele>185.2</ele>
        <time>2024-04-29T05:31:15Z</time>
      </trkpt>
      <trkpt lat="50.09385" lon="4.19351">
        <ele>185</ele>
        <time>2024-04-29T05:31:16Z</time>
      </trkpt>
      <trkpt lat="50.09392" lon="4.19358">
        <ele>184.8</ele>
        <time>2024-04-29T05:31:17Z</time>
      </trkpt>
      <trkpt lat="50.09398" lon="4.19365">
        <ele>184.6</ele>
        <time>2024-04-29T05:31:18Z</time>
      </trkpt>
      <trkpt lat="50.09404" lon="4.19373">
        <ele>184.2</ele>
        <time>2024-04-29T05:31:19Z</time>
      </trkpt>
      <trkpt lat="50.09409" lon="4.19381">
        <ele>183.8</ele>
        <time>2024-04-29T05:31:20Z</time>
      </trkpt>
      <trkpt lat="50.09415" lon="4.19389">
        <ele>183.8</ele>
        <time>2024-04-29T05:31:21Z</time>
      </trkpt>
      <trkpt lat="50.0942" lon="4.19397">
        <ele>183.6</ele>
        <time>2024-04-29T05:31:22Z</time>
      </trkpt>
      <trkpt lat="50.09425" lon="4.19406">
        <ele>183.6</ele>
        <time>2024-04-29T05:31:23Z</time>
      </trkpt>
      <trkpt lat="50.0943" lon="4.19414">
        <ele>183.6</ele>
        <time>2024-04-29T05:31:24Z</time>
      </trkpt>
      <trkpt lat="50.09435" lon="4.19423">
        <ele>183.6</ele>
        <time>2024-04-29T05:31:25Z</time>
      </trkpt>
      <trkpt lat="50.0944" lon="4.19431">
        <ele>183.4</ele>
        <time>2024-04-29T05:31:26Z</time>
      </trkpt>
      <trkpt lat="50.09445" lon="4.1944">
        <ele>183.4</ele>
        <time>2024-04-29T05:31:27Z</time>
      </trkpt>
      <trkpt lat="50.09451" lon="4.19448">
        <ele>183.4</ele>
        <time>2024-04-29T05:31:28Z</time>
      </trkpt>
      <trkpt lat="50.09456" lon="4.19456">
        <ele>183.4</ele>
        <time>2024-04-29T05:31:29Z</time>
      </trkpt>
      <trkpt lat="50.09461" lon="4.19465">
        <ele>183.2</ele>
        <time>2024-04-29T05:31:30Z</time>
      </trkpt>
      <trkpt lat="50.09466" lon="4.19473">
        <ele>183.2</ele>
        <time>2024-04-29T05:31:31Z</time>
      </trkpt>
      <trkpt lat="50.09471" lon="4.19481">
        <ele>183.2</ele>
        <time>2024-04-29T05:31:32Z</time>
      </trkpt>
      <trkpt lat="50.09476" lon="4.1949">
        <ele>183</ele>
        <time>2024-04-29T05:31:33Z</time>
      </trkpt>
      <trkpt lat="50.0948" lon="4.19498">
        <ele>182.8</ele>
        <time>2024-04-29T05:31:34Z</time>
      </trkpt>
      <trkpt lat="50.09485" lon="4.19506">
        <ele>182.8</ele>
        <time>2024-04-29T05:31:35Z</time>
      </trkpt>
      <trkpt lat="50.0949" lon="4.19515">
        <ele>183</ele>
        <time>2024-04-29T05:31:36Z</time>
      </trkpt>
      <trkpt lat="50.09494" lon="4.19523">
        <ele>182.8</ele>
        <time>2024-04-29T05:31:37Z</time>
      </trkpt>
      <trkpt lat="50.09499" lon="4.19531">
        <ele>183</ele>
        <time>2024-04-29T05:31:38Z</time>
      </trkpt>
      <trkpt lat="50.09505" lon="4.19537">
        <ele>182.8</ele>
        <time>2024-04-29T05:31:39Z</time>
      </trkpt>
      <trkpt lat="50.09511" lon="4.19543">
        <ele>182.8</ele>
        <time>2024-04-29T05:31:40Z</time>
      </trkpt>
      <trkpt lat="50.09518" lon="4.19548">
        <ele>182.8</ele>
        <time>2024-04-29T05:31:41Z</time>
      </trkpt>
      <trkpt lat="50.09524" lon="4.19551">
        <ele>182.8</ele>
        <time>2024-04-29T05:31:42Z</time>
      </trkpt>
      <trkpt lat="50.09531" lon="4.19553">
        <ele>182.6</ele>
        <time>2024-04-29T05:31:43Z</time>
      </trkpt>
      <trkpt lat="50.09539" lon="4.19554">
        <ele>182.4</ele>
        <time>2024-04-29T05:31:44Z</time>
      </trkpt>
      <trkpt lat="50.09547" lon="4.19554">
        <ele>182.6</ele>
        <time>2024-04-29T05:31:45Z</time>
      </trkpt>
      <trkpt lat="50.09555" lon="4.19554">
        <ele>182.4</ele>
        <time>2024-04-29T05:31:46Z</time>
      </trkpt>
      <trkpt lat="50.09563" lon="4.19554">
        <ele>182.4</ele>
        <time>2024-04-29T05:31:47Z</time>
      </trkpt>
      <trkpt lat="50.09571" lon="4.19554">
        <ele>182.4</ele>
        <time>2024-04-29T05:31:48Z</time>
      </trkpt>
      <trkpt lat="50.09579" lon="4.19553">
        <ele>182.4</ele>
        <time>2024-04-29T05:31:49Z</time>
      </trkpt>
      <trkpt lat="50.09588" lon="4.19552">
        <ele>182.4</ele>
        <time>2024-04-29T05:31:50Z</time>
      </trkpt>
      <trkpt lat="50.09596" lon="4.1955">
        <ele>182.4</ele>
        <time>2024-04-29T05:31:51Z</time>
      </trkpt>
      <trkpt lat="50.09603" lon="4.19546">
        <ele>182.2</ele>
        <time>2024-04-29T05:31:52Z</time>
      </trkpt>
      <trkpt lat="50.09611" lon="4.19541">
        <ele>181.8</ele>
        <time>2024-04-29T05:31:53Z</time>
      </trkpt>
      <trkpt lat="50.09618" lon="4.19535">
        <ele>181.4</ele>
        <time>2024-04-29T05:31:54Z</time>
      </trkpt>
      <trkpt lat="50.09624" lon="4.19527">
        <ele>181.2</ele>
        <time>2024-04-29T05:31:55Z</time>
      </trkpt>
      <trkpt lat="50.09629" lon="4.19519">
        <ele>180.8</ele>
        <time>2024-04-29T05:31:56Z</time>
      </trkpt>
      <trkpt lat="50.09635" lon="4.1951">
        <ele>180.6</ele>
        <time>2024-04-29T05:31:57Z</time>
      </trkpt>
      <trkpt lat="50.09641" lon="4.19502">
        <ele>180.4</ele>
        <time>2024-04-29T05:31:58Z</time>
      </trkpt>
      <trkpt lat="50.09646" lon="4.19494">
        <ele>180.2</ele>
        <time>2024-04-29T05:31:59Z</time>
      </trkpt>
      <trkpt lat="50.09652" lon="4.19487">
        <ele>180.2</ele>
        <time>2024-04-29T05:32:00Z</time>
      </trkpt>
      <trkpt lat="50.09658" lon="4.1948">
        <ele>180</ele>
        <time>2024-04-29T05:32:01Z</time>
      </trkpt>
      <trkpt lat="50.09664" lon="4.19474">
        <ele>179.8</ele>
        <time>2024-04-29T05:32:02Z</time>
      </trkpt>
      <trkpt lat="50.0967" lon="4.19468">
        <ele>179.6</ele>
        <time>2024-04-29T05:32:03Z</time>
      </trkpt>
      <trkpt lat="50.09676" lon="4.19462">
        <ele>179.6</ele>
        <time>2024-04-29T05:32:04Z</time>
      </trkpt>
      <trkpt lat="50.09682" lon="4.19456">
        <ele>179.4</ele>
        <time>2024-04-29T05:32:05Z</time>
      </trkpt>
      <trkpt lat="50.09688" lon="4.1945">
        <ele>179.2</ele>
        <time>2024-04-29T05:32:06Z</time>
      </trkpt>
      <trkpt lat="50.09694" lon="4.19444">
        <ele>178.8</ele>
        <time>2024-04-29T05:32:07Z</time>
      </trkpt>
      <trkpt lat="50.097" lon="4.19438">
        <ele>178.6</ele>
        <time>2024-04-29T05:32:08Z</time>
      </trkpt>
      <trkpt lat="50.09706" lon="4.19432">
        <ele>178.6</ele>
        <time>2024-04-29T05:32:09Z</time>
      </trkpt>
      <trkpt lat="50.09712" lon="4.19426">
        <ele>178.6</ele>
        <time>2024-04-29T05:32:10Z</time>
      </trkpt>
      <trkpt lat="50.09718" lon="4.19421">
        <ele>178.6</ele>
        <time>2024-04-29T05:32:11Z</time>
      </trkpt>
      <trkpt lat="50.09724" lon="4.19417">
        <ele>178.4</ele>
        <time>2024-04-29T05:32:12Z</time>
      </trkpt>
      <trkpt lat="50.09731" lon="4.19413">
        <ele>178.4</ele>
        <time>2024-04-29T05:32:13Z</time>
      </trkpt>
      <trkpt lat="50.09738" lon="4.1941">
        <ele>178.2</ele>
        <time>2024-04-29T05:32:14Z</time>
      </trkpt>
      <trkpt lat="50.09745" lon="4.19409">
        <ele>178.2</ele>
        <time>2024-04-29T05:32:15Z</time>
      </trkpt>
      <trkpt lat="50.09752" lon="4.19408">
        <ele>178.2</ele>
        <time>2024-04-29T05:32:16Z</time>
      </trkpt>
      <trkpt lat="50.09759" lon="4.19408">
        <ele>178.4</ele>
        <time>2024-04-29T05:32:17Z</time>
      </trkpt>
      <trkpt lat="50.09766" lon="4.19408">
        <ele>178.2</ele>
        <time>2024-04-29T05:32:18Z</time>
      </trkpt>
      <trkpt lat="50.09773" lon="4.19409">
        <ele>178.2</ele>
        <time>2024-04-29T05:32:19Z</time>
      </trkpt>
      <trkpt lat="50.0978" lon="4.19409">
        <ele>178.2</ele>
        <time>2024-04-29T05:32:20Z</time>
      </trkpt>
      <trkpt lat="50.09787" lon="4.19409">
        <ele>178.2</ele>
        <time>2024-04-29T05:32:21Z</time>
      </trkpt>
      <trkpt lat="50.09794" lon="4.19409">
        <ele>178.2</ele>
        <time>2024-04-29T05:32:22Z</time>
      </trkpt>
      <trkpt lat="50.09801" lon="4.19409">
        <ele>178.4</ele>
        <time>2024-04-29T05:32:23Z</time>
      </trkpt>
      <trkpt lat="50.09809" lon="4.19409">
        <ele>178.2</ele>
        <time>2024-04-29T05:32:24Z</time>
      </trkpt>
      <trkpt lat="50.09816" lon="4.19409">
        <ele>178.2</ele>
        <time>2024-04-29T05:32:25Z</time>
      </trkpt>
      <trkpt lat="50.09823" lon="4.1941">
        <ele>178.4</ele>
        <time>2024-04-29T05:32:26Z</time>
      </trkpt>
      <trkpt lat="50.0983" lon="4.1941">
        <ele>178.2</ele>
        <time>2024-04-29T05:32:27Z</time>
      </trkpt>
      <trkpt lat="50.09837" lon="4.1941">
        <ele>178.2</ele>
        <time>2024-04-29T05:32:28Z</time>
      </trkpt>
      <trkpt lat="50.09844" lon="4.1941">
        <ele>178.4</ele>
        <time>2024-04-29T05:32:29Z</time>
      </trkpt>
      <trkpt lat="50.09851" lon="4.19411">
        <ele>178.2</ele>
        <time>2024-04-29T05:32:30Z</time>
      </trkpt>
      <trkpt lat="50.09858" lon="4.19411">
        <ele>178.4</ele>
        <time>2024-04-29T05:32:31Z</time>
      </trkpt>
      <trkpt lat="50.09865" lon="4.19411">
        <ele>178.4</ele>
        <time>2024-04-29T05:32:32Z</time>
      </trkpt>
      <trkpt lat="50.09871" lon="4.19411">
        <ele>178.4</ele>
        <time>2024-04-29T05:32:33Z</time>
      </trkpt>
      <trkpt lat="50.09878" lon="4.19411">
        <ele>178.2</ele>
        <time>2024-04-29T05:32:34Z</time>
      </trkpt>
      <trkpt lat="50.09884" lon="4.19411">
        <ele>178.4</ele>
        <time>2024-04-29T05:32:35Z</time>
      </trkpt>
      <trkpt lat="50.09891" lon="4.19411">
        <ele>178.6</ele>
        <time>2024-04-29T05:32:36Z</time>
      </trkpt>
      <trkpt lat="50.09897" lon="4.19411">
        <ele>178.8</ele>
        <time>2024-04-29T05:32:37Z</time>
      </trkpt>
      <trkpt lat="50.09904" lon="4.19411">
        <ele>178.8</ele>
        <time>2024-04-29T05:32:38Z</time>
      </trkpt>
      <trkpt lat="50.0991" lon="4.19411">
        <ele>179</ele>
        <time>2024-04-29T05:32:39Z</time>
      </trkpt>
      <trkpt lat="50.09916" lon="4.1941">
        <ele>179</ele>
        <time>2024-04-29T05:32:40Z</time>
      </trkpt>
      <trkpt lat="50.09922" lon="4.19409">
        <ele>180</ele>
        <time>2024-04-29T05:32:41Z</time>
      </trkpt>
      <trkpt lat="50.09929" lon="4.19409">
        <ele>180.4</ele>
        <time>2024-04-29T05:32:42Z</time>
      </trkpt>
      <trkpt lat="50.09935" lon="4.19408">
        <ele>181</ele>
        <time>2024-04-29T05:32:43Z</time>
      </trkpt>
      <trkpt lat="50.09941" lon="4.19407">
        <ele>181.4</ele>
        <time>2024-04-29T05:32:44Z</time>
      </trkpt>
      <trkpt lat="50.09947" lon="4.19406">
        <ele>181.6</ele>
        <time>2024-04-29T05:32:45Z</time>
      </trkpt>
      <trkpt lat="50.09954" lon="4.19406">
        <ele>182</ele>
        <time>2024-04-29T05:32:46Z</time>
      </trkpt>
      <trkpt lat="50.0996" lon="4.19405">
        <ele>182.4</ele>
        <time>2024-04-29T05:32:47Z</time>
      </trkpt>
      <trkpt lat="50.09967" lon="4.19404">
        <ele>183</ele>
        <time>2024-04-29T05:32:48Z</time>
      </trkpt>
      <trkpt lat="50.09973" lon="4.19404">
        <ele>183.4</ele>
        <time>2024-04-29T05:32:49Z</time>
      </trkpt>
      <trkpt lat="50.09979" lon="4.19403">
        <ele>183.6</ele>
        <time>2024-04-29T05:32:50Z</time>
      </trkpt>
      <trkpt lat="50.09985" lon="4.19402">
        <ele>184</ele>
        <time>2024-04-29T05:32:51Z</time>
      </trkpt>
      <trkpt lat="50.09991" lon="4.19402">
        <ele>184.4</ele>
        <time>2024-04-29T05:32:52Z</time>
      </trkpt>
      <trkpt lat="50.09998" lon="4.19401">
        <ele>184.4</ele>
        <time>2024-04-29T05:32:53Z</time>
      </trkpt>
      <trkpt lat="50.10004" lon="4.194">
        <ele>184.4</ele>
        <time>2024-04-29T05:32:54Z</time>
      </trkpt>
      <trkpt lat="50.1001" lon="4.19399">
        <ele>184.6</ele>
        <time>2024-04-29T05:32:55Z</time>
      </trkpt>
      <trkpt lat="50.10016" lon="4.19398">
        <ele>184.8</ele>
        <time>2024-04-29T05:32:56Z</time>
      </trkpt>
      <trkpt lat="50.10022" lon="4.19396">
        <ele>185.2</ele>
        <time>2024-04-29T05:32:57Z</time>
      </trkpt>
      <trkpt lat="50.10029" lon="4.19394">
        <ele>185.4</ele>
        <time>2024-04-29T05:32:58Z</time>
      </trkpt>
      <trkpt lat="50.10035" lon="4.19392">
        <ele>185.8</ele>
        <time>2024-04-29T05:32:59Z</time>
      </trkpt>
      <trkpt lat="50.10042" lon="4.19389">
        <ele>186.2</ele>
        <time>2024-04-29T05:33:00Z</time>
      </trkpt>
      <trkpt lat="50.10048" lon="4.19386">
        <ele>186.4</ele>
        <time>2024-04-29T05:33:01Z</time>
      </trkpt>
      <trkpt lat="50.10055" lon="4.19382">
        <ele>186.6</ele>
        <time>2024-04-29T05:33:02Z</time>
      </trkpt>
      <trkpt lat="50.10061" lon="4.19378">
        <ele>186.6</ele>
        <time>2024-04-29T05:33:03Z</time>
      </trkpt>
      <trkpt lat="50.10067" lon="4.19374">
        <ele>186.6</ele>
        <time>2024-04-29T05:33:04Z</time>
      </trkpt>
      <trkpt lat="50.10074" lon="4.19369">
        <ele>186.6</ele>
        <time>2024-04-29T05:33:05Z</time>
      </trkpt>
      <trkpt lat="50.1008" lon="4.19365">
        <ele>186.8</ele>
        <time>2024-04-29T05:33:06Z</time>
      </trkpt>
      <trkpt lat="50.10086" lon="4.1936">
        <ele>186.8</ele>
        <time>2024-04-29T05:33:07Z</time>
      </trkpt>
      <trkpt lat="50.10092" lon="4.19354">
        <ele>186.8</ele>
        <time>2024-04-29T05:33:08Z</time>
      </trkpt>
      <trkpt lat="50.10099" lon="4.19349">
        <ele>186.8</ele>
        <time>2024-04-29T05:33:09Z</time>
      </trkpt>
      <trkpt lat="50.10105" lon="4.19344">
        <ele>186.8</ele>
        <time>2024-04-29T05:33:10Z</time>
      </trkpt>
      <trkpt lat="50.10112" lon="4.19339">
        <ele>186.6</ele>
        <time>2024-04-29T05:33:11Z</time>
      </trkpt>
      <trkpt lat="50.1012" lon="4.19334">
        <ele>186.6</ele>
        <time>2024-04-29T05:33:12Z</time>
      </trkpt>
      <trkpt lat="50.10127" lon="4.19331">
        <ele>186.6</ele>
        <time>2024-04-29T05:33:13Z</time>
      </trkpt>
      <trkpt lat="50.10135" lon="4.19328">
        <ele>186.6</ele>
        <time>2024-04-29T05:33:14Z</time>
      </trkpt>
      <trkpt lat="50.10143" lon="4.19326">
        <ele>186.4</ele>
        <time>2024-04-29T05:33:15Z</time>
      </trkpt>
      <trkpt lat="50.10152" lon="4.19324">
        <ele>186.4</ele>
        <time>2024-04-29T05:33:16Z</time>
      </trkpt>
      <trkpt lat="50.1016" lon="4.19323">
        <ele>186.2</ele>
        <time>2024-04-29T05:33:17Z</time>
      </trkpt>
      <trkpt lat="50.10168" lon="4.19322">
        <ele>186.4</ele>
        <time>2024-04-29T05:33:18Z</time>
      </trkpt>
      <trkpt lat="50.10177" lon="4.19322">
        <ele>186</ele>
        <time>2024-04-29T05:33:19Z</time>
      </trkpt>
      <trkpt lat="50.10185" lon="4.19322">
        <ele>186</ele>
        <time>2024-04-29T05:33:20Z</time>
      </trkpt>
      <trkpt lat="50.10193" lon="4.19322">
        <ele>185.8</ele>
        <time>2024-04-29T05:33:21Z</time>
      </trkpt>
      <trkpt lat="50.10202" lon="4.19322">
        <ele>185.6</ele>
        <time>2024-04-29T05:33:22Z</time>
      </trkpt>
      <trkpt lat="50.1021" lon="4.19322">
        <ele>185.4</ele>
        <time>2024-04-29T05:33:23Z</time>
      </trkpt>
      <trkpt lat="50.10218" lon="4.19322">
        <ele>185</ele>
        <time>2024-04-29T05:33:24Z</time>
      </trkpt>
      <trkpt lat="50.10226" lon="4.19323">
        <ele>184.4</ele>
        <time>2024-04-29T05:33:25Z</time>
      </trkpt>
      <trkpt lat="50.10234" lon="4.19323">
        <ele>184</ele>
        <time>2024-04-29T05:33:26Z</time>
      </trkpt>
      <trkpt lat="50.10243" lon="4.19323">
        <ele>183.4</ele>
        <time>2024-04-29T05:33:27Z</time>
      </trkpt>
      <trkpt lat="50.10251" lon="4.19323">
        <ele>183.4</ele>
        <time>2024-04-29T05:33:28Z</time>
      </trkpt>
      <trkpt lat="50.10259" lon="4.19323">
        <ele>183</ele>
        <time>2024-04-29T05:33:29Z</time>
      </trkpt>
      <trkpt lat="50.10267" lon="4.19323">
        <ele>182.8</ele>
        <time>2024-04-29T05:33:30Z</time>
      </trkpt>
      <trkpt lat="50.10275" lon="4.19323">
        <ele>182.2</ele>
        <time>2024-04-29T05:33:31Z</time>
      </trkpt>
      <trkpt lat="50.10283" lon="4.19323">
        <ele>182.2</ele>
        <time>2024-04-29T05:33:32Z</time>
      </trkpt>
      <trkpt lat="50.10291" lon="4.19323">
        <ele>182</ele>
        <time>2024-04-29T05:33:33Z</time>
      </trkpt>
      <trkpt lat="50.103" lon="4.19322">
        <ele>181.8</ele>
        <time>2024-04-29T05:33:34Z</time>
      </trkpt>
      <trkpt lat="50.10308" lon="4.19322">
        <ele>181.8</ele>
        <time>2024-04-29T05:33:35Z</time>
      </trkpt>
      <trkpt lat="50.10316" lon="4.19322">
        <ele>181.6</ele>
        <time>2024-04-29T05:33:36Z</time>
      </trkpt>
      <trkpt lat="50.10325" lon="4.19322">
        <ele>181.6</ele>
        <time>2024-04-29T05:33:37Z</time>
      </trkpt>
      <trkpt lat="50.10333" lon="4.19322">
        <ele>181.6</ele>
        <time>2024-04-29T05:33:38Z</time>
      </trkpt>
      <trkpt lat="50.10342" lon="4.19322">
        <ele>181.2</ele>
        <time>2024-04-29T05:33:39Z</time>
      </trkpt>
      <trkpt lat="50.10351" lon="4.19322">
        <ele>181.2</ele>
        <time>2024-04-29T05:33:40Z</time>
      </trkpt>
      <trkpt lat="50.1036" lon="4.19322">
        <ele>181</ele>
        <time>2024-04-29T05:33:41Z</time>
      </trkpt>
      <trkpt lat="50.10368" lon="4.19322">
        <ele>181</ele>
        <time>2024-04-29T05:33:42Z</time>
      </trkpt>
      <trkpt lat="50.10377" lon="4.19322">
        <ele>180.8</ele>
        <time>2024-04-29T05:33:43Z</time>
      </trkpt>
      <trkpt lat="50.10386" lon="4.19322">
        <ele>181</ele>
        <time>2024-04-29T05:33:44Z</time>
      </trkpt>
      <trkpt lat="50.10395" lon="4.19322">
        <ele>180.8</ele>
        <time>2024-04-29T05:33:45Z</time>
      </trkpt>
      <trkpt lat="50.10403" lon="4.19322">
        <ele>180.8</ele>
        <time>2024-04-29T05:33:46Z</time>
      </trkpt>
      <trkpt lat="50.10412" lon="4.19322">
        <ele>180.6</ele>
        <time>2024-04-29T05:33:47Z</time>
      </trkpt>
      <trkpt lat="50.1042" lon="4.19323">
        <ele>180</ele>
        <time>2024-04-29T05:33:48Z</time>
      </trkpt>
      <trkpt lat="50.10428" lon="4.19324">
        <ele>179.4</ele>
        <time>2024-04-29T05:33:49Z</time>
      </trkpt>
      <trkpt lat="50.10437" lon="4.19325">
        <ele>179.2</ele>
        <time>2024-04-29T05:33:50Z</time>
      </trkpt>
      <trkpt lat="50.10445" lon="4.19327">
        <ele>178.8</ele>
        <time>2024-04-29T05:33:51Z</time>
      </trkpt>
      <trkpt lat="50.10453" lon="4.19328">
        <ele>178.8</ele>
        <time>2024-04-29T05:33:52Z</time>
      </trkpt>
      <trkpt lat="50.1046" lon="4.19329">
        <ele>178.8</ele>
        <time>2024-04-29T05:33:53Z</time>
      </trkpt>
      <trkpt lat="50.10468" lon="4.19331">
        <ele>178.6</ele>
        <time>2024-04-29T05:33:54Z</time>
      </trkpt>
      <trkpt lat="50.10476" lon="4.19332">
        <ele>178.4</ele>
        <time>2024-04-29T05:33:55Z</time>
      </trkpt>
      <trkpt lat="50.10483" lon="4.19333">
        <ele>178</ele>
        <time>2024-04-29T05:33:56Z</time>
      </trkpt>
      <trkpt lat="50.10491" lon="4.19334">
        <ele>178</ele>
        <time>2024-04-29T05:33:57Z</time>
      </trkpt>
      <trkpt lat="50.10498" lon="4.19335">
        <ele>178</ele>
        <time>2024-04-29T05:33:58Z</time>
      </trkpt>
      <trkpt lat="50.10506" lon="4.19336">
        <ele>178</ele>
        <time>2024-04-29T05:33:59Z</time>
      </trkpt>
      <trkpt lat="50.10513" lon="4.19337">
        <ele>178</ele>
        <time>2024-04-29T05:34:00Z</time>
      </trkpt>
      <trkpt lat="50.1052" lon="4.19338">
        <ele>177.8</ele>
        <time>2024-04-29T05:34:01Z</time>
      </trkpt>
      <trkpt lat="50.10527" lon="4.19339">
        <ele>178</ele>
        <time>2024-04-29T05:34:02Z</time>
      </trkpt>
      <trkpt lat="50.10535" lon="4.1934">
        <ele>178.2</ele>
        <time>2024-04-29T05:34:03Z</time>
      </trkpt>
      <trkpt lat="50.10542" lon="4.19342">
        <ele>178.4</ele>
        <time>2024-04-29T05:34:04Z</time>
      </trkpt>
      <trkpt lat="50.10549" lon="4.19343">
        <ele>178.2</ele>
        <time>2024-04-29T05:34:05Z</time>
      </trkpt>
      <trkpt lat="50.10557" lon="4.19345">
        <ele>178.6</ele>
        <time>2024-04-29T05:34:06Z</time>
      </trkpt>
      <trkpt lat="50.10564" lon="4.19347">
        <ele>178.6</ele>
        <time>2024-04-29T05:34:07Z</time>
      </trkpt>
      <trkpt lat="50.10572" lon="4.19348">
        <ele>178.8</ele>
        <time>2024-04-29T05:34:08Z</time>
      </trkpt>
      <trkpt lat="50.10581" lon="4.19349">
        <ele>178.8</ele>
        <time>2024-04-29T05:34:09Z</time>
      </trkpt>
      <trkpt lat="50.10589" lon="4.19349">
        <ele>178.8</ele>
        <time>2024-04-29T05:34:10Z</time>
      </trkpt>
      <trkpt lat="50.10597" lon="4.19349">
        <ele>178.8</ele>
        <time>2024-04-29T05:34:11Z</time>
      </trkpt>
      <trkpt lat="50.10606" lon="4.19348">
        <ele>178.8</ele>
        <time>2024-04-29T05:34:12Z</time>
      </trkpt>
      <trkpt lat="50.10614" lon="4.19347">
        <ele>178.8</ele>
        <time>2024-04-29T05:34:13Z</time>
      </trkpt>
      <trkpt lat="50.10623" lon="4.19346">
        <ele>178.8</ele>
        <time>2024-04-29T05:34:14Z</time>
      </trkpt>
      <trkpt lat="50.10631" lon="4.19345">
        <ele>178.8</ele>
        <time>2024-04-29T05:34:15Z</time>
      </trkpt>
      <trkpt lat="50.10639" lon="4.19343">
        <ele>178.8</ele>
        <time>2024-04-29T05:34:16Z</time>
      </trkpt>
      <trkpt lat="50.10647" lon="4.19341">
        <ele>178.8</ele>
        <time>2024-04-29T05:34:17Z</time>
      </trkpt>
      <trkpt lat="50.10655" lon="4.19337">
        <ele>179</ele>
        <time>2024-04-29T05:34:18Z</time>
      </trkpt>
      <trkpt lat="50.10662" lon="4.19332">
        <ele>178.8</ele>
        <time>2024-04-29T05:34:19Z</time>
      </trkpt>
      <trkpt lat="50.10669" lon="4.19326">
        <ele>178.8</ele>
        <time>2024-04-29T05:34:20Z</time>
      </trkpt>
      <trkpt lat="50.10675" lon="4.19318">
        <ele>178.8</ele>
        <time>2024-04-29T05:34:21Z</time>
      </trkpt>
      <trkpt lat="50.10681" lon="4.19309">
        <ele>179</ele>
        <time>2024-04-29T05:34:22Z</time>
      </trkpt>
      <trkpt lat="50.10686" lon="4.193">
        <ele>178.8</ele>
        <time>2024-04-29T05:34:23Z</time>
      </trkpt>
      <trkpt lat="50.10691" lon="4.19292">
        <ele>178.8</ele>
        <time>2024-04-29T05:34:24Z</time>
      </trkpt>
      <trkpt lat="50.10696" lon="4.19283">
        <ele>178.8</ele>
        <time>2024-04-29T05:34:25Z</time>
      </trkpt>
      <trkpt lat="50.10701" lon="4.19275">
        <ele>178.8</ele>
        <time>2024-04-29T05:34:26Z</time>
      </trkpt>
      <trkpt lat="50.10706" lon="4.19266">
        <ele>178.8</ele>
        <time>2024-04-29T05:34:27Z</time>
      </trkpt>
      <trkpt lat="50.1071" lon="4.19258">
        <ele>178.8</ele>
        <time>2024-04-29T05:34:28Z</time>
      </trkpt>
      <trkpt lat="50.10715" lon="4.1925">
        <ele>179</ele>
        <time>2024-04-29T05:34:29Z</time>
      </trkpt>
      <trkpt lat="50.1072" lon="4.19243">
        <ele>179</ele>
        <time>2024-04-29T05:34:30Z</time>
      </trkpt>
      <trkpt lat="50.10724" lon="4.19236">
        <ele>179.2</ele>
        <time>2024-04-29T05:34:31Z</time>
      </trkpt>
      <trkpt lat="50.10729" lon="4.1923">
        <ele>179.2</ele>
        <time>2024-04-29T05:34:32Z</time>
      </trkpt>
      <trkpt lat="50.10735" lon="4.19224">
        <ele>179.2</ele>
        <time>2024-04-29T05:34:33Z</time>
      </trkpt>
      <trkpt lat="50.1074" lon="4.19218">
        <ele>179.4</ele>
        <time>2024-04-29T05:34:34Z</time>
      </trkpt>
      <trkpt lat="50.10744" lon="4.19212">
        <ele>179.6</ele>
        <time>2024-04-29T05:34:35Z</time>
      </trkpt>
      <trkpt lat="50.10749" lon="4.19206">
        <ele>179.6</ele>
        <time>2024-04-29T05:34:36Z</time>
      </trkpt>
      <trkpt lat="50.10754" lon="4.19199">
        <ele>179.8</ele>
        <time>2024-04-29T05:34:37Z</time>
      </trkpt>
      <trkpt lat="50.10758" lon="4.19192">
        <ele>180</ele>
        <time>2024-04-29T05:34:38Z</time>
      </trkpt>
      <trkpt lat="50.10762" lon="4.19185">
        <ele>180.2</ele>
        <time>2024-04-29T05:34:39Z</time>
      </trkpt>
      <trkpt lat="50.10766" lon="4.19177">
        <ele>180.4</ele>
        <time>2024-04-29T05:34:40Z</time>
      </trkpt>
      <trkpt lat="50.1077" lon="4.19169">
        <ele>180.8</ele>
        <time>2024-04-29T05:34:41Z</time>
      </trkpt>
      <trkpt lat="50.10775" lon="4.1916">
        <ele>180.8</ele>
        <time>2024-04-29T05:34:42Z</time>
      </trkpt>
      <trkpt lat="50.10779" lon="4.19151">
        <ele>180.8</ele>
        <time>2024-04-29T05:34:43Z</time>
      </trkpt>
      <trkpt lat="50.10783" lon="4.19142">
        <ele>181.2</ele>
        <time>2024-04-29T05:34:44Z</time>
      </trkpt>
      <trkpt lat="50.10786" lon="4.19133">
        <ele>181.2</ele>
        <time>2024-04-29T05:34:45Z</time>
      </trkpt>
      <trkpt lat="50.1079" lon="4.19123">
        <ele>181.2</ele>
        <time>2024-04-29T05:34:46Z</time>
      </trkpt>
      <trkpt lat="50.10794" lon="4.19113">
        <ele>181.4</ele>
        <time>2024-04-29T05:34:47Z</time>
      </trkpt>
      <trkpt lat="50.10798" lon="4.19101">
        <ele>181.4</ele>
        <time>2024-04-29T05:34:48Z</time>
      </trkpt>
      <trkpt lat="50.10802" lon="4.1909">
        <ele>181.4</ele>
        <time>2024-04-29T05:34:49Z</time>
      </trkpt>
      <trkpt lat="50.10805" lon="4.19078">
        <ele>181.4</ele>
        <time>2024-04-29T05:34:50Z</time>
      </trkpt>
      <trkpt lat="50.10808" lon="4.19065">
        <ele>181.4</ele>
        <time>2024-04-29T05:34:51Z</time>
      </trkpt>
      <trkpt lat="50.10811" lon="4.19052">
        <ele>181.2</ele>
        <time>2024-04-29T05:34:52Z</time>
      </trkpt>
      <trkpt lat="50.10814" lon="4.19039">
        <ele>181.2</ele>
        <time>2024-04-29T05:34:53Z</time>
      </trkpt>
      <trkpt lat="50.10817" lon="4.19026">
        <ele>181.4</ele>
        <time>2024-04-29T05:34:54Z</time>
      </trkpt>
      <trkpt lat="50.10819" lon="4.19013">
        <ele>181.2</ele>
        <time>2024-04-29T05:34:55Z</time>
      </trkpt>
      <trkpt lat="50.10821" lon="4.18999">
        <ele>180.6</ele>
        <time>2024-04-29T05:34:56Z</time>
      </trkpt>
      <trkpt lat="50.10823" lon="4.18985">
        <ele>180.2</ele>
        <time>2024-04-29T05:34:57Z</time>
      </trkpt>
      <trkpt lat="50.10824" lon="4.18972">
        <ele>179.8</ele>
        <time>2024-04-29T05:34:58Z</time>
      </trkpt>
      <trkpt lat="50.10825" lon="4.18958">
        <ele>179.2</ele>
        <time>2024-04-29T05:34:59Z</time>
      </trkpt>
      <trkpt lat="50.10826" lon="4.18944">
        <ele>178.8</ele>
        <time>2024-04-29T05:35:00Z</time>
      </trkpt>
      <trkpt lat="50.10827" lon="4.1893">
        <ele>178.4</ele>
        <time>2024-04-29T05:35:01Z</time>
      </trkpt>
      <trkpt lat="50.10829" lon="4.18917">
        <ele>178.2</ele>
        <time>2024-04-29T05:35:02Z</time>
      </trkpt>
      <trkpt lat="50.10831" lon="4.18904">
        <ele>178</ele>
        <time>2024-04-29T05:35:03Z</time>
      </trkpt>
      <trkpt lat="50.10833" lon="4.18891">
        <ele>178</ele>
        <time>2024-04-29T05:35:04Z</time>
      </trkpt>
      <trkpt lat="50.10837" lon="4.18879">
        <ele>178</ele>
        <time>2024-04-29T05:35:05Z</time>
      </trkpt>
      <trkpt lat="50.1084" lon="4.18867">
        <ele>177.8</ele>
        <time>2024-04-29T05:35:06Z</time>
      </trkpt>
      <trkpt lat="50.10845" lon="4.18857">
        <ele>177.6</ele>
        <time>2024-04-29T05:35:07Z</time>
      </trkpt>
      <trkpt lat="50.10849" lon="4.18847">
        <ele>177.4</ele>
        <time>2024-04-29T05:35:08Z</time>
      </trkpt>
      <trkpt lat="50.10852" lon="4.18837">
        <ele>177.4</ele>
        <time>2024-04-29T05:35:09Z</time>
      </trkpt>
      <trkpt lat="50.10856" lon="4.18827">
        <ele>177.6</ele>
        <time>2024-04-29T05:35:10Z</time>
      </trkpt>
      <trkpt lat="50.1086" lon="4.18817">
        <ele>177.4</ele>
        <time>2024-04-29T05:35:11Z</time>
      </trkpt>
      <trkpt lat="50.10863" lon="4.18808">
        <ele>177.6</ele>
        <time>2024-04-29T05:35:12Z</time>
      </trkpt>
      <trkpt lat="50.10867" lon="4.18799">
        <ele>177.4</ele>
        <time>2024-04-29T05:35:13Z</time>
      </trkpt>
      <trkpt lat="50.10871" lon="4.18791">
        <ele>177.4</ele>
        <time>2024-04-29T05:35:14Z</time>
      </trkpt>
      <trkpt lat="50.10875" lon="4.18782">
        <ele>177.4</ele>
        <time>2024-04-29T05:35:15Z</time>
      </trkpt>
      <trkpt lat="50.10879" lon="4.18774">
        <ele>177.4</ele>
        <time>2024-04-29T05:35:16Z</time>
      </trkpt>
      <trkpt lat="50.10883" lon="4.18766">
        <ele>177.4</ele>
        <time>2024-04-29T05:35:17Z</time>
      </trkpt>
      <trkpt lat="50.10887" lon="4.18757">
        <ele>177.6</ele>
        <time>2024-04-29T05:35:18Z</time>
      </trkpt>
      <trkpt lat="50.10891" lon="4.18749">
        <ele>177.6</ele>
        <time>2024-04-29T05:35:19Z</time>
      </trkpt>
      <trkpt lat="50.10895" lon="4.18741">
        <ele>177.8</ele>
        <time>2024-04-29T05:35:20Z</time>
      </trkpt>
      <trkpt lat="50.10899" lon="4.18732">
        <ele>177.8</ele>
        <time>2024-04-29T05:35:21Z</time>
      </trkpt>
      <trkpt lat="50.10903" lon="4.18724">
        <ele>177.8</ele>
        <time>2024-04-29T05:35:22Z</time>
      </trkpt>
      <trkpt lat="50.10907" lon="4.18715">
        <ele>178.2</ele>
        <time>2024-04-29T05:35:23Z</time>
      </trkpt>
      <trkpt lat="50.10911" lon="4.18706">
        <ele>178.4</ele>
        <time>2024-04-29T05:35:24Z</time>
      </trkpt>
      <trkpt lat="50.10915" lon="4.18698">
        <ele>178.4</ele>
        <time>2024-04-29T05:35:25Z</time>
      </trkpt>
      <trkpt lat="50.10919" lon="4.18689">
        <ele>178.6</ele>
        <time>2024-04-29T05:35:26Z</time>
      </trkpt>
      <trkpt lat="50.10923" lon="4.18681">
        <ele>178.6</ele>
        <time>2024-04-29T05:35:27Z</time>
      </trkpt>
      <trkpt lat="50.10927" lon="4.18673">
        <ele>178.8</ele>
        <time>2024-04-29T05:35:28Z</time>
      </trkpt>
      <trkpt lat="50.10931" lon="4.18664">
        <ele>179.2</ele>
        <time>2024-04-29T05:35:29Z</time>
      </trkpt>
      <trkpt lat="50.10934" lon="4.18656">
        <ele>179.4</ele>
        <time>2024-04-29T05:35:30Z</time>
      </trkpt>
      <trkpt lat="50.10938" lon="4.18647">
        <ele>179.6</ele>
        <time>2024-04-29T05:35:31Z</time>
      </trkpt>
      <trkpt lat="50.10942" lon="4.18639">
        <ele>179.6</ele>
        <time>2024-04-29T05:35:32Z</time>
      </trkpt>
      <trkpt lat="50.10946" lon="4.18631">
        <ele>179.8</ele>
        <time>2024-04-29T05:35:33Z</time>
      </trkpt>
      <trkpt lat="50.1095" lon="4.18623">
        <ele>179.8</ele>
        <time>2024-04-29T05:35:34Z</time>
      </trkpt>
      <trkpt lat="50.10954" lon="4.18615">
        <ele>180.2</ele>
        <time>2024-04-29T05:35:35Z</time>
      </trkpt>
      <trkpt lat="50.10958" lon="4.18607">
        <ele>180</ele>
        <time>2024-04-29T05:35:36Z</time>
      </trkpt>
      <trkpt lat="50.10963" lon="4.186">
        <ele>180</ele>
        <time>2024-04-29T05:35:37Z</time>
      </trkpt>
      <trkpt lat="50.10967" lon="4.18592">
        <ele>180</ele>
        <time>2024-04-29T05:35:38Z</time>
      </trkpt>
      <trkpt lat="50.10972" lon="4.18585">
        <ele>180.2</ele>
        <time>2024-04-29T05:35:39Z</time>
      </trkpt>
      <trkpt lat="50.10977" lon="4.18579">
        <ele>180.4</ele>
        <time>2024-04-29T05:35:40Z</time>
      </trkpt>
      <trkpt lat="50.10982" lon="4.18572">
        <ele>180.6</ele>
        <time>2024-04-29T05:35:41Z</time>
      </trkpt>
      <trkpt lat="50.10986" lon="4.18565">
        <ele>180.6</ele>
        <time>2024-04-29T05:35:42Z</time>
      </trkpt>
      <trkpt lat="50.10991" lon="4.18558">
        <ele>181</ele>
        <time>2024-04-29T05:35:43Z</time>
      </trkpt>
      <trkpt lat="50.10996" lon="4.18551">
        <ele>181.2</ele>
        <time>2024-04-29T05:35:44Z</time>
      </trkpt>
      <trkpt lat="50.11001" lon="4.18544">
        <ele>181.4</ele>
        <time>2024-04-29T05:35:45Z</time>
      </trkpt>
      <trkpt lat="50.11005" lon="4.18537">
        <ele>181.4</ele>
        <time>2024-04-29T05:35:46Z</time>
      </trkpt>
      <trkpt lat="50.1101" lon="4.1853">
        <ele>182</ele>
        <time>2024-04-29T05:35:47Z</time>
      </trkpt>
      <trkpt lat="50.11015" lon="4.18523">
        <ele>182.2</ele>
        <time>2024-04-29T05:35:48Z</time>
      </trkpt>
      <trkpt lat="50.11019" lon="4.18516">
        <ele>182.6</ele>
        <time>2024-04-29T05:35:49Z</time>
      </trkpt>
      <trkpt lat="50.11024" lon="4.18508">
        <ele>183.2</ele>
        <time>2024-04-29T05:35:50Z</time>
      </trkpt>
      <trkpt lat="50.11029" lon="4.18501">
        <ele>183.8</ele>
        <time>2024-04-29T05:35:51Z</time>
      </trkpt>
      <trkpt lat="50.11034" lon="4.18493">
        <ele>184.4</ele>
        <time>2024-04-29T05:35:52Z</time>
      </trkpt>
      <trkpt lat="50.11038" lon="4.18486">
        <ele>184.6</ele>
        <time>2024-04-29T05:35:53Z</time>
      </trkpt>
      <trkpt lat="50.11043" lon="4.18478">
        <ele>185</ele>
        <time>2024-04-29T05:35:54Z</time>
      </trkpt>
      <trkpt lat="50.11047" lon="4.1847">
        <ele>185.4</ele>
        <time>2024-04-29T05:35:55Z</time>
      </trkpt>
      <trkpt lat="50.11051" lon="4.18462">
        <ele>185.6</ele>
        <time>2024-04-29T05:35:56Z</time>
      </trkpt>
      <trkpt lat="50.11056" lon="4.18454">
        <ele>185.8</ele>
        <time>2024-04-29T05:35:57Z</time>
      </trkpt>
      <trkpt lat="50.1106" lon="4.18446">
        <ele>186.2</ele>
        <time>2024-04-29T05:35:58Z</time>
      </trkpt>
      <trkpt lat="50.11064" lon="4.18438">
        <ele>186.2</ele>
        <time>2024-04-29T05:35:59Z</time>
      </trkpt>
      <trkpt lat="50.11068" lon="4.18429">
        <ele>186.2</ele>
        <time>2024-04-29T05:36:00Z</time>
      </trkpt>
      <trkpt lat="50.11073" lon="4.18421">
        <ele>186.6</ele>
        <time>2024-04-29T05:36:01Z</time>
      </trkpt>
      <trkpt lat="50.11077" lon="4.18413">
        <ele>186.6</ele>
        <time>2024-04-29T05:36:02Z</time>
      </trkpt>
      <trkpt lat="50.11083" lon="4.18405">
        <ele>186.8</ele>
        <time>2024-04-29T05:36:03Z</time>
      </trkpt>
      <trkpt lat="50.11088" lon="4.18399">
        <ele>186.8</ele>
        <time>2024-04-29T05:36:04Z</time>
      </trkpt>
      <trkpt lat="50.11094" lon="4.18393">
        <ele>186.8</ele>
        <time>2024-04-29T05:36:05Z</time>
      </trkpt>
      <trkpt lat="50.11101" lon="4.18388">
        <ele>186.8</ele>
        <time>2024-04-29T05:36:06Z</time>
      </trkpt>
      <trkpt lat="50.11107" lon="4.18383">
        <ele>186.8</ele>
        <time>2024-04-29T05:36:07Z</time>
      </trkpt>
      <trkpt lat="50.11114" lon="4.18378">
        <ele>187</ele>
        <time>2024-04-29T05:36:08Z</time>
      </trkpt>
      <trkpt lat="50.11122" lon="4.18373">
        <ele>187</ele>
        <time>2024-04-29T05:36:09Z</time>
      </trkpt>
      <trkpt lat="50.11129" lon="4.18369">
        <ele>186.8</ele>
        <time>2024-04-29T05:36:10Z</time>
      </trkpt>
      <trkpt lat="50.11137" lon="4.18364">
        <ele>186.8</ele>
        <time>2024-04-29T05:36:11Z</time>
      </trkpt>
      <trkpt lat="50.11145" lon="4.1836">
        <ele>187</ele>
        <time>2024-04-29T05:36:12Z</time>
      </trkpt>
      <trkpt lat="50.11154" lon="4.18356">
        <ele>186.8</ele>
        <time>2024-04-29T05:36:13Z</time>
      </trkpt>
      <trkpt lat="50.11163" lon="4.18353">
        <ele>187</ele>
        <time>2024-04-29T05:36:14Z</time>
      </trkpt>
      <trkpt lat="50.11173" lon="4.18351">
        <ele>186.6</ele>
        <time>2024-04-29T05:36:15Z</time>
      </trkpt>
      <trkpt lat="50.11182" lon="4.18349">
        <ele>186.2</ele>
        <time>2024-04-29T05:36:16Z</time>
      </trkpt>
      <trkpt lat="50.11192" lon="4.18346">
        <ele>185.8</ele>
        <time>2024-04-29T05:36:17Z</time>
      </trkpt>
      <trkpt lat="50.11202" lon="4.18344">
        <ele>185.4</ele>
        <time>2024-04-29T05:36:18Z</time>
      </trkpt>
      <trkpt lat="50.11213" lon="4.18342">
        <ele>185</ele>
        <time>2024-04-29T05:36:19Z</time>
      </trkpt>
      <trkpt lat="50.11223" lon="4.18338">
        <ele>184.8</ele>
        <time>2024-04-29T05:36:20Z</time>
      </trkpt>
      <trkpt lat="50.11233" lon="4.18335">
        <ele>184</ele>
        <time>2024-04-29T05:36:21Z</time>
      </trkpt>
      <trkpt lat="50.11243" lon="4.18331">
        <ele>183.8</ele>
        <time>2024-04-29T05:36:22Z</time>
      </trkpt>
      <trkpt lat="50.11252" lon="4.18328">
        <ele>183</ele>
        <time>2024-04-29T05:36:23Z</time>
      </trkpt>
      <trkpt lat="50.11262" lon="4.18324">
        <ele>181.8</ele>
        <time>2024-04-29T05:36:24Z</time>
      </trkpt>
      <trkpt lat="50.1127" lon="4.18321">
        <ele>180.8</ele>
        <time>2024-04-29T05:36:25Z</time>
      </trkpt>
      <trkpt lat="50.11279" lon="4.18317">
        <ele>180.4</ele>
        <time>2024-04-29T05:36:26Z</time>
      </trkpt>
      <trkpt lat="50.11287" lon="4.18313">
        <ele>179.4</ele>
        <time>2024-04-29T05:36:27Z</time>
      </trkpt>
      <trkpt lat="50.11295" lon="4.18309">
        <ele>179</ele>
        <time>2024-04-29T05:36:28Z</time>
      </trkpt>
      <trkpt lat="50.11302" lon="4.18303">
        <ele>179</ele>
        <time>2024-04-29T05:36:29Z</time>
      </trkpt>
      <trkpt lat="50.11309" lon="4.18298">
        <ele>178.8</ele>
        <time>2024-04-29T05:36:30Z</time>
      </trkpt>
      <trkpt lat="50.11316" lon="4.18292">
        <ele>178.6</ele>
        <time>2024-04-29T05:36:31Z</time>
      </trkpt>
      <trkpt lat="50.11322" lon="4.18286">
        <ele>178.4</ele>
        <time>2024-04-29T05:36:32Z</time>
      </trkpt>
      <trkpt lat="50.11329" lon="4.1828">
        <ele>178.4</ele>
        <time>2024-04-29T05:36:33Z</time>
      </trkpt>
      <trkpt lat="50.11335" lon="4.18273">
        <ele>178.4</ele>
        <time>2024-04-29T05:36:34Z</time>
      </trkpt>
      <trkpt lat="50.11342" lon="4.18266">
        <ele>178.2</ele>
        <time>2024-04-29T05:36:35Z</time>
      </trkpt>
      <trkpt lat="50.11349" lon="4.18259">
        <ele>178.2</ele>
        <time>2024-04-29T05:36:36Z</time>
      </trkpt>
      <trkpt lat="50.11356" lon="4.18253">
        <ele>178.2</ele>
        <time>2024-04-29T05:36:37Z</time>
      </trkpt>
      <trkpt lat="50.11364" lon="4.18246">
        <ele>178</ele>
        <time>2024-04-29T05:36:38Z</time>
      </trkpt>
      <trkpt lat="50.11371" lon="4.18239">
        <ele>177.8</ele>
        <time>2024-04-29T05:36:39Z</time>
      </trkpt>
      <trkpt lat="50.11379" lon="4.18232">
        <ele>177.8</ele>
        <time>2024-04-29T05:36:40Z</time>
      </trkpt>
      <trkpt lat="50.11386" lon="4.18225">
        <ele>177.6</ele>
        <time>2024-04-29T05:36:41Z</time>
      </trkpt>
      <trkpt lat="50.11394" lon="4.18219">
        <ele>177.6</ele>
        <time>2024-04-29T05:36:42Z</time>
      </trkpt>
      <trkpt lat="50.11402" lon="4.18213">
        <ele>177.6</ele>
        <time>2024-04-29T05:36:43Z</time>
      </trkpt>
      <trkpt lat="50.11409" lon="4.18207">
        <ele>177.6</ele>
        <time>2024-04-29T05:36:44Z</time>
      </trkpt>
      <trkpt lat="50.11417" lon="4.18201">
        <ele>177.4</ele>
        <time>2024-04-29T05:36:45Z</time>
      </trkpt>
      <trkpt lat="50.11424" lon="4.18196">
        <ele>177.6</ele>
        <time>2024-04-29T05:36:46Z</time>
      </trkpt>
      <trkpt lat="50.11431" lon="4.1819">
        <ele>177.6</ele>
        <time>2024-04-29T05:36:47Z</time>
      </trkpt>
      <trkpt lat="50.11437" lon="4.18185">
        <ele>176.8</ele>
        <time>2024-04-29T05:36:48Z</time>
      </trkpt>
      <trkpt lat="50.11444" lon="4.1818">
        <ele>176.6</ele>
        <time>2024-04-29T05:36:49Z</time>
      </trkpt>
      <trkpt lat="50.1145" lon="4.18175">
        <ele>176.4</ele>
        <time>2024-04-29T05:36:50Z</time>
      </trkpt>
      <trkpt lat="50.11456" lon="4.18171">
        <ele>176.4</ele>
        <time>2024-04-29T05:36:51Z</time>
      </trkpt>
      <trkpt lat="50.11462" lon="4.18166">
        <ele>176.4</ele>
        <time>2024-04-29T05:36:52Z</time>
      </trkpt>
      <trkpt lat="50.11468" lon="4.18162">
        <ele>176.2</ele>
        <time>2024-04-29T05:36:53Z</time>
      </trkpt>
      <trkpt lat="50.11473" lon="4.18156">
        <ele>176.2</ele>
        <time>2024-04-29T05:36:54Z</time>
      </trkpt>
      <trkpt lat="50.11478" lon="4.18151">
        <ele>176.2</ele>
        <time>2024-04-29T05:36:55Z</time>
      </trkpt>
      <trkpt lat="50.11483" lon="4.18145">
        <ele>176.4</ele>
        <time>2024-04-29T05:36:56Z</time>
      </trkpt>
      <trkpt lat="50.11488" lon="4.18139">
        <ele>176.2</ele>
        <time>2024-04-29T05:36:57Z</time>
      </trkpt>
      <trkpt lat="50.11492" lon="4.18133">
        <ele>176.2</ele>
        <time>2024-04-29T05:36:58Z</time>
      </trkpt>
      <trkpt lat="50.11497" lon="4.18126">
        <ele>176.4</ele>
        <time>2024-04-29T05:36:59Z</time>
      </trkpt>
      <trkpt lat="50.11501" lon="4.1812">
        <ele>176.8</ele>
        <time>2024-04-29T05:37:00Z</time>
      </trkpt>
      <trkpt lat="50.11505" lon="4.18114">
        <ele>177.4</ele>
        <time>2024-04-29T05:37:01Z</time>
      </trkpt>
      <trkpt lat="50.1151" lon="4.18108">
        <ele>178</ele>
        <time>2024-04-29T05:37:02Z</time>
      </trkpt>
      <trkpt lat="50.11515" lon="4.18102">
        <ele>178.6</ele>
        <time>2024-04-29T05:37:03Z</time>
      </trkpt>
      <trkpt lat="50.1152" lon="4.18097">
        <ele>179.2</ele>
        <time>2024-04-29T05:37:04Z</time>
      </trkpt>
      <trkpt lat="50.11525" lon="4.18092">
        <ele>179.6</ele>
        <time>2024-04-29T05:37:05Z</time>
      </trkpt>
      <trkpt lat="50.1153" lon="4.18088">
        <ele>180.4</ele>
        <time>2024-04-29T05:37:06Z</time>
      </trkpt>
      <trkpt lat="50.11535" lon="4.18084">
        <ele>180.8</ele>
        <time>2024-04-29T05:37:07Z</time>
      </trkpt>
      <trkpt lat="50.11539" lon="4.1808">
        <ele>181.4</ele>
        <time>2024-04-29T05:37:08Z</time>
      </trkpt>
      <trkpt lat="50.11544" lon="4.18076">
        <ele>182.8</ele>
        <time>2024-04-29T05:37:09Z</time>
      </trkpt>
      <trkpt lat="50.11548" lon="4.18072">
        <ele>183.6</ele>
        <time>2024-04-29T05:37:10Z</time>
      </trkpt>
      <trkpt lat="50.11553" lon="4.18068">
        <ele>184.2</ele>
        <time>2024-04-29T05:37:11Z</time>
      </trkpt>
      <trkpt lat="50.11557" lon="4.18063">
        <ele>185</ele>
        <time>2024-04-29T05:37:12Z</time>
      </trkpt>
      <trkpt lat="50.11561" lon="4.18057">
        <ele>185</ele>
        <time>2024-04-29T05:37:13Z</time>
      </trkpt>
      <trkpt lat="50.11565" lon="4.18052">
        <ele>185.6</ele>
        <time>2024-04-29T05:37:14Z</time>
      </trkpt>
      <trkpt lat="50.11569" lon="4.18045">
        <ele>186.2</ele>
        <time>2024-04-29T05:37:15Z</time>
      </trkpt>
      <trkpt lat="50.11573" lon="4.18038">
        <ele>186.8</ele>
        <time>2024-04-29T05:37:16Z</time>
      </trkpt>
      <trkpt lat="50.11578" lon="4.1803">
        <ele>187</ele>
        <time>2024-04-29T05:37:17Z</time>
      </trkpt>
      <trkpt lat="50.11583" lon="4.18021">
        <ele>187.6</ele>
        <time>2024-04-29T05:37:18Z</time>
      </trkpt>
      <trkpt lat="50.11588" lon="4.18012">
        <ele>188</ele>
        <time>2024-04-29T05:37:19Z</time>
      </trkpt>
      <trkpt lat="50.11594" lon="4.18003">
        <ele>188.2</ele>
        <time>2024-04-29T05:37:20Z</time>
      </trkpt>
      <trkpt lat="50.116" lon="4.17995">
        <ele>188.2</ele>
        <time>2024-04-29T05:37:21Z</time>
      </trkpt>
      <trkpt lat="50.11607" lon="4.17986">
        <ele>188.2</ele>
        <time>2024-04-29T05:37:22Z</time>
      </trkpt>
      <trkpt lat="50.11614" lon="4.17978">
        <ele>188.4</ele>
        <time>2024-04-29T05:37:23Z</time>
      </trkpt>
      <trkpt lat="50.11622" lon="4.17969">
        <ele>188.2</ele>
        <time>2024-04-29T05:37:24Z</time>
      </trkpt>
      <trkpt lat="50.1163" lon="4.17961">
        <ele>188.2</ele>
        <time>2024-04-29T05:37:25Z</time>
      </trkpt>
      <trkpt lat="50.11639" lon="4.17953">
        <ele>188.4</ele>
        <time>2024-04-29T05:37:26Z</time>
      </trkpt>
      <trkpt lat="50.11648" lon="4.17944">
        <ele>188.4</ele>
        <time>2024-04-29T05:37:27Z</time>
      </trkpt>
      <trkpt lat="50.11657" lon="4.17935">
        <ele>188.2</ele>
        <time>2024-04-29T05:37:28Z</time>
      </trkpt>
      <trkpt lat="50.11667" lon="4.17926">
        <ele>187.2</ele>
        <time>2024-04-29T05:37:29Z</time>
      </trkpt>
      <trkpt lat="50.11677" lon="4.17918">
        <ele>186.6</ele>
        <time>2024-04-29T05:37:30Z</time>
      </trkpt>
      <trkpt lat="50.11687" lon="4.17909">
        <ele>185.8</ele>
        <time>2024-04-29T05:37:31Z</time>
      </trkpt>
      <trkpt lat="50.11698" lon="4.17901">
        <ele>184.6</ele>
        <time>2024-04-29T05:37:32Z</time>
      </trkpt>
      <trkpt lat="50.11709" lon="4.17894">
        <ele>183.6</ele>
        <time>2024-04-29T05:37:33Z</time>
      </trkpt>
      <trkpt lat="50.11721" lon="4.17888">
        <ele>183.6</ele>
        <time>2024-04-29T05:37:34Z</time>
      </trkpt>
      <trkpt lat="50.11732" lon="4.17884">
        <ele>181.8</ele>
        <time>2024-04-29T05:37:35Z</time>
      </trkpt>
      <trkpt lat="50.11743" lon="4.1788">
        <ele>180</ele>
        <time>2024-04-29T05:37:36Z</time>
      </trkpt>
      <trkpt lat="50.11754" lon="4.17876">
        <ele>178.4</ele>
        <time>2024-04-29T05:37:37Z</time>
      </trkpt>
      <trkpt lat="50.11765" lon="4.17871">
        <ele>177</ele>
        <time>2024-04-29T05:37:38Z</time>
      </trkpt>
      <trkpt lat="50.11774" lon="4.17866">
        <ele>175.8</ele>
        <time>2024-04-29T05:37:39Z</time>
      </trkpt>
      <trkpt lat="50.11783" lon="4.17859">
        <ele>174.2</ele>
        <time>2024-04-29T05:37:40Z</time>
      </trkpt>
      <trkpt lat="50.11791" lon="4.17852">
        <ele>173.2</ele>
        <time>2024-04-29T05:37:41Z</time>
      </trkpt>
      <trkpt lat="50.11799" lon="4.17844">
        <ele>172.6</ele>
        <time>2024-04-29T05:37:42Z</time>
      </trkpt>
      <trkpt lat="50.11806" lon="4.17837">
        <ele>172.2</ele>
        <time>2024-04-29T05:37:43Z</time>
      </trkpt>
      <trkpt lat="50.11813" lon="4.17829">
        <ele>172</ele>
        <time>2024-04-29T05:37:44Z</time>
      </trkpt>
      <trkpt lat="50.11819" lon="4.17822">
        <ele>171.8</ele>
        <time>2024-04-29T05:37:45Z</time>
      </trkpt>
      <trkpt lat="50.11826" lon="4.17814">
        <ele>171.8</ele>
        <time>2024-04-29T05:37:46Z</time>
      </trkpt>
      <trkpt lat="50.11833" lon="4.17807">
        <ele>171.6</ele>
        <time>2024-04-29T05:37:47Z</time>
      </trkpt>
      <trkpt lat="50.1184" lon="4.178">
        <ele>171.6</ele>
        <time>2024-04-29T05:37:48Z</time>
      </trkpt>
      <trkpt lat="50.11848" lon="4.17796">
        <ele>171.4</ele>
        <time>2024-04-29T05:37:49Z</time>
      </trkpt>
      <trkpt lat="50.11856" lon="4.17793">
        <ele>171.4</ele>
        <time>2024-04-29T05:37:50Z</time>
      </trkpt>
      <trkpt lat="50.11863" lon="4.17792">
        <ele>171.2</ele>
        <time>2024-04-29T05:37:51Z</time>
      </trkpt>
      <trkpt lat="50.11871" lon="4.17792">
        <ele>171.4</ele>
        <time>2024-04-29T05:37:52Z</time>
      </trkpt>
      <trkpt lat="50.11879" lon="4.17791">
        <ele>171.4</ele>
        <time>2024-04-29T05:37:53Z</time>
      </trkpt>
      <trkpt lat="50.11888" lon="4.17791">
        <ele>171.2</ele>
        <time>2024-04-29T05:37:54Z</time>
      </trkpt>
      <trkpt lat="50.11896" lon="4.1779">
        <ele>171.2</ele>
        <time>2024-04-29T05:37:55Z</time>
      </trkpt>
      <trkpt lat="50.11904" lon="4.1779">
        <ele>171.4</ele>
        <time>2024-04-29T05:37:56Z</time>
      </trkpt>
      <trkpt lat="50.11911" lon="4.17792">
        <ele>171.6</ele>
        <time>2024-04-29T05:37:57Z</time>
      </trkpt>
      <trkpt lat="50.11919" lon="4.17793">
        <ele>171.4</ele>
        <time>2024-04-29T05:37:58Z</time>
      </trkpt>
      <trkpt lat="50.11926" lon="4.17793">
        <ele>171.8</ele>
        <time>2024-04-29T05:37:59Z</time>
      </trkpt>
      <trkpt lat="50.11934" lon="4.17793">
        <ele>171.8</ele>
        <time>2024-04-29T05:38:00Z</time>
      </trkpt>
      <trkpt lat="50.1194" lon="4.17792">
        <ele>171.8</ele>
        <time>2024-04-29T05:38:01Z</time>
      </trkpt>
      <trkpt lat="50.11946" lon="4.17791">
        <ele>171.8</ele>
        <time>2024-04-29T05:38:02Z</time>
      </trkpt>
      <trkpt lat="50.11952" lon="4.17789">
        <ele>171.8</ele>
        <time>2024-04-29T05:38:03Z</time>
      </trkpt>
      <trkpt lat="50.11958" lon="4.17787">
        <ele>171.8</ele>
        <time>2024-04-29T05:38:04Z</time>
      </trkpt>
      <trkpt lat="50.11963" lon="4.17783">
        <ele>172</ele>
        <time>2024-04-29T05:38:05Z</time>
      </trkpt>
      <trkpt lat="50.11968" lon="4.17778">
        <ele>172</ele>
        <time>2024-04-29T05:38:06Z</time>
      </trkpt>
      <trkpt lat="50.11972" lon="4.17773">
        <ele>172.2</ele>
        <time>2024-04-29T05:38:07Z</time>
      </trkpt>
      <trkpt lat="50.11976" lon="4.17767">
        <ele>172.6</ele>
        <time>2024-04-29T05:38:08Z</time>
      </trkpt>
      <trkpt lat="50.1198" lon="4.1776">
        <ele>173</ele>
        <time>2024-04-29T05:38:09Z</time>
      </trkpt>
      <trkpt lat="50.11982" lon="4.17753">
        <ele>173.4</ele>
        <time>2024-04-29T05:38:10Z</time>
      </trkpt>
      <trkpt lat="50.11985" lon="4.17745">
        <ele>173.8</ele>
        <time>2024-04-29T05:38:11Z</time>
      </trkpt>
      <trkpt lat="50.11987" lon="4.17737">
        <ele>174.4</ele>
        <time>2024-04-29T05:38:12Z</time>
      </trkpt>
      <trkpt lat="50.11988" lon="4.17729">
        <ele>174.6</ele>
        <time>2024-04-29T05:38:13Z</time>
      </trkpt>
      <trkpt lat="50.1199" lon="4.1772">
        <ele>175.2</ele>
        <time>2024-04-29T05:38:14Z</time>
      </trkpt>
      <trkpt lat="50.11991" lon="4.17712">
        <ele>175.6</ele>
        <time>2024-04-29T05:38:15Z</time>
      </trkpt>
      <trkpt lat="50.11992" lon="4.17703">
        <ele>175.6</ele>
        <time>2024-04-29T05:38:16Z</time>
      </trkpt>
      <trkpt lat="50.11993" lon="4.17694">
        <ele>176.2</ele>
        <time>2024-04-29T05:38:17Z</time>
      </trkpt>
      <trkpt lat="50.11994" lon="4.17685">
        <ele>176.6</ele>
        <time>2024-04-29T05:38:18Z</time>
      </trkpt>
      <trkpt lat="50.11996" lon="4.17677">
        <ele>177.2</ele>
        <time>2024-04-29T05:38:19Z</time>
      </trkpt>
      <trkpt lat="50.11997" lon="4.17668">
        <ele>177.6</ele>
        <time>2024-04-29T05:38:20Z</time>
      </trkpt>
      <trkpt lat="50.11998" lon="4.17658">
        <ele>178</ele>
        <time>2024-04-29T05:38:21Z</time>
      </trkpt>
      <trkpt lat="50.11999" lon="4.17649">
        <ele>178.6</ele>
        <time>2024-04-29T05:38:22Z</time>
      </trkpt>
      <trkpt lat="50.12" lon="4.1764">
        <ele>179</ele>
        <time>2024-04-29T05:38:23Z</time>
      </trkpt>
      <trkpt lat="50.12002" lon="4.17629">
        <ele>179.2</ele>
        <time>2024-04-29T05:38:24Z</time>
      </trkpt>
      <trkpt lat="50.12003" lon="4.17619">
        <ele>179.4</ele>
        <time>2024-04-29T05:38:25Z</time>
      </trkpt>
      <trkpt lat="50.12005" lon="4.17609">
        <ele>179.6</ele>
        <time>2024-04-29T05:38:26Z</time>
      </trkpt>
      <trkpt lat="50.12007" lon="4.17598">
        <ele>180</ele>
        <time>2024-04-29T05:38:27Z</time>
      </trkpt>
      <trkpt lat="50.12009" lon="4.17587">
        <ele>180.2</ele>
        <time>2024-04-29T05:38:28Z</time>
      </trkpt>
      <trkpt lat="50.12011" lon="4.17576">
        <ele>180.4</ele>
        <time>2024-04-29T05:38:29Z</time>
      </trkpt>
      <trkpt lat="50.12014" lon="4.17565">
        <ele>180.4</ele>
        <time>2024-04-29T05:38:30Z</time>
      </trkpt>
      <trkpt lat="50.12016" lon="4.17555">
        <ele>180.6</ele>
        <time>2024-04-29T05:38:31Z</time>
      </trkpt>
      <trkpt lat="50.12018" lon="4.17544">
        <ele>180.6</ele>
        <time>2024-04-29T05:38:32Z</time>
      </trkpt>
      <trkpt lat="50.1202" lon="4.17533">
        <ele>180.6</ele>
        <time>2024-04-29T05:38:33Z</time>
      </trkpt>
      <trkpt lat="50.12023" lon="4.17522">
        <ele>180.6</ele>
        <time>2024-04-29T05:38:34Z</time>
      </trkpt>
      <trkpt lat="50.12025" lon="4.17512">
        <ele>180.6</ele>
        <time>2024-04-29T05:38:35Z</time>
      </trkpt>
      <trkpt lat="50.12028" lon="4.17501">
        <ele>180.4</ele>
        <time>2024-04-29T05:38:36Z</time>
      </trkpt>
      <trkpt lat="50.1203" lon="4.1749">
        <ele>180.6</ele>
        <time>2024-04-29T05:38:37Z</time>
      </trkpt>
      <trkpt lat="50.12033" lon="4.17479">
        <ele>180.6</ele>
        <time>2024-04-29T05:38:38Z</time>
      </trkpt>
      <trkpt lat="50.12036" lon="4.17468">
        <ele>180.6</ele>
        <time>2024-04-29T05:38:39Z</time>
      </trkpt>
      <trkpt lat="50.12039" lon="4.17458">
        <ele>180.6</ele>
        <time>2024-04-29T05:38:40Z</time>
      </trkpt>
      <trkpt lat="50.12042" lon="4.17447">
        <ele>180.2</ele>
        <time>2024-04-29T05:38:41Z</time>
      </trkpt>
      <trkpt lat="50.12044" lon="4.17436">
        <ele>180.2</ele>
        <time>2024-04-29T05:38:42Z</time>
      </trkpt>
      <trkpt lat="50.12047" lon="4.17425">
        <ele>179.8</ele>
        <time>2024-04-29T05:38:43Z</time>
      </trkpt>
      <trkpt lat="50.12049" lon="4.17413">
        <ele>179.6</ele>
        <time>2024-04-29T05:38:44Z</time>
      </trkpt>
      <trkpt lat="50.12052" lon="4.17402">
        <ele>179.6</ele>
        <time>2024-04-29T05:38:45Z</time>
      </trkpt>
      <trkpt lat="50.12054" lon="4.1739">
        <ele>179.4</ele>
        <time>2024-04-29T05:38:46Z</time>
      </trkpt>
      <trkpt lat="50.12056" lon="4.17379">
        <ele>179.4</ele>
        <time>2024-04-29T05:38:47Z</time>
      </trkpt>
      <trkpt lat="50.12058" lon="4.17368">
        <ele>179.4</ele>
        <time>2024-04-29T05:38:48Z</time>
      </trkpt>
      <trkpt lat="50.1206" lon="4.17357">
        <ele>179.2</ele>
        <time>2024-04-29T05:38:49Z</time>
      </trkpt>
      <trkpt lat="50.12062" lon="4.17346">
        <ele>179.2</ele>
        <time>2024-04-29T05:38:50Z</time>
      </trkpt>
      <trkpt lat="50.12063" lon="4.17335">
        <ele>179</ele>
        <time>2024-04-29T05:38:51Z</time>
      </trkpt>
      <trkpt lat="50.12065" lon="4.17325">
        <ele>179</ele>
        <time>2024-04-29T05:38:52Z</time>
      </trkpt>
      <trkpt lat="50.12067" lon="4.17314">
        <ele>179</ele>
        <time>2024-04-29T05:38:53Z</time>
      </trkpt>
      <trkpt lat="50.12068" lon="4.17304">
        <ele>179</ele>
        <time>2024-04-29T05:38:54Z</time>
      </trkpt>
      <trkpt lat="50.1207" lon="4.17293">
        <ele>179</ele>
        <time>2024-04-29T05:38:55Z</time>
      </trkpt>
      <trkpt lat="50.12071" lon="4.17282">
        <ele>178.8</ele>
        <time>2024-04-29T05:38:56Z</time>
      </trkpt>
      <trkpt lat="50.12073" lon="4.17271">
        <ele>178.8</ele>
        <time>2024-04-29T05:38:57Z</time>
      </trkpt>
      <trkpt lat="50.12075" lon="4.17261">
        <ele>179</ele>
        <time>2024-04-29T05:38:58Z</time>
      </trkpt>
      <trkpt lat="50.12076" lon="4.1725">
        <ele>178.8</ele>
        <time>2024-04-29T05:38:59Z</time>
      </trkpt>
      <trkpt lat="50.12078" lon="4.17238">
        <ele>178.8</ele>
        <time>2024-04-29T05:39:00Z</time>
      </trkpt>
      <trkpt lat="50.12079" lon="4.17227">
        <ele>179</ele>
        <time>2024-04-29T05:39:01Z</time>
      </trkpt>
      <trkpt lat="50.12081" lon="4.17216">
        <ele>178.8</ele>
        <time>2024-04-29T05:39:02Z</time>
      </trkpt>
      <trkpt lat="50.12083" lon="4.17204">
        <ele>179</ele>
        <time>2024-04-29T05:39:03Z</time>
      </trkpt>
      <trkpt lat="50.12084" lon="4.17192">
        <ele>178.8</ele>
        <time>2024-04-29T05:39:04Z</time>
      </trkpt>
      <trkpt lat="50.12085" lon="4.1718">
        <ele>178.8</ele>
        <time>2024-04-29T05:39:05Z</time>
      </trkpt>
      <trkpt lat="50.12086" lon="4.17168">
        <ele>179</ele>
        <time>2024-04-29T05:39:06Z</time>
      </trkpt>
      <trkpt lat="50.12087" lon="4.17156">
        <ele>178.8</ele>
        <time>2024-04-29T05:39:07Z</time>
      </trkpt>
      <trkpt lat="50.12088" lon="4.17145">
        <ele>178.8</ele>
        <time>2024-04-29T05:39:08Z</time>
      </trkpt>
      <trkpt lat="50.12089" lon="4.17133">
        <ele>179</ele>
        <time>2024-04-29T05:39:09Z</time>
      </trkpt>
      <trkpt lat="50.12091" lon="4.17121">
        <ele>179</ele>
        <time>2024-04-29T05:39:10Z</time>
      </trkpt>
      <trkpt lat="50.12092" lon="4.1711">
        <ele>178.8</ele>
        <time>2024-04-29T05:39:11Z</time>
      </trkpt>
      <trkpt lat="50.12094" lon="4.17098">
        <ele>179</ele>
        <time>2024-04-29T05:39:12Z</time>
      </trkpt>
      <trkpt lat="50.12096" lon="4.17087">
        <ele>179</ele>
        <time>2024-04-29T05:39:13Z</time>
      </trkpt>
      <trkpt lat="50.12098" lon="4.17077">
        <ele>179</ele>
        <time>2024-04-29T05:39:14Z</time>
      </trkpt>
      <trkpt lat="50.121" lon="4.17067">
        <ele>179</ele>
        <time>2024-04-29T05:39:15Z</time>
      </trkpt>
      <trkpt lat="50.12103" lon="4.17056">
        <ele>179</ele>
        <time>2024-04-29T05:39:16Z</time>
      </trkpt>
      <trkpt lat="50.12105" lon="4.17046">
        <ele>179.2</ele>
        <time>2024-04-29T05:39:17Z</time>
      </trkpt>
      <trkpt lat="50.12107" lon="4.17036">
        <ele>179</ele>
        <time>2024-04-29T05:39:18Z</time>
      </trkpt>
      <trkpt lat="50.12109" lon="4.17026">
        <ele>179</ele>
        <time>2024-04-29T05:39:19Z</time>
      </trkpt>
      <trkpt lat="50.12111" lon="4.17015">
        <ele>179.2</ele>
        <time>2024-04-29T05:39:20Z</time>
      </trkpt>
      <trkpt lat="50.12113" lon="4.17004">
        <ele>179.2</ele>
        <time>2024-04-29T05:39:21Z</time>
      </trkpt>
      <trkpt lat="50.12115" lon="4.16993">
        <ele>179.2</ele>
        <time>2024-04-29T05:39:22Z</time>
      </trkpt>
      <trkpt lat="50.12116" lon="4.16982">
        <ele>179.2</ele>
        <time>2024-04-29T05:39:23Z</time>
      </trkpt>
      <trkpt lat="50.12118" lon="4.16971">
        <ele>179.4</ele>
        <time>2024-04-29T05:39:24Z</time>
      </trkpt>
      <trkpt lat="50.12119" lon="4.1696">
        <ele>179.4</ele>
        <time>2024-04-29T05:39:25Z</time>
      </trkpt>
      <trkpt lat="50.12121" lon="4.16949">
        <ele>179.4</ele>
        <time>2024-04-29T05:39:26Z</time>
      </trkpt>
      <trkpt lat="50.12122" lon="4.16937">
        <ele>179.4</ele>
        <time>2024-04-29T05:39:27Z</time>
      </trkpt>
      <trkpt lat="50.12124" lon="4.16925">
        <ele>179.4</ele>
        <time>2024-04-29T05:39:28Z</time>
      </trkpt>
      <trkpt lat="50.12125" lon="4.16914">
        <ele>179.4</ele>
        <time>2024-04-29T05:39:29Z</time>
      </trkpt>
      <trkpt lat="50.12127" lon="4.16902">
        <ele>179.4</ele>
        <time>2024-04-29T05:39:30Z</time>
      </trkpt>
      <trkpt lat="50.12128" lon="4.16891">
        <ele>179.4</ele>
        <time>2024-04-29T05:39:31Z</time>
      </trkpt>
      <trkpt lat="50.1213" lon="4.16879">
        <ele>179.4</ele>
        <time>2024-04-29T05:39:32Z</time>
      </trkpt>
      <trkpt lat="50.12132" lon="4.16867">
        <ele>179.4</ele>
        <time>2024-04-29T05:39:33Z</time>
      </trkpt>
      <trkpt lat="50.12134" lon="4.16855">
        <ele>179.2</ele>
        <time>2024-04-29T05:39:34Z</time>
      </trkpt>
      <trkpt lat="50.12137" lon="4.16843">
        <ele>179</ele>
        <time>2024-04-29T05:39:35Z</time>
      </trkpt>
      <trkpt lat="50.12139" lon="4.1683">
        <ele>179</ele>
        <time>2024-04-29T05:39:36Z</time>
      </trkpt>
      <trkpt lat="50.12143" lon="4.16817">
        <ele>178.6</ele>
        <time>2024-04-29T05:39:37Z</time>
      </trkpt>
      <trkpt lat="50.12146" lon="4.16804">
        <ele>178.6</ele>
        <time>2024-04-29T05:39:38Z</time>
      </trkpt>
      <trkpt lat="50.1215" lon="4.16792">
        <ele>178.4</ele>
        <time>2024-04-29T05:39:39Z</time>
      </trkpt>
      <trkpt lat="50.12155" lon="4.1678">
        <ele>178</ele>
        <time>2024-04-29T05:39:40Z</time>
      </trkpt>
      <trkpt lat="50.12159" lon="4.16768">
        <ele>177.4</ele>
        <time>2024-04-29T05:39:41Z</time>
      </trkpt>
      <trkpt lat="50.12164" lon="4.16755">
        <ele>177.4</ele>
        <time>2024-04-29T05:39:42Z</time>
      </trkpt>
      <trkpt lat="50.12168" lon="4.16744">
        <ele>177.2</ele>
        <time>2024-04-29T05:39:43Z</time>
      </trkpt>
      <trkpt lat="50.12173" lon="4.16732">
        <ele>176.8</ele>
        <time>2024-04-29T05:39:44Z</time>
      </trkpt>
      <trkpt lat="50.12177" lon="4.16721">
        <ele>176.4</ele>
        <time>2024-04-29T05:39:45Z</time>
      </trkpt>
      <trkpt lat="50.12182" lon="4.1671">
        <ele>175.8</ele>
        <time>2024-04-29T05:39:46Z</time>
      </trkpt>
      <trkpt lat="50.12186" lon="4.167">
        <ele>175.6</ele>
        <time>2024-04-29T05:39:47Z</time>
      </trkpt>
      <trkpt lat="50.1219" lon="4.16691">
        <ele>175.2</ele>
        <time>2024-04-29T05:39:48Z</time>
      </trkpt>
      <trkpt lat="50.12195" lon="4.16682">
        <ele>174.8</ele>
        <time>2024-04-29T05:39:49Z</time>
      </trkpt>
      <trkpt lat="50.12199" lon="4.16673">
        <ele>174.8</ele>
        <time>2024-04-29T05:39:50Z</time>
      </trkpt>
      <trkpt lat="50.12203" lon="4.16665">
        <ele>174.8</ele>
        <time>2024-04-29T05:39:51Z</time>
      </trkpt>
      <trkpt lat="50.12207" lon="4.16657">
        <ele>174.8</ele>
        <time>2024-04-29T05:39:52Z</time>
      </trkpt>
      <trkpt lat="50.12212" lon="4.16649">
        <ele>174.6</ele>
        <time>2024-04-29T05:39:53Z</time>
      </trkpt>
      <trkpt lat="50.12216" lon="4.16642">
        <ele>174.8</ele>
        <time>2024-04-29T05:39:54Z</time>
      </trkpt>
      <trkpt lat="50.1222" lon="4.16635">
        <ele>174.8</ele>
        <time>2024-04-29T05:39:55Z</time>
      </trkpt>
      <trkpt lat="50.12224" lon="4.16628">
        <ele>174.6</ele>
        <time>2024-04-29T05:39:56Z</time>
      </trkpt>
      <trkpt lat="50.12227" lon="4.16621">
        <ele>174.6</ele>
        <time>2024-04-29T05:39:57Z</time>
      </trkpt>
      <trkpt lat="50.12231" lon="4.16614">
        <ele>175</ele>
        <time>2024-04-29T05:39:58Z</time>
      </trkpt>
      <trkpt lat="50.12235" lon="4.16607">
        <ele>175.4</ele>
        <time>2024-04-29T05:39:59Z</time>
      </trkpt>
      <trkpt lat="50.12238" lon="4.166">
        <ele>175.6</ele>
        <time>2024-04-29T05:40:00Z</time>
      </trkpt>
      <trkpt lat="50.12241" lon="4.16593">
        <ele>176.2</ele>
        <time>2024-04-29T05:40:01Z</time>
      </trkpt>
      <trkpt lat="50.12244" lon="4.16586">
        <ele>176.6</ele>
        <time>2024-04-29T05:40:02Z</time>
      </trkpt>
      <trkpt lat="50.12247" lon="4.16578">
        <ele>176.6</ele>
        <time>2024-04-29T05:40:03Z</time>
      </trkpt>
      <trkpt lat="50.12249" lon="4.1657">
        <ele>176.8</ele>
        <time>2024-04-29T05:40:04Z</time>
      </trkpt>
      <trkpt lat="50.12251" lon="4.16562">
        <ele>177</ele>
        <time>2024-04-29T05:40:05Z</time>
      </trkpt>
      <trkpt lat="50.12253" lon="4.16554">
        <ele>177.4</ele>
        <time>2024-04-29T05:40:06Z</time>
      </trkpt>
      <trkpt lat="50.12254" lon="4.16546">
        <ele>177.4</ele>
        <time>2024-04-29T05:40:07Z</time>
      </trkpt>
      <trkpt lat="50.12256" lon="4.16537">
        <ele>178.2</ele>
        <time>2024-04-29T05:40:08Z</time>
      </trkpt>
      <trkpt lat="50.12257" lon="4.16528">
        <ele>178.6</ele>
        <time>2024-04-29T05:40:09Z</time>
      </trkpt>
      <trkpt lat="50.12258" lon="4.16519">
        <ele>179</ele>
        <time>2024-04-29T05:40:10Z</time>
      </trkpt>
      <trkpt lat="50.12259" lon="4.1651">
        <ele>179.6</ele>
        <time>2024-04-29T05:40:11Z</time>
      </trkpt>
      <trkpt lat="50.12261" lon="4.16501">
        <ele>179.8</ele>
        <time>2024-04-29T05:40:12Z</time>
      </trkpt>
      <trkpt lat="50.12263" lon="4.16491">
        <ele>180.2</ele>
        <time>2024-04-29T05:40:13Z</time>
      </trkpt>
      <trkpt lat="50.12265" lon="4.16481">
        <ele>180.6</ele>
        <time>2024-04-29T05:40:14Z</time>
      </trkpt>
      <trkpt lat="50.12267" lon="4.16472">
        <ele>181.2</ele>
        <time>2024-04-29T05:40:15Z</time>
      </trkpt>
      <trkpt lat="50.1227" lon="4.16463">
        <ele>181.4</ele>
        <time>2024-04-29T05:40:16Z</time>
      </trkpt>
      <trkpt lat="50.12273" lon="4.16454">
        <ele>181.8</ele>
        <time>2024-04-29T05:40:17Z</time>
      </trkpt>
      <trkpt lat="50.12277" lon="4.16445">
        <ele>181.8</ele>
        <time>2024-04-29T05:40:18Z</time>
      </trkpt>
      <trkpt lat="50.1228" lon="4.16436">
        <ele>181.8</ele>
        <time>2024-04-29T05:40:19Z</time>
      </trkpt>
      <trkpt lat="50.12284" lon="4.16428">
        <ele>181.8</ele>
        <time>2024-04-29T05:40:20Z</time>
      </trkpt>
      <trkpt lat="50.12288" lon="4.16419">
        <ele>181.8</ele>
        <time>2024-04-29T05:40:21Z</time>
      </trkpt>
      <trkpt lat="50.12292" lon="4.1641">
        <ele>181.8</ele>
        <time>2024-04-29T05:40:22Z</time>
      </trkpt>
      <trkpt lat="50.12295" lon="4.16402">
        <ele>181.8</ele>
        <time>2024-04-29T05:40:23Z</time>
      </trkpt>
      <trkpt lat="50.12299" lon="4.16393">
        <ele>181.8</ele>
        <time>2024-04-29T05:40:24Z</time>
      </trkpt>
      <trkpt lat="50.12303" lon="4.16384">
        <ele>182</ele>
        <time>2024-04-29T05:40:25Z</time>
      </trkpt>
      <trkpt lat="50.12307" lon="4.16376">
        <ele>182</ele>
        <time>2024-04-29T05:40:26Z</time>
      </trkpt>
      <trkpt lat="50.1231" lon="4.16367">
        <ele>182.2</ele>
        <time>2024-04-29T05:40:27Z</time>
      </trkpt>
      <trkpt lat="50.12313" lon="4.16358">
        <ele>182.4</ele>
        <time>2024-04-29T05:40:28Z</time>
      </trkpt>
      <trkpt lat="50.12316" lon="4.16349">
        <ele>182.4</ele>
        <time>2024-04-29T05:40:29Z</time>
      </trkpt>
      <trkpt lat="50.12318" lon="4.1634">
        <ele>182.4</ele>
        <time>2024-04-29T05:40:30Z</time>
      </trkpt>
      <trkpt lat="50.1232" lon="4.16331">
        <ele>182.6</ele>
        <time>2024-04-29T05:40:31Z</time>
      </trkpt>
      <trkpt lat="50.12322" lon="4.16322">
        <ele>182.6</ele>
        <time>2024-04-29T05:40:32Z</time>
      </trkpt>
      <trkpt lat="50.12323" lon="4.16312">
        <ele>182.8</ele>
        <time>2024-04-29T05:40:33Z</time>
      </trkpt>
      <trkpt lat="50.12324" lon="4.16303">
        <ele>182.8</ele>
        <time>2024-04-29T05:40:34Z</time>
      </trkpt>
      <trkpt lat="50.12324" lon="4.16293">
        <ele>183</ele>
        <time>2024-04-29T05:40:35Z</time>
      </trkpt>
      <trkpt lat="50.12324" lon="4.16284">
        <ele>183.2</ele>
        <time>2024-04-29T05:40:36Z</time>
      </trkpt>
      <trkpt lat="50.12324" lon="4.16275">
        <ele>183.4</ele>
        <time>2024-04-29T05:40:37Z</time>
      </trkpt>
      <trkpt lat="50.12323" lon="4.16265">
        <ele>183.6</ele>
        <time>2024-04-29T05:40:38Z</time>
      </trkpt>
      <trkpt lat="50.12322" lon="4.16256">
        <ele>183.8</ele>
        <time>2024-04-29T05:40:39Z</time>
      </trkpt>
      <trkpt lat="50.1232" lon="4.16247">
        <ele>184.2</ele>
        <time>2024-04-29T05:40:40Z</time>
      </trkpt>
      <trkpt lat="50.12318" lon="4.16238">
        <ele>184.2</ele>
        <time>2024-04-29T05:40:41Z</time>
      </trkpt>
      <trkpt lat="50.12316" lon="4.1623">
        <ele>184.4</ele>
        <time>2024-04-29T05:40:42Z</time>
      </trkpt>
      <trkpt lat="50.12313" lon="4.16221">
        <ele>185</ele>
        <time>2024-04-29T05:40:43Z</time>
      </trkpt>
      <trkpt lat="50.1231" lon="4.16214">
        <ele>185.4</ele>
        <time>2024-04-29T05:40:44Z</time>
      </trkpt>
      <trkpt lat="50.12307" lon="4.16206">
        <ele>186</ele>
        <time>2024-04-29T05:40:45Z</time>
      </trkpt>
      <trkpt lat="50.12303" lon="4.16199">
        <ele>186</ele>
        <time>2024-04-29T05:40:46Z</time>
      </trkpt>
      <trkpt lat="50.12299" lon="4.16192">
        <ele>186.4</ele>
        <time>2024-04-29T05:40:47Z</time>
      </trkpt>
      <trkpt lat="50.12295" lon="4.16185">
        <ele>186.6</ele>
        <time>2024-04-29T05:40:48Z</time>
      </trkpt>
      <trkpt lat="50.12291" lon="4.16179">
        <ele>186.8</ele>
        <time>2024-04-29T05:40:49Z</time>
      </trkpt>
      <trkpt lat="50.12286" lon="4.16172">
        <ele>187</ele>
        <time>2024-04-29T05:40:50Z</time>
      </trkpt>
      <trkpt lat="50.12282" lon="4.16166">
        <ele>187.2</ele>
        <time>2024-04-29T05:40:51Z</time>
      </trkpt>
      <trkpt lat="50.12278" lon="4.16159">
        <ele>187.4</ele>
        <time>2024-04-29T05:40:52Z</time>
      </trkpt>
      <trkpt lat="50.12274" lon="4.16153">
        <ele>188</ele>
        <time>2024-04-29T05:40:53Z</time>
      </trkpt>
      <trkpt lat="50.12269" lon="4.16146">
        <ele>188.8</ele>
        <time>2024-04-29T05:40:54Z</time>
      </trkpt>
      <trkpt lat="50.12265" lon="4.16139">
        <ele>189.8</ele>
        <time>2024-04-29T05:40:55Z</time>
      </trkpt>
      <trkpt lat="50.12261" lon="4.16133">
        <ele>190.2</ele>
        <time>2024-04-29T05:40:56Z</time>
      </trkpt>
      <trkpt lat="50.12256" lon="4.16126">
        <ele>190.6</ele>
        <time>2024-04-29T05:40:57Z</time>
      </trkpt>
      <trkpt lat="50.12252" lon="4.16119">
        <ele>190.8</ele>
        <time>2024-04-29T05:40:58Z</time>
      </trkpt>
      <trkpt lat="50.12247" lon="4.16112">
        <ele>191.2</ele>
        <time>2024-04-29T05:40:59Z</time>
      </trkpt>
      <trkpt lat="50.12243" lon="4.16105">
        <ele>191.4</ele>
        <time>2024-04-29T05:41:00Z</time>
      </trkpt>
      <trkpt lat="50.12238" lon="4.16098">
        <ele>192</ele>
        <time>2024-04-29T05:41:01Z</time>
      </trkpt>
      <trkpt lat="50.12234" lon="4.1609">
        <ele>192.4</ele>
        <time>2024-04-29T05:41:02Z</time>
      </trkpt>
      <trkpt lat="50.12229" lon="4.16083">
        <ele>192.4</ele>
        <time>2024-04-29T05:41:03Z</time>
      </trkpt>
      <trkpt lat="50.12224" lon="4.16075">
        <ele>192.6</ele>
        <time>2024-04-29T05:41:04Z</time>
      </trkpt>
      <trkpt lat="50.12219" lon="4.16068">
        <ele>192.6</ele>
        <time>2024-04-29T05:41:05Z</time>
      </trkpt>
      <trkpt lat="50.12215" lon="4.1606">
        <ele>192.8</ele>
        <time>2024-04-29T05:41:06Z</time>
      </trkpt>
      <trkpt lat="50.1221" lon="4.16053">
        <ele>192.8</ele>
        <time>2024-04-29T05:41:07Z</time>
      </trkpt>
      <trkpt lat="50.12205" lon="4.16045">
        <ele>192.8</ele>
        <time>2024-04-29T05:41:08Z</time>
      </trkpt>
      <trkpt lat="50.122" lon="4.16037">
        <ele>192.8</ele>
        <time>2024-04-29T05:41:09Z</time>
      </trkpt>
      <trkpt lat="50.12195" lon="4.1603">
        <ele>192.8</ele>
        <time>2024-04-29T05:41:10Z</time>
      </trkpt>
      <trkpt lat="50.1219" lon="4.16022">
        <ele>193.2</ele>
        <time>2024-04-29T05:41:11Z</time>
      </trkpt>
      <trkpt lat="50.12185" lon="4.16014">
        <ele>193.2</ele>
        <time>2024-04-29T05:41:12Z</time>
      </trkpt>
      <trkpt lat="50.12181" lon="4.16006">
        <ele>193.4</ele>
        <time>2024-04-29T05:41:13Z</time>
      </trkpt>
      <trkpt lat="50.12177" lon="4.15998">
        <ele>193.4</ele>
        <time>2024-04-29T05:41:14Z</time>
      </trkpt>
      <trkpt lat="50.12173" lon="4.15989">
        <ele>193.4</ele>
        <time>2024-04-29T05:41:15Z</time>
      </trkpt>
      <trkpt lat="50.1217" lon="4.15981">
        <ele>193.6</ele>
        <time>2024-04-29T05:41:16Z</time>
      </trkpt>
      <trkpt lat="50.12167" lon="4.15972">
        <ele>193.6</ele>
        <time>2024-04-29T05:41:17Z</time>
      </trkpt>
      <trkpt lat="50.12165" lon="4.15962">
        <ele>193.6</ele>
        <time>2024-04-29T05:41:18Z</time>
      </trkpt>
      <trkpt lat="50.12163" lon="4.15953">
        <ele>193.8</ele>
        <time>2024-04-29T05:41:19Z</time>
      </trkpt>
      <trkpt lat="50.12162" lon="4.15944">
        <ele>193.8</ele>
        <time>2024-04-29T05:41:20Z</time>
      </trkpt>
      <trkpt lat="50.12162" lon="4.15935">
        <ele>194</ele>
        <time>2024-04-29T05:41:21Z</time>
      </trkpt>
      <trkpt lat="50.12162" lon="4.15926">
        <ele>193.8</ele>
        <time>2024-04-29T05:41:22Z</time>
      </trkpt>
      <trkpt lat="50.12163" lon="4.15917">
        <ele>194.2</ele>
        <time>2024-04-29T05:41:23Z</time>
      </trkpt>
      <trkpt lat="50.12164" lon="4.15908">
        <ele>194.2</ele>
        <time>2024-04-29T05:41:24Z</time>
      </trkpt>
      <trkpt lat="50.12165" lon="4.15899">
        <ele>194.6</ele>
        <time>2024-04-29T05:41:25Z</time>
      </trkpt>
      <trkpt lat="50.12167" lon="4.1589">
        <ele>194.6</ele>
        <time>2024-04-29T05:41:26Z</time>
      </trkpt>
      <trkpt lat="50.12169" lon="4.15881">
        <ele>195.2</ele>
        <time>2024-04-29T05:41:27Z</time>
      </trkpt>
      <trkpt lat="50.12172" lon="4.15872">
        <ele>195.8</ele>
        <time>2024-04-29T05:41:28Z</time>
      </trkpt>
      <trkpt lat="50.12174" lon="4.15862">
        <ele>195.8</ele>
        <time>2024-04-29T05:41:29Z</time>
      </trkpt>
      <trkpt lat="50.12177" lon="4.15853">
        <ele>196.4</ele>
        <time>2024-04-29T05:41:30Z</time>
      </trkpt>
      <trkpt lat="50.12179" lon="4.15843">
        <ele>196.8</ele>
        <time>2024-04-29T05:41:31Z</time>
      </trkpt>
      <trkpt lat="50.12182" lon="4.15833">
        <ele>197.4</ele>
        <time>2024-04-29T05:41:32Z</time>
      </trkpt>
      <trkpt lat="50.12185" lon="4.15823">
        <ele>197.8</ele>
        <time>2024-04-29T05:41:33Z</time>
      </trkpt>
      <trkpt lat="50.12188" lon="4.15813">
        <ele>197.8</ele>
        <time>2024-04-29T05:41:34Z</time>
      </trkpt>
      <trkpt lat="50.12191" lon="4.15802">
        <ele>198</ele>
        <time>2024-04-29T05:41:35Z</time>
      </trkpt>
      <trkpt lat="50.12194" lon="4.15791">
        <ele>198.2</ele>
        <time>2024-04-29T05:41:36Z</time>
      </trkpt>
      <trkpt lat="50.12197" lon="4.15779">
        <ele>198</ele>
        <time>2024-04-29T05:41:37Z</time>
      </trkpt>
      <trkpt lat="50.122" lon="4.15767">
        <ele>198.2</ele>
        <time>2024-04-29T05:41:38Z</time>
      </trkpt>
      <trkpt lat="50.12204" lon="4.15754">
        <ele>198.2</ele>
        <time>2024-04-29T05:41:39Z</time>
      </trkpt>
      <trkpt lat="50.12208" lon="4.15741">
        <ele>198</ele>
        <time>2024-04-29T05:41:40Z</time>
      </trkpt>
      <trkpt lat="50.12211" lon="4.15728">
        <ele>198</ele>
        <time>2024-04-29T05:41:41Z</time>
      </trkpt>
      <trkpt lat="50.12215" lon="4.15714">
        <ele>198.2</ele>
        <time>2024-04-29T05:41:42Z</time>
      </trkpt>
      <trkpt lat="50.12218" lon="4.157">
        <ele>198.2</ele>
        <time>2024-04-29T05:41:43Z</time>
      </trkpt>
      <trkpt lat="50.12222" lon="4.15685">
        <ele>198</ele>
        <time>2024-04-29T05:41:44Z</time>
      </trkpt>
      <trkpt lat="50.12225" lon="4.15669">
        <ele>197.6</ele>
        <time>2024-04-29T05:41:45Z</time>
      </trkpt>
      <trkpt lat="50.12228" lon="4.15654">
        <ele>197</ele>
        <time>2024-04-29T05:41:46Z</time>
      </trkpt>
      <trkpt lat="50.12231" lon="4.15637">
        <ele>196.4</ele>
        <time>2024-04-29T05:41:47Z</time>
      </trkpt>
      <trkpt lat="50.12233" lon="4.15621">
        <ele>195.6</ele>
        <time>2024-04-29T05:41:48Z</time>
      </trkpt>
      <trkpt lat="50.12236" lon="4.15604">
        <ele>195</ele>
        <time>2024-04-29T05:41:49Z</time>
      </trkpt>
      <trkpt lat="50.12238" lon="4.15586">
        <ele>194.2</ele>
        <time>2024-04-29T05:41:50Z</time>
      </trkpt>
      <trkpt lat="50.12241" lon="4.15568">
        <ele>193.4</ele>
        <time>2024-04-29T05:41:51Z</time>
      </trkpt>
      <trkpt lat="50.12245" lon="4.15551">
        <ele>193.4</ele>
        <time>2024-04-29T05:41:52Z</time>
      </trkpt>
      <trkpt lat="50.1225" lon="4.15533">
        <ele>192.2</ele>
        <time>2024-04-29T05:41:53Z</time>
      </trkpt>
      <trkpt lat="50.12255" lon="4.15517">
        <ele>191.2</ele>
        <time>2024-04-29T05:41:54Z</time>
      </trkpt>
      <trkpt lat="50.12262" lon="4.155">
        <ele>190.4</ele>
        <time>2024-04-29T05:41:55Z</time>
      </trkpt>
      <trkpt lat="50.12269" lon="4.15484">
        <ele>189.4</ele>
        <time>2024-04-29T05:41:56Z</time>
      </trkpt>
      <trkpt lat="50.12276" lon="4.15469">
        <ele>188.2</ele>
        <time>2024-04-29T05:41:57Z</time>
      </trkpt>
      <trkpt lat="50.12284" lon="4.15453">
        <ele>186.6</ele>
        <time>2024-04-29T05:41:58Z</time>
      </trkpt>
      <trkpt lat="50.12291" lon="4.15437">
        <ele>185</ele>
        <time>2024-04-29T05:41:59Z</time>
      </trkpt>
      <trkpt lat="50.12299" lon="4.15422">
        <ele>183.6</ele>
        <time>2024-04-29T05:42:00Z</time>
      </trkpt>
      <trkpt lat="50.12307" lon="4.15408">
        <ele>182.6</ele>
        <time>2024-04-29T05:42:01Z</time>
      </trkpt>
      <trkpt lat="50.12316" lon="4.15394">
        <ele>181.6</ele>
        <time>2024-04-29T05:42:02Z</time>
      </trkpt>
      <trkpt lat="50.12324" lon="4.1538">
        <ele>180.6</ele>
        <time>2024-04-29T05:42:03Z</time>
      </trkpt>
      <trkpt lat="50.12332" lon="4.15368">
        <ele>179.8</ele>
        <time>2024-04-29T05:42:04Z</time>
      </trkpt>
      <trkpt lat="50.12341" lon="4.15356">
        <ele>178.8</ele>
        <time>2024-04-29T05:42:05Z</time>
      </trkpt>
      <trkpt lat="50.12349" lon="4.15345">
        <ele>177.8</ele>
        <time>2024-04-29T05:42:06Z</time>
      </trkpt>
      <trkpt lat="50.12357" lon="4.15335">
        <ele>176.8</ele>
        <time>2024-04-29T05:42:07Z</time>
      </trkpt>
      <trkpt lat="50.12365" lon="4.15326">
        <ele>176</ele>
        <time>2024-04-29T05:42:08Z</time>
      </trkpt>
      <trkpt lat="50.12372" lon="4.15317">
        <ele>175.6</ele>
        <time>2024-04-29T05:42:09Z</time>
      </trkpt>
      <trkpt lat="50.12379" lon="4.15309">
        <ele>175.4</ele>
        <time>2024-04-29T05:42:10Z</time>
      </trkpt>
      <trkpt lat="50.12386" lon="4.15302">
        <ele>175.4</ele>
        <time>2024-04-29T05:42:11Z</time>
      </trkpt>
      <trkpt lat="50.12392" lon="4.15295">
        <ele>175.2</ele>
        <time>2024-04-29T05:42:12Z</time>
      </trkpt>
      <trkpt lat="50.12397" lon="4.15288">
        <ele>175.2</ele>
        <time>2024-04-29T05:42:13Z</time>
      </trkpt>
      <trkpt lat="50.12403" lon="4.15282">
        <ele>175.2</ele>
        <time>2024-04-29T05:42:14Z</time>
      </trkpt>
      <trkpt lat="50.12408" lon="4.15276">
        <ele>175.2</ele>
        <time>2024-04-29T05:42:15Z</time>
      </trkpt>
      <trkpt lat="50.12413" lon="4.1527">
        <ele>175.2</ele>
        <time>2024-04-29T05:42:16Z</time>
      </trkpt>
      <trkpt lat="50.12418" lon="4.15265">
        <ele>175.2</ele>
        <time>2024-04-29T05:42:17Z</time>
      </trkpt>
      <trkpt lat="50.12422" lon="4.1526">
        <ele>175.2</ele>
        <time>2024-04-29T05:42:18Z</time>
      </trkpt>
      <trkpt lat="50.12427" lon="4.15254">
        <ele>175.4</ele>
        <time>2024-04-29T05:42:19Z</time>
      </trkpt>
      <trkpt lat="50.12431" lon="4.15249">
        <ele>176.2</ele>
        <time>2024-04-29T05:42:20Z</time>
      </trkpt>
      <trkpt lat="50.12436" lon="4.15244">
        <ele>177</ele>
        <time>2024-04-29T05:42:21Z</time>
      </trkpt>
      <trkpt lat="50.1244" lon="4.15239">
        <ele>177.6</ele>
        <time>2024-04-29T05:42:22Z</time>
      </trkpt>
      <trkpt lat="50.12444" lon="4.15235">
        <ele>178.4</ele>
        <time>2024-04-29T05:42:23Z</time>
      </trkpt>
      <trkpt lat="50.12448" lon="4.1523">
        <ele>179</ele>
        <time>2024-04-29T05:42:24Z</time>
      </trkpt>
      <trkpt lat="50.12452" lon="4.15225">
        <ele>179.8</ele>
        <time>2024-04-29T05:42:25Z</time>
      </trkpt>
      <trkpt lat="50.12456" lon="4.15221">
        <ele>180.4</ele>
        <time>2024-04-29T05:42:26Z</time>
      </trkpt>
      <trkpt lat="50.1246" lon="4.15216">
        <ele>181.2</ele>
        <time>2024-04-29T05:42:27Z</time>
      </trkpt>
      <trkpt lat="50.12464" lon="4.15211">
        <ele>181.4</ele>
        <time>2024-04-29T05:42:28Z</time>
      </trkpt>
      <trkpt lat="50.12468" lon="4.15207">
        <ele>181.8</ele>
        <time>2024-04-29T05:42:29Z</time>
      </trkpt>
      <trkpt lat="50.12471" lon="4.15202">
        <ele>182</ele>
        <time>2024-04-29T05:42:30Z</time>
      </trkpt>
      <trkpt lat="50.12475" lon="4.15198">
        <ele>182.2</ele>
        <time>2024-04-29T05:42:31Z</time>
      </trkpt>
      <trkpt lat="50.12479" lon="4.15193">
        <ele>182.6</ele>
        <time>2024-04-29T05:42:32Z</time>
      </trkpt>
      <trkpt lat="50.12482" lon="4.15188">
        <ele>182.8</ele>
        <time>2024-04-29T05:42:33Z</time>
      </trkpt>
      <trkpt lat="50.12485" lon="4.15183">
        <ele>183</ele>
        <time>2024-04-29T05:42:34Z</time>
      </trkpt>
      <trkpt lat="50.12489" lon="4.15178">
        <ele>183</ele>
        <time>2024-04-29T05:42:35Z</time>
      </trkpt>
      <trkpt lat="50.12492" lon="4.15173">
        <ele>183.6</ele>
        <time>2024-04-29T05:42:36Z</time>
      </trkpt>
      <trkpt lat="50.12495" lon="4.15167">
        <ele>184.2</ele>
        <time>2024-04-29T05:42:37Z</time>
      </trkpt>
      <trkpt lat="50.12498" lon="4.15161">
        <ele>184.6</ele>
        <time>2024-04-29T05:42:38Z</time>
      </trkpt>
      <trkpt lat="50.12501" lon="4.15156">
        <ele>185.2</ele>
        <time>2024-04-29T05:42:39Z</time>
      </trkpt>
      <trkpt lat="50.12504" lon="4.1515">
        <ele>185.6</ele>
        <time>2024-04-29T05:42:40Z</time>
      </trkpt>
      <trkpt lat="50.12507" lon="4.15145">
        <ele>186.2</ele>
        <time>2024-04-29T05:42:41Z</time>
      </trkpt>
      <trkpt lat="50.1251" lon="4.15139">
        <ele>186.6</ele>
        <time>2024-04-29T05:42:42Z</time>
      </trkpt>
      <trkpt lat="50.12513" lon="4.15133">
        <ele>187</ele>
        <time>2024-04-29T05:42:43Z</time>
      </trkpt>
      <trkpt lat="50.12515" lon="4.15127">
        <ele>187.2</ele>
        <time>2024-04-29T05:42:44Z</time>
      </trkpt>
      <trkpt lat="50.12518" lon="4.15122">
        <ele>187.6</ele>
        <time>2024-04-29T05:42:45Z</time>
      </trkpt>
      <trkpt lat="50.12521" lon="4.15116">
        <ele>188</ele>
        <time>2024-04-29T05:42:46Z</time>
      </trkpt>
      <trkpt lat="50.12523" lon="4.1511">
        <ele>188.4</ele>
        <time>2024-04-29T05:42:47Z</time>
      </trkpt>
      <trkpt lat="50.12526" lon="4.15104">
        <ele>189</ele>
        <time>2024-04-29T05:42:48Z</time>
      </trkpt>
      <trkpt lat="50.12528" lon="4.15098">
        <ele>189.4</ele>
        <time>2024-04-29T05:42:49Z</time>
      </trkpt>
      <trkpt lat="50.12531" lon="4.15093">
        <ele>189.8</ele>
        <time>2024-04-29T05:42:50Z</time>
      </trkpt>
      <trkpt lat="50.12533" lon="4.15087">
        <ele>190</ele>
        <time>2024-04-29T05:42:51Z</time>
      </trkpt>
      <trkpt lat="50.12536" lon="4.15081">
        <ele>190.4</ele>
        <time>2024-04-29T05:42:52Z</time>
      </trkpt>
      <trkpt lat="50.12538" lon="4.15075">
        <ele>190.8</ele>
        <time>2024-04-29T05:42:53Z</time>
      </trkpt>
      <trkpt lat="50.1254" lon="4.15069">
        <ele>191.2</ele>
        <time>2024-04-29T05:42:54Z</time>
      </trkpt>
      <trkpt lat="50.12542" lon="4.15062">
        <ele>191.8</ele>
        <time>2024-04-29T05:42:55Z</time>
      </trkpt>
      <trkpt lat="50.12544" lon="4.15056">
        <ele>192</ele>
        <time>2024-04-29T05:42:56Z</time>
      </trkpt>
      <trkpt lat="50.12546" lon="4.15049">
        <ele>192.4</ele>
        <time>2024-04-29T05:42:57Z</time>
      </trkpt>
      <trkpt lat="50.12548" lon="4.15042">
        <ele>192.4</ele>
        <time>2024-04-29T05:42:58Z</time>
      </trkpt>
      <trkpt lat="50.12549" lon="4.15036">
        <ele>192.6</ele>
        <time>2024-04-29T05:42:59Z</time>
      </trkpt>
      <trkpt lat="50.1255" lon="4.15029">
        <ele>193.2</ele>
        <time>2024-04-29T05:43:00Z</time>
      </trkpt>
      <trkpt lat="50.12552" lon="4.15021">
        <ele>194</ele>
        <time>2024-04-29T05:43:01Z</time>
      </trkpt>
      <trkpt lat="50.12552" lon="4.15014">
        <ele>195.2</ele>
        <time>2024-04-29T05:43:02Z</time>
      </trkpt>
      <trkpt lat="50.12553" lon="4.15006">
        <ele>195.8</ele>
        <time>2024-04-29T05:43:03Z</time>
      </trkpt>
      <trkpt lat="50.12553" lon="4.14999">
        <ele>196.2</ele>
        <time>2024-04-29T05:43:04Z</time>
      </trkpt>
      <trkpt lat="50.12552" lon="4.14991">
        <ele>196.8</ele>
        <time>2024-04-29T05:43:05Z</time>
      </trkpt>
      <trkpt lat="50.12552" lon="4.14983">
        <ele>197</ele>
        <time>2024-04-29T05:43:06Z</time>
      </trkpt>
      <trkpt lat="50.12551" lon="4.14975">
        <ele>197.6</ele>
        <time>2024-04-29T05:43:07Z</time>
      </trkpt>
      <trkpt lat="50.1255" lon="4.14968">
        <ele>197.6</ele>
        <time>2024-04-29T05:43:08Z</time>
      </trkpt>
      <trkpt lat="50.12549" lon="4.14961">
        <ele>197.8</ele>
        <time>2024-04-29T05:43:09Z</time>
      </trkpt>
      <trkpt lat="50.12548" lon="4.14953">
        <ele>198</ele>
        <time>2024-04-29T05:43:10Z</time>
      </trkpt>
      <trkpt lat="50.12547" lon="4.14946">
        <ele>198.2</ele>
        <time>2024-04-29T05:43:11Z</time>
      </trkpt>
      <trkpt lat="50.12546" lon="4.14939">
        <ele>198.4</ele>
        <time>2024-04-29T05:43:12Z</time>
      </trkpt>
      <trkpt lat="50.12544" lon="4.14932">
        <ele>198.4</ele>
        <time>2024-04-29T05:43:13Z</time>
      </trkpt>
      <trkpt lat="50.12543" lon="4.14925">
        <ele>198.8</ele>
        <time>2024-04-29T05:43:14Z</time>
      </trkpt>
      <trkpt lat="50.12542" lon="4.14918">
        <ele>199.4</ele>
        <time>2024-04-29T05:43:15Z</time>
      </trkpt>
      <trkpt lat="50.12541" lon="4.14911">
        <ele>199.6</ele>
        <time>2024-04-29T05:43:16Z</time>
      </trkpt>
      <trkpt lat="50.1254" lon="4.14904">
        <ele>199.8</ele>
        <time>2024-04-29T05:43:17Z</time>
      </trkpt>
      <trkpt lat="50.12538" lon="4.14897">
        <ele>200.2</ele>
        <time>2024-04-29T05:43:18Z</time>
      </trkpt>
      <trkpt lat="50.12537" lon="4.14889">
        <ele>200.8</ele>
        <time>2024-04-29T05:43:19Z</time>
      </trkpt>
      <trkpt lat="50.12535" lon="4.14882">
        <ele>200.8</ele>
        <time>2024-04-29T05:43:20Z</time>
      </trkpt>
      <trkpt lat="50.12534" lon="4.14874">
        <ele>201.2</ele>
        <time>2024-04-29T05:43:21Z</time>
      </trkpt>
      <trkpt lat="50.12532" lon="4.14867">
        <ele>201.6</ele>
        <time>2024-04-29T05:43:22Z</time>
      </trkpt>
      <trkpt lat="50.12531" lon="4.1486">
        <ele>201.8</ele>
        <time>2024-04-29T05:43:23Z</time>
      </trkpt>
      <trkpt lat="50.12529" lon="4.14852">
        <ele>202.2</ele>
        <time>2024-04-29T05:43:24Z</time>
      </trkpt>
      <trkpt lat="50.12528" lon="4.14845">
        <ele>202.4</ele>
        <time>2024-04-29T05:43:25Z</time>
      </trkpt>
      <trkpt lat="50.12527" lon="4.14837">
        <ele>202.8</ele>
        <time>2024-04-29T05:43:26Z</time>
      </trkpt>
      <trkpt lat="50.12525" lon="4.14829">
        <ele>203.2</ele>
        <time>2024-04-29T05:43:27Z</time>
      </trkpt>
      <trkpt lat="50.12524" lon="4.14822">
        <ele>203.6</ele>
        <time>2024-04-29T05:43:28Z</time>
      </trkpt>
      <trkpt lat="50.12523" lon="4.14814">
        <ele>204</ele>
        <time>2024-04-29T05:43:29Z</time>
      </trkpt>
      <trkpt lat="50.12523" lon="4.14806">
        <ele>204.2</ele>
        <time>2024-04-29T05:43:30Z</time>
      </trkpt>
      <trkpt lat="50.12522" lon="4.14798">
        <ele>204.6</ele>
        <time>2024-04-29T05:43:31Z</time>
      </trkpt>
      <trkpt lat="50.12522" lon="4.1479">
        <ele>204.8</ele>
        <time>2024-04-29T05:43:32Z</time>
      </trkpt>
      <trkpt lat="50.12522" lon="4.14783">
        <ele>205.2</ele>
        <time>2024-04-29T05:43:33Z</time>
      </trkpt>
      <trkpt lat="50.12521" lon="4.14775">
        <ele>205.6</ele>
        <time>2024-04-29T05:43:34Z</time>
      </trkpt>
      <trkpt lat="50.1252" lon="4.14768">
        <ele>206</ele>
        <time>2024-04-29T05:43:35Z</time>
      </trkpt>
      <trkpt lat="50.12519" lon="4.14761">
        <ele>206</ele>
        <time>2024-04-29T05:43:36Z</time>
      </trkpt>
      <trkpt lat="50.12516" lon="4.14755">
        <ele>206.4</ele>
        <time>2024-04-29T05:43:37Z</time>
      </trkpt>
      <trkpt lat="50.12513" lon="4.1475">
        <ele>206.8</ele>
        <time>2024-04-29T05:43:38Z</time>
      </trkpt>
      <trkpt lat="50.12508" lon="4.14747">
        <ele>206.8</ele>
        <time>2024-04-29T05:43:39Z</time>
      </trkpt>
      <trkpt lat="50.12503" lon="4.14746">
        <ele>207.4</ele>
        <time>2024-04-29T05:43:40Z</time>
      </trkpt>
      <trkpt lat="50.12497" lon="4.14746">
        <ele>207.4</ele>
        <time>2024-04-29T05:43:41Z</time>
      </trkpt>
      <trkpt lat="50.12491" lon="4.14746">
        <ele>208.4</ele>
        <time>2024-04-29T05:43:42Z</time>
      </trkpt>
      <trkpt lat="50.12485" lon="4.14745">
        <ele>209.2</ele>
        <time>2024-04-29T05:43:43Z</time>
      </trkpt>
      <trkpt lat="50.12478" lon="4.14742">
        <ele>209.4</ele>
        <time>2024-04-29T05:43:44Z</time>
      </trkpt>
      <trkpt lat="50.12472" lon="4.14739">
        <ele>209.8</ele>
        <time>2024-04-29T05:43:45Z</time>
      </trkpt>
      <trkpt lat="50.12466" lon="4.14735">
        <ele>209.8</ele>
        <time>2024-04-29T05:43:46Z</time>
      </trkpt>
      <trkpt lat="50.12461" lon="4.1473">
        <ele>210</ele>
        <time>2024-04-29T05:43:47Z</time>
      </trkpt>
      <trkpt lat="50.12455" lon="4.14725">
        <ele>210</ele>
        <time>2024-04-29T05:43:48Z</time>
      </trkpt>
      <trkpt lat="50.12449" lon="4.14719">
        <ele>210.2</ele>
        <time>2024-04-29T05:43:49Z</time>
      </trkpt>
      <trkpt lat="50.12444" lon="4.14713">
        <ele>210.2</ele>
        <time>2024-04-29T05:43:50Z</time>
      </trkpt>
      <trkpt lat="50.12439" lon="4.14707">
        <ele>210.2</ele>
        <time>2024-04-29T05:43:51Z</time>
      </trkpt>
      <trkpt lat="50.12433" lon="4.147">
        <ele>210.2</ele>
        <time>2024-04-29T05:43:52Z</time>
      </trkpt>
      <trkpt lat="50.12428" lon="4.14694">
        <ele>210.2</ele>
        <time>2024-04-29T05:43:53Z</time>
      </trkpt>
      <trkpt lat="50.12423" lon="4.14686">
        <ele>210.2</ele>
        <time>2024-04-29T05:43:54Z</time>
      </trkpt>
      <trkpt lat="50.12419" lon="4.14678">
        <ele>210.4</ele>
        <time>2024-04-29T05:43:55Z</time>
      </trkpt>
      <trkpt lat="50.12414" lon="4.1467">
        <ele>210.4</ele>
        <time>2024-04-29T05:43:56Z</time>
      </trkpt>
      <trkpt lat="50.1241" lon="4.14661">
        <ele>210.6</ele>
        <time>2024-04-29T05:43:57Z</time>
      </trkpt>
      <trkpt lat="50.12406" lon="4.14653">
        <ele>210.8</ele>
        <time>2024-04-29T05:43:58Z</time>
      </trkpt>
      <trkpt lat="50.12401" lon="4.14644">
        <ele>211</ele>
        <time>2024-04-29T05:43:59Z</time>
      </trkpt>
      <trkpt lat="50.12397" lon="4.14635">
        <ele>211.2</ele>
        <time>2024-04-29T05:44:00Z</time>
      </trkpt>
      <trkpt lat="50.12393" lon="4.14626">
        <ele>211.2</ele>
        <time>2024-04-29T05:44:01Z</time>
      </trkpt>
      <trkpt lat="50.12389" lon="4.14617">
        <ele>211.2</ele>
        <time>2024-04-29T05:44:02Z</time>
      </trkpt>
      <trkpt lat="50.12385" lon="4.14608">
        <ele>211.2</ele>
        <time>2024-04-29T05:44:03Z</time>
      </trkpt>
      <trkpt lat="50.1238" lon="4.14598">
        <ele>211.4</ele>
        <time>2024-04-29T05:44:04Z</time>
      </trkpt>
      <trkpt lat="50.12376" lon="4.14589">
        <ele>211.4</ele>
        <time>2024-04-29T05:44:05Z</time>
      </trkpt>
      <trkpt lat="50.12371" lon="4.14579">
        <ele>211.4</ele>
        <time>2024-04-29T05:44:06Z</time>
      </trkpt>
      <trkpt lat="50.12367" lon="4.1457">
        <ele>211.6</ele>
        <time>2024-04-29T05:44:07Z</time>
      </trkpt>
      <trkpt lat="50.12362" lon="4.1456">
        <ele>211.6</ele>
        <time>2024-04-29T05:44:08Z</time>
      </trkpt>
      <trkpt lat="50.12357" lon="4.14549">
        <ele>211.4</ele>
        <time>2024-04-29T05:44:09Z</time>
      </trkpt>
      <trkpt lat="50.12352" lon="4.14539">
        <ele>211.6</ele>
        <time>2024-04-29T05:44:10Z</time>
      </trkpt>
      <trkpt lat="50.12347" lon="4.14528">
        <ele>211.6</ele>
        <time>2024-04-29T05:44:11Z</time>
      </trkpt>
      <trkpt lat="50.12342" lon="4.14517">
        <ele>211.4</ele>
        <time>2024-04-29T05:44:12Z</time>
      </trkpt>
      <trkpt lat="50.12337" lon="4.14505">
        <ele>211.4</ele>
        <time>2024-04-29T05:44:13Z</time>
      </trkpt>
      <trkpt lat="50.12331" lon="4.14494">
        <ele>211.2</ele>
        <time>2024-04-29T05:44:14Z</time>
      </trkpt>
      <trkpt lat="50.12326" lon="4.14482">
        <ele>210.6</ele>
        <time>2024-04-29T05:44:15Z</time>
      </trkpt>
      <trkpt lat="50.1232" lon="4.1447">
        <ele>210.2</ele>
        <time>2024-04-29T05:44:16Z</time>
      </trkpt>
      <trkpt lat="50.12315" lon="4.14458">
        <ele>209.6</ele>
        <time>2024-04-29T05:44:17Z</time>
      </trkpt>
      <trkpt lat="50.12309" lon="4.14445">
        <ele>209.4</ele>
        <time>2024-04-29T05:44:18Z</time>
      </trkpt>
      <trkpt lat="50.12303" lon="4.14433">
        <ele>209</ele>
        <time>2024-04-29T05:44:19Z</time>
      </trkpt>
      <trkpt lat="50.12298" lon="4.1442">
        <ele>208.2</ele>
        <time>2024-04-29T05:44:20Z</time>
      </trkpt>
      <trkpt lat="50.12293" lon="4.14408">
        <ele>207.6</ele>
        <time>2024-04-29T05:44:21Z</time>
      </trkpt>
      <trkpt lat="50.12287" lon="4.14396">
        <ele>207</ele>
        <time>2024-04-29T05:44:22Z</time>
      </trkpt>
      <trkpt lat="50.12282" lon="4.14385">
        <ele>206</ele>
        <time>2024-04-29T05:44:23Z</time>
      </trkpt>
      <trkpt lat="50.12277" lon="4.14374">
        <ele>205.6</ele>
        <time>2024-04-29T05:44:24Z</time>
      </trkpt>
      <trkpt lat="50.12272" lon="4.14364">
        <ele>205.6</ele>
        <time>2024-04-29T05:44:25Z</time>
      </trkpt>
      <trkpt lat="50.12267" lon="4.14353">
        <ele>205.2</ele>
        <time>2024-04-29T05:44:26Z</time>
      </trkpt>
      <trkpt lat="50.12262" lon="4.14343">
        <ele>205</ele>
        <time>2024-04-29T05:44:27Z</time>
      </trkpt>
      <trkpt lat="50.12258" lon="4.14334">
        <ele>204.6</ele>
        <time>2024-04-29T05:44:28Z</time>
      </trkpt>
      <trkpt lat="50.12254" lon="4.14325">
        <ele>204.4</ele>
        <time>2024-04-29T05:44:29Z</time>
      </trkpt>
      <trkpt lat="50.1225" lon="4.14317">
        <ele>204.4</ele>
        <time>2024-04-29T05:44:30Z</time>
      </trkpt>
      <trkpt lat="50.12246" lon="4.14308">
        <ele>204.4</ele>
        <time>2024-04-29T05:44:31Z</time>
      </trkpt>
      <trkpt lat="50.12243" lon="4.143">
        <ele>204.4</ele>
        <time>2024-04-29T05:44:32Z</time>
      </trkpt>
      <trkpt lat="50.12239" lon="4.14292">
        <ele>204.4</ele>
        <time>2024-04-29T05:44:33Z</time>
      </trkpt>
      <trkpt lat="50.12236" lon="4.14285">
        <ele>204.4</ele>
        <time>2024-04-29T05:44:34Z</time>
      </trkpt>
      <trkpt lat="50.12232" lon="4.14277">
        <ele>204.6</ele>
        <time>2024-04-29T05:44:35Z</time>
      </trkpt>
      <trkpt lat="50.1223" lon="4.1427">
        <ele>204.4</ele>
        <time>2024-04-29T05:44:36Z</time>
      </trkpt>
      <trkpt lat="50.12226" lon="4.14263">
        <ele>204.6</ele>
        <time>2024-04-29T05:44:37Z</time>
      </trkpt>
      <trkpt lat="50.12223" lon="4.14256">
        <ele>204.6</ele>
        <time>2024-04-29T05:44:38Z</time>
      </trkpt>
      <trkpt lat="50.1222" lon="4.14249">
        <ele>204.8</ele>
        <time>2024-04-29T05:44:39Z</time>
      </trkpt>
      <trkpt lat="50.12218" lon="4.14243">
        <ele>205.4</ele>
        <time>2024-04-29T05:44:40Z</time>
      </trkpt>
      <trkpt lat="50.12215" lon="4.14237">
        <ele>205.8</ele>
        <time>2024-04-29T05:44:41Z</time>
      </trkpt>
      <trkpt lat="50.12212" lon="4.14231">
        <ele>206</ele>
        <time>2024-04-29T05:44:42Z</time>
      </trkpt>
      <trkpt lat="50.1221" lon="4.14225">
        <ele>206.2</ele>
        <time>2024-04-29T05:44:43Z</time>
      </trkpt>
      <trkpt lat="50.12207" lon="4.14219">
        <ele>206.8</ele>
        <time>2024-04-29T05:44:44Z</time>
      </trkpt>
      <trkpt lat="50.12204" lon="4.14212">
        <ele>207.2</ele>
        <time>2024-04-29T05:44:45Z</time>
      </trkpt>
      <trkpt lat="50.12201" lon="4.14206">
        <ele>207.2</ele>
        <time>2024-04-29T05:44:46Z</time>
      </trkpt>
      <trkpt lat="50.12198" lon="4.142">
        <ele>207.8</ele>
        <time>2024-04-29T05:44:47Z</time>
      </trkpt>
      <trkpt lat="50.12195" lon="4.14193">
        <ele>208.4</ele>
        <time>2024-04-29T05:44:48Z</time>
      </trkpt>
      <trkpt lat="50.12192" lon="4.14187">
        <ele>209</ele>
        <time>2024-04-29T05:44:49Z</time>
      </trkpt>
      <trkpt lat="50.12189" lon="4.1418">
        <ele>209.4</ele>
        <time>2024-04-29T05:44:50Z</time>
      </trkpt>
      <trkpt lat="50.12186" lon="4.14173">
        <ele>209.8</ele>
        <time>2024-04-29T05:44:51Z</time>
      </trkpt>
      <trkpt lat="50.12184" lon="4.14166">
        <ele>210.4</ele>
        <time>2024-04-29T05:44:52Z</time>
      </trkpt>
      <trkpt lat="50.12181" lon="4.14159">
        <ele>210.6</ele>
        <time>2024-04-29T05:44:53Z</time>
      </trkpt>
      <trkpt lat="50.12178" lon="4.14151">
        <ele>211.4</ele>
        <time>2024-04-29T05:44:54Z</time>
      </trkpt>
      <trkpt lat="50.12176" lon="4.14144">
        <ele>211.8</ele>
        <time>2024-04-29T05:44:55Z</time>
      </trkpt>
      <trkpt lat="50.12174" lon="4.14136">
        <ele>212.2</ele>
        <time>2024-04-29T05:44:56Z</time>
      </trkpt>
      <trkpt lat="50.12172" lon="4.14128">
        <ele>212.6</ele>
        <time>2024-04-29T05:44:57Z</time>
      </trkpt>
      <trkpt lat="50.12171" lon="4.1412">
        <ele>213</ele>
        <time>2024-04-29T05:44:58Z</time>
      </trkpt>
      <trkpt lat="50.12169" lon="4.14112">
        <ele>213.2</ele>
        <time>2024-04-29T05:44:59Z</time>
      </trkpt>
      <trkpt lat="50.12167" lon="4.14102">
        <ele>213.2</ele>
        <time>2024-04-29T05:45:00Z</time>
      </trkpt>
      <trkpt lat="50.12165" lon="4.14093">
        <ele>213.8</ele>
        <time>2024-04-29T05:45:01Z</time>
      </trkpt>
      <trkpt lat="50.12163" lon="4.14083">
        <ele>214.4</ele>
        <time>2024-04-29T05:45:02Z</time>
      </trkpt>
      <trkpt lat="50.12162" lon="4.14072">
        <ele>215</ele>
        <time>2024-04-29T05:45:03Z</time>
      </trkpt>
      <trkpt lat="50.1216" lon="4.14062">
        <ele>215.2</ele>
        <time>2024-04-29T05:45:04Z</time>
      </trkpt>
      <trkpt lat="50.12158" lon="4.14051">
        <ele>215.4</ele>
        <time>2024-04-29T05:45:05Z</time>
      </trkpt>
      <trkpt lat="50.12157" lon="4.1404">
        <ele>215.2</ele>
        <time>2024-04-29T05:45:06Z</time>
      </trkpt>
      <trkpt lat="50.12156" lon="4.14028">
        <ele>215.2</ele>
        <time>2024-04-29T05:45:07Z</time>
      </trkpt>
      <trkpt lat="50.12155" lon="4.14016">
        <ele>215.8</ele>
        <time>2024-04-29T05:45:08Z</time>
      </trkpt>
      <trkpt lat="50.12155" lon="4.14004">
        <ele>216</ele>
        <time>2024-04-29T05:45:09Z</time>
      </trkpt>
      <trkpt lat="50.12154" lon="4.13991">
        <ele>216</ele>
        <time>2024-04-29T05:45:10Z</time>
      </trkpt>
      <trkpt lat="50.12154" lon="4.13978">
        <ele>215.8</ele>
        <time>2024-04-29T05:45:11Z</time>
      </trkpt>
      <trkpt lat="50.12155" lon="4.13964">
        <ele>216</ele>
        <time>2024-04-29T05:45:12Z</time>
      </trkpt>
      <trkpt lat="50.12156" lon="4.1395">
        <ele>216</ele>
        <time>2024-04-29T05:45:13Z</time>
      </trkpt>
      <trkpt lat="50.12157" lon="4.13936">
        <ele>215.6</ele>
        <time>2024-04-29T05:45:14Z</time>
      </trkpt>
      <trkpt lat="50.12159" lon="4.13921">
        <ele>215.6</ele>
        <time>2024-04-29T05:45:15Z</time>
      </trkpt>
      <trkpt lat="50.12161" lon="4.13905">
        <ele>214.8</ele>
        <time>2024-04-29T05:45:16Z</time>
      </trkpt>
      <trkpt lat="50.12164" lon="4.13888">
        <ele>214.2</ele>
        <time>2024-04-29T05:45:17Z</time>
      </trkpt>
      <trkpt lat="50.12168" lon="4.13871">
        <ele>213.6</ele>
        <time>2024-04-29T05:45:18Z</time>
      </trkpt>
      <trkpt lat="50.12173" lon="4.13855">
        <ele>213.2</ele>
        <time>2024-04-29T05:45:19Z</time>
      </trkpt>
      <trkpt lat="50.12178" lon="4.13837">
        <ele>212.8</ele>
        <time>2024-04-29T05:45:20Z</time>
      </trkpt>
      <trkpt lat="50.12184" lon="4.1382">
        <ele>212.6</ele>
        <time>2024-04-29T05:45:21Z</time>
      </trkpt>
      <trkpt lat="50.1219" lon="4.13804">
        <ele>212</ele>
        <time>2024-04-29T05:45:22Z</time>
      </trkpt>
      <trkpt lat="50.12196" lon="4.13787">
        <ele>210.6</ele>
        <time>2024-04-29T05:45:23Z</time>
      </trkpt>
      <trkpt lat="50.12204" lon="4.1377">
        <ele>209.8</ele>
        <time>2024-04-29T05:45:24Z</time>
      </trkpt>
      <trkpt lat="50.12212" lon="4.13752">
        <ele>208.2</ele>
        <time>2024-04-29T05:45:25Z</time>
      </trkpt>
      <trkpt lat="50.1222" lon="4.13735">
        <ele>206.6</ele>
        <time>2024-04-29T05:45:26Z</time>
      </trkpt>
      <trkpt lat="50.12228" lon="4.13718">
        <ele>205.8</ele>
        <time>2024-04-29T05:45:27Z</time>
      </trkpt>
      <trkpt lat="50.12236" lon="4.13701">
        <ele>204.8</ele>
        <time>2024-04-29T05:45:28Z</time>
      </trkpt>
      <trkpt lat="50.12243" lon="4.13683">
        <ele>204.8</ele>
        <time>2024-04-29T05:45:29Z</time>
      </trkpt>
      <trkpt lat="50.12251" lon="4.13667">
        <ele>204</ele>
        <time>2024-04-29T05:45:30Z</time>
      </trkpt>
      <trkpt lat="50.12258" lon="4.13651">
        <ele>202.6</ele>
        <time>2024-04-29T05:45:31Z</time>
      </trkpt>
      <trkpt lat="50.12265" lon="4.13635">
        <ele>201.6</ele>
        <time>2024-04-29T05:45:32Z</time>
      </trkpt>
      <trkpt lat="50.12272" lon="4.1362">
        <ele>200</ele>
        <time>2024-04-29T05:45:33Z</time>
      </trkpt>
      <trkpt lat="50.12279" lon="4.13605">
        <ele>198.6</ele>
        <time>2024-04-29T05:45:34Z</time>
      </trkpt>
      <trkpt lat="50.12285" lon="4.13591">
        <ele>197</ele>
        <time>2024-04-29T05:45:35Z</time>
      </trkpt>
      <trkpt lat="50.12291" lon="4.13578">
        <ele>195.6</ele>
        <time>2024-04-29T05:45:36Z</time>
      </trkpt>
      <trkpt lat="50.12297" lon="4.13565">
        <ele>194.8</ele>
        <time>2024-04-29T05:45:37Z</time>
      </trkpt>
      <trkpt lat="50.12302" lon="4.13553">
        <ele>194.4</ele>
        <time>2024-04-29T05:45:38Z</time>
      </trkpt>
      <trkpt lat="50.12307" lon="4.13542">
        <ele>194.2</ele>
        <time>2024-04-29T05:45:39Z</time>
      </trkpt>
      <trkpt lat="50.12312" lon="4.13532">
        <ele>194</ele>
        <time>2024-04-29T05:45:40Z</time>
      </trkpt>
      <trkpt lat="50.12316" lon="4.13522">
        <ele>194</ele>
        <time>2024-04-29T05:45:41Z</time>
      </trkpt>
      <trkpt lat="50.12321" lon="4.13512">
        <ele>194</ele>
        <time>2024-04-29T05:45:42Z</time>
      </trkpt>
      <trkpt lat="50.12325" lon="4.13503">
        <ele>194</ele>
        <time>2024-04-29T05:45:43Z</time>
      </trkpt>
      <trkpt lat="50.12328" lon="4.13495">
        <ele>194</ele>
        <time>2024-04-29T05:45:44Z</time>
      </trkpt>
      <trkpt lat="50.12331" lon="4.13487">
        <ele>194</ele>
        <time>2024-04-29T05:45:45Z</time>
      </trkpt>
      <trkpt lat="50.12335" lon="4.1348">
        <ele>194</ele>
        <time>2024-04-29T05:45:46Z</time>
      </trkpt>
      <trkpt lat="50.12338" lon="4.13472">
        <ele>194.6</ele>
        <time>2024-04-29T05:45:47Z</time>
      </trkpt>
      <trkpt lat="50.1234" lon="4.13466">
        <ele>195.2</ele>
        <time>2024-04-29T05:45:48Z</time>
      </trkpt>
      <trkpt lat="50.12343" lon="4.13459">
        <ele>196</ele>
        <time>2024-04-29T05:45:49Z</time>
      </trkpt>
      <trkpt lat="50.12345" lon="4.13453">
        <ele>196.4</ele>
        <time>2024-04-29T05:45:50Z</time>
      </trkpt>
      <trkpt lat="50.12347" lon="4.13446">
        <ele>196.4</ele>
        <time>2024-04-29T05:45:51Z</time>
      </trkpt>
      <trkpt lat="50.12349" lon="4.13439">
        <ele>196.6</ele>
        <time>2024-04-29T05:45:52Z</time>
      </trkpt>
      <trkpt lat="50.12351" lon="4.13433">
        <ele>197.6</ele>
        <time>2024-04-29T05:45:53Z</time>
      </trkpt>
      <trkpt lat="50.12354" lon="4.13427">
        <ele>198.4</ele>
        <time>2024-04-29T05:45:54Z</time>
      </trkpt>
      <trkpt lat="50.12356" lon="4.13421">
        <ele>199.4</ele>
        <time>2024-04-29T05:45:55Z</time>
      </trkpt>
      <trkpt lat="50.12358" lon="4.13414">
        <ele>200</ele>
        <time>2024-04-29T05:45:56Z</time>
      </trkpt>
      <trkpt lat="50.1236" lon="4.13408">
        <ele>200.8</ele>
        <time>2024-04-29T05:45:57Z</time>
      </trkpt>
      <trkpt lat="50.12362" lon="4.13401">
        <ele>201.6</ele>
        <time>2024-04-29T05:45:58Z</time>
      </trkpt>
      <trkpt lat="50.12364" lon="4.13394">
        <ele>202.2</ele>
        <time>2024-04-29T05:45:59Z</time>
      </trkpt>
      <trkpt lat="50.12366" lon="4.13387">
        <ele>203</ele>
        <time>2024-04-29T05:46:00Z</time>
      </trkpt>
      <trkpt lat="50.12368" lon="4.1338">
        <ele>203.4</ele>
        <time>2024-04-29T05:46:01Z</time>
      </trkpt>
      <trkpt lat="50.1237" lon="4.13373">
        <ele>203.8</ele>
        <time>2024-04-29T05:46:02Z</time>
      </trkpt>
      <trkpt lat="50.12372" lon="4.13366">
        <ele>204.2</ele>
        <time>2024-04-29T05:46:03Z</time>
      </trkpt>
      <trkpt lat="50.12374" lon="4.13358">
        <ele>204.8</ele>
        <time>2024-04-29T05:46:04Z</time>
      </trkpt>
      <trkpt lat="50.12376" lon="4.1335">
        <ele>205.2</ele>
        <time>2024-04-29T05:46:05Z</time>
      </trkpt>
      <trkpt lat="50.12378" lon="4.13343">
        <ele>205.6</ele>
        <time>2024-04-29T05:46:06Z</time>
      </trkpt>
      <trkpt lat="50.12381" lon="4.13335">
        <ele>206</ele>
        <time>2024-04-29T05:46:07Z</time>
      </trkpt>
      <trkpt lat="50.12383" lon="4.13328">
        <ele>206.4</ele>
        <time>2024-04-29T05:46:08Z</time>
      </trkpt>
      <trkpt lat="50.12385" lon="4.13321">
        <ele>207</ele>
        <time>2024-04-29T05:46:09Z</time>
      </trkpt>
      <trkpt lat="50.12388" lon="4.13313">
        <ele>207.4</ele>
        <time>2024-04-29T05:46:10Z</time>
      </trkpt>
      <trkpt lat="50.1239" lon="4.13306">
        <ele>207.8</ele>
        <time>2024-04-29T05:46:11Z</time>
      </trkpt>
      <trkpt lat="50.12393" lon="4.13298">
        <ele>207.8</ele>
        <time>2024-04-29T05:46:12Z</time>
      </trkpt>
      <trkpt lat="50.12395" lon="4.1329">
        <ele>208</ele>
        <time>2024-04-29T05:46:13Z</time>
      </trkpt>
      <trkpt lat="50.12398" lon="4.13283">
        <ele>208.4</ele>
        <time>2024-04-29T05:46:14Z</time>
      </trkpt>
      <trkpt lat="50.124" lon="4.13275">
        <ele>208.8</ele>
        <time>2024-04-29T05:46:15Z</time>
      </trkpt>
      <trkpt lat="50.12402" lon="4.13267">
        <ele>209</ele>
        <time>2024-04-29T05:46:16Z</time>
      </trkpt>
      <trkpt lat="50.12405" lon="4.13259">
        <ele>209.4</ele>
        <time>2024-04-29T05:46:17Z</time>
      </trkpt>
      <trkpt lat="50.12407" lon="4.1325">
        <ele>209.6</ele>
        <time>2024-04-29T05:46:18Z</time>
      </trkpt>
      <trkpt lat="50.12409" lon="4.13242">
        <ele>209.8</ele>
        <time>2024-04-29T05:46:19Z</time>
      </trkpt>
      <trkpt lat="50.12412" lon="4.13233">
        <ele>210.2</ele>
        <time>2024-04-29T05:46:20Z</time>
      </trkpt>
      <trkpt lat="50.12415" lon="4.13224">
        <ele>210.2</ele>
        <time>2024-04-29T05:46:21Z</time>
      </trkpt>
      <trkpt lat="50.12418" lon="4.13214">
        <ele>210.8</ele>
        <time>2024-04-29T05:46:22Z</time>
      </trkpt>
      <trkpt lat="50.12421" lon="4.13205">
        <ele>211</ele>
        <time>2024-04-29T05:46:23Z</time>
      </trkpt>
      <trkpt lat="50.12424" lon="4.13195">
        <ele>211.2</ele>
        <time>2024-04-29T05:46:24Z</time>
      </trkpt>
      <trkpt lat="50.12427" lon="4.13185">
        <ele>211.4</ele>
        <time>2024-04-29T05:46:25Z</time>
      </trkpt>
      <trkpt lat="50.1243" lon="4.13175">
        <ele>211.4</ele>
        <time>2024-04-29T05:46:26Z</time>
      </trkpt>
      <trkpt lat="50.12433" lon="4.13165">
        <ele>211.4</ele>
        <time>2024-04-29T05:46:27Z</time>
      </trkpt>
      <trkpt lat="50.12436" lon="4.13154">
        <ele>211.4</ele>
        <time>2024-04-29T05:46:28Z</time>
      </trkpt>
      <trkpt lat="50.12439" lon="4.13144">
        <ele>211.4</ele>
        <time>2024-04-29T05:46:29Z</time>
      </trkpt>
      <trkpt lat="50.12442" lon="4.13133">
        <ele>211.4</ele>
        <time>2024-04-29T05:46:30Z</time>
      </trkpt>
      <trkpt lat="50.12444" lon="4.13122">
        <ele>211.4</ele>
        <time>2024-04-29T05:46:31Z</time>
      </trkpt>
      <trkpt lat="50.12447" lon="4.13111">
        <ele>211.4</ele>
        <time>2024-04-29T05:46:32Z</time>
      </trkpt>
      <trkpt lat="50.1245" lon="4.13099">
        <ele>211.4</ele>
        <time>2024-04-29T05:46:33Z</time>
      </trkpt>
      <trkpt lat="50.12452" lon="4.13087">
        <ele>211.4</ele>
        <time>2024-04-29T05:46:34Z</time>
      </trkpt>
      <trkpt lat="50.12455" lon="4.13074">
        <ele>211.2</ele>
        <time>2024-04-29T05:46:35Z</time>
      </trkpt>
      <trkpt lat="50.12457" lon="4.13061">
        <ele>211.2</ele>
        <time>2024-04-29T05:46:36Z</time>
      </trkpt>
      <trkpt lat="50.1246" lon="4.13047">
        <ele>210.8</ele>
        <time>2024-04-29T05:46:37Z</time>
      </trkpt>
      <trkpt lat="50.12462" lon="4.13033">
        <ele>210.6</ele>
        <time>2024-04-29T05:46:38Z</time>
      </trkpt>
      <trkpt lat="50.12464" lon="4.13017">
        <ele>210.4</ele>
        <time>2024-04-29T05:46:39Z</time>
      </trkpt>
      <trkpt lat="50.12467" lon="4.13002">
        <ele>210</ele>
        <time>2024-04-29T05:46:40Z</time>
      </trkpt>
      <trkpt lat="50.1247" lon="4.12986">
        <ele>209.6</ele>
        <time>2024-04-29T05:46:41Z</time>
      </trkpt>
      <trkpt lat="50.12472" lon="4.12969">
        <ele>209.2</ele>
        <time>2024-04-29T05:46:42Z</time>
      </trkpt>
      <trkpt lat="50.12475" lon="4.12952">
        <ele>208.8</ele>
        <time>2024-04-29T05:46:43Z</time>
      </trkpt>
      <trkpt lat="50.12477" lon="4.12934">
        <ele>208</ele>
        <time>2024-04-29T05:46:44Z</time>
      </trkpt>
      <trkpt lat="50.1248" lon="4.12915">
        <ele>207.6</ele>
        <time>2024-04-29T05:46:45Z</time>
      </trkpt>
      <trkpt lat="50.12483" lon="4.12896">
        <ele>206.8</ele>
        <time>2024-04-29T05:46:46Z</time>
      </trkpt>
      <trkpt lat="50.12485" lon="4.12877">
        <ele>206</ele>
        <time>2024-04-29T05:46:47Z</time>
      </trkpt>
      <trkpt lat="50.12488" lon="4.12857">
        <ele>204.8</ele>
        <time>2024-04-29T05:46:48Z</time>
      </trkpt>
      <trkpt lat="50.12489" lon="4.12837">
        <ele>203.4</ele>
        <time>2024-04-29T05:46:49Z</time>
      </trkpt>
      <trkpt lat="50.12489" lon="4.12816">
        <ele>202.2</ele>
        <time>2024-04-29T05:46:50Z</time>
      </trkpt>
      <trkpt lat="50.12488" lon="4.12795">
        <ele>200.8</ele>
        <time>2024-04-29T05:46:51Z</time>
      </trkpt>
      <trkpt lat="50.12485" lon="4.12775">
        <ele>199.8</ele>
        <time>2024-04-29T05:46:52Z</time>
      </trkpt>
      <trkpt lat="50.12483" lon="4.12755">
        <ele>198.8</ele>
        <time>2024-04-29T05:46:53Z</time>
      </trkpt>
      <trkpt lat="50.12479" lon="4.12736">
        <ele>197.2</ele>
        <time>2024-04-29T05:46:54Z</time>
      </trkpt>
      <trkpt lat="50.12475" lon="4.12718">
        <ele>197.2</ele>
        <time>2024-04-29T05:46:55Z</time>
      </trkpt>
      <trkpt lat="50.1247" lon="4.12701">
        <ele>196</ele>
        <time>2024-04-29T05:46:56Z</time>
      </trkpt>
      <trkpt lat="50.12465" lon="4.12685">
        <ele>194.6</ele>
        <time>2024-04-29T05:46:57Z</time>
      </trkpt>
      <trkpt lat="50.12459" lon="4.1267">
        <ele>193.4</ele>
        <time>2024-04-29T05:46:58Z</time>
      </trkpt>
      <trkpt lat="50.12452" lon="4.12656">
        <ele>192.2</ele>
        <time>2024-04-29T05:46:59Z</time>
      </trkpt>
      <trkpt lat="50.12445" lon="4.12643">
        <ele>190.8</ele>
        <time>2024-04-29T05:47:00Z</time>
      </trkpt>
      <trkpt lat="50.12439" lon="4.12632">
        <ele>189.8</ele>
        <time>2024-04-29T05:47:01Z</time>
      </trkpt>
      <trkpt lat="50.12433" lon="4.12621">
        <ele>189.2</ele>
        <time>2024-04-29T05:47:02Z</time>
      </trkpt>
      <trkpt lat="50.12426" lon="4.1261">
        <ele>189</ele>
        <time>2024-04-29T05:47:03Z</time>
      </trkpt>
      <trkpt lat="50.12421" lon="4.12599">
        <ele>188.6</ele>
        <time>2024-04-29T05:47:04Z</time>
      </trkpt>
      <trkpt lat="50.12416" lon="4.12588">
        <ele>188.6</ele>
        <time>2024-04-29T05:47:05Z</time>
      </trkpt>
      <trkpt lat="50.12413" lon="4.12576">
        <ele>188.6</ele>
        <time>2024-04-29T05:47:06Z</time>
      </trkpt>
      <trkpt lat="50.1241" lon="4.12565">
        <ele>188.6</ele>
        <time>2024-04-29T05:47:07Z</time>
      </trkpt>
      <trkpt lat="50.12407" lon="4.12555">
        <ele>188.6</ele>
        <time>2024-04-29T05:47:08Z</time>
      </trkpt>
      <trkpt lat="50.12404" lon="4.12546">
        <ele>188.6</ele>
        <time>2024-04-29T05:47:09Z</time>
      </trkpt>
      <trkpt lat="50.12399" lon="4.12538">
        <ele>188.6</ele>
        <time>2024-04-29T05:47:10Z</time>
      </trkpt>
      <trkpt lat="50.12394" lon="4.1253">
        <ele>188.6</ele>
        <time>2024-04-29T05:47:11Z</time>
      </trkpt>
      <trkpt lat="50.12387" lon="4.12524">
        <ele>188.8</ele>
        <time>2024-04-29T05:47:12Z</time>
      </trkpt>
      <trkpt lat="50.12379" lon="4.12519">
        <ele>189.4</ele>
        <time>2024-04-29T05:47:13Z</time>
      </trkpt>
      <trkpt lat="50.12371" lon="4.12515">
        <ele>189.6</ele>
        <time>2024-04-29T05:47:14Z</time>
      </trkpt>
      <trkpt lat="50.12362" lon="4.1251">
        <ele>189.6</ele>
        <time>2024-04-29T05:47:15Z</time>
      </trkpt>
      <trkpt lat="50.12354" lon="4.12505">
        <ele>189.8</ele>
        <time>2024-04-29T05:47:16Z</time>
      </trkpt>
      <trkpt lat="50.12345" lon="4.12498">
        <ele>189.8</ele>
        <time>2024-04-29T05:47:17Z</time>
      </trkpt>
      <trkpt lat="50.12338" lon="4.1249">
        <ele>189.8</ele>
        <time>2024-04-29T05:47:18Z</time>
      </trkpt>
      <trkpt lat="50.1233" lon="4.1248">
        <ele>189.6</ele>
        <time>2024-04-29T05:47:19Z</time>
      </trkpt>
      <trkpt lat="50.12324" lon="4.12468">
        <ele>189.8</ele>
        <time>2024-04-29T05:47:20Z</time>
      </trkpt>
      <trkpt lat="50.12317" lon="4.12456">
        <ele>189.8</ele>
        <time>2024-04-29T05:47:21Z</time>
      </trkpt>
      <trkpt lat="50.12312" lon="4.12442">
        <ele>189.8</ele>
        <time>2024-04-29T05:47:22Z</time>
      </trkpt>
      <trkpt lat="50.12307" lon="4.12428">
        <ele>189.8</ele>
        <time>2024-04-29T05:47:23Z</time>
      </trkpt>
      <trkpt lat="50.12302" lon="4.12414">
        <ele>189.8</ele>
        <time>2024-04-29T05:47:24Z</time>
      </trkpt>
      <trkpt lat="50.12298" lon="4.12399">
        <ele>189.6</ele>
        <time>2024-04-29T05:47:25Z</time>
      </trkpt>
      <trkpt lat="50.12294" lon="4.12385">
        <ele>189</ele>
        <time>2024-04-29T05:47:26Z</time>
      </trkpt>
      <trkpt lat="50.12289" lon="4.12371">
        <ele>188.6</ele>
        <time>2024-04-29T05:47:27Z</time>
      </trkpt>
      <trkpt lat="50.12284" lon="4.12356">
        <ele>188.2</ele>
        <time>2024-04-29T05:47:28Z</time>
      </trkpt>
      <trkpt lat="50.1228" lon="4.12342">
        <ele>187.6</ele>
        <time>2024-04-29T05:47:29Z</time>
      </trkpt>
      <trkpt lat="50.12276" lon="4.12329">
        <ele>186.8</ele>
        <time>2024-04-29T05:47:30Z</time>
      </trkpt>
      <trkpt lat="50.12272" lon="4.12315">
        <ele>186</ele>
        <time>2024-04-29T05:47:31Z</time>
      </trkpt>
      <trkpt lat="50.12268" lon="4.12301">
        <ele>185.6</ele>
        <time>2024-04-29T05:47:32Z</time>
      </trkpt>
      <trkpt lat="50.12264" lon="4.12287">
        <ele>185.2</ele>
        <time>2024-04-29T05:47:33Z</time>
      </trkpt>
      <trkpt lat="50.12261" lon="4.12274">
        <ele>184.8</ele>
        <time>2024-04-29T05:47:34Z</time>
      </trkpt>
      <trkpt lat="50.12258" lon="4.1226">
        <ele>184.6</ele>
        <time>2024-04-29T05:47:35Z</time>
      </trkpt>
      <trkpt lat="50.12255" lon="4.12247">
        <ele>184.4</ele>
        <time>2024-04-29T05:47:36Z</time>
      </trkpt>
      <trkpt lat="50.12253" lon="4.12233">
        <ele>184.2</ele>
        <time>2024-04-29T05:47:37Z</time>
      </trkpt>
      <trkpt lat="50.12251" lon="4.1222">
        <ele>184</ele>
        <time>2024-04-29T05:47:38Z</time>
      </trkpt>
      <trkpt lat="50.12249" lon="4.12206">
        <ele>184</ele>
        <time>2024-04-29T05:47:39Z</time>
      </trkpt>
      <trkpt lat="50.12247" lon="4.12192">
        <ele>184</ele>
        <time>2024-04-29T05:47:40Z</time>
      </trkpt>
      <trkpt lat="50.12245" lon="4.12179">
        <ele>183.8</ele>
        <time>2024-04-29T05:47:41Z</time>
      </trkpt>
      <trkpt lat="50.12244" lon="4.12165">
        <ele>183.8</ele>
        <time>2024-04-29T05:47:42Z</time>
      </trkpt>
      <trkpt lat="50.12243" lon="4.12152">
        <ele>183.8</ele>
        <time>2024-04-29T05:47:43Z</time>
      </trkpt>
      <trkpt lat="50.12241" lon="4.12138">
        <ele>183.8</ele>
        <time>2024-04-29T05:47:44Z</time>
      </trkpt>
      <trkpt lat="50.1224" lon="4.12125">
        <ele>183.6</ele>
        <time>2024-04-29T05:47:45Z</time>
      </trkpt>
      <trkpt lat="50.12239" lon="4.12112">
        <ele>183.8</ele>
        <time>2024-04-29T05:47:46Z</time>
      </trkpt>
      <trkpt lat="50.12238" lon="4.12098">
        <ele>183.6</ele>
        <time>2024-04-29T05:47:47Z</time>
      </trkpt>
      <trkpt lat="50.12237" lon="4.12085">
        <ele>183.6</ele>
        <time>2024-04-29T05:47:48Z</time>
      </trkpt>
      <trkpt lat="50.12235" lon="4.12072">
        <ele>183.4</ele>
        <time>2024-04-29T05:47:49Z</time>
      </trkpt>
      <trkpt lat="50.12234" lon="4.12058">
        <ele>183.6</ele>
        <time>2024-04-29T05:47:50Z</time>
      </trkpt>
      <trkpt lat="50.12232" lon="4.12044">
        <ele>183.4</ele>
        <time>2024-04-29T05:47:51Z</time>
      </trkpt>
      <trkpt lat="50.1223" lon="4.1203">
        <ele>183.4</ele>
        <time>2024-04-29T05:47:52Z</time>
      </trkpt>
      <trkpt lat="50.12228" lon="4.12016">
        <ele>183.4</ele>
        <time>2024-04-29T05:47:53Z</time>
      </trkpt>
      <trkpt lat="50.12226" lon="4.12001">
        <ele>183.2</ele>
        <time>2024-04-29T05:47:54Z</time>
      </trkpt>
      <trkpt lat="50.12223" lon="4.11986">
        <ele>183.2</ele>
        <time>2024-04-29T05:47:55Z</time>
      </trkpt>
      <trkpt lat="50.1222" lon="4.11971">
        <ele>183</ele>
        <time>2024-04-29T05:47:56Z</time>
      </trkpt>
      <trkpt lat="50.12217" lon="4.11956">
        <ele>182.8</ele>
        <time>2024-04-29T05:47:57Z</time>
      </trkpt>
      <trkpt lat="50.12214" lon="4.11941">
        <ele>182.4</ele>
        <time>2024-04-29T05:47:58Z</time>
      </trkpt>
      <trkpt lat="50.12211" lon="4.11925">
        <ele>182</ele>
        <time>2024-04-29T05:47:59Z</time>
      </trkpt>
      <trkpt lat="50.12208" lon="4.1191">
        <ele>181.6</ele>
        <time>2024-04-29T05:48:00Z</time>
      </trkpt>
      <trkpt lat="50.12205" lon="4.11894">
        <ele>181.6</ele>
        <time>2024-04-29T05:48:01Z</time>
      </trkpt>
      <trkpt lat="50.12202" lon="4.1188">
        <ele>181.2</ele>
        <time>2024-04-29T05:48:02Z</time>
      </trkpt>
      <trkpt lat="50.12199" lon="4.11865">
        <ele>180.8</ele>
        <time>2024-04-29T05:48:03Z</time>
      </trkpt>
      <trkpt lat="50.12196" lon="4.11851">
        <ele>180.4</ele>
        <time>2024-04-29T05:48:04Z</time>
      </trkpt>
      <trkpt lat="50.12193" lon="4.11837">
        <ele>179.4</ele>
        <time>2024-04-29T05:48:05Z</time>
      </trkpt>
      <trkpt lat="50.1219" lon="4.11823">
        <ele>178.6</ele>
        <time>2024-04-29T05:48:06Z</time>
      </trkpt>
      <trkpt lat="50.12187" lon="4.11809">
        <ele>177.8</ele>
        <time>2024-04-29T05:48:07Z</time>
      </trkpt>
      <trkpt lat="50.12185" lon="4.11796">
        <ele>177.4</ele>
        <time>2024-04-29T05:48:08Z</time>
      </trkpt>
      <trkpt lat="50.12182" lon="4.11782">
        <ele>177</ele>
        <time>2024-04-29T05:48:09Z</time>
      </trkpt>
      <trkpt lat="50.12179" lon="4.11769">
        <ele>176.8</ele>
        <time>2024-04-29T05:48:10Z</time>
      </trkpt>
      <trkpt lat="50.12177" lon="4.11756">
        <ele>176.4</ele>
        <time>2024-04-29T05:48:11Z</time>
      </trkpt>
      <trkpt lat="50.12174" lon="4.11743">
        <ele>176.2</ele>
        <time>2024-04-29T05:48:12Z</time>
      </trkpt>
      <trkpt lat="50.12172" lon="4.1173">
        <ele>176.2</ele>
        <time>2024-04-29T05:48:13Z</time>
      </trkpt>
      <trkpt lat="50.12169" lon="4.11717">
        <ele>176.2</ele>
        <time>2024-04-29T05:48:14Z</time>
      </trkpt>
      <trkpt lat="50.12167" lon="4.11705">
        <ele>176.2</ele>
        <time>2024-04-29T05:48:15Z</time>
      </trkpt>
      <trkpt lat="50.12164" lon="4.11693">
        <ele>176.2</ele>
        <time>2024-04-29T05:48:16Z</time>
      </trkpt>
      <trkpt lat="50.12162" lon="4.1168">
        <ele>176.2</ele>
        <time>2024-04-29T05:48:17Z</time>
      </trkpt>
      <trkpt lat="50.1216" lon="4.11668">
        <ele>176.2</ele>
        <time>2024-04-29T05:48:18Z</time>
      </trkpt>
      <trkpt lat="50.12158" lon="4.11657">
        <ele>176.2</ele>
        <time>2024-04-29T05:48:19Z</time>
      </trkpt>
      <trkpt lat="50.12155" lon="4.11646">
        <ele>176</ele>
        <time>2024-04-29T05:48:20Z</time>
      </trkpt>
      <trkpt lat="50.12153" lon="4.11635">
        <ele>176</ele>
        <time>2024-04-29T05:48:21Z</time>
      </trkpt>
      <trkpt lat="50.12151" lon="4.11625">
        <ele>176.2</ele>
        <time>2024-04-29T05:48:22Z</time>
      </trkpt>
      <trkpt lat="50.12148" lon="4.11615">
        <ele>176</ele>
        <time>2024-04-29T05:48:23Z</time>
      </trkpt>
      <trkpt lat="50.12146" lon="4.11605">
        <ele>176</ele>
        <time>2024-04-29T05:48:24Z</time>
      </trkpt>
      <trkpt lat="50.12144" lon="4.11595">
        <ele>176.2</ele>
        <time>2024-04-29T05:48:25Z</time>
      </trkpt>
      <trkpt lat="50.12142" lon="4.11586">
        <ele>176</ele>
        <time>2024-04-29T05:48:26Z</time>
      </trkpt>
      <trkpt lat="50.12139" lon="4.11576">
        <ele>176.2</ele>
        <time>2024-04-29T05:48:27Z</time>
      </trkpt>
      <trkpt lat="50.12136" lon="4.11567">
        <ele>176.2</ele>
        <time>2024-04-29T05:48:28Z</time>
      </trkpt>
      <trkpt lat="50.12134" lon="4.11558">
        <ele>176.6</ele>
        <time>2024-04-29T05:48:29Z</time>
      </trkpt>
      <trkpt lat="50.12131" lon="4.11548">
        <ele>177</ele>
        <time>2024-04-29T05:48:30Z</time>
      </trkpt>
      <trkpt lat="50.12128" lon="4.11539">
        <ele>177.2</ele>
        <time>2024-04-29T05:48:31Z</time>
      </trkpt>
      <trkpt lat="50.12125" lon="4.1153">
        <ele>177.8</ele>
        <time>2024-04-29T05:48:32Z</time>
      </trkpt>
      <trkpt lat="50.12122" lon="4.11521">
        <ele>178.2</ele>
        <time>2024-04-29T05:48:33Z</time>
      </trkpt>
      <trkpt lat="50.12119" lon="4.11512">
        <ele>178.8</ele>
        <time>2024-04-29T05:48:34Z</time>
      </trkpt>
      <trkpt lat="50.12116" lon="4.11503">
        <ele>179.2</ele>
        <time>2024-04-29T05:48:35Z</time>
      </trkpt>
      <trkpt lat="50.12113" lon="4.11494">
        <ele>179.4</ele>
        <time>2024-04-29T05:48:36Z</time>
      </trkpt>
      <trkpt lat="50.12109" lon="4.11485">
        <ele>179.8</ele>
        <time>2024-04-29T05:48:37Z</time>
      </trkpt>
      <trkpt lat="50.12106" lon="4.11476">
        <ele>180.2</ele>
        <time>2024-04-29T05:48:38Z</time>
      </trkpt>
      <trkpt lat="50.12103" lon="4.11467">
        <ele>180.6</ele>
        <time>2024-04-29T05:48:39Z</time>
      </trkpt>
      <trkpt lat="50.121" lon="4.11458">
        <ele>180.8</ele>
        <time>2024-04-29T05:48:40Z</time>
      </trkpt>
      <trkpt lat="50.12096" lon="4.11449">
        <ele>181</ele>
        <time>2024-04-29T05:48:41Z</time>
      </trkpt>
      <trkpt lat="50.12093" lon="4.1144">
        <ele>181.4</ele>
        <time>2024-04-29T05:48:42Z</time>
      </trkpt>
      <trkpt lat="50.1209" lon="4.11431">
        <ele>181.4</ele>
        <time>2024-04-29T05:48:43Z</time>
      </trkpt>
      <trkpt lat="50.12087" lon="4.11422">
        <ele>181.4</ele>
        <time>2024-04-29T05:48:44Z</time>
      </trkpt>
      <trkpt lat="50.12083" lon="4.11413">
        <ele>181.4</ele>
        <time>2024-04-29T05:48:45Z</time>
      </trkpt>
      <trkpt lat="50.1208" lon="4.11404">
        <ele>181.4</ele>
        <time>2024-04-29T05:48:46Z</time>
      </trkpt>
      <trkpt lat="50.12077" lon="4.11395">
        <ele>181.6</ele>
        <time>2024-04-29T05:48:47Z</time>
      </trkpt>
      <trkpt lat="50.12074" lon="4.11385">
        <ele>181.6</ele>
        <time>2024-04-29T05:48:48Z</time>
      </trkpt>
      <trkpt lat="50.12071" lon="4.11376">
        <ele>181.8</ele>
        <time>2024-04-29T05:48:49Z</time>
      </trkpt>
      <trkpt lat="50.12068" lon="4.11366">
        <ele>181.8</ele>
        <time>2024-04-29T05:48:50Z</time>
      </trkpt>
      <trkpt lat="50.12065" lon="4.11356">
        <ele>182.8</ele>
        <time>2024-04-29T05:48:51Z</time>
      </trkpt>
      <trkpt lat="50.12062" lon="4.11346">
        <ele>183.4</ele>
        <time>2024-04-29T05:48:52Z</time>
      </trkpt>
      <trkpt lat="50.12059" lon="4.11336">
        <ele>183.8</ele>
        <time>2024-04-29T05:48:53Z</time>
      </trkpt>
      <trkpt lat="50.12057" lon="4.11325">
        <ele>184</ele>
        <time>2024-04-29T05:48:54Z</time>
      </trkpt>
      <trkpt lat="50.12054" lon="4.11314">
        <ele>184</ele>
        <time>2024-04-29T05:48:55Z</time>
      </trkpt>
      <trkpt lat="50.12052" lon="4.11304">
        <ele>184</ele>
        <time>2024-04-29T05:48:56Z</time>
      </trkpt>
      <trkpt lat="50.1205" lon="4.11293">
        <ele>184.2</ele>
        <time>2024-04-29T05:48:57Z</time>
      </trkpt>
      <trkpt lat="50.12048" lon="4.11281">
        <ele>184.2</ele>
        <time>2024-04-29T05:48:58Z</time>
      </trkpt>
      <trkpt lat="50.12046" lon="4.11269">
        <ele>184</ele>
        <time>2024-04-29T05:48:59Z</time>
      </trkpt>
      <trkpt lat="50.12044" lon="4.11257">
        <ele>184.2</ele>
        <time>2024-04-29T05:49:00Z</time>
      </trkpt>
      <trkpt lat="50.12042" lon="4.11245">
        <ele>184.2</ele>
        <time>2024-04-29T05:49:01Z</time>
      </trkpt>
      <trkpt lat="50.1204" lon="4.11231">
        <ele>184.2</ele>
        <time>2024-04-29T05:49:02Z</time>
      </trkpt>
      <trkpt lat="50.12039" lon="4.11218">
        <ele>184.2</ele>
        <time>2024-04-29T05:49:03Z</time>
      </trkpt>
      <trkpt lat="50.12037" lon="4.11204">
        <ele>184</ele>
        <time>2024-04-29T05:49:04Z</time>
      </trkpt>
      <trkpt lat="50.12036" lon="4.11189">
        <ele>184.2</ele>
        <time>2024-04-29T05:49:05Z</time>
      </trkpt>
      <trkpt lat="50.12035" lon="4.11174">
        <ele>184</ele>
        <time>2024-04-29T05:49:06Z</time>
      </trkpt>
      <trkpt lat="50.12035" lon="4.11158">
        <ele>184</ele>
        <time>2024-04-29T05:49:07Z</time>
      </trkpt>
      <trkpt lat="50.12034" lon="4.11142">
        <ele>183.8</ele>
        <time>2024-04-29T05:49:08Z</time>
      </trkpt>
      <trkpt lat="50.12033" lon="4.11125">
        <ele>183.6</ele>
        <time>2024-04-29T05:49:09Z</time>
      </trkpt>
      <trkpt lat="50.12033" lon="4.11108">
        <ele>183.4</ele>
        <time>2024-04-29T05:49:10Z</time>
      </trkpt>
      <trkpt lat="50.12032" lon="4.11091">
        <ele>182.8</ele>
        <time>2024-04-29T05:49:11Z</time>
      </trkpt>
      <trkpt lat="50.12032" lon="4.11074">
        <ele>182</ele>
        <time>2024-04-29T05:49:12Z</time>
      </trkpt>
      <trkpt lat="50.12031" lon="4.11057">
        <ele>181.4</ele>
        <time>2024-04-29T05:49:13Z</time>
      </trkpt>
      <trkpt lat="50.12031" lon="4.1104">
        <ele>180.6</ele>
        <time>2024-04-29T05:49:14Z</time>
      </trkpt>
      <trkpt lat="50.1203" lon="4.11024">
        <ele>180</ele>
        <time>2024-04-29T05:49:15Z</time>
      </trkpt>
      <trkpt lat="50.1203" lon="4.11008">
        <ele>179</ele>
        <time>2024-04-29T05:49:16Z</time>
      </trkpt>
      <trkpt lat="50.12029" lon="4.10993">
        <ele>178</ele>
        <time>2024-04-29T05:49:17Z</time>
      </trkpt>
      <trkpt lat="50.12029" lon="4.10978">
        <ele>176.8</ele>
        <time>2024-04-29T05:49:18Z</time>
      </trkpt>
      <trkpt lat="50.12028" lon="4.10964">
        <ele>175.6</ele>
        <time>2024-04-29T05:49:19Z</time>
      </trkpt>
      <trkpt lat="50.12028" lon="4.10951">
        <ele>174.8</ele>
        <time>2024-04-29T05:49:20Z</time>
      </trkpt>
      <trkpt lat="50.12027" lon="4.10937">
        <ele>174.4</ele>
        <time>2024-04-29T05:49:21Z</time>
      </trkpt>
      <trkpt lat="50.12026" lon="4.10925">
        <ele>174</ele>
        <time>2024-04-29T05:49:22Z</time>
      </trkpt>
      <trkpt lat="50.12025" lon="4.10912">
        <ele>174.2</ele>
        <time>2024-04-29T05:49:23Z</time>
      </trkpt>
      <trkpt lat="50.12024" lon="4.109">
        <ele>174</ele>
        <time>2024-04-29T05:49:24Z</time>
      </trkpt>
      <trkpt lat="50.12023" lon="4.10888">
        <ele>174</ele>
        <time>2024-04-29T05:49:25Z</time>
      </trkpt>
      <trkpt lat="50.12022" lon="4.10877">
        <ele>174</ele>
        <time>2024-04-29T05:49:26Z</time>
      </trkpt>
      <trkpt lat="50.12021" lon="4.10865">
        <ele>174</ele>
        <time>2024-04-29T05:49:27Z</time>
      </trkpt>
      <trkpt lat="50.12019" lon="4.10854">
        <ele>174</ele>
        <time>2024-04-29T05:49:28Z</time>
      </trkpt>
      <trkpt lat="50.12018" lon="4.10843">
        <ele>174</ele>
        <time>2024-04-29T05:49:29Z</time>
      </trkpt>
      <trkpt lat="50.12017" lon="4.10832">
        <ele>173.8</ele>
        <time>2024-04-29T05:49:30Z</time>
      </trkpt>
      <trkpt lat="50.12015" lon="4.10821">
        <ele>174.2</ele>
        <time>2024-04-29T05:49:31Z</time>
      </trkpt>
      <trkpt lat="50.12013" lon="4.10811">
        <ele>174.4</ele>
        <time>2024-04-29T05:49:32Z</time>
      </trkpt>
      <trkpt lat="50.12011" lon="4.108">
        <ele>174.8</ele>
        <time>2024-04-29T05:49:33Z</time>
      </trkpt>
      <trkpt lat="50.1201" lon="4.1079">
        <ele>175</ele>
        <time>2024-04-29T05:49:34Z</time>
      </trkpt>
      <trkpt lat="50.12008" lon="4.10779">
        <ele>175.2</ele>
        <time>2024-04-29T05:49:35Z</time>
      </trkpt>
      <trkpt lat="50.12006" lon="4.10769">
        <ele>175.4</ele>
        <time>2024-04-29T05:49:36Z</time>
      </trkpt>
      <trkpt lat="50.12004" lon="4.10759">
        <ele>175.4</ele>
        <time>2024-04-29T05:49:37Z</time>
      </trkpt>
      <trkpt lat="50.12003" lon="4.10748">
        <ele>175.6</ele>
        <time>2024-04-29T05:49:38Z</time>
      </trkpt>
      <trkpt lat="50.12001" lon="4.10738">
        <ele>175.8</ele>
        <time>2024-04-29T05:49:39Z</time>
      </trkpt>
      <trkpt lat="50.12" lon="4.10728">
        <ele>176</ele>
        <time>2024-04-29T05:49:40Z</time>
      </trkpt>
      <trkpt lat="50.11998" lon="4.10717">
        <ele>176.6</ele>
        <time>2024-04-29T05:49:41Z</time>
      </trkpt>
      <trkpt lat="50.11997" lon="4.10707">
        <ele>177.2</ele>
        <time>2024-04-29T05:49:42Z</time>
      </trkpt>
      <trkpt lat="50.11997" lon="4.10696">
        <ele>177.6</ele>
        <time>2024-04-29T05:49:43Z</time>
      </trkpt>
      <trkpt lat="50.11997" lon="4.10685">
        <ele>177.8</ele>
        <time>2024-04-29T05:49:44Z</time>
      </trkpt>
      <trkpt lat="50.11997" lon="4.10674">
        <ele>177.8</ele>
        <time>2024-04-29T05:49:45Z</time>
      </trkpt>
      <trkpt lat="50.11999" lon="4.10663">
        <ele>178</ele>
        <time>2024-04-29T05:49:46Z</time>
      </trkpt>
      <trkpt lat="50.12" lon="4.10653">
        <ele>178.2</ele>
        <time>2024-04-29T05:49:47Z</time>
      </trkpt>
      <trkpt lat="50.12002" lon="4.10642">
        <ele>178.4</ele>
        <time>2024-04-29T05:49:48Z</time>
      </trkpt>
      <trkpt lat="50.12005" lon="4.10631">
        <ele>178.6</ele>
        <time>2024-04-29T05:49:49Z</time>
      </trkpt>
      <trkpt lat="50.12008" lon="4.10621">
        <ele>178.6</ele>
        <time>2024-04-29T05:49:50Z</time>
      </trkpt>
      <trkpt lat="50.12011" lon="4.1061">
        <ele>178.4</ele>
        <time>2024-04-29T05:49:51Z</time>
      </trkpt>
      <trkpt lat="50.12015" lon="4.10599">
        <ele>178.4</ele>
        <time>2024-04-29T05:49:52Z</time>
      </trkpt>
      <trkpt lat="50.12018" lon="4.10588">
        <ele>178.6</ele>
        <time>2024-04-29T05:49:53Z</time>
      </trkpt>
      <trkpt lat="50.12022" lon="4.10576">
        <ele>178.4</ele>
        <time>2024-04-29T05:49:54Z</time>
      </trkpt>
      <trkpt lat="50.12025" lon="4.10564">
        <ele>178.4</ele>
        <time>2024-04-29T05:49:55Z</time>
      </trkpt>
      <trkpt lat="50.12029" lon="4.10552">
        <ele>178.4</ele>
        <time>2024-04-29T05:49:56Z</time>
      </trkpt>
      <trkpt lat="50.12033" lon="4.10539">
        <ele>178.4</ele>
        <time>2024-04-29T05:49:57Z</time>
      </trkpt>
      <trkpt lat="50.12038" lon="4.10525">
        <ele>178.4</ele>
        <time>2024-04-29T05:49:58Z</time>
      </trkpt>
      <trkpt lat="50.12042" lon="4.10512">
        <ele>178</ele>
        <time>2024-04-29T05:49:59Z</time>
      </trkpt>
      <trkpt lat="50.12046" lon="4.10497">
        <ele>177.8</ele>
        <time>2024-04-29T05:50:00Z</time>
      </trkpt>
      <trkpt lat="50.12051" lon="4.10483">
        <ele>177.6</ele>
        <time>2024-04-29T05:50:01Z</time>
      </trkpt>
      <trkpt lat="50.12055" lon="4.10467">
        <ele>176.8</ele>
        <time>2024-04-29T05:50:02Z</time>
      </trkpt>
      <trkpt lat="50.12059" lon="4.10452">
        <ele>175.8</ele>
        <time>2024-04-29T05:50:03Z</time>
      </trkpt>
      <trkpt lat="50.12063" lon="4.10437">
        <ele>174.6</ele>
        <time>2024-04-29T05:50:04Z</time>
      </trkpt>
      <trkpt lat="50.12067" lon="4.10422">
        <ele>173.8</ele>
        <time>2024-04-29T05:50:05Z</time>
      </trkpt>
      <trkpt lat="50.1207" lon="4.10407">
        <ele>173</ele>
        <time>2024-04-29T05:50:06Z</time>
      </trkpt>
      <trkpt lat="50.12073" lon="4.10393">
        <ele>172.6</ele>
        <time>2024-04-29T05:50:07Z</time>
      </trkpt>
      <trkpt lat="50.12074" lon="4.10378">
        <ele>171.8</ele>
        <time>2024-04-29T05:50:08Z</time>
      </trkpt>
      <trkpt lat="50.12076" lon="4.10364">
        <ele>171</ele>
        <time>2024-04-29T05:50:09Z</time>
      </trkpt>
      <trkpt lat="50.12076" lon="4.1035">
        <ele>170</ele>
        <time>2024-04-29T05:50:10Z</time>
      </trkpt>
      <trkpt lat="50.12077" lon="4.10336">
        <ele>169.6</ele>
        <time>2024-04-29T05:50:11Z</time>
      </trkpt>
      <trkpt lat="50.12077" lon="4.10323">
        <ele>169.6</ele>
        <time>2024-04-29T05:50:12Z</time>
      </trkpt>
      <trkpt lat="50.12077" lon="4.10311">
        <ele>169.4</ele>
        <time>2024-04-29T05:50:13Z</time>
      </trkpt>
      <trkpt lat="50.12077" lon="4.10299">
        <ele>169.2</ele>
        <time>2024-04-29T05:50:14Z</time>
      </trkpt>
      <trkpt lat="50.12077" lon="4.10287">
        <ele>169.2</ele>
        <time>2024-04-29T05:50:15Z</time>
      </trkpt>
      <trkpt lat="50.12078" lon="4.10276">
        <ele>169.4</ele>
        <time>2024-04-29T05:50:16Z</time>
      </trkpt>
      <trkpt lat="50.12078" lon="4.10264">
        <ele>169.2</ele>
        <time>2024-04-29T05:50:17Z</time>
      </trkpt>
      <trkpt lat="50.12078" lon="4.10254">
        <ele>169.4</ele>
        <time>2024-04-29T05:50:18Z</time>
      </trkpt>
      <trkpt lat="50.12079" lon="4.10243">
        <ele>169.4</ele>
        <time>2024-04-29T05:50:19Z</time>
      </trkpt>
      <trkpt lat="50.12079" lon="4.10233">
        <ele>169.2</ele>
        <time>2024-04-29T05:50:20Z</time>
      </trkpt>
      <trkpt lat="50.1208" lon="4.10222">
        <ele>169.4</ele>
        <time>2024-04-29T05:50:21Z</time>
      </trkpt>
      <trkpt lat="50.12081" lon="4.10212">
        <ele>169.6</ele>
        <time>2024-04-29T05:50:22Z</time>
      </trkpt>
      <trkpt lat="50.12081" lon="4.10201">
        <ele>169.8</ele>
        <time>2024-04-29T05:50:23Z</time>
      </trkpt>
      <trkpt lat="50.12081" lon="4.10191">
        <ele>170.2</ele>
        <time>2024-04-29T05:50:24Z</time>
      </trkpt>
      <trkpt lat="50.12082" lon="4.1018">
        <ele>170.4</ele>
        <time>2024-04-29T05:50:25Z</time>
      </trkpt>
      <trkpt lat="50.12083" lon="4.1017">
        <ele>170.8</ele>
        <time>2024-04-29T05:50:26Z</time>
      </trkpt>
      <trkpt lat="50.12085" lon="4.1016">
        <ele>171.2</ele>
        <time>2024-04-29T05:50:27Z</time>
      </trkpt>
      <trkpt lat="50.12087" lon="4.1015">
        <ele>171.6</ele>
        <time>2024-04-29T05:50:28Z</time>
      </trkpt>
      <trkpt lat="50.12089" lon="4.10139">
        <ele>171.6</ele>
        <time>2024-04-29T05:50:29Z</time>
      </trkpt>
      <trkpt lat="50.12091" lon="4.10129">
        <ele>172</ele>
        <time>2024-04-29T05:50:30Z</time>
      </trkpt>
      <trkpt lat="50.12093" lon="4.10119">
        <ele>172</ele>
        <time>2024-04-29T05:50:31Z</time>
      </trkpt>
      <trkpt lat="50.12095" lon="4.10108">
        <ele>172</ele>
        <time>2024-04-29T05:50:32Z</time>
      </trkpt>
      <trkpt lat="50.12098" lon="4.10098">
        <ele>172</ele>
        <time>2024-04-29T05:50:33Z</time>
      </trkpt>
      <trkpt lat="50.121" lon="4.10087">
        <ele>172</ele>
        <time>2024-04-29T05:50:34Z</time>
      </trkpt>
      <trkpt lat="50.12102" lon="4.10076">
        <ele>172</ele>
        <time>2024-04-29T05:50:35Z</time>
      </trkpt>
      <trkpt lat="50.12105" lon="4.10066">
        <ele>172</ele>
        <time>2024-04-29T05:50:36Z</time>
      </trkpt>
      <trkpt lat="50.12107" lon="4.10055">
        <ele>172</ele>
        <time>2024-04-29T05:50:37Z</time>
      </trkpt>
      <trkpt lat="50.12109" lon="4.10044">
        <ele>172</ele>
        <time>2024-04-29T05:50:38Z</time>
      </trkpt>
      <trkpt lat="50.12112" lon="4.10034">
        <ele>172</ele>
        <time>2024-04-29T05:50:39Z</time>
      </trkpt>
      <trkpt lat="50.12114" lon="4.10024">
        <ele>172</ele>
        <time>2024-04-29T05:50:40Z</time>
      </trkpt>
      <trkpt lat="50.12117" lon="4.10013">
        <ele>172</ele>
        <time>2024-04-29T05:50:41Z</time>
      </trkpt>
      <trkpt lat="50.12119" lon="4.10003">
        <ele>172</ele>
        <time>2024-04-29T05:50:42Z</time>
      </trkpt>
      <trkpt lat="50.12121" lon="4.09992">
        <ele>172</ele>
        <time>2024-04-29T05:50:43Z</time>
      </trkpt>
      <trkpt lat="50.12122" lon="4.09982">
        <ele>172</ele>
        <time>2024-04-29T05:50:44Z</time>
      </trkpt>
      <trkpt lat="50.12123" lon="4.09972">
        <ele>172</ele>
        <time>2024-04-29T05:50:45Z</time>
      </trkpt>
      <trkpt lat="50.12124" lon="4.09961">
        <ele>172</ele>
        <time>2024-04-29T05:50:46Z</time>
      </trkpt>
      <trkpt lat="50.12124" lon="4.09951">
        <ele>172</ele>
        <time>2024-04-29T05:50:47Z</time>
      </trkpt>
      <trkpt lat="50.12124" lon="4.09941">
        <ele>172</ele>
        <time>2024-04-29T05:50:48Z</time>
      </trkpt>
      <trkpt lat="50.12124" lon="4.09931">
        <ele>172</ele>
        <time>2024-04-29T05:50:49Z</time>
      </trkpt>
      <trkpt lat="50.12123" lon="4.09921">
        <ele>172</ele>
        <time>2024-04-29T05:50:50Z</time>
      </trkpt>
      <trkpt lat="50.12122" lon="4.09912">
        <ele>172.2</ele>
        <time>2024-04-29T05:50:51Z</time>
      </trkpt>
      <trkpt lat="50.1212" lon="4.09902">
        <ele>172.4</ele>
        <time>2024-04-29T05:50:52Z</time>
      </trkpt>
      <trkpt lat="50.12119" lon="4.09892">
        <ele>172.6</ele>
        <time>2024-04-29T05:50:53Z</time>
      </trkpt>
      <trkpt lat="50.12117" lon="4.09882">
        <ele>172.6</ele>
        <time>2024-04-29T05:50:54Z</time>
      </trkpt>
      <trkpt lat="50.12116" lon="4.09873">
        <ele>172.8</ele>
        <time>2024-04-29T05:50:55Z</time>
      </trkpt>
      <trkpt lat="50.12115" lon="4.09863">
        <ele>172.8</ele>
        <time>2024-04-29T05:50:56Z</time>
      </trkpt>
      <trkpt lat="50.12114" lon="4.09853">
        <ele>173.2</ele>
        <time>2024-04-29T05:50:57Z</time>
      </trkpt>
      <trkpt lat="50.12113" lon="4.09844">
        <ele>173.8</ele>
        <time>2024-04-29T05:50:58Z</time>
      </trkpt>
      <trkpt lat="50.12113" lon="4.09834">
        <ele>174.2</ele>
        <time>2024-04-29T05:50:59Z</time>
      </trkpt>
      <trkpt lat="50.12112" lon="4.09824">
        <ele>174.6</ele>
        <time>2024-04-29T05:51:00Z</time>
      </trkpt>
      <trkpt lat="50.12111" lon="4.09814">
        <ele>175.2</ele>
        <time>2024-04-29T05:51:01Z</time>
      </trkpt>
      <trkpt lat="50.12111" lon="4.09804">
        <ele>175.4</ele>
        <time>2024-04-29T05:51:02Z</time>
      </trkpt>
      <trkpt lat="50.1211" lon="4.09794">
        <ele>175.6</ele>
        <time>2024-04-29T05:51:03Z</time>
      </trkpt>
      <trkpt lat="50.12109" lon="4.09783">
        <ele>175.8</ele>
        <time>2024-04-29T05:51:04Z</time>
      </trkpt>
      <trkpt lat="50.12108" lon="4.09773">
        <ele>176.4</ele>
        <time>2024-04-29T05:51:05Z</time>
      </trkpt>
      <trkpt lat="50.12106" lon="4.09763">
        <ele>176.6</ele>
        <time>2024-04-29T05:51:06Z</time>
      </trkpt>
      <trkpt lat="50.12104" lon="4.09753">
        <ele>177</ele>
        <time>2024-04-29T05:51:07Z</time>
      </trkpt>
      <trkpt lat="50.12102" lon="4.09742">
        <ele>177.2</ele>
        <time>2024-04-29T05:51:08Z</time>
      </trkpt>
      <trkpt lat="50.12099" lon="4.09732">
        <ele>177.4</ele>
        <time>2024-04-29T05:51:09Z</time>
      </trkpt>
      <trkpt lat="50.12097" lon="4.09722">
        <ele>177.4</ele>
        <time>2024-04-29T05:51:10Z</time>
      </trkpt>
      <trkpt lat="50.12094" lon="4.09712">
        <ele>177.4</ele>
        <time>2024-04-29T05:51:11Z</time>
      </trkpt>
      <trkpt lat="50.12091" lon="4.09701">
        <ele>177.6</ele>
        <time>2024-04-29T05:51:12Z</time>
      </trkpt>
      <trkpt lat="50.12089" lon="4.0969">
        <ele>177.6</ele>
        <time>2024-04-29T05:51:13Z</time>
      </trkpt>
      <trkpt lat="50.12086" lon="4.09679">
        <ele>177.6</ele>
        <time>2024-04-29T05:51:14Z</time>
      </trkpt>
      <trkpt lat="50.12083" lon="4.09668">
        <ele>177.6</ele>
        <time>2024-04-29T05:51:15Z</time>
      </trkpt>
      <trkpt lat="50.12081" lon="4.09657">
        <ele>177.6</ele>
        <time>2024-04-29T05:51:16Z</time>
      </trkpt>
      <trkpt lat="50.12078" lon="4.09646">
        <ele>177.6</ele>
        <time>2024-04-29T05:51:17Z</time>
      </trkpt>
      <trkpt lat="50.12076" lon="4.09635">
        <ele>177.6</ele>
        <time>2024-04-29T05:51:18Z</time>
      </trkpt>
      <trkpt lat="50.12074" lon="4.09625">
        <ele>177.8</ele>
        <time>2024-04-29T05:51:19Z</time>
      </trkpt>
      <trkpt lat="50.12073" lon="4.09614">
        <ele>177.8</ele>
        <time>2024-04-29T05:51:20Z</time>
      </trkpt>
      <trkpt lat="50.12072" lon="4.09604">
        <ele>178</ele>
        <time>2024-04-29T05:51:21Z</time>
      </trkpt>
      <trkpt lat="50.12072" lon="4.09593">
        <ele>178</ele>
        <time>2024-04-29T05:51:22Z</time>
      </trkpt>
      <trkpt lat="50.12073" lon="4.09582">
        <ele>178.2</ele>
        <time>2024-04-29T05:51:23Z</time>
      </trkpt>
      <trkpt lat="50.12073" lon="4.09572">
        <ele>178.2</ele>
        <time>2024-04-29T05:51:24Z</time>
      </trkpt>
      <trkpt lat="50.12074" lon="4.09561">
        <ele>178</ele>
        <time>2024-04-29T05:51:25Z</time>
      </trkpt>
      <trkpt lat="50.12075" lon="4.09551">
        <ele>178.2</ele>
        <time>2024-04-29T05:51:26Z</time>
      </trkpt>
      <trkpt lat="50.12076" lon="4.0954">
        <ele>178.2</ele>
        <time>2024-04-29T05:51:27Z</time>
      </trkpt>
      <trkpt lat="50.12077" lon="4.0953">
        <ele>178.4</ele>
        <time>2024-04-29T05:51:28Z</time>
      </trkpt>
      <trkpt lat="50.12079" lon="4.09519">
        <ele>178.4</ele>
        <time>2024-04-29T05:51:29Z</time>
      </trkpt>
      <trkpt lat="50.12081" lon="4.09508">
        <ele>178.4</ele>
        <time>2024-04-29T05:51:30Z</time>
      </trkpt>
      <trkpt lat="50.12083" lon="4.09497">
        <ele>178.8</ele>
        <time>2024-04-29T05:51:31Z</time>
      </trkpt>
      <trkpt lat="50.12085" lon="4.09486">
        <ele>179</ele>
        <time>2024-04-29T05:51:32Z</time>
      </trkpt>
      <trkpt lat="50.12088" lon="4.09474">
        <ele>179</ele>
        <time>2024-04-29T05:51:33Z</time>
      </trkpt>
      <trkpt lat="50.1209" lon="4.09464">
        <ele>179</ele>
        <time>2024-04-29T05:51:34Z</time>
      </trkpt>
      <trkpt lat="50.12093" lon="4.09452">
        <ele>179</ele>
        <time>2024-04-29T05:51:35Z</time>
      </trkpt>
      <trkpt lat="50.12096" lon="4.0944">
        <ele>179</ele>
        <time>2024-04-29T05:51:36Z</time>
      </trkpt>
      <trkpt lat="50.12099" lon="4.09428">
        <ele>179</ele>
        <time>2024-04-29T05:51:37Z</time>
      </trkpt>
      <trkpt lat="50.12102" lon="4.09416">
        <ele>178.8</ele>
        <time>2024-04-29T05:51:38Z</time>
      </trkpt>
      <trkpt lat="50.12105" lon="4.09403">
        <ele>178.8</ele>
        <time>2024-04-29T05:51:39Z</time>
      </trkpt>
      <trkpt lat="50.12108" lon="4.0939">
        <ele>179</ele>
        <time>2024-04-29T05:51:40Z</time>
      </trkpt>
      <trkpt lat="50.12112" lon="4.09378">
        <ele>179.2</ele>
        <time>2024-04-29T05:51:41Z</time>
      </trkpt>
      <trkpt lat="50.12115" lon="4.09364">
        <ele>178.8</ele>
        <time>2024-04-29T05:51:42Z</time>
      </trkpt>
      <trkpt lat="50.12118" lon="4.09351">
        <ele>178.6</ele>
        <time>2024-04-29T05:51:43Z</time>
      </trkpt>
      <trkpt lat="50.12121" lon="4.09338">
        <ele>177.8</ele>
        <time>2024-04-29T05:51:44Z</time>
      </trkpt>
      <trkpt lat="50.12123" lon="4.09324">
        <ele>177.2</ele>
        <time>2024-04-29T05:51:45Z</time>
      </trkpt>
      <trkpt lat="50.12126" lon="4.0931">
        <ele>176.6</ele>
        <time>2024-04-29T05:51:46Z</time>
      </trkpt>
      <trkpt lat="50.12128" lon="4.09296">
        <ele>176</ele>
        <time>2024-04-29T05:51:47Z</time>
      </trkpt>
      <trkpt lat="50.1213" lon="4.09282">
        <ele>175.6</ele>
        <time>2024-04-29T05:51:48Z</time>
      </trkpt>
      <trkpt lat="50.12133" lon="4.09268">
        <ele>175</ele>
        <time>2024-04-29T05:51:49Z</time>
      </trkpt>
      <trkpt lat="50.12135" lon="4.09254">
        <ele>174.6</ele>
        <time>2024-04-29T05:51:50Z</time>
      </trkpt>
      <trkpt lat="50.12139" lon="4.09239">
        <ele>174.2</ele>
        <time>2024-04-29T05:51:51Z</time>
      </trkpt>
      <trkpt lat="50.12142" lon="4.09226">
        <ele>173.6</ele>
        <time>2024-04-29T05:51:52Z</time>
      </trkpt>
      <trkpt lat="50.12147" lon="4.09212">
        <ele>173.4</ele>
        <time>2024-04-29T05:51:53Z</time>
      </trkpt>
      <trkpt lat="50.12152" lon="4.092">
        <ele>173.2</ele>
        <time>2024-04-29T05:51:54Z</time>
      </trkpt>
      <trkpt lat="50.12158" lon="4.09188">
        <ele>172.6</ele>
        <time>2024-04-29T05:51:55Z</time>
      </trkpt>
      <trkpt lat="50.12164" lon="4.09177">
        <ele>172</ele>
        <time>2024-04-29T05:51:56Z</time>
      </trkpt>
      <trkpt lat="50.1217" lon="4.09166">
        <ele>171.4</ele>
        <time>2024-04-29T05:51:57Z</time>
      </trkpt>
      <trkpt lat="50.12175" lon="4.09154">
        <ele>171</ele>
        <time>2024-04-29T05:51:58Z</time>
      </trkpt>
      <trkpt lat="50.1218" lon="4.09142">
        <ele>170.6</ele>
        <time>2024-04-29T05:51:59Z</time>
      </trkpt>
      <trkpt lat="50.12184" lon="4.09129">
        <ele>170.6</ele>
        <time>2024-04-29T05:52:00Z</time>
      </trkpt>
      <trkpt lat="50.12187" lon="4.09116">
        <ele>170.2</ele>
        <time>2024-04-29T05:52:01Z</time>
      </trkpt>
      <trkpt lat="50.12189" lon="4.09102">
        <ele>169.8</ele>
        <time>2024-04-29T05:52:02Z</time>
      </trkpt>
      <trkpt lat="50.12191" lon="4.09087">
        <ele>169.6</ele>
        <time>2024-04-29T05:52:03Z</time>
      </trkpt>
      <trkpt lat="50.12191" lon="4.09073">
        <ele>169.4</ele>
        <time>2024-04-29T05:52:04Z</time>
      </trkpt>
      <trkpt lat="50.12192" lon="4.09058">
        <ele>169.4</ele>
        <time>2024-04-29T05:52:05Z</time>
      </trkpt>
      <trkpt lat="50.12192" lon="4.09044">
        <ele>169</ele>
        <time>2024-04-29T05:52:06Z</time>
      </trkpt>
      <trkpt lat="50.12192" lon="4.09029">
        <ele>168.8</ele>
        <time>2024-04-29T05:52:07Z</time>
      </trkpt>
      <trkpt lat="50.12192" lon="4.09015">
        <ele>168.6</ele>
        <time>2024-04-29T05:52:08Z</time>
      </trkpt>
      <trkpt lat="50.12192" lon="4.09001">
        <ele>168.4</ele>
        <time>2024-04-29T05:52:09Z</time>
      </trkpt>
      <trkpt lat="50.12193" lon="4.08987">
        <ele>168.4</ele>
        <time>2024-04-29T05:52:10Z</time>
      </trkpt>
      <trkpt lat="50.12193" lon="4.08973">
        <ele>168</ele>
        <time>2024-04-29T05:52:11Z</time>
      </trkpt>
      <trkpt lat="50.12193" lon="4.08959">
        <ele>167.6</ele>
        <time>2024-04-29T05:52:12Z</time>
      </trkpt>
      <trkpt lat="50.12193" lon="4.08946">
        <ele>167.4</ele>
        <time>2024-04-29T05:52:13Z</time>
      </trkpt>
      <trkpt lat="50.12193" lon="4.08933">
        <ele>167.2</ele>
        <time>2024-04-29T05:52:14Z</time>
      </trkpt>
      <trkpt lat="50.12193" lon="4.08919">
        <ele>166.8</ele>
        <time>2024-04-29T05:52:15Z</time>
      </trkpt>
      <trkpt lat="50.12193" lon="4.08906">
        <ele>166.6</ele>
        <time>2024-04-29T05:52:16Z</time>
      </trkpt>
      <trkpt lat="50.12193" lon="4.08893">
        <ele>166.2</ele>
        <time>2024-04-29T05:52:17Z</time>
      </trkpt>
      <trkpt lat="50.12194" lon="4.0888">
        <ele>166.2</ele>
        <time>2024-04-29T05:52:18Z</time>
      </trkpt>
      <trkpt lat="50.12194" lon="4.08867">
        <ele>166</ele>
        <time>2024-04-29T05:52:19Z</time>
      </trkpt>
      <trkpt lat="50.12195" lon="4.08855">
        <ele>165.8</ele>
        <time>2024-04-29T05:52:20Z</time>
      </trkpt>
      <trkpt lat="50.12195" lon="4.08842">
        <ele>165.8</ele>
        <time>2024-04-29T05:52:21Z</time>
      </trkpt>
      <trkpt lat="50.12196" lon="4.0883">
        <ele>165.8</ele>
        <time>2024-04-29T05:52:22Z</time>
      </trkpt>
      <trkpt lat="50.12198" lon="4.08817">
        <ele>165.8</ele>
        <time>2024-04-29T05:52:23Z</time>
      </trkpt>
      <trkpt lat="50.12199" lon="4.08805">
        <ele>165.8</ele>
        <time>2024-04-29T05:52:24Z</time>
      </trkpt>
      <trkpt lat="50.12201" lon="4.08793">
        <ele>165.8</ele>
        <time>2024-04-29T05:52:25Z</time>
      </trkpt>
      <trkpt lat="50.12202" lon="4.08782">
        <ele>165.8</ele>
        <time>2024-04-29T05:52:26Z</time>
      </trkpt>
      <trkpt lat="50.12204" lon="4.0877">
        <ele>165.8</ele>
        <time>2024-04-29T05:52:27Z</time>
      </trkpt>
      <trkpt lat="50.12205" lon="4.08758">
        <ele>165.8</ele>
        <time>2024-04-29T05:52:28Z</time>
      </trkpt>
      <trkpt lat="50.12206" lon="4.08746">
        <ele>165.8</ele>
        <time>2024-04-29T05:52:29Z</time>
      </trkpt>
      <trkpt lat="50.12207" lon="4.08734">
        <ele>165.6</ele>
        <time>2024-04-29T05:52:30Z</time>
      </trkpt>
      <trkpt lat="50.12208" lon="4.08723">
        <ele>165.8</ele>
        <time>2024-04-29T05:52:31Z</time>
      </trkpt>
      <trkpt lat="50.12208" lon="4.08711">
        <ele>166.2</ele>
        <time>2024-04-29T05:52:32Z</time>
      </trkpt>
      <trkpt lat="50.12208" lon="4.08699">
        <ele>166.2</ele>
        <time>2024-04-29T05:52:33Z</time>
      </trkpt>
      <trkpt lat="50.12209" lon="4.08688">
        <ele>166.4</ele>
        <time>2024-04-29T05:52:34Z</time>
      </trkpt>
      <trkpt lat="50.12209" lon="4.08676">
        <ele>166.6</ele>
        <time>2024-04-29T05:52:35Z</time>
      </trkpt>
      <trkpt lat="50.12209" lon="4.08665">
        <ele>166.6</ele>
        <time>2024-04-29T05:52:36Z</time>
      </trkpt>
      <trkpt lat="50.12209" lon="4.08653">
        <ele>166.4</ele>
        <time>2024-04-29T05:52:37Z</time>
      </trkpt>
      <trkpt lat="50.12209" lon="4.08642">
        <ele>166.4</ele>
        <time>2024-04-29T05:52:38Z</time>
      </trkpt>
      <trkpt lat="50.12209" lon="4.0863">
        <ele>166.6</ele>
        <time>2024-04-29T05:52:39Z</time>
      </trkpt>
      <trkpt lat="50.12209" lon="4.08619">
        <ele>166.6</ele>
        <time>2024-04-29T05:52:40Z</time>
      </trkpt>
      <trkpt lat="50.12208" lon="4.08608">
        <ele>166.6</ele>
        <time>2024-04-29T05:52:41Z</time>
      </trkpt>
      <trkpt lat="50.12208" lon="4.08596">
        <ele>166.6</ele>
        <time>2024-04-29T05:52:42Z</time>
      </trkpt>
      <trkpt lat="50.12208" lon="4.08585">
        <ele>166.6</ele>
        <time>2024-04-29T05:52:43Z</time>
      </trkpt>
      <trkpt lat="50.12208" lon="4.08573">
        <ele>166.6</ele>
        <time>2024-04-29T05:52:44Z</time>
      </trkpt>
      <trkpt lat="50.12207" lon="4.08562">
        <ele>166.4</ele>
        <time>2024-04-29T05:52:45Z</time>
      </trkpt>
      <trkpt lat="50.12207" lon="4.08551">
        <ele>166.6</ele>
        <time>2024-04-29T05:52:46Z</time>
      </trkpt>
      <trkpt lat="50.12207" lon="4.08539">
        <ele>166.4</ele>
        <time>2024-04-29T05:52:47Z</time>
      </trkpt>
      <trkpt lat="50.12207" lon="4.08528">
        <ele>166.4</ele>
        <time>2024-04-29T05:52:48Z</time>
      </trkpt>
      <trkpt lat="50.12208" lon="4.08517">
        <ele>166.4</ele>
        <time>2024-04-29T05:52:49Z</time>
      </trkpt>
      <trkpt lat="50.12209" lon="4.08507">
        <ele>166.4</ele>
        <time>2024-04-29T05:52:50Z</time>
      </trkpt>
      <trkpt lat="50.1221" lon="4.08496">
        <ele>166.4</ele>
        <time>2024-04-29T05:52:51Z</time>
      </trkpt>
      <trkpt lat="50.12212" lon="4.08486">
        <ele>166.4</ele>
        <time>2024-04-29T05:52:52Z</time>
      </trkpt>
      <trkpt lat="50.12214" lon="4.08476">
        <ele>166.4</ele>
        <time>2024-04-29T05:52:53Z</time>
      </trkpt>
      <trkpt lat="50.12216" lon="4.08465">
        <ele>166.4</ele>
        <time>2024-04-29T05:52:54Z</time>
      </trkpt>
      <trkpt lat="50.12217" lon="4.08455">
        <ele>166.4</ele>
        <time>2024-04-29T05:52:55Z</time>
      </trkpt>
      <trkpt lat="50.12219" lon="4.08446">
        <ele>166.2</ele>
        <time>2024-04-29T05:52:56Z</time>
      </trkpt>
      <trkpt lat="50.12221" lon="4.08436">
        <ele>166.2</ele>
        <time>2024-04-29T05:52:57Z</time>
      </trkpt>
      <trkpt lat="50.12224" lon="4.08426">
        <ele>166.2</ele>
        <time>2024-04-29T05:52:58Z</time>
      </trkpt>
      <trkpt lat="50.12226" lon="4.08416">
        <ele>166.4</ele>
        <time>2024-04-29T05:52:59Z</time>
      </trkpt>
      <trkpt lat="50.12228" lon="4.08406">
        <ele>166.2</ele>
        <time>2024-04-29T05:53:00Z</time>
      </trkpt>
      <trkpt lat="50.12231" lon="4.08397">
        <ele>166.6</ele>
        <time>2024-04-29T05:53:01Z</time>
      </trkpt>
      <trkpt lat="50.12234" lon="4.08387">
        <ele>166.6</ele>
        <time>2024-04-29T05:53:02Z</time>
      </trkpt>
      <trkpt lat="50.12237" lon="4.08378">
        <ele>167</ele>
        <time>2024-04-29T05:53:03Z</time>
      </trkpt>
      <trkpt lat="50.1224" lon="4.0837">
        <ele>167.2</ele>
        <time>2024-04-29T05:53:04Z</time>
      </trkpt>
      <trkpt lat="50.12243" lon="4.08361">
        <ele>167.2</ele>
        <time>2024-04-29T05:53:05Z</time>
      </trkpt>
      <trkpt lat="50.12247" lon="4.08352">
        <ele>167.6</ele>
        <time>2024-04-29T05:53:06Z</time>
      </trkpt>
      <trkpt lat="50.12251" lon="4.08344">
        <ele>167.8</ele>
        <time>2024-04-29T05:53:07Z</time>
      </trkpt>
      <trkpt lat="50.12255" lon="4.08336">
        <ele>168</ele>
        <time>2024-04-29T05:53:08Z</time>
      </trkpt>
      <trkpt lat="50.12258" lon="4.08328">
        <ele>168.4</ele>
        <time>2024-04-29T05:53:09Z</time>
      </trkpt>
      <trkpt lat="50.12262" lon="4.0832">
        <ele>168.6</ele>
        <time>2024-04-29T05:53:10Z</time>
      </trkpt>
      <trkpt lat="50.12266" lon="4.08312">
        <ele>168.8</ele>
        <time>2024-04-29T05:53:11Z</time>
      </trkpt>
      <trkpt lat="50.1227" lon="4.08304">
        <ele>169</ele>
        <time>2024-04-29T05:53:12Z</time>
      </trkpt>
      <trkpt lat="50.12273" lon="4.08295">
        <ele>169.4</ele>
        <time>2024-04-29T05:53:13Z</time>
      </trkpt>
      <trkpt lat="50.12277" lon="4.08287">
        <ele>169.4</ele>
        <time>2024-04-29T05:53:14Z</time>
      </trkpt>
      <trkpt lat="50.12281" lon="4.08279">
        <ele>169.8</ele>
        <time>2024-04-29T05:53:15Z</time>
      </trkpt>
      <trkpt lat="50.12285" lon="4.08271">
        <ele>170</ele>
        <time>2024-04-29T05:53:16Z</time>
      </trkpt>
      <trkpt lat="50.12289" lon="4.08263">
        <ele>170.2</ele>
        <time>2024-04-29T05:53:17Z</time>
      </trkpt>
      <trkpt lat="50.12293" lon="4.08254">
        <ele>170.4</ele>
        <time>2024-04-29T05:53:18Z</time>
      </trkpt>
      <trkpt lat="50.12297" lon="4.08246">
        <ele>170.8</ele>
        <time>2024-04-29T05:53:19Z</time>
      </trkpt>
      <trkpt lat="50.12301" lon="4.08238">
        <ele>171.2</ele>
        <time>2024-04-29T05:53:20Z</time>
      </trkpt>
      <trkpt lat="50.12304" lon="4.0823">
        <ele>171.2</ele>
        <time>2024-04-29T05:53:21Z</time>
      </trkpt>
      <trkpt lat="50.12308" lon="4.08221">
        <ele>171.6</ele>
        <time>2024-04-29T05:53:22Z</time>
      </trkpt>
      <trkpt lat="50.12312" lon="4.08213">
        <ele>171.8</ele>
        <time>2024-04-29T05:53:23Z</time>
      </trkpt>
      <trkpt lat="50.12316" lon="4.08205">
        <ele>172</ele>
        <time>2024-04-29T05:53:24Z</time>
      </trkpt>
      <trkpt lat="50.1232" lon="4.08196">
        <ele>172.4</ele>
        <time>2024-04-29T05:53:25Z</time>
      </trkpt>
      <trkpt lat="50.12324" lon="4.08188">
        <ele>172.4</ele>
        <time>2024-04-29T05:53:26Z</time>
      </trkpt>
      <trkpt lat="50.12328" lon="4.0818">
        <ele>172.8</ele>
        <time>2024-04-29T05:53:27Z</time>
      </trkpt>
      <trkpt lat="50.12332" lon="4.08171">
        <ele>173</ele>
        <time>2024-04-29T05:53:28Z</time>
      </trkpt>
      <trkpt lat="50.12335" lon="4.08163">
        <ele>173.4</ele>
        <time>2024-04-29T05:53:29Z</time>
      </trkpt>
      <trkpt lat="50.12339" lon="4.08155">
        <ele>173.6</ele>
        <time>2024-04-29T05:53:30Z</time>
      </trkpt>
      <trkpt lat="50.12343" lon="4.08146">
        <ele>173.6</ele>
        <time>2024-04-29T05:53:31Z</time>
      </trkpt>
      <trkpt lat="50.12347" lon="4.08137">
        <ele>173.8</ele>
        <time>2024-04-29T05:53:32Z</time>
      </trkpt>
      <trkpt lat="50.12352" lon="4.08129">
        <ele>174</ele>
        <time>2024-04-29T05:53:33Z</time>
      </trkpt>
      <trkpt lat="50.12356" lon="4.0812">
        <ele>174.4</ele>
        <time>2024-04-29T05:53:34Z</time>
      </trkpt>
      <trkpt lat="50.1236" lon="4.08112">
        <ele>174.6</ele>
        <time>2024-04-29T05:53:35Z</time>
      </trkpt>
      <trkpt lat="50.12364" lon="4.08103">
        <ele>174.8</ele>
        <time>2024-04-29T05:53:36Z</time>
      </trkpt>
      <trkpt lat="50.12368" lon="4.08095">
        <ele>175</ele>
        <time>2024-04-29T05:53:37Z</time>
      </trkpt>
      <trkpt lat="50.12372" lon="4.08086">
        <ele>175.2</ele>
        <time>2024-04-29T05:53:38Z</time>
      </trkpt>
      <trkpt lat="50.12376" lon="4.08077">
        <ele>175</ele>
        <time>2024-04-29T05:53:39Z</time>
      </trkpt>
      <trkpt lat="50.1238" lon="4.08069">
        <ele>175.2</ele>
        <time>2024-04-29T05:53:40Z</time>
      </trkpt>
      <trkpt lat="50.12384" lon="4.08061">
        <ele>175.4</ele>
        <time>2024-04-29T05:53:41Z</time>
      </trkpt>
      <trkpt lat="50.1239" lon="4.08054">
        <ele>175.4</ele>
        <time>2024-04-29T05:53:42Z</time>
      </trkpt>
      <trkpt lat="50.12396" lon="4.08051">
        <ele>175.6</ele>
        <time>2024-04-29T05:53:43Z</time>
      </trkpt>
      <trkpt lat="50.12403" lon="4.08052">
        <ele>175.4</ele>
        <time>2024-04-29T05:53:44Z</time>
      </trkpt>
      <trkpt lat="50.12409" lon="4.08056">
        <ele>175.6</ele>
        <time>2024-04-29T05:53:45Z</time>
      </trkpt>
      <trkpt lat="50.12415" lon="4.08063">
        <ele>175.6</ele>
        <time>2024-04-29T05:53:46Z</time>
      </trkpt>
      <trkpt lat="50.1242" lon="4.08071">
        <ele>175.6</ele>
        <time>2024-04-29T05:53:47Z</time>
      </trkpt>
      <trkpt lat="50.12424" lon="4.0808">
        <ele>175.6</ele>
        <time>2024-04-29T05:53:48Z</time>
      </trkpt>
      <trkpt lat="50.12429" lon="4.08089">
        <ele>175.6</ele>
        <time>2024-04-29T05:53:49Z</time>
      </trkpt>
      <trkpt lat="50.12434" lon="4.08098">
        <ele>175.6</ele>
        <time>2024-04-29T05:53:50Z</time>
      </trkpt>
      <trkpt lat="50.12439" lon="4.08107">
        <ele>175.6</ele>
        <time>2024-04-29T05:53:51Z</time>
      </trkpt>
      <trkpt lat="50.12444" lon="4.08116">
        <ele>175.6</ele>
        <time>2024-04-29T05:53:52Z</time>
      </trkpt>
      <trkpt lat="50.12449" lon="4.08126">
        <ele>175.6</ele>
        <time>2024-04-29T05:53:53Z</time>
      </trkpt>
      <trkpt lat="50.12453" lon="4.08135">
        <ele>175.4</ele>
        <time>2024-04-29T05:53:54Z</time>
      </trkpt>
      <trkpt lat="50.12458" lon="4.08144">
        <ele>175.6</ele>
        <time>2024-04-29T05:53:55Z</time>
      </trkpt>
      <trkpt lat="50.12463" lon="4.08153">
        <ele>175.4</ele>
        <time>2024-04-29T05:53:56Z</time>
      </trkpt>
      <trkpt lat="50.12468" lon="4.08163">
        <ele>175</ele>
        <time>2024-04-29T05:53:57Z</time>
      </trkpt>
      <trkpt lat="50.12472" lon="4.08172">
        <ele>174.6</ele>
        <time>2024-04-29T05:53:58Z</time>
      </trkpt>
      <trkpt lat="50.12477" lon="4.08181">
        <ele>174.4</ele>
        <time>2024-04-29T05:53:59Z</time>
      </trkpt>
      <trkpt lat="50.12482" lon="4.0819">
        <ele>174.4</ele>
        <time>2024-04-29T05:54:00Z</time>
      </trkpt>
      <trkpt lat="50.12487" lon="4.082">
        <ele>174.2</ele>
        <time>2024-04-29T05:54:01Z</time>
      </trkpt>
      <trkpt lat="50.12492" lon="4.08209">
        <ele>174.2</ele>
        <time>2024-04-29T05:54:02Z</time>
      </trkpt>
      <trkpt lat="50.12497" lon="4.08218">
        <ele>173.8</ele>
        <time>2024-04-29T05:54:03Z</time>
      </trkpt>
      <trkpt lat="50.12502" lon="4.08227">
        <ele>174</ele>
        <time>2024-04-29T05:54:04Z</time>
      </trkpt>
      <trkpt lat="50.12507" lon="4.08236">
        <ele>173.8</ele>
        <time>2024-04-29T05:54:05Z</time>
      </trkpt>
      <trkpt lat="50.12513" lon="4.08244">
        <ele>173.8</ele>
        <time>2024-04-29T05:54:06Z</time>
      </trkpt>
      <trkpt lat="50.12519" lon="4.08252">
        <ele>173.6</ele>
        <time>2024-04-29T05:54:07Z</time>
      </trkpt>
      <trkpt lat="50.12526" lon="4.0826">
        <ele>173.8</ele>
        <time>2024-04-29T05:54:08Z</time>
      </trkpt>
      <trkpt lat="50.12533" lon="4.08266">
        <ele>173.6</ele>
        <time>2024-04-29T05:54:09Z</time>
      </trkpt>
      <trkpt lat="50.1254" lon="4.08272">
        <ele>173.6</ele>
        <time>2024-04-29T05:54:10Z</time>
      </trkpt>
      <trkpt lat="50.12548" lon="4.08278">
        <ele>173.6</ele>
        <time>2024-04-29T05:54:11Z</time>
      </trkpt>
      <trkpt lat="50.12556" lon="4.08282">
        <ele>173.4</ele>
        <time>2024-04-29T05:54:12Z</time>
      </trkpt>
      <trkpt lat="50.12564" lon="4.08286">
        <ele>173.4</ele>
        <time>2024-04-29T05:54:13Z</time>
      </trkpt>
      <trkpt lat="50.12571" lon="4.08289">
        <ele>173.4</ele>
        <time>2024-04-29T05:54:14Z</time>
      </trkpt>
      <trkpt lat="50.12579" lon="4.08291">
        <ele>173.4</ele>
        <time>2024-04-29T05:54:15Z</time>
      </trkpt>
      <trkpt lat="50.12587" lon="4.08293">
        <ele>173.2</ele>
        <time>2024-04-29T05:54:16Z</time>
      </trkpt>
      <trkpt lat="50.12595" lon="4.08294">
        <ele>173.2</ele>
        <time>2024-04-29T05:54:17Z</time>
      </trkpt>
      <trkpt lat="50.12603" lon="4.08295">
        <ele>173.2</ele>
        <time>2024-04-29T05:54:18Z</time>
      </trkpt>
      <trkpt lat="50.1261" lon="4.08295">
        <ele>173.2</ele>
        <time>2024-04-29T05:54:19Z</time>
      </trkpt>
      <trkpt lat="50.12618" lon="4.08294">
        <ele>173.2</ele>
        <time>2024-04-29T05:54:20Z</time>
      </trkpt>
      <trkpt lat="50.12625" lon="4.08294">
        <ele>173</ele>
        <time>2024-04-29T05:54:21Z</time>
      </trkpt>
      <trkpt lat="50.12632" lon="4.08294">
        <ele>173</ele>
        <time>2024-04-29T05:54:22Z</time>
      </trkpt>
      <trkpt lat="50.12639" lon="4.08294">
        <ele>173.2</ele>
        <time>2024-04-29T05:54:23Z</time>
      </trkpt>
      <trkpt lat="50.12646" lon="4.08294">
        <ele>173.4</ele>
        <time>2024-04-29T05:54:24Z</time>
      </trkpt>
      <trkpt lat="50.12653" lon="4.08293">
        <ele>173.4</ele>
        <time>2024-04-29T05:54:25Z</time>
      </trkpt>
      <trkpt lat="50.12659" lon="4.08293">
        <ele>173.2</ele>
        <time>2024-04-29T05:54:26Z</time>
      </trkpt>
      <trkpt lat="50.12666" lon="4.08293">
        <ele>173.4</ele>
        <time>2024-04-29T05:54:27Z</time>
      </trkpt>
      <trkpt lat="50.12672" lon="4.08293">
        <ele>173.4</ele>
        <time>2024-04-29T05:54:28Z</time>
      </trkpt>
      <trkpt lat="50.12678" lon="4.08293">
        <ele>173.6</ele>
        <time>2024-04-29T05:54:29Z</time>
      </trkpt>
      <trkpt lat="50.12684" lon="4.08293">
        <ele>173.8</ele>
        <time>2024-04-29T05:54:30Z</time>
      </trkpt>
      <trkpt lat="50.12691" lon="4.08292">
        <ele>173.8</ele>
        <time>2024-04-29T05:54:31Z</time>
      </trkpt>
      <trkpt lat="50.12697" lon="4.08292">
        <ele>174</ele>
        <time>2024-04-29T05:54:32Z</time>
      </trkpt>
      <trkpt lat="50.12703" lon="4.08292">
        <ele>174</ele>
        <time>2024-04-29T05:54:33Z</time>
      </trkpt>
      <trkpt lat="50.12708" lon="4.08292">
        <ele>174.2</ele>
        <time>2024-04-29T05:54:34Z</time>
      </trkpt>
      <trkpt lat="50.12714" lon="4.08292">
        <ele>174.4</ele>
        <time>2024-04-29T05:54:35Z</time>
      </trkpt>
      <trkpt lat="50.1272" lon="4.08292">
        <ele>174.6</ele>
        <time>2024-04-29T05:54:36Z</time>
      </trkpt>
      <trkpt lat="50.12726" lon="4.08292">
        <ele>174.6</ele>
        <time>2024-04-29T05:54:37Z</time>
      </trkpt>
      <trkpt lat="50.12732" lon="4.08291">
        <ele>175</ele>
        <time>2024-04-29T05:54:38Z</time>
      </trkpt>
      <trkpt lat="50.12738" lon="4.08291">
        <ele>175.2</ele>
        <time>2024-04-29T05:54:39Z</time>
      </trkpt>
      <trkpt lat="50.12743" lon="4.08291">
        <ele>175.6</ele>
        <time>2024-04-29T05:54:40Z</time>
      </trkpt>
      <trkpt lat="50.12749" lon="4.08291">
        <ele>176</ele>
        <time>2024-04-29T05:54:41Z</time>
      </trkpt>
      <trkpt lat="50.12754" lon="4.08291">
        <ele>176.2</ele>
        <time>2024-04-29T05:54:42Z</time>
      </trkpt>
      <trkpt lat="50.1276" lon="4.08291">
        <ele>177</ele>
        <time>2024-04-29T05:54:43Z</time>
      </trkpt>
      <trkpt lat="50.12765" lon="4.0829">
        <ele>177</ele>
        <time>2024-04-29T05:54:44Z</time>
      </trkpt>
      <trkpt lat="50.12771" lon="4.0829">
        <ele>177.6</ele>
        <time>2024-04-29T05:54:45Z</time>
      </trkpt>
      <trkpt lat="50.12776" lon="4.0829">
        <ele>178</ele>
        <time>2024-04-29T05:54:46Z</time>
      </trkpt>
      <trkpt lat="50.12782" lon="4.0829">
        <ele>178.4</ele>
        <time>2024-04-29T05:54:47Z</time>
      </trkpt>
      <trkpt lat="50.12787" lon="4.0829">
        <ele>179</ele>
        <time>2024-04-29T05:54:48Z</time>
      </trkpt>
      <trkpt lat="50.12792" lon="4.08291">
        <ele>180.2</ele>
        <time>2024-04-29T05:54:49Z</time>
      </trkpt>
      <trkpt lat="50.12798" lon="4.08292">
        <ele>180.8</ele>
        <time>2024-04-29T05:54:50Z</time>
      </trkpt>
      <trkpt lat="50.12803" lon="4.08293">
        <ele>181.2</ele>
        <time>2024-04-29T05:54:51Z</time>
      </trkpt>
      <trkpt lat="50.12808" lon="4.08295">
        <ele>181.8</ele>
        <time>2024-04-29T05:54:52Z</time>
      </trkpt>
      <trkpt lat="50.12813" lon="4.08296">
        <ele>181.8</ele>
        <time>2024-04-29T05:54:53Z</time>
      </trkpt>
      <trkpt lat="50.12818" lon="4.08297">
        <ele>182.2</ele>
        <time>2024-04-29T05:54:54Z</time>
      </trkpt>
      <trkpt lat="50.12823" lon="4.08299">
        <ele>182.4</ele>
        <time>2024-04-29T05:54:55Z</time>
      </trkpt>
      <trkpt lat="50.12828" lon="4.08302">
        <ele>182.8</ele>
        <time>2024-04-29T05:54:56Z</time>
      </trkpt>
      <trkpt lat="50.12833" lon="4.08305">
        <ele>183.2</ele>
        <time>2024-04-29T05:54:57Z</time>
      </trkpt>
      <trkpt lat="50.12838" lon="4.08307">
        <ele>183.4</ele>
        <time>2024-04-29T05:54:58Z</time>
      </trkpt>
      <trkpt lat="50.12842" lon="4.0831">
        <ele>183.6</ele>
        <time>2024-04-29T05:54:59Z</time>
      </trkpt>
      <trkpt lat="50.12847" lon="4.08313">
        <ele>184</ele>
        <time>2024-04-29T05:55:00Z</time>
      </trkpt>
      <trkpt lat="50.12852" lon="4.08317">
        <ele>184.4</ele>
        <time>2024-04-29T05:55:01Z</time>
      </trkpt>
      <trkpt lat="50.12856" lon="4.0832">
        <ele>184.8</ele>
        <time>2024-04-29T05:55:02Z</time>
      </trkpt>
      <trkpt lat="50.12861" lon="4.08324">
        <ele>185.2</ele>
        <time>2024-04-29T05:55:03Z</time>
      </trkpt>
      <trkpt lat="50.12865" lon="4.08328">
        <ele>185.6</ele>
        <time>2024-04-29T05:55:04Z</time>
      </trkpt>
      <trkpt lat="50.12869" lon="4.08332">
        <ele>186</ele>
        <time>2024-04-29T05:55:05Z</time>
      </trkpt>
      <trkpt lat="50.12873" lon="4.08336">
        <ele>186.4</ele>
        <time>2024-04-29T05:55:06Z</time>
      </trkpt>
      <trkpt lat="50.12877" lon="4.08341">
        <ele>186.8</ele>
        <time>2024-04-29T05:55:07Z</time>
      </trkpt>
      <trkpt lat="50.12881" lon="4.08345">
        <ele>187.2</ele>
        <time>2024-04-29T05:55:08Z</time>
      </trkpt>
      <trkpt lat="50.12886" lon="4.08349">
        <ele>187.4</ele>
        <time>2024-04-29T05:55:09Z</time>
      </trkpt>
      <trkpt lat="50.1289" lon="4.08353">
        <ele>188</ele>
        <time>2024-04-29T05:55:10Z</time>
      </trkpt>
      <trkpt lat="50.12894" lon="4.08358">
        <ele>188.6</ele>
        <time>2024-04-29T05:55:11Z</time>
      </trkpt>
      <trkpt lat="50.12898" lon="4.08362">
        <ele>188.8</ele>
        <time>2024-04-29T05:55:12Z</time>
      </trkpt>
      <trkpt lat="50.12902" lon="4.08367">
        <ele>189.2</ele>
        <time>2024-04-29T05:55:13Z</time>
      </trkpt>
      <trkpt lat="50.12906" lon="4.08371">
        <ele>189.8</ele>
        <time>2024-04-29T05:55:14Z</time>
      </trkpt>
      <trkpt lat="50.1291" lon="4.08375">
        <ele>189.8</ele>
        <time>2024-04-29T05:55:15Z</time>
      </trkpt>
      <trkpt lat="50.12914" lon="4.0838">
        <ele>190</ele>
        <time>2024-04-29T05:55:16Z</time>
      </trkpt>
      <trkpt lat="50.12918" lon="4.08384">
        <ele>190.6</ele>
        <time>2024-04-29T05:55:17Z</time>
      </trkpt>
      <trkpt lat="50.12922" lon="4.08389">
        <ele>191</ele>
        <time>2024-04-29T05:55:18Z</time>
      </trkpt>
      <trkpt lat="50.12926" lon="4.08394">
        <ele>191.4</ele>
        <time>2024-04-29T05:55:19Z</time>
      </trkpt>
      <trkpt lat="50.1293" lon="4.08398">
        <ele>191.8</ele>
        <time>2024-04-29T05:55:20Z</time>
      </trkpt>
      <trkpt lat="50.12934" lon="4.08403">
        <ele>192</ele>
        <time>2024-04-29T05:55:21Z</time>
      </trkpt>
      <trkpt lat="50.12939" lon="4.08407">
        <ele>192.4</ele>
        <time>2024-04-29T05:55:22Z</time>
      </trkpt>
      <trkpt lat="50.12943" lon="4.08411">
        <ele>192.8</ele>
        <time>2024-04-29T05:55:23Z</time>
      </trkpt>
      <trkpt lat="50.12947" lon="4.08415">
        <ele>193.2</ele>
        <time>2024-04-29T05:55:24Z</time>
      </trkpt>
      <trkpt lat="50.12951" lon="4.08419">
        <ele>193.4</ele>
        <time>2024-04-29T05:55:25Z</time>
      </trkpt>
      <trkpt lat="50.12956" lon="4.08423">
        <ele>193.6</ele>
        <time>2024-04-29T05:55:26Z</time>
      </trkpt>
      <trkpt lat="50.1296" lon="4.08426">
        <ele>193.8</ele>
        <time>2024-04-29T05:55:27Z</time>
      </trkpt>
      <trkpt lat="50.12965" lon="4.08428">
        <ele>193.8</ele>
        <time>2024-04-29T05:55:28Z</time>
      </trkpt>
      <trkpt lat="50.12969" lon="4.0843">
        <ele>194</ele>
        <time>2024-04-29T05:55:29Z</time>
      </trkpt>
      <trkpt lat="50.12974" lon="4.08432">
        <ele>194</ele>
        <time>2024-04-29T05:55:30Z</time>
      </trkpt>
      <trkpt lat="50.12979" lon="4.08433">
        <ele>194.2</ele>
        <time>2024-04-29T05:55:31Z</time>
      </trkpt>
      <trkpt lat="50.12984" lon="4.08434">
        <ele>194.4</ele>
        <time>2024-04-29T05:55:32Z</time>
      </trkpt>
      <trkpt lat="50.12989" lon="4.08434">
        <ele>194.6</ele>
        <time>2024-04-29T05:55:33Z</time>
      </trkpt>
      <trkpt lat="50.12993" lon="4.08434">
        <ele>195</ele>
        <time>2024-04-29T05:55:34Z</time>
      </trkpt>
      <trkpt lat="50.12998" lon="4.08433">
        <ele>195.4</ele>
        <time>2024-04-29T05:55:35Z</time>
      </trkpt>
      <trkpt lat="50.13003" lon="4.08431">
        <ele>195.6</ele>
        <time>2024-04-29T05:55:36Z</time>
      </trkpt>
      <trkpt lat="50.13007" lon="4.08429">
        <ele>195.6</ele>
        <time>2024-04-29T05:55:37Z</time>
      </trkpt>
      <trkpt lat="50.13011" lon="4.08426">
        <ele>196</ele>
        <time>2024-04-29T05:55:38Z</time>
      </trkpt>
      <trkpt lat="50.13016" lon="4.08423">
        <ele>196.4</ele>
        <time>2024-04-29T05:55:39Z</time>
      </trkpt>
      <trkpt lat="50.1302" lon="4.0842">
        <ele>196.6</ele>
        <time>2024-04-29T05:55:40Z</time>
      </trkpt>
      <trkpt lat="50.13025" lon="4.08417">
        <ele>197.2</ele>
        <time>2024-04-29T05:55:41Z</time>
      </trkpt>
      <trkpt lat="50.13029" lon="4.08414">
        <ele>197.8</ele>
        <time>2024-04-29T05:55:42Z</time>
      </trkpt>
      <trkpt lat="50.13034" lon="4.0841">
        <ele>198.2</ele>
        <time>2024-04-29T05:55:43Z</time>
      </trkpt>
      <trkpt lat="50.13038" lon="4.08407">
        <ele>198.6</ele>
        <time>2024-04-29T05:55:44Z</time>
      </trkpt>
      <trkpt lat="50.13042" lon="4.08403">
        <ele>198.8</ele>
        <time>2024-04-29T05:55:45Z</time>
      </trkpt>
      <trkpt lat="50.13047" lon="4.08399">
        <ele>199.6</ele>
        <time>2024-04-29T05:55:46Z</time>
      </trkpt>
      <trkpt lat="50.13051" lon="4.08395">
        <ele>200.4</ele>
        <time>2024-04-29T05:55:47Z</time>
      </trkpt>
      <trkpt lat="50.13055" lon="4.08391">
        <ele>201</ele>
        <time>2024-04-29T05:55:48Z</time>
      </trkpt>
      <trkpt lat="50.13059" lon="4.08387">
        <ele>201.4</ele>
        <time>2024-04-29T05:55:49Z</time>
      </trkpt>
      <trkpt lat="50.13064" lon="4.08383">
        <ele>201.8</ele>
        <time>2024-04-29T05:55:50Z</time>
      </trkpt>
      <trkpt lat="50.13068" lon="4.08379">
        <ele>202</ele>
        <time>2024-04-29T05:55:51Z</time>
      </trkpt>
      <trkpt lat="50.13073" lon="4.08375">
        <ele>202.4</ele>
        <time>2024-04-29T05:55:52Z</time>
      </trkpt>
      <trkpt lat="50.13077" lon="4.0837">
        <ele>202.6</ele>
        <time>2024-04-29T05:55:53Z</time>
      </trkpt>
      <trkpt lat="50.13081" lon="4.08366">
        <ele>203</ele>
        <time>2024-04-29T05:55:54Z</time>
      </trkpt>
      <trkpt lat="50.13085" lon="4.08363">
        <ele>203.2</ele>
        <time>2024-04-29T05:55:55Z</time>
      </trkpt>
      <trkpt lat="50.1309" lon="4.08359">
        <ele>203.6</ele>
        <time>2024-04-29T05:55:56Z</time>
      </trkpt>
      <trkpt lat="50.13094" lon="4.08355">
        <ele>204</ele>
        <time>2024-04-29T05:55:57Z</time>
      </trkpt>
      <trkpt lat="50.13099" lon="4.08351">
        <ele>204.2</ele>
        <time>2024-04-29T05:55:58Z</time>
      </trkpt>
      <trkpt lat="50.13104" lon="4.08348">
        <ele>204.2</ele>
        <time>2024-04-29T05:55:59Z</time>
      </trkpt>
      <trkpt lat="50.13109" lon="4.08345">
        <ele>204.4</ele>
        <time>2024-04-29T05:56:00Z</time>
      </trkpt>
      <trkpt lat="50.13114" lon="4.08342">
        <ele>204.8</ele>
        <time>2024-04-29T05:56:01Z</time>
      </trkpt>
      <trkpt lat="50.13119" lon="4.08339">
        <ele>205</ele>
        <time>2024-04-29T05:56:02Z</time>
      </trkpt>
      <trkpt lat="50.13124" lon="4.08337">
        <ele>205.4</ele>
        <time>2024-04-29T05:56:03Z</time>
      </trkpt>
      <trkpt lat="50.13129" lon="4.08335">
        <ele>205.8</ele>
        <time>2024-04-29T05:56:04Z</time>
      </trkpt>
      <trkpt lat="50.13134" lon="4.08332">
        <ele>206</ele>
        <time>2024-04-29T05:56:05Z</time>
      </trkpt>
      <trkpt lat="50.13139" lon="4.08331">
        <ele>206.4</ele>
        <time>2024-04-29T05:56:06Z</time>
      </trkpt>
      <trkpt lat="50.13145" lon="4.0833">
        <ele>206.8</ele>
        <time>2024-04-29T05:56:07Z</time>
      </trkpt>
      <trkpt lat="50.1315" lon="4.08329">
        <ele>207.4</ele>
        <time>2024-04-29T05:56:08Z</time>
      </trkpt>
      <trkpt lat="50.13155" lon="4.08328">
        <ele>207.6</ele>
        <time>2024-04-29T05:56:09Z</time>
      </trkpt>
      <trkpt lat="50.13161" lon="4.08328">
        <ele>207.8</ele>
        <time>2024-04-29T05:56:10Z</time>
      </trkpt>
      <trkpt lat="50.13167" lon="4.08329">
        <ele>208.2</ele>
        <time>2024-04-29T05:56:11Z</time>
      </trkpt>
      <trkpt lat="50.13173" lon="4.08331">
        <ele>208.4</ele>
        <time>2024-04-29T05:56:12Z</time>
      </trkpt>
      <trkpt lat="50.13179" lon="4.08331">
        <ele>208.6</ele>
        <time>2024-04-29T05:56:13Z</time>
      </trkpt>
      <trkpt lat="50.13184" lon="4.08333">
        <ele>208.6</ele>
        <time>2024-04-29T05:56:14Z</time>
      </trkpt>
      <trkpt lat="50.1319" lon="4.08334">
        <ele>208.8</ele>
        <time>2024-04-29T05:56:15Z</time>
      </trkpt>
      <trkpt lat="50.13196" lon="4.08336">
        <ele>209</ele>
        <time>2024-04-29T05:56:16Z</time>
      </trkpt>
      <trkpt lat="50.13203" lon="4.08338">
        <ele>209.4</ele>
        <time>2024-04-29T05:56:17Z</time>
      </trkpt>
      <trkpt lat="50.13209" lon="4.0834">
        <ele>209.8</ele>
        <time>2024-04-29T05:56:18Z</time>
      </trkpt>
      <trkpt lat="50.13215" lon="4.08342">
        <ele>210</ele>
        <time>2024-04-29T05:56:19Z</time>
      </trkpt>
      <trkpt lat="50.13222" lon="4.08344">
        <ele>210</ele>
        <time>2024-04-29T05:56:20Z</time>
      </trkpt>
      <trkpt lat="50.13228" lon="4.08345">
        <ele>210.6</ele>
        <time>2024-04-29T05:56:21Z</time>
      </trkpt>
      <trkpt lat="50.13234" lon="4.08347">
        <ele>211.2</ele>
        <time>2024-04-29T05:56:22Z</time>
      </trkpt>
      <trkpt lat="50.13241" lon="4.08349">
        <ele>211.6</ele>
        <time>2024-04-29T05:56:23Z</time>
      </trkpt>
      <trkpt lat="50.13248" lon="4.0835">
        <ele>212.8</ele>
        <time>2024-04-29T05:56:24Z</time>
      </trkpt>
      <trkpt lat="50.13254" lon="4.08352">
        <ele>213.4</ele>
        <time>2024-04-29T05:56:25Z</time>
      </trkpt>
      <trkpt lat="50.13261" lon="4.08354">
        <ele>213.8</ele>
        <time>2024-04-29T05:56:26Z</time>
      </trkpt>
      <trkpt lat="50.13267" lon="4.08355">
        <ele>214</ele>
        <time>2024-04-29T05:56:27Z</time>
      </trkpt>
      <trkpt lat="50.13274" lon="4.08357">
        <ele>214.4</ele>
        <time>2024-04-29T05:56:28Z</time>
      </trkpt>
      <trkpt lat="50.1328" lon="4.08359">
        <ele>214.6</ele>
        <time>2024-04-29T05:56:29Z</time>
      </trkpt>
      <trkpt lat="50.13287" lon="4.08361">
        <ele>215.2</ele>
        <time>2024-04-29T05:56:30Z</time>
      </trkpt>
      <trkpt lat="50.13293" lon="4.08363">
        <ele>215.2</ele>
        <time>2024-04-29T05:56:31Z</time>
      </trkpt>
      <trkpt lat="50.133" lon="4.08364">
        <ele>215.6</ele>
        <time>2024-04-29T05:56:32Z</time>
      </trkpt>
      <trkpt lat="50.13306" lon="4.08366">
        <ele>215.8</ele>
        <time>2024-04-29T05:56:33Z</time>
      </trkpt>
      <trkpt lat="50.13313" lon="4.08368">
        <ele>216.2</ele>
        <time>2024-04-29T05:56:34Z</time>
      </trkpt>
      <trkpt lat="50.1332" lon="4.08369">
        <ele>216.4</ele>
        <time>2024-04-29T05:56:35Z</time>
      </trkpt>
      <trkpt lat="50.13326" lon="4.0837">
        <ele>216.4</ele>
        <time>2024-04-29T05:56:36Z</time>
      </trkpt>
      <trkpt lat="50.13333" lon="4.08371">
        <ele>216.6</ele>
        <time>2024-04-29T05:56:37Z</time>
      </trkpt>
      <trkpt lat="50.1334" lon="4.08372">
        <ele>217</ele>
        <time>2024-04-29T05:56:38Z</time>
      </trkpt>
      <trkpt lat="50.13347" lon="4.08372">
        <ele>216.8</ele>
        <time>2024-04-29T05:56:39Z</time>
      </trkpt>
      <trkpt lat="50.13354" lon="4.08372">
        <ele>217</ele>
        <time>2024-04-29T05:56:40Z</time>
      </trkpt>
      <trkpt lat="50.13361" lon="4.08371">
        <ele>217</ele>
        <time>2024-04-29T05:56:41Z</time>
      </trkpt>
      <trkpt lat="50.13368" lon="4.0837">
        <ele>217</ele>
        <time>2024-04-29T05:56:42Z</time>
      </trkpt>
      <trkpt lat="50.13375" lon="4.08369">
        <ele>217.2</ele>
        <time>2024-04-29T05:56:43Z</time>
      </trkpt>
      <trkpt lat="50.13382" lon="4.08367">
        <ele>217</ele>
        <time>2024-04-29T05:56:44Z</time>
      </trkpt>
      <trkpt lat="50.13389" lon="4.08365">
        <ele>217</ele>
        <time>2024-04-29T05:56:45Z</time>
      </trkpt>
      <trkpt lat="50.13397" lon="4.08362">
        <ele>217</ele>
        <time>2024-04-29T05:56:46Z</time>
      </trkpt>
      <trkpt lat="50.13404" lon="4.0836">
        <ele>217</ele>
        <time>2024-04-29T05:56:47Z</time>
      </trkpt>
      <trkpt lat="50.13411" lon="4.08357">
        <ele>217</ele>
        <time>2024-04-29T05:56:48Z</time>
      </trkpt>
      <trkpt lat="50.13418" lon="4.08355">
        <ele>217</ele>
        <time>2024-04-29T05:56:49Z</time>
      </trkpt>
      <trkpt lat="50.13426" lon="4.08352">
        <ele>217</ele>
        <time>2024-04-29T05:56:50Z</time>
      </trkpt>
      <trkpt lat="50.13433" lon="4.0835">
        <ele>217</ele>
        <time>2024-04-29T05:56:51Z</time>
      </trkpt>
      <trkpt lat="50.1344" lon="4.08347">
        <ele>216.6</ele>
        <time>2024-04-29T05:56:52Z</time>
      </trkpt>
      <trkpt lat="50.13446" lon="4.08345">
        <ele>216.4</ele>
        <time>2024-04-29T05:56:53Z</time>
      </trkpt>
      <trkpt lat="50.13453" lon="4.08343">
        <ele>216.4</ele>
        <time>2024-04-29T05:56:54Z</time>
      </trkpt>
      <trkpt lat="50.13459" lon="4.08341">
        <ele>216.4</ele>
        <time>2024-04-29T05:56:55Z</time>
      </trkpt>
      <trkpt lat="50.13466" lon="4.08338">
        <ele>216.2</ele>
        <time>2024-04-29T05:56:56Z</time>
      </trkpt>
      <trkpt lat="50.13472" lon="4.08336">
        <ele>216.2</ele>
        <time>2024-04-29T05:56:57Z</time>
      </trkpt>
      <trkpt lat="50.13478" lon="4.08334">
        <ele>216.2</ele>
        <time>2024-04-29T05:56:58Z</time>
      </trkpt>
      <trkpt lat="50.13485" lon="4.08332">
        <ele>216.2</ele>
        <time>2024-04-29T05:56:59Z</time>
      </trkpt>
      <trkpt lat="50.13491" lon="4.0833">
        <ele>216.2</ele>
        <time>2024-04-29T05:57:00Z</time>
      </trkpt>
      <trkpt lat="50.13498" lon="4.08328">
        <ele>216.2</ele>
        <time>2024-04-29T05:57:01Z</time>
      </trkpt>
      <trkpt lat="50.13504" lon="4.08326">
        <ele>216.4</ele>
        <time>2024-04-29T05:57:02Z</time>
      </trkpt>
      <trkpt lat="50.1351" lon="4.08324">
        <ele>216.4</ele>
        <time>2024-04-29T05:57:03Z</time>
      </trkpt>
      <trkpt lat="50.13516" lon="4.08322">
        <ele>216.4</ele>
        <time>2024-04-29T05:57:04Z</time>
      </trkpt>
      <trkpt lat="50.13522" lon="4.0832">
        <ele>216.4</ele>
        <time>2024-04-29T05:57:05Z</time>
      </trkpt>
      <trkpt lat="50.13527" lon="4.08319">
        <ele>216.4</ele>
        <time>2024-04-29T05:57:06Z</time>
      </trkpt>
      <trkpt lat="50.13533" lon="4.08318">
        <ele>216.6</ele>
        <time>2024-04-29T05:57:07Z</time>
      </trkpt>
      <trkpt lat="50.13538" lon="4.08317">
        <ele>217.2</ele>
        <time>2024-04-29T05:57:08Z</time>
      </trkpt>
      <trkpt lat="50.13544" lon="4.08316">
        <ele>217.4</ele>
        <time>2024-04-29T05:57:09Z</time>
      </trkpt>
      <trkpt lat="50.13549" lon="4.08315">
        <ele>217.8</ele>
        <time>2024-04-29T05:57:10Z</time>
      </trkpt>
      <trkpt lat="50.13555" lon="4.08314">
        <ele>218.2</ele>
        <time>2024-04-29T05:57:11Z</time>
      </trkpt>
      <trkpt lat="50.1356" lon="4.08313">
        <ele>218.8</ele>
        <time>2024-04-29T05:57:12Z</time>
      </trkpt>
      <trkpt lat="50.13566" lon="4.08311">
        <ele>219</ele>
        <time>2024-04-29T05:57:13Z</time>
      </trkpt>
      <trkpt lat="50.13572" lon="4.0831">
        <ele>219.2</ele>
        <time>2024-04-29T05:57:14Z</time>
      </trkpt>
      <trkpt lat="50.13577" lon="4.0831">
        <ele>219.4</ele>
        <time>2024-04-29T05:57:15Z</time>
      </trkpt>
      <trkpt lat="50.13583" lon="4.08309">
        <ele>220</ele>
        <time>2024-04-29T05:57:16Z</time>
      </trkpt>
      <trkpt lat="50.13588" lon="4.08308">
        <ele>220.4</ele>
        <time>2024-04-29T05:57:17Z</time>
      </trkpt>
      <trkpt lat="50.13594" lon="4.08307">
        <ele>220.8</ele>
        <time>2024-04-29T05:57:18Z</time>
      </trkpt>
      <trkpt lat="50.136" lon="4.08306">
        <ele>221.2</ele>
        <time>2024-04-29T05:57:19Z</time>
      </trkpt>
      <trkpt lat="50.13605" lon="4.08304">
        <ele>221.4</ele>
        <time>2024-04-29T05:57:20Z</time>
      </trkpt>
      <trkpt lat="50.13611" lon="4.08303">
        <ele>221.6</ele>
        <time>2024-04-29T05:57:21Z</time>
      </trkpt>
      <trkpt lat="50.13616" lon="4.08303">
        <ele>222</ele>
        <time>2024-04-29T05:57:22Z</time>
      </trkpt>
      <trkpt lat="50.13621" lon="4.08304">
        <ele>222</ele>
        <time>2024-04-29T05:57:23Z</time>
      </trkpt>
      <trkpt lat="50.13625" lon="4.08306">
        <ele>222.2</ele>
        <time>2024-04-29T05:57:24Z</time>
      </trkpt>
      <trkpt lat="50.13629" lon="4.0831">
        <ele>222.6</ele>
        <time>2024-04-29T05:57:25Z</time>
      </trkpt>
      <trkpt lat="50.13632" lon="4.08316">
        <ele>222.6</ele>
        <time>2024-04-29T05:57:26Z</time>
      </trkpt>
      <trkpt lat="50.13635" lon="4.08323">
        <ele>222.6</ele>
        <time>2024-04-29T05:57:27Z</time>
      </trkpt>
      <trkpt lat="50.13636" lon="4.08331">
        <ele>222.8</ele>
        <time>2024-04-29T05:57:28Z</time>
      </trkpt>
      <trkpt lat="50.13637" lon="4.08339">
        <ele>222.8</ele>
        <time>2024-04-29T05:57:29Z</time>
      </trkpt>
      <trkpt lat="50.13639" lon="4.08347">
        <ele>223</ele>
        <time>2024-04-29T05:57:30Z</time>
      </trkpt>
      <trkpt lat="50.13639" lon="4.08356">
        <ele>223</ele>
        <time>2024-04-29T05:57:31Z</time>
      </trkpt>
      <trkpt lat="50.13638" lon="4.08365">
        <ele>222.8</ele>
        <time>2024-04-29T05:57:32Z</time>
      </trkpt>
      <trkpt lat="50.13635" lon="4.08372">
        <ele>222.8</ele>
        <time>2024-04-29T05:57:33Z</time>
      </trkpt>
      <trkpt lat="50.13632" lon="4.0838">
        <ele>223</ele>
        <time>2024-04-29T05:57:34Z</time>
      </trkpt>
      <trkpt lat="50.1363" lon="4.08389">
        <ele>223</ele>
        <time>2024-04-29T05:57:35Z</time>
      </trkpt>
      <trkpt lat="50.13629" lon="4.08398">
        <ele>223</ele>
        <time>2024-04-29T05:57:36Z</time>
      </trkpt>
      <trkpt lat="50.13629" lon="4.08407">
        <ele>223</ele>
        <time>2024-04-29T05:57:37Z</time>
      </trkpt>
      <trkpt lat="50.1363" lon="4.08417">
        <ele>223</ele>
        <time>2024-04-29T05:57:38Z</time>
      </trkpt>
      <trkpt lat="50.13631" lon="4.08426">
        <ele>222.8</ele>
        <time>2024-04-29T05:57:39Z</time>
      </trkpt>
      <trkpt lat="50.13631" lon="4.08436">
        <ele>222.6</ele>
        <time>2024-04-29T05:57:40Z</time>
      </trkpt>
      <trkpt lat="50.13629" lon="4.08446">
        <ele>222.4</ele>
        <time>2024-04-29T05:57:41Z</time>
      </trkpt>
      <trkpt lat="50.13624" lon="4.08455">
        <ele>222.4</ele>
        <time>2024-04-29T05:57:42Z</time>
      </trkpt>
      <trkpt lat="50.13619" lon="4.08464">
        <ele>222.2</ele>
        <time>2024-04-29T05:57:43Z</time>
      </trkpt>
      <trkpt lat="50.13615" lon="4.08474">
        <ele>222</ele>
        <time>2024-04-29T05:57:44Z</time>
      </trkpt>
      <trkpt lat="50.1361" lon="4.08484">
        <ele>221.4</ele>
        <time>2024-04-29T05:57:45Z</time>
      </trkpt>
      <trkpt lat="50.13605" lon="4.08493">
        <ele>221.2</ele>
        <time>2024-04-29T05:57:46Z</time>
      </trkpt>
      <trkpt lat="50.136" lon="4.08502">
        <ele>221.2</ele>
        <time>2024-04-29T05:57:47Z</time>
      </trkpt>
      <trkpt lat="50.13595" lon="4.08511">
        <ele>220.8</ele>
        <time>2024-04-29T05:57:48Z</time>
      </trkpt>
      <trkpt lat="50.1359" lon="4.0852">
        <ele>220.8</ele>
        <time>2024-04-29T05:57:49Z</time>
      </trkpt>
      <trkpt lat="50.13586" lon="4.08529">
        <ele>220.4</ele>
        <time>2024-04-29T05:57:50Z</time>
      </trkpt>
      <trkpt lat="50.13581" lon="4.08538">
        <ele>220</ele>
        <time>2024-04-29T05:57:51Z</time>
      </trkpt>
      <trkpt lat="50.13577" lon="4.08546">
        <ele>219</ele>
        <time>2024-04-29T05:57:52Z</time>
      </trkpt>
      <trkpt lat="50.13573" lon="4.08554">
        <ele>218.2</ele>
        <time>2024-04-29T05:57:53Z</time>
      </trkpt>
      <trkpt lat="50.1357" lon="4.08561">
        <ele>217.4</ele>
        <time>2024-04-29T05:57:54Z</time>
      </trkpt>
      <trkpt lat="50.13566" lon="4.08567">
        <ele>216.6</ele>
        <time>2024-04-29T05:57:55Z</time>
      </trkpt>
      <trkpt lat="50.13562" lon="4.08566">
        <ele>216</ele>
        <time>2024-04-29T05:57:56Z</time>
      </trkpt>
      <trkpt lat="50.13559" lon="4.08563">
        <ele>215.2</ele>
        <time>2024-04-29T05:57:57Z</time>
      </trkpt>
      <trkpt lat="50.13557" lon="4.08556">
        <ele>214.8</ele>
        <time>2024-04-29T05:57:58Z</time>
      </trkpt>
      <trkpt lat="50.13556" lon="4.0855">
        <ele>214</ele>
        <time>2024-04-29T05:57:59Z</time>
      </trkpt>
      <trkpt lat="50.13555" lon="4.08543">
        <ele>213.8</ele>
        <time>2024-04-29T05:58:00Z</time>
      </trkpt>
      <trkpt lat="50.13554" lon="4.08536">
        <ele>213.2</ele>
        <time>2024-04-29T05:58:01Z</time>
      </trkpt>
      <trkpt lat="50.13553" lon="4.08528">
        <ele>213.2</ele>
        <time>2024-04-29T05:58:02Z</time>
      </trkpt>
      <trkpt lat="50.13552" lon="4.08521">
        <ele>213</ele>
        <time>2024-04-29T05:58:03Z</time>
      </trkpt>
      <trkpt lat="50.13551" lon="4.08514">
        <ele>213</ele>
        <time>2024-04-29T05:58:04Z</time>
      </trkpt>
      <trkpt lat="50.1355" lon="4.08506">
        <ele>213</ele>
        <time>2024-04-29T05:58:05Z</time>
      </trkpt>
      <trkpt lat="50.13549" lon="4.08499">
        <ele>213</ele>
        <time>2024-04-29T05:58:06Z</time>
      </trkpt>
      <trkpt lat="50.13548" lon="4.08492">
        <ele>213</ele>
        <time>2024-04-29T05:58:07Z</time>
      </trkpt>
      <trkpt lat="50.13546" lon="4.08485">
        <ele>213</ele>
        <time>2024-04-29T05:58:08Z</time>
      </trkpt>
      <trkpt lat="50.13544" lon="4.08479">
        <ele>213</ele>
        <time>2024-04-29T05:58:09Z</time>
      </trkpt>
      <trkpt lat="50.13542" lon="4.08474">
        <ele>213</ele>
        <time>2024-04-29T05:58:10Z</time>
      </trkpt>
      <trkpt lat="50.13539" lon="4.0847">
        <ele>213</ele>
        <time>2024-04-29T05:58:11Z</time>
      </trkpt>
      <trkpt lat="50.13536" lon="4.08467">
        <ele>213.2</ele>
        <time>2024-04-29T05:58:12Z</time>
      </trkpt>
      <trkpt lat="50.13534" lon="4.08464">
        <ele>213.2</ele>
        <time>2024-04-29T05:58:13Z</time>
      </trkpt>
      <trkpt lat="50.13532" lon="4.08462">
        <ele>213.4</ele>
        <time>2024-04-29T05:58:14Z</time>
      </trkpt>
      <trkpt lat="50.13529" lon="4.08461">
        <ele>213.6</ele>
        <time>2024-04-29T05:58:15Z</time>
      </trkpt>
      <trkpt lat="50.13527" lon="4.0846">
        <ele>214</ele>
        <time>2024-04-29T05:58:16Z</time>
      </trkpt>
      <trkpt lat="50.13526" lon="4.08458">
        <ele>214.4</ele>
        <time>2024-04-29T05:58:17Z</time>
      </trkpt>
      <trkpt lat="50.13525" lon="4.08456">
        <ele>214.6</ele>
        <time>2024-04-29T05:58:18Z</time>
      </trkpt>
      <trkpt lat="50.13525" lon="4.08456">
        <ele>215</ele>
        <time>2024-04-29T05:58:19Z</time>
      </trkpt>
      <trkpt lat="50.13525" lon="4.08455">
        <ele>215.8</ele>
        <time>2024-04-29T05:58:20Z</time>
      </trkpt>
      <trkpt lat="50.13525" lon="4.08455">
        <ele>216.2</ele>
        <time>2024-04-29T05:58:21Z</time>
      </trkpt>
      <trkpt lat="50.13551" lon="4.08532">
        <ele>222.8</ele>
        <time>2024-04-29T14:25:35Z</time>
      </trkpt>
      <trkpt lat="50.13552" lon="4.08542">
        <ele>216.4</ele>
        <time>2024-04-29T14:25:36Z</time>
      </trkpt>
      <trkpt lat="50.13553" lon="4.08551">
        <ele>216.2</ele>
        <time>2024-04-29T14:25:37Z</time>
      </trkpt>
      <trkpt lat="50.13554" lon="4.08559">
        <ele>215.6</ele>
        <time>2024-04-29T14:25:38Z</time>
      </trkpt>
      <trkpt lat="50.13555" lon="4.08565">
        <ele>215.4</ele>
        <time>2024-04-29T14:25:39Z</time>
      </trkpt>
      <trkpt lat="50.13556" lon="4.0857">
        <ele>215</ele>
        <time>2024-04-29T14:25:40Z</time>
      </trkpt>
      <trkpt lat="50.13557" lon="4.08571">
        <ele>214.6</ele>
        <time>2024-04-29T14:25:41Z</time>
      </trkpt>
      <trkpt lat="50.13559" lon="4.0857">
        <ele>214.2</ele>
        <time>2024-04-29T14:25:42Z</time>
      </trkpt>
      <trkpt lat="50.13562" lon="4.08566">
        <ele>213.8</ele>
        <time>2024-04-29T14:25:43Z</time>
      </trkpt>
      <trkpt lat="50.13564" lon="4.08562">
        <ele>213.8</ele>
        <time>2024-04-29T14:25:44Z</time>
      </trkpt>
      <trkpt lat="50.13565" lon="4.08558">
        <ele>213.4</ele>
        <time>2024-04-29T14:25:45Z</time>
      </trkpt>
      <trkpt lat="50.13568" lon="4.08554">
        <ele>213.4</ele>
        <time>2024-04-29T14:25:46Z</time>
      </trkpt>
      <trkpt lat="50.13569" lon="4.0855">
        <ele>213.2</ele>
        <time>2024-04-29T14:25:47Z</time>
      </trkpt>
      <trkpt lat="50.13571" lon="4.08545">
        <ele>213.2</ele>
        <time>2024-04-29T14:25:48Z</time>
      </trkpt>
      <trkpt lat="50.13573" lon="4.08541">
        <ele>213.2</ele>
        <time>2024-04-29T14:25:49Z</time>
      </trkpt>
      <trkpt lat="50.13577" lon="4.08537">
        <ele>213.2</ele>
        <time>2024-04-29T14:25:50Z</time>
      </trkpt>
      <trkpt lat="50.13581" lon="4.08534">
        <ele>213.2</ele>
        <time>2024-04-29T14:25:51Z</time>
      </trkpt>
      <trkpt lat="50.13584" lon="4.0853">
        <ele>213.2</ele>
        <time>2024-04-29T14:25:52Z</time>
      </trkpt>
      <trkpt lat="50.13588" lon="4.08526">
        <ele>213.2</ele>
        <time>2024-04-29T14:25:53Z</time>
      </trkpt>
      <trkpt lat="50.13591" lon="4.08522">
        <ele>213.2</ele>
        <time>2024-04-29T14:25:54Z</time>
      </trkpt>
      <trkpt lat="50.13594" lon="4.08519">
        <ele>213.4</ele>
        <time>2024-04-29T14:25:55Z</time>
      </trkpt>
      <trkpt lat="50.13597" lon="4.08515">
        <ele>213.6</ele>
        <time>2024-04-29T14:25:56Z</time>
      </trkpt>
      <trkpt lat="50.13599" lon="4.08511">
        <ele>213.8</ele>
        <time>2024-04-29T14:25:57Z</time>
      </trkpt>
      <trkpt lat="50.13601" lon="4.08507">
        <ele>214.2</ele>
        <time>2024-04-29T14:25:58Z</time>
      </trkpt>
      <trkpt lat="50.13603" lon="4.08503">
        <ele>214.4</ele>
        <time>2024-04-29T14:25:59Z</time>
      </trkpt>
      <trkpt lat="50.13605" lon="4.08499">
        <ele>214.6</ele>
        <time>2024-04-29T14:26:00Z</time>
      </trkpt>
      <trkpt lat="50.13607" lon="4.08495">
        <ele>214.8</ele>
        <time>2024-04-29T14:26:01Z</time>
      </trkpt>
      <trkpt lat="50.13609" lon="4.08492">
        <ele>215</ele>
        <time>2024-04-29T14:26:02Z</time>
      </trkpt>
      <trkpt lat="50.13611" lon="4.08488">
        <ele>215.2</ele>
        <time>2024-04-29T14:26:03Z</time>
      </trkpt>
      <trkpt lat="50.13613" lon="4.08484">
        <ele>215.8</ele>
        <time>2024-04-29T14:26:04Z</time>
      </trkpt>
      <trkpt lat="50.13615" lon="4.0848">
        <ele>215.8</ele>
        <time>2024-04-29T14:26:05Z</time>
      </trkpt>
      <trkpt lat="50.13617" lon="4.08476">
        <ele>216</ele>
        <time>2024-04-29T14:26:06Z</time>
      </trkpt>
      <trkpt lat="50.13619" lon="4.08473">
        <ele>216.4</ele>
        <time>2024-04-29T14:26:07Z</time>
      </trkpt>
      <trkpt lat="50.13621" lon="4.08469">
        <ele>216.8</ele>
        <time>2024-04-29T14:26:08Z</time>
      </trkpt>
      <trkpt lat="50.13623" lon="4.08466">
        <ele>217</ele>
        <time>2024-04-29T14:26:09Z</time>
      </trkpt>
      <trkpt lat="50.13625" lon="4.08461">
        <ele>217.6</ele>
        <time>2024-04-29T14:26:10Z</time>
      </trkpt>
      <trkpt lat="50.13626" lon="4.08455">
        <ele>218.2</ele>
        <time>2024-04-29T14:26:11Z</time>
      </trkpt>
      <trkpt lat="50.13627" lon="4.08449">
        <ele>218.4</ele>
        <time>2024-04-29T14:26:12Z</time>
      </trkpt>
      <trkpt lat="50.13628" lon="4.08444">
        <ele>218.8</ele>
        <time>2024-04-29T14:26:13Z</time>
      </trkpt>
      <trkpt lat="50.13629" lon="4.08439">
        <ele>219.2</ele>
        <time>2024-04-29T14:26:14Z</time>
      </trkpt>
      <trkpt lat="50.1363" lon="4.08435">
        <ele>219.2</ele>
        <time>2024-04-29T14:26:15Z</time>
      </trkpt>
      <trkpt lat="50.13631" lon="4.08429">
        <ele>219.6</ele>
        <time>2024-04-29T14:26:16Z</time>
      </trkpt>
      <trkpt lat="50.13632" lon="4.08424">
        <ele>220</ele>
        <time>2024-04-29T14:26:17Z</time>
      </trkpt>
      <trkpt lat="50.13633" lon="4.08419">
        <ele>220.4</ele>
        <time>2024-04-29T14:26:18Z</time>
      </trkpt>
      <trkpt lat="50.13634" lon="4.08414">
        <ele>220.8</ele>
        <time>2024-04-29T14:26:19Z</time>
      </trkpt>
      <trkpt lat="50.13637" lon="4.0841">
        <ele>221.2</ele>
        <time>2024-04-29T14:26:20Z</time>
      </trkpt>
      <trkpt lat="50.13639" lon="4.08408">
        <ele>221.4</ele>
        <time>2024-04-29T14:26:21Z</time>
      </trkpt>
      <trkpt lat="50.13643" lon="4.08405">
        <ele>221.6</ele>
        <time>2024-04-29T14:26:22Z</time>
      </trkpt>
      <trkpt lat="50.13646" lon="4.08402">
        <ele>221.8</ele>
        <time>2024-04-29T14:26:23Z</time>
      </trkpt>
      <trkpt lat="50.13649" lon="4.08398">
        <ele>221.8</ele>
        <time>2024-04-29T14:26:24Z</time>
      </trkpt>
      <trkpt lat="50.13652" lon="4.08393">
        <ele>222</ele>
        <time>2024-04-29T14:26:25Z</time>
      </trkpt>
      <trkpt lat="50.13654" lon="4.08387">
        <ele>222</ele>
        <time>2024-04-29T14:26:26Z</time>
      </trkpt>
      <trkpt lat="50.13655" lon="4.0838">
        <ele>222</ele>
        <time>2024-04-29T14:26:27Z</time>
      </trkpt>
      <trkpt lat="50.13655" lon="4.08373">
        <ele>222.2</ele>
        <time>2024-04-29T14:26:28Z</time>
      </trkpt>
      <trkpt lat="50.13654" lon="4.08366">
        <ele>222.4</ele>
        <time>2024-04-29T14:26:29Z</time>
      </trkpt>
      <trkpt lat="50.13651" lon="4.08361">
        <ele>222.6</ele>
        <time>2024-04-29T14:26:30Z</time>
      </trkpt>
      <trkpt lat="50.13648" lon="4.08358">
        <ele>222.6</ele>
        <time>2024-04-29T14:26:31Z</time>
      </trkpt>
      <trkpt lat="50.13644" lon="4.08355">
        <ele>222.6</ele>
        <time>2024-04-29T14:26:32Z</time>
      </trkpt>
      <trkpt lat="50.13641" lon="4.08352">
        <ele>222.6</ele>
        <time>2024-04-29T14:26:33Z</time>
      </trkpt>
      <trkpt lat="50.13639" lon="4.08347">
        <ele>222.8</ele>
        <time>2024-04-29T14:26:34Z</time>
      </trkpt>
      <trkpt lat="50.13637" lon="4.08341">
        <ele>222.6</ele>
        <time>2024-04-29T14:26:35Z</time>
      </trkpt>
      <trkpt lat="50.13636" lon="4.08334">
        <ele>222.6</ele>
        <time>2024-04-29T14:26:36Z</time>
      </trkpt>
      <trkpt lat="50.13636" lon="4.08327">
        <ele>222.6</ele>
        <time>2024-04-29T14:26:37Z</time>
      </trkpt>
      <trkpt lat="50.13636" lon="4.0832">
        <ele>222.8</ele>
        <time>2024-04-29T14:26:38Z</time>
      </trkpt>
      <trkpt lat="50.13635" lon="4.08314">
        <ele>222.8</ele>
        <time>2024-04-29T14:26:39Z</time>
      </trkpt>
      <trkpt lat="50.13635" lon="4.08308">
        <ele>222.8</ele>
        <time>2024-04-29T14:26:40Z</time>
      </trkpt>
      <trkpt lat="50.13635" lon="4.08302">
        <ele>222.8</ele>
        <time>2024-04-29T14:26:41Z</time>
      </trkpt>
      <trkpt lat="50.13635" lon="4.08297">
        <ele>223</ele>
        <time>2024-04-29T14:26:42Z</time>
      </trkpt>
      <trkpt lat="50.13633" lon="4.08293">
        <ele>223</ele>
        <time>2024-04-29T14:26:43Z</time>
      </trkpt>
      <trkpt lat="50.1363" lon="4.08289">
        <ele>223.2</ele>
        <time>2024-04-29T14:26:44Z</time>
      </trkpt>
      <trkpt lat="50.13626" lon="4.08286">
        <ele>223.4</ele>
        <time>2024-04-29T14:26:45Z</time>
      </trkpt>
      <trkpt lat="50.13622" lon="4.08284">
        <ele>223.4</ele>
        <time>2024-04-29T14:26:46Z</time>
      </trkpt>
      <trkpt lat="50.13617" lon="4.08283">
        <ele>223.4</ele>
        <time>2024-04-29T14:26:47Z</time>
      </trkpt>
      <trkpt lat="50.13611" lon="4.08283">
        <ele>223.2</ele>
        <time>2024-04-29T14:26:48Z</time>
      </trkpt>
      <trkpt lat="50.13606" lon="4.08284">
        <ele>223.2</ele>
        <time>2024-04-29T14:26:49Z</time>
      </trkpt>
      <trkpt lat="50.13601" lon="4.08284">
        <ele>223.4</ele>
        <time>2024-04-29T14:26:50Z</time>
      </trkpt>
      <trkpt lat="50.13596" lon="4.08284">
        <ele>223.4</ele>
        <time>2024-04-29T14:26:51Z</time>
      </trkpt>
      <trkpt lat="50.1359" lon="4.08285">
        <ele>223.2</ele>
        <time>2024-04-29T14:26:52Z</time>
      </trkpt>
      <trkpt lat="50.13585" lon="4.08287">
        <ele>223.2</ele>
        <time>2024-04-29T14:26:53Z</time>
      </trkpt>
      <trkpt lat="50.13579" lon="4.08288">
        <ele>223.4</ele>
        <time>2024-04-29T14:26:54Z</time>
      </trkpt>
      <trkpt lat="50.13573" lon="4.0829">
        <ele>223.4</ele>
        <time>2024-04-29T14:26:55Z</time>
      </trkpt>
      <trkpt lat="50.13567" lon="4.08291">
        <ele>223.4</ele>
        <time>2024-04-29T14:26:56Z</time>
      </trkpt>
      <trkpt lat="50.13562" lon="4.08293">
        <ele>223.4</ele>
        <time>2024-04-29T14:26:57Z</time>
      </trkpt>
      <trkpt lat="50.13556" lon="4.08295">
        <ele>223.2</ele>
        <time>2024-04-29T14:26:58Z</time>
      </trkpt>
      <trkpt lat="50.13549" lon="4.08297">
        <ele>223</ele>
        <time>2024-04-29T14:26:59Z</time>
      </trkpt>
      <trkpt lat="50.13543" lon="4.08299">
        <ele>223</ele>
        <time>2024-04-29T14:27:00Z</time>
      </trkpt>
      <trkpt lat="50.13536" lon="4.08302">
        <ele>222.8</ele>
        <time>2024-04-29T14:27:01Z</time>
      </trkpt>
      <trkpt lat="50.13529" lon="4.08305">
        <ele>222.8</ele>
        <time>2024-04-29T14:27:02Z</time>
      </trkpt>
      <trkpt lat="50.13522" lon="4.08307">
        <ele>222.6</ele>
        <time>2024-04-29T14:27:03Z</time>
      </trkpt>
      <trkpt lat="50.13515" lon="4.08309">
        <ele>222.4</ele>
        <time>2024-04-29T14:27:04Z</time>
      </trkpt>
      <trkpt lat="50.13508" lon="4.08311">
        <ele>221.8</ele>
        <time>2024-04-29T14:27:05Z</time>
      </trkpt>
      <trkpt lat="50.135" lon="4.08314">
        <ele>221.4</ele>
        <time>2024-04-29T14:27:06Z</time>
      </trkpt>
      <trkpt lat="50.13493" lon="4.08316">
        <ele>221.2</ele>
        <time>2024-04-29T14:27:07Z</time>
      </trkpt>
      <trkpt lat="50.13485" lon="4.08319">
        <ele>220.8</ele>
        <time>2024-04-29T14:27:08Z</time>
      </trkpt>
      <trkpt lat="50.13478" lon="4.08321">
        <ele>220.4</ele>
        <time>2024-04-29T14:27:09Z</time>
      </trkpt>
      <trkpt lat="50.13471" lon="4.08324">
        <ele>219.8</ele>
        <time>2024-04-29T14:27:10Z</time>
      </trkpt>
      <trkpt lat="50.13463" lon="4.08326">
        <ele>219.2</ele>
        <time>2024-04-29T14:27:11Z</time>
      </trkpt>
      <trkpt lat="50.13456" lon="4.08329">
        <ele>219.2</ele>
        <time>2024-04-29T14:27:12Z</time>
      </trkpt>
      <trkpt lat="50.13449" lon="4.08331">
        <ele>218.6</ele>
        <time>2024-04-29T14:27:13Z</time>
      </trkpt>
      <trkpt lat="50.13442" lon="4.08334">
        <ele>218</ele>
        <time>2024-04-29T14:27:14Z</time>
      </trkpt>
      <trkpt lat="50.13435" lon="4.08336">
        <ele>217.6</ele>
        <time>2024-04-29T14:27:15Z</time>
      </trkpt>
      <trkpt lat="50.13428" lon="4.08339">
        <ele>217.4</ele>
        <time>2024-04-29T14:27:16Z</time>
      </trkpt>
      <trkpt lat="50.13421" lon="4.08341">
        <ele>217.2</ele>
        <time>2024-04-29T14:27:17Z</time>
      </trkpt>
      <trkpt lat="50.13414" lon="4.08344">
        <ele>217</ele>
        <time>2024-04-29T14:27:18Z</time>
      </trkpt>
      <trkpt lat="50.13408" lon="4.08346">
        <ele>217.2</ele>
        <time>2024-04-29T14:27:19Z</time>
      </trkpt>
      <trkpt lat="50.13401" lon="4.08348">
        <ele>217</ele>
        <time>2024-04-29T14:27:20Z</time>
      </trkpt>
      <trkpt lat="50.13395" lon="4.0835">
        <ele>217</ele>
        <time>2024-04-29T14:27:21Z</time>
      </trkpt>
      <trkpt lat="50.13388" lon="4.08352">
        <ele>217.2</ele>
        <time>2024-04-29T14:27:22Z</time>
      </trkpt>
      <trkpt lat="50.13382" lon="4.08354">
        <ele>217</ele>
        <time>2024-04-29T14:27:23Z</time>
      </trkpt>
      <trkpt lat="50.13376" lon="4.08356">
        <ele>217</ele>
        <time>2024-04-29T14:27:24Z</time>
      </trkpt>
      <trkpt lat="50.13371" lon="4.08357">
        <ele>217.2</ele>
        <time>2024-04-29T14:27:25Z</time>
      </trkpt>
      <trkpt lat="50.13365" lon="4.08357">
        <ele>217</ele>
        <time>2024-04-29T14:27:26Z</time>
      </trkpt>
      <trkpt lat="50.13359" lon="4.08358">
        <ele>217.2</ele>
        <time>2024-04-29T14:27:27Z</time>
      </trkpt>
      <trkpt lat="50.13353" lon="4.08358">
        <ele>217.2</ele>
        <time>2024-04-29T14:27:28Z</time>
      </trkpt>
      <trkpt lat="50.13348" lon="4.08358">
        <ele>217.4</ele>
        <time>2024-04-29T14:27:29Z</time>
      </trkpt>
      <trkpt lat="50.13342" lon="4.08358">
        <ele>217.4</ele>
        <time>2024-04-29T14:27:30Z</time>
      </trkpt>
      <trkpt lat="50.13336" lon="4.08358">
        <ele>217.8</ele>
        <time>2024-04-29T14:27:31Z</time>
      </trkpt>
      <trkpt lat="50.1333" lon="4.08357">
        <ele>218.2</ele>
        <time>2024-04-29T14:27:32Z</time>
      </trkpt>
      <trkpt lat="50.13323" lon="4.08356">
        <ele>218.4</ele>
        <time>2024-04-29T14:27:33Z</time>
      </trkpt>
      <trkpt lat="50.13317" lon="4.08354">
        <ele>218.4</ele>
        <time>2024-04-29T14:27:34Z</time>
      </trkpt>
      <trkpt lat="50.13311" lon="4.08353">
        <ele>218.4</ele>
        <time>2024-04-29T14:27:35Z</time>
      </trkpt>
      <trkpt lat="50.13304" lon="4.08351">
        <ele>218.6</ele>
        <time>2024-04-29T14:27:36Z</time>
      </trkpt>
      <trkpt lat="50.13298" lon="4.08349">
        <ele>218.6</ele>
        <time>2024-04-29T14:27:37Z</time>
      </trkpt>
      <trkpt lat="50.13291" lon="4.08347">
        <ele>218.6</ele>
        <time>2024-04-29T14:27:38Z</time>
      </trkpt>
      <trkpt lat="50.13285" lon="4.08346">
        <ele>218.6</ele>
        <time>2024-04-29T14:27:39Z</time>
      </trkpt>
      <trkpt lat="50.13278" lon="4.08344">
        <ele>218.8</ele>
        <time>2024-04-29T14:27:40Z</time>
      </trkpt>
      <trkpt lat="50.13271" lon="4.08342">
        <ele>218.6</ele>
        <time>2024-04-29T14:27:41Z</time>
      </trkpt>
      <trkpt lat="50.13264" lon="4.0834">
        <ele>218.6</ele>
        <time>2024-04-29T14:27:42Z</time>
      </trkpt>
      <trkpt lat="50.13257" lon="4.08338">
        <ele>218.6</ele>
        <time>2024-04-29T14:27:43Z</time>
      </trkpt>
      <trkpt lat="50.1325" lon="4.08336">
        <ele>218.4</ele>
        <time>2024-04-29T14:27:44Z</time>
      </trkpt>
      <trkpt lat="50.13242" lon="4.08334">
        <ele>218.2</ele>
        <time>2024-04-29T14:27:45Z</time>
      </trkpt>
      <trkpt lat="50.13235" lon="4.08332">
        <ele>218.2</ele>
        <time>2024-04-29T14:27:46Z</time>
      </trkpt>
      <trkpt lat="50.13228" lon="4.0833">
        <ele>218</ele>
        <time>2024-04-29T14:27:47Z</time>
      </trkpt>
      <trkpt lat="50.1322" lon="4.08328">
        <ele>217.8</ele>
        <time>2024-04-29T14:27:48Z</time>
      </trkpt>
      <trkpt lat="50.13212" lon="4.08326">
        <ele>217.6</ele>
        <time>2024-04-29T14:27:49Z</time>
      </trkpt>
      <trkpt lat="50.13204" lon="4.08323">
        <ele>216.6</ele>
        <time>2024-04-29T14:27:50Z</time>
      </trkpt>
      <trkpt lat="50.13196" lon="4.08321">
        <ele>216.2</ele>
        <time>2024-04-29T14:27:51Z</time>
      </trkpt>
      <trkpt lat="50.13188" lon="4.08318">
        <ele>216</ele>
        <time>2024-04-29T14:27:52Z</time>
      </trkpt>
      <trkpt lat="50.13179" lon="4.08316">
        <ele>215.6</ele>
        <time>2024-04-29T14:27:53Z</time>
      </trkpt>
      <trkpt lat="50.1317" lon="4.08314">
        <ele>215.6</ele>
        <time>2024-04-29T14:27:54Z</time>
      </trkpt>
      <trkpt lat="50.13161" lon="4.08312">
        <ele>215.4</ele>
        <time>2024-04-29T14:27:55Z</time>
      </trkpt>
      <trkpt lat="50.13152" lon="4.08312">
        <ele>215.4</ele>
        <time>2024-04-29T14:27:56Z</time>
      </trkpt>
      <trkpt lat="50.13143" lon="4.08312">
        <ele>215.6</ele>
        <time>2024-04-29T14:27:57Z</time>
      </trkpt>
      <trkpt lat="50.13133" lon="4.08314">
        <ele>215.2</ele>
        <time>2024-04-29T14:27:58Z</time>
      </trkpt>
      <trkpt lat="50.13124" lon="4.08317">
        <ele>215</ele>
        <time>2024-04-29T14:27:59Z</time>
      </trkpt>
      <trkpt lat="50.13115" lon="4.08322">
        <ele>214.6</ele>
        <time>2024-04-29T14:28:00Z</time>
      </trkpt>
      <trkpt lat="50.13105" lon="4.08327">
        <ele>214.6</ele>
        <time>2024-04-29T14:28:01Z</time>
      </trkpt>
      <trkpt lat="50.13096" lon="4.08334">
        <ele>214</ele>
        <time>2024-04-29T14:28:02Z</time>
      </trkpt>
      <trkpt lat="50.13087" lon="4.08341">
        <ele>212.8</ele>
        <time>2024-04-29T14:28:03Z</time>
      </trkpt>
      <trkpt lat="50.13077" lon="4.08349">
        <ele>212</ele>
        <time>2024-04-29T14:28:04Z</time>
      </trkpt>
      <trkpt lat="50.13068" lon="4.08357">
        <ele>211</ele>
        <time>2024-04-29T14:28:05Z</time>
      </trkpt>
      <trkpt lat="50.13058" lon="4.08364">
        <ele>210</ele>
        <time>2024-04-29T14:28:06Z</time>
      </trkpt>
      <trkpt lat="50.13049" lon="4.08372">
        <ele>209.6</ele>
        <time>2024-04-29T14:28:07Z</time>
      </trkpt>
      <trkpt lat="50.13039" lon="4.0838">
        <ele>209</ele>
        <time>2024-04-29T14:28:08Z</time>
      </trkpt>
      <trkpt lat="50.1303" lon="4.08388">
        <ele>208.2</ele>
        <time>2024-04-29T14:28:09Z</time>
      </trkpt>
      <trkpt lat="50.1302" lon="4.08396">
        <ele>207.2</ele>
        <time>2024-04-29T14:28:10Z</time>
      </trkpt>
      <trkpt lat="50.1301" lon="4.08404">
        <ele>206.4</ele>
        <time>2024-04-29T14:28:11Z</time>
      </trkpt>
      <trkpt lat="50.13" lon="4.0841">
        <ele>205.2</ele>
        <time>2024-04-29T14:28:12Z</time>
      </trkpt>
      <trkpt lat="50.12989" lon="4.08413">
        <ele>203.8</ele>
        <time>2024-04-29T14:28:13Z</time>
      </trkpt>
      <trkpt lat="50.12977" lon="4.08414">
        <ele>203.4</ele>
        <time>2024-04-29T14:28:14Z</time>
      </trkpt>
      <trkpt lat="50.12966" lon="4.08411">
        <ele>203</ele>
        <time>2024-04-29T14:28:15Z</time>
      </trkpt>
      <trkpt lat="50.12955" lon="4.08404">
        <ele>202.8</ele>
        <time>2024-04-29T14:28:16Z</time>
      </trkpt>
      <trkpt lat="50.12944" lon="4.08395">
        <ele>202.2</ele>
        <time>2024-04-29T14:28:17Z</time>
      </trkpt>
      <trkpt lat="50.12933" lon="4.08385">
        <ele>202.2</ele>
        <time>2024-04-29T14:28:18Z</time>
      </trkpt>
      <trkpt lat="50.12923" lon="4.08374">
        <ele>201.6</ele>
        <time>2024-04-29T14:28:19Z</time>
      </trkpt>
      <trkpt lat="50.12913" lon="4.08363">
        <ele>200.8</ele>
        <time>2024-04-29T14:28:20Z</time>
      </trkpt>
      <trkpt lat="50.12904" lon="4.08352">
        <ele>199.6</ele>
        <time>2024-04-29T14:28:21Z</time>
      </trkpt>
      <trkpt lat="50.12894" lon="4.08341">
        <ele>198.6</ele>
        <time>2024-04-29T14:28:22Z</time>
      </trkpt>
      <trkpt lat="50.12884" lon="4.08331">
        <ele>197</ele>
        <time>2024-04-29T14:28:23Z</time>
      </trkpt>
      <trkpt lat="50.12874" lon="4.0832">
        <ele>195.8</ele>
        <time>2024-04-29T14:28:24Z</time>
      </trkpt>
      <trkpt lat="50.12863" lon="4.0831">
        <ele>195</ele>
        <time>2024-04-29T14:28:25Z</time>
      </trkpt>
      <trkpt lat="50.12853" lon="4.08302">
        <ele>194.2</ele>
        <time>2024-04-29T14:28:26Z</time>
      </trkpt>
      <trkpt lat="50.12841" lon="4.08294">
        <ele>193.6</ele>
        <time>2024-04-29T14:28:27Z</time>
      </trkpt>
      <trkpt lat="50.12829" lon="4.08288">
        <ele>192.6</ele>
        <time>2024-04-29T14:28:28Z</time>
      </trkpt>
      <trkpt lat="50.12817" lon="4.08283">
        <ele>191.6</ele>
        <time>2024-04-29T14:28:29Z</time>
      </trkpt>
      <trkpt lat="50.12805" lon="4.08279">
        <ele>190.2</ele>
        <time>2024-04-29T14:28:30Z</time>
      </trkpt>
      <trkpt lat="50.12793" lon="4.08276">
        <ele>189.6</ele>
        <time>2024-04-29T14:28:31Z</time>
      </trkpt>
      <trkpt lat="50.1278" lon="4.08274">
        <ele>188.4</ele>
        <time>2024-04-29T14:28:32Z</time>
      </trkpt>
      <trkpt lat="50.12767" lon="4.08274">
        <ele>187.8</ele>
        <time>2024-04-29T14:28:33Z</time>
      </trkpt>
      <trkpt lat="50.12755" lon="4.08274">
        <ele>187.4</ele>
        <time>2024-04-29T14:28:34Z</time>
      </trkpt>
      <trkpt lat="50.12742" lon="4.08274">
        <ele>186.4</ele>
        <time>2024-04-29T14:28:35Z</time>
      </trkpt>
      <trkpt lat="50.1273" lon="4.08275">
        <ele>185.2</ele>
        <time>2024-04-29T14:28:36Z</time>
      </trkpt>
      <trkpt lat="50.12718" lon="4.08275">
        <ele>184.8</ele>
        <time>2024-04-29T14:28:37Z</time>
      </trkpt>
      <trkpt lat="50.12705" lon="4.08275">
        <ele>184.2</ele>
        <time>2024-04-29T14:28:38Z</time>
      </trkpt>
      <trkpt lat="50.12693" lon="4.08275">
        <ele>183.4</ele>
        <time>2024-04-29T14:28:39Z</time>
      </trkpt>
      <trkpt lat="50.1268" lon="4.08275">
        <ele>183.4</ele>
        <time>2024-04-29T14:28:40Z</time>
      </trkpt>
      <trkpt lat="50.12668" lon="4.08275">
        <ele>181.8</ele>
        <time>2024-04-29T14:28:41Z</time>
      </trkpt>
      <trkpt lat="50.12656" lon="4.08276">
        <ele>180.2</ele>
        <time>2024-04-29T14:28:42Z</time>
      </trkpt>
      <trkpt lat="50.12643" lon="4.08276">
        <ele>179.2</ele>
        <time>2024-04-29T14:28:43Z</time>
      </trkpt>
      <trkpt lat="50.12631" lon="4.08276">
        <ele>178</ele>
        <time>2024-04-29T14:28:44Z</time>
      </trkpt>
      <trkpt lat="50.12619" lon="4.08277">
        <ele>177</ele>
        <time>2024-04-29T14:28:45Z</time>
      </trkpt>
      <trkpt lat="50.12607" lon="4.08277">
        <ele>176.4</ele>
        <time>2024-04-29T14:28:46Z</time>
      </trkpt>
      <trkpt lat="50.12595" lon="4.08277">
        <ele>176</ele>
        <time>2024-04-29T14:28:47Z</time>
      </trkpt>
      <trkpt lat="50.12584" lon="4.08276">
        <ele>175.8</ele>
        <time>2024-04-29T14:28:48Z</time>
      </trkpt>
      <trkpt lat="50.12572" lon="4.08274">
        <ele>175.4</ele>
        <time>2024-04-29T14:28:49Z</time>
      </trkpt>
      <trkpt lat="50.12562" lon="4.0827">
        <ele>174.4</ele>
        <time>2024-04-29T14:28:50Z</time>
      </trkpt>
      <trkpt lat="50.12551" lon="4.08264">
        <ele>173.8</ele>
        <time>2024-04-29T14:28:51Z</time>
      </trkpt>
      <trkpt lat="50.12541" lon="4.08258">
        <ele>173.6</ele>
        <time>2024-04-29T14:28:52Z</time>
      </trkpt>
      <trkpt lat="50.12532" lon="4.0825">
        <ele>173.4</ele>
        <time>2024-04-29T14:28:53Z</time>
      </trkpt>
      <trkpt lat="50.12524" lon="4.08241">
        <ele>173.4</ele>
        <time>2024-04-29T14:28:54Z</time>
      </trkpt>
      <trkpt lat="50.12516" lon="4.08232">
        <ele>173.4</ele>
        <time>2024-04-29T14:28:55Z</time>
      </trkpt>
      <trkpt lat="50.12509" lon="4.08222">
        <ele>173.4</ele>
        <time>2024-04-29T14:28:56Z</time>
      </trkpt>
      <trkpt lat="50.12502" lon="4.08211">
        <ele>173.4</ele>
        <time>2024-04-29T14:28:57Z</time>
      </trkpt>
      <trkpt lat="50.12496" lon="4.082">
        <ele>173.2</ele>
        <time>2024-04-29T14:28:58Z</time>
      </trkpt>
      <trkpt lat="50.12491" lon="4.0819">
        <ele>173.2</ele>
        <time>2024-04-29T14:28:59Z</time>
      </trkpt>
      <trkpt lat="50.12485" lon="4.08179">
        <ele>173.2</ele>
        <time>2024-04-29T14:29:00Z</time>
      </trkpt>
      <trkpt lat="50.1248" lon="4.08169">
        <ele>173.2</ele>
        <time>2024-04-29T14:29:01Z</time>
      </trkpt>
      <trkpt lat="50.12475" lon="4.08159">
        <ele>173.2</ele>
        <time>2024-04-29T14:29:02Z</time>
      </trkpt>
      <trkpt lat="50.1247" lon="4.0815">
        <ele>173.4</ele>
        <time>2024-04-29T14:29:03Z</time>
      </trkpt>
      <trkpt lat="50.12466" lon="4.0814">
        <ele>173.8</ele>
        <time>2024-04-29T14:29:04Z</time>
      </trkpt>
      <trkpt lat="50.12461" lon="4.08131">
        <ele>174</ele>
        <time>2024-04-29T14:29:05Z</time>
      </trkpt>
      <trkpt lat="50.12456" lon="4.08123">
        <ele>174.2</ele>
        <time>2024-04-29T14:29:06Z</time>
      </trkpt>
      <trkpt lat="50.12452" lon="4.08114">
        <ele>174.4</ele>
        <time>2024-04-29T14:29:07Z</time>
      </trkpt>
      <trkpt lat="50.12448" lon="4.08106">
        <ele>174.6</ele>
        <time>2024-04-29T14:29:08Z</time>
      </trkpt>
      <trkpt lat="50.12444" lon="4.08097">
        <ele>175</ele>
        <time>2024-04-29T14:29:09Z</time>
      </trkpt>
      <trkpt lat="50.12439" lon="4.08088">
        <ele>175.2</ele>
        <time>2024-04-29T14:29:10Z</time>
      </trkpt>
      <trkpt lat="50.12435" lon="4.0808">
        <ele>175.4</ele>
        <time>2024-04-29T14:29:11Z</time>
      </trkpt>
      <trkpt lat="50.12431" lon="4.08071">
        <ele>175.6</ele>
        <time>2024-04-29T14:29:12Z</time>
      </trkpt>
      <trkpt lat="50.12427" lon="4.08062">
        <ele>175.8</ele>
        <time>2024-04-29T14:29:13Z</time>
      </trkpt>
      <trkpt lat="50.12424" lon="4.08054">
        <ele>175.8</ele>
        <time>2024-04-29T14:29:14Z</time>
      </trkpt>
      <trkpt lat="50.1242" lon="4.08046">
        <ele>176</ele>
        <time>2024-04-29T14:29:15Z</time>
      </trkpt>
      <trkpt lat="50.12417" lon="4.08038">
        <ele>176.4</ele>
        <time>2024-04-29T14:29:16Z</time>
      </trkpt>
      <trkpt lat="50.12416" lon="4.08028">
        <ele>176.2</ele>
        <time>2024-04-29T14:29:17Z</time>
      </trkpt>
      <trkpt lat="50.12415" lon="4.08018">
        <ele>176.4</ele>
        <time>2024-04-29T14:29:18Z</time>
      </trkpt>
      <trkpt lat="50.12413" lon="4.08009">
        <ele>176.6</ele>
        <time>2024-04-29T14:29:19Z</time>
      </trkpt>
      <trkpt lat="50.1241" lon="4.08001">
        <ele>176.8</ele>
        <time>2024-04-29T14:29:20Z</time>
      </trkpt>
      <trkpt lat="50.12405" lon="4.07995">
        <ele>176.8</ele>
        <time>2024-04-29T14:29:21Z</time>
      </trkpt>
      <trkpt lat="50.12399" lon="4.07992">
        <ele>177</ele>
        <time>2024-04-29T14:29:22Z</time>
      </trkpt>
      <trkpt lat="50.12394" lon="4.07993">
        <ele>177.2</ele>
        <time>2024-04-29T14:29:23Z</time>
      </trkpt>
      <trkpt lat="50.12389" lon="4.07996">
        <ele>177.2</ele>
        <time>2024-04-29T14:29:24Z</time>
      </trkpt>
      <trkpt lat="50.12385" lon="4.08003">
        <ele>177.2</ele>
        <time>2024-04-29T14:29:25Z</time>
      </trkpt>
      <trkpt lat="50.12383" lon="4.08012">
        <ele>177.4</ele>
        <time>2024-04-29T14:29:26Z</time>
      </trkpt>
      <trkpt lat="50.12382" lon="4.08021">
        <ele>177.4</ele>
        <time>2024-04-29T14:29:27Z</time>
      </trkpt>
      <trkpt lat="50.12382" lon="4.08031">
        <ele>177.6</ele>
        <time>2024-04-29T14:29:28Z</time>
      </trkpt>
      <trkpt lat="50.12381" lon="4.08041">
        <ele>177.6</ele>
        <time>2024-04-29T14:29:29Z</time>
      </trkpt>
      <trkpt lat="50.12378" lon="4.08051">
        <ele>177.6</ele>
        <time>2024-04-29T14:29:30Z</time>
      </trkpt>
      <trkpt lat="50.12375" lon="4.0806">
        <ele>177.8</ele>
        <time>2024-04-29T14:29:31Z</time>
      </trkpt>
      <trkpt lat="50.12371" lon="4.08069">
        <ele>177.8</ele>
        <time>2024-04-29T14:29:32Z</time>
      </trkpt>
      <trkpt lat="50.12367" lon="4.08078">
        <ele>177.8</ele>
        <time>2024-04-29T14:29:33Z</time>
      </trkpt>
      <trkpt lat="50.12363" lon="4.08087">
        <ele>177.8</ele>
        <time>2024-04-29T14:29:34Z</time>
      </trkpt>
      <trkpt lat="50.12359" lon="4.08096">
        <ele>177.8</ele>
        <time>2024-04-29T14:29:35Z</time>
      </trkpt>
      <trkpt lat="50.12355" lon="4.08105">
        <ele>177.8</ele>
        <time>2024-04-29T14:29:36Z</time>
      </trkpt>
      <trkpt lat="50.12351" lon="4.08114">
        <ele>177.8</ele>
        <time>2024-04-29T14:29:37Z</time>
      </trkpt>
      <trkpt lat="50.12346" lon="4.08123">
        <ele>177.8</ele>
        <time>2024-04-29T14:29:38Z</time>
      </trkpt>
      <trkpt lat="50.12342" lon="4.08132">
        <ele>177.8</ele>
        <time>2024-04-29T14:29:39Z</time>
      </trkpt>
      <trkpt lat="50.12338" lon="4.08141">
        <ele>177.8</ele>
        <time>2024-04-29T14:29:40Z</time>
      </trkpt>
      <trkpt lat="50.12334" lon="4.08149">
        <ele>177.8</ele>
        <time>2024-04-29T14:29:41Z</time>
      </trkpt>
      <trkpt lat="50.1233" lon="4.08158">
        <ele>177.6</ele>
        <time>2024-04-29T14:29:42Z</time>
      </trkpt>
      <trkpt lat="50.12326" lon="4.08167">
        <ele>177.8</ele>
        <time>2024-04-29T14:29:43Z</time>
      </trkpt>
      <trkpt lat="50.12322" lon="4.08177">
        <ele>177.6</ele>
        <time>2024-04-29T14:29:44Z</time>
      </trkpt>
      <trkpt lat="50.12317" lon="4.08186">
        <ele>177.6</ele>
        <time>2024-04-29T14:29:45Z</time>
      </trkpt>
      <trkpt lat="50.12313" lon="4.08195">
        <ele>177.6</ele>
        <time>2024-04-29T14:29:46Z</time>
      </trkpt>
      <trkpt lat="50.12309" lon="4.08204">
        <ele>177.6</ele>
        <time>2024-04-29T14:29:47Z</time>
      </trkpt>
      <trkpt lat="50.12304" lon="4.08214">
        <ele>177.6</ele>
        <time>2024-04-29T14:29:48Z</time>
      </trkpt>
      <trkpt lat="50.123" lon="4.08223">
        <ele>177.4</ele>
        <time>2024-04-29T14:29:49Z</time>
      </trkpt>
      <trkpt lat="50.12296" lon="4.08233">
        <ele>177.4</ele>
        <time>2024-04-29T14:29:50Z</time>
      </trkpt>
      <trkpt lat="50.12291" lon="4.08243">
        <ele>177.4</ele>
        <time>2024-04-29T14:29:51Z</time>
      </trkpt>
      <trkpt lat="50.12286" lon="4.08252">
        <ele>177.2</ele>
        <time>2024-04-29T14:29:52Z</time>
      </trkpt>
      <trkpt lat="50.12282" lon="4.08262">
        <ele>177.2</ele>
        <time>2024-04-29T14:29:53Z</time>
      </trkpt>
      <trkpt lat="50.12277" lon="4.08273">
        <ele>177</ele>
        <time>2024-04-29T14:29:54Z</time>
      </trkpt>
      <trkpt lat="50.12272" lon="4.08283">
        <ele>176.8</ele>
        <time>2024-04-29T14:29:55Z</time>
      </trkpt>
      <trkpt lat="50.12267" lon="4.08293">
        <ele>176.4</ele>
        <time>2024-04-29T14:29:56Z</time>
      </trkpt>
      <trkpt lat="50.12262" lon="4.08304">
        <ele>175.6</ele>
        <time>2024-04-29T14:29:57Z</time>
      </trkpt>
      <trkpt lat="50.12258" lon="4.08314">
        <ele>175.2</ele>
        <time>2024-04-29T14:29:58Z</time>
      </trkpt>
      <trkpt lat="50.12253" lon="4.08325">
        <ele>174.8</ele>
        <time>2024-04-29T14:29:59Z</time>
      </trkpt>
      <trkpt lat="50.12248" lon="4.08336">
        <ele>174.6</ele>
        <time>2024-04-29T14:30:00Z</time>
      </trkpt>
      <trkpt lat="50.12243" lon="4.08347">
        <ele>174.4</ele>
        <time>2024-04-29T14:30:01Z</time>
      </trkpt>
      <trkpt lat="50.12238" lon="4.08358">
        <ele>174.2</ele>
        <time>2024-04-29T14:30:02Z</time>
      </trkpt>
      <trkpt lat="50.12234" lon="4.0837">
        <ele>173.6</ele>
        <time>2024-04-29T14:30:03Z</time>
      </trkpt>
      <trkpt lat="50.1223" lon="4.08381">
        <ele>173.4</ele>
        <time>2024-04-29T14:30:04Z</time>
      </trkpt>
      <trkpt lat="50.12226" lon="4.08393">
        <ele>173.2</ele>
        <time>2024-04-29T14:30:05Z</time>
      </trkpt>
      <trkpt lat="50.12222" lon="4.08406">
        <ele>172.6</ele>
        <time>2024-04-29T14:30:06Z</time>
      </trkpt>
      <trkpt lat="50.12219" lon="4.08419">
        <ele>172.6</ele>
        <time>2024-04-29T14:30:07Z</time>
      </trkpt>
      <trkpt lat="50.12217" lon="4.08431">
        <ele>172.2</ele>
        <time>2024-04-29T14:30:08Z</time>
      </trkpt>
      <trkpt lat="50.12214" lon="4.08444">
        <ele>171.8</ele>
        <time>2024-04-29T14:30:09Z</time>
      </trkpt>
      <trkpt lat="50.12212" lon="4.08457">
        <ele>171.4</ele>
        <time>2024-04-29T14:30:10Z</time>
      </trkpt>
      <trkpt lat="50.1221" lon="4.08471">
        <ele>171</ele>
        <time>2024-04-29T14:30:11Z</time>
      </trkpt>
      <trkpt lat="50.12207" lon="4.08484">
        <ele>170.2</ele>
        <time>2024-04-29T14:30:12Z</time>
      </trkpt>
      <trkpt lat="50.12205" lon="4.08497">
        <ele>169.8</ele>
        <time>2024-04-29T14:30:13Z</time>
      </trkpt>
      <trkpt lat="50.12204" lon="4.08511">
        <ele>169.6</ele>
        <time>2024-04-29T14:30:14Z</time>
      </trkpt>
      <trkpt lat="50.12202" lon="4.08524">
        <ele>169.4</ele>
        <time>2024-04-29T14:30:15Z</time>
      </trkpt>
      <trkpt lat="50.12202" lon="4.08538">
        <ele>169.2</ele>
        <time>2024-04-29T14:30:16Z</time>
      </trkpt>
      <trkpt lat="50.12201" lon="4.08551">
        <ele>169</ele>
        <time>2024-04-29T14:30:17Z</time>
      </trkpt>
      <trkpt lat="50.12202" lon="4.08564">
        <ele>168.8</ele>
        <time>2024-04-29T14:30:18Z</time>
      </trkpt>
      <trkpt lat="50.12202" lon="4.08576">
        <ele>168.4</ele>
        <time>2024-04-29T14:30:19Z</time>
      </trkpt>
      <trkpt lat="50.12203" lon="4.08589">
        <ele>168</ele>
        <time>2024-04-29T14:30:20Z</time>
      </trkpt>
      <trkpt lat="50.12203" lon="4.08601">
        <ele>167.4</ele>
        <time>2024-04-29T14:30:21Z</time>
      </trkpt>
      <trkpt lat="50.12203" lon="4.08613">
        <ele>167</ele>
        <time>2024-04-29T14:30:22Z</time>
      </trkpt>
      <trkpt lat="50.12204" lon="4.08625">
        <ele>166.8</ele>
        <time>2024-04-29T14:30:23Z</time>
      </trkpt>
      <trkpt lat="50.12204" lon="4.08637">
        <ele>166.8</ele>
        <time>2024-04-29T14:30:24Z</time>
      </trkpt>
      <trkpt lat="50.12204" lon="4.08648">
        <ele>166.6</ele>
        <time>2024-04-29T14:30:25Z</time>
      </trkpt>
      <trkpt lat="50.12204" lon="4.08659">
        <ele>166.2</ele>
        <time>2024-04-29T14:30:26Z</time>
      </trkpt>
      <trkpt lat="50.12204" lon="4.0867">
        <ele>166.4</ele>
        <time>2024-04-29T14:30:27Z</time>
      </trkpt>
      <trkpt lat="50.12204" lon="4.08681">
        <ele>166.2</ele>
        <time>2024-04-29T14:30:28Z</time>
      </trkpt>
      <trkpt lat="50.12204" lon="4.08691">
        <ele>166.2</ele>
        <time>2024-04-29T14:30:29Z</time>
      </trkpt>
      <trkpt lat="50.12203" lon="4.08702">
        <ele>166</ele>
        <time>2024-04-29T14:30:30Z</time>
      </trkpt>
      <trkpt lat="50.12203" lon="4.08712">
        <ele>165.8</ele>
        <time>2024-04-29T14:30:31Z</time>
      </trkpt>
      <trkpt lat="50.12203" lon="4.08723">
        <ele>165.8</ele>
        <time>2024-04-29T14:30:32Z</time>
      </trkpt>
      <trkpt lat="50.12202" lon="4.08733">
        <ele>165.8</ele>
        <time>2024-04-29T14:30:33Z</time>
      </trkpt>
      <trkpt lat="50.12201" lon="4.08743">
        <ele>166</ele>
        <time>2024-04-29T14:30:34Z</time>
      </trkpt>
      <trkpt lat="50.122" lon="4.08753">
        <ele>165.8</ele>
        <time>2024-04-29T14:30:35Z</time>
      </trkpt>
      <trkpt lat="50.12199" lon="4.08763">
        <ele>166</ele>
        <time>2024-04-29T14:30:36Z</time>
      </trkpt>
      <trkpt lat="50.12198" lon="4.08774">
        <ele>166.2</ele>
        <time>2024-04-29T14:30:37Z</time>
      </trkpt>
      <trkpt lat="50.12197" lon="4.08784">
        <ele>166.4</ele>
        <time>2024-04-29T14:30:38Z</time>
      </trkpt>
      <trkpt lat="50.12195" lon="4.08794">
        <ele>166.4</ele>
        <time>2024-04-29T14:30:39Z</time>
      </trkpt>
      <trkpt lat="50.12194" lon="4.08804">
        <ele>166.6</ele>
        <time>2024-04-29T14:30:40Z</time>
      </trkpt>
      <trkpt lat="50.12193" lon="4.08813">
        <ele>166.6</ele>
        <time>2024-04-29T14:30:41Z</time>
      </trkpt>
      <trkpt lat="50.12191" lon="4.08823">
        <ele>166.6</ele>
        <time>2024-04-29T14:30:42Z</time>
      </trkpt>
      <trkpt lat="50.1219" lon="4.08833">
        <ele>166.8</ele>
        <time>2024-04-29T14:30:43Z</time>
      </trkpt>
      <trkpt lat="50.1219" lon="4.08843">
        <ele>166.8</ele>
        <time>2024-04-29T14:30:44Z</time>
      </trkpt>
      <trkpt lat="50.12189" lon="4.08853">
        <ele>166.8</ele>
        <time>2024-04-29T14:30:45Z</time>
      </trkpt>
      <trkpt lat="50.12188" lon="4.08863">
        <ele>166.8</ele>
        <time>2024-04-29T14:30:46Z</time>
      </trkpt>
      <trkpt lat="50.12188" lon="4.08873">
        <ele>167</ele>
        <time>2024-04-29T14:30:47Z</time>
      </trkpt>
      <trkpt lat="50.12188" lon="4.08882">
        <ele>167</ele>
        <time>2024-04-29T14:30:48Z</time>
      </trkpt>
      <trkpt lat="50.12188" lon="4.08892">
        <ele>167.4</ele>
        <time>2024-04-29T14:30:49Z</time>
      </trkpt>
      <trkpt lat="50.12188" lon="4.08902">
        <ele>167.4</ele>
        <time>2024-04-29T14:30:50Z</time>
      </trkpt>
      <trkpt lat="50.12188" lon="4.08911">
        <ele>167.4</ele>
        <time>2024-04-29T14:30:51Z</time>
      </trkpt>
      <trkpt lat="50.12188" lon="4.08921">
        <ele>167.4</ele>
        <time>2024-04-29T14:30:52Z</time>
      </trkpt>
      <trkpt lat="50.12188" lon="4.0893">
        <ele>167.4</ele>
        <time>2024-04-29T14:30:53Z</time>
      </trkpt>
      <trkpt lat="50.12188" lon="4.0894">
        <ele>167.4</ele>
        <time>2024-04-29T14:30:54Z</time>
      </trkpt>
      <trkpt lat="50.12187" lon="4.08949">
        <ele>167.4</ele>
        <time>2024-04-29T14:30:55Z</time>
      </trkpt>
      <trkpt lat="50.12187" lon="4.08959">
        <ele>167.4</ele>
        <time>2024-04-29T14:30:56Z</time>
      </trkpt>
      <trkpt lat="50.12187" lon="4.08968">
        <ele>167.4</ele>
        <time>2024-04-29T14:30:57Z</time>
      </trkpt>
      <trkpt lat="50.12187" lon="4.08978">
        <ele>167.8</ele>
        <time>2024-04-29T14:30:58Z</time>
      </trkpt>
      <trkpt lat="50.12187" lon="4.08987">
        <ele>167.8</ele>
        <time>2024-04-29T14:30:59Z</time>
      </trkpt>
      <trkpt lat="50.12187" lon="4.08997">
        <ele>168</ele>
        <time>2024-04-29T14:31:00Z</time>
      </trkpt>
      <trkpt lat="50.12187" lon="4.09006">
        <ele>168.2</ele>
        <time>2024-04-29T14:31:01Z</time>
      </trkpt>
      <trkpt lat="50.12187" lon="4.09015">
        <ele>168.4</ele>
        <time>2024-04-29T14:31:02Z</time>
      </trkpt>
      <trkpt lat="50.12187" lon="4.09025">
        <ele>168.6</ele>
        <time>2024-04-29T14:31:03Z</time>
      </trkpt>
      <trkpt lat="50.12187" lon="4.09034">
        <ele>168.6</ele>
        <time>2024-04-29T14:31:04Z</time>
      </trkpt>
      <trkpt lat="50.12187" lon="4.09043">
        <ele>169</ele>
        <time>2024-04-29T14:31:05Z</time>
      </trkpt>
      <trkpt lat="50.12186" lon="4.09052">
        <ele>169.4</ele>
        <time>2024-04-29T14:31:06Z</time>
      </trkpt>
      <trkpt lat="50.12186" lon="4.09062">
        <ele>169.4</ele>
        <time>2024-04-29T14:31:07Z</time>
      </trkpt>
      <trkpt lat="50.12186" lon="4.09071">
        <ele>169.4</ele>
        <time>2024-04-29T14:31:08Z</time>
      </trkpt>
      <trkpt lat="50.12186" lon="4.0908">
        <ele>169.8</ele>
        <time>2024-04-29T14:31:09Z</time>
      </trkpt>
      <trkpt lat="50.12185" lon="4.09089">
        <ele>169.8</ele>
        <time>2024-04-29T14:31:10Z</time>
      </trkpt>
      <trkpt lat="50.12185" lon="4.09097">
        <ele>169.6</ele>
        <time>2024-04-29T14:31:11Z</time>
      </trkpt>
      <trkpt lat="50.12184" lon="4.09106">
        <ele>169.8</ele>
        <time>2024-04-29T14:31:12Z</time>
      </trkpt>
      <trkpt lat="50.12182" lon="4.09114">
        <ele>169.8</ele>
        <time>2024-04-29T14:31:13Z</time>
      </trkpt>
      <trkpt lat="50.12181" lon="4.09123">
        <ele>170</ele>
        <time>2024-04-29T14:31:14Z</time>
      </trkpt>
      <trkpt lat="50.12179" lon="4.09131">
        <ele>170</ele>
        <time>2024-04-29T14:31:15Z</time>
      </trkpt>
      <trkpt lat="50.12177" lon="4.09138">
        <ele>170.2</ele>
        <time>2024-04-29T14:31:16Z</time>
      </trkpt>
      <trkpt lat="50.12174" lon="4.09146">
        <ele>170.2</ele>
        <time>2024-04-29T14:31:17Z</time>
      </trkpt>
      <trkpt lat="50.12172" lon="4.09153">
        <ele>170.4</ele>
        <time>2024-04-29T14:31:18Z</time>
      </trkpt>
      <trkpt lat="50.12169" lon="4.09159">
        <ele>170.6</ele>
        <time>2024-04-29T14:31:19Z</time>
      </trkpt>
      <trkpt lat="50.12166" lon="4.09166">
        <ele>171</ele>
        <time>2024-04-29T14:31:20Z</time>
      </trkpt>
      <trkpt lat="50.12162" lon="4.09172">
        <ele>171.2</ele>
        <time>2024-04-29T14:31:21Z</time>
      </trkpt>
      <trkpt lat="50.12159" lon="4.09179">
        <ele>171.4</ele>
        <time>2024-04-29T14:31:22Z</time>
      </trkpt>
      <trkpt lat="50.12156" lon="4.09185">
        <ele>171.8</ele>
        <time>2024-04-29T14:31:23Z</time>
      </trkpt>
      <trkpt lat="50.12153" lon="4.09192">
        <ele>172.2</ele>
        <time>2024-04-29T14:31:24Z</time>
      </trkpt>
      <trkpt lat="50.1215" lon="4.09198">
        <ele>172.2</ele>
        <time>2024-04-29T14:31:25Z</time>
      </trkpt>
      <trkpt lat="50.12147" lon="4.09205">
        <ele>172.6</ele>
        <time>2024-04-29T14:31:26Z</time>
      </trkpt>
      <trkpt lat="50.12144" lon="4.09212">
        <ele>172.8</ele>
        <time>2024-04-29T14:31:27Z</time>
      </trkpt>
      <trkpt lat="50.12141" lon="4.09219">
        <ele>172.8</ele>
        <time>2024-04-29T14:31:28Z</time>
      </trkpt>
      <trkpt lat="50.12139" lon="4.09226">
        <ele>173</ele>
        <time>2024-04-29T14:31:29Z</time>
      </trkpt>
      <trkpt lat="50.12137" lon="4.09233">
        <ele>173</ele>
        <time>2024-04-29T14:31:30Z</time>
      </trkpt>
      <trkpt lat="50.12135" lon="4.09241">
        <ele>172.8</ele>
        <time>2024-04-29T14:31:31Z</time>
      </trkpt>
      <trkpt lat="50.12133" lon="4.09248">
        <ele>173</ele>
        <time>2024-04-29T14:31:32Z</time>
      </trkpt>
      <trkpt lat="50.12132" lon="4.09256">
        <ele>173.2</ele>
        <time>2024-04-29T14:31:33Z</time>
      </trkpt>
      <trkpt lat="50.12131" lon="4.09263">
        <ele>173.2</ele>
        <time>2024-04-29T14:31:34Z</time>
      </trkpt>
      <trkpt lat="50.12129" lon="4.0927">
        <ele>173.4</ele>
        <time>2024-04-29T14:31:35Z</time>
      </trkpt>
      <trkpt lat="50.12128" lon="4.09277">
        <ele>173.2</ele>
        <time>2024-04-29T14:31:36Z</time>
      </trkpt>
      <trkpt lat="50.12127" lon="4.09284">
        <ele>173.2</ele>
        <time>2024-04-29T14:31:37Z</time>
      </trkpt>
      <trkpt lat="50.12126" lon="4.09291">
        <ele>173.4</ele>
        <time>2024-04-29T14:31:38Z</time>
      </trkpt>
      <trkpt lat="50.12124" lon="4.09298">
        <ele>173.4</ele>
        <time>2024-04-29T14:31:39Z</time>
      </trkpt>
      <trkpt lat="50.12123" lon="4.09305">
        <ele>173.4</ele>
        <time>2024-04-29T14:31:40Z</time>
      </trkpt>
      <trkpt lat="50.12122" lon="4.09311">
        <ele>173.6</ele>
        <time>2024-04-29T14:31:41Z</time>
      </trkpt>
      <trkpt lat="50.12121" lon="4.09318">
        <ele>173.6</ele>
        <time>2024-04-29T14:31:42Z</time>
      </trkpt>
      <trkpt lat="50.12119" lon="4.09325">
        <ele>174</ele>
        <time>2024-04-29T14:31:43Z</time>
      </trkpt>
      <trkpt lat="50.12118" lon="4.09331">
        <ele>174</ele>
        <time>2024-04-29T14:31:44Z</time>
      </trkpt>
      <trkpt lat="50.12116" lon="4.09338">
        <ele>174.6</ele>
        <time>2024-04-29T14:31:45Z</time>
      </trkpt>
      <trkpt lat="50.12115" lon="4.09345">
        <ele>174.6</ele>
        <time>2024-04-29T14:31:46Z</time>
      </trkpt>
      <trkpt lat="50.12113" lon="4.09351">
        <ele>175</ele>
        <time>2024-04-29T14:31:47Z</time>
      </trkpt>
      <trkpt lat="50.12112" lon="4.09358">
        <ele>175.2</ele>
        <time>2024-04-29T14:31:48Z</time>
      </trkpt>
      <trkpt lat="50.1211" lon="4.09365">
        <ele>175.6</ele>
        <time>2024-04-29T14:31:49Z</time>
      </trkpt>
      <trkpt lat="50.12108" lon="4.09371">
        <ele>175.8</ele>
        <time>2024-04-29T14:31:50Z</time>
      </trkpt>
      <trkpt lat="50.12107" lon="4.09377">
        <ele>176</ele>
        <time>2024-04-29T14:31:51Z</time>
      </trkpt>
      <trkpt lat="50.12105" lon="4.09384">
        <ele>176.4</ele>
        <time>2024-04-29T14:31:52Z</time>
      </trkpt>
      <trkpt lat="50.12103" lon="4.0939">
        <ele>176.4</ele>
        <time>2024-04-29T14:31:53Z</time>
      </trkpt>
      <trkpt lat="50.12102" lon="4.09396">
        <ele>176.6</ele>
        <time>2024-04-29T14:31:54Z</time>
      </trkpt>
      <trkpt lat="50.121" lon="4.09403">
        <ele>176.6</ele>
        <time>2024-04-29T14:31:55Z</time>
      </trkpt>
      <trkpt lat="50.12098" lon="4.09409">
        <ele>176.6</ele>
        <time>2024-04-29T14:31:56Z</time>
      </trkpt>
      <trkpt lat="50.12097" lon="4.09415">
        <ele>176.6</ele>
        <time>2024-04-29T14:31:57Z</time>
      </trkpt>
      <trkpt lat="50.12095" lon="4.09421">
        <ele>176.8</ele>
        <time>2024-04-29T14:31:58Z</time>
      </trkpt>
      <trkpt lat="50.12093" lon="4.09427">
        <ele>177</ele>
        <time>2024-04-29T14:31:59Z</time>
      </trkpt>
      <trkpt lat="50.12091" lon="4.09433">
        <ele>177.4</ele>
        <time>2024-04-29T14:32:00Z</time>
      </trkpt>
      <trkpt lat="50.12089" lon="4.09439">
        <ele>177.4</ele>
        <time>2024-04-29T14:32:01Z</time>
      </trkpt>
      <trkpt lat="50.12087" lon="4.09445">
        <ele>177.4</ele>
        <time>2024-04-29T14:32:02Z</time>
      </trkpt>
      <trkpt lat="50.12086" lon="4.09452">
        <ele>177.6</ele>
        <time>2024-04-29T14:32:03Z</time>
      </trkpt>
      <trkpt lat="50.12084" lon="4.09458">
        <ele>177.6</ele>
        <time>2024-04-29T14:32:04Z</time>
      </trkpt>
      <trkpt lat="50.12083" lon="4.09464">
        <ele>178</ele>
        <time>2024-04-29T14:32:05Z</time>
      </trkpt>
      <trkpt lat="50.12082" lon="4.09471">
        <ele>178</ele>
        <time>2024-04-29T14:32:06Z</time>
      </trkpt>
      <trkpt lat="50.1208" lon="4.09477">
        <ele>178.4</ele>
        <time>2024-04-29T14:32:07Z</time>
      </trkpt>
      <trkpt lat="50.12079" lon="4.09484">
        <ele>178.8</ele>
        <time>2024-04-29T14:32:08Z</time>
      </trkpt>
      <trkpt lat="50.12078" lon="4.09491">
        <ele>179</ele>
        <time>2024-04-29T14:32:09Z</time>
      </trkpt>
      <trkpt lat="50.12077" lon="4.09497">
        <ele>179.4</ele>
        <time>2024-04-29T14:32:10Z</time>
      </trkpt>
      <trkpt lat="50.12075" lon="4.09504">
        <ele>179.6</ele>
        <time>2024-04-29T14:32:11Z</time>
      </trkpt>
      <trkpt lat="50.12074" lon="4.0951">
        <ele>180</ele>
        <time>2024-04-29T14:32:12Z</time>
      </trkpt>
      <trkpt lat="50.12073" lon="4.09517">
        <ele>180.2</ele>
        <time>2024-04-29T14:32:13Z</time>
      </trkpt>
      <trkpt lat="50.12072" lon="4.09524">
        <ele>180.4</ele>
        <time>2024-04-29T14:32:14Z</time>
      </trkpt>
      <trkpt lat="50.12071" lon="4.09531">
        <ele>180.8</ele>
        <time>2024-04-29T14:32:15Z</time>
      </trkpt>
      <trkpt lat="50.1207" lon="4.09538">
        <ele>181.4</ele>
        <time>2024-04-29T14:32:16Z</time>
      </trkpt>
      <trkpt lat="50.1207" lon="4.09546">
        <ele>181.4</ele>
        <time>2024-04-29T14:32:17Z</time>
      </trkpt>
      <trkpt lat="50.12069" lon="4.09553">
        <ele>181.6</ele>
        <time>2024-04-29T14:32:18Z</time>
      </trkpt>
      <trkpt lat="50.12068" lon="4.09561">
        <ele>181.6</ele>
        <time>2024-04-29T14:32:19Z</time>
      </trkpt>
      <trkpt lat="50.12068" lon="4.0957">
        <ele>181.6</ele>
        <time>2024-04-29T14:32:20Z</time>
      </trkpt>
      <trkpt lat="50.12067" lon="4.09579">
        <ele>182</ele>
        <time>2024-04-29T14:32:21Z</time>
      </trkpt>
      <trkpt lat="50.12067" lon="4.09588">
        <ele>182</ele>
        <time>2024-04-29T14:32:22Z</time>
      </trkpt>
      <trkpt lat="50.12067" lon="4.09598">
        <ele>182</ele>
        <time>2024-04-29T14:32:23Z</time>
      </trkpt>
      <trkpt lat="50.12067" lon="4.09607">
        <ele>182.2</ele>
        <time>2024-04-29T14:32:24Z</time>
      </trkpt>
      <trkpt lat="50.12068" lon="4.09617">
        <ele>182.2</ele>
        <time>2024-04-29T14:32:25Z</time>
      </trkpt>
      <trkpt lat="50.12069" lon="4.09628">
        <ele>182</ele>
        <time>2024-04-29T14:32:26Z</time>
      </trkpt>
      <trkpt lat="50.12071" lon="4.09638">
        <ele>182</ele>
        <time>2024-04-29T14:32:27Z</time>
      </trkpt>
      <trkpt lat="50.12073" lon="4.09648">
        <ele>182</ele>
        <time>2024-04-29T14:32:28Z</time>
      </trkpt>
      <trkpt lat="50.12075" lon="4.09659">
        <ele>182</ele>
        <time>2024-04-29T14:32:29Z</time>
      </trkpt>
      <trkpt lat="50.12078" lon="4.09669">
        <ele>182</ele>
        <time>2024-04-29T14:32:30Z</time>
      </trkpt>
      <trkpt lat="50.1208" lon="4.09679">
        <ele>181.8</ele>
        <time>2024-04-29T14:32:31Z</time>
      </trkpt>
      <trkpt lat="50.12083" lon="4.09689">
        <ele>181.6</ele>
        <time>2024-04-29T14:32:32Z</time>
      </trkpt>
      <trkpt lat="50.12085" lon="4.09699">
        <ele>181.6</ele>
        <time>2024-04-29T14:32:33Z</time>
      </trkpt>
      <trkpt lat="50.12087" lon="4.09708">
        <ele>181.4</ele>
        <time>2024-04-29T14:32:34Z</time>
      </trkpt>
      <trkpt lat="50.12089" lon="4.09717">
        <ele>181</ele>
        <time>2024-04-29T14:32:35Z</time>
      </trkpt>
      <trkpt lat="50.12092" lon="4.09726">
        <ele>180.8</ele>
        <time>2024-04-29T14:32:36Z</time>
      </trkpt>
      <trkpt lat="50.12094" lon="4.09735">
        <ele>180.6</ele>
        <time>2024-04-29T14:32:37Z</time>
      </trkpt>
      <trkpt lat="50.12096" lon="4.09744">
        <ele>180.6</ele>
        <time>2024-04-29T14:32:38Z</time>
      </trkpt>
      <trkpt lat="50.12099" lon="4.09752">
        <ele>180.6</ele>
        <time>2024-04-29T14:32:39Z</time>
      </trkpt>
      <trkpt lat="50.12101" lon="4.09762">
        <ele>180.4</ele>
        <time>2024-04-29T14:32:40Z</time>
      </trkpt>
      <trkpt lat="50.12103" lon="4.09771">
        <ele>180.4</ele>
        <time>2024-04-29T14:32:41Z</time>
      </trkpt>
      <trkpt lat="50.12104" lon="4.0978">
        <ele>180.4</ele>
        <time>2024-04-29T14:32:42Z</time>
      </trkpt>
      <trkpt lat="50.12105" lon="4.0979">
        <ele>180.2</ele>
        <time>2024-04-29T14:32:43Z</time>
      </trkpt>
      <trkpt lat="50.12106" lon="4.098">
        <ele>179.8</ele>
        <time>2024-04-29T14:32:44Z</time>
      </trkpt>
      <trkpt lat="50.12107" lon="4.09811">
        <ele>179.8</ele>
        <time>2024-04-29T14:32:45Z</time>
      </trkpt>
      <trkpt lat="50.12108" lon="4.09821">
        <ele>179.8</ele>
        <time>2024-04-29T14:32:46Z</time>
      </trkpt>
      <trkpt lat="50.12108" lon="4.09832">
        <ele>179.8</ele>
        <time>2024-04-29T14:32:47Z</time>
      </trkpt>
      <trkpt lat="50.12109" lon="4.09843">
        <ele>179.8</ele>
        <time>2024-04-29T14:32:48Z</time>
      </trkpt>
      <trkpt lat="50.1211" lon="4.09854">
        <ele>179.8</ele>
        <time>2024-04-29T14:32:49Z</time>
      </trkpt>
      <trkpt lat="50.12111" lon="4.09865">
        <ele>179.8</ele>
        <time>2024-04-29T14:32:50Z</time>
      </trkpt>
      <trkpt lat="50.12112" lon="4.09876">
        <ele>179.8</ele>
        <time>2024-04-29T14:32:51Z</time>
      </trkpt>
      <trkpt lat="50.12114" lon="4.09888">
        <ele>179.8</ele>
        <time>2024-04-29T14:32:52Z</time>
      </trkpt>
      <trkpt lat="50.12115" lon="4.099">
        <ele>179.6</ele>
        <time>2024-04-29T14:32:53Z</time>
      </trkpt>
      <trkpt lat="50.12116" lon="4.09913">
        <ele>179.6</ele>
        <time>2024-04-29T14:32:54Z</time>
      </trkpt>
      <trkpt lat="50.12117" lon="4.09926">
        <ele>179.6</ele>
        <time>2024-04-29T14:32:55Z</time>
      </trkpt>
      <trkpt lat="50.12117" lon="4.09939">
        <ele>179.4</ele>
        <time>2024-04-29T14:32:56Z</time>
      </trkpt>
      <trkpt lat="50.12117" lon="4.09953">
        <ele>178.8</ele>
        <time>2024-04-29T14:32:57Z</time>
      </trkpt>
      <trkpt lat="50.12117" lon="4.09966">
        <ele>178.4</ele>
        <time>2024-04-29T14:32:58Z</time>
      </trkpt>
      <trkpt lat="50.12116" lon="4.0998">
        <ele>178.2</ele>
        <time>2024-04-29T14:32:59Z</time>
      </trkpt>
      <trkpt lat="50.12114" lon="4.09994">
        <ele>178</ele>
        <time>2024-04-29T14:33:00Z</time>
      </trkpt>
      <trkpt lat="50.12112" lon="4.10007">
        <ele>177.8</ele>
        <time>2024-04-29T14:33:01Z</time>
      </trkpt>
      <trkpt lat="50.1211" lon="4.1002">
        <ele>177.2</ele>
        <time>2024-04-29T14:33:02Z</time>
      </trkpt>
      <trkpt lat="50.12108" lon="4.10033">
        <ele>176.6</ele>
        <time>2024-04-29T14:33:03Z</time>
      </trkpt>
      <trkpt lat="50.12105" lon="4.10046">
        <ele>176.6</ele>
        <time>2024-04-29T14:33:04Z</time>
      </trkpt>
      <trkpt lat="50.12103" lon="4.10058">
        <ele>176</ele>
        <time>2024-04-29T14:33:05Z</time>
      </trkpt>
      <trkpt lat="50.121" lon="4.1007">
        <ele>175.2</ele>
        <time>2024-04-29T14:33:06Z</time>
      </trkpt>
      <trkpt lat="50.12098" lon="4.10082">
        <ele>174.6</ele>
        <time>2024-04-29T14:33:07Z</time>
      </trkpt>
      <trkpt lat="50.12095" lon="4.10093">
        <ele>174.4</ele>
        <time>2024-04-29T14:33:08Z</time>
      </trkpt>
      <trkpt lat="50.12093" lon="4.10103">
        <ele>174.2</ele>
        <time>2024-04-29T14:33:09Z</time>
      </trkpt>
      <trkpt lat="50.1209" lon="4.10114">
        <ele>174</ele>
        <time>2024-04-29T14:33:10Z</time>
      </trkpt>
      <trkpt lat="50.12088" lon="4.10125">
        <ele>173.8</ele>
        <time>2024-04-29T14:33:11Z</time>
      </trkpt>
      <trkpt lat="50.12086" lon="4.10135">
        <ele>173.4</ele>
        <time>2024-04-29T14:33:12Z</time>
      </trkpt>
      <trkpt lat="50.12084" lon="4.10145">
        <ele>173.4</ele>
        <time>2024-04-29T14:33:13Z</time>
      </trkpt>
      <trkpt lat="50.12082" lon="4.10156">
        <ele>173.4</ele>
        <time>2024-04-29T14:33:14Z</time>
      </trkpt>
      <trkpt lat="50.1208" lon="4.10167">
        <ele>173.4</ele>
        <time>2024-04-29T14:33:15Z</time>
      </trkpt>
      <trkpt lat="50.12078" lon="4.10178">
        <ele>173.2</ele>
        <time>2024-04-29T14:33:16Z</time>
      </trkpt>
      <trkpt lat="50.12077" lon="4.10189">
        <ele>173.2</ele>
        <time>2024-04-29T14:33:17Z</time>
      </trkpt>
      <trkpt lat="50.12075" lon="4.102">
        <ele>173.2</ele>
        <time>2024-04-29T14:33:18Z</time>
      </trkpt>
      <trkpt lat="50.12074" lon="4.10212">
        <ele>173.2</ele>
        <time>2024-04-29T14:33:19Z</time>
      </trkpt>
      <trkpt lat="50.12073" lon="4.10224">
        <ele>173</ele>
        <time>2024-04-29T14:33:20Z</time>
      </trkpt>
      <trkpt lat="50.12073" lon="4.10236">
        <ele>172.8</ele>
        <time>2024-04-29T14:33:21Z</time>
      </trkpt>
      <trkpt lat="50.12073" lon="4.10248">
        <ele>172.6</ele>
        <time>2024-04-29T14:33:22Z</time>
      </trkpt>
      <trkpt lat="50.12073" lon="4.1026">
        <ele>172.6</ele>
        <time>2024-04-29T14:33:23Z</time>
      </trkpt>
      <trkpt lat="50.12073" lon="4.10273">
        <ele>172.6</ele>
        <time>2024-04-29T14:33:24Z</time>
      </trkpt>
      <trkpt lat="50.12073" lon="4.10285">
        <ele>172.6</ele>
        <time>2024-04-29T14:33:25Z</time>
      </trkpt>
      <trkpt lat="50.12073" lon="4.10298">
        <ele>172.2</ele>
        <time>2024-04-29T14:33:26Z</time>
      </trkpt>
      <trkpt lat="50.12072" lon="4.10311">
        <ele>171.6</ele>
        <time>2024-04-29T14:33:27Z</time>
      </trkpt>
      <trkpt lat="50.12072" lon="4.10324">
        <ele>171.4</ele>
        <time>2024-04-29T14:33:28Z</time>
      </trkpt>
      <trkpt lat="50.12072" lon="4.10337">
        <ele>171</ele>
        <time>2024-04-29T14:33:29Z</time>
      </trkpt>
      <trkpt lat="50.12071" lon="4.1035">
        <ele>171</ele>
        <time>2024-04-29T14:33:30Z</time>
      </trkpt>
      <trkpt lat="50.1207" lon="4.10363">
        <ele>170.6</ele>
        <time>2024-04-29T14:33:31Z</time>
      </trkpt>
      <trkpt lat="50.1207" lon="4.10376">
        <ele>170.2</ele>
        <time>2024-04-29T14:33:32Z</time>
      </trkpt>
      <trkpt lat="50.12068" lon="4.10389">
        <ele>170</ele>
        <time>2024-04-29T14:33:33Z</time>
      </trkpt>
      <trkpt lat="50.12067" lon="4.10401">
        <ele>169.6</ele>
        <time>2024-04-29T14:33:34Z</time>
      </trkpt>
      <trkpt lat="50.12064" lon="4.10413">
        <ele>169.4</ele>
        <time>2024-04-29T14:33:35Z</time>
      </trkpt>
      <trkpt lat="50.12062" lon="4.10425">
        <ele>169.2</ele>
        <time>2024-04-29T14:33:36Z</time>
      </trkpt>
      <trkpt lat="50.12059" lon="4.10436">
        <ele>169.2</ele>
        <time>2024-04-29T14:33:37Z</time>
      </trkpt>
      <trkpt lat="50.12057" lon="4.10446">
        <ele>169.2</ele>
        <time>2024-04-29T14:33:38Z</time>
      </trkpt>
      <trkpt lat="50.12054" lon="4.10457">
        <ele>169.2</ele>
        <time>2024-04-29T14:33:39Z</time>
      </trkpt>
      <trkpt lat="50.12051" lon="4.10466">
        <ele>169.2</ele>
        <time>2024-04-29T14:33:40Z</time>
      </trkpt>
      <trkpt lat="50.12048" lon="4.10476">
        <ele>169.2</ele>
        <time>2024-04-29T14:33:41Z</time>
      </trkpt>
      <trkpt lat="50.12045" lon="4.10485">
        <ele>169</ele>
        <time>2024-04-29T14:33:42Z</time>
      </trkpt>
      <trkpt lat="50.12043" lon="4.10494">
        <ele>169.2</ele>
        <time>2024-04-29T14:33:43Z</time>
      </trkpt>
      <trkpt lat="50.1204" lon="4.10502">
        <ele>169</ele>
        <time>2024-04-29T14:33:44Z</time>
      </trkpt>
      <trkpt lat="50.12038" lon="4.1051">
        <ele>169</ele>
        <time>2024-04-29T14:33:45Z</time>
      </trkpt>
      <trkpt lat="50.12035" lon="4.10519">
        <ele>169.2</ele>
        <time>2024-04-29T14:33:46Z</time>
      </trkpt>
      <trkpt lat="50.12033" lon="4.10526">
        <ele>169.2</ele>
        <time>2024-04-29T14:33:47Z</time>
      </trkpt>
      <trkpt lat="50.1203" lon="4.10534">
        <ele>169.4</ele>
        <time>2024-04-29T14:33:48Z</time>
      </trkpt>
      <trkpt lat="50.12028" lon="4.10542">
        <ele>169.4</ele>
        <time>2024-04-29T14:33:49Z</time>
      </trkpt>
      <trkpt lat="50.12026" lon="4.1055">
        <ele>169.6</ele>
        <time>2024-04-29T14:33:50Z</time>
      </trkpt>
      <trkpt lat="50.12023" lon="4.10557">
        <ele>170</ele>
        <time>2024-04-29T14:33:51Z</time>
      </trkpt>
      <trkpt lat="50.12021" lon="4.10565">
        <ele>170.8</ele>
        <time>2024-04-29T14:33:52Z</time>
      </trkpt>
      <trkpt lat="50.12019" lon="4.10572">
        <ele>171.8</ele>
        <time>2024-04-29T14:33:53Z</time>
      </trkpt>
      <trkpt lat="50.12017" lon="4.10579">
        <ele>172.4</ele>
        <time>2024-04-29T14:33:54Z</time>
      </trkpt>
      <trkpt lat="50.12014" lon="4.10587">
        <ele>173.6</ele>
        <time>2024-04-29T14:33:55Z</time>
      </trkpt>
      <trkpt lat="50.12012" lon="4.10594">
        <ele>174</ele>
        <time>2024-04-29T14:33:56Z</time>
      </trkpt>
      <trkpt lat="50.1201" lon="4.10601">
        <ele>174.6</ele>
        <time>2024-04-29T14:33:57Z</time>
      </trkpt>
      <trkpt lat="50.12008" lon="4.10608">
        <ele>175</ele>
        <time>2024-04-29T14:33:58Z</time>
      </trkpt>
      <trkpt lat="50.12006" lon="4.10615">
        <ele>175.8</ele>
        <time>2024-04-29T14:33:59Z</time>
      </trkpt>
      <trkpt lat="50.12003" lon="4.10623">
        <ele>176</ele>
        <time>2024-04-29T14:34:00Z</time>
      </trkpt>
      <trkpt lat="50.12001" lon="4.1063">
        <ele>176.4</ele>
        <time>2024-04-29T14:34:01Z</time>
      </trkpt>
      <trkpt lat="50.11999" lon="4.10638">
        <ele>176.6</ele>
        <time>2024-04-29T14:34:02Z</time>
      </trkpt>
      <trkpt lat="50.11997" lon="4.10647">
        <ele>177</ele>
        <time>2024-04-29T14:34:03Z</time>
      </trkpt>
      <trkpt lat="50.11995" lon="4.10655">
        <ele>177.6</ele>
        <time>2024-04-29T14:34:04Z</time>
      </trkpt>
      <trkpt lat="50.11994" lon="4.10664">
        <ele>178</ele>
        <time>2024-04-29T14:34:05Z</time>
      </trkpt>
      <trkpt lat="50.11993" lon="4.10674">
        <ele>178.2</ele>
        <time>2024-04-29T14:34:06Z</time>
      </trkpt>
      <trkpt lat="50.11992" lon="4.10683">
        <ele>178.6</ele>
        <time>2024-04-29T14:34:07Z</time>
      </trkpt>
      <trkpt lat="50.11992" lon="4.10693">
        <ele>178.6</ele>
        <time>2024-04-29T14:34:08Z</time>
      </trkpt>
      <trkpt lat="50.11992" lon="4.10704">
        <ele>178.8</ele>
        <time>2024-04-29T14:34:09Z</time>
      </trkpt>
      <trkpt lat="50.11992" lon="4.10715">
        <ele>178.8</ele>
        <time>2024-04-29T14:34:10Z</time>
      </trkpt>
      <trkpt lat="50.11994" lon="4.10726">
        <ele>178.8</ele>
        <time>2024-04-29T14:34:11Z</time>
      </trkpt>
      <trkpt lat="50.11995" lon="4.10737">
        <ele>178.8</ele>
        <time>2024-04-29T14:34:12Z</time>
      </trkpt>
      <trkpt lat="50.11997" lon="4.10748">
        <ele>178.6</ele>
        <time>2024-04-29T14:34:13Z</time>
      </trkpt>
      <trkpt lat="50.11998" lon="4.10759">
        <ele>178.8</ele>
        <time>2024-04-29T14:34:14Z</time>
      </trkpt>
      <trkpt lat="50.12" lon="4.1077">
        <ele>178.8</ele>
        <time>2024-04-29T14:34:15Z</time>
      </trkpt>
      <trkpt lat="50.12002" lon="4.10782">
        <ele>178.8</ele>
        <time>2024-04-29T14:34:16Z</time>
      </trkpt>
      <trkpt lat="50.12003" lon="4.10793">
        <ele>178.8</ele>
        <time>2024-04-29T14:34:17Z</time>
      </trkpt>
      <trkpt lat="50.12005" lon="4.10805">
        <ele>179</ele>
        <time>2024-04-29T14:34:18Z</time>
      </trkpt>
      <trkpt lat="50.12007" lon="4.10816">
        <ele>178.8</ele>
        <time>2024-04-29T14:34:19Z</time>
      </trkpt>
      <trkpt lat="50.12009" lon="4.10828">
        <ele>178.8</ele>
        <time>2024-04-29T14:34:20Z</time>
      </trkpt>
      <trkpt lat="50.12011" lon="4.1084">
        <ele>178.8</ele>
        <time>2024-04-29T14:34:21Z</time>
      </trkpt>
      <trkpt lat="50.12013" lon="4.10852">
        <ele>178.8</ele>
        <time>2024-04-29T14:34:22Z</time>
      </trkpt>
      <trkpt lat="50.12015" lon="4.10864">
        <ele>178.8</ele>
        <time>2024-04-29T14:34:23Z</time>
      </trkpt>
      <trkpt lat="50.12016" lon="4.10875">
        <ele>178.6</ele>
        <time>2024-04-29T14:34:24Z</time>
      </trkpt>
      <trkpt lat="50.12018" lon="4.10887">
        <ele>178.6</ele>
        <time>2024-04-29T14:34:25Z</time>
      </trkpt>
      <trkpt lat="50.12019" lon="4.10899">
        <ele>178.6</ele>
        <time>2024-04-29T14:34:26Z</time>
      </trkpt>
      <trkpt lat="50.1202" lon="4.10911">
        <ele>178.4</ele>
        <time>2024-04-29T14:34:27Z</time>
      </trkpt>
      <trkpt lat="50.12021" lon="4.10923">
        <ele>178.4</ele>
        <time>2024-04-29T14:34:28Z</time>
      </trkpt>
      <trkpt lat="50.12021" lon="4.10935">
        <ele>178.4</ele>
        <time>2024-04-29T14:34:29Z</time>
      </trkpt>
      <trkpt lat="50.12022" lon="4.10947">
        <ele>178.2</ele>
        <time>2024-04-29T14:34:30Z</time>
      </trkpt>
      <trkpt lat="50.12023" lon="4.10959">
        <ele>177.8</ele>
        <time>2024-04-29T14:34:31Z</time>
      </trkpt>
      <trkpt lat="50.12023" lon="4.10971">
        <ele>177.8</ele>
        <time>2024-04-29T14:34:32Z</time>
      </trkpt>
      <trkpt lat="50.12024" lon="4.10983">
        <ele>177.6</ele>
        <time>2024-04-29T14:34:33Z</time>
      </trkpt>
      <trkpt lat="50.12024" lon="4.10995">
        <ele>177.4</ele>
        <time>2024-04-29T14:34:34Z</time>
      </trkpt>
      <trkpt lat="50.12025" lon="4.11007">
        <ele>177</ele>
        <time>2024-04-29T14:34:35Z</time>
      </trkpt>
      <trkpt lat="50.12025" lon="4.11019">
        <ele>177</ele>
        <time>2024-04-29T14:34:36Z</time>
      </trkpt>
      <trkpt lat="50.12026" lon="4.11031">
        <ele>177</ele>
        <time>2024-04-29T14:34:37Z</time>
      </trkpt>
      <trkpt lat="50.12026" lon="4.11044">
        <ele>177</ele>
        <time>2024-04-29T14:34:38Z</time>
      </trkpt>
      <trkpt lat="50.12027" lon="4.11056">
        <ele>176.6</ele>
        <time>2024-04-29T14:34:39Z</time>
      </trkpt>
      <trkpt lat="50.12027" lon="4.11068">
        <ele>176.6</ele>
        <time>2024-04-29T14:34:40Z</time>
      </trkpt>
      <trkpt lat="50.12027" lon="4.11079">
        <ele>176.6</ele>
        <time>2024-04-29T14:34:41Z</time>
      </trkpt>
      <trkpt lat="50.12027" lon="4.11091">
        <ele>176.2</ele>
        <time>2024-04-29T14:34:42Z</time>
      </trkpt>
      <trkpt lat="50.12028" lon="4.11102">
        <ele>176.2</ele>
        <time>2024-04-29T14:34:43Z</time>
      </trkpt>
      <trkpt lat="50.12028" lon="4.11112">
        <ele>176.2</ele>
        <time>2024-04-29T14:34:44Z</time>
      </trkpt>
      <trkpt lat="50.12029" lon="4.11123">
        <ele>176.4</ele>
        <time>2024-04-29T14:34:45Z</time>
      </trkpt>
      <trkpt lat="50.12029" lon="4.11133">
        <ele>176.2</ele>
        <time>2024-04-29T14:34:46Z</time>
      </trkpt>
      <trkpt lat="50.12029" lon="4.11143">
        <ele>176.2</ele>
        <time>2024-04-29T14:34:47Z</time>
      </trkpt>
      <trkpt lat="50.12029" lon="4.11152">
        <ele>176.4</ele>
        <time>2024-04-29T14:34:48Z</time>
      </trkpt>
      <trkpt lat="50.1203" lon="4.11162">
        <ele>176.4</ele>
        <time>2024-04-29T14:34:49Z</time>
      </trkpt>
      <trkpt lat="50.1203" lon="4.11171">
        <ele>176.4</ele>
        <time>2024-04-29T14:34:50Z</time>
      </trkpt>
      <trkpt lat="50.12031" lon="4.11179">
        <ele>176.6</ele>
        <time>2024-04-29T14:34:51Z</time>
      </trkpt>
      <trkpt lat="50.12031" lon="4.11188">
        <ele>176.6</ele>
        <time>2024-04-29T14:34:52Z</time>
      </trkpt>
      <trkpt lat="50.12032" lon="4.11197">
        <ele>176.6</ele>
        <time>2024-04-29T14:34:53Z</time>
      </trkpt>
      <trkpt lat="50.12033" lon="4.11206">
        <ele>176.6</ele>
        <time>2024-04-29T14:34:54Z</time>
      </trkpt>
      <trkpt lat="50.12033" lon="4.11215">
        <ele>177.2</ele>
        <time>2024-04-29T14:34:55Z</time>
      </trkpt>
      <trkpt lat="50.12034" lon="4.11224">
        <ele>178.2</ele>
        <time>2024-04-29T14:34:56Z</time>
      </trkpt>
      <trkpt lat="50.12035" lon="4.11233">
        <ele>178.8</ele>
        <time>2024-04-29T14:34:57Z</time>
      </trkpt>
      <trkpt lat="50.12036" lon="4.11242">
        <ele>179</ele>
        <time>2024-04-29T14:34:58Z</time>
      </trkpt>
      <trkpt lat="50.12038" lon="4.11251">
        <ele>179.6</ele>
        <time>2024-04-29T14:34:59Z</time>
      </trkpt>
      <trkpt lat="50.12039" lon="4.1126">
        <ele>180</ele>
        <time>2024-04-29T14:35:00Z</time>
      </trkpt>
      <trkpt lat="50.1204" lon="4.11269">
        <ele>180.4</ele>
        <time>2024-04-29T14:35:01Z</time>
      </trkpt>
      <trkpt lat="50.12042" lon="4.11278">
        <ele>181</ele>
        <time>2024-04-29T14:35:02Z</time>
      </trkpt>
      <trkpt lat="50.12043" lon="4.11287">
        <ele>181.6</ele>
        <time>2024-04-29T14:35:03Z</time>
      </trkpt>
      <trkpt lat="50.12045" lon="4.11296">
        <ele>181.8</ele>
        <time>2024-04-29T14:35:04Z</time>
      </trkpt>
      <trkpt lat="50.12047" lon="4.11306">
        <ele>182</ele>
        <time>2024-04-29T14:35:05Z</time>
      </trkpt>
      <trkpt lat="50.12049" lon="4.11316">
        <ele>182.8</ele>
        <time>2024-04-29T14:35:06Z</time>
      </trkpt>
      <trkpt lat="50.12051" lon="4.11325">
        <ele>183.2</ele>
        <time>2024-04-29T14:35:07Z</time>
      </trkpt>
      <trkpt lat="50.12053" lon="4.11335">
        <ele>183.6</ele>
        <time>2024-04-29T14:35:08Z</time>
      </trkpt>
      <trkpt lat="50.12056" lon="4.11345">
        <ele>183.8</ele>
        <time>2024-04-29T14:35:09Z</time>
      </trkpt>
      <trkpt lat="50.12059" lon="4.11355">
        <ele>184</ele>
        <time>2024-04-29T14:35:10Z</time>
      </trkpt>
      <trkpt lat="50.12061" lon="4.11365">
        <ele>184.2</ele>
        <time>2024-04-29T14:35:11Z</time>
      </trkpt>
      <trkpt lat="50.12064" lon="4.11375">
        <ele>184.2</ele>
        <time>2024-04-29T14:35:12Z</time>
      </trkpt>
      <trkpt lat="50.12067" lon="4.11384">
        <ele>184.4</ele>
        <time>2024-04-29T14:35:13Z</time>
      </trkpt>
      <trkpt lat="50.1207" lon="4.11394">
        <ele>184.6</ele>
        <time>2024-04-29T14:35:14Z</time>
      </trkpt>
      <trkpt lat="50.12074" lon="4.11404">
        <ele>184.6</ele>
        <time>2024-04-29T14:35:15Z</time>
      </trkpt>
      <trkpt lat="50.12077" lon="4.11414">
        <ele>184.6</ele>
        <time>2024-04-29T14:35:16Z</time>
      </trkpt>
      <trkpt lat="50.12081" lon="4.11424">
        <ele>184.6</ele>
        <time>2024-04-29T14:35:17Z</time>
      </trkpt>
      <trkpt lat="50.12085" lon="4.11434">
        <ele>184.6</ele>
        <time>2024-04-29T14:35:18Z</time>
      </trkpt>
      <trkpt lat="50.12088" lon="4.11444">
        <ele>184.6</ele>
        <time>2024-04-29T14:35:19Z</time>
      </trkpt>
      <trkpt lat="50.12092" lon="4.11455">
        <ele>184.8</ele>
        <time>2024-04-29T14:35:20Z</time>
      </trkpt>
      <trkpt lat="50.12096" lon="4.11466">
        <ele>184.8</ele>
        <time>2024-04-29T14:35:21Z</time>
      </trkpt>
      <trkpt lat="50.121" lon="4.11477">
        <ele>184.8</ele>
        <time>2024-04-29T14:35:22Z</time>
      </trkpt>
      <trkpt lat="50.12104" lon="4.11489">
        <ele>184.8</ele>
        <time>2024-04-29T14:35:23Z</time>
      </trkpt>
      <trkpt lat="50.12109" lon="4.115">
        <ele>184.6</ele>
        <time>2024-04-29T14:35:24Z</time>
      </trkpt>
      <trkpt lat="50.12113" lon="4.11512">
        <ele>184.6</ele>
        <time>2024-04-29T14:35:25Z</time>
      </trkpt>
      <trkpt lat="50.12117" lon="4.11525">
        <ele>184.6</ele>
        <time>2024-04-29T14:35:26Z</time>
      </trkpt>
      <trkpt lat="50.12121" lon="4.11537">
        <ele>184.6</ele>
        <time>2024-04-29T14:35:27Z</time>
      </trkpt>
      <trkpt lat="50.12125" lon="4.1155">
        <ele>184.4</ele>
        <time>2024-04-29T14:35:28Z</time>
      </trkpt>
      <trkpt lat="50.12129" lon="4.11563">
        <ele>184.4</ele>
        <time>2024-04-29T14:35:29Z</time>
      </trkpt>
      <trkpt lat="50.12133" lon="4.11576">
        <ele>184</ele>
        <time>2024-04-29T14:35:30Z</time>
      </trkpt>
      <trkpt lat="50.12137" lon="4.11589">
        <ele>183.8</ele>
        <time>2024-04-29T14:35:31Z</time>
      </trkpt>
      <trkpt lat="50.1214" lon="4.11603">
        <ele>183.2</ele>
        <time>2024-04-29T14:35:32Z</time>
      </trkpt>
      <trkpt lat="50.12144" lon="4.11617">
        <ele>182.4</ele>
        <time>2024-04-29T14:35:33Z</time>
      </trkpt>
      <trkpt lat="50.12146" lon="4.11632">
        <ele>182</ele>
        <time>2024-04-29T14:35:34Z</time>
      </trkpt>
      <trkpt lat="50.12149" lon="4.11646">
        <ele>181.6</ele>
        <time>2024-04-29T14:35:35Z</time>
      </trkpt>
      <trkpt lat="50.12152" lon="4.11661">
        <ele>181.4</ele>
        <time>2024-04-29T14:35:36Z</time>
      </trkpt>
      <trkpt lat="50.12155" lon="4.11675">
        <ele>181.4</ele>
        <time>2024-04-29T14:35:37Z</time>
      </trkpt>
      <trkpt lat="50.12158" lon="4.1169">
        <ele>181.4</ele>
        <time>2024-04-29T14:35:38Z</time>
      </trkpt>
      <trkpt lat="50.12162" lon="4.11704">
        <ele>180.8</ele>
        <time>2024-04-29T14:35:39Z</time>
      </trkpt>
      <trkpt lat="50.12165" lon="4.11718">
        <ele>180.8</ele>
        <time>2024-04-29T14:35:40Z</time>
      </trkpt>
      <trkpt lat="50.12167" lon="4.11732">
        <ele>180.6</ele>
        <time>2024-04-29T14:35:41Z</time>
      </trkpt>
      <trkpt lat="50.1217" lon="4.11745">
        <ele>180.2</ele>
        <time>2024-04-29T14:35:42Z</time>
      </trkpt>
      <trkpt lat="50.12173" lon="4.11758">
        <ele>179.8</ele>
        <time>2024-04-29T14:35:43Z</time>
      </trkpt>
      <trkpt lat="50.12175" lon="4.1177">
        <ele>179.4</ele>
        <time>2024-04-29T14:35:44Z</time>
      </trkpt>
      <trkpt lat="50.12178" lon="4.11782">
        <ele>178.8</ele>
        <time>2024-04-29T14:35:45Z</time>
      </trkpt>
      <trkpt lat="50.1218" lon="4.11795">
        <ele>178.6</ele>
        <time>2024-04-29T14:35:46Z</time>
      </trkpt>
      <trkpt lat="50.12183" lon="4.11806">
        <ele>178.4</ele>
        <time>2024-04-29T14:35:47Z</time>
      </trkpt>
      <trkpt lat="50.12185" lon="4.11818">
        <ele>178.4</ele>
        <time>2024-04-29T14:35:48Z</time>
      </trkpt>
      <trkpt lat="50.12187" lon="4.11829">
        <ele>178.4</ele>
        <time>2024-04-29T14:35:49Z</time>
      </trkpt>
      <trkpt lat="50.12189" lon="4.11841">
        <ele>178.2</ele>
        <time>2024-04-29T14:35:50Z</time>
      </trkpt>
      <trkpt lat="50.12192" lon="4.11852">
        <ele>178.4</ele>
        <time>2024-04-29T14:35:51Z</time>
      </trkpt>
      <trkpt lat="50.12194" lon="4.11863">
        <ele>178.2</ele>
        <time>2024-04-29T14:35:52Z</time>
      </trkpt>
      <trkpt lat="50.12196" lon="4.11874">
        <ele>178.2</ele>
        <time>2024-04-29T14:35:53Z</time>
      </trkpt>
      <trkpt lat="50.12198" lon="4.11885">
        <ele>178.2</ele>
        <time>2024-04-29T14:35:54Z</time>
      </trkpt>
      <trkpt lat="50.12201" lon="4.11896">
        <ele>178</ele>
        <time>2024-04-29T14:35:55Z</time>
      </trkpt>
      <trkpt lat="50.12203" lon="4.11907">
        <ele>178</ele>
        <time>2024-04-29T14:35:56Z</time>
      </trkpt>
      <trkpt lat="50.12205" lon="4.11918">
        <ele>178</ele>
        <time>2024-04-29T14:35:57Z</time>
      </trkpt>
      <trkpt lat="50.12207" lon="4.11928">
        <ele>177.8</ele>
        <time>2024-04-29T14:35:58Z</time>
      </trkpt>
      <trkpt lat="50.12209" lon="4.11939">
        <ele>178</ele>
        <time>2024-04-29T14:35:59Z</time>
      </trkpt>
      <trkpt lat="50.12211" lon="4.11949">
        <ele>178</ele>
        <time>2024-04-29T14:36:00Z</time>
      </trkpt>
      <trkpt lat="50.12213" lon="4.11959">
        <ele>178</ele>
        <time>2024-04-29T14:36:01Z</time>
      </trkpt>
      <trkpt lat="50.12215" lon="4.11969">
        <ele>178.2</ele>
        <time>2024-04-29T14:36:02Z</time>
      </trkpt>
      <trkpt lat="50.12217" lon="4.11979">
        <ele>178.2</ele>
        <time>2024-04-29T14:36:03Z</time>
      </trkpt>
      <trkpt lat="50.12219" lon="4.11988">
        <ele>178.2</ele>
        <time>2024-04-29T14:36:04Z</time>
      </trkpt>
      <trkpt lat="50.12221" lon="4.11998">
        <ele>178.4</ele>
        <time>2024-04-29T14:36:05Z</time>
      </trkpt>
      <trkpt lat="50.12222" lon="4.12007">
        <ele>178.4</ele>
        <time>2024-04-29T14:36:06Z</time>
      </trkpt>
      <trkpt lat="50.12224" lon="4.12016">
        <ele>178.4</ele>
        <time>2024-04-29T14:36:07Z</time>
      </trkpt>
      <trkpt lat="50.12225" lon="4.12025">
        <ele>178.4</ele>
        <time>2024-04-29T14:36:08Z</time>
      </trkpt>
      <trkpt lat="50.12227" lon="4.12034">
        <ele>178.6</ele>
        <time>2024-04-29T14:36:09Z</time>
      </trkpt>
      <trkpt lat="50.12228" lon="4.12042">
        <ele>178.6</ele>
        <time>2024-04-29T14:36:10Z</time>
      </trkpt>
      <trkpt lat="50.12229" lon="4.12051">
        <ele>178.6</ele>
        <time>2024-04-29T14:36:11Z</time>
      </trkpt>
      <trkpt lat="50.1223" lon="4.12059">
        <ele>178.8</ele>
        <time>2024-04-29T14:36:12Z</time>
      </trkpt>
      <trkpt lat="50.12231" lon="4.12068">
        <ele>179.8</ele>
        <time>2024-04-29T14:36:13Z</time>
      </trkpt>
      <trkpt lat="50.12231" lon="4.12076">
        <ele>180.6</ele>
        <time>2024-04-29T14:36:14Z</time>
      </trkpt>
      <trkpt lat="50.12232" lon="4.12085">
        <ele>181.2</ele>
        <time>2024-04-29T14:36:15Z</time>
      </trkpt>
      <trkpt lat="50.12233" lon="4.12093">
        <ele>181.6</ele>
        <time>2024-04-29T14:36:16Z</time>
      </trkpt>
      <trkpt lat="50.12234" lon="4.12102">
        <ele>182</ele>
        <time>2024-04-29T14:36:17Z</time>
      </trkpt>
      <trkpt lat="50.12235" lon="4.1211">
        <ele>182.2</ele>
        <time>2024-04-29T14:36:18Z</time>
      </trkpt>
      <trkpt lat="50.12235" lon="4.12119">
        <ele>182.6</ele>
        <time>2024-04-29T14:36:19Z</time>
      </trkpt>
      <trkpt lat="50.12236" lon="4.12128">
        <ele>183.2</ele>
        <time>2024-04-29T14:36:20Z</time>
      </trkpt>
      <trkpt lat="50.12237" lon="4.12137">
        <ele>183.6</ele>
        <time>2024-04-29T14:36:21Z</time>
      </trkpt>
      <trkpt lat="50.12238" lon="4.12146">
        <ele>183.6</ele>
        <time>2024-04-29T14:36:22Z</time>
      </trkpt>
      <trkpt lat="50.12239" lon="4.12155">
        <ele>183.8</ele>
        <time>2024-04-29T14:36:23Z</time>
      </trkpt>
      <trkpt lat="50.1224" lon="4.12164">
        <ele>183.8</ele>
        <time>2024-04-29T14:36:24Z</time>
      </trkpt>
      <trkpt lat="50.12241" lon="4.12173">
        <ele>183.8</ele>
        <time>2024-04-29T14:36:25Z</time>
      </trkpt>
      <trkpt lat="50.12242" lon="4.12183">
        <ele>184</ele>
        <time>2024-04-29T14:36:26Z</time>
      </trkpt>
      <trkpt lat="50.12242" lon="4.12193">
        <ele>184</ele>
        <time>2024-04-29T14:36:27Z</time>
      </trkpt>
      <trkpt lat="50.12244" lon="4.12203">
        <ele>184</ele>
        <time>2024-04-29T14:36:28Z</time>
      </trkpt>
      <trkpt lat="50.12245" lon="4.12213">
        <ele>184</ele>
        <time>2024-04-29T14:36:29Z</time>
      </trkpt>
      <trkpt lat="50.12246" lon="4.12223">
        <ele>184</ele>
        <time>2024-04-29T14:36:30Z</time>
      </trkpt>
      <trkpt lat="50.12248" lon="4.12233">
        <ele>184</ele>
        <time>2024-04-29T14:36:31Z</time>
      </trkpt>
      <trkpt lat="50.1225" lon="4.12243">
        <ele>184</ele>
        <time>2024-04-29T14:36:32Z</time>
      </trkpt>
      <trkpt lat="50.12252" lon="4.12253">
        <ele>183.8</ele>
        <time>2024-04-29T14:36:33Z</time>
      </trkpt>
      <trkpt lat="50.12254" lon="4.12263">
        <ele>183.8</ele>
        <time>2024-04-29T14:36:34Z</time>
      </trkpt>
      <trkpt lat="50.12256" lon="4.12273">
        <ele>183.8</ele>
        <time>2024-04-29T14:36:35Z</time>
      </trkpt>
      <trkpt lat="50.12258" lon="4.12284">
        <ele>183.8</ele>
        <time>2024-04-29T14:36:36Z</time>
      </trkpt>
      <trkpt lat="50.1226" lon="4.12293">
        <ele>183.8</ele>
        <time>2024-04-29T14:36:37Z</time>
      </trkpt>
      <trkpt lat="50.12263" lon="4.12303">
        <ele>183.8</ele>
        <time>2024-04-29T14:36:38Z</time>
      </trkpt>
      <trkpt lat="50.12265" lon="4.12313">
        <ele>183.8</ele>
        <time>2024-04-29T14:36:39Z</time>
      </trkpt>
      <trkpt lat="50.12268" lon="4.12323">
        <ele>183.8</ele>
        <time>2024-04-29T14:36:40Z</time>
      </trkpt>
      <trkpt lat="50.12271" lon="4.12333">
        <ele>183.8</ele>
        <time>2024-04-29T14:36:41Z</time>
      </trkpt>
      <trkpt lat="50.12274" lon="4.12343">
        <ele>184</ele>
        <time>2024-04-29T14:36:42Z</time>
      </trkpt>
      <trkpt lat="50.12277" lon="4.12352">
        <ele>184</ele>
        <time>2024-04-29T14:36:43Z</time>
      </trkpt>
      <trkpt lat="50.1228" lon="4.12362">
        <ele>184</ele>
        <time>2024-04-29T14:36:44Z</time>
      </trkpt>
      <trkpt lat="50.12283" lon="4.12372">
        <ele>184</ele>
        <time>2024-04-29T14:36:45Z</time>
      </trkpt>
      <trkpt lat="50.12286" lon="4.12382">
        <ele>184.2</ele>
        <time>2024-04-29T14:36:46Z</time>
      </trkpt>
      <trkpt lat="50.12289" lon="4.12391">
        <ele>184.4</ele>
        <time>2024-04-29T14:36:47Z</time>
      </trkpt>
      <trkpt lat="50.12292" lon="4.12401">
        <ele>184.8</ele>
        <time>2024-04-29T14:36:48Z</time>
      </trkpt>
      <trkpt lat="50.12295" lon="4.1241">
        <ele>184.8</ele>
        <time>2024-04-29T14:36:49Z</time>
      </trkpt>
      <trkpt lat="50.12298" lon="4.12419">
        <ele>184.8</ele>
        <time>2024-04-29T14:36:50Z</time>
      </trkpt>
      <trkpt lat="50.12301" lon="4.12429">
        <ele>184.8</ele>
        <time>2024-04-29T14:36:51Z</time>
      </trkpt>
      <trkpt lat="50.12304" lon="4.12438">
        <ele>185</ele>
        <time>2024-04-29T14:36:52Z</time>
      </trkpt>
      <trkpt lat="50.12307" lon="4.12447">
        <ele>185.2</ele>
        <time>2024-04-29T14:36:53Z</time>
      </trkpt>
      <trkpt lat="50.1231" lon="4.12456">
        <ele>185.2</ele>
        <time>2024-04-29T14:36:54Z</time>
      </trkpt>
      <trkpt lat="50.12314" lon="4.12464">
        <ele>185.6</ele>
        <time>2024-04-29T14:36:55Z</time>
      </trkpt>
      <trkpt lat="50.12317" lon="4.12472">
        <ele>185.6</ele>
        <time>2024-04-29T14:36:56Z</time>
      </trkpt>
      <trkpt lat="50.12322" lon="4.1248">
        <ele>185.8</ele>
        <time>2024-04-29T14:36:57Z</time>
      </trkpt>
      <trkpt lat="50.12326" lon="4.12487">
        <ele>185.8</ele>
        <time>2024-04-29T14:36:58Z</time>
      </trkpt>
      <trkpt lat="50.1233" lon="4.12494">
        <ele>186</ele>
        <time>2024-04-29T14:36:59Z</time>
      </trkpt>
      <trkpt lat="50.12335" lon="4.12501">
        <ele>186.2</ele>
        <time>2024-04-29T14:37:00Z</time>
      </trkpt>
      <trkpt lat="50.1234" lon="4.12507">
        <ele>186.6</ele>
        <time>2024-04-29T14:37:01Z</time>
      </trkpt>
      <trkpt lat="50.12344" lon="4.12513">
        <ele>187</ele>
        <time>2024-04-29T14:37:02Z</time>
      </trkpt>
      <trkpt lat="50.12349" lon="4.1252">
        <ele>187.6</ele>
        <time>2024-04-29T14:37:03Z</time>
      </trkpt>
      <trkpt lat="50.12353" lon="4.12526">
        <ele>188.4</ele>
        <time>2024-04-29T14:37:04Z</time>
      </trkpt>
      <trkpt lat="50.12358" lon="4.12532">
        <ele>188.6</ele>
        <time>2024-04-29T14:37:05Z</time>
      </trkpt>
      <trkpt lat="50.12363" lon="4.12539">
        <ele>188.6</ele>
        <time>2024-04-29T14:37:06Z</time>
      </trkpt>
      <trkpt lat="50.12367" lon="4.12546">
        <ele>189.4</ele>
        <time>2024-04-29T14:37:07Z</time>
      </trkpt>
      <trkpt lat="50.12372" lon="4.12552">
        <ele>189.8</ele>
        <time>2024-04-29T14:37:08Z</time>
      </trkpt>
      <trkpt lat="50.12377" lon="4.12559">
        <ele>190.4</ele>
        <time>2024-04-29T14:37:09Z</time>
      </trkpt>
      <trkpt lat="50.12382" lon="4.12566">
        <ele>190.6</ele>
        <time>2024-04-29T14:37:10Z</time>
      </trkpt>
      <trkpt lat="50.12387" lon="4.12573">
        <ele>191.2</ele>
        <time>2024-04-29T14:37:11Z</time>
      </trkpt>
      <trkpt lat="50.12392" lon="4.1258">
        <ele>191.6</ele>
        <time>2024-04-29T14:37:12Z</time>
      </trkpt>
      <trkpt lat="50.12397" lon="4.12587">
        <ele>191.6</ele>
        <time>2024-04-29T14:37:13Z</time>
      </trkpt>
      <trkpt lat="50.12402" lon="4.12594">
        <ele>191.8</ele>
        <time>2024-04-29T14:37:14Z</time>
      </trkpt>
      <trkpt lat="50.12408" lon="4.12602">
        <ele>191.8</ele>
        <time>2024-04-29T14:37:15Z</time>
      </trkpt>
      <trkpt lat="50.12413" lon="4.12609">
        <ele>192</ele>
        <time>2024-04-29T14:37:16Z</time>
      </trkpt>
      <trkpt lat="50.12419" lon="4.12617">
        <ele>192</ele>
        <time>2024-04-29T14:37:17Z</time>
      </trkpt>
      <trkpt lat="50.12424" lon="4.12625">
        <ele>192</ele>
        <time>2024-04-29T14:37:18Z</time>
      </trkpt>
      <trkpt lat="50.1243" lon="4.12634">
        <ele>192</ele>
        <time>2024-04-29T14:37:19Z</time>
      </trkpt>
      <trkpt lat="50.12435" lon="4.12643">
        <ele>192</ele>
        <time>2024-04-29T14:37:20Z</time>
      </trkpt>
      <trkpt lat="50.1244" lon="4.12652">
        <ele>192</ele>
        <time>2024-04-29T14:37:21Z</time>
      </trkpt>
      <trkpt lat="50.12446" lon="4.12662">
        <ele>192</ele>
        <time>2024-04-29T14:37:22Z</time>
      </trkpt>
      <trkpt lat="50.12451" lon="4.12673">
        <ele>192</ele>
        <time>2024-04-29T14:37:23Z</time>
      </trkpt>
      <trkpt lat="50.12455" lon="4.12683">
        <ele>192</ele>
        <time>2024-04-29T14:37:24Z</time>
      </trkpt>
      <trkpt lat="50.1246" lon="4.12695">
        <ele>192</ele>
        <time>2024-04-29T14:37:25Z</time>
      </trkpt>
      <trkpt lat="50.12464" lon="4.12706">
        <ele>192</ele>
        <time>2024-04-29T14:37:26Z</time>
      </trkpt>
      <trkpt lat="50.12467" lon="4.12718">
        <ele>192</ele>
        <time>2024-04-29T14:37:27Z</time>
      </trkpt>
      <trkpt lat="50.1247" lon="4.12729">
        <ele>192</ele>
        <time>2024-04-29T14:37:28Z</time>
      </trkpt>
      <trkpt lat="50.12472" lon="4.12741">
        <ele>192</ele>
        <time>2024-04-29T14:37:29Z</time>
      </trkpt>
      <trkpt lat="50.12474" lon="4.12752">
        <ele>191.8</ele>
        <time>2024-04-29T14:37:30Z</time>
      </trkpt>
      <trkpt lat="50.12476" lon="4.12763">
        <ele>191.8</ele>
        <time>2024-04-29T14:37:31Z</time>
      </trkpt>
      <trkpt lat="50.12477" lon="4.12773">
        <ele>191.8</ele>
        <time>2024-04-29T14:37:32Z</time>
      </trkpt>
      <trkpt lat="50.12479" lon="4.12784">
        <ele>191.8</ele>
        <time>2024-04-29T14:37:33Z</time>
      </trkpt>
      <trkpt lat="50.1248" lon="4.12794">
        <ele>191.8</ele>
        <time>2024-04-29T14:37:34Z</time>
      </trkpt>
      <trkpt lat="50.1248" lon="4.12804">
        <ele>191.8</ele>
        <time>2024-04-29T14:37:35Z</time>
      </trkpt>
      <trkpt lat="50.12481" lon="4.12814">
        <ele>191.8</ele>
        <time>2024-04-29T14:37:36Z</time>
      </trkpt>
      <trkpt lat="50.12481" lon="4.12823">
        <ele>191.8</ele>
        <time>2024-04-29T14:37:37Z</time>
      </trkpt>
      <trkpt lat="50.12481" lon="4.12833">
        <ele>191.8</ele>
        <time>2024-04-29T14:37:38Z</time>
      </trkpt>
      <trkpt lat="50.12481" lon="4.12842">
        <ele>191.8</ele>
        <time>2024-04-29T14:37:39Z</time>
      </trkpt>
      <trkpt lat="50.1248" lon="4.12851">
        <ele>191.8</ele>
        <time>2024-04-29T14:37:40Z</time>
      </trkpt>
      <trkpt lat="50.1248" lon="4.12859">
        <ele>192.2</ele>
        <time>2024-04-29T14:37:41Z</time>
      </trkpt>
      <trkpt lat="50.12479" lon="4.12867">
        <ele>192.4</ele>
        <time>2024-04-29T14:37:42Z</time>
      </trkpt>
      <trkpt lat="50.12478" lon="4.12875">
        <ele>192.8</ele>
        <time>2024-04-29T14:37:43Z</time>
      </trkpt>
      <trkpt lat="50.12478" lon="4.12883">
        <ele>192.8</ele>
        <time>2024-04-29T14:37:44Z</time>
      </trkpt>
      <trkpt lat="50.12477" lon="4.1289">
        <ele>193.4</ele>
        <time>2024-04-29T14:37:45Z</time>
      </trkpt>
      <trkpt lat="50.12476" lon="4.12897">
        <ele>193.8</ele>
        <time>2024-04-29T14:37:46Z</time>
      </trkpt>
      <trkpt lat="50.12475" lon="4.12903">
        <ele>194.2</ele>
        <time>2024-04-29T14:37:47Z</time>
      </trkpt>
      <trkpt lat="50.12474" lon="4.1291">
        <ele>194.8</ele>
        <time>2024-04-29T14:37:48Z</time>
      </trkpt>
      <trkpt lat="50.12473" lon="4.12916">
        <ele>195</ele>
        <time>2024-04-29T14:37:49Z</time>
      </trkpt>
      <trkpt lat="50.12472" lon="4.12923">
        <ele>195</ele>
        <time>2024-04-29T14:37:50Z</time>
      </trkpt>
      <trkpt lat="50.12471" lon="4.12929">
        <ele>195.2</ele>
        <time>2024-04-29T14:37:51Z</time>
      </trkpt>
      <trkpt lat="50.1247" lon="4.12935">
        <ele>195.6</ele>
        <time>2024-04-29T14:37:52Z</time>
      </trkpt>
      <trkpt lat="50.12469" lon="4.12941">
        <ele>195.8</ele>
        <time>2024-04-29T14:37:53Z</time>
      </trkpt>
      <trkpt lat="50.12468" lon="4.12947">
        <ele>196.4</ele>
        <time>2024-04-29T14:37:54Z</time>
      </trkpt>
      <trkpt lat="50.12468" lon="4.12953">
        <ele>196.8</ele>
        <time>2024-04-29T14:37:55Z</time>
      </trkpt>
      <trkpt lat="50.12467" lon="4.1296">
        <ele>197.8</ele>
        <time>2024-04-29T14:37:56Z</time>
      </trkpt>
      <trkpt lat="50.12466" lon="4.12966">
        <ele>198.6</ele>
        <time>2024-04-29T14:37:57Z</time>
      </trkpt>
      <trkpt lat="50.12465" lon="4.12972">
        <ele>199</ele>
        <time>2024-04-29T14:37:58Z</time>
      </trkpt>
      <trkpt lat="50.12464" lon="4.12978">
        <ele>199.2</ele>
        <time>2024-04-29T14:37:59Z</time>
      </trkpt>
      <trkpt lat="50.12463" lon="4.12984">
        <ele>199.4</ele>
        <time>2024-04-29T14:38:00Z</time>
      </trkpt>
      <trkpt lat="50.12462" lon="4.12991">
        <ele>199.4</ele>
        <time>2024-04-29T14:38:01Z</time>
      </trkpt>
      <trkpt lat="50.12461" lon="4.12997">
        <ele>199.8</ele>
        <time>2024-04-29T14:38:02Z</time>
      </trkpt>
      <trkpt lat="50.1246" lon="4.13003">
        <ele>200.2</ele>
        <time>2024-04-29T14:38:03Z</time>
      </trkpt>
      <trkpt lat="50.12459" lon="4.13009">
        <ele>200.4</ele>
        <time>2024-04-29T14:38:04Z</time>
      </trkpt>
      <trkpt lat="50.12458" lon="4.13015">
        <ele>201</ele>
        <time>2024-04-29T14:38:05Z</time>
      </trkpt>
      <trkpt lat="50.12457" lon="4.13021">
        <ele>202</ele>
        <time>2024-04-29T14:38:06Z</time>
      </trkpt>
      <trkpt lat="50.12456" lon="4.13027">
        <ele>202.6</ele>
        <time>2024-04-29T14:38:07Z</time>
      </trkpt>
      <trkpt lat="50.12455" lon="4.13033">
        <ele>203</ele>
        <time>2024-04-29T14:38:08Z</time>
      </trkpt>
      <trkpt lat="50.12454" lon="4.1304">
        <ele>203.4</ele>
        <time>2024-04-29T14:38:09Z</time>
      </trkpt>
      <trkpt lat="50.12454" lon="4.13046">
        <ele>203.6</ele>
        <time>2024-04-29T14:38:10Z</time>
      </trkpt>
      <trkpt lat="50.12452" lon="4.13052">
        <ele>204.4</ele>
        <time>2024-04-29T14:38:11Z</time>
      </trkpt>
      <trkpt lat="50.12452" lon="4.13059">
        <ele>204.4</ele>
        <time>2024-04-29T14:38:12Z</time>
      </trkpt>
      <trkpt lat="50.12451" lon="4.13065">
        <ele>204.8</ele>
        <time>2024-04-29T14:38:13Z</time>
      </trkpt>
      <trkpt lat="50.1245" lon="4.13071">
        <ele>205.2</ele>
        <time>2024-04-29T14:38:14Z</time>
      </trkpt>
      <trkpt lat="50.12449" lon="4.13078">
        <ele>205.6</ele>
        <time>2024-04-29T14:38:15Z</time>
      </trkpt>
      <trkpt lat="50.12448" lon="4.13084">
        <ele>206</ele>
        <time>2024-04-29T14:38:16Z</time>
      </trkpt>
      <trkpt lat="50.12447" lon="4.13091">
        <ele>206.6</ele>
        <time>2024-04-29T14:38:17Z</time>
      </trkpt>
      <trkpt lat="50.12445" lon="4.13097">
        <ele>207.2</ele>
        <time>2024-04-29T14:38:18Z</time>
      </trkpt>
      <trkpt lat="50.12444" lon="4.13103">
        <ele>207.4</ele>
        <time>2024-04-29T14:38:19Z</time>
      </trkpt>
      <trkpt lat="50.12442" lon="4.1311">
        <ele>207.6</ele>
        <time>2024-04-29T14:38:20Z</time>
      </trkpt>
      <trkpt lat="50.1244" lon="4.13116">
        <ele>208</ele>
        <time>2024-04-29T14:38:21Z</time>
      </trkpt>
      <trkpt lat="50.12438" lon="4.13122">
        <ele>208.2</ele>
        <time>2024-04-29T14:38:22Z</time>
      </trkpt>
      <trkpt lat="50.12436" lon="4.13129">
        <ele>208.4</ele>
        <time>2024-04-29T14:38:23Z</time>
      </trkpt>
      <trkpt lat="50.12434" lon="4.13136">
        <ele>208.6</ele>
        <time>2024-04-29T14:38:24Z</time>
      </trkpt>
      <trkpt lat="50.12432" lon="4.13143">
        <ele>208.8</ele>
        <time>2024-04-29T14:38:25Z</time>
      </trkpt>
      <trkpt lat="50.1243" lon="4.13149">
        <ele>208.8</ele>
        <time>2024-04-29T14:38:26Z</time>
      </trkpt>
      <trkpt lat="50.12428" lon="4.13157">
        <ele>209</ele>
        <time>2024-04-29T14:38:27Z</time>
      </trkpt>
      <trkpt lat="50.12426" lon="4.13164">
        <ele>209.4</ele>
        <time>2024-04-29T14:38:28Z</time>
      </trkpt>
      <trkpt lat="50.12424" lon="4.13171">
        <ele>209.8</ele>
        <time>2024-04-29T14:38:29Z</time>
      </trkpt>
      <trkpt lat="50.12421" lon="4.13179">
        <ele>209.8</ele>
        <time>2024-04-29T14:38:30Z</time>
      </trkpt>
      <trkpt lat="50.12419" lon="4.13186">
        <ele>210</ele>
        <time>2024-04-29T14:38:31Z</time>
      </trkpt>
      <trkpt lat="50.12417" lon="4.13194">
        <ele>210.2</ele>
        <time>2024-04-29T14:38:32Z</time>
      </trkpt>
      <trkpt lat="50.12414" lon="4.13202">
        <ele>210.4</ele>
        <time>2024-04-29T14:38:33Z</time>
      </trkpt>
      <trkpt lat="50.12412" lon="4.1321">
        <ele>210.4</ele>
        <time>2024-04-29T14:38:34Z</time>
      </trkpt>
      <trkpt lat="50.12409" lon="4.13218">
        <ele>210.4</ele>
        <time>2024-04-29T14:38:35Z</time>
      </trkpt>
      <trkpt lat="50.12406" lon="4.13227">
        <ele>210.4</ele>
        <time>2024-04-29T14:38:36Z</time>
      </trkpt>
      <trkpt lat="50.12403" lon="4.13236">
        <ele>210.4</ele>
        <time>2024-04-29T14:38:37Z</time>
      </trkpt>
      <trkpt lat="50.124" lon="4.13246">
        <ele>210.6</ele>
        <time>2024-04-29T14:38:38Z</time>
      </trkpt>
      <trkpt lat="50.12397" lon="4.13255">
        <ele>210.8</ele>
        <time>2024-04-29T14:38:39Z</time>
      </trkpt>
      <trkpt lat="50.12394" lon="4.13265">
        <ele>210.8</ele>
        <time>2024-04-29T14:38:40Z</time>
      </trkpt>
      <trkpt lat="50.12391" lon="4.13275">
        <ele>210.8</ele>
        <time>2024-04-29T14:38:41Z</time>
      </trkpt>
      <trkpt lat="50.12388" lon="4.13284">
        <ele>211</ele>
        <time>2024-04-29T14:38:42Z</time>
      </trkpt>
      <trkpt lat="50.12385" lon="4.13294">
        <ele>210.8</ele>
        <time>2024-04-29T14:38:43Z</time>
      </trkpt>
      <trkpt lat="50.12382" lon="4.13304">
        <ele>210.8</ele>
        <time>2024-04-29T14:38:44Z</time>
      </trkpt>
      <trkpt lat="50.12379" lon="4.13314">
        <ele>210.8</ele>
        <time>2024-04-29T14:38:45Z</time>
      </trkpt>
      <trkpt lat="50.12376" lon="4.13324">
        <ele>210.8</ele>
        <time>2024-04-29T14:38:46Z</time>
      </trkpt>
      <trkpt lat="50.12373" lon="4.13335">
        <ele>210.8</ele>
        <time>2024-04-29T14:38:47Z</time>
      </trkpt>
      <trkpt lat="50.12369" lon="4.13345">
        <ele>210.6</ele>
        <time>2024-04-29T14:38:48Z</time>
      </trkpt>
      <trkpt lat="50.12366" lon="4.13356">
        <ele>210.6</ele>
        <time>2024-04-29T14:38:49Z</time>
      </trkpt>
      <trkpt lat="50.12362" lon="4.13367">
        <ele>210.4</ele>
        <time>2024-04-29T14:38:50Z</time>
      </trkpt>
      <trkpt lat="50.12359" lon="4.13379">
        <ele>210.4</ele>
        <time>2024-04-29T14:38:51Z</time>
      </trkpt>
      <trkpt lat="50.12355" lon="4.13391">
        <ele>210.4</ele>
        <time>2024-04-29T14:38:52Z</time>
      </trkpt>
      <trkpt lat="50.12351" lon="4.13404">
        <ele>210.2</ele>
        <time>2024-04-29T14:38:53Z</time>
      </trkpt>
      <trkpt lat="50.12346" lon="4.13417">
        <ele>209.8</ele>
        <time>2024-04-29T14:38:54Z</time>
      </trkpt>
      <trkpt lat="50.12341" lon="4.1343">
        <ele>209.4</ele>
        <time>2024-04-29T14:38:55Z</time>
      </trkpt>
      <trkpt lat="50.12336" lon="4.13444">
        <ele>209</ele>
        <time>2024-04-29T14:38:56Z</time>
      </trkpt>
      <trkpt lat="50.1233" lon="4.13459">
        <ele>209</ele>
        <time>2024-04-29T14:38:57Z</time>
      </trkpt>
      <trkpt lat="50.12324" lon="4.13474">
        <ele>208.6</ele>
        <time>2024-04-29T14:38:58Z</time>
      </trkpt>
      <trkpt lat="50.12318" lon="4.13489">
        <ele>208.2</ele>
        <time>2024-04-29T14:38:59Z</time>
      </trkpt>
      <trkpt lat="50.12311" lon="4.13504">
        <ele>207.2</ele>
        <time>2024-04-29T14:39:00Z</time>
      </trkpt>
      <trkpt lat="50.12304" lon="4.1352">
        <ele>205.8</ele>
        <time>2024-04-29T14:39:01Z</time>
      </trkpt>
      <trkpt lat="50.12296" lon="4.13535">
        <ele>204.6</ele>
        <time>2024-04-29T14:39:02Z</time>
      </trkpt>
      <trkpt lat="50.12289" lon="4.13551">
        <ele>204.2</ele>
        <time>2024-04-29T14:39:03Z</time>
      </trkpt>
      <trkpt lat="50.12281" lon="4.13566">
        <ele>203.8</ele>
        <time>2024-04-29T14:39:04Z</time>
      </trkpt>
      <trkpt lat="50.12274" lon="4.13582">
        <ele>202.6</ele>
        <time>2024-04-29T14:39:05Z</time>
      </trkpt>
      <trkpt lat="50.12266" lon="4.13597">
        <ele>201.4</ele>
        <time>2024-04-29T14:39:06Z</time>
      </trkpt>
      <trkpt lat="50.12259" lon="4.13612">
        <ele>200</ele>
        <time>2024-04-29T14:39:07Z</time>
      </trkpt>
      <trkpt lat="50.12252" lon="4.13627">
        <ele>198.4</ele>
        <time>2024-04-29T14:39:08Z</time>
      </trkpt>
      <trkpt lat="50.12245" lon="4.13641">
        <ele>197.2</ele>
        <time>2024-04-29T14:39:09Z</time>
      </trkpt>
      <trkpt lat="50.12239" lon="4.13654">
        <ele>196.4</ele>
        <time>2024-04-29T14:39:10Z</time>
      </trkpt>
      <trkpt lat="50.12233" lon="4.13667">
        <ele>195.6</ele>
        <time>2024-04-29T14:39:11Z</time>
      </trkpt>
      <trkpt lat="50.12227" lon="4.13679">
        <ele>195.2</ele>
        <time>2024-04-29T14:39:12Z</time>
      </trkpt>
      <trkpt lat="50.12221" lon="4.13691">
        <ele>195</ele>
        <time>2024-04-29T14:39:13Z</time>
      </trkpt>
      <trkpt lat="50.12216" lon="4.13702">
        <ele>194.8</ele>
        <time>2024-04-29T14:39:14Z</time>
      </trkpt>
      <trkpt lat="50.12211" lon="4.13712">
        <ele>194.8</ele>
        <time>2024-04-29T14:39:15Z</time>
      </trkpt>
      <trkpt lat="50.12206" lon="4.13721">
        <ele>194.8</ele>
        <time>2024-04-29T14:39:16Z</time>
      </trkpt>
      <trkpt lat="50.12202" lon="4.1373">
        <ele>194.8</ele>
        <time>2024-04-29T14:39:17Z</time>
      </trkpt>
      <trkpt lat="50.12198" lon="4.13739">
        <ele>194.8</ele>
        <time>2024-04-29T14:39:18Z</time>
      </trkpt>
      <trkpt lat="50.12194" lon="4.13747">
        <ele>195</ele>
        <time>2024-04-29T14:39:19Z</time>
      </trkpt>
      <trkpt lat="50.12191" lon="4.13754">
        <ele>194.8</ele>
        <time>2024-04-29T14:39:20Z</time>
      </trkpt>
      <trkpt lat="50.12187" lon="4.13761">
        <ele>194.8</ele>
        <time>2024-04-29T14:39:21Z</time>
      </trkpt>
      <trkpt lat="50.12183" lon="4.13767">
        <ele>195.2</ele>
        <time>2024-04-29T14:39:22Z</time>
      </trkpt>
      <trkpt lat="50.1218" lon="4.13774">
        <ele>195.6</ele>
        <time>2024-04-29T14:39:23Z</time>
      </trkpt>
      <trkpt lat="50.12177" lon="4.1378">
        <ele>196.2</ele>
        <time>2024-04-29T14:39:24Z</time>
      </trkpt>
      <trkpt lat="50.12174" lon="4.13786">
        <ele>197.2</ele>
        <time>2024-04-29T14:39:25Z</time>
      </trkpt>
      <trkpt lat="50.12172" lon="4.13792">
        <ele>197.8</ele>
        <time>2024-04-29T14:39:26Z</time>
      </trkpt>
      <trkpt lat="50.1217" lon="4.13797">
        <ele>198.2</ele>
        <time>2024-04-29T14:39:27Z</time>
      </trkpt>
      <trkpt lat="50.12168" lon="4.13802">
        <ele>198.8</ele>
        <time>2024-04-29T14:39:28Z</time>
      </trkpt>
      <trkpt lat="50.12166" lon="4.13808">
        <ele>199.6</ele>
        <time>2024-04-29T14:39:29Z</time>
      </trkpt>
      <trkpt lat="50.12164" lon="4.13814">
        <ele>200.2</ele>
        <time>2024-04-29T14:39:30Z</time>
      </trkpt>
      <trkpt lat="50.12162" lon="4.13819">
        <ele>200.2</ele>
        <time>2024-04-29T14:39:31Z</time>
      </trkpt>
      <trkpt lat="50.1216" lon="4.13825">
        <ele>200.6</ele>
        <time>2024-04-29T14:39:32Z</time>
      </trkpt>
      <trkpt lat="50.12158" lon="4.13831">
        <ele>201</ele>
        <time>2024-04-29T14:39:33Z</time>
      </trkpt>
      <trkpt lat="50.12157" lon="4.13836">
        <ele>201.6</ele>
        <time>2024-04-29T14:39:34Z</time>
      </trkpt>
      <trkpt lat="50.12156" lon="4.13842">
        <ele>202.4</ele>
        <time>2024-04-29T14:39:35Z</time>
      </trkpt>
      <trkpt lat="50.12154" lon="4.13848">
        <ele>202.8</ele>
        <time>2024-04-29T14:39:36Z</time>
      </trkpt>
      <trkpt lat="50.12152" lon="4.13853">
        <ele>203.4</ele>
        <time>2024-04-29T14:39:37Z</time>
      </trkpt>
      <trkpt lat="50.12151" lon="4.13859">
        <ele>204.2</ele>
        <time>2024-04-29T14:39:38Z</time>
      </trkpt>
      <trkpt lat="50.1215" lon="4.13865">
        <ele>204.2</ele>
        <time>2024-04-29T14:39:39Z</time>
      </trkpt>
      <trkpt lat="50.12148" lon="4.1387">
        <ele>204.8</ele>
        <time>2024-04-29T14:39:40Z</time>
      </trkpt>
      <trkpt lat="50.12147" lon="4.13876">
        <ele>205.6</ele>
        <time>2024-04-29T14:39:41Z</time>
      </trkpt>
      <trkpt lat="50.12147" lon="4.13881">
        <ele>206.2</ele>
        <time>2024-04-29T14:39:42Z</time>
      </trkpt>
      <trkpt lat="50.12146" lon="4.13886">
        <ele>206.8</ele>
        <time>2024-04-29T14:39:43Z</time>
      </trkpt>
      <trkpt lat="50.12145" lon="4.13892">
        <ele>207.2</ele>
        <time>2024-04-29T14:39:44Z</time>
      </trkpt>
      <trkpt lat="50.12145" lon="4.13898">
        <ele>207.6</ele>
        <time>2024-04-29T14:39:45Z</time>
      </trkpt>
      <trkpt lat="50.12144" lon="4.13903">
        <ele>207.8</ele>
        <time>2024-04-29T14:39:46Z</time>
      </trkpt>
      <trkpt lat="50.12143" lon="4.13909">
        <ele>207.8</ele>
        <time>2024-04-29T14:39:47Z</time>
      </trkpt>
      <trkpt lat="50.12143" lon="4.13915">
        <ele>208.4</ele>
        <time>2024-04-29T14:39:48Z</time>
      </trkpt>
      <trkpt lat="50.12142" lon="4.13921">
        <ele>209</ele>
        <time>2024-04-29T14:39:49Z</time>
      </trkpt>
      <trkpt lat="50.12141" lon="4.13927">
        <ele>209.6</ele>
        <time>2024-04-29T14:39:50Z</time>
      </trkpt>
      <trkpt lat="50.1214" lon="4.13933">
        <ele>210.2</ele>
        <time>2024-04-29T14:39:51Z</time>
      </trkpt>
      <trkpt lat="50.12139" lon="4.1394">
        <ele>210.6</ele>
        <time>2024-04-29T14:39:52Z</time>
      </trkpt>
      <trkpt lat="50.12139" lon="4.13946">
        <ele>211.2</ele>
        <time>2024-04-29T14:39:53Z</time>
      </trkpt>
      <trkpt lat="50.12138" lon="4.13953">
        <ele>211.6</ele>
        <time>2024-04-29T14:39:54Z</time>
      </trkpt>
      <trkpt lat="50.12138" lon="4.13959">
        <ele>212.2</ele>
        <time>2024-04-29T14:39:55Z</time>
      </trkpt>
      <trkpt lat="50.12138" lon="4.13965">
        <ele>212.4</ele>
        <time>2024-04-29T14:39:56Z</time>
      </trkpt>
      <trkpt lat="50.12138" lon="4.13972">
        <ele>212.8</ele>
        <time>2024-04-29T14:39:57Z</time>
      </trkpt>
      <trkpt lat="50.12138" lon="4.13978">
        <ele>213</ele>
        <time>2024-04-29T14:39:58Z</time>
      </trkpt>
      <trkpt lat="50.12138" lon="4.13985">
        <ele>213</ele>
        <time>2024-04-29T14:39:59Z</time>
      </trkpt>
      <trkpt lat="50.12139" lon="4.13992">
        <ele>213.2</ele>
        <time>2024-04-29T14:40:00Z</time>
      </trkpt>
      <trkpt lat="50.12139" lon="4.13999">
        <ele>213.2</ele>
        <time>2024-04-29T14:40:01Z</time>
      </trkpt>
      <trkpt lat="50.1214" lon="4.14006">
        <ele>213.4</ele>
        <time>2024-04-29T14:40:02Z</time>
      </trkpt>
      <trkpt lat="50.12141" lon="4.14013">
        <ele>214</ele>
        <time>2024-04-29T14:40:03Z</time>
      </trkpt>
      <trkpt lat="50.12141" lon="4.14021">
        <ele>214.2</ele>
        <time>2024-04-29T14:40:04Z</time>
      </trkpt>
      <trkpt lat="50.12142" lon="4.14028">
        <ele>214.6</ele>
        <time>2024-04-29T14:40:05Z</time>
      </trkpt>
      <trkpt lat="50.12143" lon="4.14036">
        <ele>214.8</ele>
        <time>2024-04-29T14:40:06Z</time>
      </trkpt>
      <trkpt lat="50.12144" lon="4.14043">
        <ele>215</ele>
        <time>2024-04-29T14:40:07Z</time>
      </trkpt>
      <trkpt lat="50.12145" lon="4.14051">
        <ele>215.4</ele>
        <time>2024-04-29T14:40:08Z</time>
      </trkpt>
      <trkpt lat="50.12147" lon="4.14059">
        <ele>215.8</ele>
        <time>2024-04-29T14:40:09Z</time>
      </trkpt>
      <trkpt lat="50.12148" lon="4.14067">
        <ele>216</ele>
        <time>2024-04-29T14:40:10Z</time>
      </trkpt>
      <trkpt lat="50.1215" lon="4.14075">
        <ele>216</ele>
        <time>2024-04-29T14:40:11Z</time>
      </trkpt>
      <trkpt lat="50.12151" lon="4.14084">
        <ele>216</ele>
        <time>2024-04-29T14:40:12Z</time>
      </trkpt>
      <trkpt lat="50.12153" lon="4.14092">
        <ele>216</ele>
        <time>2024-04-29T14:40:13Z</time>
      </trkpt>
      <trkpt lat="50.12156" lon="4.14101">
        <ele>216</ele>
        <time>2024-04-29T14:40:14Z</time>
      </trkpt>
      <trkpt lat="50.12158" lon="4.1411">
        <ele>216</ele>
        <time>2024-04-29T14:40:15Z</time>
      </trkpt>
      <trkpt lat="50.12161" lon="4.14119">
        <ele>216.2</ele>
        <time>2024-04-29T14:40:16Z</time>
      </trkpt>
      <trkpt lat="50.12164" lon="4.14129">
        <ele>216.2</ele>
        <time>2024-04-29T14:40:17Z</time>
      </trkpt>
      <trkpt lat="50.12167" lon="4.14139">
        <ele>216.2</ele>
        <time>2024-04-29T14:40:18Z</time>
      </trkpt>
      <trkpt lat="50.12171" lon="4.14148">
        <ele>216.4</ele>
        <time>2024-04-29T14:40:19Z</time>
      </trkpt>
      <trkpt lat="50.12174" lon="4.14158">
        <ele>216.2</ele>
        <time>2024-04-29T14:40:20Z</time>
      </trkpt>
      <trkpt lat="50.12178" lon="4.14168">
        <ele>216.2</ele>
        <time>2024-04-29T14:40:21Z</time>
      </trkpt>
      <trkpt lat="50.12183" lon="4.14177">
        <ele>216</ele>
        <time>2024-04-29T14:40:22Z</time>
      </trkpt>
      <trkpt lat="50.12187" lon="4.14187">
        <ele>216</ele>
        <time>2024-04-29T14:40:23Z</time>
      </trkpt>
      <trkpt lat="50.12192" lon="4.14197">
        <ele>216</ele>
        <time>2024-04-29T14:40:24Z</time>
      </trkpt>
      <trkpt lat="50.12197" lon="4.14207">
        <ele>216</ele>
        <time>2024-04-29T14:40:25Z</time>
      </trkpt>
      <trkpt lat="50.12202" lon="4.14217">
        <ele>215.8</ele>
        <time>2024-04-29T14:40:26Z</time>
      </trkpt>
      <trkpt lat="50.12207" lon="4.14229">
        <ele>215.6</ele>
        <time>2024-04-29T14:40:27Z</time>
      </trkpt>
      <trkpt lat="50.12213" lon="4.14241">
        <ele>215.6</ele>
        <time>2024-04-29T14:40:28Z</time>
      </trkpt>
      <trkpt lat="50.12219" lon="4.14253">
        <ele>215.6</ele>
        <time>2024-04-29T14:40:29Z</time>
      </trkpt>
      <trkpt lat="50.12225" lon="4.14267">
        <ele>215</ele>
        <time>2024-04-29T14:40:30Z</time>
      </trkpt>
      <trkpt lat="50.12231" lon="4.14281">
        <ele>214.4</ele>
        <time>2024-04-29T14:40:31Z</time>
      </trkpt>
      <trkpt lat="50.12237" lon="4.14295">
        <ele>213.8</ele>
        <time>2024-04-29T14:40:32Z</time>
      </trkpt>
      <trkpt lat="50.12244" lon="4.1431">
        <ele>213.4</ele>
        <time>2024-04-29T14:40:33Z</time>
      </trkpt>
      <trkpt lat="50.12251" lon="4.14325">
        <ele>213.4</ele>
        <time>2024-04-29T14:40:34Z</time>
      </trkpt>
      <trkpt lat="50.12257" lon="4.14339">
        <ele>213.2</ele>
        <time>2024-04-29T14:40:35Z</time>
      </trkpt>
      <trkpt lat="50.12264" lon="4.14354">
        <ele>212.8</ele>
        <time>2024-04-29T14:40:36Z</time>
      </trkpt>
      <trkpt lat="50.12271" lon="4.14369">
        <ele>211.8</ele>
        <time>2024-04-29T14:40:37Z</time>
      </trkpt>
      <trkpt lat="50.12277" lon="4.14383">
        <ele>210.4</ele>
        <time>2024-04-29T14:40:38Z</time>
      </trkpt>
      <trkpt lat="50.12283" lon="4.14396">
        <ele>209.4</ele>
        <time>2024-04-29T14:40:39Z</time>
      </trkpt>
      <trkpt lat="50.12289" lon="4.1441">
        <ele>208</ele>
        <time>2024-04-29T14:40:40Z</time>
      </trkpt>
      <trkpt lat="50.12295" lon="4.14423">
        <ele>206.6</ele>
        <time>2024-04-29T14:40:41Z</time>
      </trkpt>
      <trkpt lat="50.12301" lon="4.14436">
        <ele>205.8</ele>
        <time>2024-04-29T14:40:42Z</time>
      </trkpt>
      <trkpt lat="50.12306" lon="4.14447">
        <ele>205.6</ele>
        <time>2024-04-29T14:40:43Z</time>
      </trkpt>
      <trkpt lat="50.12311" lon="4.14458">
        <ele>205.2</ele>
        <time>2024-04-29T14:40:44Z</time>
      </trkpt>
      <trkpt lat="50.12315" lon="4.14469">
        <ele>205.2</ele>
        <time>2024-04-29T14:40:45Z</time>
      </trkpt>
      <trkpt lat="50.12319" lon="4.14479">
        <ele>205.2</ele>
        <time>2024-04-29T14:40:46Z</time>
      </trkpt>
      <trkpt lat="50.12323" lon="4.14488">
        <ele>205.2</ele>
        <time>2024-04-29T14:40:47Z</time>
      </trkpt>
      <trkpt lat="50.12327" lon="4.14496">
        <ele>205</ele>
        <time>2024-04-29T14:40:48Z</time>
      </trkpt>
      <trkpt lat="50.12331" lon="4.14505">
        <ele>205.2</ele>
        <time>2024-04-29T14:40:49Z</time>
      </trkpt>
      <trkpt lat="50.12335" lon="4.14513">
        <ele>205.2</ele>
        <time>2024-04-29T14:40:50Z</time>
      </trkpt>
      <trkpt lat="50.12338" lon="4.1452">
        <ele>205</ele>
        <time>2024-04-29T14:40:51Z</time>
      </trkpt>
      <trkpt lat="50.12342" lon="4.14528">
        <ele>205.2</ele>
        <time>2024-04-29T14:40:52Z</time>
      </trkpt>
      <trkpt lat="50.12345" lon="4.14536">
        <ele>205.6</ele>
        <time>2024-04-29T14:40:53Z</time>
      </trkpt>
      <trkpt lat="50.12349" lon="4.14544">
        <ele>206.2</ele>
        <time>2024-04-29T14:40:54Z</time>
      </trkpt>
      <trkpt lat="50.12352" lon="4.14551">
        <ele>206.6</ele>
        <time>2024-04-29T14:40:55Z</time>
      </trkpt>
      <trkpt lat="50.12355" lon="4.14559">
        <ele>207.4</ele>
        <time>2024-04-29T14:40:56Z</time>
      </trkpt>
      <trkpt lat="50.12358" lon="4.14566">
        <ele>208</ele>
        <time>2024-04-29T14:40:57Z</time>
      </trkpt>
      <trkpt lat="50.12361" lon="4.14573">
        <ele>208.2</ele>
        <time>2024-04-29T14:40:58Z</time>
      </trkpt>
      <trkpt lat="50.12364" lon="4.1458">
        <ele>208.4</ele>
        <time>2024-04-29T14:40:59Z</time>
      </trkpt>
      <trkpt lat="50.12368" lon="4.14587">
        <ele>208.6</ele>
        <time>2024-04-29T14:41:00Z</time>
      </trkpt>
      <trkpt lat="50.12371" lon="4.14594">
        <ele>209</ele>
        <time>2024-04-29T14:41:01Z</time>
      </trkpt>
      <trkpt lat="50.12374" lon="4.14601">
        <ele>209.2</ele>
        <time>2024-04-29T14:41:02Z</time>
      </trkpt>
      <trkpt lat="50.12378" lon="4.14608">
        <ele>209.6</ele>
        <time>2024-04-29T14:41:03Z</time>
      </trkpt>
      <trkpt lat="50.12382" lon="4.14616">
        <ele>209.8</ele>
        <time>2024-04-29T14:41:04Z</time>
      </trkpt>
      <trkpt lat="50.12385" lon="4.14623">
        <ele>210</ele>
        <time>2024-04-29T14:41:05Z</time>
      </trkpt>
      <trkpt lat="50.12389" lon="4.1463">
        <ele>210.6</ele>
        <time>2024-04-29T14:41:06Z</time>
      </trkpt>
      <trkpt lat="50.12393" lon="4.14637">
        <ele>210.6</ele>
        <time>2024-04-29T14:41:07Z</time>
      </trkpt>
      <trkpt lat="50.12397" lon="4.14645">
        <ele>211.2</ele>
        <time>2024-04-29T14:41:08Z</time>
      </trkpt>
      <trkpt lat="50.124" lon="4.14653">
        <ele>211.6</ele>
        <time>2024-04-29T14:41:09Z</time>
      </trkpt>
      <trkpt lat="50.12404" lon="4.1466">
        <ele>211.8</ele>
        <time>2024-04-29T14:41:10Z</time>
      </trkpt>
      <trkpt lat="50.12408" lon="4.14668">
        <ele>212.2</ele>
        <time>2024-04-29T14:41:11Z</time>
      </trkpt>
      <trkpt lat="50.12413" lon="4.14676">
        <ele>212.4</ele>
        <time>2024-04-29T14:41:12Z</time>
      </trkpt>
      <trkpt lat="50.12417" lon="4.14684">
        <ele>212.4</ele>
        <time>2024-04-29T14:41:13Z</time>
      </trkpt>
      <trkpt lat="50.12422" lon="4.14691">
        <ele>212.6</ele>
        <time>2024-04-29T14:41:14Z</time>
      </trkpt>
      <trkpt lat="50.12427" lon="4.14698">
        <ele>212.8</ele>
        <time>2024-04-29T14:41:15Z</time>
      </trkpt>
      <trkpt lat="50.12432" lon="4.14705">
        <ele>213</ele>
        <time>2024-04-29T14:41:16Z</time>
      </trkpt>
      <trkpt lat="50.12438" lon="4.14712">
        <ele>213</ele>
        <time>2024-04-29T14:41:17Z</time>
      </trkpt>
      <trkpt lat="50.12443" lon="4.14718">
        <ele>213.2</ele>
        <time>2024-04-29T14:41:18Z</time>
      </trkpt>
      <trkpt lat="50.1245" lon="4.14724">
        <ele>213.2</ele>
        <time>2024-04-29T14:41:19Z</time>
      </trkpt>
      <trkpt lat="50.12456" lon="4.14729">
        <ele>213.2</ele>
        <time>2024-04-29T14:41:20Z</time>
      </trkpt>
      <trkpt lat="50.12462" lon="4.14734">
        <ele>213.2</ele>
        <time>2024-04-29T14:41:21Z</time>
      </trkpt>
      <trkpt lat="50.12468" lon="4.1474">
        <ele>213</ele>
        <time>2024-04-29T14:41:22Z</time>
      </trkpt>
      <trkpt lat="50.12475" lon="4.14745">
        <ele>213</ele>
        <time>2024-04-29T14:41:23Z</time>
      </trkpt>
      <trkpt lat="50.12481" lon="4.14751">
        <ele>213.2</ele>
        <time>2024-04-29T14:41:24Z</time>
      </trkpt>
      <trkpt lat="50.12487" lon="4.14757">
        <ele>213</ele>
        <time>2024-04-29T14:41:25Z</time>
      </trkpt>
      <trkpt lat="50.12494" lon="4.14764">
        <ele>213</ele>
        <time>2024-04-29T14:41:26Z</time>
      </trkpt>
      <trkpt lat="50.125" lon="4.14771">
        <ele>213</ele>
        <time>2024-04-29T14:41:27Z</time>
      </trkpt>
      <trkpt lat="50.12506" lon="4.14779">
        <ele>212.8</ele>
        <time>2024-04-29T14:41:28Z</time>
      </trkpt>
      <trkpt lat="50.12511" lon="4.14789">
        <ele>212.8</ele>
        <time>2024-04-29T14:41:29Z</time>
      </trkpt>
      <trkpt lat="50.12515" lon="4.148">
        <ele>212.6</ele>
        <time>2024-04-29T14:41:30Z</time>
      </trkpt>
      <trkpt lat="50.12518" lon="4.14813">
        <ele>212.2</ele>
        <time>2024-04-29T14:41:31Z</time>
      </trkpt>
      <trkpt lat="50.12521" lon="4.14826">
        <ele>212</ele>
        <time>2024-04-29T14:41:32Z</time>
      </trkpt>
      <trkpt lat="50.12524" lon="4.14839">
        <ele>211.4</ele>
        <time>2024-04-29T14:41:33Z</time>
      </trkpt>
      <trkpt lat="50.12526" lon="4.14853">
        <ele>211</ele>
        <time>2024-04-29T14:41:34Z</time>
      </trkpt>
      <trkpt lat="50.12529" lon="4.14867">
        <ele>210.2</ele>
        <time>2024-04-29T14:41:35Z</time>
      </trkpt>
      <trkpt lat="50.12532" lon="4.14881">
        <ele>209.6</ele>
        <time>2024-04-29T14:41:36Z</time>
      </trkpt>
      <trkpt lat="50.12535" lon="4.14896">
        <ele>209</ele>
        <time>2024-04-29T14:41:37Z</time>
      </trkpt>
      <trkpt lat="50.12538" lon="4.14911">
        <ele>208.6</ele>
        <time>2024-04-29T14:41:38Z</time>
      </trkpt>
      <trkpt lat="50.12541" lon="4.14926">
        <ele>207.8</ele>
        <time>2024-04-29T14:41:39Z</time>
      </trkpt>
      <trkpt lat="50.12543" lon="4.14941">
        <ele>207.4</ele>
        <time>2024-04-29T14:41:40Z</time>
      </trkpt>
      <trkpt lat="50.12546" lon="4.14957">
        <ele>207.2</ele>
        <time>2024-04-29T14:41:41Z</time>
      </trkpt>
      <trkpt lat="50.12548" lon="4.14974">
        <ele>206.6</ele>
        <time>2024-04-29T14:41:42Z</time>
      </trkpt>
      <trkpt lat="50.12548" lon="4.14991">
        <ele>205.8</ele>
        <time>2024-04-29T14:41:43Z</time>
      </trkpt>
      <trkpt lat="50.12547" lon="4.15009">
        <ele>205.2</ele>
        <time>2024-04-29T14:41:44Z</time>
      </trkpt>
      <trkpt lat="50.12545" lon="4.15026">
        <ele>204.6</ele>
        <time>2024-04-29T14:41:45Z</time>
      </trkpt>
      <trkpt lat="50.12541" lon="4.15043">
        <ele>204.2</ele>
        <time>2024-04-29T14:41:46Z</time>
      </trkpt>
      <trkpt lat="50.12536" lon="4.1506">
        <ele>203.2</ele>
        <time>2024-04-29T14:41:47Z</time>
      </trkpt>
      <trkpt lat="50.1253" lon="4.15075">
        <ele>202.6</ele>
        <time>2024-04-29T14:41:48Z</time>
      </trkpt>
      <trkpt lat="50.12524" lon="4.15091">
        <ele>201.8</ele>
        <time>2024-04-29T14:41:49Z</time>
      </trkpt>
      <trkpt lat="50.12517" lon="4.15106">
        <ele>200.6</ele>
        <time>2024-04-29T14:41:50Z</time>
      </trkpt>
      <trkpt lat="50.12511" lon="4.15122">
        <ele>200.6</ele>
        <time>2024-04-29T14:41:51Z</time>
      </trkpt>
      <trkpt lat="50.12504" lon="4.15137">
        <ele>199</ele>
        <time>2024-04-29T14:41:52Z</time>
      </trkpt>
      <trkpt lat="50.12497" lon="4.15151">
        <ele>197.6</ele>
        <time>2024-04-29T14:41:53Z</time>
      </trkpt>
      <trkpt lat="50.12489" lon="4.15165">
        <ele>196.8</ele>
        <time>2024-04-29T14:41:54Z</time>
      </trkpt>
      <trkpt lat="50.1248" lon="4.15179">
        <ele>196.2</ele>
        <time>2024-04-29T14:41:55Z</time>
      </trkpt>
      <trkpt lat="50.12471" lon="4.15192">
        <ele>194.2</ele>
        <time>2024-04-29T14:41:56Z</time>
      </trkpt>
      <trkpt lat="50.12461" lon="4.15205">
        <ele>192.8</ele>
        <time>2024-04-29T14:41:57Z</time>
      </trkpt>
      <trkpt lat="50.12451" lon="4.15217">
        <ele>192</ele>
        <time>2024-04-29T14:41:58Z</time>
      </trkpt>
      <trkpt lat="50.1244" lon="4.15229">
        <ele>191.4</ele>
        <time>2024-04-29T14:41:59Z</time>
      </trkpt>
      <trkpt lat="50.1243" lon="4.15241">
        <ele>191</ele>
        <time>2024-04-29T14:42:00Z</time>
      </trkpt>
      <trkpt lat="50.12419" lon="4.15253">
        <ele>190.4</ele>
        <time>2024-04-29T14:42:01Z</time>
      </trkpt>
      <trkpt lat="50.12409" lon="4.15265">
        <ele>190</ele>
        <time>2024-04-29T14:42:02Z</time>
      </trkpt>
      <trkpt lat="50.12398" lon="4.15278">
        <ele>189.2</ele>
        <time>2024-04-29T14:42:03Z</time>
      </trkpt>
      <trkpt lat="50.12387" lon="4.1529">
        <ele>186.4</ele>
        <time>2024-04-29T14:42:04Z</time>
      </trkpt>
      <trkpt lat="50.12377" lon="4.15302">
        <ele>185</ele>
        <time>2024-04-29T14:42:05Z</time>
      </trkpt>
      <trkpt lat="50.12366" lon="4.15314">
        <ele>183.8</ele>
        <time>2024-04-29T14:42:06Z</time>
      </trkpt>
      <trkpt lat="50.12356" lon="4.15326">
        <ele>182.8</ele>
        <time>2024-04-29T14:42:07Z</time>
      </trkpt>
      <trkpt lat="50.12347" lon="4.15338">
        <ele>182.2</ele>
        <time>2024-04-29T14:42:08Z</time>
      </trkpt>
      <trkpt lat="50.12338" lon="4.1535">
        <ele>181</ele>
        <time>2024-04-29T14:42:09Z</time>
      </trkpt>
      <trkpt lat="50.12329" lon="4.15361">
        <ele>179.6</ele>
        <time>2024-04-29T14:42:10Z</time>
      </trkpt>
      <trkpt lat="50.12321" lon="4.15373">
        <ele>178.4</ele>
        <time>2024-04-29T14:42:11Z</time>
      </trkpt>
      <trkpt lat="50.12314" lon="4.15385">
        <ele>177.4</ele>
        <time>2024-04-29T14:42:12Z</time>
      </trkpt>
      <trkpt lat="50.12307" lon="4.15396">
        <ele>177.4</ele>
        <time>2024-04-29T14:42:13Z</time>
      </trkpt>
      <trkpt lat="50.12301" lon="4.15407">
        <ele>177</ele>
        <time>2024-04-29T14:42:14Z</time>
      </trkpt>
      <trkpt lat="50.12295" lon="4.15417">
        <ele>176.8</ele>
        <time>2024-04-29T14:42:15Z</time>
      </trkpt>
      <trkpt lat="50.1229" lon="4.15427">
        <ele>176.6</ele>
        <time>2024-04-29T14:42:16Z</time>
      </trkpt>
      <trkpt lat="50.12285" lon="4.15436">
        <ele>176.8</ele>
        <time>2024-04-29T14:42:17Z</time>
      </trkpt>
      <trkpt lat="50.12281" lon="4.15445">
        <ele>176.6</ele>
        <time>2024-04-29T14:42:18Z</time>
      </trkpt>
      <trkpt lat="50.12277" lon="4.15454">
        <ele>176.6</ele>
        <time>2024-04-29T14:42:19Z</time>
      </trkpt>
      <trkpt lat="50.12273" lon="4.15462">
        <ele>176.6</ele>
        <time>2024-04-29T14:42:20Z</time>
      </trkpt>
      <trkpt lat="50.12269" lon="4.1547">
        <ele>176.6</ele>
        <time>2024-04-29T14:42:21Z</time>
      </trkpt>
      <trkpt lat="50.12265" lon="4.15478">
        <ele>176.4</ele>
        <time>2024-04-29T14:42:22Z</time>
      </trkpt>
      <trkpt lat="50.12262" lon="4.15485">
        <ele>177</ele>
        <time>2024-04-29T14:42:23Z</time>
      </trkpt>
      <trkpt lat="50.12259" lon="4.15492">
        <ele>177.4</ele>
        <time>2024-04-29T14:42:24Z</time>
      </trkpt>
      <trkpt lat="50.12255" lon="4.15499">
        <ele>177.4</ele>
        <time>2024-04-29T14:42:25Z</time>
      </trkpt>
      <trkpt lat="50.12252" lon="4.15506">
        <ele>177.8</ele>
        <time>2024-04-29T14:42:26Z</time>
      </trkpt>
      <trkpt lat="50.1225" lon="4.15513">
        <ele>178</ele>
        <time>2024-04-29T14:42:27Z</time>
      </trkpt>
      <trkpt lat="50.12247" lon="4.1552">
        <ele>178.6</ele>
        <time>2024-04-29T14:42:28Z</time>
      </trkpt>
      <trkpt lat="50.12245" lon="4.15527">
        <ele>179.2</ele>
        <time>2024-04-29T14:42:29Z</time>
      </trkpt>
      <trkpt lat="50.12243" lon="4.15534">
        <ele>179.6</ele>
        <time>2024-04-29T14:42:30Z</time>
      </trkpt>
      <trkpt lat="50.12241" lon="4.15541">
        <ele>180</ele>
        <time>2024-04-29T14:42:31Z</time>
      </trkpt>
      <trkpt lat="50.12239" lon="4.15548">
        <ele>180.4</ele>
        <time>2024-04-29T14:42:32Z</time>
      </trkpt>
      <trkpt lat="50.12237" lon="4.15555">
        <ele>181.8</ele>
        <time>2024-04-29T14:42:33Z</time>
      </trkpt>
      <trkpt lat="50.12236" lon="4.15562">
        <ele>182.8</ele>
        <time>2024-04-29T14:42:34Z</time>
      </trkpt>
      <trkpt lat="50.12234" lon="4.15568">
        <ele>182.8</ele>
        <time>2024-04-29T14:42:35Z</time>
      </trkpt>
      <trkpt lat="50.12233" lon="4.15575">
        <ele>183.6</ele>
        <time>2024-04-29T14:42:36Z</time>
      </trkpt>
      <trkpt lat="50.12232" lon="4.15582">
        <ele>184</ele>
        <time>2024-04-29T14:42:37Z</time>
      </trkpt>
      <trkpt lat="50.12231" lon="4.15589">
        <ele>184.2</ele>
        <time>2024-04-29T14:42:38Z</time>
      </trkpt>
      <trkpt lat="50.1223" lon="4.15596">
        <ele>184.4</ele>
        <time>2024-04-29T14:42:39Z</time>
      </trkpt>
      <trkpt lat="50.12229" lon="4.15602">
        <ele>184.8</ele>
        <time>2024-04-29T14:42:40Z</time>
      </trkpt>
      <trkpt lat="50.12228" lon="4.15609">
        <ele>185</ele>
        <time>2024-04-29T14:42:41Z</time>
      </trkpt>
      <trkpt lat="50.12227" lon="4.15615">
        <ele>185.2</ele>
        <time>2024-04-29T14:42:42Z</time>
      </trkpt>
      <trkpt lat="50.12227" lon="4.15622">
        <ele>185.4</ele>
        <time>2024-04-29T14:42:43Z</time>
      </trkpt>
      <trkpt lat="50.12226" lon="4.15628">
        <ele>185.8</ele>
        <time>2024-04-29T14:42:44Z</time>
      </trkpt>
      <trkpt lat="50.12225" lon="4.15635">
        <ele>186</ele>
        <time>2024-04-29T14:42:45Z</time>
      </trkpt>
      <trkpt lat="50.12224" lon="4.15641">
        <ele>186</ele>
        <time>2024-04-29T14:42:46Z</time>
      </trkpt>
      <trkpt lat="50.12223" lon="4.15647">
        <ele>186.4</ele>
        <time>2024-04-29T14:42:47Z</time>
      </trkpt>
      <trkpt lat="50.12222" lon="4.15653">
        <ele>186.6</ele>
        <time>2024-04-29T14:42:48Z</time>
      </trkpt>
      <trkpt lat="50.1222" lon="4.15659">
        <ele>186.8</ele>
        <time>2024-04-29T14:42:49Z</time>
      </trkpt>
      <trkpt lat="50.12219" lon="4.15665">
        <ele>187</ele>
        <time>2024-04-29T14:42:50Z</time>
      </trkpt>
      <trkpt lat="50.12218" lon="4.15671">
        <ele>187.2</ele>
        <time>2024-04-29T14:42:51Z</time>
      </trkpt>
      <trkpt lat="50.12217" lon="4.15677">
        <ele>187.6</ele>
        <time>2024-04-29T14:42:52Z</time>
      </trkpt>
      <trkpt lat="50.12215" lon="4.15683">
        <ele>188.4</ele>
        <time>2024-04-29T14:42:53Z</time>
      </trkpt>
      <trkpt lat="50.12214" lon="4.15689">
        <ele>188.8</ele>
        <time>2024-04-29T14:42:54Z</time>
      </trkpt>
      <trkpt lat="50.12213" lon="4.15694">
        <ele>189.4</ele>
        <time>2024-04-29T14:42:55Z</time>
      </trkpt>
      <trkpt lat="50.12211" lon="4.157">
        <ele>189.8</ele>
        <time>2024-04-29T14:42:56Z</time>
      </trkpt>
      <trkpt lat="50.1221" lon="4.15706">
        <ele>190.2</ele>
        <time>2024-04-29T14:42:57Z</time>
      </trkpt>
      <trkpt lat="50.12209" lon="4.15712">
        <ele>190.6</ele>
        <time>2024-04-29T14:42:58Z</time>
      </trkpt>
      <trkpt lat="50.12207" lon="4.15718">
        <ele>191</ele>
        <time>2024-04-29T14:42:59Z</time>
      </trkpt>
      <trkpt lat="50.12206" lon="4.15724">
        <ele>191.6</ele>
        <time>2024-04-29T14:43:00Z</time>
      </trkpt>
      <trkpt lat="50.12204" lon="4.15729">
        <ele>191.6</ele>
        <time>2024-04-29T14:43:01Z</time>
      </trkpt>
      <trkpt lat="50.12203" lon="4.15735">
        <ele>192.2</ele>
        <time>2024-04-29T14:43:02Z</time>
      </trkpt>
      <trkpt lat="50.12201" lon="4.15741">
        <ele>192.6</ele>
        <time>2024-04-29T14:43:03Z</time>
      </trkpt>
      <trkpt lat="50.122" lon="4.15747">
        <ele>193</ele>
        <time>2024-04-29T14:43:04Z</time>
      </trkpt>
      <trkpt lat="50.12198" lon="4.15752">
        <ele>193.4</ele>
        <time>2024-04-29T14:43:05Z</time>
      </trkpt>
      <trkpt lat="50.12196" lon="4.15758">
        <ele>193.6</ele>
        <time>2024-04-29T14:43:06Z</time>
      </trkpt>
      <trkpt lat="50.12195" lon="4.15764">
        <ele>194</ele>
        <time>2024-04-29T14:43:07Z</time>
      </trkpt>
      <trkpt lat="50.12193" lon="4.1577">
        <ele>194.4</ele>
        <time>2024-04-29T14:43:08Z</time>
      </trkpt>
      <trkpt lat="50.12192" lon="4.15776">
        <ele>194.4</ele>
        <time>2024-04-29T14:43:09Z</time>
      </trkpt>
      <trkpt lat="50.1219" lon="4.15782">
        <ele>194.8</ele>
        <time>2024-04-29T14:43:10Z</time>
      </trkpt>
      <trkpt lat="50.12188" lon="4.15788">
        <ele>195</ele>
        <time>2024-04-29T14:43:11Z</time>
      </trkpt>
      <trkpt lat="50.12187" lon="4.15794">
        <ele>195.4</ele>
        <time>2024-04-29T14:43:12Z</time>
      </trkpt>
      <trkpt lat="50.12185" lon="4.158">
        <ele>196</ele>
        <time>2024-04-29T14:43:13Z</time>
      </trkpt>
      <trkpt lat="50.12183" lon="4.15806">
        <ele>196</ele>
        <time>2024-04-29T14:43:14Z</time>
      </trkpt>
      <trkpt lat="50.12182" lon="4.15812">
        <ele>196.2</ele>
        <time>2024-04-29T14:43:15Z</time>
      </trkpt>
      <trkpt lat="50.1218" lon="4.15819">
        <ele>196.6</ele>
        <time>2024-04-29T14:43:16Z</time>
      </trkpt>
      <trkpt lat="50.12178" lon="4.15825">
        <ele>196.6</ele>
        <time>2024-04-29T14:43:17Z</time>
      </trkpt>
      <trkpt lat="50.12176" lon="4.15832">
        <ele>197</ele>
        <time>2024-04-29T14:43:18Z</time>
      </trkpt>
      <trkpt lat="50.12174" lon="4.15839">
        <ele>197.8</ele>
        <time>2024-04-29T14:43:19Z</time>
      </trkpt>
      <trkpt lat="50.12172" lon="4.15846">
        <ele>198.4</ele>
        <time>2024-04-29T14:43:20Z</time>
      </trkpt>
      <trkpt lat="50.1217" lon="4.15853">
        <ele>198.6</ele>
        <time>2024-04-29T14:43:21Z</time>
      </trkpt>
      <trkpt lat="50.12168" lon="4.15861">
        <ele>198.8</ele>
        <time>2024-04-29T14:43:22Z</time>
      </trkpt>
      <trkpt lat="50.12165" lon="4.1587">
        <ele>199</ele>
        <time>2024-04-29T14:43:23Z</time>
      </trkpt>
      <trkpt lat="50.12163" lon="4.15878">
        <ele>199</ele>
        <time>2024-04-29T14:43:24Z</time>
      </trkpt>
      <trkpt lat="50.12161" lon="4.15888">
        <ele>199.2</ele>
        <time>2024-04-29T14:43:25Z</time>
      </trkpt>
      <trkpt lat="50.12159" lon="4.15898">
        <ele>199.2</ele>
        <time>2024-04-29T14:43:26Z</time>
      </trkpt>
      <trkpt lat="50.12158" lon="4.15909">
        <ele>199.2</ele>
        <time>2024-04-29T14:43:27Z</time>
      </trkpt>
      <trkpt lat="50.12157" lon="4.1592">
        <ele>199.4</ele>
        <time>2024-04-29T14:43:28Z</time>
      </trkpt>
      <trkpt lat="50.12156" lon="4.15932">
        <ele>199.2</ele>
        <time>2024-04-29T14:43:29Z</time>
      </trkpt>
      <trkpt lat="50.12157" lon="4.15944">
        <ele>199.4</ele>
        <time>2024-04-29T14:43:30Z</time>
      </trkpt>
      <trkpt lat="50.12158" lon="4.15956">
        <ele>199.4</ele>
        <time>2024-04-29T14:43:31Z</time>
      </trkpt>
      <trkpt lat="50.12161" lon="4.15969">
        <ele>199.4</ele>
        <time>2024-04-29T14:43:32Z</time>
      </trkpt>
      <trkpt lat="50.12164" lon="4.15981">
        <ele>199.4</ele>
        <time>2024-04-29T14:43:33Z</time>
      </trkpt>
      <trkpt lat="50.12169" lon="4.15993">
        <ele>199.2</ele>
        <time>2024-04-29T14:43:34Z</time>
      </trkpt>
      <trkpt lat="50.12174" lon="4.16005">
        <ele>199</ele>
        <time>2024-04-29T14:43:35Z</time>
      </trkpt>
      <trkpt lat="50.1218" lon="4.16016">
        <ele>198.6</ele>
        <time>2024-04-29T14:43:36Z</time>
      </trkpt>
      <trkpt lat="50.12186" lon="4.16026">
        <ele>198.4</ele>
        <time>2024-04-29T14:43:37Z</time>
      </trkpt>
      <trkpt lat="50.12193" lon="4.16036">
        <ele>198.2</ele>
        <time>2024-04-29T14:43:38Z</time>
      </trkpt>
      <trkpt lat="50.12199" lon="4.16046">
        <ele>198</ele>
        <time>2024-04-29T14:43:39Z</time>
      </trkpt>
      <trkpt lat="50.12205" lon="4.16056">
        <ele>197.6</ele>
        <time>2024-04-29T14:43:40Z</time>
      </trkpt>
      <trkpt lat="50.12212" lon="4.16065">
        <ele>196.8</ele>
        <time>2024-04-29T14:43:41Z</time>
      </trkpt>
      <trkpt lat="50.12218" lon="4.16075">
        <ele>196.2</ele>
        <time>2024-04-29T14:43:42Z</time>
      </trkpt>
      <trkpt lat="50.12224" lon="4.16084">
        <ele>195.6</ele>
        <time>2024-04-29T14:43:43Z</time>
      </trkpt>
      <trkpt lat="50.12229" lon="4.16093">
        <ele>195.2</ele>
        <time>2024-04-29T14:43:44Z</time>
      </trkpt>
      <trkpt lat="50.12235" lon="4.16102">
        <ele>194.8</ele>
        <time>2024-04-29T14:43:45Z</time>
      </trkpt>
      <trkpt lat="50.12241" lon="4.16112">
        <ele>194.8</ele>
        <time>2024-04-29T14:43:46Z</time>
      </trkpt>
      <trkpt lat="50.12247" lon="4.16121">
        <ele>194.6</ele>
        <time>2024-04-29T14:43:47Z</time>
      </trkpt>
      <trkpt lat="50.12252" lon="4.16129">
        <ele>194.4</ele>
        <time>2024-04-29T14:43:48Z</time>
      </trkpt>
      <trkpt lat="50.12258" lon="4.16138">
        <ele>194.2</ele>
        <time>2024-04-29T14:43:49Z</time>
      </trkpt>
      <trkpt lat="50.12264" lon="4.16147">
        <ele>194.2</ele>
        <time>2024-04-29T14:43:50Z</time>
      </trkpt>
      <trkpt lat="50.12269" lon="4.16156">
        <ele>194</ele>
        <time>2024-04-29T14:43:51Z</time>
      </trkpt>
      <trkpt lat="50.12275" lon="4.16165">
        <ele>193.8</ele>
        <time>2024-04-29T14:43:52Z</time>
      </trkpt>
      <trkpt lat="50.12281" lon="4.16175">
        <ele>193.8</ele>
        <time>2024-04-29T14:43:53Z</time>
      </trkpt>
      <trkpt lat="50.12287" lon="4.16184">
        <ele>194</ele>
        <time>2024-04-29T14:43:54Z</time>
      </trkpt>
      <trkpt lat="50.12293" lon="4.16194">
        <ele>193.8</ele>
        <time>2024-04-29T14:43:55Z</time>
      </trkpt>
      <trkpt lat="50.12299" lon="4.16205">
        <ele>193.6</ele>
        <time>2024-04-29T14:43:56Z</time>
      </trkpt>
      <trkpt lat="50.12305" lon="4.16216">
        <ele>193.6</ele>
        <time>2024-04-29T14:43:57Z</time>
      </trkpt>
      <trkpt lat="50.12309" lon="4.16229">
        <ele>193</ele>
        <time>2024-04-29T14:43:58Z</time>
      </trkpt>
      <trkpt lat="50.12313" lon="4.16243">
        <ele>192</ele>
        <time>2024-04-29T14:43:59Z</time>
      </trkpt>
      <trkpt lat="50.12316" lon="4.16258">
        <ele>191.4</ele>
        <time>2024-04-29T14:44:00Z</time>
      </trkpt>
      <trkpt lat="50.12318" lon="4.16273">
        <ele>191</ele>
        <time>2024-04-29T14:44:01Z</time>
      </trkpt>
      <trkpt lat="50.12319" lon="4.16289">
        <ele>190.2</ele>
        <time>2024-04-29T14:44:02Z</time>
      </trkpt>
      <trkpt lat="50.12318" lon="4.16305">
        <ele>189.6</ele>
        <time>2024-04-29T14:44:03Z</time>
      </trkpt>
      <trkpt lat="50.12316" lon="4.16322">
        <ele>189.2</ele>
        <time>2024-04-29T14:44:04Z</time>
      </trkpt>
      <trkpt lat="50.12313" lon="4.16337">
        <ele>188.6</ele>
        <time>2024-04-29T14:44:05Z</time>
      </trkpt>
      <trkpt lat="50.12309" lon="4.16353">
        <ele>188.4</ele>
        <time>2024-04-29T14:44:06Z</time>
      </trkpt>
      <trkpt lat="50.12304" lon="4.16367">
        <ele>188</ele>
        <time>2024-04-29T14:44:07Z</time>
      </trkpt>
      <trkpt lat="50.12298" lon="4.16381">
        <ele>188</ele>
        <time>2024-04-29T14:44:08Z</time>
      </trkpt>
      <trkpt lat="50.12293" lon="4.16394">
        <ele>187.8</ele>
        <time>2024-04-29T14:44:09Z</time>
      </trkpt>
      <trkpt lat="50.12287" lon="4.16406">
        <ele>187.6</ele>
        <time>2024-04-29T14:44:10Z</time>
      </trkpt>
      <trkpt lat="50.12281" lon="4.16419">
        <ele>187.6</ele>
        <time>2024-04-29T14:44:11Z</time>
      </trkpt>
      <trkpt lat="50.12276" lon="4.16432">
        <ele>186.8</ele>
        <time>2024-04-29T14:44:12Z</time>
      </trkpt>
      <trkpt lat="50.12271" lon="4.16444">
        <ele>186.2</ele>
        <time>2024-04-29T14:44:13Z</time>
      </trkpt>
      <trkpt lat="50.12266" lon="4.16456">
        <ele>185.4</ele>
        <time>2024-04-29T14:44:14Z</time>
      </trkpt>
      <trkpt lat="50.12262" lon="4.16469">
        <ele>184.6</ele>
        <time>2024-04-29T14:44:15Z</time>
      </trkpt>
      <trkpt lat="50.12259" lon="4.16482">
        <ele>183.4</ele>
        <time>2024-04-29T14:44:16Z</time>
      </trkpt>
      <trkpt lat="50.12256" lon="4.16495">
        <ele>182.6</ele>
        <time>2024-04-29T14:44:17Z</time>
      </trkpt>
      <trkpt lat="50.12254" lon="4.16509">
        <ele>182.2</ele>
        <time>2024-04-29T14:44:18Z</time>
      </trkpt>
      <trkpt lat="50.12252" lon="4.16522">
        <ele>181.8</ele>
        <time>2024-04-29T14:44:19Z</time>
      </trkpt>
      <trkpt lat="50.1225" lon="4.16536">
        <ele>181.6</ele>
        <time>2024-04-29T14:44:20Z</time>
      </trkpt>
      <trkpt lat="50.12248" lon="4.16549">
        <ele>181.4</ele>
        <time>2024-04-29T14:44:21Z</time>
      </trkpt>
      <trkpt lat="50.12245" lon="4.16563">
        <ele>181.4</ele>
        <time>2024-04-29T14:44:22Z</time>
      </trkpt>
      <trkpt lat="50.12241" lon="4.16576">
        <ele>181.2</ele>
        <time>2024-04-29T14:44:23Z</time>
      </trkpt>
      <trkpt lat="50.12237" lon="4.16589">
        <ele>181</ele>
        <time>2024-04-29T14:44:24Z</time>
      </trkpt>
      <trkpt lat="50.12231" lon="4.16601">
        <ele>180.8</ele>
        <time>2024-04-29T14:44:25Z</time>
      </trkpt>
      <trkpt lat="50.12225" lon="4.16613">
        <ele>180.8</ele>
        <time>2024-04-29T14:44:26Z</time>
      </trkpt>
      <trkpt lat="50.12218" lon="4.16626">
        <ele>180.8</ele>
        <time>2024-04-29T14:44:27Z</time>
      </trkpt>
      <trkpt lat="50.12211" lon="4.16638">
        <ele>180.8</ele>
        <time>2024-04-29T14:44:28Z</time>
      </trkpt>
      <trkpt lat="50.12204" lon="4.16651">
        <ele>180.6</ele>
        <time>2024-04-29T14:44:29Z</time>
      </trkpt>
      <trkpt lat="50.12198" lon="4.16663">
        <ele>180.6</ele>
        <time>2024-04-29T14:44:30Z</time>
      </trkpt>
      <trkpt lat="50.12191" lon="4.16676">
        <ele>180.4</ele>
        <time>2024-04-29T14:44:31Z</time>
      </trkpt>
      <trkpt lat="50.12184" lon="4.1669">
        <ele>180.4</ele>
        <time>2024-04-29T14:44:32Z</time>
      </trkpt>
      <trkpt lat="50.12178" lon="4.16703">
        <ele>180</ele>
        <time>2024-04-29T14:44:33Z</time>
      </trkpt>
      <trkpt lat="50.12172" lon="4.16717">
        <ele>178.6</ele>
        <time>2024-04-29T14:44:34Z</time>
      </trkpt>
      <trkpt lat="50.12167" lon="4.1673">
        <ele>177.6</ele>
        <time>2024-04-29T14:44:35Z</time>
      </trkpt>
      <trkpt lat="50.12161" lon="4.16744">
        <ele>177.2</ele>
        <time>2024-04-29T14:44:36Z</time>
      </trkpt>
      <trkpt lat="50.12156" lon="4.16757">
        <ele>176.2</ele>
        <time>2024-04-29T14:44:37Z</time>
      </trkpt>
      <trkpt lat="50.12151" lon="4.1677">
        <ele>175.8</ele>
        <time>2024-04-29T14:44:38Z</time>
      </trkpt>
      <trkpt lat="50.12147" lon="4.16782">
        <ele>175.6</ele>
        <time>2024-04-29T14:44:39Z</time>
      </trkpt>
      <trkpt lat="50.12142" lon="4.16795">
        <ele>175.4</ele>
        <time>2024-04-29T14:44:40Z</time>
      </trkpt>
      <trkpt lat="50.12138" lon="4.16806">
        <ele>175.2</ele>
        <time>2024-04-29T14:44:41Z</time>
      </trkpt>
      <trkpt lat="50.12135" lon="4.16818">
        <ele>175.2</ele>
        <time>2024-04-29T14:44:42Z</time>
      </trkpt>
      <trkpt lat="50.12132" lon="4.1683">
        <ele>175.2</ele>
        <time>2024-04-29T14:44:43Z</time>
      </trkpt>
      <trkpt lat="50.12129" lon="4.16841">
        <ele>175.4</ele>
        <time>2024-04-29T14:44:44Z</time>
      </trkpt>
      <trkpt lat="50.12128" lon="4.16851">
        <ele>175.4</ele>
        <time>2024-04-29T14:44:45Z</time>
      </trkpt>
      <trkpt lat="50.12126" lon="4.16862">
        <ele>175.2</ele>
        <time>2024-04-29T14:44:46Z</time>
      </trkpt>
      <trkpt lat="50.12124" lon="4.16872">
        <ele>175.4</ele>
        <time>2024-04-29T14:44:47Z</time>
      </trkpt>
      <trkpt lat="50.12122" lon="4.16882">
        <ele>175.4</ele>
        <time>2024-04-29T14:44:48Z</time>
      </trkpt>
      <trkpt lat="50.12121" lon="4.16892">
        <ele>175.4</ele>
        <time>2024-04-29T14:44:49Z</time>
      </trkpt>
      <trkpt lat="50.1212" lon="4.16902">
        <ele>175.6</ele>
        <time>2024-04-29T14:44:50Z</time>
      </trkpt>
      <trkpt lat="50.12118" lon="4.16912">
        <ele>176</ele>
        <time>2024-04-29T14:44:51Z</time>
      </trkpt>
      <trkpt lat="50.12117" lon="4.16922">
        <ele>176.4</ele>
        <time>2024-04-29T14:44:52Z</time>
      </trkpt>
      <trkpt lat="50.12115" lon="4.16932">
        <ele>177.2</ele>
        <time>2024-04-29T14:44:53Z</time>
      </trkpt>
      <trkpt lat="50.12114" lon="4.16943">
        <ele>177.8</ele>
        <time>2024-04-29T14:44:54Z</time>
      </trkpt>
      <trkpt lat="50.12113" lon="4.16953">
        <ele>178</ele>
        <time>2024-04-29T14:44:55Z</time>
      </trkpt>
      <trkpt lat="50.12112" lon="4.16963">
        <ele>178.6</ele>
        <time>2024-04-29T14:44:56Z</time>
      </trkpt>
      <trkpt lat="50.1211" lon="4.16973">
        <ele>179</ele>
        <time>2024-04-29T14:44:57Z</time>
      </trkpt>
      <trkpt lat="50.12109" lon="4.16984">
        <ele>179</ele>
        <time>2024-04-29T14:44:58Z</time>
      </trkpt>
      <trkpt lat="50.12107" lon="4.16994">
        <ele>179.2</ele>
        <time>2024-04-29T14:44:59Z</time>
      </trkpt>
      <trkpt lat="50.12106" lon="4.17004">
        <ele>179.2</ele>
        <time>2024-04-29T14:45:00Z</time>
      </trkpt>
      <trkpt lat="50.12104" lon="4.17015">
        <ele>179.4</ele>
        <time>2024-04-29T14:45:01Z</time>
      </trkpt>
      <trkpt lat="50.12102" lon="4.17025">
        <ele>179.4</ele>
        <time>2024-04-29T14:45:02Z</time>
      </trkpt>
      <trkpt lat="50.121" lon="4.17036">
        <ele>179.6</ele>
        <time>2024-04-29T14:45:03Z</time>
      </trkpt>
      <trkpt lat="50.12097" lon="4.17046">
        <ele>179.6</ele>
        <time>2024-04-29T14:45:04Z</time>
      </trkpt>
      <trkpt lat="50.12095" lon="4.17056">
        <ele>179.8</ele>
        <time>2024-04-29T14:45:05Z</time>
      </trkpt>
      <trkpt lat="50.12093" lon="4.17067">
        <ele>179.8</ele>
        <time>2024-04-29T14:45:06Z</time>
      </trkpt>
      <trkpt lat="50.1209" lon="4.17077">
        <ele>179.8</ele>
        <time>2024-04-29T14:45:07Z</time>
      </trkpt>
      <trkpt lat="50.12088" lon="4.17088">
        <ele>179.8</ele>
        <time>2024-04-29T14:45:08Z</time>
      </trkpt>
      <trkpt lat="50.12087" lon="4.17098">
        <ele>179.8</ele>
        <time>2024-04-29T14:45:09Z</time>
      </trkpt>
      <trkpt lat="50.12085" lon="4.17109">
        <ele>180</ele>
        <time>2024-04-29T14:45:10Z</time>
      </trkpt>
      <trkpt lat="50.12084" lon="4.1712">
        <ele>180</ele>
        <time>2024-04-29T14:45:11Z</time>
      </trkpt>
      <trkpt lat="50.12083" lon="4.17131">
        <ele>180</ele>
        <time>2024-04-29T14:45:12Z</time>
      </trkpt>
      <trkpt lat="50.12082" lon="4.17143">
        <ele>180</ele>
        <time>2024-04-29T14:45:13Z</time>
      </trkpt>
      <trkpt lat="50.12081" lon="4.17154">
        <ele>179.8</ele>
        <time>2024-04-29T14:45:14Z</time>
      </trkpt>
      <trkpt lat="50.1208" lon="4.17165">
        <ele>180</ele>
        <time>2024-04-29T14:45:15Z</time>
      </trkpt>
      <trkpt lat="50.12079" lon="4.17175">
        <ele>179.8</ele>
        <time>2024-04-29T14:45:16Z</time>
      </trkpt>
      <trkpt lat="50.12078" lon="4.17186">
        <ele>179.8</ele>
        <time>2024-04-29T14:45:17Z</time>
      </trkpt>
      <trkpt lat="50.12077" lon="4.17197">
        <ele>180</ele>
        <time>2024-04-29T14:45:18Z</time>
      </trkpt>
      <trkpt lat="50.12076" lon="4.17207">
        <ele>180.2</ele>
        <time>2024-04-29T14:45:19Z</time>
      </trkpt>
      <trkpt lat="50.12075" lon="4.17217">
        <ele>180.2</ele>
        <time>2024-04-29T14:45:20Z</time>
      </trkpt>
      <trkpt lat="50.12073" lon="4.17227">
        <ele>180.2</ele>
        <time>2024-04-29T14:45:21Z</time>
      </trkpt>
      <trkpt lat="50.12072" lon="4.17237">
        <ele>180.2</ele>
        <time>2024-04-29T14:45:22Z</time>
      </trkpt>
      <trkpt lat="50.12071" lon="4.17248">
        <ele>180.4</ele>
        <time>2024-04-29T14:45:23Z</time>
      </trkpt>
      <trkpt lat="50.12069" lon="4.17258">
        <ele>180.2</ele>
        <time>2024-04-29T14:45:24Z</time>
      </trkpt>
      <trkpt lat="50.12067" lon="4.17268">
        <ele>180.2</ele>
        <time>2024-04-29T14:45:25Z</time>
      </trkpt>
      <trkpt lat="50.12066" lon="4.17278">
        <ele>180.4</ele>
        <time>2024-04-29T14:45:26Z</time>
      </trkpt>
      <trkpt lat="50.12064" lon="4.17288">
        <ele>180.4</ele>
        <time>2024-04-29T14:45:27Z</time>
      </trkpt>
      <trkpt lat="50.12063" lon="4.17298">
        <ele>180.4</ele>
        <time>2024-04-29T14:45:28Z</time>
      </trkpt>
      <trkpt lat="50.12061" lon="4.17308">
        <ele>180.6</ele>
        <time>2024-04-29T14:45:29Z</time>
      </trkpt>
      <trkpt lat="50.12059" lon="4.17319">
        <ele>180.6</ele>
        <time>2024-04-29T14:45:30Z</time>
      </trkpt>
      <trkpt lat="50.12057" lon="4.17329">
        <ele>180.6</ele>
        <time>2024-04-29T14:45:31Z</time>
      </trkpt>
      <trkpt lat="50.12056" lon="4.1734">
        <ele>180.8</ele>
        <time>2024-04-29T14:45:32Z</time>
      </trkpt>
      <trkpt lat="50.12054" lon="4.17351">
        <ele>181</ele>
        <time>2024-04-29T14:45:33Z</time>
      </trkpt>
      <trkpt lat="50.12052" lon="4.17362">
        <ele>180.8</ele>
        <time>2024-04-29T14:45:34Z</time>
      </trkpt>
      <trkpt lat="50.1205" lon="4.17373">
        <ele>180.8</ele>
        <time>2024-04-29T14:45:35Z</time>
      </trkpt>
      <trkpt lat="50.12047" lon="4.17383">
        <ele>180.8</ele>
        <time>2024-04-29T14:45:36Z</time>
      </trkpt>
      <trkpt lat="50.12045" lon="4.17394">
        <ele>180.8</ele>
        <time>2024-04-29T14:45:37Z</time>
      </trkpt>
      <trkpt lat="50.12043" lon="4.17404">
        <ele>180.8</ele>
        <time>2024-04-29T14:45:38Z</time>
      </trkpt>
      <trkpt lat="50.1204" lon="4.17414">
        <ele>180.6</ele>
        <time>2024-04-29T14:45:39Z</time>
      </trkpt>
      <trkpt lat="50.12037" lon="4.17424">
        <ele>180.6</ele>
        <time>2024-04-29T14:45:40Z</time>
      </trkpt>
      <trkpt lat="50.12035" lon="4.17433">
        <ele>180.4</ele>
        <time>2024-04-29T14:45:41Z</time>
      </trkpt>
      <trkpt lat="50.12032" lon="4.17443">
        <ele>180.2</ele>
        <time>2024-04-29T14:45:42Z</time>
      </trkpt>
      <trkpt lat="50.1203" lon="4.17453">
        <ele>180.4</ele>
        <time>2024-04-29T14:45:43Z</time>
      </trkpt>
      <trkpt lat="50.12028" lon="4.17462">
        <ele>180.2</ele>
        <time>2024-04-29T14:45:44Z</time>
      </trkpt>
      <trkpt lat="50.12026" lon="4.17472">
        <ele>180.4</ele>
        <time>2024-04-29T14:45:45Z</time>
      </trkpt>
      <trkpt lat="50.12023" lon="4.17481">
        <ele>180.6</ele>
        <time>2024-04-29T14:45:46Z</time>
      </trkpt>
      <trkpt lat="50.12021" lon="4.17491">
        <ele>180.6</ele>
        <time>2024-04-29T14:45:47Z</time>
      </trkpt>
      <trkpt lat="50.12019" lon="4.17501">
        <ele>180.4</ele>
        <time>2024-04-29T14:45:48Z</time>
      </trkpt>
      <trkpt lat="50.12017" lon="4.1751">
        <ele>180.4</ele>
        <time>2024-04-29T14:45:49Z</time>
      </trkpt>
      <trkpt lat="50.12014" lon="4.1752">
        <ele>180.6</ele>
        <time>2024-04-29T14:45:50Z</time>
      </trkpt>
      <trkpt lat="50.12012" lon="4.1753">
        <ele>180.6</ele>
        <time>2024-04-29T14:45:51Z</time>
      </trkpt>
      <trkpt lat="50.1201" lon="4.1754">
        <ele>180.4</ele>
        <time>2024-04-29T14:45:52Z</time>
      </trkpt>
      <trkpt lat="50.12008" lon="4.1755">
        <ele>180.6</ele>
        <time>2024-04-29T14:45:53Z</time>
      </trkpt>
      <trkpt lat="50.12006" lon="4.1756">
        <ele>180.8</ele>
        <time>2024-04-29T14:45:54Z</time>
      </trkpt>
      <trkpt lat="50.12004" lon="4.1757">
        <ele>180.8</ele>
        <time>2024-04-29T14:45:55Z</time>
      </trkpt>
      <trkpt lat="50.12002" lon="4.1758">
        <ele>181</ele>
        <time>2024-04-29T14:45:56Z</time>
      </trkpt>
      <trkpt lat="50.12001" lon="4.1759">
        <ele>181</ele>
        <time>2024-04-29T14:45:57Z</time>
      </trkpt>
      <trkpt lat="50.11999" lon="4.176">
        <ele>181</ele>
        <time>2024-04-29T14:45:58Z</time>
      </trkpt>
      <trkpt lat="50.11997" lon="4.1761">
        <ele>181.2</ele>
        <time>2024-04-29T14:45:59Z</time>
      </trkpt>
      <trkpt lat="50.11996" lon="4.17621">
        <ele>181.4</ele>
        <time>2024-04-29T14:46:00Z</time>
      </trkpt>
      <trkpt lat="50.11994" lon="4.17632">
        <ele>181.2</ele>
        <time>2024-04-29T14:46:01Z</time>
      </trkpt>
      <trkpt lat="50.11993" lon="4.17643">
        <ele>181.4</ele>
        <time>2024-04-29T14:46:02Z</time>
      </trkpt>
      <trkpt lat="50.11991" lon="4.17654">
        <ele>181.4</ele>
        <time>2024-04-29T14:46:03Z</time>
      </trkpt>
      <trkpt lat="50.1199" lon="4.17665">
        <ele>181.4</ele>
        <time>2024-04-29T14:46:04Z</time>
      </trkpt>
      <trkpt lat="50.11988" lon="4.17676">
        <ele>181.4</ele>
        <time>2024-04-29T14:46:05Z</time>
      </trkpt>
      <trkpt lat="50.11987" lon="4.17687">
        <ele>181.6</ele>
        <time>2024-04-29T14:46:06Z</time>
      </trkpt>
      <trkpt lat="50.11986" lon="4.17698">
        <ele>181.4</ele>
        <time>2024-04-29T14:46:07Z</time>
      </trkpt>
      <trkpt lat="50.11984" lon="4.1771">
        <ele>181.6</ele>
        <time>2024-04-29T14:46:08Z</time>
      </trkpt>
      <trkpt lat="50.11983" lon="4.17721">
        <ele>181.6</ele>
        <time>2024-04-29T14:46:09Z</time>
      </trkpt>
      <trkpt lat="50.11981" lon="4.17733">
        <ele>181.4</ele>
        <time>2024-04-29T14:46:10Z</time>
      </trkpt>
      <trkpt lat="50.11979" lon="4.17744">
        <ele>181.4</ele>
        <time>2024-04-29T14:46:11Z</time>
      </trkpt>
      <trkpt lat="50.11975" lon="4.17755">
        <ele>181.4</ele>
        <time>2024-04-29T14:46:12Z</time>
      </trkpt>
      <trkpt lat="50.11969" lon="4.17765">
        <ele>181.4</ele>
        <time>2024-04-29T14:46:13Z</time>
      </trkpt>
      <trkpt lat="50.11963" lon="4.17774">
        <ele>181.4</ele>
        <time>2024-04-29T14:46:14Z</time>
      </trkpt>
      <trkpt lat="50.11955" lon="4.17781">
        <ele>181.2</ele>
        <time>2024-04-29T14:46:15Z</time>
      </trkpt>
      <trkpt lat="50.11946" lon="4.17785">
        <ele>181.4</ele>
        <time>2024-04-29T14:46:16Z</time>
      </trkpt>
      <trkpt lat="50.11936" lon="4.17787">
        <ele>181.2</ele>
        <time>2024-04-29T14:46:17Z</time>
      </trkpt>
      <trkpt lat="50.11927" lon="4.17787">
        <ele>181.2</ele>
        <time>2024-04-29T14:46:18Z</time>
      </trkpt>
      <trkpt lat="50.11918" lon="4.17786">
        <ele>180.8</ele>
        <time>2024-04-29T14:46:19Z</time>
      </trkpt>
      <trkpt lat="50.11908" lon="4.17786">
        <ele>180.8</ele>
        <time>2024-04-29T14:46:20Z</time>
      </trkpt>
      <trkpt lat="50.11898" lon="4.17784">
        <ele>180.2</ele>
        <time>2024-04-29T14:46:21Z</time>
      </trkpt>
      <trkpt lat="50.11889" lon="4.17783">
        <ele>179.6</ele>
        <time>2024-04-29T14:46:22Z</time>
      </trkpt>
      <trkpt lat="50.11879" lon="4.17783">
        <ele>179</ele>
        <time>2024-04-29T14:46:23Z</time>
      </trkpt>
      <trkpt lat="50.1187" lon="4.17783">
        <ele>178.4</ele>
        <time>2024-04-29T14:46:24Z</time>
      </trkpt>
      <trkpt lat="50.11861" lon="4.17784">
        <ele>177.4</ele>
        <time>2024-04-29T14:46:25Z</time>
      </trkpt>
      <trkpt lat="50.11853" lon="4.17785">
        <ele>176.4</ele>
        <time>2024-04-29T14:46:26Z</time>
      </trkpt>
      <trkpt lat="50.11844" lon="4.17787">
        <ele>175.8</ele>
        <time>2024-04-29T14:46:27Z</time>
      </trkpt>
      <trkpt lat="50.11837" lon="4.17791">
        <ele>175.4</ele>
        <time>2024-04-29T14:46:28Z</time>
      </trkpt>
      <trkpt lat="50.1183" lon="4.17796">
        <ele>175</ele>
        <time>2024-04-29T14:46:29Z</time>
      </trkpt>
      <trkpt lat="50.11823" lon="4.17801">
        <ele>174.8</ele>
        <time>2024-04-29T14:46:30Z</time>
      </trkpt>
      <trkpt lat="50.11818" lon="4.17807">
        <ele>175</ele>
        <time>2024-04-29T14:46:31Z</time>
      </trkpt>
      <trkpt lat="50.11812" lon="4.17814">
        <ele>174.6</ele>
        <time>2024-04-29T14:46:32Z</time>
      </trkpt>
      <trkpt lat="50.11806" lon="4.1782">
        <ele>174.8</ele>
        <time>2024-04-29T14:46:33Z</time>
      </trkpt>
      <trkpt lat="50.11801" lon="4.17826">
        <ele>174.8</ele>
        <time>2024-04-29T14:46:34Z</time>
      </trkpt>
      <trkpt lat="50.11795" lon="4.17832">
        <ele>174.8</ele>
        <time>2024-04-29T14:46:35Z</time>
      </trkpt>
      <trkpt lat="50.11789" lon="4.17838">
        <ele>174.8</ele>
        <time>2024-04-29T14:46:36Z</time>
      </trkpt>
      <trkpt lat="50.11783" lon="4.17844">
        <ele>174.8</ele>
        <time>2024-04-29T14:46:37Z</time>
      </trkpt>
      <trkpt lat="50.11777" lon="4.17851">
        <ele>174.8</ele>
        <time>2024-04-29T14:46:38Z</time>
      </trkpt>
      <trkpt lat="50.1177" lon="4.17856">
        <ele>175.2</ele>
        <time>2024-04-29T14:46:39Z</time>
      </trkpt>
      <trkpt lat="50.11763" lon="4.17861">
        <ele>175.2</ele>
        <time>2024-04-29T14:46:40Z</time>
      </trkpt>
      <trkpt lat="50.11756" lon="4.17866">
        <ele>175.4</ele>
        <time>2024-04-29T14:46:41Z</time>
      </trkpt>
      <trkpt lat="50.11749" lon="4.17869">
        <ele>175.4</ele>
        <time>2024-04-29T14:46:42Z</time>
      </trkpt>
      <trkpt lat="50.11742" lon="4.17872">
        <ele>175.4</ele>
        <time>2024-04-29T14:46:43Z</time>
      </trkpt>
      <trkpt lat="50.11735" lon="4.17874">
        <ele>175.6</ele>
        <time>2024-04-29T14:46:44Z</time>
      </trkpt>
      <trkpt lat="50.11728" lon="4.17877">
        <ele>175.6</ele>
        <time>2024-04-29T14:46:45Z</time>
      </trkpt>
      <trkpt lat="50.11721" lon="4.17879">
        <ele>175.6</ele>
        <time>2024-04-29T14:46:46Z</time>
      </trkpt>
      <trkpt lat="50.11714" lon="4.17882">
        <ele>175.8</ele>
        <time>2024-04-29T14:46:47Z</time>
      </trkpt>
      <trkpt lat="50.11708" lon="4.17885">
        <ele>175.6</ele>
        <time>2024-04-29T14:46:48Z</time>
      </trkpt>
      <trkpt lat="50.11702" lon="4.17888">
        <ele>175.8</ele>
        <time>2024-04-29T14:46:49Z</time>
      </trkpt>
      <trkpt lat="50.11696" lon="4.17892">
        <ele>175.8</ele>
        <time>2024-04-29T14:46:50Z</time>
      </trkpt>
      <trkpt lat="50.1169" lon="4.17895">
        <ele>176</ele>
        <time>2024-04-29T14:46:51Z</time>
      </trkpt>
      <trkpt lat="50.11684" lon="4.17899">
        <ele>176</ele>
        <time>2024-04-29T14:46:52Z</time>
      </trkpt>
      <trkpt lat="50.11679" lon="4.17903">
        <ele>176</ele>
        <time>2024-04-29T14:46:53Z</time>
      </trkpt>
      <trkpt lat="50.11674" lon="4.17906">
        <ele>176</ele>
        <time>2024-04-29T14:46:54Z</time>
      </trkpt>
      <trkpt lat="50.11669" lon="4.1791">
        <ele>176</ele>
        <time>2024-04-29T14:46:55Z</time>
      </trkpt>
      <trkpt lat="50.11665" lon="4.17914">
        <ele>176</ele>
        <time>2024-04-29T14:46:56Z</time>
      </trkpt>
      <trkpt lat="50.11661" lon="4.17918">
        <ele>175.8</ele>
        <time>2024-04-29T14:46:57Z</time>
      </trkpt>
      <trkpt lat="50.11657" lon="4.17922">
        <ele>176</ele>
        <time>2024-04-29T14:46:58Z</time>
      </trkpt>
      <trkpt lat="50.11653" lon="4.17925">
        <ele>176.4</ele>
        <time>2024-04-29T14:46:59Z</time>
      </trkpt>
      <trkpt lat="50.11649" lon="4.17929">
        <ele>177</ele>
        <time>2024-04-29T14:47:00Z</time>
      </trkpt>
      <trkpt lat="50.11645" lon="4.17932">
        <ele>177.6</ele>
        <time>2024-04-29T14:47:01Z</time>
      </trkpt>
      <trkpt lat="50.11642" lon="4.17936">
        <ele>178.2</ele>
        <time>2024-04-29T14:47:02Z</time>
      </trkpt>
      <trkpt lat="50.11638" lon="4.17939">
        <ele>178.4</ele>
        <time>2024-04-29T14:47:03Z</time>
      </trkpt>
      <trkpt lat="50.11635" lon="4.17942">
        <ele>178.8</ele>
        <time>2024-04-29T14:47:04Z</time>
      </trkpt>
      <trkpt lat="50.11631" lon="4.17945">
        <ele>178.8</ele>
        <time>2024-04-29T14:47:05Z</time>
      </trkpt>
      <trkpt lat="50.11628" lon="4.17949">
        <ele>179.2</ele>
        <time>2024-04-29T14:47:06Z</time>
      </trkpt>
      <trkpt lat="50.11624" lon="4.17952">
        <ele>180</ele>
        <time>2024-04-29T14:47:07Z</time>
      </trkpt>
      <trkpt lat="50.11621" lon="4.17955">
        <ele>180.4</ele>
        <time>2024-04-29T14:47:08Z</time>
      </trkpt>
      <trkpt lat="50.11617" lon="4.17958">
        <ele>180.8</ele>
        <time>2024-04-29T14:47:09Z</time>
      </trkpt>
      <trkpt lat="50.11614" lon="4.17962">
        <ele>181.2</ele>
        <time>2024-04-29T14:47:10Z</time>
      </trkpt>
      <trkpt lat="50.1161" lon="4.17966">
        <ele>181.6</ele>
        <time>2024-04-29T14:47:11Z</time>
      </trkpt>
      <trkpt lat="50.11607" lon="4.17969">
        <ele>182</ele>
        <time>2024-04-29T14:47:12Z</time>
      </trkpt>
      <trkpt lat="50.11604" lon="4.17973">
        <ele>182.4</ele>
        <time>2024-04-29T14:47:13Z</time>
      </trkpt>
      <trkpt lat="50.116" lon="4.17977">
        <ele>182.8</ele>
        <time>2024-04-29T14:47:14Z</time>
      </trkpt>
      <trkpt lat="50.11597" lon="4.17981">
        <ele>183.2</ele>
        <time>2024-04-29T14:47:15Z</time>
      </trkpt>
      <trkpt lat="50.11594" lon="4.17985">
        <ele>183.6</ele>
        <time>2024-04-29T14:47:16Z</time>
      </trkpt>
      <trkpt lat="50.11591" lon="4.17989">
        <ele>183.8</ele>
        <time>2024-04-29T14:47:17Z</time>
      </trkpt>
      <trkpt lat="50.11588" lon="4.17993">
        <ele>184.4</ele>
        <time>2024-04-29T14:47:18Z</time>
      </trkpt>
      <trkpt lat="50.11585" lon="4.17998">
        <ele>184.8</ele>
        <time>2024-04-29T14:47:19Z</time>
      </trkpt>
      <trkpt lat="50.11582" lon="4.18002">
        <ele>185</ele>
        <time>2024-04-29T14:47:20Z</time>
      </trkpt>
      <trkpt lat="50.11579" lon="4.18007">
        <ele>185.6</ele>
        <time>2024-04-29T14:47:21Z</time>
      </trkpt>
      <trkpt lat="50.11576" lon="4.18011">
        <ele>186</ele>
        <time>2024-04-29T14:47:22Z</time>
      </trkpt>
      <trkpt lat="50.11573" lon="4.18016">
        <ele>186.2</ele>
        <time>2024-04-29T14:47:23Z</time>
      </trkpt>
      <trkpt lat="50.1157" lon="4.18021">
        <ele>186.4</ele>
        <time>2024-04-29T14:47:24Z</time>
      </trkpt>
      <trkpt lat="50.11568" lon="4.18026">
        <ele>186.6</ele>
        <time>2024-04-29T14:47:25Z</time>
      </trkpt>
      <trkpt lat="50.11565" lon="4.1803">
        <ele>187</ele>
        <time>2024-04-29T14:47:26Z</time>
      </trkpt>
      <trkpt lat="50.11562" lon="4.18035">
        <ele>187</ele>
        <time>2024-04-29T14:47:27Z</time>
      </trkpt>
      <trkpt lat="50.11559" lon="4.18041">
        <ele>187.2</ele>
        <time>2024-04-29T14:47:28Z</time>
      </trkpt>
      <trkpt lat="50.11555" lon="4.18046">
        <ele>187.6</ele>
        <time>2024-04-29T14:47:29Z</time>
      </trkpt>
      <trkpt lat="50.11551" lon="4.18051">
        <ele>188.4</ele>
        <time>2024-04-29T14:47:30Z</time>
      </trkpt>
      <trkpt lat="50.11547" lon="4.18057">
        <ele>188.8</ele>
        <time>2024-04-29T14:47:31Z</time>
      </trkpt>
      <trkpt lat="50.11542" lon="4.18063">
        <ele>189</ele>
        <time>2024-04-29T14:47:32Z</time>
      </trkpt>
      <trkpt lat="50.11536" lon="4.18068">
        <ele>189.2</ele>
        <time>2024-04-29T14:47:33Z</time>
      </trkpt>
      <trkpt lat="50.11531" lon="4.18073">
        <ele>189.2</ele>
        <time>2024-04-29T14:47:34Z</time>
      </trkpt>
      <trkpt lat="50.11524" lon="4.18078">
        <ele>189.2</ele>
        <time>2024-04-29T14:47:35Z</time>
      </trkpt>
      <trkpt lat="50.11518" lon="4.18083">
        <ele>189.2</ele>
        <time>2024-04-29T14:47:36Z</time>
      </trkpt>
      <trkpt lat="50.11512" lon="4.18089">
        <ele>189.4</ele>
        <time>2024-04-29T14:47:37Z</time>
      </trkpt>
      <trkpt lat="50.11506" lon="4.18096">
        <ele>189.2</ele>
        <time>2024-04-29T14:47:38Z</time>
      </trkpt>
      <trkpt lat="50.11499" lon="4.18104">
        <ele>189.4</ele>
        <time>2024-04-29T14:47:39Z</time>
      </trkpt>
      <trkpt lat="50.11493" lon="4.18113">
        <ele>189.2</ele>
        <time>2024-04-29T14:47:40Z</time>
      </trkpt>
      <trkpt lat="50.11486" lon="4.18122">
        <ele>188.8</ele>
        <time>2024-04-29T14:47:41Z</time>
      </trkpt>
      <trkpt lat="50.11479" lon="4.18131">
        <ele>188.8</ele>
        <time>2024-04-29T14:47:42Z</time>
      </trkpt>
      <trkpt lat="50.11472" lon="4.18141">
        <ele>188.6</ele>
        <time>2024-04-29T14:47:43Z</time>
      </trkpt>
      <trkpt lat="50.11463" lon="4.1815">
        <ele>188.2</ele>
        <time>2024-04-29T14:47:44Z</time>
      </trkpt>
      <trkpt lat="50.11454" lon="4.18158">
        <ele>187.8</ele>
        <time>2024-04-29T14:47:45Z</time>
      </trkpt>
      <trkpt lat="50.11445" lon="4.18165">
        <ele>187.4</ele>
        <time>2024-04-29T14:47:46Z</time>
      </trkpt>
      <trkpt lat="50.11435" lon="4.18173">
        <ele>187.2</ele>
        <time>2024-04-29T14:47:47Z</time>
      </trkpt>
      <trkpt lat="50.11425" lon="4.1818">
        <ele>186.8</ele>
        <time>2024-04-29T14:47:48Z</time>
      </trkpt>
      <trkpt lat="50.11415" lon="4.18188">
        <ele>185.8</ele>
        <time>2024-04-29T14:47:49Z</time>
      </trkpt>
      <trkpt lat="50.11405" lon="4.18196">
        <ele>185.8</ele>
        <time>2024-04-29T14:47:50Z</time>
      </trkpt>
      <trkpt lat="50.11395" lon="4.18204">
        <ele>184.8</ele>
        <time>2024-04-29T14:47:51Z</time>
      </trkpt>
      <trkpt lat="50.11386" lon="4.18212">
        <ele>183.6</ele>
        <time>2024-04-29T14:47:52Z</time>
      </trkpt>
      <trkpt lat="50.11377" lon="4.18219">
        <ele>182</ele>
        <time>2024-04-29T14:47:53Z</time>
      </trkpt>
      <trkpt lat="50.11369" lon="4.18226">
        <ele>180.2</ele>
        <time>2024-04-29T14:47:54Z</time>
      </trkpt>
      <trkpt lat="50.11361" lon="4.18233">
        <ele>178.8</ele>
        <time>2024-04-29T14:47:55Z</time>
      </trkpt>
      <trkpt lat="50.11354" lon="4.1824">
        <ele>178.2</ele>
        <time>2024-04-29T14:47:56Z</time>
      </trkpt>
      <trkpt lat="50.11347" lon="4.18246">
        <ele>178</ele>
        <time>2024-04-29T14:47:57Z</time>
      </trkpt>
      <trkpt lat="50.11341" lon="4.18252">
        <ele>177.8</ele>
        <time>2024-04-29T14:47:58Z</time>
      </trkpt>
      <trkpt lat="50.11335" lon="4.18257">
        <ele>177.8</ele>
        <time>2024-04-29T14:47:59Z</time>
      </trkpt>
      <trkpt lat="50.1133" lon="4.18263">
        <ele>177.8</ele>
        <time>2024-04-29T14:48:00Z</time>
      </trkpt>
      <trkpt lat="50.11324" lon="4.18268">
        <ele>177.8</ele>
        <time>2024-04-29T14:48:01Z</time>
      </trkpt>
      <trkpt lat="50.11318" lon="4.18274">
        <ele>177.8</ele>
        <time>2024-04-29T14:48:02Z</time>
      </trkpt>
      <trkpt lat="50.11313" lon="4.18279">
        <ele>177.6</ele>
        <time>2024-04-29T14:48:03Z</time>
      </trkpt>
      <trkpt lat="50.11307" lon="4.18284">
        <ele>177.6</ele>
        <time>2024-04-29T14:48:04Z</time>
      </trkpt>
      <trkpt lat="50.11301" lon="4.18289">
        <ele>177.8</ele>
        <time>2024-04-29T14:48:05Z</time>
      </trkpt>
      <trkpt lat="50.11295" lon="4.18294">
        <ele>178.4</ele>
        <time>2024-04-29T14:48:06Z</time>
      </trkpt>
      <trkpt lat="50.11288" lon="4.18298">
        <ele>178.6</ele>
        <time>2024-04-29T14:48:07Z</time>
      </trkpt>
      <trkpt lat="50.11282" lon="4.18303">
        <ele>179</ele>
        <time>2024-04-29T14:48:08Z</time>
      </trkpt>
      <trkpt lat="50.11275" lon="4.18306">
        <ele>179</ele>
        <time>2024-04-29T14:48:09Z</time>
      </trkpt>
      <trkpt lat="50.11267" lon="4.1831">
        <ele>179</ele>
        <time>2024-04-29T14:48:10Z</time>
      </trkpt>
      <trkpt lat="50.1126" lon="4.18313">
        <ele>179.2</ele>
        <time>2024-04-29T14:48:11Z</time>
      </trkpt>
      <trkpt lat="50.11253" lon="4.18316">
        <ele>179.2</ele>
        <time>2024-04-29T14:48:12Z</time>
      </trkpt>
      <trkpt lat="50.11245" lon="4.18318">
        <ele>179.2</ele>
        <time>2024-04-29T14:48:13Z</time>
      </trkpt>
      <trkpt lat="50.11238" lon="4.18321">
        <ele>179.2</ele>
        <time>2024-04-29T14:48:14Z</time>
      </trkpt>
      <trkpt lat="50.11231" lon="4.18324">
        <ele>179.4</ele>
        <time>2024-04-29T14:48:15Z</time>
      </trkpt>
      <trkpt lat="50.11224" lon="4.18326">
        <ele>179.2</ele>
        <time>2024-04-29T14:48:16Z</time>
      </trkpt>
      <trkpt lat="50.11217" lon="4.18328">
        <ele>179.4</ele>
        <time>2024-04-29T14:48:17Z</time>
      </trkpt>
      <trkpt lat="50.11211" lon="4.1833">
        <ele>179.4</ele>
        <time>2024-04-29T14:48:18Z</time>
      </trkpt>
      <trkpt lat="50.11204" lon="4.18332">
        <ele>179.4</ele>
        <time>2024-04-29T14:48:19Z</time>
      </trkpt>
      <trkpt lat="50.11198" lon="4.18333">
        <ele>179.4</ele>
        <time>2024-04-29T14:48:20Z</time>
      </trkpt>
      <trkpt lat="50.11192" lon="4.18334">
        <ele>179.4</ele>
        <time>2024-04-29T14:48:21Z</time>
      </trkpt>
      <trkpt lat="50.11186" lon="4.18335">
        <ele>179.6</ele>
        <time>2024-04-29T14:48:22Z</time>
      </trkpt>
      <trkpt lat="50.1118" lon="4.18336">
        <ele>179.8</ele>
        <time>2024-04-29T14:48:23Z</time>
      </trkpt>
      <trkpt lat="50.11175" lon="4.18338">
        <ele>179.6</ele>
        <time>2024-04-29T14:48:24Z</time>
      </trkpt>
      <trkpt lat="50.1117" lon="4.18339">
        <ele>179.8</ele>
        <time>2024-04-29T14:48:25Z</time>
      </trkpt>
      <trkpt lat="50.11165" lon="4.18341">
        <ele>179.8</ele>
        <time>2024-04-29T14:48:26Z</time>
      </trkpt>
      <trkpt lat="50.1116" lon="4.18342">
        <ele>179.6</ele>
        <time>2024-04-29T14:48:27Z</time>
      </trkpt>
      <trkpt lat="50.11155" lon="4.18344">
        <ele>179.8</ele>
        <time>2024-04-29T14:48:28Z</time>
      </trkpt>
      <trkpt lat="50.11151" lon="4.18346">
        <ele>180.4</ele>
        <time>2024-04-29T14:48:29Z</time>
      </trkpt>
      <trkpt lat="50.11146" lon="4.18348">
        <ele>180.8</ele>
        <time>2024-04-29T14:48:30Z</time>
      </trkpt>
      <trkpt lat="50.11142" lon="4.1835">
        <ele>181.4</ele>
        <time>2024-04-29T14:48:31Z</time>
      </trkpt>
      <trkpt lat="50.11137" lon="4.18352">
        <ele>182</ele>
        <time>2024-04-29T14:48:32Z</time>
      </trkpt>
      <trkpt lat="50.11133" lon="4.18355">
        <ele>182.4</ele>
        <time>2024-04-29T14:48:33Z</time>
      </trkpt>
      <trkpt lat="50.11128" lon="4.18357">
        <ele>182.4</ele>
        <time>2024-04-29T14:48:34Z</time>
      </trkpt>
      <trkpt lat="50.11124" lon="4.18359">
        <ele>182.8</ele>
        <time>2024-04-29T14:48:35Z</time>
      </trkpt>
      <trkpt lat="50.11119" lon="4.18361">
        <ele>183.2</ele>
        <time>2024-04-29T14:48:36Z</time>
      </trkpt>
      <trkpt lat="50.11114" lon="4.18364">
        <ele>183.6</ele>
        <time>2024-04-29T14:48:37Z</time>
      </trkpt>
      <trkpt lat="50.11109" lon="4.18367">
        <ele>183.8</ele>
        <time>2024-04-29T14:48:38Z</time>
      </trkpt>
      <trkpt lat="50.11105" lon="4.1837">
        <ele>184.6</ele>
        <time>2024-04-29T14:48:39Z</time>
      </trkpt>
      <trkpt lat="50.111" lon="4.18373">
        <ele>184.8</ele>
        <time>2024-04-29T14:48:40Z</time>
      </trkpt>
      <trkpt lat="50.11096" lon="4.18377">
        <ele>185.2</ele>
        <time>2024-04-29T14:48:41Z</time>
      </trkpt>
      <trkpt lat="50.11091" lon="4.18381">
        <ele>185.8</ele>
        <time>2024-04-29T14:48:42Z</time>
      </trkpt>
      <trkpt lat="50.11086" lon="4.18385">
        <ele>186</ele>
        <time>2024-04-29T14:48:43Z</time>
      </trkpt>
      <trkpt lat="50.11082" lon="4.1839">
        <ele>186.2</ele>
        <time>2024-04-29T14:48:44Z</time>
      </trkpt>
      <trkpt lat="50.11078" lon="4.18395">
        <ele>186.6</ele>
        <time>2024-04-29T14:48:45Z</time>
      </trkpt>
      <trkpt lat="50.11074" lon="4.184">
        <ele>186.8</ele>
        <time>2024-04-29T14:48:46Z</time>
      </trkpt>
      <trkpt lat="50.1107" lon="4.18406">
        <ele>187</ele>
        <time>2024-04-29T14:48:47Z</time>
      </trkpt>
      <trkpt lat="50.11066" lon="4.18412">
        <ele>187.4</ele>
        <time>2024-04-29T14:48:48Z</time>
      </trkpt>
      <trkpt lat="50.11062" lon="4.18419">
        <ele>187.6</ele>
        <time>2024-04-29T14:48:49Z</time>
      </trkpt>
      <trkpt lat="50.11058" lon="4.18426">
        <ele>187.8</ele>
        <time>2024-04-29T14:48:50Z</time>
      </trkpt>
      <trkpt lat="50.11055" lon="4.18434">
        <ele>187.8</ele>
        <time>2024-04-29T14:48:51Z</time>
      </trkpt>
      <trkpt lat="50.11051" lon="4.18442">
        <ele>188</ele>
        <time>2024-04-29T14:48:52Z</time>
      </trkpt>
      <trkpt lat="50.11046" lon="4.1845">
        <ele>188</ele>
        <time>2024-04-29T14:48:53Z</time>
      </trkpt>
      <trkpt lat="50.11042" lon="4.18459">
        <ele>187.8</ele>
        <time>2024-04-29T14:48:54Z</time>
      </trkpt>
      <trkpt lat="50.11037" lon="4.18467">
        <ele>188</ele>
        <time>2024-04-29T14:48:55Z</time>
      </trkpt>
      <trkpt lat="50.11032" lon="4.18476">
        <ele>188</ele>
        <time>2024-04-29T14:48:56Z</time>
      </trkpt>
      <trkpt lat="50.11027" lon="4.18484">
        <ele>188</ele>
        <time>2024-04-29T14:48:57Z</time>
      </trkpt>
      <trkpt lat="50.11022" lon="4.18492">
        <ele>188</ele>
        <time>2024-04-29T14:48:58Z</time>
      </trkpt>
      <trkpt lat="50.11018" lon="4.185">
        <ele>188</ele>
        <time>2024-04-29T14:48:59Z</time>
      </trkpt>
      <trkpt lat="50.11012" lon="4.18508">
        <ele>187.8</ele>
        <time>2024-04-29T14:49:00Z</time>
      </trkpt>
      <trkpt lat="50.11007" lon="4.18516">
        <ele>188</ele>
        <time>2024-04-29T14:49:01Z</time>
      </trkpt>
      <trkpt lat="50.11002" lon="4.18524">
        <ele>187.4</ele>
        <time>2024-04-29T14:49:02Z</time>
      </trkpt>
      <trkpt lat="50.10997" lon="4.18532">
        <ele>187.2</ele>
        <time>2024-04-29T14:49:03Z</time>
      </trkpt>
      <trkpt lat="50.10991" lon="4.1854">
        <ele>187.2</ele>
        <time>2024-04-29T14:49:04Z</time>
      </trkpt>
      <trkpt lat="50.10986" lon="4.18548">
        <ele>186.8</ele>
        <time>2024-04-29T14:49:05Z</time>
      </trkpt>
      <trkpt lat="50.1098" lon="4.18556">
        <ele>186.8</ele>
        <time>2024-04-29T14:49:06Z</time>
      </trkpt>
      <trkpt lat="50.10975" lon="4.18565">
        <ele>186.8</ele>
        <time>2024-04-29T14:49:07Z</time>
      </trkpt>
      <trkpt lat="50.10969" lon="4.18573">
        <ele>186.4</ele>
        <time>2024-04-29T14:49:08Z</time>
      </trkpt>
      <trkpt lat="50.10963" lon="4.18581">
        <ele>186.4</ele>
        <time>2024-04-29T14:49:09Z</time>
      </trkpt>
      <trkpt lat="50.10957" lon="4.1859">
        <ele>186.2</ele>
        <time>2024-04-29T14:49:10Z</time>
      </trkpt>
      <trkpt lat="50.10952" lon="4.18599">
        <ele>186</ele>
        <time>2024-04-29T14:49:11Z</time>
      </trkpt>
      <trkpt lat="50.10946" lon="4.18609">
        <ele>186</ele>
        <time>2024-04-29T14:49:12Z</time>
      </trkpt>
      <trkpt lat="50.10941" lon="4.18619">
        <ele>185.6</ele>
        <time>2024-04-29T14:49:13Z</time>
      </trkpt>
      <trkpt lat="50.10936" lon="4.1863">
        <ele>185.4</ele>
        <time>2024-04-29T14:49:14Z</time>
      </trkpt>
      <trkpt lat="50.10931" lon="4.18641">
        <ele>185.2</ele>
        <time>2024-04-29T14:49:15Z</time>
      </trkpt>
      <trkpt lat="50.10925" lon="4.18653">
        <ele>184.8</ele>
        <time>2024-04-29T14:49:16Z</time>
      </trkpt>
      <trkpt lat="50.1092" lon="4.18664">
        <ele>184.6</ele>
        <time>2024-04-29T14:49:17Z</time>
      </trkpt>
      <trkpt lat="50.10915" lon="4.18676">
        <ele>184.2</ele>
        <time>2024-04-29T14:49:18Z</time>
      </trkpt>
      <trkpt lat="50.10909" lon="4.18688">
        <ele>184.2</ele>
        <time>2024-04-29T14:49:19Z</time>
      </trkpt>
      <trkpt lat="50.10904" lon="4.18699">
        <ele>183.8</ele>
        <time>2024-04-29T14:49:20Z</time>
      </trkpt>
      <trkpt lat="50.10899" lon="4.1871">
        <ele>183.6</ele>
        <time>2024-04-29T14:49:21Z</time>
      </trkpt>
      <trkpt lat="50.10894" lon="4.18721">
        <ele>183</ele>
        <time>2024-04-29T14:49:22Z</time>
      </trkpt>
      <trkpt lat="50.10888" lon="4.18733">
        <ele>183</ele>
        <time>2024-04-29T14:49:23Z</time>
      </trkpt>
      <trkpt lat="50.10883" lon="4.18744">
        <ele>182.6</ele>
        <time>2024-04-29T14:49:24Z</time>
      </trkpt>
      <trkpt lat="50.10878" lon="4.18755">
        <ele>182.2</ele>
        <time>2024-04-29T14:49:25Z</time>
      </trkpt>
      <trkpt lat="50.10873" lon="4.18765">
        <ele>181.8</ele>
        <time>2024-04-29T14:49:26Z</time>
      </trkpt>
      <trkpt lat="50.10868" lon="4.18776">
        <ele>181.4</ele>
        <time>2024-04-29T14:49:27Z</time>
      </trkpt>
      <trkpt lat="50.10863" lon="4.18787">
        <ele>181</ele>
        <time>2024-04-29T14:49:28Z</time>
      </trkpt>
      <trkpt lat="50.10858" lon="4.18797">
        <ele>180.6</ele>
        <time>2024-04-29T14:49:29Z</time>
      </trkpt>
      <trkpt lat="50.10853" lon="4.18808">
        <ele>180.2</ele>
        <time>2024-04-29T14:49:30Z</time>
      </trkpt>
      <trkpt lat="50.10848" lon="4.18818">
        <ele>179.8</ele>
        <time>2024-04-29T14:49:31Z</time>
      </trkpt>
      <trkpt lat="50.10844" lon="4.18829">
        <ele>179.2</ele>
        <time>2024-04-29T14:49:32Z</time>
      </trkpt>
      <trkpt lat="50.10839" lon="4.18839">
        <ele>179</ele>
        <time>2024-04-29T14:49:33Z</time>
      </trkpt>
      <trkpt lat="50.10835" lon="4.1885">
        <ele>178.6</ele>
        <time>2024-04-29T14:49:34Z</time>
      </trkpt>
      <trkpt lat="50.10831" lon="4.18861">
        <ele>178.2</ele>
        <time>2024-04-29T14:49:35Z</time>
      </trkpt>
      <trkpt lat="50.10828" lon="4.18872">
        <ele>178</ele>
        <time>2024-04-29T14:49:36Z</time>
      </trkpt>
      <trkpt lat="50.10825" lon="4.18884">
        <ele>178</ele>
        <time>2024-04-29T14:49:37Z</time>
      </trkpt>
      <trkpt lat="50.10823" lon="4.18895">
        <ele>177.6</ele>
        <time>2024-04-29T14:49:38Z</time>
      </trkpt>
      <trkpt lat="50.10821" lon="4.18907">
        <ele>177.2</ele>
        <time>2024-04-29T14:49:39Z</time>
      </trkpt>
      <trkpt lat="50.10819" lon="4.18919">
        <ele>177.2</ele>
        <time>2024-04-29T14:49:40Z</time>
      </trkpt>
      <trkpt lat="50.10818" lon="4.1893">
        <ele>177.2</ele>
        <time>2024-04-29T14:49:41Z</time>
      </trkpt>
      <trkpt lat="50.10817" lon="4.18942">
        <ele>177.2</ele>
        <time>2024-04-29T14:49:42Z</time>
      </trkpt>
      <trkpt lat="50.10816" lon="4.18953">
        <ele>177.2</ele>
        <time>2024-04-29T14:49:43Z</time>
      </trkpt>
      <trkpt lat="50.10814" lon="4.18964">
        <ele>177</ele>
        <time>2024-04-29T14:49:44Z</time>
      </trkpt>
      <trkpt lat="50.10813" lon="4.18975">
        <ele>177.2</ele>
        <time>2024-04-29T14:49:45Z</time>
      </trkpt>
      <trkpt lat="50.10812" lon="4.18986">
        <ele>177.2</ele>
        <time>2024-04-29T14:49:46Z</time>
      </trkpt>
      <trkpt lat="50.1081" lon="4.18996">
        <ele>177.2</ele>
        <time>2024-04-29T14:49:47Z</time>
      </trkpt>
      <trkpt lat="50.10809" lon="4.19007">
        <ele>177</ele>
        <time>2024-04-29T14:49:48Z</time>
      </trkpt>
      <trkpt lat="50.10807" lon="4.19017">
        <ele>177.2</ele>
        <time>2024-04-29T14:49:49Z</time>
      </trkpt>
      <trkpt lat="50.10805" lon="4.19027">
        <ele>177.2</ele>
        <time>2024-04-29T14:49:50Z</time>
      </trkpt>
      <trkpt lat="50.10803" lon="4.19036">
        <ele>177.6</ele>
        <time>2024-04-29T14:49:51Z</time>
      </trkpt>
      <trkpt lat="50.108" lon="4.19046">
        <ele>177.8</ele>
        <time>2024-04-29T14:49:52Z</time>
      </trkpt>
      <trkpt lat="50.10798" lon="4.19055">
        <ele>177.8</ele>
        <time>2024-04-29T14:49:53Z</time>
      </trkpt>
      <trkpt lat="50.10795" lon="4.19064">
        <ele>178.4</ele>
        <time>2024-04-29T14:49:54Z</time>
      </trkpt>
      <trkpt lat="50.10793" lon="4.19073">
        <ele>178.6</ele>
        <time>2024-04-29T14:49:55Z</time>
      </trkpt>
      <trkpt lat="50.1079" lon="4.19081">
        <ele>178.8</ele>
        <time>2024-04-29T14:49:56Z</time>
      </trkpt>
      <trkpt lat="50.10787" lon="4.1909">
        <ele>179</ele>
        <time>2024-04-29T14:49:57Z</time>
      </trkpt>
      <trkpt lat="50.10785" lon="4.19098">
        <ele>179.2</ele>
        <time>2024-04-29T14:49:58Z</time>
      </trkpt>
      <trkpt lat="50.10782" lon="4.19105">
        <ele>179.2</ele>
        <time>2024-04-29T14:49:59Z</time>
      </trkpt>
      <trkpt lat="50.10779" lon="4.19113">
        <ele>179.4</ele>
        <time>2024-04-29T14:50:00Z</time>
      </trkpt>
      <trkpt lat="50.10776" lon="4.1912">
        <ele>179.6</ele>
        <time>2024-04-29T14:50:01Z</time>
      </trkpt>
      <trkpt lat="50.10773" lon="4.19127">
        <ele>179.8</ele>
        <time>2024-04-29T14:50:02Z</time>
      </trkpt>
      <trkpt lat="50.1077" lon="4.19135">
        <ele>179.8</ele>
        <time>2024-04-29T14:50:03Z</time>
      </trkpt>
      <trkpt lat="50.10767" lon="4.19142">
        <ele>180.6</ele>
        <time>2024-04-29T14:50:04Z</time>
      </trkpt>
      <trkpt lat="50.10764" lon="4.1915">
        <ele>180.8</ele>
        <time>2024-04-29T14:50:05Z</time>
      </trkpt>
      <trkpt lat="50.1076" lon="4.19157">
        <ele>181.2</ele>
        <time>2024-04-29T14:50:06Z</time>
      </trkpt>
      <trkpt lat="50.10756" lon="4.19165">
        <ele>181.4</ele>
        <time>2024-04-29T14:50:07Z</time>
      </trkpt>
      <trkpt lat="50.10752" lon="4.19173">
        <ele>181.4</ele>
        <time>2024-04-29T14:50:08Z</time>
      </trkpt>
      <trkpt lat="50.10748" lon="4.1918">
        <ele>181.4</ele>
        <time>2024-04-29T14:50:09Z</time>
      </trkpt>
      <trkpt lat="50.10743" lon="4.19188">
        <ele>181.4</ele>
        <time>2024-04-29T14:50:10Z</time>
      </trkpt>
      <trkpt lat="50.10738" lon="4.19196">
        <ele>181.6</ele>
        <time>2024-04-29T14:50:11Z</time>
      </trkpt>
      <trkpt lat="50.10733" lon="4.19203">
        <ele>181.4</ele>
        <time>2024-04-29T14:50:12Z</time>
      </trkpt>
      <trkpt lat="50.10728" lon="4.19211">
        <ele>181.6</ele>
        <time>2024-04-29T14:50:13Z</time>
      </trkpt>
      <trkpt lat="50.10723" lon="4.19219">
        <ele>181.6</ele>
        <time>2024-04-29T14:50:14Z</time>
      </trkpt>
      <trkpt lat="50.10717" lon="4.19227">
        <ele>181.6</ele>
        <time>2024-04-29T14:50:15Z</time>
      </trkpt>
      <trkpt lat="50.10711" lon="4.19235">
        <ele>181.4</ele>
        <time>2024-04-29T14:50:16Z</time>
      </trkpt>
      <trkpt lat="50.10706" lon="4.19244">
        <ele>181.4</ele>
        <time>2024-04-29T14:50:17Z</time>
      </trkpt>
      <trkpt lat="50.10701" lon="4.19253">
        <ele>181.4</ele>
        <time>2024-04-29T14:50:18Z</time>
      </trkpt>
      <trkpt lat="50.10695" lon="4.19262">
        <ele>181.4</ele>
        <time>2024-04-29T14:50:19Z</time>
      </trkpt>
      <trkpt lat="50.1069" lon="4.19271">
        <ele>181.4</ele>
        <time>2024-04-29T14:50:20Z</time>
      </trkpt>
      <trkpt lat="50.10685" lon="4.1928">
        <ele>181.2</ele>
        <time>2024-04-29T14:50:21Z</time>
      </trkpt>
      <trkpt lat="50.10679" lon="4.19289">
        <ele>181.2</ele>
        <time>2024-04-29T14:50:22Z</time>
      </trkpt>
      <trkpt lat="50.10674" lon="4.19299">
        <ele>181.2</ele>
        <time>2024-04-29T14:50:23Z</time>
      </trkpt>
      <trkpt lat="50.10669" lon="4.19308">
        <ele>181</ele>
        <time>2024-04-29T14:50:24Z</time>
      </trkpt>
      <trkpt lat="50.10663" lon="4.19316">
        <ele>181</ele>
        <time>2024-04-29T14:50:25Z</time>
      </trkpt>
      <trkpt lat="50.10657" lon="4.19323">
        <ele>181</ele>
        <time>2024-04-29T14:50:26Z</time>
      </trkpt>
      <trkpt lat="50.10651" lon="4.19328">
        <ele>181</ele>
        <time>2024-04-29T14:50:27Z</time>
      </trkpt>
      <trkpt lat="50.10644" lon="4.19331">
        <ele>180.4</ele>
        <time>2024-04-29T14:50:28Z</time>
      </trkpt>
      <trkpt lat="50.10638" lon="4.19333">
        <ele>180.2</ele>
        <time>2024-04-29T14:50:29Z</time>
      </trkpt>
      <trkpt lat="50.10631" lon="4.19334">
        <ele>180</ele>
        <time>2024-04-29T14:50:30Z</time>
      </trkpt>
      <trkpt lat="50.10624" lon="4.19336">
        <ele>180</ele>
        <time>2024-04-29T14:50:31Z</time>
      </trkpt>
      <trkpt lat="50.10617" lon="4.19337">
        <ele>179.6</ele>
        <time>2024-04-29T14:50:32Z</time>
      </trkpt>
      <trkpt lat="50.10609" lon="4.19338">
        <ele>179.4</ele>
        <time>2024-04-29T14:50:33Z</time>
      </trkpt>
      <trkpt lat="50.10603" lon="4.19338">
        <ele>179.4</ele>
        <time>2024-04-29T14:50:34Z</time>
      </trkpt>
      <trkpt lat="50.10596" lon="4.19339">
        <ele>179.2</ele>
        <time>2024-04-29T14:50:35Z</time>
      </trkpt>
      <trkpt lat="50.10588" lon="4.19339">
        <ele>179.2</ele>
        <time>2024-04-29T14:50:36Z</time>
      </trkpt>
      <trkpt lat="50.10581" lon="4.19339">
        <ele>179.2</ele>
        <time>2024-04-29T14:50:37Z</time>
      </trkpt>
      <trkpt lat="50.10574" lon="4.19339">
        <ele>179.2</ele>
        <time>2024-04-29T14:50:38Z</time>
      </trkpt>
      <trkpt lat="50.10568" lon="4.19338">
        <ele>179.2</ele>
        <time>2024-04-29T14:50:39Z</time>
      </trkpt>
      <trkpt lat="50.10561" lon="4.19337">
        <ele>179.2</ele>
        <time>2024-04-29T14:50:40Z</time>
      </trkpt>
      <trkpt lat="50.10555" lon="4.19336">
        <ele>179.4</ele>
        <time>2024-04-29T14:50:41Z</time>
      </trkpt>
      <trkpt lat="50.10548" lon="4.19334">
        <ele>179.2</ele>
        <time>2024-04-29T14:50:42Z</time>
      </trkpt>
      <trkpt lat="50.10542" lon="4.19333">
        <ele>179.2</ele>
        <time>2024-04-29T14:50:43Z</time>
      </trkpt>
      <trkpt lat="50.10536" lon="4.19332">
        <ele>179.4</ele>
        <time>2024-04-29T14:50:44Z</time>
      </trkpt>
      <trkpt lat="50.1053" lon="4.19331">
        <ele>179.4</ele>
        <time>2024-04-29T14:50:45Z</time>
      </trkpt>
      <trkpt lat="50.10523" lon="4.1933">
        <ele>179.4</ele>
        <time>2024-04-29T14:50:46Z</time>
      </trkpt>
      <trkpt lat="50.10516" lon="4.19329">
        <ele>179.4</ele>
        <time>2024-04-29T14:50:47Z</time>
      </trkpt>
      <trkpt lat="50.10509" lon="4.19328">
        <ele>180</ele>
        <time>2024-04-29T14:50:48Z</time>
      </trkpt>
      <trkpt lat="50.10502" lon="4.19326">
        <ele>180.6</ele>
        <time>2024-04-29T14:50:49Z</time>
      </trkpt>
      <trkpt lat="50.10494" lon="4.19325">
        <ele>180.8</ele>
        <time>2024-04-29T14:50:50Z</time>
      </trkpt>
      <trkpt lat="50.10486" lon="4.19325">
        <ele>180.8</ele>
        <time>2024-04-29T14:50:51Z</time>
      </trkpt>
      <trkpt lat="50.10478" lon="4.19324">
        <ele>181</ele>
        <time>2024-04-29T14:50:52Z</time>
      </trkpt>
      <trkpt lat="50.1047" lon="4.19323">
        <ele>181</ele>
        <time>2024-04-29T14:50:53Z</time>
      </trkpt>
      <trkpt lat="50.10462" lon="4.19322">
        <ele>181</ele>
        <time>2024-04-29T14:50:54Z</time>
      </trkpt>
      <trkpt lat="50.10454" lon="4.1932">
        <ele>181</ele>
        <time>2024-04-29T14:50:55Z</time>
      </trkpt>
      <trkpt lat="50.10446" lon="4.19319">
        <ele>181</ele>
        <time>2024-04-29T14:50:56Z</time>
      </trkpt>
      <trkpt lat="50.10438" lon="4.19318">
        <ele>181.2</ele>
        <time>2024-04-29T14:50:57Z</time>
      </trkpt>
      <trkpt lat="50.1043" lon="4.19316">
        <ele>181</ele>
        <time>2024-04-29T14:50:58Z</time>
      </trkpt>
      <trkpt lat="50.10423" lon="4.19315">
        <ele>181</ele>
        <time>2024-04-29T14:50:59Z</time>
      </trkpt>
      <trkpt lat="50.10415" lon="4.19314">
        <ele>180.4</ele>
        <time>2024-04-29T14:51:00Z</time>
      </trkpt>
      <trkpt lat="50.10408" lon="4.19313">
        <ele>180</ele>
        <time>2024-04-29T14:51:01Z</time>
      </trkpt>
      <trkpt lat="50.104" lon="4.19313">
        <ele>179.6</ele>
        <time>2024-04-29T14:51:02Z</time>
      </trkpt>
      <trkpt lat="50.10393" lon="4.19312">
        <ele>179</ele>
        <time>2024-04-29T14:51:03Z</time>
      </trkpt>
      <trkpt lat="50.10386" lon="4.19312">
        <ele>178.6</ele>
        <time>2024-04-29T14:51:04Z</time>
      </trkpt>
      <trkpt lat="50.10379" lon="4.19312">
        <ele>178.6</ele>
        <time>2024-04-29T14:51:05Z</time>
      </trkpt>
      <trkpt lat="50.10372" lon="4.19312">
        <ele>178.4</ele>
        <time>2024-04-29T14:51:06Z</time>
      </trkpt>
      <trkpt lat="50.10365" lon="4.19312">
        <ele>178.2</ele>
        <time>2024-04-29T14:51:07Z</time>
      </trkpt>
      <trkpt lat="50.10358" lon="4.19312">
        <ele>178.2</ele>
        <time>2024-04-29T14:51:08Z</time>
      </trkpt>
      <trkpt lat="50.10352" lon="4.19313">
        <ele>178.4</ele>
        <time>2024-04-29T14:51:09Z</time>
      </trkpt>
      <trkpt lat="50.10345" lon="4.19313">
        <ele>178.2</ele>
        <time>2024-04-29T14:51:10Z</time>
      </trkpt>
      <trkpt lat="50.10339" lon="4.19313">
        <ele>178.4</ele>
        <time>2024-04-29T14:51:11Z</time>
      </trkpt>
      <trkpt lat="50.10332" lon="4.19313">
        <ele>178.4</ele>
        <time>2024-04-29T14:51:12Z</time>
      </trkpt>
      <trkpt lat="50.10326" lon="4.19313">
        <ele>178.4</ele>
        <time>2024-04-29T14:51:13Z</time>
      </trkpt>
      <trkpt lat="50.1032" lon="4.19313">
        <ele>178.4</ele>
        <time>2024-04-29T14:51:14Z</time>
      </trkpt>
      <trkpt lat="50.10314" lon="4.19313">
        <ele>178.4</ele>
        <time>2024-04-29T14:51:15Z</time>
      </trkpt>
      <trkpt lat="50.10308" lon="4.19313">
        <ele>178.4</ele>
        <time>2024-04-29T14:51:16Z</time>
      </trkpt>
      <trkpt lat="50.10302" lon="4.19313">
        <ele>178.4</ele>
        <time>2024-04-29T14:51:17Z</time>
      </trkpt>
      <trkpt lat="50.10296" lon="4.19313">
        <ele>178.8</ele>
        <time>2024-04-29T14:51:18Z</time>
      </trkpt>
      <trkpt lat="50.1029" lon="4.19313">
        <ele>178.8</ele>
        <time>2024-04-29T14:51:19Z</time>
      </trkpt>
      <trkpt lat="50.10285" lon="4.19313">
        <ele>178.8</ele>
        <time>2024-04-29T14:51:20Z</time>
      </trkpt>
      <trkpt lat="50.10279" lon="4.19313">
        <ele>179</ele>
        <time>2024-04-29T14:51:21Z</time>
      </trkpt>
      <trkpt lat="50.10273" lon="4.19313">
        <ele>179.2</ele>
        <time>2024-04-29T14:51:22Z</time>
      </trkpt>
      <trkpt lat="50.10267" lon="4.19313">
        <ele>179.4</ele>
        <time>2024-04-29T14:51:23Z</time>
      </trkpt>
      <trkpt lat="50.10261" lon="4.19313">
        <ele>179.4</ele>
        <time>2024-04-29T14:51:24Z</time>
      </trkpt>
      <trkpt lat="50.10255" lon="4.19313">
        <ele>179.6</ele>
        <time>2024-04-29T14:51:25Z</time>
      </trkpt>
      <trkpt lat="50.10249" lon="4.19313">
        <ele>179.8</ele>
        <time>2024-04-29T14:51:26Z</time>
      </trkpt>
      <trkpt lat="50.10243" lon="4.19314">
        <ele>179.8</ele>
        <time>2024-04-29T14:51:27Z</time>
      </trkpt>
      <trkpt lat="50.10237" lon="4.19314">
        <ele>180</ele>
        <time>2024-04-29T14:51:28Z</time>
      </trkpt>
      <trkpt lat="50.10231" lon="4.19314">
        <ele>180.4</ele>
        <time>2024-04-29T14:51:29Z</time>
      </trkpt>
      <trkpt lat="50.10225" lon="4.19314">
        <ele>180.4</ele>
        <time>2024-04-29T14:51:30Z</time>
      </trkpt>
      <trkpt lat="50.10219" lon="4.19314">
        <ele>181</ele>
        <time>2024-04-29T14:51:31Z</time>
      </trkpt>
      <trkpt lat="50.10213" lon="4.19314">
        <ele>181.4</ele>
        <time>2024-04-29T14:51:32Z</time>
      </trkpt>
      <trkpt lat="50.10207" lon="4.19313">
        <ele>181.8</ele>
        <time>2024-04-29T14:51:33Z</time>
      </trkpt>
      <trkpt lat="50.102" lon="4.19313">
        <ele>182</ele>
        <time>2024-04-29T14:51:34Z</time>
      </trkpt>
      <trkpt lat="50.10194" lon="4.19313">
        <ele>182.6</ele>
        <time>2024-04-29T14:51:35Z</time>
      </trkpt>
      <trkpt lat="50.10188" lon="4.19313">
        <ele>182.8</ele>
        <time>2024-04-29T14:51:36Z</time>
      </trkpt>
      <trkpt lat="50.10182" lon="4.19313">
        <ele>183</ele>
        <time>2024-04-29T14:51:37Z</time>
      </trkpt>
      <trkpt lat="50.10175" lon="4.19313">
        <ele>183.2</ele>
        <time>2024-04-29T14:51:38Z</time>
      </trkpt>
      <trkpt lat="50.10169" lon="4.19313">
        <ele>183.2</ele>
        <time>2024-04-29T14:51:39Z</time>
      </trkpt>
      <trkpt lat="50.10163" lon="4.19313">
        <ele>183.2</ele>
        <time>2024-04-29T14:51:40Z</time>
      </trkpt>
      <trkpt lat="50.10157" lon="4.19313">
        <ele>183.4</ele>
        <time>2024-04-29T14:51:41Z</time>
      </trkpt>
      <trkpt lat="50.10151" lon="4.19314">
        <ele>183.6</ele>
        <time>2024-04-29T14:51:42Z</time>
      </trkpt>
      <trkpt lat="50.10144" lon="4.19314">
        <ele>183.6</ele>
        <time>2024-04-29T14:51:43Z</time>
      </trkpt>
      <trkpt lat="50.10138" lon="4.19315">
        <ele>184</ele>
        <time>2024-04-29T14:51:44Z</time>
      </trkpt>
      <trkpt lat="50.10132" lon="4.19317">
        <ele>184.2</ele>
        <time>2024-04-29T14:51:45Z</time>
      </trkpt>
      <trkpt lat="50.10127" lon="4.19318">
        <ele>184.6</ele>
        <time>2024-04-29T14:51:46Z</time>
      </trkpt>
      <trkpt lat="50.10121" lon="4.1932">
        <ele>184.8</ele>
        <time>2024-04-29T14:51:47Z</time>
      </trkpt>
      <trkpt lat="50.10115" lon="4.19323">
        <ele>185</ele>
        <time>2024-04-29T14:51:48Z</time>
      </trkpt>
      <trkpt lat="50.1011" lon="4.19326">
        <ele>185.2</ele>
        <time>2024-04-29T14:51:49Z</time>
      </trkpt>
      <trkpt lat="50.10104" lon="4.19329">
        <ele>185.2</ele>
        <time>2024-04-29T14:51:50Z</time>
      </trkpt>
      <trkpt lat="50.10099" lon="4.19333">
        <ele>185.2</ele>
        <time>2024-04-29T14:51:51Z</time>
      </trkpt>
      <trkpt lat="50.10094" lon="4.19337">
        <ele>185.2</ele>
        <time>2024-04-29T14:51:52Z</time>
      </trkpt>
      <trkpt lat="50.10089" lon="4.19341">
        <ele>185.4</ele>
        <time>2024-04-29T14:51:53Z</time>
      </trkpt>
      <trkpt lat="50.10084" lon="4.19345">
        <ele>185.6</ele>
        <time>2024-04-29T14:51:54Z</time>
      </trkpt>
      <trkpt lat="50.10078" lon="4.19349">
        <ele>185.6</ele>
        <time>2024-04-29T14:51:55Z</time>
      </trkpt>
      <trkpt lat="50.10073" lon="4.19353">
        <ele>185.6</ele>
        <time>2024-04-29T14:51:56Z</time>
      </trkpt>
      <trkpt lat="50.10068" lon="4.19358">
        <ele>186</ele>
        <time>2024-04-29T14:51:57Z</time>
      </trkpt>
      <trkpt lat="50.10062" lon="4.19362">
        <ele>186.2</ele>
        <time>2024-04-29T14:51:58Z</time>
      </trkpt>
      <trkpt lat="50.10056" lon="4.19366">
        <ele>186.2</ele>
        <time>2024-04-29T14:51:59Z</time>
      </trkpt>
      <trkpt lat="50.1005" lon="4.1937">
        <ele>186.2</ele>
        <time>2024-04-29T14:52:00Z</time>
      </trkpt>
      <trkpt lat="50.10044" lon="4.19374">
        <ele>186.2</ele>
        <time>2024-04-29T14:52:01Z</time>
      </trkpt>
      <trkpt lat="50.10038" lon="4.19377">
        <ele>186.4</ele>
        <time>2024-04-29T14:52:02Z</time>
      </trkpt>
      <trkpt lat="50.10031" lon="4.19381">
        <ele>186.4</ele>
        <time>2024-04-29T14:52:03Z</time>
      </trkpt>
      <trkpt lat="50.10024" lon="4.19383">
        <ele>186.6</ele>
        <time>2024-04-29T14:52:04Z</time>
      </trkpt>
      <trkpt lat="50.10017" lon="4.19386">
        <ele>186.6</ele>
        <time>2024-04-29T14:52:05Z</time>
      </trkpt>
      <trkpt lat="50.10011" lon="4.19388">
        <ele>186.6</ele>
        <time>2024-04-29T14:52:06Z</time>
      </trkpt>
      <trkpt lat="50.10004" lon="4.19389">
        <ele>186.6</ele>
        <time>2024-04-29T14:52:07Z</time>
      </trkpt>
      <trkpt lat="50.09997" lon="4.1939">
        <ele>186.6</ele>
        <time>2024-04-29T14:52:08Z</time>
      </trkpt>
      <trkpt lat="50.0999" lon="4.19391">
        <ele>186.4</ele>
        <time>2024-04-29T14:52:09Z</time>
      </trkpt>
      <trkpt lat="50.09982" lon="4.19392">
        <ele>186.4</ele>
        <time>2024-04-29T14:52:10Z</time>
      </trkpt>
      <trkpt lat="50.09975" lon="4.19392">
        <ele>186.4</ele>
        <time>2024-04-29T14:52:11Z</time>
      </trkpt>
      <trkpt lat="50.09968" lon="4.19393">
        <ele>186.4</ele>
        <time>2024-04-29T14:52:12Z</time>
      </trkpt>
      <trkpt lat="50.0996" lon="4.19394">
        <ele>186.2</ele>
        <time>2024-04-29T14:52:13Z</time>
      </trkpt>
      <trkpt lat="50.09953" lon="4.19395">
        <ele>186.2</ele>
        <time>2024-04-29T14:52:14Z</time>
      </trkpt>
      <trkpt lat="50.09946" lon="4.19396">
        <ele>186.2</ele>
        <time>2024-04-29T14:52:15Z</time>
      </trkpt>
      <trkpt lat="50.09938" lon="4.19397">
        <ele>186</ele>
        <time>2024-04-29T14:52:16Z</time>
      </trkpt>
      <trkpt lat="50.09931" lon="4.19397">
        <ele>186</ele>
        <time>2024-04-29T14:52:17Z</time>
      </trkpt>
      <trkpt lat="50.09923" lon="4.19398">
        <ele>185.8</ele>
        <time>2024-04-29T14:52:18Z</time>
      </trkpt>
      <trkpt lat="50.09916" lon="4.19399">
        <ele>185.8</ele>
        <time>2024-04-29T14:52:19Z</time>
      </trkpt>
      <trkpt lat="50.09909" lon="4.194">
        <ele>185.6</ele>
        <time>2024-04-29T14:52:20Z</time>
      </trkpt>
      <trkpt lat="50.09901" lon="4.194">
        <ele>185.2</ele>
        <time>2024-04-29T14:52:21Z</time>
      </trkpt>
      <trkpt lat="50.09893" lon="4.194">
        <ele>185</ele>
        <time>2024-04-29T14:52:22Z</time>
      </trkpt>
      <trkpt lat="50.09886" lon="4.194">
        <ele>184.6</ele>
        <time>2024-04-29T14:52:23Z</time>
      </trkpt>
      <trkpt lat="50.09878" lon="4.194">
        <ele>184</ele>
        <time>2024-04-29T14:52:24Z</time>
      </trkpt>
      <trkpt lat="50.0987" lon="4.194">
        <ele>183.6</ele>
        <time>2024-04-29T14:52:25Z</time>
      </trkpt>
      <trkpt lat="50.09862" lon="4.194">
        <ele>183.2</ele>
        <time>2024-04-29T14:52:26Z</time>
      </trkpt>
      <trkpt lat="50.09854" lon="4.194">
        <ele>183</ele>
        <time>2024-04-29T14:52:27Z</time>
      </trkpt>
      <trkpt lat="50.09846" lon="4.194">
        <ele>182.8</ele>
        <time>2024-04-29T14:52:28Z</time>
      </trkpt>
      <trkpt lat="50.09837" lon="4.194">
        <ele>182.6</ele>
        <time>2024-04-29T14:52:29Z</time>
      </trkpt>
      <trkpt lat="50.09829" lon="4.194">
        <ele>182.2</ele>
        <time>2024-04-29T14:52:30Z</time>
      </trkpt>
      <trkpt lat="50.09821" lon="4.194">
        <ele>182</ele>
        <time>2024-04-29T14:52:31Z</time>
      </trkpt>
      <trkpt lat="50.09813" lon="4.19399">
        <ele>181.4</ele>
        <time>2024-04-29T14:52:32Z</time>
      </trkpt>
      <trkpt lat="50.09805" lon="4.19399">
        <ele>181.4</ele>
        <time>2024-04-29T14:52:33Z</time>
      </trkpt>
      <trkpt lat="50.09798" lon="4.19399">
        <ele>180.8</ele>
        <time>2024-04-29T14:52:34Z</time>
      </trkpt>
      <trkpt lat="50.0979" lon="4.19398">
        <ele>180.4</ele>
        <time>2024-04-29T14:52:35Z</time>
      </trkpt>
      <trkpt lat="50.09783" lon="4.19398">
        <ele>180.2</ele>
        <time>2024-04-29T14:52:36Z</time>
      </trkpt>
      <trkpt lat="50.09776" lon="4.19398">
        <ele>180</ele>
        <time>2024-04-29T14:52:37Z</time>
      </trkpt>
      <trkpt lat="50.09769" lon="4.19398">
        <ele>180</ele>
        <time>2024-04-29T14:52:38Z</time>
      </trkpt>
      <trkpt lat="50.09762" lon="4.19398">
        <ele>179.8</ele>
        <time>2024-04-29T14:52:39Z</time>
      </trkpt>
      <trkpt lat="50.09755" lon="4.19398">
        <ele>179.6</ele>
        <time>2024-04-29T14:52:40Z</time>
      </trkpt>
      <trkpt lat="50.09748" lon="4.19398">
        <ele>179.6</ele>
        <time>2024-04-29T14:52:41Z</time>
      </trkpt>
      <trkpt lat="50.09741" lon="4.19399">
        <ele>179.6</ele>
        <time>2024-04-29T14:52:42Z</time>
      </trkpt>
      <trkpt lat="50.09733" lon="4.194">
        <ele>179.4</ele>
        <time>2024-04-29T14:52:43Z</time>
      </trkpt>
      <trkpt lat="50.09726" lon="4.19402">
        <ele>179.6</ele>
        <time>2024-04-29T14:52:44Z</time>
      </trkpt>
      <trkpt lat="50.09719" lon="4.19405">
        <ele>179.6</ele>
        <time>2024-04-29T14:52:45Z</time>
      </trkpt>
      <trkpt lat="50.09713" lon="4.19409">
        <ele>179.6</ele>
        <time>2024-04-29T14:52:46Z</time>
      </trkpt>
      <trkpt lat="50.09707" lon="4.19414">
        <ele>179.6</ele>
        <time>2024-04-29T14:52:47Z</time>
      </trkpt>
      <trkpt lat="50.097" lon="4.19419">
        <ele>179.6</ele>
        <time>2024-04-29T14:52:48Z</time>
      </trkpt>
      <trkpt lat="50.09694" lon="4.19425">
        <ele>179.6</ele>
        <time>2024-04-29T14:52:49Z</time>
      </trkpt>
      <trkpt lat="50.09689" lon="4.19431">
        <ele>179.6</ele>
        <time>2024-04-29T14:52:50Z</time>
      </trkpt>
      <trkpt lat="50.09683" lon="4.19437">
        <ele>179.8</ele>
        <time>2024-04-29T14:52:51Z</time>
      </trkpt>
      <trkpt lat="50.09677" lon="4.19443">
        <ele>179.6</ele>
        <time>2024-04-29T14:52:52Z</time>
      </trkpt>
      <trkpt lat="50.09671" lon="4.19448">
        <ele>179.6</ele>
        <time>2024-04-29T14:52:53Z</time>
      </trkpt>
      <trkpt lat="50.09665" lon="4.19454">
        <ele>179.6</ele>
        <time>2024-04-29T14:52:54Z</time>
      </trkpt>
      <trkpt lat="50.09659" lon="4.19461">
        <ele>179.6</ele>
        <time>2024-04-29T14:52:55Z</time>
      </trkpt>
      <trkpt lat="50.09653" lon="4.19467">
        <ele>179.6</ele>
        <time>2024-04-29T14:52:56Z</time>
      </trkpt>
      <trkpt lat="50.09648" lon="4.19473">
        <ele>179.6</ele>
        <time>2024-04-29T14:52:57Z</time>
      </trkpt>
      <trkpt lat="50.09642" lon="4.1948">
        <ele>179.6</ele>
        <time>2024-04-29T14:52:58Z</time>
      </trkpt>
      <trkpt lat="50.09637" lon="4.19487">
        <ele>179.8</ele>
        <time>2024-04-29T14:52:59Z</time>
      </trkpt>
      <trkpt lat="50.09631" lon="4.19494">
        <ele>179.6</ele>
        <time>2024-04-29T14:53:00Z</time>
      </trkpt>
      <trkpt lat="50.09626" lon="4.19501">
        <ele>179.6</ele>
        <time>2024-04-29T14:53:01Z</time>
      </trkpt>
      <trkpt lat="50.09621" lon="4.19508">
        <ele>179.6</ele>
        <time>2024-04-29T14:53:02Z</time>
      </trkpt>
      <trkpt lat="50.09616" lon="4.19516">
        <ele>179.6</ele>
        <time>2024-04-29T14:53:03Z</time>
      </trkpt>
      <trkpt lat="50.09611" lon="4.19523">
        <ele>179.6</ele>
        <time>2024-04-29T14:53:04Z</time>
      </trkpt>
      <trkpt lat="50.09605" lon="4.19529">
        <ele>179.4</ele>
        <time>2024-04-29T14:53:05Z</time>
      </trkpt>
      <trkpt lat="50.09599" lon="4.19534">
        <ele>179.2</ele>
        <time>2024-04-29T14:53:06Z</time>
      </trkpt>
      <trkpt lat="50.09592" lon="4.19537">
        <ele>179</ele>
        <time>2024-04-29T14:53:07Z</time>
      </trkpt>
      <trkpt lat="50.09585" lon="4.19539">
        <ele>179</ele>
        <time>2024-04-29T14:53:08Z</time>
      </trkpt>
      <trkpt lat="50.09579" lon="4.19541">
        <ele>178.8</ele>
        <time>2024-04-29T14:53:09Z</time>
      </trkpt>
      <trkpt lat="50.09572" lon="4.19542">
        <ele>178.8</ele>
        <time>2024-04-29T14:53:10Z</time>
      </trkpt>
      <trkpt lat="50.09565" lon="4.19543">
        <ele>178.8</ele>
        <time>2024-04-29T14:53:11Z</time>
      </trkpt>
      <trkpt lat="50.09558" lon="4.19543">
        <ele>178.8</ele>
        <time>2024-04-29T14:53:12Z</time>
      </trkpt>
      <trkpt lat="50.09552" lon="4.19543">
        <ele>178.8</ele>
        <time>2024-04-29T14:53:13Z</time>
      </trkpt>
      <trkpt lat="50.09545" lon="4.19542">
        <ele>178.8</ele>
        <time>2024-04-29T14:53:14Z</time>
      </trkpt>
      <trkpt lat="50.09539" lon="4.19542">
        <ele>178.8</ele>
        <time>2024-04-29T14:53:15Z</time>
      </trkpt>
      <trkpt lat="50.09532" lon="4.19541">
        <ele>178.8</ele>
        <time>2024-04-29T14:53:16Z</time>
      </trkpt>
      <trkpt lat="50.09526" lon="4.1954">
        <ele>178.8</ele>
        <time>2024-04-29T14:53:17Z</time>
      </trkpt>
      <trkpt lat="50.0952" lon="4.19538">
        <ele>178.8</ele>
        <time>2024-04-29T14:53:18Z</time>
      </trkpt>
      <trkpt lat="50.09514" lon="4.19536">
        <ele>179</ele>
        <time>2024-04-29T14:53:19Z</time>
      </trkpt>
      <trkpt lat="50.09509" lon="4.19532">
        <ele>179</ele>
        <time>2024-04-29T14:53:20Z</time>
      </trkpt>
      <trkpt lat="50.09503" lon="4.19528">
        <ele>179.2</ele>
        <time>2024-04-29T14:53:21Z</time>
      </trkpt>
      <trkpt lat="50.09498" lon="4.19522">
        <ele>179.2</ele>
        <time>2024-04-29T14:53:22Z</time>
      </trkpt>
      <trkpt lat="50.09493" lon="4.19516">
        <ele>179.6</ele>
        <time>2024-04-29T14:53:23Z</time>
      </trkpt>
      <trkpt lat="50.09489" lon="4.19508">
        <ele>179.6</ele>
        <time>2024-04-29T14:53:24Z</time>
      </trkpt>
      <trkpt lat="50.09484" lon="4.195">
        <ele>180</ele>
        <time>2024-04-29T14:53:25Z</time>
      </trkpt>
      <trkpt lat="50.0948" lon="4.19492">
        <ele>180</ele>
        <time>2024-04-29T14:53:26Z</time>
      </trkpt>
      <trkpt lat="50.09475" lon="4.19484">
        <ele>180.6</ele>
        <time>2024-04-29T14:53:27Z</time>
      </trkpt>
      <trkpt lat="50.09471" lon="4.19476">
        <ele>181.4</ele>
        <time>2024-04-29T14:53:28Z</time>
      </trkpt>
      <trkpt lat="50.09466" lon="4.19468">
        <ele>181.8</ele>
        <time>2024-04-29T14:53:29Z</time>
      </trkpt>
      <trkpt lat="50.09461" lon="4.1946">
        <ele>182</ele>
        <time>2024-04-29T14:53:30Z</time>
      </trkpt>
      <trkpt lat="50.09456" lon="4.19452">
        <ele>182.2</ele>
        <time>2024-04-29T14:53:31Z</time>
      </trkpt>
      <trkpt lat="50.09452" lon="4.19444">
        <ele>182.6</ele>
        <time>2024-04-29T14:53:32Z</time>
      </trkpt>
      <trkpt lat="50.09447" lon="4.19436">
        <ele>182.4</ele>
        <time>2024-04-29T14:53:33Z</time>
      </trkpt>
      <trkpt lat="50.09442" lon="4.19428">
        <ele>182.4</ele>
        <time>2024-04-29T14:53:34Z</time>
      </trkpt>
      <trkpt lat="50.09437" lon="4.1942">
        <ele>182.6</ele>
        <time>2024-04-29T14:53:35Z</time>
      </trkpt>
      <trkpt lat="50.09433" lon="4.19412">
        <ele>182.8</ele>
        <time>2024-04-29T14:53:36Z</time>
      </trkpt>
      <trkpt lat="50.09428" lon="4.19404">
        <ele>182.6</ele>
        <time>2024-04-29T14:53:37Z</time>
      </trkpt>
      <trkpt lat="50.09424" lon="4.19397">
        <ele>182.6</ele>
        <time>2024-04-29T14:53:38Z</time>
      </trkpt>
      <trkpt lat="50.09419" lon="4.1939">
        <ele>182.8</ele>
        <time>2024-04-29T14:53:39Z</time>
      </trkpt>
      <trkpt lat="50.09415" lon="4.19382">
        <ele>182.6</ele>
        <time>2024-04-29T14:53:40Z</time>
      </trkpt>
      <trkpt lat="50.0941" lon="4.19375">
        <ele>182.8</ele>
        <time>2024-04-29T14:53:41Z</time>
      </trkpt>
      <trkpt lat="50.09405" lon="4.19368">
        <ele>182.8</ele>
        <time>2024-04-29T14:53:42Z</time>
      </trkpt>
      <trkpt lat="50.094" lon="4.19361">
        <ele>182.6</ele>
        <time>2024-04-29T14:53:43Z</time>
      </trkpt>
      <trkpt lat="50.09395" lon="4.19354">
        <ele>182.6</ele>
        <time>2024-04-29T14:53:44Z</time>
      </trkpt>
      <trkpt lat="50.09389" lon="4.19347">
        <ele>182.6</ele>
        <time>2024-04-29T14:53:45Z</time>
      </trkpt>
      <trkpt lat="50.09384" lon="4.19342">
        <ele>182.8</ele>
        <time>2024-04-29T14:53:46Z</time>
      </trkpt>
      <trkpt lat="50.09378" lon="4.19337">
        <ele>182.6</ele>
        <time>2024-04-29T14:53:47Z</time>
      </trkpt>
      <trkpt lat="50.09372" lon="4.19332">
        <ele>182.6</ele>
        <time>2024-04-29T14:53:48Z</time>
      </trkpt>
      <trkpt lat="50.09366" lon="4.19329">
        <ele>182.8</ele>
        <time>2024-04-29T14:53:49Z</time>
      </trkpt>
      <trkpt lat="50.09359" lon="4.19326">
        <ele>182.8</ele>
        <time>2024-04-29T14:53:50Z</time>
      </trkpt>
      <trkpt lat="50.09353" lon="4.19324">
        <ele>182.8</ele>
        <time>2024-04-29T14:53:51Z</time>
      </trkpt>
      <trkpt lat="50.09347" lon="4.19323">
        <ele>183</ele>
        <time>2024-04-29T14:53:52Z</time>
      </trkpt>
      <trkpt lat="50.09341" lon="4.19322">
        <ele>182.8</ele>
        <time>2024-04-29T14:53:53Z</time>
      </trkpt>
      <trkpt lat="50.09334" lon="4.19321">
        <ele>182.8</ele>
        <time>2024-04-29T14:53:54Z</time>
      </trkpt>
      <trkpt lat="50.09327" lon="4.19321">
        <ele>183</ele>
        <time>2024-04-29T14:53:55Z</time>
      </trkpt>
      <trkpt lat="50.09321" lon="4.1932">
        <ele>183</ele>
        <time>2024-04-29T14:53:56Z</time>
      </trkpt>
      <trkpt lat="50.09314" lon="4.1932">
        <ele>183</ele>
        <time>2024-04-29T14:53:57Z</time>
      </trkpt>
      <trkpt lat="50.09307" lon="4.19321">
        <ele>183.2</ele>
        <time>2024-04-29T14:53:58Z</time>
      </trkpt>
      <trkpt lat="50.093" lon="4.19321">
        <ele>183</ele>
        <time>2024-04-29T14:53:59Z</time>
      </trkpt>
      <trkpt lat="50.09294" lon="4.19322">
        <ele>183</ele>
        <time>2024-04-29T14:54:00Z</time>
      </trkpt>
      <trkpt lat="50.09287" lon="4.19323">
        <ele>183.2</ele>
        <time>2024-04-29T14:54:01Z</time>
      </trkpt>
      <trkpt lat="50.0928" lon="4.19324">
        <ele>183.4</ele>
        <time>2024-04-29T14:54:02Z</time>
      </trkpt>
      <trkpt lat="50.09274" lon="4.19326">
        <ele>183.4</ele>
        <time>2024-04-29T14:54:03Z</time>
      </trkpt>
      <trkpt lat="50.09268" lon="4.19328">
        <ele>183.4</ele>
        <time>2024-04-29T14:54:04Z</time>
      </trkpt>
      <trkpt lat="50.09261" lon="4.1933">
        <ele>183.6</ele>
        <time>2024-04-29T14:54:05Z</time>
      </trkpt>
      <trkpt lat="50.09254" lon="4.19332">
        <ele>183.6</ele>
        <time>2024-04-29T14:54:06Z</time>
      </trkpt>
      <trkpt lat="50.09248" lon="4.19335">
        <ele>183.6</ele>
        <time>2024-04-29T14:54:07Z</time>
      </trkpt>
      <trkpt lat="50.09241" lon="4.19337">
        <ele>183.8</ele>
        <time>2024-04-29T14:54:08Z</time>
      </trkpt>
      <trkpt lat="50.09235" lon="4.1934">
        <ele>183.8</ele>
        <time>2024-04-29T14:54:09Z</time>
      </trkpt>
      <trkpt lat="50.09228" lon="4.19342">
        <ele>184.2</ele>
        <time>2024-04-29T14:54:10Z</time>
      </trkpt>
      <trkpt lat="50.09222" lon="4.19344">
        <ele>184.4</ele>
        <time>2024-04-29T14:54:11Z</time>
      </trkpt>
      <trkpt lat="50.09215" lon="4.19346">
        <ele>184.8</ele>
        <time>2024-04-29T14:54:12Z</time>
      </trkpt>
      <trkpt lat="50.09208" lon="4.19348">
        <ele>184.8</ele>
        <time>2024-04-29T14:54:13Z</time>
      </trkpt>
      <trkpt lat="50.09202" lon="4.19349">
        <ele>185</ele>
        <time>2024-04-29T14:54:14Z</time>
      </trkpt>
      <trkpt lat="50.09195" lon="4.1935">
        <ele>185</ele>
        <time>2024-04-29T14:54:15Z</time>
      </trkpt>
      <trkpt lat="50.09189" lon="4.19352">
        <ele>185.2</ele>
        <time>2024-04-29T14:54:16Z</time>
      </trkpt>
      <trkpt lat="50.09182" lon="4.19352">
        <ele>185.2</ele>
        <time>2024-04-29T14:54:17Z</time>
      </trkpt>
      <trkpt lat="50.09175" lon="4.19353">
        <ele>185.4</ele>
        <time>2024-04-29T14:54:18Z</time>
      </trkpt>
      <trkpt lat="50.09169" lon="4.19354">
        <ele>185.6</ele>
        <time>2024-04-29T14:54:19Z</time>
      </trkpt>
      <trkpt lat="50.09162" lon="4.19354">
        <ele>185.8</ele>
        <time>2024-04-29T14:54:20Z</time>
      </trkpt>
      <trkpt lat="50.09156" lon="4.19354">
        <ele>185.8</ele>
        <time>2024-04-29T14:54:21Z</time>
      </trkpt>
      <trkpt lat="50.09149" lon="4.19354">
        <ele>185.8</ele>
        <time>2024-04-29T14:54:22Z</time>
      </trkpt>
      <trkpt lat="50.09143" lon="4.19354">
        <ele>185.8</ele>
        <time>2024-04-29T14:54:23Z</time>
      </trkpt>
      <trkpt lat="50.09136" lon="4.19354">
        <ele>186</ele>
        <time>2024-04-29T14:54:24Z</time>
      </trkpt>
      <trkpt lat="50.09129" lon="4.19354">
        <ele>186</ele>
        <time>2024-04-29T14:54:25Z</time>
      </trkpt>
      <trkpt lat="50.09122" lon="4.19353">
        <ele>186.2</ele>
        <time>2024-04-29T14:54:26Z</time>
      </trkpt>
      <trkpt lat="50.09115" lon="4.19353">
        <ele>186.4</ele>
        <time>2024-04-29T14:54:27Z</time>
      </trkpt>
      <trkpt lat="50.09108" lon="4.19353">
        <ele>186.6</ele>
        <time>2024-04-29T14:54:28Z</time>
      </trkpt>
      <trkpt lat="50.09101" lon="4.19353">
        <ele>186.8</ele>
        <time>2024-04-29T14:54:29Z</time>
      </trkpt>
      <trkpt lat="50.09094" lon="4.19353">
        <ele>186.8</ele>
        <time>2024-04-29T14:54:30Z</time>
      </trkpt>
      <trkpt lat="50.09086" lon="4.19353">
        <ele>186.8</ele>
        <time>2024-04-29T14:54:31Z</time>
      </trkpt>
      <trkpt lat="50.09079" lon="4.19353">
        <ele>187</ele>
        <time>2024-04-29T14:54:32Z</time>
      </trkpt>
      <trkpt lat="50.09072" lon="4.19353">
        <ele>187</ele>
        <time>2024-04-29T14:54:33Z</time>
      </trkpt>
      <trkpt lat="50.09065" lon="4.19353">
        <ele>187</ele>
        <time>2024-04-29T14:54:34Z</time>
      </trkpt>
      <trkpt lat="50.09058" lon="4.19353">
        <ele>187</ele>
        <time>2024-04-29T14:54:35Z</time>
      </trkpt>
      <trkpt lat="50.0905" lon="4.19353">
        <ele>187</ele>
        <time>2024-04-29T14:54:36Z</time>
      </trkpt>
      <trkpt lat="50.09043" lon="4.19353">
        <ele>187</ele>
        <time>2024-04-29T14:54:37Z</time>
      </trkpt>
      <trkpt lat="50.09036" lon="4.19353">
        <ele>187</ele>
        <time>2024-04-29T14:54:38Z</time>
      </trkpt>
      <trkpt lat="50.09029" lon="4.19352">
        <ele>187</ele>
        <time>2024-04-29T14:54:39Z</time>
      </trkpt>
      <trkpt lat="50.09021" lon="4.19352">
        <ele>187</ele>
        <time>2024-04-29T14:54:40Z</time>
      </trkpt>
      <trkpt lat="50.09014" lon="4.19351">
        <ele>186.8</ele>
        <time>2024-04-29T14:54:41Z</time>
      </trkpt>
      <trkpt lat="50.09007" lon="4.1935">
        <ele>186.8</ele>
        <time>2024-04-29T14:54:42Z</time>
      </trkpt>
      <trkpt lat="50.08999" lon="4.19348">
        <ele>186.6</ele>
        <time>2024-04-29T14:54:43Z</time>
      </trkpt>
      <trkpt lat="50.08992" lon="4.19346">
        <ele>186.6</ele>
        <time>2024-04-29T14:54:44Z</time>
      </trkpt>
      <trkpt lat="50.08985" lon="4.19343">
        <ele>186.6</ele>
        <time>2024-04-29T14:54:45Z</time>
      </trkpt>
      <trkpt lat="50.08977" lon="4.19341">
        <ele>186.4</ele>
        <time>2024-04-29T14:54:46Z</time>
      </trkpt>
      <trkpt lat="50.0897" lon="4.19338">
        <ele>186.4</ele>
        <time>2024-04-29T14:54:47Z</time>
      </trkpt>
      <trkpt lat="50.08963" lon="4.19334">
        <ele>186</ele>
        <time>2024-04-29T14:54:48Z</time>
      </trkpt>
      <trkpt lat="50.08956" lon="4.19331">
        <ele>186.2</ele>
        <time>2024-04-29T14:54:49Z</time>
      </trkpt>
      <trkpt lat="50.08948" lon="4.19328">
        <ele>185.8</ele>
        <time>2024-04-29T14:54:50Z</time>
      </trkpt>
      <trkpt lat="50.08941" lon="4.19324">
        <ele>185.6</ele>
        <time>2024-04-29T14:54:51Z</time>
      </trkpt>
      <trkpt lat="50.08933" lon="4.19321">
        <ele>185.4</ele>
        <time>2024-04-29T14:54:52Z</time>
      </trkpt>
      <trkpt lat="50.08926" lon="4.19317">
        <ele>185</ele>
        <time>2024-04-29T14:54:53Z</time>
      </trkpt>
      <trkpt lat="50.08919" lon="4.19314">
        <ele>184.8</ele>
        <time>2024-04-29T14:54:54Z</time>
      </trkpt>
      <trkpt lat="50.08911" lon="4.19312">
        <ele>184.4</ele>
        <time>2024-04-29T14:54:55Z</time>
      </trkpt>
      <trkpt lat="50.08904" lon="4.1931">
        <ele>184.4</ele>
        <time>2024-04-29T14:54:56Z</time>
      </trkpt>
      <trkpt lat="50.08897" lon="4.19309">
        <ele>183.8</ele>
        <time>2024-04-29T14:54:57Z</time>
      </trkpt>
      <trkpt lat="50.0889" lon="4.19309">
        <ele>183.6</ele>
        <time>2024-04-29T14:54:58Z</time>
      </trkpt>
      <trkpt lat="50.08883" lon="4.19309">
        <ele>183.4</ele>
        <time>2024-04-29T14:54:59Z</time>
      </trkpt>
      <trkpt lat="50.08876" lon="4.1931">
        <ele>183.4</ele>
        <time>2024-04-29T14:55:00Z</time>
      </trkpt>
      <trkpt lat="50.08869" lon="4.19311">
        <ele>183.2</ele>
        <time>2024-04-29T14:55:01Z</time>
      </trkpt>
      <trkpt lat="50.08862" lon="4.19312">
        <ele>183.2</ele>
        <time>2024-04-29T14:55:02Z</time>
      </trkpt>
      <trkpt lat="50.08855" lon="4.19313">
        <ele>183</ele>
        <time>2024-04-29T14:55:03Z</time>
      </trkpt>
      <trkpt lat="50.08848" lon="4.19314">
        <ele>183.2</ele>
        <time>2024-04-29T14:55:04Z</time>
      </trkpt>
      <trkpt lat="50.08841" lon="4.19315">
        <ele>183</ele>
        <time>2024-04-29T14:55:05Z</time>
      </trkpt>
      <trkpt lat="50.08834" lon="4.19316">
        <ele>183</ele>
        <time>2024-04-29T14:55:06Z</time>
      </trkpt>
      <trkpt lat="50.08827" lon="4.19317">
        <ele>183</ele>
        <time>2024-04-29T14:55:07Z</time>
      </trkpt>
      <trkpt lat="50.0882" lon="4.19318">
        <ele>183.2</ele>
        <time>2024-04-29T14:55:08Z</time>
      </trkpt>
      <trkpt lat="50.08813" lon="4.19319">
        <ele>183</ele>
        <time>2024-04-29T14:55:09Z</time>
      </trkpt>
      <trkpt lat="50.08806" lon="4.19319">
        <ele>183</ele>
        <time>2024-04-29T14:55:10Z</time>
      </trkpt>
      <trkpt lat="50.08799" lon="4.1932">
        <ele>183</ele>
        <time>2024-04-29T14:55:11Z</time>
      </trkpt>
      <trkpt lat="50.08793" lon="4.19321">
        <ele>183</ele>
        <time>2024-04-29T14:55:12Z</time>
      </trkpt>
      <trkpt lat="50.08786" lon="4.19322">
        <ele>183</ele>
        <time>2024-04-29T14:55:13Z</time>
      </trkpt>
      <trkpt lat="50.08779" lon="4.19323">
        <ele>183</ele>
        <time>2024-04-29T14:55:14Z</time>
      </trkpt>
      <trkpt lat="50.08772" lon="4.19323">
        <ele>183</ele>
        <time>2024-04-29T14:55:15Z</time>
      </trkpt>
      <trkpt lat="50.08765" lon="4.19324">
        <ele>183</ele>
        <time>2024-04-29T14:55:16Z</time>
      </trkpt>
      <trkpt lat="50.08758" lon="4.19325">
        <ele>183</ele>
        <time>2024-04-29T14:55:17Z</time>
      </trkpt>
      <trkpt lat="50.08751" lon="4.19325">
        <ele>183.2</ele>
        <time>2024-04-29T14:55:18Z</time>
      </trkpt>
      <trkpt lat="50.08744" lon="4.19326">
        <ele>183.2</ele>
        <time>2024-04-29T14:55:19Z</time>
      </trkpt>
      <trkpt lat="50.08737" lon="4.19326">
        <ele>183.2</ele>
        <time>2024-04-29T14:55:20Z</time>
      </trkpt>
      <trkpt lat="50.0873" lon="4.19327">
        <ele>183.2</ele>
        <time>2024-04-29T14:55:21Z</time>
      </trkpt>
      <trkpt lat="50.08723" lon="4.19327">
        <ele>183.2</ele>
        <time>2024-04-29T14:55:22Z</time>
      </trkpt>
      <trkpt lat="50.08716" lon="4.19326">
        <ele>183.2</ele>
        <time>2024-04-29T14:55:23Z</time>
      </trkpt>
      <trkpt lat="50.0871" lon="4.19325">
        <ele>183.2</ele>
        <time>2024-04-29T14:55:24Z</time>
      </trkpt>
      <trkpt lat="50.08703" lon="4.19324">
        <ele>183.2</ele>
        <time>2024-04-29T14:55:25Z</time>
      </trkpt>
      <trkpt lat="50.08696" lon="4.19323">
        <ele>183.2</ele>
        <time>2024-04-29T14:55:26Z</time>
      </trkpt>
      <trkpt lat="50.0869" lon="4.19321">
        <ele>183.2</ele>
        <time>2024-04-29T14:55:27Z</time>
      </trkpt>
      <trkpt lat="50.08683" lon="4.19319">
        <ele>183.2</ele>
        <time>2024-04-29T14:55:28Z</time>
      </trkpt>
      <trkpt lat="50.08677" lon="4.19317">
        <ele>183.2</ele>
        <time>2024-04-29T14:55:29Z</time>
      </trkpt>
      <trkpt lat="50.0867" lon="4.19315">
        <ele>183.4</ele>
        <time>2024-04-29T14:55:30Z</time>
      </trkpt>
      <trkpt lat="50.08664" lon="4.19313">
        <ele>183.4</ele>
        <time>2024-04-29T14:55:31Z</time>
      </trkpt>
      <trkpt lat="50.08657" lon="4.19311">
        <ele>183.2</ele>
        <time>2024-04-29T14:55:32Z</time>
      </trkpt>
      <trkpt lat="50.0865" lon="4.19308">
        <ele>183.4</ele>
        <time>2024-04-29T14:55:33Z</time>
      </trkpt>
      <trkpt lat="50.08644" lon="4.19306">
        <ele>183.6</ele>
        <time>2024-04-29T14:55:34Z</time>
      </trkpt>
      <trkpt lat="50.08637" lon="4.19303">
        <ele>183.8</ele>
        <time>2024-04-29T14:55:35Z</time>
      </trkpt>
      <trkpt lat="50.08631" lon="4.193">
        <ele>183.8</ele>
        <time>2024-04-29T14:55:36Z</time>
      </trkpt>
      <trkpt lat="50.08624" lon="4.19297">
        <ele>184.2</ele>
        <time>2024-04-29T14:55:37Z</time>
      </trkpt>
      <trkpt lat="50.08618" lon="4.19294">
        <ele>184.4</ele>
        <time>2024-04-29T14:55:38Z</time>
      </trkpt>
      <trkpt lat="50.08612" lon="4.19291">
        <ele>184.8</ele>
        <time>2024-04-29T14:55:39Z</time>
      </trkpt>
      <trkpt lat="50.08605" lon="4.19288">
        <ele>185</ele>
        <time>2024-04-29T14:55:40Z</time>
      </trkpt>
      <trkpt lat="50.08599" lon="4.19285">
        <ele>185</ele>
        <time>2024-04-29T14:55:41Z</time>
      </trkpt>
      <trkpt lat="50.08593" lon="4.19282">
        <ele>185.2</ele>
        <time>2024-04-29T14:55:42Z</time>
      </trkpt>
      <trkpt lat="50.08587" lon="4.19278">
        <ele>185.4</ele>
        <time>2024-04-29T14:55:43Z</time>
      </trkpt>
      <trkpt lat="50.08581" lon="4.19275">
        <ele>185.4</ele>
        <time>2024-04-29T14:55:44Z</time>
      </trkpt>
      <trkpt lat="50.08575" lon="4.19272">
        <ele>185.6</ele>
        <time>2024-04-29T14:55:45Z</time>
      </trkpt>
      <trkpt lat="50.0857" lon="4.19268">
        <ele>186</ele>
        <time>2024-04-29T14:55:46Z</time>
      </trkpt>
      <trkpt lat="50.08564" lon="4.19265">
        <ele>186.2</ele>
        <time>2024-04-29T14:55:47Z</time>
      </trkpt>
      <trkpt lat="50.08559" lon="4.19262">
        <ele>186.4</ele>
        <time>2024-04-29T14:55:48Z</time>
      </trkpt>
      <trkpt lat="50.08553" lon="4.19258">
        <ele>186.6</ele>
        <time>2024-04-29T14:55:49Z</time>
      </trkpt>
      <trkpt lat="50.08547" lon="4.19255">
        <ele>186.6</ele>
        <time>2024-04-29T14:55:50Z</time>
      </trkpt>
      <trkpt lat="50.08541" lon="4.19251">
        <ele>186.8</ele>
        <time>2024-04-29T14:55:51Z</time>
      </trkpt>
      <trkpt lat="50.08535" lon="4.19247">
        <ele>187</ele>
        <time>2024-04-29T14:55:52Z</time>
      </trkpt>
      <trkpt lat="50.08529" lon="4.19243">
        <ele>187.4</ele>
        <time>2024-04-29T14:55:53Z</time>
      </trkpt>
      <trkpt lat="50.08523" lon="4.1924">
        <ele>187.8</ele>
        <time>2024-04-29T14:55:54Z</time>
      </trkpt>
      <trkpt lat="50.08517" lon="4.19236">
        <ele>188.2</ele>
        <time>2024-04-29T14:55:55Z</time>
      </trkpt>
      <trkpt lat="50.08511" lon="4.19233">
        <ele>188.4</ele>
        <time>2024-04-29T14:55:56Z</time>
      </trkpt>
      <trkpt lat="50.08505" lon="4.1923">
        <ele>188.6</ele>
        <time>2024-04-29T14:55:57Z</time>
      </trkpt>
      <trkpt lat="50.085" lon="4.19227">
        <ele>188.8</ele>
        <time>2024-04-29T14:55:58Z</time>
      </trkpt>
      <trkpt lat="50.08494" lon="4.19224">
        <ele>189.4</ele>
        <time>2024-04-29T14:55:59Z</time>
      </trkpt>
      <trkpt lat="50.08488" lon="4.1922">
        <ele>189.6</ele>
        <time>2024-04-29T14:56:00Z</time>
      </trkpt>
      <trkpt lat="50.08482" lon="4.19217">
        <ele>189.6</ele>
        <time>2024-04-29T14:56:01Z</time>
      </trkpt>
      <trkpt lat="50.08476" lon="4.19214">
        <ele>190.2</ele>
        <time>2024-04-29T14:56:02Z</time>
      </trkpt>
      <trkpt lat="50.0847" lon="4.19212">
        <ele>190.2</ele>
        <time>2024-04-29T14:56:03Z</time>
      </trkpt>
      <trkpt lat="50.08464" lon="4.19209">
        <ele>190.6</ele>
        <time>2024-04-29T14:56:04Z</time>
      </trkpt>
      <trkpt lat="50.08458" lon="4.19207">
        <ele>190.8</ele>
        <time>2024-04-29T14:56:05Z</time>
      </trkpt>
      <trkpt lat="50.08452" lon="4.19205">
        <ele>191</ele>
        <time>2024-04-29T14:56:06Z</time>
      </trkpt>
      <trkpt lat="50.08445" lon="4.19203">
        <ele>191.4</ele>
        <time>2024-04-29T14:56:07Z</time>
      </trkpt>
      <trkpt lat="50.08439" lon="4.19201">
        <ele>191.6</ele>
        <time>2024-04-29T14:56:08Z</time>
      </trkpt>
      <trkpt lat="50.08432" lon="4.19199">
        <ele>191.6</ele>
        <time>2024-04-29T14:56:09Z</time>
      </trkpt>
      <trkpt lat="50.08425" lon="4.19197">
        <ele>191.8</ele>
        <time>2024-04-29T14:56:10Z</time>
      </trkpt>
      <trkpt lat="50.08418" lon="4.19195">
        <ele>192</ele>
        <time>2024-04-29T14:56:11Z</time>
      </trkpt>
      <trkpt lat="50.08411" lon="4.19194">
        <ele>192</ele>
        <time>2024-04-29T14:56:12Z</time>
      </trkpt>
      <trkpt lat="50.08404" lon="4.19192">
        <ele>192.2</ele>
        <time>2024-04-29T14:56:13Z</time>
      </trkpt>
      <trkpt lat="50.08397" lon="4.1919">
        <ele>192.2</ele>
        <time>2024-04-29T14:56:14Z</time>
      </trkpt>
      <trkpt lat="50.0839" lon="4.19189">
        <ele>192.2</ele>
        <time>2024-04-29T14:56:15Z</time>
      </trkpt>
      <trkpt lat="50.08383" lon="4.19187">
        <ele>192.2</ele>
        <time>2024-04-29T14:56:16Z</time>
      </trkpt>
      <trkpt lat="50.08376" lon="4.19185">
        <ele>192.2</ele>
        <time>2024-04-29T14:56:17Z</time>
      </trkpt>
      <trkpt lat="50.08369" lon="4.19183">
        <ele>192.2</ele>
        <time>2024-04-29T14:56:18Z</time>
      </trkpt>
      <trkpt lat="50.08362" lon="4.19181">
        <ele>192.2</ele>
        <time>2024-04-29T14:56:19Z</time>
      </trkpt>
      <trkpt lat="50.08355" lon="4.19179">
        <ele>192.2</ele>
        <time>2024-04-29T14:56:20Z</time>
      </trkpt>
      <trkpt lat="50.08347" lon="4.19176">
        <ele>192.2</ele>
        <time>2024-04-29T14:56:21Z</time>
      </trkpt>
      <trkpt lat="50.0834" lon="4.19172">
        <ele>192.2</ele>
        <time>2024-04-29T14:56:22Z</time>
      </trkpt>
      <trkpt lat="50.08333" lon="4.19169">
        <ele>191.8</ele>
        <time>2024-04-29T14:56:23Z</time>
      </trkpt>
      <trkpt lat="50.08325" lon="4.19165">
        <ele>191.6</ele>
        <time>2024-04-29T14:56:24Z</time>
      </trkpt>
      <trkpt lat="50.08318" lon="4.1916">
        <ele>191.8</ele>
        <time>2024-04-29T14:56:25Z</time>
      </trkpt>
      <trkpt lat="50.08311" lon="4.19155">
        <ele>191.6</ele>
        <time>2024-04-29T14:56:26Z</time>
      </trkpt>
      <trkpt lat="50.08305" lon="4.1915">
        <ele>191.4</ele>
        <time>2024-04-29T14:56:27Z</time>
      </trkpt>
      <trkpt lat="50.08298" lon="4.19145">
        <ele>191.2</ele>
        <time>2024-04-29T14:56:28Z</time>
      </trkpt>
      <trkpt lat="50.08291" lon="4.1914">
        <ele>191.2</ele>
        <time>2024-04-29T14:56:29Z</time>
      </trkpt>
      <trkpt lat="50.08285" lon="4.19135">
        <ele>190.6</ele>
        <time>2024-04-29T14:56:30Z</time>
      </trkpt>
      <trkpt lat="50.08278" lon="4.1913">
        <ele>190.4</ele>
        <time>2024-04-29T14:56:31Z</time>
      </trkpt>
      <trkpt lat="50.08271" lon="4.19125">
        <ele>190</ele>
        <time>2024-04-29T14:56:32Z</time>
      </trkpt>
      <trkpt lat="50.08265" lon="4.19121">
        <ele>190</ele>
        <time>2024-04-29T14:56:33Z</time>
      </trkpt>
      <trkpt lat="50.08258" lon="4.19117">
        <ele>189.6</ele>
        <time>2024-04-29T14:56:34Z</time>
      </trkpt>
      <trkpt lat="50.08251" lon="4.19113">
        <ele>189.4</ele>
        <time>2024-04-29T14:56:35Z</time>
      </trkpt>
      <trkpt lat="50.08244" lon="4.19109">
        <ele>189.2</ele>
        <time>2024-04-29T14:56:36Z</time>
      </trkpt>
      <trkpt lat="50.08237" lon="4.19104">
        <ele>189</ele>
        <time>2024-04-29T14:56:37Z</time>
      </trkpt>
      <trkpt lat="50.0823" lon="4.191">
        <ele>189</ele>
        <time>2024-04-29T14:56:38Z</time>
      </trkpt>
      <trkpt lat="50.08224" lon="4.19096">
        <ele>189</ele>
        <time>2024-04-29T14:56:39Z</time>
      </trkpt>
      <trkpt lat="50.08217" lon="4.19092">
        <ele>188.8</ele>
        <time>2024-04-29T14:56:40Z</time>
      </trkpt>
      <trkpt lat="50.0821" lon="4.19088">
        <ele>188.6</ele>
        <time>2024-04-29T14:56:41Z</time>
      </trkpt>
      <trkpt lat="50.08203" lon="4.19085">
        <ele>188.6</ele>
        <time>2024-04-29T14:56:42Z</time>
      </trkpt>
      <trkpt lat="50.08196" lon="4.19081">
        <ele>188.4</ele>
        <time>2024-04-29T14:56:43Z</time>
      </trkpt>
      <trkpt lat="50.08189" lon="4.19078">
        <ele>188.2</ele>
        <time>2024-04-29T14:56:44Z</time>
      </trkpt>
      <trkpt lat="50.08181" lon="4.19075">
        <ele>188.2</ele>
        <time>2024-04-29T14:56:45Z</time>
      </trkpt>
      <trkpt lat="50.08173" lon="4.19073">
        <ele>188</ele>
        <time>2024-04-29T14:56:46Z</time>
      </trkpt>
      <trkpt lat="50.08166" lon="4.19072">
        <ele>188</ele>
        <time>2024-04-29T14:56:47Z</time>
      </trkpt>
      <trkpt lat="50.08158" lon="4.1907">
        <ele>187.8</ele>
        <time>2024-04-29T14:56:48Z</time>
      </trkpt>
      <trkpt lat="50.0815" lon="4.19071">
        <ele>187.8</ele>
        <time>2024-04-29T14:56:49Z</time>
      </trkpt>
      <trkpt lat="50.08142" lon="4.19072">
        <ele>187.6</ele>
        <time>2024-04-29T14:56:50Z</time>
      </trkpt>
      <trkpt lat="50.08135" lon="4.19074">
        <ele>187.4</ele>
        <time>2024-04-29T14:56:51Z</time>
      </trkpt>
      <trkpt lat="50.08128" lon="4.19075">
        <ele>187.2</ele>
        <time>2024-04-29T14:56:52Z</time>
      </trkpt>
      <trkpt lat="50.0812" lon="4.19077">
        <ele>186.8</ele>
        <time>2024-04-29T14:56:53Z</time>
      </trkpt>
      <trkpt lat="50.08113" lon="4.19078">
        <ele>186.4</ele>
        <time>2024-04-29T14:56:54Z</time>
      </trkpt>
      <trkpt lat="50.08106" lon="4.19079">
        <ele>186.2</ele>
        <time>2024-04-29T14:56:55Z</time>
      </trkpt>
      <trkpt lat="50.08099" lon="4.1908">
        <ele>186</ele>
        <time>2024-04-29T14:56:56Z</time>
      </trkpt>
      <trkpt lat="50.08091" lon="4.19081">
        <ele>185.8</ele>
        <time>2024-04-29T14:56:57Z</time>
      </trkpt>
      <trkpt lat="50.08084" lon="4.19082">
        <ele>185.8</ele>
        <time>2024-04-29T14:56:58Z</time>
      </trkpt>
      <trkpt lat="50.08077" lon="4.19083">
        <ele>185.8</ele>
        <time>2024-04-29T14:56:59Z</time>
      </trkpt>
      <trkpt lat="50.0807" lon="4.19084">
        <ele>185.6</ele>
        <time>2024-04-29T14:57:00Z</time>
      </trkpt>
      <trkpt lat="50.08063" lon="4.19084">
        <ele>185.6</ele>
        <time>2024-04-29T14:57:01Z</time>
      </trkpt>
      <trkpt lat="50.08056" lon="4.19084">
        <ele>185.6</ele>
        <time>2024-04-29T14:57:02Z</time>
      </trkpt>
      <trkpt lat="50.0805" lon="4.19085">
        <ele>185.6</ele>
        <time>2024-04-29T14:57:03Z</time>
      </trkpt>
      <trkpt lat="50.08043" lon="4.19085">
        <ele>185.6</ele>
        <time>2024-04-29T14:57:04Z</time>
      </trkpt>
      <trkpt lat="50.08036" lon="4.19086">
        <ele>185.6</ele>
        <time>2024-04-29T14:57:05Z</time>
      </trkpt>
      <trkpt lat="50.0803" lon="4.19088">
        <ele>185.6</ele>
        <time>2024-04-29T14:57:06Z</time>
      </trkpt>
      <trkpt lat="50.08023" lon="4.1909">
        <ele>185.6</ele>
        <time>2024-04-29T14:57:07Z</time>
      </trkpt>
      <trkpt lat="50.08016" lon="4.19093">
        <ele>185.6</ele>
        <time>2024-04-29T14:57:08Z</time>
      </trkpt>
      <trkpt lat="50.0801" lon="4.19095">
        <ele>185.6</ele>
        <time>2024-04-29T14:57:09Z</time>
      </trkpt>
      <trkpt lat="50.08003" lon="4.19097">
        <ele>185.6</ele>
        <time>2024-04-29T14:57:10Z</time>
      </trkpt>
      <trkpt lat="50.07996" lon="4.19099">
        <ele>185.6</ele>
        <time>2024-04-29T14:57:11Z</time>
      </trkpt>
      <trkpt lat="50.07989" lon="4.19102">
        <ele>185.6</ele>
        <time>2024-04-29T14:57:12Z</time>
      </trkpt>
      <trkpt lat="50.07982" lon="4.19105">
        <ele>185.6</ele>
        <time>2024-04-29T14:57:13Z</time>
      </trkpt>
      <trkpt lat="50.07976" lon="4.19108">
        <ele>185.4</ele>
        <time>2024-04-29T14:57:14Z</time>
      </trkpt>
      <trkpt lat="50.07969" lon="4.19111">
        <ele>185.6</ele>
        <time>2024-04-29T14:57:15Z</time>
      </trkpt>
      <trkpt lat="50.07963" lon="4.19115">
        <ele>185.6</ele>
        <time>2024-04-29T14:57:16Z</time>
      </trkpt>
      <trkpt lat="50.07956" lon="4.19118">
        <ele>185.2</ele>
        <time>2024-04-29T14:57:17Z</time>
      </trkpt>
      <trkpt lat="50.0795" lon="4.19122">
        <ele>185.4</ele>
        <time>2024-04-29T14:57:18Z</time>
      </trkpt>
      <trkpt lat="50.07943" lon="4.19126">
        <ele>185.2</ele>
        <time>2024-04-29T14:57:19Z</time>
      </trkpt>
      <trkpt lat="50.07937" lon="4.1913">
        <ele>185.4</ele>
        <time>2024-04-29T14:57:20Z</time>
      </trkpt>
      <trkpt lat="50.07931" lon="4.19134">
        <ele>185.4</ele>
        <time>2024-04-29T14:57:21Z</time>
      </trkpt>
      <trkpt lat="50.07924" lon="4.19139">
        <ele>185.4</ele>
        <time>2024-04-29T14:57:22Z</time>
      </trkpt>
      <trkpt lat="50.07918" lon="4.19143">
        <ele>185.4</ele>
        <time>2024-04-29T14:57:23Z</time>
      </trkpt>
      <trkpt lat="50.07912" lon="4.19147">
        <ele>185.4</ele>
        <time>2024-04-29T14:57:24Z</time>
      </trkpt>
      <trkpt lat="50.07906" lon="4.19151">
        <ele>185.4</ele>
        <time>2024-04-29T14:57:25Z</time>
      </trkpt>
      <trkpt lat="50.079" lon="4.19155">
        <ele>185.4</ele>
        <time>2024-04-29T14:57:26Z</time>
      </trkpt>
      <trkpt lat="50.07894" lon="4.19159">
        <ele>185.6</ele>
        <time>2024-04-29T14:57:27Z</time>
      </trkpt>
      <trkpt lat="50.07888" lon="4.19163">
        <ele>185.6</ele>
        <time>2024-04-29T14:57:28Z</time>
      </trkpt>
      <trkpt lat="50.07882" lon="4.19166">
        <ele>185.8</ele>
        <time>2024-04-29T14:57:29Z</time>
      </trkpt>
      <trkpt lat="50.07876" lon="4.1917">
        <ele>186</ele>
        <time>2024-04-29T14:57:30Z</time>
      </trkpt>
      <trkpt lat="50.07871" lon="4.19174">
        <ele>186.4</ele>
        <time>2024-04-29T14:57:31Z</time>
      </trkpt>
      <trkpt lat="50.07865" lon="4.19177">
        <ele>186.8</ele>
        <time>2024-04-29T14:57:32Z</time>
      </trkpt>
      <trkpt lat="50.07859" lon="4.19181">
        <ele>187</ele>
        <time>2024-04-29T14:57:33Z</time>
      </trkpt>
      <trkpt lat="50.07853" lon="4.19185">
        <ele>187.2</ele>
        <time>2024-04-29T14:57:34Z</time>
      </trkpt>
      <trkpt lat="50.07847" lon="4.1919">
        <ele>187.4</ele>
        <time>2024-04-29T14:57:35Z</time>
      </trkpt>
      <trkpt lat="50.07841" lon="4.19194">
        <ele>187.6</ele>
        <time>2024-04-29T14:57:36Z</time>
      </trkpt>
      <trkpt lat="50.07835" lon="4.19198">
        <ele>187.8</ele>
        <time>2024-04-29T14:57:37Z</time>
      </trkpt>
      <trkpt lat="50.07829" lon="4.19203">
        <ele>188</ele>
        <time>2024-04-29T14:57:38Z</time>
      </trkpt>
      <trkpt lat="50.07824" lon="4.19208">
        <ele>188.2</ele>
        <time>2024-04-29T14:57:39Z</time>
      </trkpt>
      <trkpt lat="50.07818" lon="4.19213">
        <ele>188.6</ele>
        <time>2024-04-29T14:57:40Z</time>
      </trkpt>
      <trkpt lat="50.07812" lon="4.19218">
        <ele>188.8</ele>
        <time>2024-04-29T14:57:41Z</time>
      </trkpt>
      <trkpt lat="50.07806" lon="4.19223">
        <ele>189</ele>
        <time>2024-04-29T14:57:42Z</time>
      </trkpt>
      <trkpt lat="50.078" lon="4.19228">
        <ele>189.2</ele>
        <time>2024-04-29T14:57:43Z</time>
      </trkpt>
      <trkpt lat="50.07794" lon="4.19233">
        <ele>189.4</ele>
        <time>2024-04-29T14:57:44Z</time>
      </trkpt>
      <trkpt lat="50.07787" lon="4.19238">
        <ele>189.2</ele>
        <time>2024-04-29T14:57:45Z</time>
      </trkpt>
      <trkpt lat="50.07781" lon="4.19243">
        <ele>189.2</ele>
        <time>2024-04-29T14:57:46Z</time>
      </trkpt>
      <trkpt lat="50.07775" lon="4.19247">
        <ele>189.2</ele>
        <time>2024-04-29T14:57:47Z</time>
      </trkpt>
      <trkpt lat="50.07769" lon="4.19252">
        <ele>189.2</ele>
        <time>2024-04-29T14:57:48Z</time>
      </trkpt>
      <trkpt lat="50.07763" lon="4.19257">
        <ele>189.4</ele>
        <time>2024-04-29T14:57:49Z</time>
      </trkpt>
      <trkpt lat="50.07757" lon="4.19261">
        <ele>189.4</ele>
        <time>2024-04-29T14:57:50Z</time>
      </trkpt>
      <trkpt lat="50.07751" lon="4.19266">
        <ele>189.4</ele>
        <time>2024-04-29T14:57:51Z</time>
      </trkpt>
      <trkpt lat="50.07745" lon="4.1927">
        <ele>189.2</ele>
        <time>2024-04-29T14:57:52Z</time>
      </trkpt>
      <trkpt lat="50.07738" lon="4.19274">
        <ele>189.6</ele>
        <time>2024-04-29T14:57:53Z</time>
      </trkpt>
      <trkpt lat="50.07732" lon="4.19277">
        <ele>189.6</ele>
        <time>2024-04-29T14:57:54Z</time>
      </trkpt>
      <trkpt lat="50.07725" lon="4.19281">
        <ele>189.6</ele>
        <time>2024-04-29T14:57:55Z</time>
      </trkpt>
      <trkpt lat="50.07718" lon="4.19285">
        <ele>189.6</ele>
        <time>2024-04-29T14:57:56Z</time>
      </trkpt>
      <trkpt lat="50.07711" lon="4.19289">
        <ele>189.6</ele>
        <time>2024-04-29T14:57:57Z</time>
      </trkpt>
      <trkpt lat="50.07704" lon="4.19293">
        <ele>189.4</ele>
        <time>2024-04-29T14:57:58Z</time>
      </trkpt>
      <trkpt lat="50.07696" lon="4.19297">
        <ele>189.6</ele>
        <time>2024-04-29T14:57:59Z</time>
      </trkpt>
      <trkpt lat="50.07689" lon="4.19302">
        <ele>189.4</ele>
        <time>2024-04-29T14:58:00Z</time>
      </trkpt>
      <trkpt lat="50.07682" lon="4.19308">
        <ele>189</ele>
        <time>2024-04-29T14:58:01Z</time>
      </trkpt>
      <trkpt lat="50.07675" lon="4.19314">
        <ele>189</ele>
        <time>2024-04-29T14:58:02Z</time>
      </trkpt>
      <trkpt lat="50.07667" lon="4.19319">
        <ele>188.8</ele>
        <time>2024-04-29T14:58:03Z</time>
      </trkpt>
      <trkpt lat="50.0766" lon="4.19326">
        <ele>188.6</ele>
        <time>2024-04-29T14:58:04Z</time>
      </trkpt>
      <trkpt lat="50.07653" lon="4.19332">
        <ele>188.6</ele>
        <time>2024-04-29T14:58:05Z</time>
      </trkpt>
      <trkpt lat="50.07646" lon="4.19338">
        <ele>188.4</ele>
        <time>2024-04-29T14:58:06Z</time>
      </trkpt>
      <trkpt lat="50.07638" lon="4.19345">
        <ele>188</ele>
        <time>2024-04-29T14:58:07Z</time>
      </trkpt>
      <trkpt lat="50.0763" lon="4.19351">
        <ele>188</ele>
        <time>2024-04-29T14:58:08Z</time>
      </trkpt>
      <trkpt lat="50.07623" lon="4.19357">
        <ele>187.8</ele>
        <time>2024-04-29T14:58:09Z</time>
      </trkpt>
      <trkpt lat="50.07615" lon="4.19363">
        <ele>187.6</ele>
        <time>2024-04-29T14:58:10Z</time>
      </trkpt>
      <trkpt lat="50.07607" lon="4.19369">
        <ele>187.4</ele>
        <time>2024-04-29T14:58:11Z</time>
      </trkpt>
      <trkpt lat="50.07599" lon="4.19377">
        <ele>187</ele>
        <time>2024-04-29T14:58:12Z</time>
      </trkpt>
      <trkpt lat="50.07592" lon="4.19385">
        <ele>186.6</ele>
        <time>2024-04-29T14:58:13Z</time>
      </trkpt>
      <trkpt lat="50.07586" lon="4.19393">
        <ele>186.2</ele>
        <time>2024-04-29T14:58:14Z</time>
      </trkpt>
      <trkpt lat="50.0758" lon="4.19403">
        <ele>186</ele>
        <time>2024-04-29T14:58:15Z</time>
      </trkpt>
      <trkpt lat="50.07575" lon="4.19413">
        <ele>185.6</ele>
        <time>2024-04-29T14:58:16Z</time>
      </trkpt>
      <trkpt lat="50.07571" lon="4.19423">
        <ele>185.4</ele>
        <time>2024-04-29T14:58:17Z</time>
      </trkpt>
      <trkpt lat="50.07566" lon="4.19433">
        <ele>185</ele>
        <time>2024-04-29T14:58:18Z</time>
      </trkpt>
      <trkpt lat="50.07562" lon="4.19443">
        <ele>184.8</ele>
        <time>2024-04-29T14:58:19Z</time>
      </trkpt>
      <trkpt lat="50.07558" lon="4.19453">
        <ele>184.6</ele>
        <time>2024-04-29T14:58:20Z</time>
      </trkpt>
      <trkpt lat="50.07555" lon="4.19463">
        <ele>184.4</ele>
        <time>2024-04-29T14:58:21Z</time>
      </trkpt>
      <trkpt lat="50.07551" lon="4.19473">
        <ele>184.4</ele>
        <time>2024-04-29T14:58:22Z</time>
      </trkpt>
      <trkpt lat="50.07548" lon="4.19483">
        <ele>184.4</ele>
        <time>2024-04-29T14:58:23Z</time>
      </trkpt>
      <trkpt lat="50.07544" lon="4.19493">
        <ele>184</ele>
        <time>2024-04-29T14:58:24Z</time>
      </trkpt>
      <trkpt lat="50.07541" lon="4.19503">
        <ele>184.2</ele>
        <time>2024-04-29T14:58:25Z</time>
      </trkpt>
      <trkpt lat="50.07537" lon="4.19513">
        <ele>184.2</ele>
        <time>2024-04-29T14:58:26Z</time>
      </trkpt>
      <trkpt lat="50.07533" lon="4.19522">
        <ele>184</ele>
        <time>2024-04-29T14:58:27Z</time>
      </trkpt>
      <trkpt lat="50.07529" lon="4.19531">
        <ele>184</ele>
        <time>2024-04-29T14:58:28Z</time>
      </trkpt>
      <trkpt lat="50.07524" lon="4.19539">
        <ele>184</ele>
        <time>2024-04-29T14:58:29Z</time>
      </trkpt>
      <trkpt lat="50.07519" lon="4.19546">
        <ele>184</ele>
        <time>2024-04-29T14:58:30Z</time>
      </trkpt>
      <trkpt lat="50.07513" lon="4.19551">
        <ele>184.2</ele>
        <time>2024-04-29T14:58:31Z</time>
      </trkpt>
      <trkpt lat="50.07506" lon="4.19555">
        <ele>184</ele>
        <time>2024-04-29T14:58:32Z</time>
      </trkpt>
      <trkpt lat="50.075" lon="4.19557">
        <ele>184</ele>
        <time>2024-04-29T14:58:33Z</time>
      </trkpt>
      <trkpt lat="50.07493" lon="4.19558">
        <ele>184</ele>
        <time>2024-04-29T14:58:34Z</time>
      </trkpt>
      <trkpt lat="50.07486" lon="4.19559">
        <ele>184</ele>
        <time>2024-04-29T14:58:35Z</time>
      </trkpt>
      <trkpt lat="50.0748" lon="4.19559">
        <ele>184</ele>
        <time>2024-04-29T14:58:36Z</time>
      </trkpt>
      <trkpt lat="50.07473" lon="4.19559">
        <ele>184</ele>
        <time>2024-04-29T14:58:37Z</time>
      </trkpt>
      <trkpt lat="50.07467" lon="4.19559">
        <ele>184</ele>
        <time>2024-04-29T14:58:38Z</time>
      </trkpt>
      <trkpt lat="50.0746" lon="4.19558">
        <ele>184</ele>
        <time>2024-04-29T14:58:39Z</time>
      </trkpt>
      <trkpt lat="50.07454" lon="4.19557">
        <ele>184</ele>
        <time>2024-04-29T14:58:40Z</time>
      </trkpt>
      <trkpt lat="50.07447" lon="4.19556">
        <ele>184</ele>
        <time>2024-04-29T14:58:41Z</time>
      </trkpt>
      <trkpt lat="50.07441" lon="4.19555">
        <ele>184</ele>
        <time>2024-04-29T14:58:42Z</time>
      </trkpt>
      <trkpt lat="50.07434" lon="4.19554">
        <ele>184</ele>
        <time>2024-04-29T14:58:43Z</time>
      </trkpt>
      <trkpt lat="50.07428" lon="4.19554">
        <ele>184</ele>
        <time>2024-04-29T14:58:44Z</time>
      </trkpt>
      <trkpt lat="50.07421" lon="4.19553">
        <ele>184</ele>
        <time>2024-04-29T14:58:45Z</time>
      </trkpt>
      <trkpt lat="50.07415" lon="4.19552">
        <ele>184.2</ele>
        <time>2024-04-29T14:58:46Z</time>
      </trkpt>
      <trkpt lat="50.07409" lon="4.19551">
        <ele>184.2</ele>
        <time>2024-04-29T14:58:47Z</time>
      </trkpt>
      <trkpt lat="50.07402" lon="4.19551">
        <ele>184.2</ele>
        <time>2024-04-29T14:58:48Z</time>
      </trkpt>
      <trkpt lat="50.07396" lon="4.19551">
        <ele>184.4</ele>
        <time>2024-04-29T14:58:49Z</time>
      </trkpt>
      <trkpt lat="50.0739" lon="4.19551">
        <ele>184.4</ele>
        <time>2024-04-29T14:58:50Z</time>
      </trkpt>
      <trkpt lat="50.07384" lon="4.19551">
        <ele>184.6</ele>
        <time>2024-04-29T14:58:51Z</time>
      </trkpt>
      <trkpt lat="50.07377" lon="4.19551">
        <ele>184.6</ele>
        <time>2024-04-29T14:58:52Z</time>
      </trkpt>
      <trkpt lat="50.07371" lon="4.19552">
        <ele>184.8</ele>
        <time>2024-04-29T14:58:53Z</time>
      </trkpt>
      <trkpt lat="50.07365" lon="4.19552">
        <ele>185</ele>
        <time>2024-04-29T14:58:54Z</time>
      </trkpt>
      <trkpt lat="50.07358" lon="4.19552">
        <ele>185.2</ele>
        <time>2024-04-29T14:58:55Z</time>
      </trkpt>
      <trkpt lat="50.07351" lon="4.19553">
        <ele>185.4</ele>
        <time>2024-04-29T14:58:56Z</time>
      </trkpt>
      <trkpt lat="50.07345" lon="4.19553">
        <ele>185.4</ele>
        <time>2024-04-29T14:58:57Z</time>
      </trkpt>
      <trkpt lat="50.07338" lon="4.19554">
        <ele>185.4</ele>
        <time>2024-04-29T14:58:58Z</time>
      </trkpt>
      <trkpt lat="50.07331" lon="4.19554">
        <ele>185.6</ele>
        <time>2024-04-29T14:58:59Z</time>
      </trkpt>
      <trkpt lat="50.07325" lon="4.19554">
        <ele>185.8</ele>
        <time>2024-04-29T14:59:00Z</time>
      </trkpt>
      <trkpt lat="50.07318" lon="4.19555">
        <ele>185.8</ele>
        <time>2024-04-29T14:59:01Z</time>
      </trkpt>
      <trkpt lat="50.07312" lon="4.19555">
        <ele>186</ele>
        <time>2024-04-29T14:59:02Z</time>
      </trkpt>
      <trkpt lat="50.07305" lon="4.19556">
        <ele>186</ele>
        <time>2024-04-29T14:59:03Z</time>
      </trkpt>
      <trkpt lat="50.07298" lon="4.19556">
        <ele>186.2</ele>
        <time>2024-04-29T14:59:04Z</time>
      </trkpt>
      <trkpt lat="50.07291" lon="4.19557">
        <ele>186.4</ele>
        <time>2024-04-29T14:59:05Z</time>
      </trkpt>
      <trkpt lat="50.07285" lon="4.19557">
        <ele>186.6</ele>
        <time>2024-04-29T14:59:06Z</time>
      </trkpt>
      <trkpt lat="50.07278" lon="4.19558">
        <ele>186.8</ele>
        <time>2024-04-29T14:59:07Z</time>
      </trkpt>
      <trkpt lat="50.07271" lon="4.19558">
        <ele>186.8</ele>
        <time>2024-04-29T14:59:08Z</time>
      </trkpt>
      <trkpt lat="50.07265" lon="4.19559">
        <ele>187</ele>
        <time>2024-04-29T14:59:09Z</time>
      </trkpt>
      <trkpt lat="50.07258" lon="4.1956">
        <ele>187</ele>
        <time>2024-04-29T14:59:10Z</time>
      </trkpt>
      <trkpt lat="50.07251" lon="4.1956">
        <ele>187.4</ele>
        <time>2024-04-29T14:59:11Z</time>
      </trkpt>
      <trkpt lat="50.07244" lon="4.19561">
        <ele>187.8</ele>
        <time>2024-04-29T14:59:12Z</time>
      </trkpt>
      <trkpt lat="50.07238" lon="4.19562">
        <ele>187.8</ele>
        <time>2024-04-29T14:59:13Z</time>
      </trkpt>
      <trkpt lat="50.07231" lon="4.19562">
        <ele>188</ele>
        <time>2024-04-29T14:59:14Z</time>
      </trkpt>
      <trkpt lat="50.07224" lon="4.19563">
        <ele>188.2</ele>
        <time>2024-04-29T14:59:15Z</time>
      </trkpt>
      <trkpt lat="50.07218" lon="4.19564">
        <ele>188.6</ele>
        <time>2024-04-29T14:59:16Z</time>
      </trkpt>
      <trkpt lat="50.07211" lon="4.19564">
        <ele>188.6</ele>
        <time>2024-04-29T14:59:17Z</time>
      </trkpt>
      <trkpt lat="50.07204" lon="4.19565">
        <ele>188.6</ele>
        <time>2024-04-29T14:59:18Z</time>
      </trkpt>
      <trkpt lat="50.07198" lon="4.19566">
        <ele>188.8</ele>
        <time>2024-04-29T14:59:19Z</time>
      </trkpt>
      <trkpt lat="50.07191" lon="4.19566">
        <ele>189</ele>
        <time>2024-04-29T14:59:20Z</time>
      </trkpt>
      <trkpt lat="50.07184" lon="4.19567">
        <ele>188.8</ele>
        <time>2024-04-29T14:59:21Z</time>
      </trkpt>
      <trkpt lat="50.07177" lon="4.19567">
        <ele>188.8</ele>
        <time>2024-04-29T14:59:22Z</time>
      </trkpt>
      <trkpt lat="50.07171" lon="4.19568">
        <ele>189</ele>
        <time>2024-04-29T14:59:23Z</time>
      </trkpt>
      <trkpt lat="50.07164" lon="4.19569">
        <ele>189.2</ele>
        <time>2024-04-29T14:59:24Z</time>
      </trkpt>
      <trkpt lat="50.07157" lon="4.1957">
        <ele>189.2</ele>
        <time>2024-04-29T14:59:25Z</time>
      </trkpt>
      <trkpt lat="50.07151" lon="4.19571">
        <ele>189.6</ele>
        <time>2024-04-29T14:59:26Z</time>
      </trkpt>
      <trkpt lat="50.07144" lon="4.19572">
        <ele>189.8</ele>
        <time>2024-04-29T14:59:27Z</time>
      </trkpt>
      <trkpt lat="50.07138" lon="4.19573">
        <ele>190</ele>
        <time>2024-04-29T14:59:28Z</time>
      </trkpt>
      <trkpt lat="50.07131" lon="4.19574">
        <ele>190.2</ele>
        <time>2024-04-29T14:59:29Z</time>
      </trkpt>
      <trkpt lat="50.07125" lon="4.19575">
        <ele>190</ele>
        <time>2024-04-29T14:59:30Z</time>
      </trkpt>
      <trkpt lat="50.07119" lon="4.19576">
        <ele>190.4</ele>
        <time>2024-04-29T14:59:31Z</time>
      </trkpt>
      <trkpt lat="50.07113" lon="4.19578">
        <ele>190.4</ele>
        <time>2024-04-29T14:59:32Z</time>
      </trkpt>
      <trkpt lat="50.07107" lon="4.19579">
        <ele>190.6</ele>
        <time>2024-04-29T14:59:33Z</time>
      </trkpt>
      <trkpt lat="50.07101" lon="4.19581">
        <ele>190.8</ele>
        <time>2024-04-29T14:59:34Z</time>
      </trkpt>
      <trkpt lat="50.07094" lon="4.19582">
        <ele>190.8</ele>
        <time>2024-04-29T14:59:35Z</time>
      </trkpt>
      <trkpt lat="50.07088" lon="4.19583">
        <ele>191</ele>
        <time>2024-04-29T14:59:36Z</time>
      </trkpt>
      <trkpt lat="50.07082" lon="4.19585">
        <ele>191.2</ele>
        <time>2024-04-29T14:59:37Z</time>
      </trkpt>
      <trkpt lat="50.07076" lon="4.19586">
        <ele>191</ele>
        <time>2024-04-29T14:59:38Z</time>
      </trkpt>
      <trkpt lat="50.07069" lon="4.19588">
        <ele>191.2</ele>
        <time>2024-04-29T14:59:39Z</time>
      </trkpt>
      <trkpt lat="50.07063" lon="4.19589">
        <ele>191.4</ele>
        <time>2024-04-29T14:59:40Z</time>
      </trkpt>
      <trkpt lat="50.07056" lon="4.1959">
        <ele>191.2</ele>
        <time>2024-04-29T14:59:41Z</time>
      </trkpt>
      <trkpt lat="50.0705" lon="4.19591">
        <ele>191.4</ele>
        <time>2024-04-29T14:59:42Z</time>
      </trkpt>
      <trkpt lat="50.07043" lon="4.19591">
        <ele>191.2</ele>
        <time>2024-04-29T14:59:43Z</time>
      </trkpt>
      <trkpt lat="50.07036" lon="4.19592">
        <ele>191.4</ele>
        <time>2024-04-29T14:59:44Z</time>
      </trkpt>
      <trkpt lat="50.07029" lon="4.19592">
        <ele>191.4</ele>
        <time>2024-04-29T14:59:45Z</time>
      </trkpt>
      <trkpt lat="50.07022" lon="4.19593">
        <ele>191.4</ele>
        <time>2024-04-29T14:59:46Z</time>
      </trkpt>
      <trkpt lat="50.07015" lon="4.19594">
        <ele>191.4</ele>
        <time>2024-04-29T14:59:47Z</time>
      </trkpt>
      <trkpt lat="50.07008" lon="4.19595">
        <ele>191.4</ele>
        <time>2024-04-29T14:59:48Z</time>
      </trkpt>
      <trkpt lat="50.07001" lon="4.19596">
        <ele>191.4</ele>
        <time>2024-04-29T14:59:49Z</time>
      </trkpt>
      <trkpt lat="50.06994" lon="4.19597">
        <ele>191.4</ele>
        <time>2024-04-29T14:59:50Z</time>
      </trkpt>
      <trkpt lat="50.06987" lon="4.19598">
        <ele>191.6</ele>
        <time>2024-04-29T14:59:51Z</time>
      </trkpt>
      <trkpt lat="50.0698" lon="4.19599">
        <ele>191.6</ele>
        <time>2024-04-29T14:59:52Z</time>
      </trkpt>
      <trkpt lat="50.06973" lon="4.19599">
        <ele>191.4</ele>
        <time>2024-04-29T14:59:53Z</time>
      </trkpt>
      <trkpt lat="50.06966" lon="4.196">
        <ele>191.8</ele>
        <time>2024-04-29T14:59:54Z</time>
      </trkpt>
      <trkpt lat="50.06959" lon="4.19601">
        <ele>191.6</ele>
        <time>2024-04-29T14:59:55Z</time>
      </trkpt>
      <trkpt lat="50.06953" lon="4.19602">
        <ele>191.6</ele>
        <time>2024-04-29T14:59:56Z</time>
      </trkpt>
      <trkpt lat="50.06946" lon="4.19602">
        <ele>191.6</ele>
        <time>2024-04-29T14:59:57Z</time>
      </trkpt>
      <trkpt lat="50.06939" lon="4.19602">
        <ele>191.6</ele>
        <time>2024-04-29T14:59:58Z</time>
      </trkpt>
      <trkpt lat="50.06932" lon="4.19602">
        <ele>191.6</ele>
        <time>2024-04-29T14:59:59Z</time>
      </trkpt>
      <trkpt lat="50.06925" lon="4.19602">
        <ele>191.6</ele>
        <time>2024-04-29T15:00:00Z</time>
      </trkpt>
      <trkpt lat="50.06918" lon="4.19601">
        <ele>191.8</ele>
        <time>2024-04-29T15:00:01Z</time>
      </trkpt>
      <trkpt lat="50.06911" lon="4.196">
        <ele>191.8</ele>
        <time>2024-04-29T15:00:02Z</time>
      </trkpt>
      <trkpt lat="50.06904" lon="4.19599">
        <ele>192</ele>
        <time>2024-04-29T15:00:03Z</time>
      </trkpt>
      <trkpt lat="50.06898" lon="4.19598">
        <ele>192.2</ele>
        <time>2024-04-29T15:00:04Z</time>
      </trkpt>
      <trkpt lat="50.06891" lon="4.19596">
        <ele>192.2</ele>
        <time>2024-04-29T15:00:05Z</time>
      </trkpt>
      <trkpt lat="50.06884" lon="4.19594">
        <ele>192.2</ele>
        <time>2024-04-29T15:00:06Z</time>
      </trkpt>
      <trkpt lat="50.06878" lon="4.19592">
        <ele>192.4</ele>
        <time>2024-04-29T15:00:07Z</time>
      </trkpt>
      <trkpt lat="50.06871" lon="4.1959">
        <ele>192.6</ele>
        <time>2024-04-29T15:00:08Z</time>
      </trkpt>
      <trkpt lat="50.06865" lon="4.19588">
        <ele>192.4</ele>
        <time>2024-04-29T15:00:09Z</time>
      </trkpt>
      <trkpt lat="50.06859" lon="4.19586">
        <ele>192.6</ele>
        <time>2024-04-29T15:00:10Z</time>
      </trkpt>
      <trkpt lat="50.06852" lon="4.19583">
        <ele>192.8</ele>
        <time>2024-04-29T15:00:11Z</time>
      </trkpt>
      <trkpt lat="50.06846" lon="4.19581">
        <ele>193</ele>
        <time>2024-04-29T15:00:12Z</time>
      </trkpt>
      <trkpt lat="50.0684" lon="4.19579">
        <ele>193.2</ele>
        <time>2024-04-29T15:00:13Z</time>
      </trkpt>
      <trkpt lat="50.06834" lon="4.19577">
        <ele>193.2</ele>
        <time>2024-04-29T15:00:14Z</time>
      </trkpt>
      <trkpt lat="50.06827" lon="4.19574">
        <ele>193.2</ele>
        <time>2024-04-29T15:00:15Z</time>
      </trkpt>
      <trkpt lat="50.06821" lon="4.19572">
        <ele>193.2</ele>
        <time>2024-04-29T15:00:16Z</time>
      </trkpt>
      <trkpt lat="50.06815" lon="4.19569">
        <ele>193.4</ele>
        <time>2024-04-29T15:00:17Z</time>
      </trkpt>
      <trkpt lat="50.06808" lon="4.19567">
        <ele>193.4</ele>
        <time>2024-04-29T15:00:18Z</time>
      </trkpt>
      <trkpt lat="50.06801" lon="4.19564">
        <ele>193.6</ele>
        <time>2024-04-29T15:00:19Z</time>
      </trkpt>
      <trkpt lat="50.06795" lon="4.19562">
        <ele>193.6</ele>
        <time>2024-04-29T15:00:20Z</time>
      </trkpt>
      <trkpt lat="50.06788" lon="4.19559">
        <ele>193.8</ele>
        <time>2024-04-29T15:00:21Z</time>
      </trkpt>
      <trkpt lat="50.06781" lon="4.19557">
        <ele>194</ele>
        <time>2024-04-29T15:00:22Z</time>
      </trkpt>
      <trkpt lat="50.06774" lon="4.19554">
        <ele>194.4</ele>
        <time>2024-04-29T15:00:23Z</time>
      </trkpt>
      <trkpt lat="50.06767" lon="4.19552">
        <ele>194.4</ele>
        <time>2024-04-29T15:00:24Z</time>
      </trkpt>
      <trkpt lat="50.0676" lon="4.19549">
        <ele>194.8</ele>
        <time>2024-04-29T15:00:25Z</time>
      </trkpt>
      <trkpt lat="50.06753" lon="4.19547">
        <ele>194.8</ele>
        <time>2024-04-29T15:00:26Z</time>
      </trkpt>
      <trkpt lat="50.06746" lon="4.19545">
        <ele>194.6</ele>
        <time>2024-04-29T15:00:27Z</time>
      </trkpt>
      <trkpt lat="50.06738" lon="4.19543">
        <ele>194.6</ele>
        <time>2024-04-29T15:00:28Z</time>
      </trkpt>
      <trkpt lat="50.06731" lon="4.19541">
        <ele>194.6</ele>
        <time>2024-04-29T15:00:29Z</time>
      </trkpt>
      <trkpt lat="50.06724" lon="4.1954">
        <ele>194.8</ele>
        <time>2024-04-29T15:00:30Z</time>
      </trkpt>
      <trkpt lat="50.06716" lon="4.19538">
        <ele>194.6</ele>
        <time>2024-04-29T15:00:31Z</time>
      </trkpt>
      <trkpt lat="50.06709" lon="4.19537">
        <ele>194.6</ele>
        <time>2024-04-29T15:00:32Z</time>
      </trkpt>
      <trkpt lat="50.06701" lon="4.19537">
        <ele>194.4</ele>
        <time>2024-04-29T15:00:33Z</time>
      </trkpt>
      <trkpt lat="50.06694" lon="4.19536">
        <ele>194.2</ele>
        <time>2024-04-29T15:00:34Z</time>
      </trkpt>
      <trkpt lat="50.06687" lon="4.19536">
        <ele>194.2</ele>
        <time>2024-04-29T15:00:35Z</time>
      </trkpt>
      <trkpt lat="50.06679" lon="4.19537">
        <ele>193.8</ele>
        <time>2024-04-29T15:00:36Z</time>
      </trkpt>
      <trkpt lat="50.06672" lon="4.19537">
        <ele>193.8</ele>
        <time>2024-04-29T15:00:37Z</time>
      </trkpt>
      <trkpt lat="50.06665" lon="4.19537">
        <ele>193.6</ele>
        <time>2024-04-29T15:00:38Z</time>
      </trkpt>
      <trkpt lat="50.06658" lon="4.19537">
        <ele>193.6</ele>
        <time>2024-04-29T15:00:39Z</time>
      </trkpt>
      <trkpt lat="50.06651" lon="4.19538">
        <ele>193.4</ele>
        <time>2024-04-29T15:00:40Z</time>
      </trkpt>
      <trkpt lat="50.06644" lon="4.19538">
        <ele>193.2</ele>
        <time>2024-04-29T15:00:41Z</time>
      </trkpt>
      <trkpt lat="50.06636" lon="4.19538">
        <ele>193.2</ele>
        <time>2024-04-29T15:00:42Z</time>
      </trkpt>
      <trkpt lat="50.06629" lon="4.19539">
        <ele>193</ele>
        <time>2024-04-29T15:00:43Z</time>
      </trkpt>
      <trkpt lat="50.06622" lon="4.19539">
        <ele>193</ele>
        <time>2024-04-29T15:00:44Z</time>
      </trkpt>
      <trkpt lat="50.06615" lon="4.19539">
        <ele>193</ele>
        <time>2024-04-29T15:00:45Z</time>
      </trkpt>
      <trkpt lat="50.06608" lon="4.1954">
        <ele>192.8</ele>
        <time>2024-04-29T15:00:46Z</time>
      </trkpt>
      <trkpt lat="50.06601" lon="4.1954">
        <ele>192.8</ele>
        <time>2024-04-29T15:00:47Z</time>
      </trkpt>
      <trkpt lat="50.06594" lon="4.19541">
        <ele>192.8</ele>
        <time>2024-04-29T15:00:48Z</time>
      </trkpt>
      <trkpt lat="50.06587" lon="4.19541">
        <ele>192.8</ele>
        <time>2024-04-29T15:00:49Z</time>
      </trkpt>
      <trkpt lat="50.0658" lon="4.19541">
        <ele>192.8</ele>
        <time>2024-04-29T15:00:50Z</time>
      </trkpt>
      <trkpt lat="50.06573" lon="4.19541">
        <ele>192.6</ele>
        <time>2024-04-29T15:00:51Z</time>
      </trkpt>
      <trkpt lat="50.06567" lon="4.19541">
        <ele>192.6</ele>
        <time>2024-04-29T15:00:52Z</time>
      </trkpt>
      <trkpt lat="50.0656" lon="4.19542">
        <ele>192.6</ele>
        <time>2024-04-29T15:00:53Z</time>
      </trkpt>
      <trkpt lat="50.06553" lon="4.19542">
        <ele>192.6</ele>
        <time>2024-04-29T15:00:54Z</time>
      </trkpt>
      <trkpt lat="50.06546" lon="4.19542">
        <ele>192.6</ele>
        <time>2024-04-29T15:00:55Z</time>
      </trkpt>
      <trkpt lat="50.0654" lon="4.19542">
        <ele>192.6</ele>
        <time>2024-04-29T15:00:56Z</time>
      </trkpt>
      <trkpt lat="50.06533" lon="4.19542">
        <ele>192.6</ele>
        <time>2024-04-29T15:00:57Z</time>
      </trkpt>
      <trkpt lat="50.06526" lon="4.19543">
        <ele>192.6</ele>
        <time>2024-04-29T15:00:58Z</time>
      </trkpt>
      <trkpt lat="50.0652" lon="4.19542">
        <ele>192.6</ele>
        <time>2024-04-29T15:00:59Z</time>
      </trkpt>
      <trkpt lat="50.06514" lon="4.19542">
        <ele>192.8</ele>
        <time>2024-04-29T15:01:00Z</time>
      </trkpt>
      <trkpt lat="50.06508" lon="4.19543">
        <ele>192.8</ele>
        <time>2024-04-29T15:01:01Z</time>
      </trkpt>
      <trkpt lat="50.06502" lon="4.19545">
        <ele>192.6</ele>
        <time>2024-04-29T15:01:02Z</time>
      </trkpt>
      <trkpt lat="50.06496" lon="4.19549">
        <ele>192.6</ele>
        <time>2024-04-29T15:01:03Z</time>
      </trkpt>
      <trkpt lat="50.0649" lon="4.19554">
        <ele>192.6</ele>
        <time>2024-04-29T15:01:04Z</time>
      </trkpt>
      <trkpt lat="50.06485" lon="4.1956">
        <ele>192.6</ele>
        <time>2024-04-29T15:01:05Z</time>
      </trkpt>
      <trkpt lat="50.0648" lon="4.19568">
        <ele>192.8</ele>
        <time>2024-04-29T15:01:06Z</time>
      </trkpt>
      <trkpt lat="50.06475" lon="4.19575">
        <ele>192.6</ele>
        <time>2024-04-29T15:01:07Z</time>
      </trkpt>
      <trkpt lat="50.0647" lon="4.19583">
        <ele>192.6</ele>
        <time>2024-04-29T15:01:08Z</time>
      </trkpt>
      <trkpt lat="50.06465" lon="4.19592">
        <ele>192.6</ele>
        <time>2024-04-29T15:01:09Z</time>
      </trkpt>
      <trkpt lat="50.06461" lon="4.19601">
        <ele>192.6</ele>
        <time>2024-04-29T15:01:10Z</time>
      </trkpt>
      <trkpt lat="50.06456" lon="4.19611">
        <ele>192.6</ele>
        <time>2024-04-29T15:01:11Z</time>
      </trkpt>
      <trkpt lat="50.06453" lon="4.19622">
        <ele>192.6</ele>
        <time>2024-04-29T15:01:12Z</time>
      </trkpt>
      <trkpt lat="50.0645" lon="4.19634">
        <ele>192.6</ele>
        <time>2024-04-29T15:01:13Z</time>
      </trkpt>
      <trkpt lat="50.06448" lon="4.19646">
        <ele>192.4</ele>
        <time>2024-04-29T15:01:14Z</time>
      </trkpt>
      <trkpt lat="50.06446" lon="4.19659">
        <ele>192.4</ele>
        <time>2024-04-29T15:01:15Z</time>
      </trkpt>
      <trkpt lat="50.06445" lon="4.19671">
        <ele>192.4</ele>
        <time>2024-04-29T15:01:16Z</time>
      </trkpt>
      <trkpt lat="50.06444" lon="4.19685">
        <ele>192.6</ele>
        <time>2024-04-29T15:01:17Z</time>
      </trkpt>
      <trkpt lat="50.06443" lon="4.19698">
        <ele>192.6</ele>
        <time>2024-04-29T15:01:18Z</time>
      </trkpt>
      <trkpt lat="50.06441" lon="4.19711">
        <ele>192</ele>
        <time>2024-04-29T15:01:19Z</time>
      </trkpt>
      <trkpt lat="50.0644" lon="4.19724">
        <ele>191.2</ele>
        <time>2024-04-29T15:01:20Z</time>
      </trkpt>
      <trkpt lat="50.06438" lon="4.19736">
        <ele>190.4</ele>
        <time>2024-04-29T15:01:21Z</time>
      </trkpt>
      <trkpt lat="50.06436" lon="4.19749">
        <ele>190.4</ele>
        <time>2024-04-29T15:01:22Z</time>
      </trkpt>
      <trkpt lat="50.06434" lon="4.19762">
        <ele>190.2</ele>
        <time>2024-04-29T15:01:23Z</time>
      </trkpt>
      <trkpt lat="50.06432" lon="4.19774">
        <ele>190</ele>
        <time>2024-04-29T15:01:24Z</time>
      </trkpt>
      <trkpt lat="50.0643" lon="4.19786">
        <ele>189.8</ele>
        <time>2024-04-29T15:01:25Z</time>
      </trkpt>
      <trkpt lat="50.06427" lon="4.19798">
        <ele>189.8</ele>
        <time>2024-04-29T15:01:26Z</time>
      </trkpt>
      <trkpt lat="50.06425" lon="4.1981">
        <ele>189.6</ele>
        <time>2024-04-29T15:01:27Z</time>
      </trkpt>
      <trkpt lat="50.06423" lon="4.19821">
        <ele>189.4</ele>
        <time>2024-04-29T15:01:28Z</time>
      </trkpt>
      <trkpt lat="50.06421" lon="4.19832">
        <ele>189.4</ele>
        <time>2024-04-29T15:01:29Z</time>
      </trkpt>
      <trkpt lat="50.06418" lon="4.19844">
        <ele>189.4</ele>
        <time>2024-04-29T15:01:30Z</time>
      </trkpt>
      <trkpt lat="50.06416" lon="4.19855">
        <ele>189.4</ele>
        <time>2024-04-29T15:01:31Z</time>
      </trkpt>
      <trkpt lat="50.06413" lon="4.19866">
        <ele>189.4</ele>
        <time>2024-04-29T15:01:32Z</time>
      </trkpt>
      <trkpt lat="50.0641" lon="4.19876">
        <ele>189.4</ele>
        <time>2024-04-29T15:01:33Z</time>
      </trkpt>
      <trkpt lat="50.06404" lon="4.19884">
        <ele>189.4</ele>
        <time>2024-04-29T15:01:34Z</time>
      </trkpt>
      <trkpt lat="50.06398" lon="4.1989">
        <ele>189.4</ele>
        <time>2024-04-29T15:01:35Z</time>
      </trkpt>
      <trkpt lat="50.06391" lon="4.19894">
        <ele>189.2</ele>
        <time>2024-04-29T15:01:36Z</time>
      </trkpt>
      <trkpt lat="50.06384" lon="4.19897">
        <ele>189.4</ele>
        <time>2024-04-29T15:01:37Z</time>
      </trkpt>
      <trkpt lat="50.06377" lon="4.199">
        <ele>189.2</ele>
        <time>2024-04-29T15:01:38Z</time>
      </trkpt>
      <trkpt lat="50.0637" lon="4.19904">
        <ele>189.4</ele>
        <time>2024-04-29T15:01:39Z</time>
      </trkpt>
      <trkpt lat="50.06364" lon="4.19907">
        <ele>189.4</ele>
        <time>2024-04-29T15:01:40Z</time>
      </trkpt>
      <trkpt lat="50.06357" lon="4.19911">
        <ele>189.4</ele>
        <time>2024-04-29T15:01:41Z</time>
      </trkpt>
      <trkpt lat="50.06351" lon="4.19915">
        <ele>189.4</ele>
        <time>2024-04-29T15:01:42Z</time>
      </trkpt>
      <trkpt lat="50.06345" lon="4.19919">
        <ele>189.4</ele>
        <time>2024-04-29T15:01:43Z</time>
      </trkpt>
      <trkpt lat="50.06339" lon="4.19923">
        <ele>189.4</ele>
        <time>2024-04-29T15:01:44Z</time>
      </trkpt>
      <trkpt lat="50.06334" lon="4.19928">
        <ele>189.6</ele>
        <time>2024-04-29T15:01:45Z</time>
      </trkpt>
      <trkpt lat="50.06329" lon="4.19933">
        <ele>189.6</ele>
        <time>2024-04-29T15:01:46Z</time>
      </trkpt>
      <trkpt lat="50.06325" lon="4.19938">
        <ele>189.8</ele>
        <time>2024-04-29T15:01:47Z</time>
      </trkpt>
      <trkpt lat="50.06321" lon="4.19944">
        <ele>189.8</ele>
        <time>2024-04-29T15:01:48Z</time>
      </trkpt>
      <trkpt lat="50.06318" lon="4.19951">
        <ele>189.8</ele>
        <time>2024-04-29T15:01:49Z</time>
      </trkpt>
      <trkpt lat="50.06316" lon="4.19958">
        <ele>189.8</ele>
        <time>2024-04-29T15:01:50Z</time>
      </trkpt>
      <trkpt lat="50.06314" lon="4.19965">
        <ele>190</ele>
        <time>2024-04-29T15:01:51Z</time>
      </trkpt>
      <trkpt lat="50.06314" lon="4.19973">
        <ele>190.2</ele>
        <time>2024-04-29T15:01:52Z</time>
      </trkpt>
      <trkpt lat="50.06314" lon="4.1998">
        <ele>190.4</ele>
        <time>2024-04-29T15:01:53Z</time>
      </trkpt>
      <trkpt lat="50.06314" lon="4.19988">
        <ele>190.8</ele>
        <time>2024-04-29T15:01:54Z</time>
      </trkpt>
      <trkpt lat="50.06314" lon="4.19996">
        <ele>191.6</ele>
        <time>2024-04-29T15:01:55Z</time>
      </trkpt>
      <trkpt lat="50.06315" lon="4.20004">
        <ele>192.2</ele>
        <time>2024-04-29T15:01:56Z</time>
      </trkpt>
      <trkpt lat="50.06315" lon="4.20012">
        <ele>192.8</ele>
        <time>2024-04-29T15:01:57Z</time>
      </trkpt>
      <trkpt lat="50.06315" lon="4.20022">
        <ele>193</ele>
        <time>2024-04-29T15:01:58Z</time>
      </trkpt>
      <trkpt lat="50.06314" lon="4.20031">
        <ele>193.4</ele>
        <time>2024-04-29T15:01:59Z</time>
      </trkpt>
      <trkpt lat="50.06313" lon="4.2004">
        <ele>194</ele>
        <time>2024-04-29T15:02:00Z</time>
      </trkpt>
      <trkpt lat="50.06311" lon="4.20049">
        <ele>194.6</ele>
        <time>2024-04-29T15:02:01Z</time>
      </trkpt>
      <trkpt lat="50.06308" lon="4.20058">
        <ele>195</ele>
        <time>2024-04-29T15:02:02Z</time>
      </trkpt>
      <trkpt lat="50.06306" lon="4.20067">
        <ele>195.2</ele>
        <time>2024-04-29T15:02:03Z</time>
      </trkpt>
      <trkpt lat="50.06304" lon="4.20076">
        <ele>195.4</ele>
        <time>2024-04-29T15:02:04Z</time>
      </trkpt>
      <trkpt lat="50.06302" lon="4.20085">
        <ele>195.4</ele>
        <time>2024-04-29T15:02:05Z</time>
      </trkpt>
      <trkpt lat="50.06301" lon="4.20095">
        <ele>195.8</ele>
        <time>2024-04-29T15:02:06Z</time>
      </trkpt>
      <trkpt lat="50.063" lon="4.20105">
        <ele>195.8</ele>
        <time>2024-04-29T15:02:07Z</time>
      </trkpt>
      <trkpt lat="50.063" lon="4.20115">
        <ele>196</ele>
        <time>2024-04-29T15:02:08Z</time>
      </trkpt>
      <trkpt lat="50.06299" lon="4.20126">
        <ele>196</ele>
        <time>2024-04-29T15:02:09Z</time>
      </trkpt>
      <trkpt lat="50.06299" lon="4.20136">
        <ele>196</ele>
        <time>2024-04-29T15:02:10Z</time>
      </trkpt>
      <trkpt lat="50.06298" lon="4.20146">
        <ele>196.2</ele>
        <time>2024-04-29T15:02:11Z</time>
      </trkpt>
      <trkpt lat="50.06297" lon="4.20156">
        <ele>196.2</ele>
        <time>2024-04-29T15:02:12Z</time>
      </trkpt>
      <trkpt lat="50.06296" lon="4.20165">
        <ele>196.4</ele>
        <time>2024-04-29T15:02:13Z</time>
      </trkpt>
      <trkpt lat="50.06296" lon="4.20175">
        <ele>196.6</ele>
        <time>2024-04-29T15:02:14Z</time>
      </trkpt>
      <trkpt lat="50.06295" lon="4.20184">
        <ele>196.6</ele>
        <time>2024-04-29T15:02:15Z</time>
      </trkpt>
      <trkpt lat="50.06294" lon="4.20194">
        <ele>196.8</ele>
        <time>2024-04-29T15:02:16Z</time>
      </trkpt>
      <trkpt lat="50.06293" lon="4.20203">
        <ele>197</ele>
        <time>2024-04-29T15:02:17Z</time>
      </trkpt>
      <trkpt lat="50.06293" lon="4.20213">
        <ele>197.2</ele>
        <time>2024-04-29T15:02:18Z</time>
      </trkpt>
      <trkpt lat="50.06293" lon="4.20223">
        <ele>197.2</ele>
        <time>2024-04-29T15:02:19Z</time>
      </trkpt>
      <trkpt lat="50.06293" lon="4.20233">
        <ele>197.2</ele>
        <time>2024-04-29T15:02:20Z</time>
      </trkpt>
      <trkpt lat="50.06293" lon="4.20243">
        <ele>197.4</ele>
        <time>2024-04-29T15:02:21Z</time>
      </trkpt>
      <trkpt lat="50.06292" lon="4.20253">
        <ele>197.4</ele>
        <time>2024-04-29T15:02:22Z</time>
      </trkpt>
      <trkpt lat="50.06292" lon="4.20263">
        <ele>197.6</ele>
        <time>2024-04-29T15:02:23Z</time>
      </trkpt>
      <trkpt lat="50.06292" lon="4.20274">
        <ele>197.4</ele>
        <time>2024-04-29T15:02:24Z</time>
      </trkpt>
      <trkpt lat="50.06291" lon="4.20284">
        <ele>197.6</ele>
        <time>2024-04-29T15:02:25Z</time>
      </trkpt>
      <trkpt lat="50.06291" lon="4.20294">
        <ele>197.6</ele>
        <time>2024-04-29T15:02:26Z</time>
      </trkpt>
      <trkpt lat="50.06291" lon="4.20305">
        <ele>197.8</ele>
        <time>2024-04-29T15:02:27Z</time>
      </trkpt>
      <trkpt lat="50.0629" lon="4.20315">
        <ele>198</ele>
        <time>2024-04-29T15:02:28Z</time>
      </trkpt>
      <trkpt lat="50.0629" lon="4.20325">
        <ele>198</ele>
        <time>2024-04-29T15:02:29Z</time>
      </trkpt>
      <trkpt lat="50.06289" lon="4.20336">
        <ele>198.2</ele>
        <time>2024-04-29T15:02:30Z</time>
      </trkpt>
      <trkpt lat="50.06289" lon="4.20346">
        <ele>198.2</ele>
        <time>2024-04-29T15:02:31Z</time>
      </trkpt>
      <trkpt lat="50.06289" lon="4.20356">
        <ele>198.4</ele>
        <time>2024-04-29T15:02:32Z</time>
      </trkpt>
      <trkpt lat="50.06289" lon="4.20366">
        <ele>198.4</ele>
        <time>2024-04-29T15:02:33Z</time>
      </trkpt>
      <trkpt lat="50.06288" lon="4.20377">
        <ele>198.6</ele>
        <time>2024-04-29T15:02:34Z</time>
      </trkpt>
      <trkpt lat="50.06288" lon="4.20387">
        <ele>198.6</ele>
        <time>2024-04-29T15:02:35Z</time>
      </trkpt>
      <trkpt lat="50.06285" lon="4.20396">
        <ele>198.6</ele>
        <time>2024-04-29T15:02:36Z</time>
      </trkpt>
      <trkpt lat="50.06281" lon="4.20403">
        <ele>198.6</ele>
        <time>2024-04-29T15:02:37Z</time>
      </trkpt>
      <trkpt lat="50.06276" lon="4.20408">
        <ele>198.4</ele>
        <time>2024-04-29T15:02:38Z</time>
      </trkpt>
      <trkpt lat="50.06269" lon="4.20413">
        <ele>198.4</ele>
        <time>2024-04-29T15:02:39Z</time>
      </trkpt>
      <trkpt lat="50.06263" lon="4.20417">
        <ele>198.4</ele>
        <time>2024-04-29T15:02:40Z</time>
      </trkpt>
      <trkpt lat="50.06256" lon="4.20421">
        <ele>198.4</ele>
        <time>2024-04-29T15:02:41Z</time>
      </trkpt>
      <trkpt lat="50.06249" lon="4.20425">
        <ele>198.4</ele>
        <time>2024-04-29T15:02:42Z</time>
      </trkpt>
      <trkpt lat="50.06242" lon="4.20429">
        <ele>198.2</ele>
        <time>2024-04-29T15:02:43Z</time>
      </trkpt>
      <trkpt lat="50.06235" lon="4.20433">
        <ele>198.4</ele>
        <time>2024-04-29T15:02:44Z</time>
      </trkpt>
      <trkpt lat="50.06227" lon="4.20437">
        <ele>198.4</ele>
        <time>2024-04-29T15:02:45Z</time>
      </trkpt>
      <trkpt lat="50.0622" lon="4.20441">
        <ele>198.2</ele>
        <time>2024-04-29T15:02:46Z</time>
      </trkpt>
      <trkpt lat="50.06213" lon="4.20445">
        <ele>198</ele>
        <time>2024-04-29T15:02:47Z</time>
      </trkpt>
      <trkpt lat="50.06205" lon="4.20449">
        <ele>197.8</ele>
        <time>2024-04-29T15:02:48Z</time>
      </trkpt>
      <trkpt lat="50.06198" lon="4.20453">
        <ele>197.8</ele>
        <time>2024-04-29T15:02:49Z</time>
      </trkpt>
      <trkpt lat="50.0619" lon="4.20457">
        <ele>197.6</ele>
        <time>2024-04-29T15:02:50Z</time>
      </trkpt>
      <trkpt lat="50.06183" lon="4.20462">
        <ele>197.6</ele>
        <time>2024-04-29T15:02:51Z</time>
      </trkpt>
      <trkpt lat="50.06176" lon="4.20466">
        <ele>197.4</ele>
        <time>2024-04-29T15:02:52Z</time>
      </trkpt>
      <trkpt lat="50.06169" lon="4.2047">
        <ele>197.4</ele>
        <time>2024-04-29T15:02:53Z</time>
      </trkpt>
      <trkpt lat="50.06162" lon="4.20474">
        <ele>197</ele>
        <time>2024-04-29T15:02:54Z</time>
      </trkpt>
      <trkpt lat="50.06155" lon="4.20478">
        <ele>196.8</ele>
        <time>2024-04-29T15:02:55Z</time>
      </trkpt>
      <trkpt lat="50.06148" lon="4.20481">
        <ele>196.8</ele>
        <time>2024-04-29T15:02:56Z</time>
      </trkpt>
      <trkpt lat="50.06142" lon="4.20485">
        <ele>196.6</ele>
        <time>2024-04-29T15:02:57Z</time>
      </trkpt>
      <trkpt lat="50.06135" lon="4.20489">
        <ele>196.6</ele>
        <time>2024-04-29T15:02:58Z</time>
      </trkpt>
      <trkpt lat="50.06129" lon="4.20492">
        <ele>196.4</ele>
        <time>2024-04-29T15:02:59Z</time>
      </trkpt>
      <trkpt lat="50.06123" lon="4.20496">
        <ele>196.6</ele>
        <time>2024-04-29T15:03:00Z</time>
      </trkpt>
      <trkpt lat="50.06116" lon="4.205">
        <ele>196.6</ele>
        <time>2024-04-29T15:03:01Z</time>
      </trkpt>
      <trkpt lat="50.0611" lon="4.20503">
        <ele>196.6</ele>
        <time>2024-04-29T15:03:02Z</time>
      </trkpt>
      <trkpt lat="50.06103" lon="4.20507">
        <ele>196.6</ele>
        <time>2024-04-29T15:03:03Z</time>
      </trkpt>
      <trkpt lat="50.06097" lon="4.20511">
        <ele>196.8</ele>
        <time>2024-04-29T15:03:04Z</time>
      </trkpt>
      <trkpt lat="50.06091" lon="4.20514">
        <ele>196.6</ele>
        <time>2024-04-29T15:03:05Z</time>
      </trkpt>
      <trkpt lat="50.06085" lon="4.20518">
        <ele>196.8</ele>
        <time>2024-04-29T15:03:06Z</time>
      </trkpt>
      <trkpt lat="50.06079" lon="4.20521">
        <ele>196.8</ele>
        <time>2024-04-29T15:03:07Z</time>
      </trkpt>
      <trkpt lat="50.06073" lon="4.20524">
        <ele>197</ele>
        <time>2024-04-29T15:03:08Z</time>
      </trkpt>
      <trkpt lat="50.06068" lon="4.20528">
        <ele>196.8</ele>
        <time>2024-04-29T15:03:09Z</time>
      </trkpt>
      <trkpt lat="50.06063" lon="4.20531">
        <ele>197.2</ele>
        <time>2024-04-29T15:03:10Z</time>
      </trkpt>
      <trkpt lat="50.06057" lon="4.20534">
        <ele>197.2</ele>
        <time>2024-04-29T15:03:11Z</time>
      </trkpt>
      <trkpt lat="50.06052" lon="4.20537">
        <ele>197.4</ele>
        <time>2024-04-29T15:03:12Z</time>
      </trkpt>
      <trkpt lat="50.06047" lon="4.2054">
        <ele>197.6</ele>
        <time>2024-04-29T15:03:13Z</time>
      </trkpt>
      <trkpt lat="50.06042" lon="4.20543">
        <ele>198</ele>
        <time>2024-04-29T15:03:14Z</time>
      </trkpt>
      <trkpt lat="50.06038" lon="4.20545">
        <ele>198</ele>
        <time>2024-04-29T15:03:15Z</time>
      </trkpt>
      <trkpt lat="50.06033" lon="4.20548">
        <ele>198</ele>
        <time>2024-04-29T15:03:16Z</time>
      </trkpt>
      <trkpt lat="50.06028" lon="4.2055">
        <ele>198.2</ele>
        <time>2024-04-29T15:03:17Z</time>
      </trkpt>
      <trkpt lat="50.06024" lon="4.20553">
        <ele>198.6</ele>
        <time>2024-04-29T15:03:18Z</time>
      </trkpt>
      <trkpt lat="50.06019" lon="4.20555">
        <ele>199.2</ele>
        <time>2024-04-29T15:03:19Z</time>
      </trkpt>
      <trkpt lat="50.06015" lon="4.20558">
        <ele>199.4</ele>
        <time>2024-04-29T15:03:20Z</time>
      </trkpt>
      <trkpt lat="50.06011" lon="4.20561">
        <ele>199.6</ele>
        <time>2024-04-29T15:03:21Z</time>
      </trkpt>
      <trkpt lat="50.06006" lon="4.20563">
        <ele>200</ele>
        <time>2024-04-29T15:03:22Z</time>
      </trkpt>
      <trkpt lat="50.06002" lon="4.20566">
        <ele>200.4</ele>
        <time>2024-04-29T15:03:23Z</time>
      </trkpt>
      <trkpt lat="50.05998" lon="4.20568">
        <ele>201</ele>
        <time>2024-04-29T15:03:24Z</time>
      </trkpt>
      <trkpt lat="50.05994" lon="4.20571">
        <ele>202</ele>
        <time>2024-04-29T15:03:25Z</time>
      </trkpt>
      <trkpt lat="50.05989" lon="4.20573">
        <ele>202.6</ele>
        <time>2024-04-29T15:03:26Z</time>
      </trkpt>
      <trkpt lat="50.05985" lon="4.20575">
        <ele>203.2</ele>
        <time>2024-04-29T15:03:27Z</time>
      </trkpt>
      <trkpt lat="50.05981" lon="4.20578">
        <ele>203.4</ele>
        <time>2024-04-29T15:03:28Z</time>
      </trkpt>
      <trkpt lat="50.05977" lon="4.2058">
        <ele>204</ele>
        <time>2024-04-29T15:03:29Z</time>
      </trkpt>
      <trkpt lat="50.05972" lon="4.20583">
        <ele>204.2</ele>
        <time>2024-04-29T15:03:30Z</time>
      </trkpt>
      <trkpt lat="50.05968" lon="4.20585">
        <ele>204.4</ele>
        <time>2024-04-29T15:03:31Z</time>
      </trkpt>
      <trkpt lat="50.05964" lon="4.20587">
        <ele>205</ele>
        <time>2024-04-29T15:03:32Z</time>
      </trkpt>
      <trkpt lat="50.0596" lon="4.2059">
        <ele>205.4</ele>
        <time>2024-04-29T15:03:33Z</time>
      </trkpt>
      <trkpt lat="50.05955" lon="4.20592">
        <ele>205.6</ele>
        <time>2024-04-29T15:03:34Z</time>
      </trkpt>
      <trkpt lat="50.05951" lon="4.20595">
        <ele>206</ele>
        <time>2024-04-29T15:03:35Z</time>
      </trkpt>
      <trkpt lat="50.05947" lon="4.20597">
        <ele>206.6</ele>
        <time>2024-04-29T15:03:36Z</time>
      </trkpt>
      <trkpt lat="50.05943" lon="4.206">
        <ele>206.6</ele>
        <time>2024-04-29T15:03:37Z</time>
      </trkpt>
      <trkpt lat="50.05939" lon="4.20602">
        <ele>207</ele>
        <time>2024-04-29T15:03:38Z</time>
      </trkpt>
      <trkpt lat="50.05935" lon="4.20604">
        <ele>207.4</ele>
        <time>2024-04-29T15:03:39Z</time>
      </trkpt>
      <trkpt lat="50.05931" lon="4.20607">
        <ele>207.6</ele>
        <time>2024-04-29T15:03:40Z</time>
      </trkpt>
      <trkpt lat="50.05928" lon="4.2061">
        <ele>207.8</ele>
        <time>2024-04-29T15:03:41Z</time>
      </trkpt>
      <trkpt lat="50.05924" lon="4.20612">
        <ele>208.2</ele>
        <time>2024-04-29T15:03:42Z</time>
      </trkpt>
      <trkpt lat="50.0592" lon="4.20615">
        <ele>208.4</ele>
        <time>2024-04-29T15:03:43Z</time>
      </trkpt>
      <trkpt lat="50.05917" lon="4.20618">
        <ele>208.8</ele>
        <time>2024-04-29T15:03:44Z</time>
      </trkpt>
      <trkpt lat="50.05913" lon="4.20621">
        <ele>209</ele>
        <time>2024-04-29T15:03:45Z</time>
      </trkpt>
      <trkpt lat="50.05909" lon="4.20623">
        <ele>209.2</ele>
        <time>2024-04-29T15:03:46Z</time>
      </trkpt>
      <trkpt lat="50.05906" lon="4.20626">
        <ele>209.6</ele>
        <time>2024-04-29T15:03:47Z</time>
      </trkpt>
      <trkpt lat="50.05902" lon="4.20629">
        <ele>209.8</ele>
        <time>2024-04-29T15:03:48Z</time>
      </trkpt>
      <trkpt lat="50.05898" lon="4.20631">
        <ele>210.2</ele>
        <time>2024-04-29T15:03:49Z</time>
      </trkpt>
      <trkpt lat="50.05893" lon="4.20634">
        <ele>210.6</ele>
        <time>2024-04-29T15:03:50Z</time>
      </trkpt>
      <trkpt lat="50.05889" lon="4.20637">
        <ele>211</ele>
        <time>2024-04-29T15:03:51Z</time>
      </trkpt>
      <trkpt lat="50.05884" lon="4.20639">
        <ele>211.2</ele>
        <time>2024-04-29T15:03:52Z</time>
      </trkpt>
      <trkpt lat="50.0588" lon="4.20642">
        <ele>211.2</ele>
        <time>2024-04-29T15:03:53Z</time>
      </trkpt>
      <trkpt lat="50.05876" lon="4.20645">
        <ele>211.6</ele>
        <time>2024-04-29T15:03:54Z</time>
      </trkpt>
      <trkpt lat="50.05872" lon="4.20649">
        <ele>211.6</ele>
        <time>2024-04-29T15:03:55Z</time>
      </trkpt>
      <trkpt lat="50.05868" lon="4.20652">
        <ele>212</ele>
        <time>2024-04-29T15:03:56Z</time>
      </trkpt>
      <trkpt lat="50.05863" lon="4.20654">
        <ele>212.2</ele>
        <time>2024-04-29T15:03:57Z</time>
      </trkpt>
      <trkpt lat="50.05859" lon="4.20657">
        <ele>212.4</ele>
        <time>2024-04-29T15:03:58Z</time>
      </trkpt>
      <trkpt lat="50.05855" lon="4.2066">
        <ele>212.4</ele>
        <time>2024-04-29T15:03:59Z</time>
      </trkpt>
      <trkpt lat="50.05852" lon="4.20664">
        <ele>212.6</ele>
        <time>2024-04-29T15:04:00Z</time>
      </trkpt>
      <trkpt lat="50.05848" lon="4.20667">
        <ele>212.8</ele>
        <time>2024-04-29T15:04:01Z</time>
      </trkpt>
      <trkpt lat="50.05844" lon="4.20671">
        <ele>213</ele>
        <time>2024-04-29T15:04:02Z</time>
      </trkpt>
      <trkpt lat="50.05839" lon="4.20674">
        <ele>213.2</ele>
        <time>2024-04-29T15:04:03Z</time>
      </trkpt>
      <trkpt lat="50.05835" lon="4.20677">
        <ele>213.4</ele>
        <time>2024-04-29T15:04:04Z</time>
      </trkpt>
      <trkpt lat="50.0583" lon="4.20681">
        <ele>213.6</ele>
        <time>2024-04-29T15:04:05Z</time>
      </trkpt>
      <trkpt lat="50.05825" lon="4.20685">
        <ele>214</ele>
        <time>2024-04-29T15:04:06Z</time>
      </trkpt>
      <trkpt lat="50.0582" lon="4.20689">
        <ele>214.8</ele>
        <time>2024-04-29T15:04:07Z</time>
      </trkpt>
      <trkpt lat="50.05815" lon="4.20693">
        <ele>215.2</ele>
        <time>2024-04-29T15:04:08Z</time>
      </trkpt>
      <trkpt lat="50.05809" lon="4.20697">
        <ele>215.4</ele>
        <time>2024-04-29T15:04:09Z</time>
      </trkpt>
      <trkpt lat="50.05804" lon="4.20701">
        <ele>215.6</ele>
        <time>2024-04-29T15:04:10Z</time>
      </trkpt>
      <trkpt lat="50.05799" lon="4.20706">
        <ele>215.8</ele>
        <time>2024-04-29T15:04:11Z</time>
      </trkpt>
      <trkpt lat="50.05793" lon="4.20711">
        <ele>216</ele>
        <time>2024-04-29T15:04:12Z</time>
      </trkpt>
      <trkpt lat="50.05787" lon="4.20715">
        <ele>215.8</ele>
        <time>2024-04-29T15:04:13Z</time>
      </trkpt>
      <trkpt lat="50.05781" lon="4.2072">
        <ele>216</ele>
        <time>2024-04-29T15:04:14Z</time>
      </trkpt>
      <trkpt lat="50.05774" lon="4.20724">
        <ele>216</ele>
        <time>2024-04-29T15:04:15Z</time>
      </trkpt>
      <trkpt lat="50.05768" lon="4.20729">
        <ele>215.8</ele>
        <time>2024-04-29T15:04:16Z</time>
      </trkpt>
      <trkpt lat="50.05762" lon="4.20733">
        <ele>216</ele>
        <time>2024-04-29T15:04:17Z</time>
      </trkpt>
      <trkpt lat="50.05755" lon="4.20738">
        <ele>216</ele>
        <time>2024-04-29T15:04:18Z</time>
      </trkpt>
      <trkpt lat="50.05748" lon="4.20743">
        <ele>215.8</ele>
        <time>2024-04-29T15:04:19Z</time>
      </trkpt>
      <trkpt lat="50.05741" lon="4.20749">
        <ele>215.8</ele>
        <time>2024-04-29T15:04:20Z</time>
      </trkpt>
      <trkpt lat="50.05734" lon="4.20755">
        <ele>215.8</ele>
        <time>2024-04-29T15:04:21Z</time>
      </trkpt>
      <trkpt lat="50.05727" lon="4.20761">
        <ele>215.8</ele>
        <time>2024-04-29T15:04:22Z</time>
      </trkpt>
      <trkpt lat="50.05719" lon="4.20767">
        <ele>215.4</ele>
        <time>2024-04-29T15:04:23Z</time>
      </trkpt>
      <trkpt lat="50.05711" lon="4.20773">
        <ele>214.8</ele>
        <time>2024-04-29T15:04:24Z</time>
      </trkpt>
      <trkpt lat="50.05703" lon="4.20779">
        <ele>214.2</ele>
        <time>2024-04-29T15:04:25Z</time>
      </trkpt>
      <trkpt lat="50.05695" lon="4.20785">
        <ele>213.2</ele>
        <time>2024-04-29T15:04:26Z</time>
      </trkpt>
      <trkpt lat="50.05687" lon="4.20792">
        <ele>212.6</ele>
        <time>2024-04-29T15:04:27Z</time>
      </trkpt>
      <trkpt lat="50.05679" lon="4.20798">
        <ele>212</ele>
        <time>2024-04-29T15:04:28Z</time>
      </trkpt>
      <trkpt lat="50.05672" lon="4.20804">
        <ele>211.6</ele>
        <time>2024-04-29T15:04:29Z</time>
      </trkpt>
      <trkpt lat="50.05664" lon="4.20809">
        <ele>211.2</ele>
        <time>2024-04-29T15:04:30Z</time>
      </trkpt>
      <trkpt lat="50.05657" lon="4.20815">
        <ele>211</ele>
        <time>2024-04-29T15:04:31Z</time>
      </trkpt>
      <trkpt lat="50.05651" lon="4.2082">
        <ele>210.2</ele>
        <time>2024-04-29T15:04:32Z</time>
      </trkpt>
      <trkpt lat="50.05644" lon="4.20826">
        <ele>209.6</ele>
        <time>2024-04-29T15:04:33Z</time>
      </trkpt>
      <trkpt lat="50.05638" lon="4.20831">
        <ele>209.2</ele>
        <time>2024-04-29T15:04:34Z</time>
      </trkpt>
      <trkpt lat="50.05632" lon="4.20836">
        <ele>209.2</ele>
        <time>2024-04-29T15:04:35Z</time>
      </trkpt>
      <trkpt lat="50.05626" lon="4.2084">
        <ele>209</ele>
        <time>2024-04-29T15:04:36Z</time>
      </trkpt>
      <trkpt lat="50.0562" lon="4.20845">
        <ele>209</ele>
        <time>2024-04-29T15:04:37Z</time>
      </trkpt>
      <trkpt lat="50.05615" lon="4.20849">
        <ele>209</ele>
        <time>2024-04-29T15:04:38Z</time>
      </trkpt>
      <trkpt lat="50.0561" lon="4.20854">
        <ele>209</ele>
        <time>2024-04-29T15:04:39Z</time>
      </trkpt>
      <trkpt lat="50.05604" lon="4.20858">
        <ele>208.8</ele>
        <time>2024-04-29T15:04:40Z</time>
      </trkpt>
      <trkpt lat="50.05599" lon="4.20863">
        <ele>208.8</ele>
        <time>2024-04-29T15:04:41Z</time>
      </trkpt>
      <trkpt lat="50.05594" lon="4.20867">
        <ele>208.8</ele>
        <time>2024-04-29T15:04:42Z</time>
      </trkpt>
      <trkpt lat="50.05589" lon="4.20871">
        <ele>208.8</ele>
        <time>2024-04-29T15:04:43Z</time>
      </trkpt>
      <trkpt lat="50.05584" lon="4.20875">
        <ele>209</ele>
        <time>2024-04-29T15:04:44Z</time>
      </trkpt>
      <trkpt lat="50.05579" lon="4.2088">
        <ele>209.2</ele>
        <time>2024-04-29T15:04:45Z</time>
      </trkpt>
      <trkpt lat="50.05574" lon="4.20884">
        <ele>209.6</ele>
        <time>2024-04-29T15:04:46Z</time>
      </trkpt>
      <trkpt lat="50.05569" lon="4.20888">
        <ele>209.8</ele>
        <time>2024-04-29T15:04:47Z</time>
      </trkpt>
      <trkpt lat="50.05564" lon="4.20892">
        <ele>210.4</ele>
        <time>2024-04-29T15:04:48Z</time>
      </trkpt>
      <trkpt lat="50.05559" lon="4.20896">
        <ele>211</ele>
        <time>2024-04-29T15:04:49Z</time>
      </trkpt>
      <trkpt lat="50.05554" lon="4.209">
        <ele>211.2</ele>
        <time>2024-04-29T15:04:50Z</time>
      </trkpt>
      <trkpt lat="50.05549" lon="4.20904">
        <ele>211.6</ele>
        <time>2024-04-29T15:04:51Z</time>
      </trkpt>
      <trkpt lat="50.05544" lon="4.20908">
        <ele>211.6</ele>
        <time>2024-04-29T15:04:52Z</time>
      </trkpt>
      <trkpt lat="50.05539" lon="4.20912">
        <ele>212.2</ele>
        <time>2024-04-29T15:04:53Z</time>
      </trkpt>
      <trkpt lat="50.05534" lon="4.20916">
        <ele>212.4</ele>
        <time>2024-04-29T15:04:54Z</time>
      </trkpt>
      <trkpt lat="50.05529" lon="4.2092">
        <ele>212.6</ele>
        <time>2024-04-29T15:04:55Z</time>
      </trkpt>
      <trkpt lat="50.05524" lon="4.20924">
        <ele>213</ele>
        <time>2024-04-29T15:04:56Z</time>
      </trkpt>
      <trkpt lat="50.05519" lon="4.20928">
        <ele>213.2</ele>
        <time>2024-04-29T15:04:57Z</time>
      </trkpt>
      <trkpt lat="50.05514" lon="4.20932">
        <ele>213.6</ele>
        <time>2024-04-29T15:04:58Z</time>
      </trkpt>
      <trkpt lat="50.05509" lon="4.20936">
        <ele>214.2</ele>
        <time>2024-04-29T15:04:59Z</time>
      </trkpt>
      <trkpt lat="50.05504" lon="4.2094">
        <ele>214.6</ele>
        <time>2024-04-29T15:05:00Z</time>
      </trkpt>
      <trkpt lat="50.05499" lon="4.20943">
        <ele>215</ele>
        <time>2024-04-29T15:05:01Z</time>
      </trkpt>
      <trkpt lat="50.05494" lon="4.20947">
        <ele>215.2</ele>
        <time>2024-04-29T15:05:02Z</time>
      </trkpt>
      <trkpt lat="50.0549" lon="4.20951">
        <ele>215.2</ele>
        <time>2024-04-29T15:05:03Z</time>
      </trkpt>
      <trkpt lat="50.05485" lon="4.20954">
        <ele>215.2</ele>
        <time>2024-04-29T15:05:04Z</time>
      </trkpt>
      <trkpt lat="50.05481" lon="4.20957">
        <ele>215.2</ele>
        <time>2024-04-29T15:05:05Z</time>
      </trkpt>
      <trkpt lat="50.05477" lon="4.2096">
        <ele>215.4</ele>
        <time>2024-04-29T15:05:06Z</time>
      </trkpt>
      <trkpt lat="50.05473" lon="4.20963">
        <ele>215.4</ele>
        <time>2024-04-29T15:05:07Z</time>
      </trkpt>
      <trkpt lat="50.0547" lon="4.20966">
        <ele>216</ele>
        <time>2024-04-29T15:05:08Z</time>
      </trkpt>
      <trkpt lat="50.05466" lon="4.20968">
        <ele>216.2</ele>
        <time>2024-04-29T15:05:09Z</time>
      </trkpt>
      <trkpt lat="50.05462" lon="4.20971">
        <ele>216.2</ele>
        <time>2024-04-29T15:05:10Z</time>
      </trkpt>
      <trkpt lat="50.05458" lon="4.20975">
        <ele>216.4</ele>
        <time>2024-04-29T15:05:11Z</time>
      </trkpt>
      <trkpt lat="50.05453" lon="4.20978">
        <ele>216.4</ele>
        <time>2024-04-29T15:05:12Z</time>
      </trkpt>
      <trkpt lat="50.05449" lon="4.20981">
        <ele>216.4</ele>
        <time>2024-04-29T15:05:13Z</time>
      </trkpt>
      <trkpt lat="50.05444" lon="4.20984">
        <ele>216.4</ele>
        <time>2024-04-29T15:05:14Z</time>
      </trkpt>
      <trkpt lat="50.05438" lon="4.20987">
        <ele>216.4</ele>
        <time>2024-04-29T15:05:15Z</time>
      </trkpt>
      <trkpt lat="50.05433" lon="4.20988">
        <ele>216.4</ele>
        <time>2024-04-29T15:05:16Z</time>
      </trkpt>
      <trkpt lat="50.05427" lon="4.20988">
        <ele>216.4</ele>
        <time>2024-04-29T15:05:17Z</time>
      </trkpt>
      <trkpt lat="50.05421" lon="4.20987">
        <ele>216.4</ele>
        <time>2024-04-29T15:05:18Z</time>
      </trkpt>
      <trkpt lat="50.05414" lon="4.20987">
        <ele>216.2</ele>
        <time>2024-04-29T15:05:19Z</time>
      </trkpt>
      <trkpt lat="50.05408" lon="4.20987">
        <ele>215.8</ele>
        <time>2024-04-29T15:05:20Z</time>
      </trkpt>
      <trkpt lat="50.05402" lon="4.20988">
        <ele>215.6</ele>
        <time>2024-04-29T15:05:21Z</time>
      </trkpt>
      <trkpt lat="50.05395" lon="4.20986">
        <ele>215.6</ele>
        <time>2024-04-29T15:05:22Z</time>
      </trkpt>
      <trkpt lat="50.05388" lon="4.20985">
        <ele>215.2</ele>
        <time>2024-04-29T15:05:23Z</time>
      </trkpt>
      <trkpt lat="50.05381" lon="4.20984">
        <ele>214.8</ele>
        <time>2024-04-29T15:05:24Z</time>
      </trkpt>
      <trkpt lat="50.05374" lon="4.20984">
        <ele>214.4</ele>
        <time>2024-04-29T15:05:25Z</time>
      </trkpt>
      <trkpt lat="50.05368" lon="4.20983">
        <ele>214</ele>
        <time>2024-04-29T15:05:26Z</time>
      </trkpt>
      <trkpt lat="50.0536" lon="4.20983">
        <ele>214</ele>
        <time>2024-04-29T15:05:27Z</time>
      </trkpt>
      <trkpt lat="50.05353" lon="4.20984">
        <ele>213.4</ele>
        <time>2024-04-29T15:05:28Z</time>
      </trkpt>
      <trkpt lat="50.05346" lon="4.20985">
        <ele>213</ele>
        <time>2024-04-29T15:05:29Z</time>
      </trkpt>
      <trkpt lat="50.05339" lon="4.20985">
        <ele>212.8</ele>
        <time>2024-04-29T15:05:30Z</time>
      </trkpt>
      <trkpt lat="50.05332" lon="4.20985">
        <ele>212.2</ele>
        <time>2024-04-29T15:05:31Z</time>
      </trkpt>
      <trkpt lat="50.05325" lon="4.20986">
        <ele>212</ele>
        <time>2024-04-29T15:05:32Z</time>
      </trkpt>
      <trkpt lat="50.05318" lon="4.20987">
        <ele>211.8</ele>
        <time>2024-04-29T15:05:33Z</time>
      </trkpt>
      <trkpt lat="50.05311" lon="4.20988">
        <ele>211.6</ele>
        <time>2024-04-29T15:05:34Z</time>
      </trkpt>
      <trkpt lat="50.05304" lon="4.20989">
        <ele>211.2</ele>
        <time>2024-04-29T15:05:35Z</time>
      </trkpt>
      <trkpt lat="50.05297" lon="4.2099">
        <ele>211</ele>
        <time>2024-04-29T15:05:36Z</time>
      </trkpt>
      <trkpt lat="50.05291" lon="4.2099">
        <ele>211</ele>
        <time>2024-04-29T15:05:37Z</time>
      </trkpt>
      <trkpt lat="50.05285" lon="4.20991">
        <ele>211</ele>
        <time>2024-04-29T15:05:38Z</time>
      </trkpt>
      <trkpt lat="50.05279" lon="4.20992">
        <ele>210.8</ele>
        <time>2024-04-29T15:05:39Z</time>
      </trkpt>
      <trkpt lat="50.05272" lon="4.20992">
        <ele>210.8</ele>
        <time>2024-04-29T15:05:40Z</time>
      </trkpt>
      <trkpt lat="50.05266" lon="4.20992">
        <ele>210.6</ele>
        <time>2024-04-29T15:05:41Z</time>
      </trkpt>
      <trkpt lat="50.0526" lon="4.20993">
        <ele>210.6</ele>
        <time>2024-04-29T15:05:42Z</time>
      </trkpt>
      <trkpt lat="50.05254" lon="4.20993">
        <ele>210.4</ele>
        <time>2024-04-29T15:05:43Z</time>
      </trkpt>
      <trkpt lat="50.05248" lon="4.20993">
        <ele>210.4</ele>
        <time>2024-04-29T15:05:44Z</time>
      </trkpt>
      <trkpt lat="50.05242" lon="4.20993">
        <ele>210.4</ele>
        <time>2024-04-29T15:05:45Z</time>
      </trkpt>
      <trkpt lat="50.05237" lon="4.20995">
        <ele>210.6</ele>
        <time>2024-04-29T15:05:46Z</time>
      </trkpt>
      <trkpt lat="50.05232" lon="4.20996">
        <ele>210.6</ele>
        <time>2024-04-29T15:05:47Z</time>
      </trkpt>
      <trkpt lat="50.05226" lon="4.20997">
        <ele>210.8</ele>
        <time>2024-04-29T15:05:48Z</time>
      </trkpt>
      <trkpt lat="50.05222" lon="4.20998">
        <ele>210.8</ele>
        <time>2024-04-29T15:05:49Z</time>
      </trkpt>
      <trkpt lat="50.05217" lon="4.20998">
        <ele>210.8</ele>
        <time>2024-04-29T15:05:50Z</time>
      </trkpt>
      <trkpt lat="50.05213" lon="4.20998">
        <ele>210.8</ele>
        <time>2024-04-29T15:05:51Z</time>
      </trkpt>
      <trkpt lat="50.05208" lon="4.20999">
        <ele>210.8</ele>
        <time>2024-04-29T15:05:52Z</time>
      </trkpt>
      <trkpt lat="50.05203" lon="4.21">
        <ele>211</ele>
        <time>2024-04-29T15:05:53Z</time>
      </trkpt>
      <trkpt lat="50.05198" lon="4.21001">
        <ele>210.8</ele>
        <time>2024-04-29T15:05:54Z</time>
      </trkpt>
      <trkpt lat="50.05193" lon="4.21001">
        <ele>210.8</ele>
        <time>2024-04-29T15:05:55Z</time>
      </trkpt>
      <trkpt lat="50.05187" lon="4.21002">
        <ele>211</ele>
        <time>2024-04-29T15:05:56Z</time>
      </trkpt>
      <trkpt lat="50.05181" lon="4.21001">
        <ele>211</ele>
        <time>2024-04-29T15:05:57Z</time>
      </trkpt>
      <trkpt lat="50.05174" lon="4.21">
        <ele>211</ele>
        <time>2024-04-29T15:05:58Z</time>
      </trkpt>
      <trkpt lat="50.05168" lon="4.20997">
        <ele>210.8</ele>
        <time>2024-04-29T15:05:59Z</time>
      </trkpt>
      <trkpt lat="50.05161" lon="4.20994">
        <ele>210.8</ele>
        <time>2024-04-29T15:06:00Z</time>
      </trkpt>
      <trkpt lat="50.05154" lon="4.20989">
        <ele>210.8</ele>
        <time>2024-04-29T15:06:01Z</time>
      </trkpt>
      <trkpt lat="50.05147" lon="4.20983">
        <ele>210.8</ele>
        <time>2024-04-29T15:06:02Z</time>
      </trkpt>
      <trkpt lat="50.0514" lon="4.20976">
        <ele>210.6</ele>
        <time>2024-04-29T15:06:03Z</time>
      </trkpt>
      <trkpt lat="50.05134" lon="4.2097">
        <ele>210.2</ele>
        <time>2024-04-29T15:06:04Z</time>
      </trkpt>
      <trkpt lat="50.05127" lon="4.20963">
        <ele>210.2</ele>
        <time>2024-04-29T15:06:05Z</time>
      </trkpt>
      <trkpt lat="50.0512" lon="4.20956">
        <ele>209.8</ele>
        <time>2024-04-29T15:06:06Z</time>
      </trkpt>
      <trkpt lat="50.05114" lon="4.20948">
        <ele>209</ele>
        <time>2024-04-29T15:06:07Z</time>
      </trkpt>
      <trkpt lat="50.05107" lon="4.20942">
        <ele>208.4</ele>
        <time>2024-04-29T15:06:08Z</time>
      </trkpt>
      <trkpt lat="50.05101" lon="4.20934">
        <ele>207.6</ele>
        <time>2024-04-29T15:06:09Z</time>
      </trkpt>
      <trkpt lat="50.05095" lon="4.20927">
        <ele>206.6</ele>
        <time>2024-04-29T15:06:10Z</time>
      </trkpt>
      <trkpt lat="50.0509" lon="4.20918">
        <ele>206.6</ele>
        <time>2024-04-29T15:06:11Z</time>
      </trkpt>
      <trkpt lat="50.05086" lon="4.20909">
        <ele>205.4</ele>
        <time>2024-04-29T15:06:12Z</time>
      </trkpt>
      <trkpt lat="50.05082" lon="4.20901">
        <ele>204.8</ele>
        <time>2024-04-29T15:06:13Z</time>
      </trkpt>
      <trkpt lat="50.05077" lon="4.20895">
        <ele>204.6</ele>
        <time>2024-04-29T15:06:14Z</time>
      </trkpt>
      <trkpt lat="50.05071" lon="4.20894">
        <ele>204.2</ele>
        <time>2024-04-29T15:06:15Z</time>
      </trkpt>
      <trkpt lat="50.05065" lon="4.20894">
        <ele>204</ele>
        <time>2024-04-29T15:06:16Z</time>
      </trkpt>
      <trkpt lat="50.05059" lon="4.20894">
        <ele>204.2</ele>
        <time>2024-04-29T15:06:17Z</time>
      </trkpt>
      <trkpt lat="50.05054" lon="4.20891">
        <ele>204.2</ele>
        <time>2024-04-29T15:06:18Z</time>
      </trkpt>
      <trkpt lat="50.05049" lon="4.20887">
        <ele>204.2</ele>
        <time>2024-04-29T15:06:19Z</time>
      </trkpt>
      <trkpt lat="50.05044" lon="4.20882">
        <ele>204</ele>
        <time>2024-04-29T15:06:20Z</time>
      </trkpt>
      <trkpt lat="50.0504" lon="4.20878">
        <ele>204.2</ele>
        <time>2024-04-29T15:06:21Z</time>
      </trkpt>
      <trkpt lat="50.05035" lon="4.20874">
        <ele>204</ele>
        <time>2024-04-29T15:06:22Z</time>
      </trkpt>
      <trkpt lat="50.0503" lon="4.20871">
        <ele>204.2</ele>
        <time>2024-04-29T15:06:23Z</time>
      </trkpt>
      <trkpt lat="50.05025" lon="4.20868">
        <ele>204.4</ele>
        <time>2024-04-29T15:06:24Z</time>
      </trkpt>
      <trkpt lat="50.0502" lon="4.20865">
        <ele>204.8</ele>
        <time>2024-04-29T15:06:25Z</time>
      </trkpt>
      <trkpt lat="50.05016" lon="4.20861">
        <ele>205.2</ele>
        <time>2024-04-29T15:06:26Z</time>
      </trkpt>
      <trkpt lat="50.05012" lon="4.20858">
        <ele>205.4</ele>
        <time>2024-04-29T15:06:27Z</time>
      </trkpt>
      <trkpt lat="50.05008" lon="4.20855">
        <ele>205.6</ele>
        <time>2024-04-29T15:06:28Z</time>
      </trkpt>
      <trkpt lat="50.05004" lon="4.20852">
        <ele>206</ele>
        <time>2024-04-29T15:06:29Z</time>
      </trkpt>
      <trkpt lat="50.05" lon="4.20849">
        <ele>206</ele>
        <time>2024-04-29T15:06:30Z</time>
      </trkpt>
      <trkpt lat="50.04996" lon="4.20847">
        <ele>206.2</ele>
        <time>2024-04-29T15:06:31Z</time>
      </trkpt>
      <trkpt lat="50.04992" lon="4.20845">
        <ele>206.2</ele>
        <time>2024-04-29T15:06:32Z</time>
      </trkpt>
      <trkpt lat="50.04987" lon="4.20843">
        <ele>206.2</ele>
        <time>2024-04-29T15:06:33Z</time>
      </trkpt>
      <trkpt lat="50.04983" lon="4.20841">
        <ele>206.4</ele>
        <time>2024-04-29T15:06:34Z</time>
      </trkpt>
      <trkpt lat="50.04979" lon="4.2084">
        <ele>206.8</ele>
        <time>2024-04-29T15:06:35Z</time>
      </trkpt>
      <trkpt lat="50.04975" lon="4.20839">
        <ele>207.4</ele>
        <time>2024-04-29T15:06:36Z</time>
      </trkpt>
      <trkpt lat="50.0497" lon="4.20839">
        <ele>207.4</ele>
        <time>2024-04-29T15:06:37Z</time>
      </trkpt>
      <trkpt lat="50.04966" lon="4.20838">
        <ele>208</ele>
        <time>2024-04-29T15:06:38Z</time>
      </trkpt>
      <trkpt lat="50.04962" lon="4.20838">
        <ele>208.2</ele>
        <time>2024-04-29T15:06:39Z</time>
      </trkpt>
      <trkpt lat="50.04958" lon="4.20839">
        <ele>208.6</ele>
        <time>2024-04-29T15:06:40Z</time>
      </trkpt>
      <trkpt lat="50.04954" lon="4.2084">
        <ele>208.6</ele>
        <time>2024-04-29T15:06:41Z</time>
      </trkpt>
      <trkpt lat="50.0495" lon="4.20841">
        <ele>209</ele>
        <time>2024-04-29T15:06:42Z</time>
      </trkpt>
      <trkpt lat="50.04946" lon="4.20842">
        <ele>209.4</ele>
        <time>2024-04-29T15:06:43Z</time>
      </trkpt>
      <trkpt lat="50.04943" lon="4.20844">
        <ele>209.8</ele>
        <time>2024-04-29T15:06:44Z</time>
      </trkpt>
      <trkpt lat="50.04939" lon="4.20846">
        <ele>210.2</ele>
        <time>2024-04-29T15:06:45Z</time>
      </trkpt>
      <trkpt lat="50.04936" lon="4.20849">
        <ele>210.6</ele>
        <time>2024-04-29T15:06:46Z</time>
      </trkpt>
      <trkpt lat="50.04933" lon="4.20853">
        <ele>211</ele>
        <time>2024-04-29T15:06:47Z</time>
      </trkpt>
      <trkpt lat="50.0493" lon="4.20856">
        <ele>211.4</ele>
        <time>2024-04-29T15:06:48Z</time>
      </trkpt>
      <trkpt lat="50.04926" lon="4.20859">
        <ele>211.8</ele>
        <time>2024-04-29T15:06:49Z</time>
      </trkpt>
      <trkpt lat="50.04923" lon="4.20863">
        <ele>212.2</ele>
        <time>2024-04-29T15:06:50Z</time>
      </trkpt>
      <trkpt lat="50.0492" lon="4.20867">
        <ele>212.8</ele>
        <time>2024-04-29T15:06:51Z</time>
      </trkpt>
      <trkpt lat="50.04918" lon="4.20871">
        <ele>212.8</ele>
        <time>2024-04-29T15:06:52Z</time>
      </trkpt>
      <trkpt lat="50.04915" lon="4.20875">
        <ele>213</ele>
        <time>2024-04-29T15:06:53Z</time>
      </trkpt>
      <trkpt lat="50.04912" lon="4.20879">
        <ele>213.2</ele>
        <time>2024-04-29T15:06:54Z</time>
      </trkpt>
      <trkpt lat="50.04909" lon="4.20883">
        <ele>213.2</ele>
        <time>2024-04-29T15:06:55Z</time>
      </trkpt>
      <trkpt lat="50.04906" lon="4.20887">
        <ele>213.4</ele>
        <time>2024-04-29T15:06:56Z</time>
      </trkpt>
      <trkpt lat="50.04903" lon="4.20891">
        <ele>213.6</ele>
        <time>2024-04-29T15:06:57Z</time>
      </trkpt>
      <trkpt lat="50.049" lon="4.20895">
        <ele>213.8</ele>
        <time>2024-04-29T15:06:58Z</time>
      </trkpt>
      <trkpt lat="50.04897" lon="4.20899">
        <ele>214</ele>
        <time>2024-04-29T15:06:59Z</time>
      </trkpt>
      <trkpt lat="50.04895" lon="4.20904">
        <ele>214.2</ele>
        <time>2024-04-29T15:07:00Z</time>
      </trkpt>
      <trkpt lat="50.04892" lon="4.20908">
        <ele>214.4</ele>
        <time>2024-04-29T15:07:01Z</time>
      </trkpt>
      <trkpt lat="50.04889" lon="4.20912">
        <ele>214.4</ele>
        <time>2024-04-29T15:07:02Z</time>
      </trkpt>
      <trkpt lat="50.04885" lon="4.20916">
        <ele>215.2</ele>
        <time>2024-04-29T15:07:03Z</time>
      </trkpt>
      <trkpt lat="50.04882" lon="4.20921">
        <ele>215.8</ele>
        <time>2024-04-29T15:07:04Z</time>
      </trkpt>
      <trkpt lat="50.04879" lon="4.20925">
        <ele>216.2</ele>
        <time>2024-04-29T15:07:05Z</time>
      </trkpt>
      <trkpt lat="50.04876" lon="4.20929">
        <ele>216.6</ele>
        <time>2024-04-29T15:07:06Z</time>
      </trkpt>
      <trkpt lat="50.04872" lon="4.20934">
        <ele>216.8</ele>
        <time>2024-04-29T15:07:07Z</time>
      </trkpt>
      <trkpt lat="50.04868" lon="4.20938">
        <ele>217.2</ele>
        <time>2024-04-29T15:07:08Z</time>
      </trkpt>
      <trkpt lat="50.04865" lon="4.20942">
        <ele>217.4</ele>
        <time>2024-04-29T15:07:09Z</time>
      </trkpt>
      <trkpt lat="50.04861" lon="4.20946">
        <ele>217.8</ele>
        <time>2024-04-29T15:07:10Z</time>
      </trkpt>
      <trkpt lat="50.04857" lon="4.2095">
        <ele>217.8</ele>
        <time>2024-04-29T15:07:11Z</time>
      </trkpt>
      <trkpt lat="50.04853" lon="4.20954">
        <ele>218.2</ele>
        <time>2024-04-29T15:07:12Z</time>
      </trkpt>
      <trkpt lat="50.04848" lon="4.20959">
        <ele>218.4</ele>
        <time>2024-04-29T15:07:13Z</time>
      </trkpt>
      <trkpt lat="50.04844" lon="4.20963">
        <ele>219</ele>
        <time>2024-04-29T15:07:14Z</time>
      </trkpt>
      <trkpt lat="50.0484" lon="4.20967">
        <ele>219.4</ele>
        <time>2024-04-29T15:07:15Z</time>
      </trkpt>
      <trkpt lat="50.04835" lon="4.20972">
        <ele>219.6</ele>
        <time>2024-04-29T15:07:16Z</time>
      </trkpt>
      <trkpt lat="50.04831" lon="4.20976">
        <ele>219.6</ele>
        <time>2024-04-29T15:07:17Z</time>
      </trkpt>
      <trkpt lat="50.04826" lon="4.20981">
        <ele>219.8</ele>
        <time>2024-04-29T15:07:18Z</time>
      </trkpt>
      <trkpt lat="50.04821" lon="4.20986">
        <ele>220.2</ele>
        <time>2024-04-29T15:07:19Z</time>
      </trkpt>
      <trkpt lat="50.04816" lon="4.2099">
        <ele>220.4</ele>
        <time>2024-04-29T15:07:20Z</time>
      </trkpt>
      <trkpt lat="50.04811" lon="4.20995">
        <ele>220.4</ele>
        <time>2024-04-29T15:07:21Z</time>
      </trkpt>
      <trkpt lat="50.04807" lon="4.20999">
        <ele>220.6</ele>
        <time>2024-04-29T15:07:22Z</time>
      </trkpt>
      <trkpt lat="50.04802" lon="4.21004">
        <ele>220.8</ele>
        <time>2024-04-29T15:07:23Z</time>
      </trkpt>
      <trkpt lat="50.04796" lon="4.21008">
        <ele>220.8</ele>
        <time>2024-04-29T15:07:24Z</time>
      </trkpt>
      <trkpt lat="50.04791" lon="4.21012">
        <ele>221.4</ele>
        <time>2024-04-29T15:07:25Z</time>
      </trkpt>
      <trkpt lat="50.04786" lon="4.21016">
        <ele>221.6</ele>
        <time>2024-04-29T15:07:26Z</time>
      </trkpt>
      <trkpt lat="50.0478" lon="4.2102">
        <ele>221.6</ele>
        <time>2024-04-29T15:07:27Z</time>
      </trkpt>
      <trkpt lat="50.04775" lon="4.21024">
        <ele>221.8</ele>
        <time>2024-04-29T15:07:28Z</time>
      </trkpt>
      <trkpt lat="50.04769" lon="4.21028">
        <ele>221.8</ele>
        <time>2024-04-29T15:07:29Z</time>
      </trkpt>
      <trkpt lat="50.04763" lon="4.21031">
        <ele>222</ele>
        <time>2024-04-29T15:07:30Z</time>
      </trkpt>
      <trkpt lat="50.04758" lon="4.21035">
        <ele>222</ele>
        <time>2024-04-29T15:07:31Z</time>
      </trkpt>
      <trkpt lat="50.04752" lon="4.21038">
        <ele>222.2</ele>
        <time>2024-04-29T15:07:32Z</time>
      </trkpt>
      <trkpt lat="50.04746" lon="4.21041">
        <ele>222.2</ele>
        <time>2024-04-29T15:07:33Z</time>
      </trkpt>
      <trkpt lat="50.0474" lon="4.21044">
        <ele>222.2</ele>
        <time>2024-04-29T15:07:34Z</time>
      </trkpt>
      <trkpt lat="50.04733" lon="4.21047">
        <ele>222.2</ele>
        <time>2024-04-29T15:07:35Z</time>
      </trkpt>
      <trkpt lat="50.04727" lon="4.21049">
        <ele>222.2</ele>
        <time>2024-04-29T15:07:36Z</time>
      </trkpt>
      <trkpt lat="50.04721" lon="4.21052">
        <ele>222.4</ele>
        <time>2024-04-29T15:07:37Z</time>
      </trkpt>
      <trkpt lat="50.04715" lon="4.21054">
        <ele>222.4</ele>
        <time>2024-04-29T15:07:38Z</time>
      </trkpt>
      <trkpt lat="50.04709" lon="4.21057">
        <ele>222.4</ele>
        <time>2024-04-29T15:07:39Z</time>
      </trkpt>
      <trkpt lat="50.04703" lon="4.2106">
        <ele>222.2</ele>
        <time>2024-04-29T15:07:40Z</time>
      </trkpt>
      <trkpt lat="50.04696" lon="4.21062">
        <ele>222.4</ele>
        <time>2024-04-29T15:07:41Z</time>
      </trkpt>
      <trkpt lat="50.0469" lon="4.21065">
        <ele>222.4</ele>
        <time>2024-04-29T15:07:42Z</time>
      </trkpt>
      <trkpt lat="50.04684" lon="4.21067">
        <ele>222.4</ele>
        <time>2024-04-29T15:07:43Z</time>
      </trkpt>
      <trkpt lat="50.04678" lon="4.21069">
        <ele>222.4</ele>
        <time>2024-04-29T15:07:44Z</time>
      </trkpt>
      <trkpt lat="50.04672" lon="4.21072">
        <ele>222.4</ele>
        <time>2024-04-29T15:07:45Z</time>
      </trkpt>
      <trkpt lat="50.04667" lon="4.21074">
        <ele>222.6</ele>
        <time>2024-04-29T15:07:46Z</time>
      </trkpt>
      <trkpt lat="50.04661" lon="4.21077">
        <ele>222.6</ele>
        <time>2024-04-29T15:07:47Z</time>
      </trkpt>
      <trkpt lat="50.04655" lon="4.21079">
        <ele>222.6</ele>
        <time>2024-04-29T15:07:48Z</time>
      </trkpt>
      <trkpt lat="50.04649" lon="4.21082">
        <ele>222.6</ele>
        <time>2024-04-29T15:07:49Z</time>
      </trkpt>
      <trkpt lat="50.04643" lon="4.21084">
        <ele>222.8</ele>
        <time>2024-04-29T15:07:50Z</time>
      </trkpt>
      <trkpt lat="50.04637" lon="4.21087">
        <ele>222.8</ele>
        <time>2024-04-29T15:07:51Z</time>
      </trkpt>
      <trkpt lat="50.04631" lon="4.2109">
        <ele>223</ele>
        <time>2024-04-29T15:07:52Z</time>
      </trkpt>
      <trkpt lat="50.04625" lon="4.21092">
        <ele>223</ele>
        <time>2024-04-29T15:07:53Z</time>
      </trkpt>
      <trkpt lat="50.04619" lon="4.21095">
        <ele>223.2</ele>
        <time>2024-04-29T15:07:54Z</time>
      </trkpt>
      <trkpt lat="50.04612" lon="4.21098">
        <ele>223.4</ele>
        <time>2024-04-29T15:07:55Z</time>
      </trkpt>
      <trkpt lat="50.04606" lon="4.211">
        <ele>223.8</ele>
        <time>2024-04-29T15:07:56Z</time>
      </trkpt>
      <trkpt lat="50.04599" lon="4.21103">
        <ele>223.8</ele>
        <time>2024-04-29T15:07:57Z</time>
      </trkpt>
      <trkpt lat="50.04593" lon="4.21106">
        <ele>223.8</ele>
        <time>2024-04-29T15:07:58Z</time>
      </trkpt>
      <trkpt lat="50.04586" lon="4.21109">
        <ele>224.2</ele>
        <time>2024-04-29T15:07:59Z</time>
      </trkpt>
      <trkpt lat="50.04579" lon="4.21112">
        <ele>224</ele>
        <time>2024-04-29T15:08:00Z</time>
      </trkpt>
      <trkpt lat="50.04573" lon="4.21116">
        <ele>224</ele>
        <time>2024-04-29T15:08:01Z</time>
      </trkpt>
      <trkpt lat="50.04567" lon="4.21119">
        <ele>224</ele>
        <time>2024-04-29T15:08:02Z</time>
      </trkpt>
      <trkpt lat="50.04561" lon="4.21123">
        <ele>224.2</ele>
        <time>2024-04-29T15:08:03Z</time>
      </trkpt>
      <trkpt lat="50.04554" lon="4.21128">
        <ele>224</ele>
        <time>2024-04-29T15:08:04Z</time>
      </trkpt>
      <trkpt lat="50.04548" lon="4.21132">
        <ele>224.2</ele>
        <time>2024-04-29T15:08:05Z</time>
      </trkpt>
      <trkpt lat="50.04543" lon="4.21137">
        <ele>224.2</ele>
        <time>2024-04-29T15:08:06Z</time>
      </trkpt>
      <trkpt lat="50.04537" lon="4.21143">
        <ele>224.4</ele>
        <time>2024-04-29T15:08:07Z</time>
      </trkpt>
      <trkpt lat="50.04531" lon="4.21148">
        <ele>224.4</ele>
        <time>2024-04-29T15:08:08Z</time>
      </trkpt>
      <trkpt lat="50.04525" lon="4.21153">
        <ele>224.6</ele>
        <time>2024-04-29T15:08:09Z</time>
      </trkpt>
      <trkpt lat="50.0452" lon="4.21159">
        <ele>224.4</ele>
        <time>2024-04-29T15:08:10Z</time>
      </trkpt>
      <trkpt lat="50.04514" lon="4.21165">
        <ele>224.6</ele>
        <time>2024-04-29T15:08:11Z</time>
      </trkpt>
      <trkpt lat="50.04509" lon="4.21171">
        <ele>224.4</ele>
        <time>2024-04-29T15:08:12Z</time>
      </trkpt>
      <trkpt lat="50.04504" lon="4.21177">
        <ele>224.6</ele>
        <time>2024-04-29T15:08:13Z</time>
      </trkpt>
      <trkpt lat="50.04498" lon="4.21183">
        <ele>224.4</ele>
        <time>2024-04-29T15:08:14Z</time>
      </trkpt>
      <trkpt lat="50.04493" lon="4.2119">
        <ele>224.4</ele>
        <time>2024-04-29T15:08:15Z</time>
      </trkpt>
      <trkpt lat="50.04488" lon="4.21196">
        <ele>224.4</ele>
        <time>2024-04-29T15:08:16Z</time>
      </trkpt>
      <trkpt lat="50.04483" lon="4.21203">
        <ele>224.4</ele>
        <time>2024-04-29T15:08:17Z</time>
      </trkpt>
      <trkpt lat="50.04478" lon="4.21209">
        <ele>224.4</ele>
        <time>2024-04-29T15:08:18Z</time>
      </trkpt>
      <trkpt lat="50.04474" lon="4.21216">
        <ele>224.4</ele>
        <time>2024-04-29T15:08:19Z</time>
      </trkpt>
      <trkpt lat="50.04469" lon="4.21223">
        <ele>224.4</ele>
        <time>2024-04-29T15:08:20Z</time>
      </trkpt>
      <trkpt lat="50.04464" lon="4.21229">
        <ele>224.4</ele>
        <time>2024-04-29T15:08:21Z</time>
      </trkpt>
      <trkpt lat="50.0446" lon="4.21237">
        <ele>224.6</ele>
        <time>2024-04-29T15:08:22Z</time>
      </trkpt>
      <trkpt lat="50.04456" lon="4.21244">
        <ele>224.6</ele>
        <time>2024-04-29T15:08:23Z</time>
      </trkpt>
      <trkpt lat="50.04452" lon="4.21251">
        <ele>224.8</ele>
        <time>2024-04-29T15:08:24Z</time>
      </trkpt>
      <trkpt lat="50.04448" lon="4.21259">
        <ele>224.8</ele>
        <time>2024-04-29T15:08:25Z</time>
      </trkpt>
      <trkpt lat="50.04444" lon="4.21267">
        <ele>224.8</ele>
        <time>2024-04-29T15:08:26Z</time>
      </trkpt>
      <trkpt lat="50.04441" lon="4.21275">
        <ele>224.8</ele>
        <time>2024-04-29T15:08:27Z</time>
      </trkpt>
      <trkpt lat="50.04437" lon="4.21282">
        <ele>225.2</ele>
        <time>2024-04-29T15:08:28Z</time>
      </trkpt>
      <trkpt lat="50.04433" lon="4.2129">
        <ele>225.2</ele>
        <time>2024-04-29T15:08:29Z</time>
      </trkpt>
      <trkpt lat="50.0443" lon="4.21298">
        <ele>225.6</ele>
        <time>2024-04-29T15:08:30Z</time>
      </trkpt>
      <trkpt lat="50.04426" lon="4.21306">
        <ele>225.6</ele>
        <time>2024-04-29T15:08:31Z</time>
      </trkpt>
      <trkpt lat="50.04423" lon="4.21314">
        <ele>225.6</ele>
        <time>2024-04-29T15:08:32Z</time>
      </trkpt>
      <trkpt lat="50.0442" lon="4.21322">
        <ele>225.8</ele>
        <time>2024-04-29T15:08:33Z</time>
      </trkpt>
      <trkpt lat="50.04417" lon="4.2133">
        <ele>226</ele>
        <time>2024-04-29T15:08:34Z</time>
      </trkpt>
      <trkpt lat="50.04414" lon="4.21338">
        <ele>226</ele>
        <time>2024-04-29T15:08:35Z</time>
      </trkpt>
      <trkpt lat="50.04411" lon="4.21345">
        <ele>226.2</ele>
        <time>2024-04-29T15:08:36Z</time>
      </trkpt>
      <trkpt lat="50.04408" lon="4.21353">
        <ele>226</ele>
        <time>2024-04-29T15:08:37Z</time>
      </trkpt>
      <trkpt lat="50.04405" lon="4.2136">
        <ele>226.2</ele>
        <time>2024-04-29T15:08:38Z</time>
      </trkpt>
      <trkpt lat="50.04402" lon="4.21368">
        <ele>226.4</ele>
        <time>2024-04-29T15:08:39Z</time>
      </trkpt>
      <trkpt lat="50.044" lon="4.21375">
        <ele>226.4</ele>
        <time>2024-04-29T15:08:40Z</time>
      </trkpt>
      <trkpt lat="50.04397" lon="4.21382">
        <ele>226.8</ele>
        <time>2024-04-29T15:08:41Z</time>
      </trkpt>
      <trkpt lat="50.04394" lon="4.21389">
        <ele>227.6</ele>
        <time>2024-04-29T15:08:42Z</time>
      </trkpt>
      <trkpt lat="50.04391" lon="4.21395">
        <ele>228.6</ele>
        <time>2024-04-29T15:08:43Z</time>
      </trkpt>
      <trkpt lat="50.04389" lon="4.21402">
        <ele>228.6</ele>
        <time>2024-04-29T15:08:44Z</time>
      </trkpt>
      <trkpt lat="50.04386" lon="4.21408">
        <ele>229.2</ele>
        <time>2024-04-29T15:08:45Z</time>
      </trkpt>
      <trkpt lat="50.04383" lon="4.21414">
        <ele>229.8</ele>
        <time>2024-04-29T15:08:46Z</time>
      </trkpt>
      <trkpt lat="50.0438" lon="4.2142">
        <ele>230.4</ele>
        <time>2024-04-29T15:08:47Z</time>
      </trkpt>
      <trkpt lat="50.04378" lon="4.21426">
        <ele>230.8</ele>
        <time>2024-04-29T15:08:48Z</time>
      </trkpt>
      <trkpt lat="50.04375" lon="4.21432">
        <ele>231</ele>
        <time>2024-04-29T15:08:49Z</time>
      </trkpt>
      <trkpt lat="50.04372" lon="4.21437">
        <ele>232</ele>
        <time>2024-04-29T15:08:50Z</time>
      </trkpt>
      <trkpt lat="50.04369" lon="4.21443">
        <ele>232.4</ele>
        <time>2024-04-29T15:08:51Z</time>
      </trkpt>
      <trkpt lat="50.04367" lon="4.21449">
        <ele>232.8</ele>
        <time>2024-04-29T15:08:52Z</time>
      </trkpt>
      <trkpt lat="50.04364" lon="4.21454">
        <ele>233</ele>
        <time>2024-04-29T15:08:53Z</time>
      </trkpt>
      <trkpt lat="50.04361" lon="4.21459">
        <ele>233.2</ele>
        <time>2024-04-29T15:08:54Z</time>
      </trkpt>
      <trkpt lat="50.04358" lon="4.21463">
        <ele>233.6</ele>
        <time>2024-04-29T15:08:55Z</time>
      </trkpt>
      <trkpt lat="50.04356" lon="4.21468">
        <ele>233.8</ele>
        <time>2024-04-29T15:08:56Z</time>
      </trkpt>
      <trkpt lat="50.04353" lon="4.21472">
        <ele>234</ele>
        <time>2024-04-29T15:08:57Z</time>
      </trkpt>
      <trkpt lat="50.04351" lon="4.21476">
        <ele>234.4</ele>
        <time>2024-04-29T15:08:58Z</time>
      </trkpt>
      <trkpt lat="50.04349" lon="4.21481">
        <ele>234.8</ele>
        <time>2024-04-29T15:08:59Z</time>
      </trkpt>
      <trkpt lat="50.04346" lon="4.21485">
        <ele>235</ele>
        <time>2024-04-29T15:09:00Z</time>
      </trkpt>
      <trkpt lat="50.04343" lon="4.21489">
        <ele>235.4</ele>
        <time>2024-04-29T15:09:01Z</time>
      </trkpt>
      <trkpt lat="50.04341" lon="4.21493">
        <ele>236</ele>
        <time>2024-04-29T15:09:02Z</time>
      </trkpt>
      <trkpt lat="50.04339" lon="4.21497">
        <ele>236.2</ele>
        <time>2024-04-29T15:09:03Z</time>
      </trkpt>
      <trkpt lat="50.04336" lon="4.21501">
        <ele>236.6</ele>
        <time>2024-04-29T15:09:04Z</time>
      </trkpt>
      <trkpt lat="50.04333" lon="4.21506">
        <ele>236.8</ele>
        <time>2024-04-29T15:09:05Z</time>
      </trkpt>
      <trkpt lat="50.04331" lon="4.2151">
        <ele>236.8</ele>
        <time>2024-04-29T15:09:06Z</time>
      </trkpt>
      <trkpt lat="50.04328" lon="4.21514">
        <ele>237.4</ele>
        <time>2024-04-29T15:09:07Z</time>
      </trkpt>
      <trkpt lat="50.04326" lon="4.21518">
        <ele>238</ele>
        <time>2024-04-29T15:09:08Z</time>
      </trkpt>
      <trkpt lat="50.04323" lon="4.21522">
        <ele>238.4</ele>
        <time>2024-04-29T15:09:09Z</time>
      </trkpt>
      <trkpt lat="50.0432" lon="4.21525">
        <ele>238.6</ele>
        <time>2024-04-29T15:09:10Z</time>
      </trkpt>
      <trkpt lat="50.04317" lon="4.21529">
        <ele>238.8</ele>
        <time>2024-04-29T15:09:11Z</time>
      </trkpt>
      <trkpt lat="50.04314" lon="4.21532">
        <ele>239</ele>
        <time>2024-04-29T15:09:12Z</time>
      </trkpt>
      <trkpt lat="50.04311" lon="4.21535">
        <ele>239</ele>
        <time>2024-04-29T15:09:13Z</time>
      </trkpt>
      <trkpt lat="50.04308" lon="4.21538">
        <ele>239.2</ele>
        <time>2024-04-29T15:09:14Z</time>
      </trkpt>
      <trkpt lat="50.04304" lon="4.2154">
        <ele>239.6</ele>
        <time>2024-04-29T15:09:15Z</time>
      </trkpt>
      <trkpt lat="50.04301" lon="4.21542">
        <ele>239.6</ele>
        <time>2024-04-29T15:09:16Z</time>
      </trkpt>
      <trkpt lat="50.04297" lon="4.21543">
        <ele>240</ele>
        <time>2024-04-29T15:09:17Z</time>
      </trkpt>
      <trkpt lat="50.04294" lon="4.21545">
        <ele>240.4</ele>
        <time>2024-04-29T15:09:18Z</time>
      </trkpt>
      <trkpt lat="50.0429" lon="4.21546">
        <ele>240.6</ele>
        <time>2024-04-29T15:09:19Z</time>
      </trkpt>
      <trkpt lat="50.04287" lon="4.21547">
        <ele>240.8</ele>
        <time>2024-04-29T15:09:20Z</time>
      </trkpt>
      <trkpt lat="50.04283" lon="4.21548">
        <ele>241.2</ele>
        <time>2024-04-29T15:09:21Z</time>
      </trkpt>
      <trkpt lat="50.04279" lon="4.21548">
        <ele>241.2</ele>
        <time>2024-04-29T15:09:22Z</time>
      </trkpt>
      <trkpt lat="50.04276" lon="4.21548">
        <ele>241.4</ele>
        <time>2024-04-29T15:09:23Z</time>
      </trkpt>
      <trkpt lat="50.04272" lon="4.21549">
        <ele>241.6</ele>
        <time>2024-04-29T15:09:24Z</time>
      </trkpt>
      <trkpt lat="50.04268" lon="4.21549">
        <ele>241.8</ele>
        <time>2024-04-29T15:09:25Z</time>
      </trkpt>
      <trkpt lat="50.04264" lon="4.21548">
        <ele>242</ele>
        <time>2024-04-29T15:09:26Z</time>
      </trkpt>
      <trkpt lat="50.0426" lon="4.21548">
        <ele>242.2</ele>
        <time>2024-04-29T15:09:27Z</time>
      </trkpt>
      <trkpt lat="50.04256" lon="4.21548">
        <ele>242.2</ele>
        <time>2024-04-29T15:09:28Z</time>
      </trkpt>
      <trkpt lat="50.04252" lon="4.21548">
        <ele>242.8</ele>
        <time>2024-04-29T15:09:29Z</time>
      </trkpt>
      <trkpt lat="50.04248" lon="4.21548">
        <ele>243.2</ele>
        <time>2024-04-29T15:09:30Z</time>
      </trkpt>
      <trkpt lat="50.04245" lon="4.21548">
        <ele>243.8</ele>
        <time>2024-04-29T15:09:31Z</time>
      </trkpt>
      <trkpt lat="50.04241" lon="4.21548">
        <ele>244.2</ele>
        <time>2024-04-29T15:09:32Z</time>
      </trkpt>
      <trkpt lat="50.04237" lon="4.21548">
        <ele>245</ele>
        <time>2024-04-29T15:09:33Z</time>
      </trkpt>
      <trkpt lat="50.04233" lon="4.21548">
        <ele>245.4</ele>
        <time>2024-04-29T15:09:34Z</time>
      </trkpt>
      <trkpt lat="50.04229" lon="4.21548">
        <ele>245.6</ele>
        <time>2024-04-29T15:09:35Z</time>
      </trkpt>
      <trkpt lat="50.04225" lon="4.21547">
        <ele>245.8</ele>
        <time>2024-04-29T15:09:36Z</time>
      </trkpt>
      <trkpt lat="50.04222" lon="4.21547">
        <ele>246</ele>
        <time>2024-04-29T15:09:37Z</time>
      </trkpt>
      <trkpt lat="50.04218" lon="4.21547">
        <ele>246.2</ele>
        <time>2024-04-29T15:09:38Z</time>
      </trkpt>
      <trkpt lat="50.04214" lon="4.21547">
        <ele>246.8</ele>
        <time>2024-04-29T15:09:39Z</time>
      </trkpt>
      <trkpt lat="50.0421" lon="4.21547">
        <ele>247.2</ele>
        <time>2024-04-29T15:09:40Z</time>
      </trkpt>
      <trkpt lat="50.04206" lon="4.21547">
        <ele>247.4</ele>
        <time>2024-04-29T15:09:41Z</time>
      </trkpt>
      <trkpt lat="50.04202" lon="4.21547">
        <ele>247.8</ele>
        <time>2024-04-29T15:09:42Z</time>
      </trkpt>
      <trkpt lat="50.04199" lon="4.21547">
        <ele>247.8</ele>
        <time>2024-04-29T15:09:43Z</time>
      </trkpt>
      <trkpt lat="50.04195" lon="4.21547">
        <ele>248.2</ele>
        <time>2024-04-29T15:09:44Z</time>
      </trkpt>
      <trkpt lat="50.04191" lon="4.21547">
        <ele>248.4</ele>
        <time>2024-04-29T15:09:45Z</time>
      </trkpt>
      <trkpt lat="50.04187" lon="4.21547">
        <ele>248.8</ele>
        <time>2024-04-29T15:09:46Z</time>
      </trkpt>
      <trkpt lat="50.04183" lon="4.21547">
        <ele>249</ele>
        <time>2024-04-29T15:09:47Z</time>
      </trkpt>
      <trkpt lat="50.04179" lon="4.21547">
        <ele>249.6</ele>
        <time>2024-04-29T15:09:48Z</time>
      </trkpt>
      <trkpt lat="50.04176" lon="4.21547">
        <ele>249.6</ele>
        <time>2024-04-29T15:09:49Z</time>
      </trkpt>
      <trkpt lat="50.04172" lon="4.21546">
        <ele>249.6</ele>
        <time>2024-04-29T15:09:50Z</time>
      </trkpt>
      <trkpt lat="50.04168" lon="4.21546">
        <ele>250</ele>
        <time>2024-04-29T15:09:51Z</time>
      </trkpt>
      <trkpt lat="50.04165" lon="4.21546">
        <ele>250.4</ele>
        <time>2024-04-29T15:09:52Z</time>
      </trkpt>
      <trkpt lat="50.04161" lon="4.21546">
        <ele>250.8</ele>
        <time>2024-04-29T15:09:53Z</time>
      </trkpt>
      <trkpt lat="50.04158" lon="4.21546">
        <ele>251</ele>
        <time>2024-04-29T15:09:54Z</time>
      </trkpt>
      <trkpt lat="50.04155" lon="4.21546">
        <ele>251.2</ele>
        <time>2024-04-29T15:09:55Z</time>
      </trkpt>
      <trkpt lat="50.04151" lon="4.21546">
        <ele>251.4</ele>
        <time>2024-04-29T15:09:56Z</time>
      </trkpt>
      <trkpt lat="50.04148" lon="4.21546">
        <ele>251.6</ele>
        <time>2024-04-29T15:09:57Z</time>
      </trkpt>
      <trkpt lat="50.04144" lon="4.21545">
        <ele>251.6</ele>
        <time>2024-04-29T15:09:58Z</time>
      </trkpt>
      <trkpt lat="50.04141" lon="4.21545">
        <ele>252.2</ele>
        <time>2024-04-29T15:09:59Z</time>
      </trkpt>
      <trkpt lat="50.04137" lon="4.21545">
        <ele>252.6</ele>
        <time>2024-04-29T15:10:00Z</time>
      </trkpt>
      <trkpt lat="50.04134" lon="4.21545">
        <ele>253</ele>
        <time>2024-04-29T15:10:01Z</time>
      </trkpt>
      <trkpt lat="50.04131" lon="4.21545">
        <ele>253.4</ele>
        <time>2024-04-29T15:10:02Z</time>
      </trkpt>
      <trkpt lat="50.04127" lon="4.21545">
        <ele>253.6</ele>
        <time>2024-04-29T15:10:03Z</time>
      </trkpt>
      <trkpt lat="50.04124" lon="4.21545">
        <ele>253.8</ele>
        <time>2024-04-29T15:10:04Z</time>
      </trkpt>
      <trkpt lat="50.0412" lon="4.21545">
        <ele>254</ele>
        <time>2024-04-29T15:10:05Z</time>
      </trkpt>
      <trkpt lat="50.04116" lon="4.21545">
        <ele>254.4</ele>
        <time>2024-04-29T15:10:06Z</time>
      </trkpt>
      <trkpt lat="50.04113" lon="4.21545">
        <ele>254.6</ele>
        <time>2024-04-29T15:10:07Z</time>
      </trkpt>
      <trkpt lat="50.04109" lon="4.21545">
        <ele>255</ele>
        <time>2024-04-29T15:10:08Z</time>
      </trkpt>
      <trkpt lat="50.04106" lon="4.21545">
        <ele>255.2</ele>
        <time>2024-04-29T15:10:09Z</time>
      </trkpt>
      <trkpt lat="50.04102" lon="4.21545">
        <ele>255.2</ele>
        <time>2024-04-29T15:10:10Z</time>
      </trkpt>
      <trkpt lat="50.04098" lon="4.21546">
        <ele>255.2</ele>
        <time>2024-04-29T15:10:11Z</time>
      </trkpt>
      <trkpt lat="50.04095" lon="4.21547">
        <ele>255.4</ele>
        <time>2024-04-29T15:10:12Z</time>
      </trkpt>
      <trkpt lat="50.04091" lon="4.21548">
        <ele>255.8</ele>
        <time>2024-04-29T15:10:13Z</time>
      </trkpt>
      <trkpt lat="50.04088" lon="4.2155">
        <ele>256.2</ele>
        <time>2024-04-29T15:10:14Z</time>
      </trkpt>
      <trkpt lat="50.04084" lon="4.21552">
        <ele>256.8</ele>
        <time>2024-04-29T15:10:15Z</time>
      </trkpt>
      <trkpt lat="50.0408" lon="4.21555">
        <ele>257.4</ele>
        <time>2024-04-29T15:10:16Z</time>
      </trkpt>
      <trkpt lat="50.04076" lon="4.21559">
        <ele>257.8</ele>
        <time>2024-04-29T15:10:17Z</time>
      </trkpt>
      <trkpt lat="50.04072" lon="4.21562">
        <ele>258</ele>
        <time>2024-04-29T15:10:18Z</time>
      </trkpt>
      <trkpt lat="50.04068" lon="4.21566">
        <ele>258.4</ele>
        <time>2024-04-29T15:10:19Z</time>
      </trkpt>
      <trkpt lat="50.04065" lon="4.21571">
        <ele>258.6</ele>
        <time>2024-04-29T15:10:20Z</time>
      </trkpt>
      <trkpt lat="50.04061" lon="4.21575">
        <ele>258.8</ele>
        <time>2024-04-29T15:10:21Z</time>
      </trkpt>
      <trkpt lat="50.04057" lon="4.2158">
        <ele>258.6</ele>
        <time>2024-04-29T15:10:22Z</time>
      </trkpt>
      <trkpt lat="50.04054" lon="4.21586">
        <ele>258.8</ele>
        <time>2024-04-29T15:10:23Z</time>
      </trkpt>
      <trkpt lat="50.04051" lon="4.21591">
        <ele>258.8</ele>
        <time>2024-04-29T15:10:24Z</time>
      </trkpt>
      <trkpt lat="50.04047" lon="4.21597">
        <ele>259</ele>
        <time>2024-04-29T15:10:25Z</time>
      </trkpt>
      <trkpt lat="50.04044" lon="4.21603">
        <ele>259</ele>
        <time>2024-04-29T15:10:26Z</time>
      </trkpt>
      <trkpt lat="50.04041" lon="4.21609">
        <ele>259</ele>
        <time>2024-04-29T15:10:27Z</time>
      </trkpt>
      <trkpt lat="50.04038" lon="4.21615">
        <ele>259</ele>
        <time>2024-04-29T15:10:28Z</time>
      </trkpt>
      <trkpt lat="50.04034" lon="4.21621">
        <ele>259</ele>
        <time>2024-04-29T15:10:29Z</time>
      </trkpt>
      <trkpt lat="50.0403" lon="4.21627">
        <ele>259</ele>
        <time>2024-04-29T15:10:30Z</time>
      </trkpt>
      <trkpt lat="50.04026" lon="4.21633">
        <ele>259</ele>
        <time>2024-04-29T15:10:31Z</time>
      </trkpt>
      <trkpt lat="50.04021" lon="4.21637">
        <ele>259</ele>
        <time>2024-04-29T15:10:32Z</time>
      </trkpt>
      <trkpt lat="50.04016" lon="4.21641">
        <ele>259</ele>
        <time>2024-04-29T15:10:33Z</time>
      </trkpt>
      <trkpt lat="50.04011" lon="4.21642">
        <ele>259.2</ele>
        <time>2024-04-29T15:10:34Z</time>
      </trkpt>
      <trkpt lat="50.04006" lon="4.21643">
        <ele>259</ele>
        <time>2024-04-29T15:10:35Z</time>
      </trkpt>
      <trkpt lat="50.04" lon="4.21643">
        <ele>259.2</ele>
        <time>2024-04-29T15:10:36Z</time>
      </trkpt>
      <trkpt lat="50.03995" lon="4.21643">
        <ele>259.2</ele>
        <time>2024-04-29T15:10:37Z</time>
      </trkpt>
      <trkpt lat="50.03989" lon="4.21643">
        <ele>259.6</ele>
        <time>2024-04-29T15:10:38Z</time>
      </trkpt>
      <trkpt lat="50.03984" lon="4.21643">
        <ele>259.8</ele>
        <time>2024-04-29T15:10:39Z</time>
      </trkpt>
      <trkpt lat="50.03978" lon="4.21643">
        <ele>260</ele>
        <time>2024-04-29T15:10:40Z</time>
      </trkpt>
      <trkpt lat="50.03973" lon="4.21644">
        <ele>260.2</ele>
        <time>2024-04-29T15:10:41Z</time>
      </trkpt>
      <trkpt lat="50.03967" lon="4.21645">
        <ele>260.4</ele>
        <time>2024-04-29T15:10:42Z</time>
      </trkpt>
      <trkpt lat="50.03962" lon="4.21647">
        <ele>260.4</ele>
        <time>2024-04-29T15:10:43Z</time>
      </trkpt>
      <trkpt lat="50.03957" lon="4.2165">
        <ele>260.6</ele>
        <time>2024-04-29T15:10:44Z</time>
      </trkpt>
      <trkpt lat="50.03952" lon="4.21654">
        <ele>260.8</ele>
        <time>2024-04-29T15:10:45Z</time>
      </trkpt>
      <trkpt lat="50.03947" lon="4.21659">
        <ele>260.8</ele>
        <time>2024-04-29T15:10:46Z</time>
      </trkpt>
      <trkpt lat="50.03942" lon="4.21665">
        <ele>261</ele>
        <time>2024-04-29T15:10:47Z</time>
      </trkpt>
      <trkpt lat="50.03937" lon="4.21671">
        <ele>261.2</ele>
        <time>2024-04-29T15:10:48Z</time>
      </trkpt>
      <trkpt lat="50.03933" lon="4.21678">
        <ele>261.4</ele>
        <time>2024-04-29T15:10:49Z</time>
      </trkpt>
      <trkpt lat="50.03929" lon="4.21685">
        <ele>261.8</ele>
        <time>2024-04-29T15:10:50Z</time>
      </trkpt>
      <trkpt lat="50.03924" lon="4.21692">
        <ele>261.8</ele>
        <time>2024-04-29T15:10:51Z</time>
      </trkpt>
      <trkpt lat="50.0392" lon="4.21699">
        <ele>262</ele>
        <time>2024-04-29T15:10:52Z</time>
      </trkpt>
      <trkpt lat="50.03915" lon="4.21707">
        <ele>262.2</ele>
        <time>2024-04-29T15:10:53Z</time>
      </trkpt>
      <trkpt lat="50.03911" lon="4.21714">
        <ele>262.2</ele>
        <time>2024-04-29T15:10:54Z</time>
      </trkpt>
      <trkpt lat="50.03906" lon="4.21722">
        <ele>262.2</ele>
        <time>2024-04-29T15:10:55Z</time>
      </trkpt>
      <trkpt lat="50.03902" lon="4.2173">
        <ele>262.4</ele>
        <time>2024-04-29T15:10:56Z</time>
      </trkpt>
      <trkpt lat="50.03898" lon="4.21737">
        <ele>262.4</ele>
        <time>2024-04-29T15:10:57Z</time>
      </trkpt>
      <trkpt lat="50.03893" lon="4.21745">
        <ele>262.6</ele>
        <time>2024-04-29T15:10:58Z</time>
      </trkpt>
      <trkpt lat="50.03889" lon="4.21753">
        <ele>262.6</ele>
        <time>2024-04-29T15:10:59Z</time>
      </trkpt>
      <trkpt lat="50.03885" lon="4.21761">
        <ele>262.8</ele>
        <time>2024-04-29T15:11:00Z</time>
      </trkpt>
      <trkpt lat="50.03882" lon="4.2177">
        <ele>262.8</ele>
        <time>2024-04-29T15:11:01Z</time>
      </trkpt>
      <trkpt lat="50.03879" lon="4.21778">
        <ele>263</ele>
        <time>2024-04-29T15:11:02Z</time>
      </trkpt>
      <trkpt lat="50.03876" lon="4.21787">
        <ele>263</ele>
        <time>2024-04-29T15:11:03Z</time>
      </trkpt>
      <trkpt lat="50.03873" lon="4.21795">
        <ele>263.2</ele>
        <time>2024-04-29T15:11:04Z</time>
      </trkpt>
      <trkpt lat="50.03871" lon="4.21803">
        <ele>263.2</ele>
        <time>2024-04-29T15:11:05Z</time>
      </trkpt>
      <trkpt lat="50.0387" lon="4.21811">
        <ele>263.4</ele>
        <time>2024-04-29T15:11:06Z</time>
      </trkpt>
      <trkpt lat="50.03868" lon="4.21819">
        <ele>263.4</ele>
        <time>2024-04-29T15:11:07Z</time>
      </trkpt>
      <trkpt lat="50.03867" lon="4.21826">
        <ele>263.6</ele>
        <time>2024-04-29T15:11:08Z</time>
      </trkpt>
      <trkpt lat="50.03866" lon="4.21832">
        <ele>263.8</ele>
        <time>2024-04-29T15:11:09Z</time>
      </trkpt>
      <trkpt lat="50.03864" lon="4.21839">
        <ele>264</ele>
        <time>2024-04-29T15:11:10Z</time>
      </trkpt>
      <trkpt lat="50.03864" lon="4.21846">
        <ele>264.4</ele>
        <time>2024-04-29T15:11:11Z</time>
      </trkpt>
      <trkpt lat="50.03863" lon="4.21853">
        <ele>264.4</ele>
        <time>2024-04-29T15:11:12Z</time>
      </trkpt>
      <trkpt lat="50.03862" lon="4.2186">
        <ele>264.4</ele>
        <time>2024-04-29T15:11:13Z</time>
      </trkpt>
      <trkpt lat="50.0386" lon="4.21867">
        <ele>264.4</ele>
        <time>2024-04-29T15:11:14Z</time>
      </trkpt>
      <trkpt lat="50.03858" lon="4.21875">
        <ele>264.4</ele>
        <time>2024-04-29T15:11:15Z</time>
      </trkpt>
      <trkpt lat="50.03856" lon="4.21884">
        <ele>264.4</ele>
        <time>2024-04-29T15:11:16Z</time>
      </trkpt>
      <trkpt lat="50.03855" lon="4.21892">
        <ele>264.6</ele>
        <time>2024-04-29T15:11:17Z</time>
      </trkpt>
      <trkpt lat="50.03853" lon="4.21901">
        <ele>264.6</ele>
        <time>2024-04-29T15:11:18Z</time>
      </trkpt>
      <trkpt lat="50.03852" lon="4.21909">
        <ele>264.6</ele>
        <time>2024-04-29T15:11:19Z</time>
      </trkpt>
      <trkpt lat="50.03851" lon="4.21918">
        <ele>264.6</ele>
        <time>2024-04-29T15:11:20Z</time>
      </trkpt>
      <trkpt lat="50.03849" lon="4.21926">
        <ele>264.6</ele>
        <time>2024-04-29T15:11:21Z</time>
      </trkpt>
      <trkpt lat="50.03847" lon="4.21935">
        <ele>264.6</ele>
        <time>2024-04-29T15:11:22Z</time>
      </trkpt>
      <trkpt lat="50.03846" lon="4.21944">
        <ele>264.6</ele>
        <time>2024-04-29T15:11:23Z</time>
      </trkpt>
      <trkpt lat="50.03845" lon="4.21953">
        <ele>264.6</ele>
        <time>2024-04-29T15:11:24Z</time>
      </trkpt>
      <trkpt lat="50.03843" lon="4.21962">
        <ele>264.6</ele>
        <time>2024-04-29T15:11:25Z</time>
      </trkpt>
      <trkpt lat="50.03842" lon="4.21972">
        <ele>264.4</ele>
        <time>2024-04-29T15:11:26Z</time>
      </trkpt>
      <trkpt lat="50.0384" lon="4.21982">
        <ele>264.4</ele>
        <time>2024-04-29T15:11:27Z</time>
      </trkpt>
      <trkpt lat="50.03838" lon="4.21992">
        <ele>264</ele>
        <time>2024-04-29T15:11:28Z</time>
      </trkpt>
      <trkpt lat="50.03836" lon="4.22002">
        <ele>263.8</ele>
        <time>2024-04-29T15:11:29Z</time>
      </trkpt>
      <trkpt lat="50.03834" lon="4.22012">
        <ele>263.4</ele>
        <time>2024-04-29T15:11:30Z</time>
      </trkpt>
      <trkpt lat="50.03832" lon="4.22023">
        <ele>263.4</ele>
        <time>2024-04-29T15:11:31Z</time>
      </trkpt>
      <trkpt lat="50.0383" lon="4.22034">
        <ele>263.2</ele>
        <time>2024-04-29T15:11:32Z</time>
      </trkpt>
      <trkpt lat="50.03828" lon="4.22045">
        <ele>263.2</ele>
        <time>2024-04-29T15:11:33Z</time>
      </trkpt>
      <trkpt lat="50.03826" lon="4.22057">
        <ele>263</ele>
        <time>2024-04-29T15:11:34Z</time>
      </trkpt>
      <trkpt lat="50.03824" lon="4.22069">
        <ele>262.8</ele>
        <time>2024-04-29T15:11:35Z</time>
      </trkpt>
      <trkpt lat="50.03822" lon="4.22081">
        <ele>262.4</ele>
        <time>2024-04-29T15:11:36Z</time>
      </trkpt>
      <trkpt lat="50.0382" lon="4.22093">
        <ele>262.2</ele>
        <time>2024-04-29T15:11:37Z</time>
      </trkpt>
      <trkpt lat="50.03817" lon="4.22105">
        <ele>262.2</ele>
        <time>2024-04-29T15:11:38Z</time>
      </trkpt>
      <trkpt lat="50.03814" lon="4.22117">
        <ele>262</ele>
        <time>2024-04-29T15:11:39Z</time>
      </trkpt>
      <trkpt lat="50.0381" lon="4.22129">
        <ele>261.2</ele>
        <time>2024-04-29T15:11:40Z</time>
      </trkpt>
      <trkpt lat="50.03806" lon="4.22141">
        <ele>260.6</ele>
        <time>2024-04-29T15:11:41Z</time>
      </trkpt>
      <trkpt lat="50.03802" lon="4.22153">
        <ele>260.4</ele>
        <time>2024-04-29T15:11:42Z</time>
      </trkpt>
      <trkpt lat="50.03799" lon="4.22166">
        <ele>260</ele>
        <time>2024-04-29T15:11:43Z</time>
      </trkpt>
      <trkpt lat="50.03796" lon="4.22179">
        <ele>260</ele>
        <time>2024-04-29T15:11:44Z</time>
      </trkpt>
      <trkpt lat="50.03793" lon="4.22192">
        <ele>259.6</ele>
        <time>2024-04-29T15:11:45Z</time>
      </trkpt>
      <trkpt lat="50.0379" lon="4.22207">
        <ele>259.4</ele>
        <time>2024-04-29T15:11:46Z</time>
      </trkpt>
      <trkpt lat="50.03788" lon="4.22222">
        <ele>259.2</ele>
        <time>2024-04-29T15:11:47Z</time>
      </trkpt>
      <trkpt lat="50.03786" lon="4.22237">
        <ele>258.6</ele>
        <time>2024-04-29T15:11:48Z</time>
      </trkpt>
      <trkpt lat="50.03784" lon="4.22253">
        <ele>257.4</ele>
        <time>2024-04-29T15:11:49Z</time>
      </trkpt>
      <trkpt lat="50.03781" lon="4.22268">
        <ele>256.8</ele>
        <time>2024-04-29T15:11:50Z</time>
      </trkpt>
      <trkpt lat="50.03774" lon="4.22281">
        <ele>256.6</ele>
        <time>2024-04-29T15:11:51Z</time>
      </trkpt>
      <trkpt lat="50.03767" lon="4.22293">
        <ele>256.2</ele>
        <time>2024-04-29T15:11:52Z</time>
      </trkpt>
      <trkpt lat="50.03759" lon="4.22302">
        <ele>256.2</ele>
        <time>2024-04-29T15:11:53Z</time>
      </trkpt>
      <trkpt lat="50.03749" lon="4.22309">
        <ele>255.2</ele>
        <time>2024-04-29T15:11:54Z</time>
      </trkpt>
      <trkpt lat="50.0374" lon="4.22315">
        <ele>254</ele>
        <time>2024-04-29T15:11:55Z</time>
      </trkpt>
      <trkpt lat="50.03731" lon="4.2232">
        <ele>252.6</ele>
        <time>2024-04-29T15:11:56Z</time>
      </trkpt>
      <trkpt lat="50.03722" lon="4.22325">
        <ele>251.2</ele>
        <time>2024-04-29T15:11:57Z</time>
      </trkpt>
      <trkpt lat="50.03713" lon="4.22331">
        <ele>250.2</ele>
        <time>2024-04-29T15:11:58Z</time>
      </trkpt>
      <trkpt lat="50.03706" lon="4.22337">
        <ele>249.6</ele>
        <time>2024-04-29T15:11:59Z</time>
      </trkpt>
      <trkpt lat="50.03699" lon="4.22343">
        <ele>249.6</ele>
        <time>2024-04-29T15:12:00Z</time>
      </trkpt>
      <trkpt lat="50.03692" lon="4.22349">
        <ele>249.4</ele>
        <time>2024-04-29T15:12:01Z</time>
      </trkpt>
      <trkpt lat="50.03686" lon="4.22355">
        <ele>249.2</ele>
        <time>2024-04-29T15:12:02Z</time>
      </trkpt>
      <trkpt lat="50.0368" lon="4.22361">
        <ele>249.2</ele>
        <time>2024-04-29T15:12:03Z</time>
      </trkpt>
      <trkpt lat="50.03675" lon="4.22368">
        <ele>249.2</ele>
        <time>2024-04-29T15:12:04Z</time>
      </trkpt>
      <trkpt lat="50.03669" lon="4.22374">
        <ele>249.2</ele>
        <time>2024-04-29T15:12:05Z</time>
      </trkpt>
      <trkpt lat="50.03664" lon="4.22381">
        <ele>249</ele>
        <time>2024-04-29T15:12:06Z</time>
      </trkpt>
      <trkpt lat="50.03659" lon="4.22388">
        <ele>249</ele>
        <time>2024-04-29T15:12:07Z</time>
      </trkpt>
      <trkpt lat="50.03654" lon="4.22395">
        <ele>249</ele>
        <time>2024-04-29T15:12:08Z</time>
      </trkpt>
      <trkpt lat="50.03649" lon="4.22402">
        <ele>249.2</ele>
        <time>2024-04-29T15:12:09Z</time>
      </trkpt>
      <trkpt lat="50.03644" lon="4.22409">
        <ele>249.4</ele>
        <time>2024-04-29T15:12:10Z</time>
      </trkpt>
      <trkpt lat="50.03638" lon="4.22414">
        <ele>249.4</ele>
        <time>2024-04-29T15:12:11Z</time>
      </trkpt>
      <trkpt lat="50.03632" lon="4.22418">
        <ele>249.6</ele>
        <time>2024-04-29T15:12:12Z</time>
      </trkpt>
      <trkpt lat="50.03626" lon="4.2242">
        <ele>249.8</ele>
        <time>2024-04-29T15:12:13Z</time>
      </trkpt>
      <trkpt lat="50.03619" lon="4.22418">
        <ele>249.8</ele>
        <time>2024-04-29T15:12:14Z</time>
      </trkpt>
      <trkpt lat="50.03613" lon="4.22415">
        <ele>250</ele>
        <time>2024-04-29T15:12:15Z</time>
      </trkpt>
      <trkpt lat="50.03607" lon="4.2241">
        <ele>250.2</ele>
        <time>2024-04-29T15:12:16Z</time>
      </trkpt>
      <trkpt lat="50.036" lon="4.22405">
        <ele>250.2</ele>
        <time>2024-04-29T15:12:17Z</time>
      </trkpt>
      <trkpt lat="50.03594" lon="4.224">
        <ele>250.4</ele>
        <time>2024-04-29T15:12:18Z</time>
      </trkpt>
      <trkpt lat="50.03589" lon="4.22394">
        <ele>250.8</ele>
        <time>2024-04-29T15:12:19Z</time>
      </trkpt>
      <trkpt lat="50.03583" lon="4.22388">
        <ele>250.8</ele>
        <time>2024-04-29T15:12:20Z</time>
      </trkpt>
      <trkpt lat="50.03578" lon="4.22382">
        <ele>251.2</ele>
        <time>2024-04-29T15:12:21Z</time>
      </trkpt>
      <trkpt lat="50.03571" lon="4.22379">
        <ele>251.2</ele>
        <time>2024-04-29T15:12:22Z</time>
      </trkpt>
      <trkpt lat="50.03565" lon="4.22378">
        <ele>251.4</ele>
        <time>2024-04-29T15:12:23Z</time>
      </trkpt>
      <trkpt lat="50.03558" lon="4.2238">
        <ele>251.4</ele>
        <time>2024-04-29T15:12:24Z</time>
      </trkpt>
      <trkpt lat="50.03553" lon="4.22384">
        <ele>251.6</ele>
        <time>2024-04-29T15:12:25Z</time>
      </trkpt>
      <trkpt lat="50.03548" lon="4.22389">
        <ele>251.6</ele>
        <time>2024-04-29T15:12:26Z</time>
      </trkpt>
      <trkpt lat="50.03543" lon="4.22394">
        <ele>251.6</ele>
        <time>2024-04-29T15:12:27Z</time>
      </trkpt>
      <trkpt lat="50.03539" lon="4.224">
        <ele>251.8</ele>
        <time>2024-04-29T15:12:28Z</time>
      </trkpt>
      <trkpt lat="50.03534" lon="4.22406">
        <ele>251.8</ele>
        <time>2024-04-29T15:12:29Z</time>
      </trkpt>
      <trkpt lat="50.03531" lon="4.22412">
        <ele>252</ele>
        <time>2024-04-29T15:12:30Z</time>
      </trkpt>
      <trkpt lat="50.03527" lon="4.22419">
        <ele>252</ele>
        <time>2024-04-29T15:12:31Z</time>
      </trkpt>
      <trkpt lat="50.03524" lon="4.22426">
        <ele>252.6</ele>
        <time>2024-04-29T15:12:32Z</time>
      </trkpt>
      <trkpt lat="50.03521" lon="4.22433">
        <ele>253.2</ele>
        <time>2024-04-29T15:12:33Z</time>
      </trkpt>
      <trkpt lat="50.03517" lon="4.22439">
        <ele>253.4</ele>
        <time>2024-04-29T15:12:34Z</time>
      </trkpt>
      <trkpt lat="50.03513" lon="4.22444">
        <ele>253.6</ele>
        <time>2024-04-29T15:12:35Z</time>
      </trkpt>
      <trkpt lat="50.03509" lon="4.22449">
        <ele>253.8</ele>
        <time>2024-04-29T15:12:36Z</time>
      </trkpt>
      <trkpt lat="50.03505" lon="4.22454">
        <ele>253.8</ele>
        <time>2024-04-29T15:12:37Z</time>
      </trkpt>
      <trkpt lat="50.03501" lon="4.22457">
        <ele>254</ele>
        <time>2024-04-29T15:12:38Z</time>
      </trkpt>
      <trkpt lat="50.03497" lon="4.22461">
        <ele>254.4</ele>
        <time>2024-04-29T15:12:39Z</time>
      </trkpt>
      <trkpt lat="50.03492" lon="4.22464">
        <ele>255</ele>
        <time>2024-04-29T15:12:40Z</time>
      </trkpt>
      <trkpt lat="50.03488" lon="4.22467">
        <ele>255.6</ele>
        <time>2024-04-29T15:12:41Z</time>
      </trkpt>
      <trkpt lat="50.03484" lon="4.22469">
        <ele>256.2</ele>
        <time>2024-04-29T15:12:42Z</time>
      </trkpt>
      <trkpt lat="50.03479" lon="4.22471">
        <ele>256.6</ele>
        <time>2024-04-29T15:12:43Z</time>
      </trkpt>
      <trkpt lat="50.03475" lon="4.22472">
        <ele>256.6</ele>
        <time>2024-04-29T15:12:44Z</time>
      </trkpt>
      <trkpt lat="50.03471" lon="4.22473">
        <ele>257</ele>
        <time>2024-04-29T15:12:45Z</time>
      </trkpt>
      <trkpt lat="50.03466" lon="4.22474">
        <ele>257.2</ele>
        <time>2024-04-29T15:12:46Z</time>
      </trkpt>
      <trkpt lat="50.03462" lon="4.22475">
        <ele>257.6</ele>
        <time>2024-04-29T15:12:47Z</time>
      </trkpt>
      <trkpt lat="50.03458" lon="4.22475">
        <ele>258</ele>
        <time>2024-04-29T15:12:48Z</time>
      </trkpt>
      <trkpt lat="50.03454" lon="4.22476">
        <ele>258.4</ele>
        <time>2024-04-29T15:12:49Z</time>
      </trkpt>
      <trkpt lat="50.0345" lon="4.22476">
        <ele>258.6</ele>
        <time>2024-04-29T15:12:50Z</time>
      </trkpt>
      <trkpt lat="50.03445" lon="4.22477">
        <ele>259</ele>
        <time>2024-04-29T15:12:51Z</time>
      </trkpt>
      <trkpt lat="50.03441" lon="4.22477">
        <ele>259.4</ele>
        <time>2024-04-29T15:12:52Z</time>
      </trkpt>
      <trkpt lat="50.03437" lon="4.22477">
        <ele>260</ele>
        <time>2024-04-29T15:12:53Z</time>
      </trkpt>
      <trkpt lat="50.03433" lon="4.22477">
        <ele>260.2</ele>
        <time>2024-04-29T15:12:54Z</time>
      </trkpt>
      <trkpt lat="50.03428" lon="4.22477">
        <ele>260.4</ele>
        <time>2024-04-29T15:12:55Z</time>
      </trkpt>
      <trkpt lat="50.03423" lon="4.22477">
        <ele>260.6</ele>
        <time>2024-04-29T15:12:56Z</time>
      </trkpt>
      <trkpt lat="50.03419" lon="4.22476">
        <ele>260.6</ele>
        <time>2024-04-29T15:12:57Z</time>
      </trkpt>
      <trkpt lat="50.03414" lon="4.22476">
        <ele>260.6</ele>
        <time>2024-04-29T15:12:58Z</time>
      </trkpt>
      <trkpt lat="50.03409" lon="4.22476">
        <ele>260.8</ele>
        <time>2024-04-29T15:12:59Z</time>
      </trkpt>
      <trkpt lat="50.03404" lon="4.22476">
        <ele>261</ele>
        <time>2024-04-29T15:13:00Z</time>
      </trkpt>
      <trkpt lat="50.03399" lon="4.22476">
        <ele>261.4</ele>
        <time>2024-04-29T15:13:01Z</time>
      </trkpt>
      <trkpt lat="50.03394" lon="4.22476">
        <ele>262</ele>
        <time>2024-04-29T15:13:02Z</time>
      </trkpt>
      <trkpt lat="50.03389" lon="4.22476">
        <ele>262.4</ele>
        <time>2024-04-29T15:13:03Z</time>
      </trkpt>
      <trkpt lat="50.03384" lon="4.22476">
        <ele>262.8</ele>
        <time>2024-04-29T15:13:04Z</time>
      </trkpt>
      <trkpt lat="50.03379" lon="4.22476">
        <ele>263</ele>
        <time>2024-04-29T15:13:05Z</time>
      </trkpt>
      <trkpt lat="50.03374" lon="4.22476">
        <ele>263.2</ele>
        <time>2024-04-29T15:13:06Z</time>
      </trkpt>
      <trkpt lat="50.03369" lon="4.22476">
        <ele>263.2</ele>
        <time>2024-04-29T15:13:07Z</time>
      </trkpt>
      <trkpt lat="50.03364" lon="4.22476">
        <ele>263.4</ele>
        <time>2024-04-29T15:13:08Z</time>
      </trkpt>
      <trkpt lat="50.03359" lon="4.22476">
        <ele>263.4</ele>
        <time>2024-04-29T15:13:09Z</time>
      </trkpt>
      <trkpt lat="50.03354" lon="4.22477">
        <ele>263.8</ele>
        <time>2024-04-29T15:13:10Z</time>
      </trkpt>
      <trkpt lat="50.03349" lon="4.22477">
        <ele>263.8</ele>
        <time>2024-04-29T15:13:11Z</time>
      </trkpt>
      <trkpt lat="50.03344" lon="4.22477">
        <ele>264</ele>
        <time>2024-04-29T15:13:12Z</time>
      </trkpt>
      <trkpt lat="50.03339" lon="4.22477">
        <ele>264.2</ele>
        <time>2024-04-29T15:13:13Z</time>
      </trkpt>
      <trkpt lat="50.03334" lon="4.22478">
        <ele>264.6</ele>
        <time>2024-04-29T15:13:14Z</time>
      </trkpt>
      <trkpt lat="50.03329" lon="4.2248">
        <ele>265</ele>
        <time>2024-04-29T15:13:15Z</time>
      </trkpt>
      <trkpt lat="50.03325" lon="4.22482">
        <ele>265.4</ele>
        <time>2024-04-29T15:13:16Z</time>
      </trkpt>
      <trkpt lat="50.0332" lon="4.22484">
        <ele>265.6</ele>
        <time>2024-04-29T15:13:17Z</time>
      </trkpt>
      <trkpt lat="50.03316" lon="4.22486">
        <ele>266</ele>
        <time>2024-04-29T15:13:18Z</time>
      </trkpt>
      <trkpt lat="50.03312" lon="4.22489">
        <ele>266.2</ele>
        <time>2024-04-29T15:13:19Z</time>
      </trkpt>
      <trkpt lat="50.03307" lon="4.22493">
        <ele>266.4</ele>
        <time>2024-04-29T15:13:20Z</time>
      </trkpt>
      <trkpt lat="50.03304" lon="4.22497">
        <ele>266.6</ele>
        <time>2024-04-29T15:13:21Z</time>
      </trkpt>
      <trkpt lat="50.033" lon="4.22501">
        <ele>266.6</ele>
        <time>2024-04-29T15:13:22Z</time>
      </trkpt>
      <trkpt lat="50.03296" lon="4.22505">
        <ele>266.8</ele>
        <time>2024-04-29T15:13:23Z</time>
      </trkpt>
      <trkpt lat="50.03292" lon="4.22509">
        <ele>266.8</ele>
        <time>2024-04-29T15:13:24Z</time>
      </trkpt>
      <trkpt lat="50.03289" lon="4.22514">
        <ele>267.2</ele>
        <time>2024-04-29T15:13:25Z</time>
      </trkpt>
      <trkpt lat="50.03285" lon="4.22518">
        <ele>267.8</ele>
        <time>2024-04-29T15:13:26Z</time>
      </trkpt>
      <trkpt lat="50.03281" lon="4.22522">
        <ele>267.8</ele>
        <time>2024-04-29T15:13:27Z</time>
      </trkpt>
      <trkpt lat="50.03277" lon="4.22526">
        <ele>268.4</ele>
        <time>2024-04-29T15:13:28Z</time>
      </trkpt>
      <trkpt lat="50.03274" lon="4.2253">
        <ele>268.4</ele>
        <time>2024-04-29T15:13:29Z</time>
      </trkpt>
      <trkpt lat="50.0327" lon="4.22535">
        <ele>268.8</ele>
        <time>2024-04-29T15:13:30Z</time>
      </trkpt>
      <trkpt lat="50.03266" lon="4.22539">
        <ele>269.2</ele>
        <time>2024-04-29T15:13:31Z</time>
      </trkpt>
      <trkpt lat="50.03262" lon="4.22544">
        <ele>269.4</ele>
        <time>2024-04-29T15:13:32Z</time>
      </trkpt>
      <trkpt lat="50.03258" lon="4.22548">
        <ele>270</ele>
        <time>2024-04-29T15:13:33Z</time>
      </trkpt>
      <trkpt lat="50.03255" lon="4.22553">
        <ele>270.2</ele>
        <time>2024-04-29T15:13:34Z</time>
      </trkpt>
      <trkpt lat="50.03251" lon="4.22557">
        <ele>270.2</ele>
        <time>2024-04-29T15:13:35Z</time>
      </trkpt>
      <trkpt lat="50.03247" lon="4.22562">
        <ele>270.4</ele>
        <time>2024-04-29T15:13:36Z</time>
      </trkpt>
      <trkpt lat="50.03243" lon="4.22567">
        <ele>270.8</ele>
        <time>2024-04-29T15:13:37Z</time>
      </trkpt>
      <trkpt lat="50.03239" lon="4.22571">
        <ele>271</ele>
        <time>2024-04-29T15:13:38Z</time>
      </trkpt>
      <trkpt lat="50.03235" lon="4.22576">
        <ele>271.4</ele>
        <time>2024-04-29T15:13:39Z</time>
      </trkpt>
      <trkpt lat="50.03231" lon="4.2258">
        <ele>271.6</ele>
        <time>2024-04-29T15:13:40Z</time>
      </trkpt>
      <trkpt lat="50.03227" lon="4.22585">
        <ele>272</ele>
        <time>2024-04-29T15:13:41Z</time>
      </trkpt>
      <trkpt lat="50.03223" lon="4.2259">
        <ele>272</ele>
        <time>2024-04-29T15:13:42Z</time>
      </trkpt>
      <trkpt lat="50.03219" lon="4.22595">
        <ele>272.2</ele>
        <time>2024-04-29T15:13:43Z</time>
      </trkpt>
      <trkpt lat="50.03214" lon="4.226">
        <ele>272.6</ele>
        <time>2024-04-29T15:13:44Z</time>
      </trkpt>
      <trkpt lat="50.0321" lon="4.22605">
        <ele>272.6</ele>
        <time>2024-04-29T15:13:45Z</time>
      </trkpt>
      <trkpt lat="50.03206" lon="4.22611">
        <ele>272.6</ele>
        <time>2024-04-29T15:13:46Z</time>
      </trkpt>
      <trkpt lat="50.03201" lon="4.22616">
        <ele>272.8</ele>
        <time>2024-04-29T15:13:47Z</time>
      </trkpt>
      <trkpt lat="50.03197" lon="4.22621">
        <ele>272.8</ele>
        <time>2024-04-29T15:13:48Z</time>
      </trkpt>
      <trkpt lat="50.03192" lon="4.22626">
        <ele>272.8</ele>
        <time>2024-04-29T15:13:49Z</time>
      </trkpt>
      <trkpt lat="50.03188" lon="4.22631">
        <ele>273</ele>
        <time>2024-04-29T15:13:50Z</time>
      </trkpt>
      <trkpt lat="50.03183" lon="4.22637">
        <ele>273</ele>
        <time>2024-04-29T15:13:51Z</time>
      </trkpt>
      <trkpt lat="50.03179" lon="4.22642">
        <ele>273</ele>
        <time>2024-04-29T15:13:52Z</time>
      </trkpt>
      <trkpt lat="50.03174" lon="4.22647">
        <ele>273</ele>
        <time>2024-04-29T15:13:53Z</time>
      </trkpt>
      <trkpt lat="50.03169" lon="4.22652">
        <ele>273.2</ele>
        <time>2024-04-29T15:13:54Z</time>
      </trkpt>
      <trkpt lat="50.03165" lon="4.22658">
        <ele>274</ele>
        <time>2024-04-29T15:13:55Z</time>
      </trkpt>
      <trkpt lat="50.0316" lon="4.22663">
        <ele>274.4</ele>
        <time>2024-04-29T15:13:56Z</time>
      </trkpt>
      <trkpt lat="50.03155" lon="4.22667">
        <ele>274.6</ele>
        <time>2024-04-29T15:13:57Z</time>
      </trkpt>
      <trkpt lat="50.03149" lon="4.22671">
        <ele>274.6</ele>
        <time>2024-04-29T15:13:58Z</time>
      </trkpt>
      <trkpt lat="50.03144" lon="4.22674">
        <ele>274.8</ele>
        <time>2024-04-29T15:13:59Z</time>
      </trkpt>
      <trkpt lat="50.03138" lon="4.22677">
        <ele>275</ele>
        <time>2024-04-29T15:14:00Z</time>
      </trkpt>
      <trkpt lat="50.03132" lon="4.2268">
        <ele>275</ele>
        <time>2024-04-29T15:14:01Z</time>
      </trkpt>
      <trkpt lat="50.03126" lon="4.22683">
        <ele>275.4</ele>
        <time>2024-04-29T15:14:02Z</time>
      </trkpt>
      <trkpt lat="50.0312" lon="4.22685">
        <ele>275.4</ele>
        <time>2024-04-29T15:14:03Z</time>
      </trkpt>
      <trkpt lat="50.03115" lon="4.22687">
        <ele>275.6</ele>
        <time>2024-04-29T15:14:04Z</time>
      </trkpt>
      <trkpt lat="50.03109" lon="4.2269">
        <ele>275.8</ele>
        <time>2024-04-29T15:14:05Z</time>
      </trkpt>
      <trkpt lat="50.03104" lon="4.22693">
        <ele>276.2</ele>
        <time>2024-04-29T15:14:06Z</time>
      </trkpt>
      <trkpt lat="50.03098" lon="4.22696">
        <ele>276.2</ele>
        <time>2024-04-29T15:14:07Z</time>
      </trkpt>
      <trkpt lat="50.03093" lon="4.22699">
        <ele>276.6</ele>
        <time>2024-04-29T15:14:08Z</time>
      </trkpt>
      <trkpt lat="50.03088" lon="4.22702">
        <ele>276.6</ele>
        <time>2024-04-29T15:14:09Z</time>
      </trkpt>
      <trkpt lat="50.03082" lon="4.22705">
        <ele>276.6</ele>
        <time>2024-04-29T15:14:10Z</time>
      </trkpt>
      <trkpt lat="50.03076" lon="4.22708">
        <ele>276.6</ele>
        <time>2024-04-29T15:14:11Z</time>
      </trkpt>
      <trkpt lat="50.0307" lon="4.22711">
        <ele>276.6</ele>
        <time>2024-04-29T15:14:12Z</time>
      </trkpt>
      <trkpt lat="50.03064" lon="4.22714">
        <ele>276.6</ele>
        <time>2024-04-29T15:14:13Z</time>
      </trkpt>
      <trkpt lat="50.03058" lon="4.22717">
        <ele>277</ele>
        <time>2024-04-29T15:14:14Z</time>
      </trkpt>
      <trkpt lat="50.03052" lon="4.2272">
        <ele>277</ele>
        <time>2024-04-29T15:14:15Z</time>
      </trkpt>
      <trkpt lat="50.03045" lon="4.22723">
        <ele>277</ele>
        <time>2024-04-29T15:14:16Z</time>
      </trkpt>
      <trkpt lat="50.03038" lon="4.22725">
        <ele>277.2</ele>
        <time>2024-04-29T15:14:17Z</time>
      </trkpt>
      <trkpt lat="50.03031" lon="4.22728">
        <ele>277.4</ele>
        <time>2024-04-29T15:14:18Z</time>
      </trkpt>
      <trkpt lat="50.03024" lon="4.2273">
        <ele>277.2</ele>
        <time>2024-04-29T15:14:19Z</time>
      </trkpt>
      <trkpt lat="50.03017" lon="4.22733">
        <ele>277.2</ele>
        <time>2024-04-29T15:14:20Z</time>
      </trkpt>
      <trkpt lat="50.0301" lon="4.22736">
        <ele>277.2</ele>
        <time>2024-04-29T15:14:21Z</time>
      </trkpt>
      <trkpt lat="50.03004" lon="4.22739">
        <ele>277.2</ele>
        <time>2024-04-29T15:14:22Z</time>
      </trkpt>
      <trkpt lat="50.02997" lon="4.22741">
        <ele>277.4</ele>
        <time>2024-04-29T15:14:23Z</time>
      </trkpt>
      <trkpt lat="50.02991" lon="4.22744">
        <ele>277.4</ele>
        <time>2024-04-29T15:14:24Z</time>
      </trkpt>
      <trkpt lat="50.02985" lon="4.22747">
        <ele>277.4</ele>
        <time>2024-04-29T15:14:25Z</time>
      </trkpt>
      <trkpt lat="50.02978" lon="4.2275">
        <ele>277.4</ele>
        <time>2024-04-29T15:14:26Z</time>
      </trkpt>
      <trkpt lat="50.02972" lon="4.22752">
        <ele>277.4</ele>
        <time>2024-04-29T15:14:27Z</time>
      </trkpt>
      <trkpt lat="50.02966" lon="4.22755">
        <ele>276.6</ele>
        <time>2024-04-29T15:14:28Z</time>
      </trkpt>
      <trkpt lat="50.02959" lon="4.22758">
        <ele>276.4</ele>
        <time>2024-04-29T15:14:29Z</time>
      </trkpt>
      <trkpt lat="50.02952" lon="4.22761">
        <ele>276</ele>
        <time>2024-04-29T15:14:30Z</time>
      </trkpt>
      <trkpt lat="50.02946" lon="4.22763">
        <ele>275.8</ele>
        <time>2024-04-29T15:14:31Z</time>
      </trkpt>
      <trkpt lat="50.02938" lon="4.22766">
        <ele>275.8</ele>
        <time>2024-04-29T15:14:32Z</time>
      </trkpt>
      <trkpt lat="50.02931" lon="4.22768">
        <ele>275.8</ele>
        <time>2024-04-29T15:14:33Z</time>
      </trkpt>
      <trkpt lat="50.02924" lon="4.22771">
        <ele>275.8</ele>
        <time>2024-04-29T15:14:34Z</time>
      </trkpt>
      <trkpt lat="50.02916" lon="4.22774">
        <ele>275.6</ele>
        <time>2024-04-29T15:14:35Z</time>
      </trkpt>
      <trkpt lat="50.02908" lon="4.22777">
        <ele>275.6</ele>
        <time>2024-04-29T15:14:36Z</time>
      </trkpt>
      <trkpt lat="50.02901" lon="4.22779">
        <ele>275.6</ele>
        <time>2024-04-29T15:14:37Z</time>
      </trkpt>
      <trkpt lat="50.02893" lon="4.22782">
        <ele>275.4</ele>
        <time>2024-04-29T15:14:38Z</time>
      </trkpt>
      <trkpt lat="50.02885" lon="4.22784">
        <ele>275.2</ele>
        <time>2024-04-29T15:14:39Z</time>
      </trkpt>
      <trkpt lat="50.02878" lon="4.22787">
        <ele>275</ele>
        <time>2024-04-29T15:14:40Z</time>
      </trkpt>
      <trkpt lat="50.0287" lon="4.2279">
        <ele>274.8</ele>
        <time>2024-04-29T15:14:41Z</time>
      </trkpt>
      <trkpt lat="50.02862" lon="4.22792">
        <ele>274.8</ele>
        <time>2024-04-29T15:14:42Z</time>
      </trkpt>
      <trkpt lat="50.02854" lon="4.22794">
        <ele>274.6</ele>
        <time>2024-04-29T15:14:43Z</time>
      </trkpt>
      <trkpt lat="50.02846" lon="4.22797">
        <ele>274.4</ele>
        <time>2024-04-29T15:14:44Z</time>
      </trkpt>
      <trkpt lat="50.02839" lon="4.22799">
        <ele>274.2</ele>
        <time>2024-04-29T15:14:45Z</time>
      </trkpt>
      <trkpt lat="50.02832" lon="4.22802">
        <ele>274</ele>
        <time>2024-04-29T15:14:46Z</time>
      </trkpt>
      <trkpt lat="50.02825" lon="4.22804">
        <ele>273.8</ele>
        <time>2024-04-29T15:14:47Z</time>
      </trkpt>
      <trkpt lat="50.02818" lon="4.22807">
        <ele>273.4</ele>
        <time>2024-04-29T15:14:48Z</time>
      </trkpt>
      <trkpt lat="50.02811" lon="4.22808">
        <ele>273.2</ele>
        <time>2024-04-29T15:14:49Z</time>
      </trkpt>
      <trkpt lat="50.02803" lon="4.2281">
        <ele>273.2</ele>
        <time>2024-04-29T15:14:50Z</time>
      </trkpt>
      <trkpt lat="50.02796" lon="4.22813">
        <ele>273</ele>
        <time>2024-04-29T15:14:51Z</time>
      </trkpt>
      <trkpt lat="50.02789" lon="4.22815">
        <ele>273.2</ele>
        <time>2024-04-29T15:14:52Z</time>
      </trkpt>
      <trkpt lat="50.02782" lon="4.22817">
        <ele>273.2</ele>
        <time>2024-04-29T15:14:53Z</time>
      </trkpt>
      <trkpt lat="50.02775" lon="4.22818">
        <ele>273.2</ele>
        <time>2024-04-29T15:14:54Z</time>
      </trkpt>
      <trkpt lat="50.02769" lon="4.2282">
        <ele>273</ele>
        <time>2024-04-29T15:14:55Z</time>
      </trkpt>
      <trkpt lat="50.02762" lon="4.22822">
        <ele>273</ele>
        <time>2024-04-29T15:14:56Z</time>
      </trkpt>
      <trkpt lat="50.02756" lon="4.22824">
        <ele>273.2</ele>
        <time>2024-04-29T15:14:57Z</time>
      </trkpt>
      <trkpt lat="50.0275" lon="4.22826">
        <ele>273.2</ele>
        <time>2024-04-29T15:14:58Z</time>
      </trkpt>
      <trkpt lat="50.02744" lon="4.22828">
        <ele>273.2</ele>
        <time>2024-04-29T15:14:59Z</time>
      </trkpt>
      <trkpt lat="50.02738" lon="4.2283">
        <ele>273.2</ele>
        <time>2024-04-29T15:15:00Z</time>
      </trkpt>
      <trkpt lat="50.02732" lon="4.22832">
        <ele>273.4</ele>
        <time>2024-04-29T15:15:01Z</time>
      </trkpt>
      <trkpt lat="50.02726" lon="4.22835">
        <ele>273.8</ele>
        <time>2024-04-29T15:15:02Z</time>
      </trkpt>
      <trkpt lat="50.0272" lon="4.22838">
        <ele>273.8</ele>
        <time>2024-04-29T15:15:03Z</time>
      </trkpt>
      <trkpt lat="50.02714" lon="4.22841">
        <ele>274</ele>
        <time>2024-04-29T15:15:04Z</time>
      </trkpt>
      <trkpt lat="50.02708" lon="4.22843">
        <ele>274</ele>
        <time>2024-04-29T15:15:05Z</time>
      </trkpt>
      <trkpt lat="50.02702" lon="4.22845">
        <ele>274.6</ele>
        <time>2024-04-29T15:15:06Z</time>
      </trkpt>
      <trkpt lat="50.02697" lon="4.22847">
        <ele>274.6</ele>
        <time>2024-04-29T15:15:07Z</time>
      </trkpt>
      <trkpt lat="50.02691" lon="4.22849">
        <ele>275</ele>
        <time>2024-04-29T15:15:08Z</time>
      </trkpt>
      <trkpt lat="50.02685" lon="4.22852">
        <ele>275.2</ele>
        <time>2024-04-29T15:15:09Z</time>
      </trkpt>
      <trkpt lat="50.02679" lon="4.22854">
        <ele>275.6</ele>
        <time>2024-04-29T15:15:10Z</time>
      </trkpt>
      <trkpt lat="50.02673" lon="4.22856">
        <ele>275.8</ele>
        <time>2024-04-29T15:15:11Z</time>
      </trkpt>
      <trkpt lat="50.02667" lon="4.22859">
        <ele>276</ele>
        <time>2024-04-29T15:15:12Z</time>
      </trkpt>
      <trkpt lat="50.02661" lon="4.22862">
        <ele>276.4</ele>
        <time>2024-04-29T15:15:13Z</time>
      </trkpt>
      <trkpt lat="50.02655" lon="4.22864">
        <ele>276.4</ele>
        <time>2024-04-29T15:15:14Z</time>
      </trkpt>
      <trkpt lat="50.0265" lon="4.22866">
        <ele>277</ele>
        <time>2024-04-29T15:15:15Z</time>
      </trkpt>
      <trkpt lat="50.02644" lon="4.22869">
        <ele>277</ele>
        <time>2024-04-29T15:15:16Z</time>
      </trkpt>
      <trkpt lat="50.02638" lon="4.22872">
        <ele>277.2</ele>
        <time>2024-04-29T15:15:17Z</time>
      </trkpt>
      <trkpt lat="50.02632" lon="4.22874">
        <ele>277.2</ele>
        <time>2024-04-29T15:15:18Z</time>
      </trkpt>
      <trkpt lat="50.02626" lon="4.22876">
        <ele>277.6</ele>
        <time>2024-04-29T15:15:19Z</time>
      </trkpt>
      <trkpt lat="50.0262" lon="4.22878">
        <ele>277.8</ele>
        <time>2024-04-29T15:15:20Z</time>
      </trkpt>
      <trkpt lat="50.02614" lon="4.2288">
        <ele>277.8</ele>
        <time>2024-04-29T15:15:21Z</time>
      </trkpt>
      <trkpt lat="50.02609" lon="4.22882">
        <ele>278.2</ele>
        <time>2024-04-29T15:15:22Z</time>
      </trkpt>
      <trkpt lat="50.02602" lon="4.22883">
        <ele>278.2</ele>
        <time>2024-04-29T15:15:23Z</time>
      </trkpt>
      <trkpt lat="50.02596" lon="4.22885">
        <ele>278.4</ele>
        <time>2024-04-29T15:15:24Z</time>
      </trkpt>
      <trkpt lat="50.0259" lon="4.22888">
        <ele>278.6</ele>
        <time>2024-04-29T15:15:25Z</time>
      </trkpt>
      <trkpt lat="50.02584" lon="4.2289">
        <ele>278.8</ele>
        <time>2024-04-29T15:15:26Z</time>
      </trkpt>
      <trkpt lat="50.02577" lon="4.22892">
        <ele>279</ele>
        <time>2024-04-29T15:15:27Z</time>
      </trkpt>
      <trkpt lat="50.02571" lon="4.22894">
        <ele>279.2</ele>
        <time>2024-04-29T15:15:28Z</time>
      </trkpt>
      <trkpt lat="50.02565" lon="4.22897">
        <ele>279.2</ele>
        <time>2024-04-29T15:15:29Z</time>
      </trkpt>
      <trkpt lat="50.02559" lon="4.22899">
        <ele>279.4</ele>
        <time>2024-04-29T15:15:30Z</time>
      </trkpt>
      <trkpt lat="50.02552" lon="4.22901">
        <ele>279.6</ele>
        <time>2024-04-29T15:15:31Z</time>
      </trkpt>
      <trkpt lat="50.02545" lon="4.22903">
        <ele>279.6</ele>
        <time>2024-04-29T15:15:32Z</time>
      </trkpt>
      <trkpt lat="50.02539" lon="4.22905">
        <ele>280</ele>
        <time>2024-04-29T15:15:33Z</time>
      </trkpt>
      <trkpt lat="50.02532" lon="4.22908">
        <ele>280.4</ele>
        <time>2024-04-29T15:15:34Z</time>
      </trkpt>
      <trkpt lat="50.02526" lon="4.22911">
        <ele>280.8</ele>
        <time>2024-04-29T15:15:35Z</time>
      </trkpt>
      <trkpt lat="50.0252" lon="4.22914">
        <ele>280.8</ele>
        <time>2024-04-29T15:15:36Z</time>
      </trkpt>
      <trkpt lat="50.02514" lon="4.22917">
        <ele>281</ele>
        <time>2024-04-29T15:15:37Z</time>
      </trkpt>
      <trkpt lat="50.02508" lon="4.2292">
        <ele>281</ele>
        <time>2024-04-29T15:15:38Z</time>
      </trkpt>
      <trkpt lat="50.02502" lon="4.22922">
        <ele>281.4</ele>
        <time>2024-04-29T15:15:39Z</time>
      </trkpt>
      <trkpt lat="50.02496" lon="4.22925">
        <ele>281.4</ele>
        <time>2024-04-29T15:15:40Z</time>
      </trkpt>
      <trkpt lat="50.02489" lon="4.22928">
        <ele>281.2</ele>
        <time>2024-04-29T15:15:41Z</time>
      </trkpt>
      <trkpt lat="50.02483" lon="4.22931">
        <ele>281.4</ele>
        <time>2024-04-29T15:15:42Z</time>
      </trkpt>
      <trkpt lat="50.02477" lon="4.22934">
        <ele>281.6</ele>
        <time>2024-04-29T15:15:43Z</time>
      </trkpt>
      <trkpt lat="50.02471" lon="4.22937">
        <ele>281.8</ele>
        <time>2024-04-29T15:15:44Z</time>
      </trkpt>
      <trkpt lat="50.02465" lon="4.22939">
        <ele>282</ele>
        <time>2024-04-29T15:15:45Z</time>
      </trkpt>
      <trkpt lat="50.02459" lon="4.22942">
        <ele>282.4</ele>
        <time>2024-04-29T15:15:46Z</time>
      </trkpt>
      <trkpt lat="50.02453" lon="4.22945">
        <ele>282.4</ele>
        <time>2024-04-29T15:15:47Z</time>
      </trkpt>
      <trkpt lat="50.02447" lon="4.22949">
        <ele>282.6</ele>
        <time>2024-04-29T15:15:48Z</time>
      </trkpt>
      <trkpt lat="50.02441" lon="4.22952">
        <ele>282.8</ele>
        <time>2024-04-29T15:15:49Z</time>
      </trkpt>
      <trkpt lat="50.02435" lon="4.22955">
        <ele>282.8</ele>
        <time>2024-04-29T15:15:50Z</time>
      </trkpt>
      <trkpt lat="50.02429" lon="4.22957">
        <ele>282.8</ele>
        <time>2024-04-29T15:15:51Z</time>
      </trkpt>
      <trkpt lat="50.02422" lon="4.22959">
        <ele>282.8</ele>
        <time>2024-04-29T15:15:52Z</time>
      </trkpt>
      <trkpt lat="50.02416" lon="4.22962">
        <ele>283</ele>
        <time>2024-04-29T15:15:53Z</time>
      </trkpt>
      <trkpt lat="50.0241" lon="4.22964">
        <ele>282.8</ele>
        <time>2024-04-29T15:15:54Z</time>
      </trkpt>
      <trkpt lat="50.02404" lon="4.22966">
        <ele>282.8</ele>
        <time>2024-04-29T15:15:55Z</time>
      </trkpt>
      <trkpt lat="50.02398" lon="4.22969">
        <ele>283</ele>
        <time>2024-04-29T15:15:56Z</time>
      </trkpt>
      <trkpt lat="50.02392" lon="4.22972">
        <ele>283.2</ele>
        <time>2024-04-29T15:15:57Z</time>
      </trkpt>
      <trkpt lat="50.02386" lon="4.22975">
        <ele>283.2</ele>
        <time>2024-04-29T15:15:58Z</time>
      </trkpt>
      <trkpt lat="50.02379" lon="4.22978">
        <ele>283.4</ele>
        <time>2024-04-29T15:15:59Z</time>
      </trkpt>
      <trkpt lat="50.02373" lon="4.22981">
        <ele>283.6</ele>
        <time>2024-04-29T15:16:00Z</time>
      </trkpt>
      <trkpt lat="50.02367" lon="4.22983">
        <ele>284</ele>
        <time>2024-04-29T15:16:01Z</time>
      </trkpt>
      <trkpt lat="50.02361" lon="4.22986">
        <ele>284</ele>
        <time>2024-04-29T15:16:02Z</time>
      </trkpt>
      <trkpt lat="50.02355" lon="4.22988">
        <ele>284.4</ele>
        <time>2024-04-29T15:16:03Z</time>
      </trkpt>
      <trkpt lat="50.02349" lon="4.2299">
        <ele>284.6</ele>
        <time>2024-04-29T15:16:04Z</time>
      </trkpt>
      <trkpt lat="50.02342" lon="4.22992">
        <ele>284.6</ele>
        <time>2024-04-29T15:16:05Z</time>
      </trkpt>
      <trkpt lat="50.02336" lon="4.22995">
        <ele>284.8</ele>
        <time>2024-04-29T15:16:06Z</time>
      </trkpt>
      <trkpt lat="50.0233" lon="4.22998">
        <ele>284.8</ele>
        <time>2024-04-29T15:16:07Z</time>
      </trkpt>
      <trkpt lat="50.02323" lon="4.23">
        <ele>285</ele>
        <time>2024-04-29T15:16:08Z</time>
      </trkpt>
      <trkpt lat="50.02316" lon="4.23002">
        <ele>285</ele>
        <time>2024-04-29T15:16:09Z</time>
      </trkpt>
      <trkpt lat="50.0231" lon="4.23004">
        <ele>285</ele>
        <time>2024-04-29T15:16:10Z</time>
      </trkpt>
      <trkpt lat="50.02303" lon="4.23006">
        <ele>285.2</ele>
        <time>2024-04-29T15:16:11Z</time>
      </trkpt>
      <trkpt lat="50.02296" lon="4.23008">
        <ele>285.2</ele>
        <time>2024-04-29T15:16:12Z</time>
      </trkpt>
      <trkpt lat="50.02289" lon="4.2301">
        <ele>285.2</ele>
        <time>2024-04-29T15:16:13Z</time>
      </trkpt>
      <trkpt lat="50.02282" lon="4.23012">
        <ele>285</ele>
        <time>2024-04-29T15:16:14Z</time>
      </trkpt>
      <trkpt lat="50.02276" lon="4.23014">
        <ele>285.4</ele>
        <time>2024-04-29T15:16:15Z</time>
      </trkpt>
      <trkpt lat="50.02269" lon="4.23018">
        <ele>285.4</ele>
        <time>2024-04-29T15:16:16Z</time>
      </trkpt>
      <trkpt lat="50.02263" lon="4.23021">
        <ele>285.6</ele>
        <time>2024-04-29T15:16:17Z</time>
      </trkpt>
      <trkpt lat="50.02256" lon="4.23024">
        <ele>285.6</ele>
        <time>2024-04-29T15:16:18Z</time>
      </trkpt>
      <trkpt lat="50.0225" lon="4.23027">
        <ele>285.4</ele>
        <time>2024-04-29T15:16:19Z</time>
      </trkpt>
      <trkpt lat="50.02244" lon="4.23029">
        <ele>285.8</ele>
        <time>2024-04-29T15:16:20Z</time>
      </trkpt>
      <trkpt lat="50.02237" lon="4.23032">
        <ele>285.6</ele>
        <time>2024-04-29T15:16:21Z</time>
      </trkpt>
      <trkpt lat="50.02231" lon="4.23035">
        <ele>285.6</ele>
        <time>2024-04-29T15:16:22Z</time>
      </trkpt>
      <trkpt lat="50.02224" lon="4.23038">
        <ele>285.6</ele>
        <time>2024-04-29T15:16:23Z</time>
      </trkpt>
      <trkpt lat="50.02218" lon="4.23041">
        <ele>285.6</ele>
        <time>2024-04-29T15:16:24Z</time>
      </trkpt>
      <trkpt lat="50.02211" lon="4.23044">
        <ele>286</ele>
        <time>2024-04-29T15:16:25Z</time>
      </trkpt>
      <trkpt lat="50.02205" lon="4.23045">
        <ele>285.8</ele>
        <time>2024-04-29T15:16:26Z</time>
      </trkpt>
      <trkpt lat="50.02198" lon="4.23047">
        <ele>286</ele>
        <time>2024-04-29T15:16:27Z</time>
      </trkpt>
      <trkpt lat="50.02191" lon="4.2305">
        <ele>285.8</ele>
        <time>2024-04-29T15:16:28Z</time>
      </trkpt>
      <trkpt lat="50.02185" lon="4.23053">
        <ele>285.8</ele>
        <time>2024-04-29T15:16:29Z</time>
      </trkpt>
      <trkpt lat="50.02178" lon="4.23056">
        <ele>286</ele>
        <time>2024-04-29T15:16:30Z</time>
      </trkpt>
      <trkpt lat="50.02171" lon="4.23059">
        <ele>286</ele>
        <time>2024-04-29T15:16:31Z</time>
      </trkpt>
      <trkpt lat="50.02165" lon="4.23062">
        <ele>286</ele>
        <time>2024-04-29T15:16:32Z</time>
      </trkpt>
      <trkpt lat="50.02159" lon="4.23066">
        <ele>286</ele>
        <time>2024-04-29T15:16:33Z</time>
      </trkpt>
      <trkpt lat="50.02153" lon="4.2307">
        <ele>286.2</ele>
        <time>2024-04-29T15:16:34Z</time>
      </trkpt>
      <trkpt lat="50.02146" lon="4.23072">
        <ele>286.2</ele>
        <time>2024-04-29T15:16:35Z</time>
      </trkpt>
      <trkpt lat="50.02139" lon="4.23074">
        <ele>286.2</ele>
        <time>2024-04-29T15:16:36Z</time>
      </trkpt>
      <trkpt lat="50.02132" lon="4.23077">
        <ele>286.2</ele>
        <time>2024-04-29T15:16:37Z</time>
      </trkpt>
      <trkpt lat="50.02125" lon="4.2308">
        <ele>286.4</ele>
        <time>2024-04-29T15:16:38Z</time>
      </trkpt>
      <trkpt lat="50.02118" lon="4.23082">
        <ele>286.2</ele>
        <time>2024-04-29T15:16:39Z</time>
      </trkpt>
      <trkpt lat="50.02111" lon="4.23086">
        <ele>286.2</ele>
        <time>2024-04-29T15:16:40Z</time>
      </trkpt>
      <trkpt lat="50.02104" lon="4.23089">
        <ele>286.2</ele>
        <time>2024-04-29T15:16:41Z</time>
      </trkpt>
      <trkpt lat="50.02097" lon="4.23092">
        <ele>286.4</ele>
        <time>2024-04-29T15:16:42Z</time>
      </trkpt>
      <trkpt lat="50.0209" lon="4.23095">
        <ele>286.4</ele>
        <time>2024-04-29T15:16:43Z</time>
      </trkpt>
      <trkpt lat="50.02082" lon="4.23097">
        <ele>286.4</ele>
        <time>2024-04-29T15:16:44Z</time>
      </trkpt>
      <trkpt lat="50.02075" lon="4.23099">
        <ele>286.4</ele>
        <time>2024-04-29T15:16:45Z</time>
      </trkpt>
      <trkpt lat="50.02068" lon="4.23102">
        <ele>286.4</ele>
        <time>2024-04-29T15:16:46Z</time>
      </trkpt>
      <trkpt lat="50.02061" lon="4.23105">
        <ele>286.4</ele>
        <time>2024-04-29T15:16:47Z</time>
      </trkpt>
      <trkpt lat="50.02054" lon="4.23108">
        <ele>286.4</ele>
        <time>2024-04-29T15:16:48Z</time>
      </trkpt>
      <trkpt lat="50.02047" lon="4.2311">
        <ele>286.2</ele>
        <time>2024-04-29T15:16:49Z</time>
      </trkpt>
      <trkpt lat="50.02041" lon="4.23113">
        <ele>286.2</ele>
        <time>2024-04-29T15:16:50Z</time>
      </trkpt>
      <trkpt lat="50.02034" lon="4.23116">
        <ele>286.2</ele>
        <time>2024-04-29T15:16:51Z</time>
      </trkpt>
      <trkpt lat="50.02028" lon="4.2312">
        <ele>286.2</ele>
        <time>2024-04-29T15:16:52Z</time>
      </trkpt>
      <trkpt lat="50.02021" lon="4.23123">
        <ele>286.4</ele>
        <time>2024-04-29T15:16:53Z</time>
      </trkpt>
      <trkpt lat="50.02015" lon="4.23127">
        <ele>286.2</ele>
        <time>2024-04-29T15:16:54Z</time>
      </trkpt>
      <trkpt lat="50.02008" lon="4.2313">
        <ele>286.2</ele>
        <time>2024-04-29T15:16:55Z</time>
      </trkpt>
      <trkpt lat="50.02001" lon="4.23132">
        <ele>286.2</ele>
        <time>2024-04-29T15:16:56Z</time>
      </trkpt>
      <trkpt lat="50.01994" lon="4.23136">
        <ele>286.2</ele>
        <time>2024-04-29T15:16:57Z</time>
      </trkpt>
      <trkpt lat="50.01987" lon="4.23138">
        <ele>286.2</ele>
        <time>2024-04-29T15:16:58Z</time>
      </trkpt>
      <trkpt lat="50.01981" lon="4.23141">
        <ele>286</ele>
        <time>2024-04-29T15:16:59Z</time>
      </trkpt>
      <trkpt lat="50.01974" lon="4.23144">
        <ele>286</ele>
        <time>2024-04-29T15:17:00Z</time>
      </trkpt>
      <trkpt lat="50.01968" lon="4.23146">
        <ele>286</ele>
        <time>2024-04-29T15:17:01Z</time>
      </trkpt>
      <trkpt lat="50.0196" lon="4.23148">
        <ele>286</ele>
        <time>2024-04-29T15:17:02Z</time>
      </trkpt>
      <trkpt lat="50.01954" lon="4.2315">
        <ele>286</ele>
        <time>2024-04-29T15:17:03Z</time>
      </trkpt>
      <trkpt lat="50.01948" lon="4.23153">
        <ele>286</ele>
        <time>2024-04-29T15:17:04Z</time>
      </trkpt>
      <trkpt lat="50.01942" lon="4.23155">
        <ele>285.8</ele>
        <time>2024-04-29T15:17:05Z</time>
      </trkpt>
      <trkpt lat="50.01937" lon="4.23157">
        <ele>285.8</ele>
        <time>2024-04-29T15:17:06Z</time>
      </trkpt>
      <trkpt lat="50.01931" lon="4.2316">
        <ele>285.8</ele>
        <time>2024-04-29T15:17:07Z</time>
      </trkpt>
      <trkpt lat="50.01924" lon="4.23161">
        <ele>285.8</ele>
        <time>2024-04-29T15:17:08Z</time>
      </trkpt>
      <trkpt lat="50.01918" lon="4.23164">
        <ele>285.8</ele>
        <time>2024-04-29T15:17:09Z</time>
      </trkpt>
      <trkpt lat="50.01911" lon="4.23168">
        <ele>286</ele>
        <time>2024-04-29T15:17:10Z</time>
      </trkpt>
      <trkpt lat="50.01904" lon="4.23171">
        <ele>285.8</ele>
        <time>2024-04-29T15:17:11Z</time>
      </trkpt>
      <trkpt lat="50.01898" lon="4.23176">
        <ele>285.8</ele>
        <time>2024-04-29T15:17:12Z</time>
      </trkpt>
      <trkpt lat="50.01891" lon="4.23181">
        <ele>285.8</ele>
        <time>2024-04-29T15:17:13Z</time>
      </trkpt>
      <trkpt lat="50.01885" lon="4.23186">
        <ele>285.6</ele>
        <time>2024-04-29T15:17:14Z</time>
      </trkpt>
      <trkpt lat="50.01878" lon="4.23193">
        <ele>285.6</ele>
        <time>2024-04-29T15:17:15Z</time>
      </trkpt>
      <trkpt lat="50.01872" lon="4.23199">
        <ele>285.6</ele>
        <time>2024-04-29T15:17:16Z</time>
      </trkpt>
      <trkpt lat="50.01867" lon="4.23207">
        <ele>285.2</ele>
        <time>2024-04-29T15:17:17Z</time>
      </trkpt>
      <trkpt lat="50.01861" lon="4.23215">
        <ele>285.2</ele>
        <time>2024-04-29T15:17:18Z</time>
      </trkpt>
      <trkpt lat="50.01857" lon="4.23224">
        <ele>285</ele>
        <time>2024-04-29T15:17:19Z</time>
      </trkpt>
      <trkpt lat="50.01852" lon="4.23233">
        <ele>284.8</ele>
        <time>2024-04-29T15:17:20Z</time>
      </trkpt>
      <trkpt lat="50.01849" lon="4.23243">
        <ele>284.8</ele>
        <time>2024-04-29T15:17:21Z</time>
      </trkpt>
      <trkpt lat="50.01845" lon="4.23253">
        <ele>284.6</ele>
        <time>2024-04-29T15:17:22Z</time>
      </trkpt>
      <trkpt lat="50.01842" lon="4.23264">
        <ele>284.4</ele>
        <time>2024-04-29T15:17:23Z</time>
      </trkpt>
      <trkpt lat="50.01839" lon="4.23276">
        <ele>284.4</ele>
        <time>2024-04-29T15:17:24Z</time>
      </trkpt>
      <trkpt lat="50.01836" lon="4.23287">
        <ele>284.2</ele>
        <time>2024-04-29T15:17:25Z</time>
      </trkpt>
      <trkpt lat="50.01833" lon="4.23298">
        <ele>283.6</ele>
        <time>2024-04-29T15:17:26Z</time>
      </trkpt>
      <trkpt lat="50.0183" lon="4.2331">
        <ele>283.4</ele>
        <time>2024-04-29T15:17:27Z</time>
      </trkpt>
      <trkpt lat="50.01828" lon="4.23323">
        <ele>283.2</ele>
        <time>2024-04-29T15:17:28Z</time>
      </trkpt>
      <trkpt lat="50.01825" lon="4.23336">
        <ele>283.2</ele>
        <time>2024-04-29T15:17:29Z</time>
      </trkpt>
      <trkpt lat="50.01822" lon="4.23349">
        <ele>283</ele>
        <time>2024-04-29T15:17:30Z</time>
      </trkpt>
      <trkpt lat="50.01819" lon="4.23361">
        <ele>282.6</ele>
        <time>2024-04-29T15:17:31Z</time>
      </trkpt>
      <trkpt lat="50.01816" lon="4.23374">
        <ele>282.2</ele>
        <time>2024-04-29T15:17:32Z</time>
      </trkpt>
      <trkpt lat="50.01812" lon="4.23386">
        <ele>281.8</ele>
        <time>2024-04-29T15:17:33Z</time>
      </trkpt>
      <trkpt lat="50.01809" lon="4.23399">
        <ele>281.4</ele>
        <time>2024-04-29T15:17:34Z</time>
      </trkpt>
      <trkpt lat="50.01805" lon="4.23411">
        <ele>281</ele>
        <time>2024-04-29T15:17:35Z</time>
      </trkpt>
      <trkpt lat="50.01802" lon="4.23424">
        <ele>280.6</ele>
        <time>2024-04-29T15:17:36Z</time>
      </trkpt>
      <trkpt lat="50.01799" lon="4.23436">
        <ele>280.2</ele>
        <time>2024-04-29T15:17:37Z</time>
      </trkpt>
      <trkpt lat="50.01795" lon="4.23449">
        <ele>279.8</ele>
        <time>2024-04-29T15:17:38Z</time>
      </trkpt>
      <trkpt lat="50.01792" lon="4.23462">
        <ele>279.6</ele>
        <time>2024-04-29T15:17:39Z</time>
      </trkpt>
      <trkpt lat="50.0179" lon="4.23476">
        <ele>278.6</ele>
        <time>2024-04-29T15:17:40Z</time>
      </trkpt>
      <trkpt lat="50.01787" lon="4.23489">
        <ele>277.8</ele>
        <time>2024-04-29T15:17:41Z</time>
      </trkpt>
      <trkpt lat="50.01784" lon="4.23502">
        <ele>277.2</ele>
        <time>2024-04-29T15:17:42Z</time>
      </trkpt>
      <trkpt lat="50.01781" lon="4.23515">
        <ele>276.8</ele>
        <time>2024-04-29T15:17:43Z</time>
      </trkpt>
      <trkpt lat="50.01778" lon="4.23527">
        <ele>276.2</ele>
        <time>2024-04-29T15:17:44Z</time>
      </trkpt>
      <trkpt lat="50.01775" lon="4.2354">
        <ele>276</ele>
        <time>2024-04-29T15:17:45Z</time>
      </trkpt>
      <trkpt lat="50.01772" lon="4.23553">
        <ele>275.6</ele>
        <time>2024-04-29T15:17:46Z</time>
      </trkpt>
      <trkpt lat="50.01768" lon="4.23565">
        <ele>275.4</ele>
        <time>2024-04-29T15:17:47Z</time>
      </trkpt>
      <trkpt lat="50.01765" lon="4.23578">
        <ele>275.2</ele>
        <time>2024-04-29T15:17:48Z</time>
      </trkpt>
      <trkpt lat="50.01762" lon="4.2359">
        <ele>275</ele>
        <time>2024-04-29T15:17:49Z</time>
      </trkpt>
      <trkpt lat="50.01759" lon="4.23602">
        <ele>275</ele>
        <time>2024-04-29T15:17:50Z</time>
      </trkpt>
      <trkpt lat="50.01756" lon="4.23614">
        <ele>274.8</ele>
        <time>2024-04-29T15:17:51Z</time>
      </trkpt>
      <trkpt lat="50.01752" lon="4.23625">
        <ele>274.6</ele>
        <time>2024-04-29T15:17:52Z</time>
      </trkpt>
      <trkpt lat="50.01749" lon="4.23636">
        <ele>274.4</ele>
        <time>2024-04-29T15:17:53Z</time>
      </trkpt>
      <trkpt lat="50.01747" lon="4.23646">
        <ele>274.4</ele>
        <time>2024-04-29T15:17:54Z</time>
      </trkpt>
      <trkpt lat="50.01743" lon="4.23656">
        <ele>274</ele>
        <time>2024-04-29T15:17:55Z</time>
      </trkpt>
      <trkpt lat="50.0174" lon="4.23666">
        <ele>273.6</ele>
        <time>2024-04-29T15:17:56Z</time>
      </trkpt>
      <trkpt lat="50.01737" lon="4.23676">
        <ele>273.2</ele>
        <time>2024-04-29T15:17:57Z</time>
      </trkpt>
      <trkpt lat="50.01733" lon="4.23685">
        <ele>273</ele>
        <time>2024-04-29T15:17:58Z</time>
      </trkpt>
      <trkpt lat="50.0173" lon="4.23694">
        <ele>273</ele>
        <time>2024-04-29T15:17:59Z</time>
      </trkpt>
      <trkpt lat="50.01727" lon="4.23704">
        <ele>272.8</ele>
        <time>2024-04-29T15:18:00Z</time>
      </trkpt>
      <trkpt lat="50.01723" lon="4.23713">
        <ele>272.6</ele>
        <time>2024-04-29T15:18:01Z</time>
      </trkpt>
      <trkpt lat="50.0172" lon="4.23723">
        <ele>272.6</ele>
        <time>2024-04-29T15:18:02Z</time>
      </trkpt>
      <trkpt lat="50.01716" lon="4.23732">
        <ele>272.6</ele>
        <time>2024-04-29T15:18:03Z</time>
      </trkpt>
      <trkpt lat="50.01713" lon="4.23741">
        <ele>272.6</ele>
        <time>2024-04-29T15:18:04Z</time>
      </trkpt>
      <trkpt lat="50.01709" lon="4.23751">
        <ele>272.4</ele>
        <time>2024-04-29T15:18:05Z</time>
      </trkpt>
      <trkpt lat="50.01706" lon="4.2376">
        <ele>272.4</ele>
        <time>2024-04-29T15:18:06Z</time>
      </trkpt>
      <trkpt lat="50.01703" lon="4.2377">
        <ele>272.4</ele>
        <time>2024-04-29T15:18:07Z</time>
      </trkpt>
      <trkpt lat="50.01699" lon="4.23779">
        <ele>272.2</ele>
        <time>2024-04-29T15:18:08Z</time>
      </trkpt>
      <trkpt lat="50.01696" lon="4.23788">
        <ele>272.2</ele>
        <time>2024-04-29T15:18:09Z</time>
      </trkpt>
      <trkpt lat="50.01692" lon="4.23798">
        <ele>272.2</ele>
        <time>2024-04-29T15:18:10Z</time>
      </trkpt>
      <trkpt lat="50.01689" lon="4.23808">
        <ele>272.2</ele>
        <time>2024-04-29T15:18:11Z</time>
      </trkpt>
      <trkpt lat="50.01685" lon="4.23817">
        <ele>272.2</ele>
        <time>2024-04-29T15:18:12Z</time>
      </trkpt>
      <trkpt lat="50.0168" lon="4.23825">
        <ele>272.2</ele>
        <time>2024-04-29T15:18:13Z</time>
      </trkpt>
      <trkpt lat="50.01674" lon="4.23832">
        <ele>272.2</ele>
        <time>2024-04-29T15:18:14Z</time>
      </trkpt>
      <trkpt lat="50.0167" lon="4.23839">
        <ele>271.8</ele>
        <time>2024-04-29T15:18:15Z</time>
      </trkpt>
      <trkpt lat="50.01667" lon="4.23848">
        <ele>271.8</ele>
        <time>2024-04-29T15:18:16Z</time>
      </trkpt>
      <trkpt lat="50.01667" lon="4.23858">
        <ele>271.6</ele>
        <time>2024-04-29T15:18:17Z</time>
      </trkpt>
      <trkpt lat="50.01668" lon="4.23868">
        <ele>271.4</ele>
        <time>2024-04-29T15:18:18Z</time>
      </trkpt>
      <trkpt lat="50.01669" lon="4.23878">
        <ele>271</ele>
        <time>2024-04-29T15:18:19Z</time>
      </trkpt>
      <trkpt lat="50.01671" lon="4.23889">
        <ele>270.8</ele>
        <time>2024-04-29T15:18:20Z</time>
      </trkpt>
      <trkpt lat="50.01673" lon="4.23899">
        <ele>270.4</ele>
        <time>2024-04-29T15:18:21Z</time>
      </trkpt>
      <trkpt lat="50.01674" lon="4.2391">
        <ele>270.2</ele>
        <time>2024-04-29T15:18:22Z</time>
      </trkpt>
      <trkpt lat="50.01676" lon="4.23921">
        <ele>270</ele>
        <time>2024-04-29T15:18:23Z</time>
      </trkpt>
      <trkpt lat="50.01677" lon="4.23931">
        <ele>269.8</ele>
        <time>2024-04-29T15:18:24Z</time>
      </trkpt>
      <trkpt lat="50.01678" lon="4.23941">
        <ele>269.4</ele>
        <time>2024-04-29T15:18:25Z</time>
      </trkpt>
      <trkpt lat="50.0168" lon="4.23951">
        <ele>268.8</ele>
        <time>2024-04-29T15:18:26Z</time>
      </trkpt>
      <trkpt lat="50.01683" lon="4.23962">
        <ele>268.6</ele>
        <time>2024-04-29T15:18:27Z</time>
      </trkpt>
      <trkpt lat="50.01685" lon="4.23971">
        <ele>268.6</ele>
        <time>2024-04-29T15:18:28Z</time>
      </trkpt>
      <trkpt lat="50.01688" lon="4.2398">
        <ele>268.6</ele>
        <time>2024-04-29T15:18:29Z</time>
      </trkpt>
      <trkpt lat="50.01691" lon="4.23989">
        <ele>268.4</ele>
        <time>2024-04-29T15:18:30Z</time>
      </trkpt>
      <trkpt lat="50.01694" lon="4.23997">
        <ele>268.6</ele>
        <time>2024-04-29T15:18:31Z</time>
      </trkpt>
      <trkpt lat="50.01697" lon="4.24004">
        <ele>268.6</ele>
        <time>2024-04-29T15:18:32Z</time>
      </trkpt>
      <trkpt lat="50.01701" lon="4.24012">
        <ele>268.4</ele>
        <time>2024-04-29T15:18:33Z</time>
      </trkpt>
      <trkpt lat="50.01704" lon="4.24019">
        <ele>268.4</ele>
        <time>2024-04-29T15:18:34Z</time>
      </trkpt>
      <trkpt lat="50.01708" lon="4.24025">
        <ele>268.6</ele>
        <time>2024-04-29T15:18:35Z</time>
      </trkpt>
      <trkpt lat="50.01711" lon="4.24032">
        <ele>268.4</ele>
        <time>2024-04-29T15:18:36Z</time>
      </trkpt>
      <trkpt lat="50.01715" lon="4.24039">
        <ele>268.4</ele>
        <time>2024-04-29T15:18:37Z</time>
      </trkpt>
      <trkpt lat="50.01718" lon="4.24045">
        <ele>268.8</ele>
        <time>2024-04-29T15:18:38Z</time>
      </trkpt>
      <trkpt lat="50.01722" lon="4.24051">
        <ele>269.4</ele>
        <time>2024-04-29T15:18:39Z</time>
      </trkpt>
      <trkpt lat="50.01725" lon="4.24058">
        <ele>269.6</ele>
        <time>2024-04-29T15:18:40Z</time>
      </trkpt>
      <trkpt lat="50.01728" lon="4.24064">
        <ele>270.6</ele>
        <time>2024-04-29T15:18:41Z</time>
      </trkpt>
      <trkpt lat="50.01732" lon="4.24071">
        <ele>271.4</ele>
        <time>2024-04-29T15:18:42Z</time>
      </trkpt>
      <trkpt lat="50.01735" lon="4.24077">
        <ele>271.8</ele>
        <time>2024-04-29T15:18:43Z</time>
      </trkpt>
      <trkpt lat="50.01738" lon="4.24083">
        <ele>272.4</ele>
        <time>2024-04-29T15:18:44Z</time>
      </trkpt>
      <trkpt lat="50.01741" lon="4.2409">
        <ele>272.8</ele>
        <time>2024-04-29T15:18:45Z</time>
      </trkpt>
      <trkpt lat="50.01744" lon="4.24096">
        <ele>273</ele>
        <time>2024-04-29T15:18:46Z</time>
      </trkpt>
      <trkpt lat="50.01747" lon="4.24102">
        <ele>273</ele>
        <time>2024-04-29T15:18:47Z</time>
      </trkpt>
      <trkpt lat="50.0175" lon="4.24109">
        <ele>273.4</ele>
        <time>2024-04-29T15:18:48Z</time>
      </trkpt>
      <trkpt lat="50.01753" lon="4.24116">
        <ele>274</ele>
        <time>2024-04-29T15:18:49Z</time>
      </trkpt>
      <trkpt lat="50.01756" lon="4.24123">
        <ele>274.4</ele>
        <time>2024-04-29T15:18:50Z</time>
      </trkpt>
      <trkpt lat="50.01758" lon="4.2413">
        <ele>274.8</ele>
        <time>2024-04-29T15:18:51Z</time>
      </trkpt>
      <trkpt lat="50.01761" lon="4.24137">
        <ele>275</ele>
        <time>2024-04-29T15:18:52Z</time>
      </trkpt>
      <trkpt lat="50.01763" lon="4.24144">
        <ele>275.4</ele>
        <time>2024-04-29T15:18:53Z</time>
      </trkpt>
      <trkpt lat="50.01765" lon="4.24151">
        <ele>275.6</ele>
        <time>2024-04-29T15:18:54Z</time>
      </trkpt>
      <trkpt lat="50.01767" lon="4.24158">
        <ele>276.2</ele>
        <time>2024-04-29T15:18:55Z</time>
      </trkpt>
      <trkpt lat="50.01769" lon="4.24165">
        <ele>276.2</ele>
        <time>2024-04-29T15:18:56Z</time>
      </trkpt>
      <trkpt lat="50.01771" lon="4.24172">
        <ele>276.4</ele>
        <time>2024-04-29T15:18:57Z</time>
      </trkpt>
      <trkpt lat="50.01773" lon="4.24179">
        <ele>276.6</ele>
        <time>2024-04-29T15:18:58Z</time>
      </trkpt>
      <trkpt lat="50.01775" lon="4.24186">
        <ele>276.8</ele>
        <time>2024-04-29T15:18:59Z</time>
      </trkpt>
      <trkpt lat="50.01777" lon="4.24194">
        <ele>277.4</ele>
        <time>2024-04-29T15:19:00Z</time>
      </trkpt>
      <trkpt lat="50.01779" lon="4.24201">
        <ele>277.4</ele>
        <time>2024-04-29T15:19:01Z</time>
      </trkpt>
      <trkpt lat="50.01781" lon="4.24208">
        <ele>277.8</ele>
        <time>2024-04-29T15:19:02Z</time>
      </trkpt>
      <trkpt lat="50.01783" lon="4.24216">
        <ele>277.8</ele>
        <time>2024-04-29T15:19:03Z</time>
      </trkpt>
      <trkpt lat="50.01785" lon="4.24223">
        <ele>278</ele>
        <time>2024-04-29T15:19:04Z</time>
      </trkpt>
      <trkpt lat="50.01787" lon="4.24231">
        <ele>278.2</ele>
        <time>2024-04-29T15:19:05Z</time>
      </trkpt>
      <trkpt lat="50.01789" lon="4.24239">
        <ele>278.4</ele>
        <time>2024-04-29T15:19:06Z</time>
      </trkpt>
      <trkpt lat="50.01792" lon="4.24246">
        <ele>279</ele>
        <time>2024-04-29T15:19:07Z</time>
      </trkpt>
      <trkpt lat="50.01794" lon="4.24254">
        <ele>279.2</ele>
        <time>2024-04-29T15:19:08Z</time>
      </trkpt>
      <trkpt lat="50.01796" lon="4.24262">
        <ele>279.4</ele>
        <time>2024-04-29T15:19:09Z</time>
      </trkpt>
      <trkpt lat="50.01798" lon="4.2427">
        <ele>279.8</ele>
        <time>2024-04-29T15:19:10Z</time>
      </trkpt>
      <trkpt lat="50.01801" lon="4.24278">
        <ele>280</ele>
        <time>2024-04-29T15:19:11Z</time>
      </trkpt>
      <trkpt lat="50.01803" lon="4.24286">
        <ele>280</ele>
        <time>2024-04-29T15:19:12Z</time>
      </trkpt>
      <trkpt lat="50.01805" lon="4.24295">
        <ele>280.2</ele>
        <time>2024-04-29T15:19:13Z</time>
      </trkpt>
      <trkpt lat="50.01808" lon="4.24303">
        <ele>280.4</ele>
        <time>2024-04-29T15:19:14Z</time>
      </trkpt>
      <trkpt lat="50.0181" lon="4.24311">
        <ele>280.8</ele>
        <time>2024-04-29T15:19:15Z</time>
      </trkpt>
      <trkpt lat="50.01813" lon="4.2432">
        <ele>280.8</ele>
        <time>2024-04-29T15:19:16Z</time>
      </trkpt>
      <trkpt lat="50.01815" lon="4.24328">
        <ele>280.8</ele>
        <time>2024-04-29T15:19:17Z</time>
      </trkpt>
      <trkpt lat="50.01817" lon="4.24337">
        <ele>280.8</ele>
        <time>2024-04-29T15:19:18Z</time>
      </trkpt>
      <trkpt lat="50.0182" lon="4.24345">
        <ele>280.8</ele>
        <time>2024-04-29T15:19:19Z</time>
      </trkpt>
      <trkpt lat="50.01822" lon="4.24354">
        <ele>280.8</ele>
        <time>2024-04-29T15:19:20Z</time>
      </trkpt>
      <trkpt lat="50.01825" lon="4.24363">
        <ele>281</ele>
        <time>2024-04-29T15:19:21Z</time>
      </trkpt>
      <trkpt lat="50.01827" lon="4.24372">
        <ele>281.2</ele>
        <time>2024-04-29T15:19:22Z</time>
      </trkpt>
      <trkpt lat="50.0183" lon="4.24381">
        <ele>281.4</ele>
        <time>2024-04-29T15:19:23Z</time>
      </trkpt>
      <trkpt lat="50.01832" lon="4.2439">
        <ele>281.6</ele>
        <time>2024-04-29T15:19:24Z</time>
      </trkpt>
      <trkpt lat="50.01835" lon="4.244">
        <ele>281.6</ele>
        <time>2024-04-29T15:19:25Z</time>
      </trkpt>
      <trkpt lat="50.01837" lon="4.24409">
        <ele>281.8</ele>
        <time>2024-04-29T15:19:26Z</time>
      </trkpt>
      <trkpt lat="50.0184" lon="4.24418">
        <ele>281.8</ele>
        <time>2024-04-29T15:19:27Z</time>
      </trkpt>
      <trkpt lat="50.01843" lon="4.24428">
        <ele>281.8</ele>
        <time>2024-04-29T15:19:28Z</time>
      </trkpt>
      <trkpt lat="50.01845" lon="4.24438">
        <ele>281.8</ele>
        <time>2024-04-29T15:19:29Z</time>
      </trkpt>
      <trkpt lat="50.01848" lon="4.24447">
        <ele>282</ele>
        <time>2024-04-29T15:19:30Z</time>
      </trkpt>
      <trkpt lat="50.0185" lon="4.24457">
        <ele>282.2</ele>
        <time>2024-04-29T15:19:31Z</time>
      </trkpt>
      <trkpt lat="50.01851" lon="4.24467">
        <ele>282</ele>
        <time>2024-04-29T15:19:32Z</time>
      </trkpt>
      <trkpt lat="50.01853" lon="4.24478">
        <ele>282.2</ele>
        <time>2024-04-29T15:19:33Z</time>
      </trkpt>
      <trkpt lat="50.01854" lon="4.24488">
        <ele>282</ele>
        <time>2024-04-29T15:19:34Z</time>
      </trkpt>
      <trkpt lat="50.01856" lon="4.24498">
        <ele>282.2</ele>
        <time>2024-04-29T15:19:35Z</time>
      </trkpt>
      <trkpt lat="50.01856" lon="4.24509">
        <ele>282.2</ele>
        <time>2024-04-29T15:19:36Z</time>
      </trkpt>
      <trkpt lat="50.01857" lon="4.2452">
        <ele>282.4</ele>
        <time>2024-04-29T15:19:37Z</time>
      </trkpt>
      <trkpt lat="50.01857" lon="4.2453">
        <ele>282.4</ele>
        <time>2024-04-29T15:19:38Z</time>
      </trkpt>
      <trkpt lat="50.01858" lon="4.24541">
        <ele>282.6</ele>
        <time>2024-04-29T15:19:39Z</time>
      </trkpt>
      <trkpt lat="50.01858" lon="4.24551">
        <ele>282.6</ele>
        <time>2024-04-29T15:19:40Z</time>
      </trkpt>
      <trkpt lat="50.01858" lon="4.24562">
        <ele>282.8</ele>
        <time>2024-04-29T15:19:41Z</time>
      </trkpt>
      <trkpt lat="50.01858" lon="4.24572">
        <ele>282.8</ele>
        <time>2024-04-29T15:19:42Z</time>
      </trkpt>
      <trkpt lat="50.01858" lon="4.24583">
        <ele>283</ele>
        <time>2024-04-29T15:19:43Z</time>
      </trkpt>
      <trkpt lat="50.01858" lon="4.24593">
        <ele>283</ele>
        <time>2024-04-29T15:19:44Z</time>
      </trkpt>
      <trkpt lat="50.01857" lon="4.24603">
        <ele>283.2</ele>
        <time>2024-04-29T15:19:45Z</time>
      </trkpt>
      <trkpt lat="50.01857" lon="4.24614">
        <ele>283.2</ele>
        <time>2024-04-29T15:19:46Z</time>
      </trkpt>
      <trkpt lat="50.01856" lon="4.24624">
        <ele>283.4</ele>
        <time>2024-04-29T15:19:47Z</time>
      </trkpt>
      <trkpt lat="50.01854" lon="4.24635">
        <ele>283.6</ele>
        <time>2024-04-29T15:19:48Z</time>
      </trkpt>
      <trkpt lat="50.01852" lon="4.24645">
        <ele>283.6</ele>
        <time>2024-04-29T15:19:49Z</time>
      </trkpt>
      <trkpt lat="50.0185" lon="4.24655">
        <ele>283.6</ele>
        <time>2024-04-29T15:19:50Z</time>
      </trkpt>
      <trkpt lat="50.01848" lon="4.24664">
        <ele>283.6</ele>
        <time>2024-04-29T15:19:51Z</time>
      </trkpt>
      <trkpt lat="50.01845" lon="4.24674">
        <ele>283.6</ele>
        <time>2024-04-29T15:19:52Z</time>
      </trkpt>
      <trkpt lat="50.01842" lon="4.24683">
        <ele>283.8</ele>
        <time>2024-04-29T15:19:53Z</time>
      </trkpt>
      <trkpt lat="50.01838" lon="4.24692">
        <ele>283.8</ele>
        <time>2024-04-29T15:19:54Z</time>
      </trkpt>
      <trkpt lat="50.01835" lon="4.247">
        <ele>283.6</ele>
        <time>2024-04-29T15:19:55Z</time>
      </trkpt>
      <trkpt lat="50.01831" lon="4.24708">
        <ele>284</ele>
        <time>2024-04-29T15:19:56Z</time>
      </trkpt>
      <trkpt lat="50.01827" lon="4.24715">
        <ele>283.8</ele>
        <time>2024-04-29T15:19:57Z</time>
      </trkpt>
      <trkpt lat="50.01823" lon="4.24723">
        <ele>283.8</ele>
        <time>2024-04-29T15:19:58Z</time>
      </trkpt>
      <trkpt lat="50.01819" lon="4.2473">
        <ele>283.8</ele>
        <time>2024-04-29T15:19:59Z</time>
      </trkpt>
      <trkpt lat="50.01815" lon="4.24737">
        <ele>284.2</ele>
        <time>2024-04-29T15:20:00Z</time>
      </trkpt>
      <trkpt lat="50.01811" lon="4.24744">
        <ele>284.2</ele>
        <time>2024-04-29T15:20:01Z</time>
      </trkpt>
      <trkpt lat="50.01806" lon="4.24751">
        <ele>284</ele>
        <time>2024-04-29T15:20:02Z</time>
      </trkpt>
      <trkpt lat="50.01802" lon="4.24758">
        <ele>284.4</ele>
        <time>2024-04-29T15:20:03Z</time>
      </trkpt>
      <trkpt lat="50.01797" lon="4.24764">
        <ele>284.8</ele>
        <time>2024-04-29T15:20:04Z</time>
      </trkpt>
      <trkpt lat="50.01792" lon="4.24771">
        <ele>285.2</ele>
        <time>2024-04-29T15:20:05Z</time>
      </trkpt>
      <trkpt lat="50.01788" lon="4.24777">
        <ele>285.6</ele>
        <time>2024-04-29T15:20:06Z</time>
      </trkpt>
      <trkpt lat="50.01783" lon="4.24784">
        <ele>286</ele>
        <time>2024-04-29T15:20:07Z</time>
      </trkpt>
      <trkpt lat="50.01778" lon="4.2479">
        <ele>286.2</ele>
        <time>2024-04-29T15:20:08Z</time>
      </trkpt>
      <trkpt lat="50.01773" lon="4.24795">
        <ele>286.4</ele>
        <time>2024-04-29T15:20:09Z</time>
      </trkpt>
      <trkpt lat="50.01768" lon="4.24801">
        <ele>286.6</ele>
        <time>2024-04-29T15:20:10Z</time>
      </trkpt>
      <trkpt lat="50.01763" lon="4.24807">
        <ele>287</ele>
        <time>2024-04-29T15:20:11Z</time>
      </trkpt>
      <trkpt lat="50.01757" lon="4.24812">
        <ele>287.2</ele>
        <time>2024-04-29T15:20:12Z</time>
      </trkpt>
      <trkpt lat="50.01752" lon="4.24818">
        <ele>287.2</ele>
        <time>2024-04-29T15:20:13Z</time>
      </trkpt>
      <trkpt lat="50.01747" lon="4.24823">
        <ele>287.2</ele>
        <time>2024-04-29T15:20:14Z</time>
      </trkpt>
      <trkpt lat="50.01741" lon="4.24829">
        <ele>287.4</ele>
        <time>2024-04-29T15:20:15Z</time>
      </trkpt>
      <trkpt lat="50.01736" lon="4.24834">
        <ele>287.4</ele>
        <time>2024-04-29T15:20:16Z</time>
      </trkpt>
      <trkpt lat="50.0173" lon="4.2484">
        <ele>287.6</ele>
        <time>2024-04-29T15:20:17Z</time>
      </trkpt>
      <trkpt lat="50.01725" lon="4.24846">
        <ele>287.8</ele>
        <time>2024-04-29T15:20:18Z</time>
      </trkpt>
      <trkpt lat="50.01719" lon="4.24852">
        <ele>288</ele>
        <time>2024-04-29T15:20:19Z</time>
      </trkpt>
      <trkpt lat="50.01714" lon="4.24858">
        <ele>288</ele>
        <time>2024-04-29T15:20:20Z</time>
      </trkpt>
      <trkpt lat="50.01708" lon="4.24864">
        <ele>288.4</ele>
        <time>2024-04-29T15:20:21Z</time>
      </trkpt>
      <trkpt lat="50.01703" lon="4.2487">
        <ele>288.4</ele>
        <time>2024-04-29T15:20:22Z</time>
      </trkpt>
      <trkpt lat="50.01698" lon="4.24877">
        <ele>288.4</ele>
        <time>2024-04-29T15:20:23Z</time>
      </trkpt>
      <trkpt lat="50.01692" lon="4.24883">
        <ele>288.6</ele>
        <time>2024-04-29T15:20:24Z</time>
      </trkpt>
      <trkpt lat="50.01687" lon="4.24891">
        <ele>288.6</ele>
        <time>2024-04-29T15:20:25Z</time>
      </trkpt>
      <trkpt lat="50.01682" lon="4.24899">
        <ele>288.6</ele>
        <time>2024-04-29T15:20:26Z</time>
      </trkpt>
      <trkpt lat="50.01678" lon="4.24907">
        <ele>288.8</ele>
        <time>2024-04-29T15:20:27Z</time>
      </trkpt>
      <trkpt lat="50.01673" lon="4.24915">
        <ele>288.8</ele>
        <time>2024-04-29T15:20:28Z</time>
      </trkpt>
      <trkpt lat="50.01669" lon="4.24924">
        <ele>288.8</ele>
        <time>2024-04-29T15:20:29Z</time>
      </trkpt>
      <trkpt lat="50.01665" lon="4.24933">
        <ele>288.8</ele>
        <time>2024-04-29T15:20:30Z</time>
      </trkpt>
      <trkpt lat="50.01661" lon="4.24942">
        <ele>288.8</ele>
        <time>2024-04-29T15:20:31Z</time>
      </trkpt>
      <trkpt lat="50.01658" lon="4.24952">
        <ele>289</ele>
        <time>2024-04-29T15:20:32Z</time>
      </trkpt>
      <trkpt lat="50.01654" lon="4.24962">
        <ele>288.8</ele>
        <time>2024-04-29T15:20:33Z</time>
      </trkpt>
      <trkpt lat="50.01651" lon="4.24973">
        <ele>288.8</ele>
        <time>2024-04-29T15:20:34Z</time>
      </trkpt>
      <trkpt lat="50.01649" lon="4.24983">
        <ele>289</ele>
        <time>2024-04-29T15:20:35Z</time>
      </trkpt>
      <trkpt lat="50.01646" lon="4.24994">
        <ele>288.8</ele>
        <time>2024-04-29T15:20:36Z</time>
      </trkpt>
      <trkpt lat="50.01643" lon="4.25005">
        <ele>288.6</ele>
        <time>2024-04-29T15:20:37Z</time>
      </trkpt>
      <trkpt lat="50.01641" lon="4.25015">
        <ele>288.4</ele>
        <time>2024-04-29T15:20:38Z</time>
      </trkpt>
      <trkpt lat="50.01638" lon="4.25026">
        <ele>288.2</ele>
        <time>2024-04-29T15:20:39Z</time>
      </trkpt>
      <trkpt lat="50.01636" lon="4.25037">
        <ele>287.8</ele>
        <time>2024-04-29T15:20:40Z</time>
      </trkpt>
      <trkpt lat="50.01633" lon="4.25048">
        <ele>287.8</ele>
        <time>2024-04-29T15:20:41Z</time>
      </trkpt>
      <trkpt lat="50.01631" lon="4.25059">
        <ele>287.4</ele>
        <time>2024-04-29T15:20:42Z</time>
      </trkpt>
      <trkpt lat="50.01629" lon="4.2507">
        <ele>287</ele>
        <time>2024-04-29T15:20:43Z</time>
      </trkpt>
      <trkpt lat="50.01626" lon="4.25081">
        <ele>286.8</ele>
        <time>2024-04-29T15:20:44Z</time>
      </trkpt>
      <trkpt lat="50.01624" lon="4.25092">
        <ele>286.8</ele>
        <time>2024-04-29T15:20:45Z</time>
      </trkpt>
      <trkpt lat="50.01621" lon="4.25103">
        <ele>286.8</ele>
        <time>2024-04-29T15:20:46Z</time>
      </trkpt>
      <trkpt lat="50.01619" lon="4.25114">
        <ele>286.6</ele>
        <time>2024-04-29T15:20:47Z</time>
      </trkpt>
      <trkpt lat="50.01616" lon="4.25125">
        <ele>286.6</ele>
        <time>2024-04-29T15:20:48Z</time>
      </trkpt>
      <trkpt lat="50.01614" lon="4.25136">
        <ele>286.6</ele>
        <time>2024-04-29T15:20:49Z</time>
      </trkpt>
      <trkpt lat="50.01611" lon="4.25147">
        <ele>286.6</ele>
        <time>2024-04-29T15:20:50Z</time>
      </trkpt>
      <trkpt lat="50.01609" lon="4.25158">
        <ele>286.4</ele>
        <time>2024-04-29T15:20:51Z</time>
      </trkpt>
      <trkpt lat="50.01607" lon="4.25169">
        <ele>286.4</ele>
        <time>2024-04-29T15:20:52Z</time>
      </trkpt>
      <trkpt lat="50.01604" lon="4.2518">
        <ele>286.4</ele>
        <time>2024-04-29T15:20:53Z</time>
      </trkpt>
      <trkpt lat="50.01602" lon="4.2519">
        <ele>286.2</ele>
        <time>2024-04-29T15:20:54Z</time>
      </trkpt>
      <trkpt lat="50.01599" lon="4.25201">
        <ele>286.2</ele>
        <time>2024-04-29T15:20:55Z</time>
      </trkpt>
      <trkpt lat="50.01597" lon="4.25212">
        <ele>285.8</ele>
        <time>2024-04-29T15:20:56Z</time>
      </trkpt>
      <trkpt lat="50.01595" lon="4.25223">
        <ele>285.8</ele>
        <time>2024-04-29T15:20:57Z</time>
      </trkpt>
      <trkpt lat="50.01592" lon="4.25235">
        <ele>285.6</ele>
        <time>2024-04-29T15:20:58Z</time>
      </trkpt>
      <trkpt lat="50.0159" lon="4.25246">
        <ele>285.6</ele>
        <time>2024-04-29T15:20:59Z</time>
      </trkpt>
      <trkpt lat="50.01587" lon="4.25257">
        <ele>285.6</ele>
        <time>2024-04-29T15:21:00Z</time>
      </trkpt>
      <trkpt lat="50.01585" lon="4.25268">
        <ele>285.4</ele>
        <time>2024-04-29T15:21:01Z</time>
      </trkpt>
      <trkpt lat="50.01582" lon="4.2528">
        <ele>285.4</ele>
        <time>2024-04-29T15:21:02Z</time>
      </trkpt>
      <trkpt lat="50.0158" lon="4.25291">
        <ele>285.2</ele>
        <time>2024-04-29T15:21:03Z</time>
      </trkpt>
      <trkpt lat="50.01577" lon="4.25303">
        <ele>285.2</ele>
        <time>2024-04-29T15:21:04Z</time>
      </trkpt>
      <trkpt lat="50.01575" lon="4.25314">
        <ele>284.8</ele>
        <time>2024-04-29T15:21:05Z</time>
      </trkpt>
      <trkpt lat="50.01572" lon="4.25325">
        <ele>284.6</ele>
        <time>2024-04-29T15:21:06Z</time>
      </trkpt>
      <trkpt lat="50.0157" lon="4.25337">
        <ele>284.6</ele>
        <time>2024-04-29T15:21:07Z</time>
      </trkpt>
      <trkpt lat="50.01567" lon="4.25349">
        <ele>284.2</ele>
        <time>2024-04-29T15:21:08Z</time>
      </trkpt>
      <trkpt lat="50.01565" lon="4.25361">
        <ele>283.8</ele>
        <time>2024-04-29T15:21:09Z</time>
      </trkpt>
      <trkpt lat="50.01562" lon="4.25372">
        <ele>283.2</ele>
        <time>2024-04-29T15:21:10Z</time>
      </trkpt>
      <trkpt lat="50.01559" lon="4.25384">
        <ele>283</ele>
        <time>2024-04-29T15:21:11Z</time>
      </trkpt>
      <trkpt lat="50.01557" lon="4.25394">
        <ele>282.6</ele>
        <time>2024-04-29T15:21:12Z</time>
      </trkpt>
      <trkpt lat="50.01555" lon="4.25404">
        <ele>282.4</ele>
        <time>2024-04-29T15:21:13Z</time>
      </trkpt>
      <trkpt lat="50.01554" lon="4.25413">
        <ele>282.2</ele>
        <time>2024-04-29T15:21:14Z</time>
      </trkpt>
      <trkpt lat="50.01554" lon="4.25421">
        <ele>282.2</ele>
        <time>2024-04-29T15:21:15Z</time>
      </trkpt>
      <trkpt lat="50.01557" lon="4.2543">
        <ele>282.2</ele>
        <time>2024-04-29T15:21:16Z</time>
      </trkpt>
      <trkpt lat="50.0156" lon="4.25437">
        <ele>282</ele>
        <time>2024-04-29T15:21:17Z</time>
      </trkpt>
      <trkpt lat="50.01565" lon="4.25444">
        <ele>281.8</ele>
        <time>2024-04-29T15:21:18Z</time>
      </trkpt>
      <trkpt lat="50.0157" lon="4.25449">
        <ele>281.6</ele>
        <time>2024-04-29T15:21:19Z</time>
      </trkpt>
      <trkpt lat="50.01575" lon="4.25456">
        <ele>281.4</ele>
        <time>2024-04-29T15:21:20Z</time>
      </trkpt>
      <trkpt lat="50.0158" lon="4.25463">
        <ele>281.2</ele>
        <time>2024-04-29T15:21:21Z</time>
      </trkpt>
      <trkpt lat="50.01583" lon="4.25472">
        <ele>281.2</ele>
        <time>2024-04-29T15:21:22Z</time>
      </trkpt>
      <trkpt lat="50.01585" lon="4.25482">
        <ele>281.2</ele>
        <time>2024-04-29T15:21:23Z</time>
      </trkpt>
      <trkpt lat="50.01585" lon="4.25492">
        <ele>280.8</ele>
        <time>2024-04-29T15:21:24Z</time>
      </trkpt>
      <trkpt lat="50.01584" lon="4.25502">
        <ele>281</ele>
        <time>2024-04-29T15:21:25Z</time>
      </trkpt>
      <trkpt lat="50.01581" lon="4.25511">
        <ele>280.8</ele>
        <time>2024-04-29T15:21:26Z</time>
      </trkpt>
      <trkpt lat="50.01579" lon="4.25521">
        <ele>280.6</ele>
        <time>2024-04-29T15:21:27Z</time>
      </trkpt>
      <trkpt lat="50.01577" lon="4.25531">
        <ele>280.6</ele>
        <time>2024-04-29T15:21:28Z</time>
      </trkpt>
      <trkpt lat="50.01575" lon="4.25541">
        <ele>280.6</ele>
        <time>2024-04-29T15:21:29Z</time>
      </trkpt>
      <trkpt lat="50.01572" lon="4.25551">
        <ele>280.2</ele>
        <time>2024-04-29T15:21:30Z</time>
      </trkpt>
      <trkpt lat="50.0157" lon="4.25562">
        <ele>280.2</ele>
        <time>2024-04-29T15:21:31Z</time>
      </trkpt>
      <trkpt lat="50.01567" lon="4.25572">
        <ele>279.6</ele>
        <time>2024-04-29T15:21:32Z</time>
      </trkpt>
      <trkpt lat="50.01565" lon="4.25581">
        <ele>279.2</ele>
        <time>2024-04-29T15:21:33Z</time>
      </trkpt>
      <trkpt lat="50.01563" lon="4.25591">
        <ele>279</ele>
        <time>2024-04-29T15:21:34Z</time>
      </trkpt>
      <trkpt lat="50.01561" lon="4.256">
        <ele>278.8</ele>
        <time>2024-04-29T15:21:35Z</time>
      </trkpt>
      <trkpt lat="50.01558" lon="4.25608">
        <ele>278.8</ele>
        <time>2024-04-29T15:21:36Z</time>
      </trkpt>
      <trkpt lat="50.01555" lon="4.25615">
        <ele>278.4</ele>
        <time>2024-04-29T15:21:37Z</time>
      </trkpt>
      <trkpt lat="50.0155" lon="4.25619">
        <ele>278.2</ele>
        <time>2024-04-29T15:21:38Z</time>
      </trkpt>
      <trkpt lat="50.01544" lon="4.2562">
        <ele>278.2</ele>
        <time>2024-04-29T15:21:39Z</time>
      </trkpt>
      <trkpt lat="50.01537" lon="4.2562">
        <ele>277.6</ele>
        <time>2024-04-29T15:21:40Z</time>
      </trkpt>
      <trkpt lat="50.01532" lon="4.25621">
        <ele>277.6</ele>
        <time>2024-04-29T15:21:41Z</time>
      </trkpt>
      <trkpt lat="50.01527" lon="4.25625">
        <ele>277.2</ele>
        <time>2024-04-29T15:21:42Z</time>
      </trkpt>
      <trkpt lat="50.01523" lon="4.25631">
        <ele>276.8</ele>
        <time>2024-04-29T15:21:43Z</time>
      </trkpt>
      <trkpt lat="50.01519" lon="4.25639">
        <ele>276</ele>
        <time>2024-04-29T15:21:44Z</time>
      </trkpt>
      <trkpt lat="50.01515" lon="4.25648">
        <ele>275.6</ele>
        <time>2024-04-29T15:21:45Z</time>
      </trkpt>
      <trkpt lat="50.01511" lon="4.25657">
        <ele>275.2</ele>
        <time>2024-04-29T15:21:46Z</time>
      </trkpt>
      <trkpt lat="50.01506" lon="4.25666">
        <ele>274.6</ele>
        <time>2024-04-29T15:21:47Z</time>
      </trkpt>
      <trkpt lat="50.01501" lon="4.25676">
        <ele>274.4</ele>
        <time>2024-04-29T15:21:48Z</time>
      </trkpt>
      <trkpt lat="50.01496" lon="4.25687">
        <ele>274.2</ele>
        <time>2024-04-29T15:21:49Z</time>
      </trkpt>
      <trkpt lat="50.01491" lon="4.25697">
        <ele>274</ele>
        <time>2024-04-29T15:21:50Z</time>
      </trkpt>
      <trkpt lat="50.01486" lon="4.25708">
        <ele>274</ele>
        <time>2024-04-29T15:21:51Z</time>
      </trkpt>
      <trkpt lat="50.01481" lon="4.25718">
        <ele>273.6</ele>
        <time>2024-04-29T15:21:52Z</time>
      </trkpt>
      <trkpt lat="50.01476" lon="4.25729">
        <ele>273.4</ele>
        <time>2024-04-29T15:21:53Z</time>
      </trkpt>
      <trkpt lat="50.01472" lon="4.25741">
        <ele>273.2</ele>
        <time>2024-04-29T15:21:54Z</time>
      </trkpt>
      <trkpt lat="50.01468" lon="4.25752">
        <ele>272.6</ele>
        <time>2024-04-29T15:21:55Z</time>
      </trkpt>
      <trkpt lat="50.01465" lon="4.25763">
        <ele>272.2</ele>
        <time>2024-04-29T15:21:56Z</time>
      </trkpt>
      <trkpt lat="50.01462" lon="4.25774">
        <ele>271.6</ele>
        <time>2024-04-29T15:21:57Z</time>
      </trkpt>
      <trkpt lat="50.01459" lon="4.25785">
        <ele>271.6</ele>
        <time>2024-04-29T15:21:58Z</time>
      </trkpt>
      <trkpt lat="50.01457" lon="4.25795">
        <ele>271.4</ele>
        <time>2024-04-29T15:21:59Z</time>
      </trkpt>
      <trkpt lat="50.01456" lon="4.25806">
        <ele>271.4</ele>
        <time>2024-04-29T15:22:00Z</time>
      </trkpt>
      <trkpt lat="50.01454" lon="4.25816">
        <ele>271</ele>
        <time>2024-04-29T15:22:01Z</time>
      </trkpt>
      <trkpt lat="50.01453" lon="4.25826">
        <ele>270.8</ele>
        <time>2024-04-29T15:22:02Z</time>
      </trkpt>
      <trkpt lat="50.01452" lon="4.25836">
        <ele>270.8</ele>
        <time>2024-04-29T15:22:03Z</time>
      </trkpt>
      <trkpt lat="50.01451" lon="4.25846">
        <ele>270.6</ele>
        <time>2024-04-29T15:22:04Z</time>
      </trkpt>
      <trkpt lat="50.01451" lon="4.25857">
        <ele>270.8</ele>
        <time>2024-04-29T15:22:05Z</time>
      </trkpt>
      <trkpt lat="50.0145" lon="4.25867">
        <ele>270.6</ele>
        <time>2024-04-29T15:22:06Z</time>
      </trkpt>
      <trkpt lat="50.01449" lon="4.25877">
        <ele>270.8</ele>
        <time>2024-04-29T15:22:07Z</time>
      </trkpt>
      <trkpt lat="50.01449" lon="4.25887">
        <ele>270.8</ele>
        <time>2024-04-29T15:22:08Z</time>
      </trkpt>
      <trkpt lat="50.01449" lon="4.25897">
        <ele>270.8</ele>
        <time>2024-04-29T15:22:09Z</time>
      </trkpt>
      <trkpt lat="50.01448" lon="4.25908">
        <ele>270.6</ele>
        <time>2024-04-29T15:22:10Z</time>
      </trkpt>
      <trkpt lat="50.01448" lon="4.25918">
        <ele>271</ele>
        <time>2024-04-29T15:22:11Z</time>
      </trkpt>
      <trkpt lat="50.01447" lon="4.25927">
        <ele>271</ele>
        <time>2024-04-29T15:22:12Z</time>
      </trkpt>
      <trkpt lat="50.01446" lon="4.25937">
        <ele>271</ele>
        <time>2024-04-29T15:22:13Z</time>
      </trkpt>
      <trkpt lat="50.01445" lon="4.25947">
        <ele>271.2</ele>
        <time>2024-04-29T15:22:14Z</time>
      </trkpt>
      <trkpt lat="50.01444" lon="4.25957">
        <ele>271.6</ele>
        <time>2024-04-29T15:22:15Z</time>
      </trkpt>
      <trkpt lat="50.01442" lon="4.25967">
        <ele>272</ele>
        <time>2024-04-29T15:22:16Z</time>
      </trkpt>
      <trkpt lat="50.0144" lon="4.25976">
        <ele>272</ele>
        <time>2024-04-29T15:22:17Z</time>
      </trkpt>
      <trkpt lat="50.01439" lon="4.25986">
        <ele>272.2</ele>
        <time>2024-04-29T15:22:18Z</time>
      </trkpt>
      <trkpt lat="50.01436" lon="4.25995">
        <ele>272.2</ele>
        <time>2024-04-29T15:22:19Z</time>
      </trkpt>
      <trkpt lat="50.01433" lon="4.26004">
        <ele>272.4</ele>
        <time>2024-04-29T15:22:20Z</time>
      </trkpt>
      <trkpt lat="50.0143" lon="4.26013">
        <ele>272.6</ele>
        <time>2024-04-29T15:22:21Z</time>
      </trkpt>
      <trkpt lat="50.01427" lon="4.26022">
        <ele>272.8</ele>
        <time>2024-04-29T15:22:22Z</time>
      </trkpt>
      <trkpt lat="50.01424" lon="4.26031">
        <ele>273</ele>
        <time>2024-04-29T15:22:23Z</time>
      </trkpt>
      <trkpt lat="50.0142" lon="4.26039">
        <ele>273.2</ele>
        <time>2024-04-29T15:22:24Z</time>
      </trkpt>
      <trkpt lat="50.01417" lon="4.26048">
        <ele>273.4</ele>
        <time>2024-04-29T15:22:25Z</time>
      </trkpt>
      <trkpt lat="50.01414" lon="4.26056">
        <ele>273.4</ele>
        <time>2024-04-29T15:22:26Z</time>
      </trkpt>
      <trkpt lat="50.01411" lon="4.26065">
        <ele>273.6</ele>
        <time>2024-04-29T15:22:27Z</time>
      </trkpt>
      <trkpt lat="50.01408" lon="4.26073">
        <ele>273.8</ele>
        <time>2024-04-29T15:22:28Z</time>
      </trkpt>
      <trkpt lat="50.01404" lon="4.26082">
        <ele>274</ele>
        <time>2024-04-29T15:22:29Z</time>
      </trkpt>
      <trkpt lat="50.01401" lon="4.2609">
        <ele>274.2</ele>
        <time>2024-04-29T15:22:30Z</time>
      </trkpt>
      <trkpt lat="50.01398" lon="4.26099">
        <ele>274.4</ele>
        <time>2024-04-29T15:22:31Z</time>
      </trkpt>
      <trkpt lat="50.01394" lon="4.26108">
        <ele>274.4</ele>
        <time>2024-04-29T15:22:32Z</time>
      </trkpt>
      <trkpt lat="50.01391" lon="4.26117">
        <ele>274.8</ele>
        <time>2024-04-29T15:22:33Z</time>
      </trkpt>
      <trkpt lat="50.01388" lon="4.26126">
        <ele>275</ele>
        <time>2024-04-29T15:22:34Z</time>
      </trkpt>
      <trkpt lat="50.01384" lon="4.26135">
        <ele>275</ele>
        <time>2024-04-29T15:22:35Z</time>
      </trkpt>
      <trkpt lat="50.0138" lon="4.26145">
        <ele>275.2</ele>
        <time>2024-04-29T15:22:36Z</time>
      </trkpt>
      <trkpt lat="50.01377" lon="4.26154">
        <ele>275.2</ele>
        <time>2024-04-29T15:22:37Z</time>
      </trkpt>
      <trkpt lat="50.01373" lon="4.26164">
        <ele>275.2</ele>
        <time>2024-04-29T15:22:38Z</time>
      </trkpt>
      <trkpt lat="50.0137" lon="4.26173">
        <ele>275.2</ele>
        <time>2024-04-29T15:22:39Z</time>
      </trkpt>
      <trkpt lat="50.01366" lon="4.26183">
        <ele>275.2</ele>
        <time>2024-04-29T15:22:40Z</time>
      </trkpt>
      <trkpt lat="50.01362" lon="4.26193">
        <ele>275.2</ele>
        <time>2024-04-29T15:22:41Z</time>
      </trkpt>
      <trkpt lat="50.01358" lon="4.26202">
        <ele>275.4</ele>
        <time>2024-04-29T15:22:42Z</time>
      </trkpt>
      <trkpt lat="50.01355" lon="4.26212">
        <ele>275.2</ele>
        <time>2024-04-29T15:22:43Z</time>
      </trkpt>
      <trkpt lat="50.01351" lon="4.26222">
        <ele>275.2</ele>
        <time>2024-04-29T15:22:44Z</time>
      </trkpt>
      <trkpt lat="50.01347" lon="4.26232">
        <ele>275.2</ele>
        <time>2024-04-29T15:22:45Z</time>
      </trkpt>
      <trkpt lat="50.01344" lon="4.26242">
        <ele>274.8</ele>
        <time>2024-04-29T15:22:46Z</time>
      </trkpt>
      <trkpt lat="50.0134" lon="4.26252">
        <ele>274.8</ele>
        <time>2024-04-29T15:22:47Z</time>
      </trkpt>
      <trkpt lat="50.01336" lon="4.26262">
        <ele>274.6</ele>
        <time>2024-04-29T15:22:48Z</time>
      </trkpt>
      <trkpt lat="50.01333" lon="4.26272">
        <ele>274.4</ele>
        <time>2024-04-29T15:22:49Z</time>
      </trkpt>
      <trkpt lat="50.01329" lon="4.26282">
        <ele>274.2</ele>
        <time>2024-04-29T15:22:50Z</time>
      </trkpt>
      <trkpt lat="50.01326" lon="4.26293">
        <ele>273.8</ele>
        <time>2024-04-29T15:22:51Z</time>
      </trkpt>
      <trkpt lat="50.01323" lon="4.26303">
        <ele>273.4</ele>
        <time>2024-04-29T15:22:52Z</time>
      </trkpt>
      <trkpt lat="50.01319" lon="4.26314">
        <ele>273.4</ele>
        <time>2024-04-29T15:22:53Z</time>
      </trkpt>
      <trkpt lat="50.01317" lon="4.26324">
        <ele>273.2</ele>
        <time>2024-04-29T15:22:54Z</time>
      </trkpt>
      <trkpt lat="50.01314" lon="4.26335">
        <ele>273</ele>
        <time>2024-04-29T15:22:55Z</time>
      </trkpt>
      <trkpt lat="50.01311" lon="4.26346">
        <ele>273</ele>
        <time>2024-04-29T15:22:56Z</time>
      </trkpt>
      <trkpt lat="50.01309" lon="4.26357">
        <ele>273</ele>
        <time>2024-04-29T15:22:57Z</time>
      </trkpt>
      <trkpt lat="50.01307" lon="4.26368">
        <ele>272.6</ele>
        <time>2024-04-29T15:22:58Z</time>
      </trkpt>
      <trkpt lat="50.01305" lon="4.26379">
        <ele>272.4</ele>
        <time>2024-04-29T15:22:59Z</time>
      </trkpt>
      <trkpt lat="50.01303" lon="4.2639">
        <ele>272.2</ele>
        <time>2024-04-29T15:23:00Z</time>
      </trkpt>
      <trkpt lat="50.01301" lon="4.26401">
        <ele>271.8</ele>
        <time>2024-04-29T15:23:01Z</time>
      </trkpt>
      <trkpt lat="50.013" lon="4.26412">
        <ele>271.8</ele>
        <time>2024-04-29T15:23:02Z</time>
      </trkpt>
      <trkpt lat="50.01298" lon="4.26422">
        <ele>271.6</ele>
        <time>2024-04-29T15:23:03Z</time>
      </trkpt>
      <trkpt lat="50.01297" lon="4.26433">
        <ele>271.4</ele>
        <time>2024-04-29T15:23:04Z</time>
      </trkpt>
      <trkpt lat="50.01296" lon="4.26444">
        <ele>271.4</ele>
        <time>2024-04-29T15:23:05Z</time>
      </trkpt>
      <trkpt lat="50.01294" lon="4.26454">
        <ele>271.2</ele>
        <time>2024-04-29T15:23:06Z</time>
      </trkpt>
      <trkpt lat="50.01293" lon="4.26465">
        <ele>271.2</ele>
        <time>2024-04-29T15:23:07Z</time>
      </trkpt>
      <trkpt lat="50.01292" lon="4.26475">
        <ele>271.2</ele>
        <time>2024-04-29T15:23:08Z</time>
      </trkpt>
      <trkpt lat="50.0129" lon="4.26485">
        <ele>271.2</ele>
        <time>2024-04-29T15:23:09Z</time>
      </trkpt>
      <trkpt lat="50.01289" lon="4.26494">
        <ele>271.2</ele>
        <time>2024-04-29T15:23:10Z</time>
      </trkpt>
      <trkpt lat="50.01287" lon="4.26503">
        <ele>271.2</ele>
        <time>2024-04-29T15:23:11Z</time>
      </trkpt>
      <trkpt lat="50.01286" lon="4.26512">
        <ele>271.2</ele>
        <time>2024-04-29T15:23:12Z</time>
      </trkpt>
      <trkpt lat="50.01284" lon="4.26521">
        <ele>271.2</ele>
        <time>2024-04-29T15:23:13Z</time>
      </trkpt>
      <trkpt lat="50.01282" lon="4.26529">
        <ele>271.4</ele>
        <time>2024-04-29T15:23:14Z</time>
      </trkpt>
      <trkpt lat="50.01281" lon="4.26538">
        <ele>271.8</ele>
        <time>2024-04-29T15:23:15Z</time>
      </trkpt>
      <trkpt lat="50.01279" lon="4.26546">
        <ele>271.8</ele>
        <time>2024-04-29T15:23:16Z</time>
      </trkpt>
      <trkpt lat="50.01276" lon="4.26554">
        <ele>271.8</ele>
        <time>2024-04-29T15:23:17Z</time>
      </trkpt>
      <trkpt lat="50.01274" lon="4.26561">
        <ele>271.8</ele>
        <time>2024-04-29T15:23:18Z</time>
      </trkpt>
      <trkpt lat="50.01272" lon="4.26569">
        <ele>272</ele>
        <time>2024-04-29T15:23:19Z</time>
      </trkpt>
      <trkpt lat="50.0127" lon="4.26576">
        <ele>272.2</ele>
        <time>2024-04-29T15:23:20Z</time>
      </trkpt>
      <trkpt lat="50.01267" lon="4.26583">
        <ele>272.4</ele>
        <time>2024-04-29T15:23:21Z</time>
      </trkpt>
      <trkpt lat="50.01264" lon="4.2659">
        <ele>272.8</ele>
        <time>2024-04-29T15:23:22Z</time>
      </trkpt>
      <trkpt lat="50.01262" lon="4.26597">
        <ele>273.4</ele>
        <time>2024-04-29T15:23:23Z</time>
      </trkpt>
      <trkpt lat="50.01259" lon="4.26604">
        <ele>274.2</ele>
        <time>2024-04-29T15:23:24Z</time>
      </trkpt>
      <trkpt lat="50.01256" lon="4.2661">
        <ele>274.6</ele>
        <time>2024-04-29T15:23:25Z</time>
      </trkpt>
      <trkpt lat="50.01254" lon="4.26617">
        <ele>275</ele>
        <time>2024-04-29T15:23:26Z</time>
      </trkpt>
      <trkpt lat="50.01251" lon="4.26623">
        <ele>275</ele>
        <time>2024-04-29T15:23:27Z</time>
      </trkpt>
      <trkpt lat="50.01248" lon="4.2663">
        <ele>275.4</ele>
        <time>2024-04-29T15:23:28Z</time>
      </trkpt>
      <trkpt lat="50.01246" lon="4.26636">
        <ele>275.8</ele>
        <time>2024-04-29T15:23:29Z</time>
      </trkpt>
      <trkpt lat="50.01243" lon="4.26643">
        <ele>276.2</ele>
        <time>2024-04-29T15:23:30Z</time>
      </trkpt>
      <trkpt lat="50.0124" lon="4.26649">
        <ele>276.4</ele>
        <time>2024-04-29T15:23:31Z</time>
      </trkpt>
      <trkpt lat="50.01238" lon="4.26655">
        <ele>276.6</ele>
        <time>2024-04-29T15:23:32Z</time>
      </trkpt>
      <trkpt lat="50.01235" lon="4.26662">
        <ele>276.8</ele>
        <time>2024-04-29T15:23:33Z</time>
      </trkpt>
      <trkpt lat="50.01233" lon="4.26668">
        <ele>277</ele>
        <time>2024-04-29T15:23:34Z</time>
      </trkpt>
      <trkpt lat="50.0123" lon="4.26674">
        <ele>277</ele>
        <time>2024-04-29T15:23:35Z</time>
      </trkpt>
      <trkpt lat="50.01227" lon="4.26681">
        <ele>277.6</ele>
        <time>2024-04-29T15:23:36Z</time>
      </trkpt>
      <trkpt lat="50.01225" lon="4.26687">
        <ele>278</ele>
        <time>2024-04-29T15:23:37Z</time>
      </trkpt>
      <trkpt lat="50.01222" lon="4.26693">
        <ele>278.2</ele>
        <time>2024-04-29T15:23:38Z</time>
      </trkpt>
      <trkpt lat="50.0122" lon="4.267">
        <ele>278.6</ele>
        <time>2024-04-29T15:23:39Z</time>
      </trkpt>
      <trkpt lat="50.01217" lon="4.26706">
        <ele>278.6</ele>
        <time>2024-04-29T15:23:40Z</time>
      </trkpt>
      <trkpt lat="50.01214" lon="4.26713">
        <ele>278.8</ele>
        <time>2024-04-29T15:23:41Z</time>
      </trkpt>
      <trkpt lat="50.01212" lon="4.26719">
        <ele>279</ele>
        <time>2024-04-29T15:23:42Z</time>
      </trkpt>
      <trkpt lat="50.01209" lon="4.26726">
        <ele>279.4</ele>
        <time>2024-04-29T15:23:43Z</time>
      </trkpt>
      <trkpt lat="50.01206" lon="4.26732">
        <ele>279.8</ele>
        <time>2024-04-29T15:23:44Z</time>
      </trkpt>
      <trkpt lat="50.01204" lon="4.26738">
        <ele>280</ele>
        <time>2024-04-29T15:23:45Z</time>
      </trkpt>
      <trkpt lat="50.01201" lon="4.26745">
        <ele>280.2</ele>
        <time>2024-04-29T15:23:46Z</time>
      </trkpt>
      <trkpt lat="50.01198" lon="4.26751">
        <ele>280.4</ele>
        <time>2024-04-29T15:23:47Z</time>
      </trkpt>
      <trkpt lat="50.01196" lon="4.26758">
        <ele>280.6</ele>
        <time>2024-04-29T15:23:48Z</time>
      </trkpt>
      <trkpt lat="50.01193" lon="4.26764">
        <ele>280.6</ele>
        <time>2024-04-29T15:23:49Z</time>
      </trkpt>
      <trkpt lat="50.0119" lon="4.26771">
        <ele>281</ele>
        <time>2024-04-29T15:23:50Z</time>
      </trkpt>
      <trkpt lat="50.01188" lon="4.26777">
        <ele>281</ele>
        <time>2024-04-29T15:23:51Z</time>
      </trkpt>
      <trkpt lat="50.01185" lon="4.26784">
        <ele>281</ele>
        <time>2024-04-29T15:23:52Z</time>
      </trkpt>
      <trkpt lat="50.01183" lon="4.2679">
        <ele>281.2</ele>
        <time>2024-04-29T15:23:53Z</time>
      </trkpt>
      <trkpt lat="50.0118" lon="4.26796">
        <ele>281.6</ele>
        <time>2024-04-29T15:23:54Z</time>
      </trkpt>
      <trkpt lat="50.01178" lon="4.26803">
        <ele>281.8</ele>
        <time>2024-04-29T15:23:55Z</time>
      </trkpt>
      <trkpt lat="50.01175" lon="4.26809">
        <ele>282.2</ele>
        <time>2024-04-29T15:23:56Z</time>
      </trkpt>
      <trkpt lat="50.01172" lon="4.26815">
        <ele>282.4</ele>
        <time>2024-04-29T15:23:57Z</time>
      </trkpt>
      <trkpt lat="50.0117" lon="4.26822">
        <ele>282.4</ele>
        <time>2024-04-29T15:23:58Z</time>
      </trkpt>
      <trkpt lat="50.01167" lon="4.26828">
        <ele>282.8</ele>
        <time>2024-04-29T15:23:59Z</time>
      </trkpt>
      <trkpt lat="50.01165" lon="4.26835">
        <ele>283.2</ele>
        <time>2024-04-29T15:24:00Z</time>
      </trkpt>
      <trkpt lat="50.01162" lon="4.26841">
        <ele>283.6</ele>
        <time>2024-04-29T15:24:01Z</time>
      </trkpt>
      <trkpt lat="50.01159" lon="4.26848">
        <ele>283.6</ele>
        <time>2024-04-29T15:24:02Z</time>
      </trkpt>
      <trkpt lat="50.01157" lon="4.26854">
        <ele>283.8</ele>
        <time>2024-04-29T15:24:03Z</time>
      </trkpt>
      <trkpt lat="50.01154" lon="4.26861">
        <ele>284</ele>
        <time>2024-04-29T15:24:04Z</time>
      </trkpt>
      <trkpt lat="50.01151" lon="4.26868">
        <ele>284.2</ele>
        <time>2024-04-29T15:24:05Z</time>
      </trkpt>
      <trkpt lat="50.01148" lon="4.26875">
        <ele>284.4</ele>
        <time>2024-04-29T15:24:06Z</time>
      </trkpt>
      <trkpt lat="50.01145" lon="4.26882">
        <ele>284.8</ele>
        <time>2024-04-29T15:24:07Z</time>
      </trkpt>
      <trkpt lat="50.01142" lon="4.26889">
        <ele>285</ele>
        <time>2024-04-29T15:24:08Z</time>
      </trkpt>
      <trkpt lat="50.01139" lon="4.26897">
        <ele>285</ele>
        <time>2024-04-29T15:24:09Z</time>
      </trkpt>
      <trkpt lat="50.01136" lon="4.26904">
        <ele>285.2</ele>
        <time>2024-04-29T15:24:10Z</time>
      </trkpt>
      <trkpt lat="50.01133" lon="4.26912">
        <ele>285.4</ele>
        <time>2024-04-29T15:24:11Z</time>
      </trkpt>
      <trkpt lat="50.0113" lon="4.2692">
        <ele>285.4</ele>
        <time>2024-04-29T15:24:12Z</time>
      </trkpt>
      <trkpt lat="50.01126" lon="4.26928">
        <ele>285.4</ele>
        <time>2024-04-29T15:24:13Z</time>
      </trkpt>
      <trkpt lat="50.01123" lon="4.26936">
        <ele>285.6</ele>
        <time>2024-04-29T15:24:14Z</time>
      </trkpt>
      <trkpt lat="50.01119" lon="4.26945">
        <ele>285.6</ele>
        <time>2024-04-29T15:24:15Z</time>
      </trkpt>
      <trkpt lat="50.01116" lon="4.26954">
        <ele>285.6</ele>
        <time>2024-04-29T15:24:16Z</time>
      </trkpt>
      <trkpt lat="50.01112" lon="4.26963">
        <ele>285.6</ele>
        <time>2024-04-29T15:24:17Z</time>
      </trkpt>
      <trkpt lat="50.01109" lon="4.26972">
        <ele>285.8</ele>
        <time>2024-04-29T15:24:18Z</time>
      </trkpt>
      <trkpt lat="50.01105" lon="4.26981">
        <ele>285.8</ele>
        <time>2024-04-29T15:24:19Z</time>
      </trkpt>
      <trkpt lat="50.01102" lon="4.2699">
        <ele>286</ele>
        <time>2024-04-29T15:24:20Z</time>
      </trkpt>
      <trkpt lat="50.01098" lon="4.26999">
        <ele>286.2</ele>
        <time>2024-04-29T15:24:21Z</time>
      </trkpt>
      <trkpt lat="50.01095" lon="4.27009">
        <ele>286.2</ele>
        <time>2024-04-29T15:24:22Z</time>
      </trkpt>
      <trkpt lat="50.01092" lon="4.27018">
        <ele>286.2</ele>
        <time>2024-04-29T15:24:23Z</time>
      </trkpt>
      <trkpt lat="50.01089" lon="4.27028">
        <ele>286.2</ele>
        <time>2024-04-29T15:24:24Z</time>
      </trkpt>
      <trkpt lat="50.01086" lon="4.27038">
        <ele>286.2</ele>
        <time>2024-04-29T15:24:25Z</time>
      </trkpt>
      <trkpt lat="50.01084" lon="4.27048">
        <ele>286.2</ele>
        <time>2024-04-29T15:24:26Z</time>
      </trkpt>
      <trkpt lat="50.01082" lon="4.27058">
        <ele>286.2</ele>
        <time>2024-04-29T15:24:27Z</time>
      </trkpt>
      <trkpt lat="50.0108" lon="4.27069">
        <ele>286.2</ele>
        <time>2024-04-29T15:24:28Z</time>
      </trkpt>
      <trkpt lat="50.01078" lon="4.2708">
        <ele>286.2</ele>
        <time>2024-04-29T15:24:29Z</time>
      </trkpt>
      <trkpt lat="50.01077" lon="4.2709">
        <ele>286.2</ele>
        <time>2024-04-29T15:24:30Z</time>
      </trkpt>
      <trkpt lat="50.01075" lon="4.27101">
        <ele>286.2</ele>
        <time>2024-04-29T15:24:31Z</time>
      </trkpt>
      <trkpt lat="50.01074" lon="4.27112">
        <ele>286.2</ele>
        <time>2024-04-29T15:24:32Z</time>
      </trkpt>
      <trkpt lat="50.01073" lon="4.27122">
        <ele>286.2</ele>
        <time>2024-04-29T15:24:33Z</time>
      </trkpt>
      <trkpt lat="50.01073" lon="4.27133">
        <ele>286.2</ele>
        <time>2024-04-29T15:24:34Z</time>
      </trkpt>
      <trkpt lat="50.01073" lon="4.27145">
        <ele>286.2</ele>
        <time>2024-04-29T15:24:35Z</time>
      </trkpt>
      <trkpt lat="50.01073" lon="4.27156">
        <ele>286</ele>
        <time>2024-04-29T15:24:36Z</time>
      </trkpt>
      <trkpt lat="50.01074" lon="4.27168">
        <ele>286</ele>
        <time>2024-04-29T15:24:37Z</time>
      </trkpt>
      <trkpt lat="50.01074" lon="4.2718">
        <ele>285.6</ele>
        <time>2024-04-29T15:24:38Z</time>
      </trkpt>
      <trkpt lat="50.01075" lon="4.27192">
        <ele>285.4</ele>
        <time>2024-04-29T15:24:39Z</time>
      </trkpt>
      <trkpt lat="50.01076" lon="4.27204">
        <ele>285.4</ele>
        <time>2024-04-29T15:24:40Z</time>
      </trkpt>
      <trkpt lat="50.01077" lon="4.27216">
        <ele>285</ele>
        <time>2024-04-29T15:24:41Z</time>
      </trkpt>
      <trkpt lat="50.01079" lon="4.27229">
        <ele>284.8</ele>
        <time>2024-04-29T15:24:42Z</time>
      </trkpt>
      <trkpt lat="50.01081" lon="4.27242">
        <ele>284.6</ele>
        <time>2024-04-29T15:24:43Z</time>
      </trkpt>
      <trkpt lat="50.01083" lon="4.27254">
        <ele>284.6</ele>
        <time>2024-04-29T15:24:44Z</time>
      </trkpt>
      <trkpt lat="50.01085" lon="4.27267">
        <ele>284.2</ele>
        <time>2024-04-29T15:24:45Z</time>
      </trkpt>
      <trkpt lat="50.01088" lon="4.2728">
        <ele>283.6</ele>
        <time>2024-04-29T15:24:46Z</time>
      </trkpt>
      <trkpt lat="50.0109" lon="4.27294">
        <ele>283.6</ele>
        <time>2024-04-29T15:24:47Z</time>
      </trkpt>
      <trkpt lat="50.01093" lon="4.27307">
        <ele>283</ele>
        <time>2024-04-29T15:24:48Z</time>
      </trkpt>
      <trkpt lat="50.01096" lon="4.2732">
        <ele>282</ele>
        <time>2024-04-29T15:24:49Z</time>
      </trkpt>
      <trkpt lat="50.01099" lon="4.27334">
        <ele>281.4</ele>
        <time>2024-04-29T15:24:50Z</time>
      </trkpt>
      <trkpt lat="50.01102" lon="4.27347">
        <ele>280.6</ele>
        <time>2024-04-29T15:24:51Z</time>
      </trkpt>
      <trkpt lat="50.01105" lon="4.2736">
        <ele>280.2</ele>
        <time>2024-04-29T15:24:52Z</time>
      </trkpt>
      <trkpt lat="50.01108" lon="4.27373">
        <ele>279.8</ele>
        <time>2024-04-29T15:24:53Z</time>
      </trkpt>
      <trkpt lat="50.01111" lon="4.27385">
        <ele>279.6</ele>
        <time>2024-04-29T15:24:54Z</time>
      </trkpt>
      <trkpt lat="50.01114" lon="4.27397">
        <ele>279.6</ele>
        <time>2024-04-29T15:24:55Z</time>
      </trkpt>
      <trkpt lat="50.01116" lon="4.27408">
        <ele>279.6</ele>
        <time>2024-04-29T15:24:56Z</time>
      </trkpt>
      <trkpt lat="50.01119" lon="4.2742">
        <ele>279.4</ele>
        <time>2024-04-29T15:24:57Z</time>
      </trkpt>
      <trkpt lat="50.01121" lon="4.27431">
        <ele>279.4</ele>
        <time>2024-04-29T15:24:58Z</time>
      </trkpt>
      <trkpt lat="50.01124" lon="4.27441">
        <ele>279.2</ele>
        <time>2024-04-29T15:24:59Z</time>
      </trkpt>
      <trkpt lat="50.01126" lon="4.27452">
        <ele>279.2</ele>
        <time>2024-04-29T15:25:00Z</time>
      </trkpt>
      <trkpt lat="50.01128" lon="4.27463">
        <ele>279.2</ele>
        <time>2024-04-29T15:25:01Z</time>
      </trkpt>
      <trkpt lat="50.0113" lon="4.27473">
        <ele>279</ele>
        <time>2024-04-29T15:25:02Z</time>
      </trkpt>
      <trkpt lat="50.01133" lon="4.27484">
        <ele>279</ele>
        <time>2024-04-29T15:25:03Z</time>
      </trkpt>
      <trkpt lat="50.01135" lon="4.27494">
        <ele>279.2</ele>
        <time>2024-04-29T15:25:04Z</time>
      </trkpt>
      <trkpt lat="50.01138" lon="4.27504">
        <ele>279.4</ele>
        <time>2024-04-29T15:25:05Z</time>
      </trkpt>
      <trkpt lat="50.0114" lon="4.27515">
        <ele>279.2</ele>
        <time>2024-04-29T15:25:06Z</time>
      </trkpt>
      <trkpt lat="50.01142" lon="4.27525">
        <ele>279.4</ele>
        <time>2024-04-29T15:25:07Z</time>
      </trkpt>
      <trkpt lat="50.01144" lon="4.27536">
        <ele>279.4</ele>
        <time>2024-04-29T15:25:08Z</time>
      </trkpt>
      <trkpt lat="50.01147" lon="4.27546">
        <ele>279.6</ele>
        <time>2024-04-29T15:25:09Z</time>
      </trkpt>
      <trkpt lat="50.01149" lon="4.27556">
        <ele>279.6</ele>
        <time>2024-04-29T15:25:10Z</time>
      </trkpt>
      <trkpt lat="50.01151" lon="4.27566">
        <ele>279.6</ele>
        <time>2024-04-29T15:25:11Z</time>
      </trkpt>
      <trkpt lat="50.01154" lon="4.27576">
        <ele>279.4</ele>
        <time>2024-04-29T15:25:12Z</time>
      </trkpt>
      <trkpt lat="50.01156" lon="4.27586">
        <ele>279.6</ele>
        <time>2024-04-29T15:25:13Z</time>
      </trkpt>
      <trkpt lat="50.01159" lon="4.27596">
        <ele>279.6</ele>
        <time>2024-04-29T15:25:14Z</time>
      </trkpt>
      <trkpt lat="50.01161" lon="4.27605">
        <ele>279.6</ele>
        <time>2024-04-29T15:25:15Z</time>
      </trkpt>
      <trkpt lat="50.01163" lon="4.27615">
        <ele>279.6</ele>
        <time>2024-04-29T15:25:16Z</time>
      </trkpt>
      <trkpt lat="50.01165" lon="4.27625">
        <ele>279.8</ele>
        <time>2024-04-29T15:25:17Z</time>
      </trkpt>
      <trkpt lat="50.01167" lon="4.27634">
        <ele>279.8</ele>
        <time>2024-04-29T15:25:18Z</time>
      </trkpt>
      <trkpt lat="50.01169" lon="4.27645">
        <ele>279.6</ele>
        <time>2024-04-29T15:25:19Z</time>
      </trkpt>
      <trkpt lat="50.01171" lon="4.27655">
        <ele>279.6</ele>
        <time>2024-04-29T15:25:20Z</time>
      </trkpt>
      <trkpt lat="50.01173" lon="4.27665">
        <ele>279.8</ele>
        <time>2024-04-29T15:25:21Z</time>
      </trkpt>
      <trkpt lat="50.01175" lon="4.27676">
        <ele>279.8</ele>
        <time>2024-04-29T15:25:22Z</time>
      </trkpt>
      <trkpt lat="50.01178" lon="4.27686">
        <ele>279.6</ele>
        <time>2024-04-29T15:25:23Z</time>
      </trkpt>
      <trkpt lat="50.0118" lon="4.27696">
        <ele>279.6</ele>
        <time>2024-04-29T15:25:24Z</time>
      </trkpt>
      <trkpt lat="50.01182" lon="4.27706">
        <ele>279.8</ele>
        <time>2024-04-29T15:25:25Z</time>
      </trkpt>
      <trkpt lat="50.01184" lon="4.27716">
        <ele>279.8</ele>
        <time>2024-04-29T15:25:26Z</time>
      </trkpt>
      <trkpt lat="50.01186" lon="4.27727">
        <ele>279.6</ele>
        <time>2024-04-29T15:25:27Z</time>
      </trkpt>
      <trkpt lat="50.01189" lon="4.27737">
        <ele>279.6</ele>
        <time>2024-04-29T15:25:28Z</time>
      </trkpt>
      <trkpt lat="50.01191" lon="4.27747">
        <ele>279.6</ele>
        <time>2024-04-29T15:25:29Z</time>
      </trkpt>
      <trkpt lat="50.01193" lon="4.27757">
        <ele>279.2</ele>
        <time>2024-04-29T15:25:30Z</time>
      </trkpt>
      <trkpt lat="50.01195" lon="4.27767">
        <ele>279.2</ele>
        <time>2024-04-29T15:25:31Z</time>
      </trkpt>
      <trkpt lat="50.01197" lon="4.27777">
        <ele>279.2</ele>
        <time>2024-04-29T15:25:32Z</time>
      </trkpt>
      <trkpt lat="50.012" lon="4.27787">
        <ele>279.2</ele>
        <time>2024-04-29T15:25:33Z</time>
      </trkpt>
      <trkpt lat="50.01202" lon="4.27798">
        <ele>279</ele>
        <time>2024-04-29T15:25:34Z</time>
      </trkpt>
      <trkpt lat="50.01204" lon="4.27807">
        <ele>279</ele>
        <time>2024-04-29T15:25:35Z</time>
      </trkpt>
      <trkpt lat="50.01207" lon="4.27817">
        <ele>279</ele>
        <time>2024-04-29T15:25:36Z</time>
      </trkpt>
      <trkpt lat="50.01209" lon="4.27827">
        <ele>279</ele>
        <time>2024-04-29T15:25:37Z</time>
      </trkpt>
      <trkpt lat="50.01211" lon="4.27837">
        <ele>279</ele>
        <time>2024-04-29T15:25:38Z</time>
      </trkpt>
      <trkpt lat="50.01213" lon="4.27847">
        <ele>279</ele>
        <time>2024-04-29T15:25:39Z</time>
      </trkpt>
      <trkpt lat="50.01215" lon="4.27857">
        <ele>279</ele>
        <time>2024-04-29T15:25:40Z</time>
      </trkpt>
      <trkpt lat="50.01217" lon="4.27867">
        <ele>279</ele>
        <time>2024-04-29T15:25:41Z</time>
      </trkpt>
      <trkpt lat="50.01219" lon="4.27876">
        <ele>279</ele>
        <time>2024-04-29T15:25:42Z</time>
      </trkpt>
      <trkpt lat="50.0122" lon="4.27886">
        <ele>279.2</ele>
        <time>2024-04-29T15:25:43Z</time>
      </trkpt>
      <trkpt lat="50.01222" lon="4.27895">
        <ele>279.4</ele>
        <time>2024-04-29T15:25:44Z</time>
      </trkpt>
      <trkpt lat="50.01224" lon="4.27905">
        <ele>279.6</ele>
        <time>2024-04-29T15:25:45Z</time>
      </trkpt>
      <trkpt lat="50.01226" lon="4.27914">
        <ele>279.6</ele>
        <time>2024-04-29T15:25:46Z</time>
      </trkpt>
      <trkpt lat="50.01228" lon="4.27924">
        <ele>279.8</ele>
        <time>2024-04-29T15:25:47Z</time>
      </trkpt>
      <trkpt lat="50.0123" lon="4.27934">
        <ele>279.8</ele>
        <time>2024-04-29T15:25:48Z</time>
      </trkpt>
      <trkpt lat="50.01232" lon="4.27944">
        <ele>279.8</ele>
        <time>2024-04-29T15:25:49Z</time>
      </trkpt>
      <trkpt lat="50.01234" lon="4.27953">
        <ele>279.8</ele>
        <time>2024-04-29T15:25:50Z</time>
      </trkpt>
      <trkpt lat="50.01236" lon="4.27963">
        <ele>279.8</ele>
        <time>2024-04-29T15:25:51Z</time>
      </trkpt>
      <trkpt lat="50.01238" lon="4.27973">
        <ele>279.8</ele>
        <time>2024-04-29T15:25:52Z</time>
      </trkpt>
      <trkpt lat="50.0124" lon="4.27984">
        <ele>280</ele>
        <time>2024-04-29T15:25:53Z</time>
      </trkpt>
      <trkpt lat="50.01243" lon="4.27995">
        <ele>280</ele>
        <time>2024-04-29T15:25:54Z</time>
      </trkpt>
      <trkpt lat="50.01245" lon="4.28005">
        <ele>280</ele>
        <time>2024-04-29T15:25:55Z</time>
      </trkpt>
      <trkpt lat="50.01248" lon="4.28016">
        <ele>280</ele>
        <time>2024-04-29T15:25:56Z</time>
      </trkpt>
      <trkpt lat="50.0125" lon="4.28026">
        <ele>280</ele>
        <time>2024-04-29T15:25:57Z</time>
      </trkpt>
      <trkpt lat="50.01253" lon="4.28037">
        <ele>280.2</ele>
        <time>2024-04-29T15:25:58Z</time>
      </trkpt>
      <trkpt lat="50.01255" lon="4.28047">
        <ele>280</ele>
        <time>2024-04-29T15:25:59Z</time>
      </trkpt>
      <trkpt lat="50.01257" lon="4.28057">
        <ele>280.2</ele>
        <time>2024-04-29T15:26:00Z</time>
      </trkpt>
      <trkpt lat="50.01259" lon="4.28067">
        <ele>280</ele>
        <time>2024-04-29T15:26:01Z</time>
      </trkpt>
      <trkpt lat="50.01261" lon="4.28077">
        <ele>280</ele>
        <time>2024-04-29T15:26:02Z</time>
      </trkpt>
      <trkpt lat="50.01264" lon="4.28088">
        <ele>280</ele>
        <time>2024-04-29T15:26:03Z</time>
      </trkpt>
      <trkpt lat="50.01266" lon="4.28099">
        <ele>280</ele>
        <time>2024-04-29T15:26:04Z</time>
      </trkpt>
      <trkpt lat="50.01268" lon="4.28109">
        <ele>279.8</ele>
        <time>2024-04-29T15:26:05Z</time>
      </trkpt>
      <trkpt lat="50.0127" lon="4.2812">
        <ele>279.8</ele>
        <time>2024-04-29T15:26:06Z</time>
      </trkpt>
      <trkpt lat="50.01272" lon="4.28131">
        <ele>279.8</ele>
        <time>2024-04-29T15:26:07Z</time>
      </trkpt>
      <trkpt lat="50.01275" lon="4.28142">
        <ele>279.6</ele>
        <time>2024-04-29T15:26:08Z</time>
      </trkpt>
      <trkpt lat="50.01277" lon="4.28153">
        <ele>279.8</ele>
        <time>2024-04-29T15:26:09Z</time>
      </trkpt>
      <trkpt lat="50.0128" lon="4.28164">
        <ele>279.8</ele>
        <time>2024-04-29T15:26:10Z</time>
      </trkpt>
      <trkpt lat="50.01282" lon="4.28174">
        <ele>279.8</ele>
        <time>2024-04-29T15:26:11Z</time>
      </trkpt>
      <trkpt lat="50.01285" lon="4.28185">
        <ele>279.8</ele>
        <time>2024-04-29T15:26:12Z</time>
      </trkpt>
      <trkpt lat="50.01287" lon="4.28195">
        <ele>279.8</ele>
        <time>2024-04-29T15:26:13Z</time>
      </trkpt>
      <trkpt lat="50.01289" lon="4.28205">
        <ele>279.8</ele>
        <time>2024-04-29T15:26:14Z</time>
      </trkpt>
      <trkpt lat="50.01291" lon="4.28214">
        <ele>279.6</ele>
        <time>2024-04-29T15:26:15Z</time>
      </trkpt>
      <trkpt lat="50.01293" lon="4.28224">
        <ele>279.8</ele>
        <time>2024-04-29T15:26:16Z</time>
      </trkpt>
      <trkpt lat="50.01295" lon="4.28234">
        <ele>279.6</ele>
        <time>2024-04-29T15:26:17Z</time>
      </trkpt>
      <trkpt lat="50.01297" lon="4.28243">
        <ele>279.8</ele>
        <time>2024-04-29T15:26:18Z</time>
      </trkpt>
      <trkpt lat="50.01301" lon="4.28255">
        <ele>279.6</ele>
        <time>2024-04-29T15:26:19Z</time>
      </trkpt>
      <trkpt lat="50.01303" lon="4.28264">
        <ele>279.6</ele>
        <time>2024-04-29T15:26:20Z</time>
      </trkpt>
      <trkpt lat="50.01305" lon="4.28273">
        <ele>279.6</ele>
        <time>2024-04-29T15:26:21Z</time>
      </trkpt>
      <trkpt lat="50.01307" lon="4.28283">
        <ele>279.8</ele>
        <time>2024-04-29T15:26:22Z</time>
      </trkpt>
      <trkpt lat="50.01309" lon="4.28292">
        <ele>279.8</ele>
        <time>2024-04-29T15:26:23Z</time>
      </trkpt>
      <trkpt lat="50.01311" lon="4.28301">
        <ele>280</ele>
        <time>2024-04-29T15:26:24Z</time>
      </trkpt>
      <trkpt lat="50.01313" lon="4.28311">
        <ele>279.8</ele>
        <time>2024-04-29T15:26:25Z</time>
      </trkpt>
      <trkpt lat="50.01314" lon="4.2832">
        <ele>280</ele>
        <time>2024-04-29T15:26:26Z</time>
      </trkpt>
      <trkpt lat="50.01316" lon="4.28329">
        <ele>280</ele>
        <time>2024-04-29T15:26:27Z</time>
      </trkpt>
      <trkpt lat="50.01318" lon="4.28338">
        <ele>280</ele>
        <time>2024-04-29T15:26:28Z</time>
      </trkpt>
      <trkpt lat="50.0132" lon="4.28347">
        <ele>280.2</ele>
        <time>2024-04-29T15:26:29Z</time>
      </trkpt>
      <trkpt lat="50.01322" lon="4.28356">
        <ele>280.4</ele>
        <time>2024-04-29T15:26:30Z</time>
      </trkpt>
      <trkpt lat="50.01324" lon="4.28365">
        <ele>280.4</ele>
        <time>2024-04-29T15:26:31Z</time>
      </trkpt>
      <trkpt lat="50.01326" lon="4.28374">
        <ele>280.4</ele>
        <time>2024-04-29T15:26:32Z</time>
      </trkpt>
      <trkpt lat="50.01328" lon="4.28383">
        <ele>280.6</ele>
        <time>2024-04-29T15:26:33Z</time>
      </trkpt>
      <trkpt lat="50.0133" lon="4.28392">
        <ele>280.8</ele>
        <time>2024-04-29T15:26:34Z</time>
      </trkpt>
      <trkpt lat="50.01332" lon="4.28401">
        <ele>281.6</ele>
        <time>2024-04-29T15:26:35Z</time>
      </trkpt>
      <trkpt lat="50.01334" lon="4.2841">
        <ele>281.6</ele>
        <time>2024-04-29T15:26:36Z</time>
      </trkpt>
      <trkpt lat="50.01336" lon="4.28418">
        <ele>282.4</ele>
        <time>2024-04-29T15:26:37Z</time>
      </trkpt>
      <trkpt lat="50.01338" lon="4.28427">
        <ele>282.8</ele>
        <time>2024-04-29T15:26:38Z</time>
      </trkpt>
      <trkpt lat="50.0134" lon="4.28436">
        <ele>283.2</ele>
        <time>2024-04-29T15:26:39Z</time>
      </trkpt>
      <trkpt lat="50.01342" lon="4.28445">
        <ele>283.4</ele>
        <time>2024-04-29T15:26:40Z</time>
      </trkpt>
      <trkpt lat="50.01344" lon="4.28453">
        <ele>283.8</ele>
        <time>2024-04-29T15:26:41Z</time>
      </trkpt>
      <trkpt lat="50.01345" lon="4.28462">
        <ele>283.8</ele>
        <time>2024-04-29T15:26:42Z</time>
      </trkpt>
      <trkpt lat="50.01347" lon="4.28471">
        <ele>284.2</ele>
        <time>2024-04-29T15:26:43Z</time>
      </trkpt>
      <trkpt lat="50.01349" lon="4.28479">
        <ele>284.4</ele>
        <time>2024-04-29T15:26:44Z</time>
      </trkpt>
      <trkpt lat="50.01351" lon="4.28488">
        <ele>284.4</ele>
        <time>2024-04-29T15:26:45Z</time>
      </trkpt>
      <trkpt lat="50.01353" lon="4.28496">
        <ele>284.8</ele>
        <time>2024-04-29T15:26:46Z</time>
      </trkpt>
      <trkpt lat="50.01354" lon="4.28505">
        <ele>285.2</ele>
        <time>2024-04-29T15:26:47Z</time>
      </trkpt>
      <trkpt lat="50.01356" lon="4.28513">
        <ele>285.6</ele>
        <time>2024-04-29T15:26:48Z</time>
      </trkpt>
      <trkpt lat="50.01358" lon="4.28522">
        <ele>285.8</ele>
        <time>2024-04-29T15:26:49Z</time>
      </trkpt>
      <trkpt lat="50.0136" lon="4.2853">
        <ele>286</ele>
        <time>2024-04-29T15:26:50Z</time>
      </trkpt>
      <trkpt lat="50.01361" lon="4.28539">
        <ele>286.2</ele>
        <time>2024-04-29T15:26:51Z</time>
      </trkpt>
      <trkpt lat="50.01363" lon="4.28547">
        <ele>286.4</ele>
        <time>2024-04-29T15:26:52Z</time>
      </trkpt>
      <trkpt lat="50.01365" lon="4.28556">
        <ele>287</ele>
        <time>2024-04-29T15:26:53Z</time>
      </trkpt>
      <trkpt lat="50.01367" lon="4.28564">
        <ele>287.4</ele>
        <time>2024-04-29T15:26:54Z</time>
      </trkpt>
      <trkpt lat="50.01369" lon="4.28573">
        <ele>287.8</ele>
        <time>2024-04-29T15:26:55Z</time>
      </trkpt>
      <trkpt lat="50.01371" lon="4.28581">
        <ele>288</ele>
        <time>2024-04-29T15:26:56Z</time>
      </trkpt>
      <trkpt lat="50.01372" lon="4.2859">
        <ele>288.2</ele>
        <time>2024-04-29T15:26:57Z</time>
      </trkpt>
      <trkpt lat="50.01374" lon="4.28598">
        <ele>288.2</ele>
        <time>2024-04-29T15:26:58Z</time>
      </trkpt>
      <trkpt lat="50.01376" lon="4.28607">
        <ele>288.2</ele>
        <time>2024-04-29T15:26:59Z</time>
      </trkpt>
      <trkpt lat="50.01378" lon="4.28615">
        <ele>288.2</ele>
        <time>2024-04-29T15:27:00Z</time>
      </trkpt>
      <trkpt lat="50.0138" lon="4.28624">
        <ele>288.6</ele>
        <time>2024-04-29T15:27:01Z</time>
      </trkpt>
      <trkpt lat="50.01381" lon="4.28632">
        <ele>288.8</ele>
        <time>2024-04-29T15:27:02Z</time>
      </trkpt>
      <trkpt lat="50.01384" lon="4.28641">
        <ele>289</ele>
        <time>2024-04-29T15:27:03Z</time>
      </trkpt>
      <trkpt lat="50.01385" lon="4.2865">
        <ele>289.2</ele>
        <time>2024-04-29T15:27:04Z</time>
      </trkpt>
      <trkpt lat="50.01387" lon="4.28659">
        <ele>289.2</ele>
        <time>2024-04-29T15:27:05Z</time>
      </trkpt>
      <trkpt lat="50.01389" lon="4.28668">
        <ele>289.4</ele>
        <time>2024-04-29T15:27:06Z</time>
      </trkpt>
      <trkpt lat="50.01391" lon="4.28677">
        <ele>289.4</ele>
        <time>2024-04-29T15:27:07Z</time>
      </trkpt>
      <trkpt lat="50.01393" lon="4.28686">
        <ele>289.6</ele>
        <time>2024-04-29T15:27:08Z</time>
      </trkpt>
      <trkpt lat="50.01395" lon="4.28696">
        <ele>289.8</ele>
        <time>2024-04-29T15:27:09Z</time>
      </trkpt>
      <trkpt lat="50.01397" lon="4.28706">
        <ele>290</ele>
        <time>2024-04-29T15:27:10Z</time>
      </trkpt>
      <trkpt lat="50.014" lon="4.28715">
        <ele>290</ele>
        <time>2024-04-29T15:27:11Z</time>
      </trkpt>
      <trkpt lat="50.01402" lon="4.28725">
        <ele>290.2</ele>
        <time>2024-04-29T15:27:12Z</time>
      </trkpt>
      <trkpt lat="50.01404" lon="4.28735">
        <ele>290.4</ele>
        <time>2024-04-29T15:27:13Z</time>
      </trkpt>
      <trkpt lat="50.01406" lon="4.28744">
        <ele>290.8</ele>
        <time>2024-04-29T15:27:14Z</time>
      </trkpt>
      <trkpt lat="50.01408" lon="4.28753">
        <ele>290.8</ele>
        <time>2024-04-29T15:27:15Z</time>
      </trkpt>
      <trkpt lat="50.0141" lon="4.28761">
        <ele>290.8</ele>
        <time>2024-04-29T15:27:16Z</time>
      </trkpt>
      <trkpt lat="50.01412" lon="4.28769">
        <ele>291</ele>
        <time>2024-04-29T15:27:17Z</time>
      </trkpt>
      <trkpt lat="50.01414" lon="4.28777">
        <ele>291.4</ele>
        <time>2024-04-29T15:27:18Z</time>
      </trkpt>
      <trkpt lat="50.01415" lon="4.28785">
        <ele>291.6</ele>
        <time>2024-04-29T15:27:19Z</time>
      </trkpt>
      <trkpt lat="50.01417" lon="4.28792">
        <ele>291.6</ele>
        <time>2024-04-29T15:27:20Z</time>
      </trkpt>
      <trkpt lat="50.01418" lon="4.28799">
        <ele>291.6</ele>
        <time>2024-04-29T15:27:21Z</time>
      </trkpt>
      <trkpt lat="50.0142" lon="4.28805">
        <ele>291.8</ele>
        <time>2024-04-29T15:27:22Z</time>
      </trkpt>
      <trkpt lat="50.01421" lon="4.28812">
        <ele>291.8</ele>
        <time>2024-04-29T15:27:23Z</time>
      </trkpt>
      <trkpt lat="50.01422" lon="4.28819">
        <ele>291.8</ele>
        <time>2024-04-29T15:27:24Z</time>
      </trkpt>
      <trkpt lat="50.01424" lon="4.28825">
        <ele>291.8</ele>
        <time>2024-04-29T15:27:25Z</time>
      </trkpt>
      <trkpt lat="50.01426" lon="4.28832">
        <ele>292</ele>
        <time>2024-04-29T15:27:26Z</time>
      </trkpt>
      <trkpt lat="50.01427" lon="4.2884">
        <ele>292</ele>
        <time>2024-04-29T15:27:27Z</time>
      </trkpt>
      <trkpt lat="50.01429" lon="4.28848">
        <ele>292</ele>
        <time>2024-04-29T15:27:28Z</time>
      </trkpt>
      <trkpt lat="50.01431" lon="4.28858">
        <ele>292</ele>
        <time>2024-04-29T15:27:29Z</time>
      </trkpt>
      <trkpt lat="50.01433" lon="4.28867">
        <ele>292</ele>
        <time>2024-04-29T15:27:30Z</time>
      </trkpt>
      <trkpt lat="50.01435" lon="4.28876">
        <ele>292</ele>
        <time>2024-04-29T15:27:31Z</time>
      </trkpt>
      <trkpt lat="50.01438" lon="4.28886">
        <ele>292.2</ele>
        <time>2024-04-29T15:27:32Z</time>
      </trkpt>
      <trkpt lat="50.0144" lon="4.28895">
        <ele>292</ele>
        <time>2024-04-29T15:27:33Z</time>
      </trkpt>
      <trkpt lat="50.01442" lon="4.28905">
        <ele>292.4</ele>
        <time>2024-04-29T15:27:34Z</time>
      </trkpt>
      <trkpt lat="50.01444" lon="4.28915">
        <ele>292.4</ele>
        <time>2024-04-29T15:27:35Z</time>
      </trkpt>
      <trkpt lat="50.01446" lon="4.28925">
        <ele>292.6</ele>
        <time>2024-04-29T15:27:36Z</time>
      </trkpt>
      <trkpt lat="50.01448" lon="4.28935">
        <ele>292.6</ele>
        <time>2024-04-29T15:27:37Z</time>
      </trkpt>
      <trkpt lat="50.0145" lon="4.28945">
        <ele>292.8</ele>
        <time>2024-04-29T15:27:38Z</time>
      </trkpt>
      <trkpt lat="50.01452" lon="4.28955">
        <ele>292.8</ele>
        <time>2024-04-29T15:27:39Z</time>
      </trkpt>
      <trkpt lat="50.01454" lon="4.28965">
        <ele>292.8</ele>
        <time>2024-04-29T15:27:40Z</time>
      </trkpt>
      <trkpt lat="50.01457" lon="4.28975">
        <ele>292.8</ele>
        <time>2024-04-29T15:27:41Z</time>
      </trkpt>
      <trkpt lat="50.01459" lon="4.28985">
        <ele>292.8</ele>
        <time>2024-04-29T15:27:42Z</time>
      </trkpt>
      <trkpt lat="50.01461" lon="4.28995">
        <ele>292.8</ele>
        <time>2024-04-29T15:27:43Z</time>
      </trkpt>
      <trkpt lat="50.01463" lon="4.29005">
        <ele>293</ele>
        <time>2024-04-29T15:27:44Z</time>
      </trkpt>
      <trkpt lat="50.01465" lon="4.29015">
        <ele>292.8</ele>
        <time>2024-04-29T15:27:45Z</time>
      </trkpt>
      <trkpt lat="50.01468" lon="4.29025">
        <ele>293</ele>
        <time>2024-04-29T15:27:46Z</time>
      </trkpt>
      <trkpt lat="50.0147" lon="4.29035">
        <ele>293</ele>
        <time>2024-04-29T15:27:47Z</time>
      </trkpt>
      <trkpt lat="50.01472" lon="4.29045">
        <ele>292.8</ele>
        <time>2024-04-29T15:27:48Z</time>
      </trkpt>
      <trkpt lat="50.01475" lon="4.29055">
        <ele>293</ele>
        <time>2024-04-29T15:27:49Z</time>
      </trkpt>
      <trkpt lat="50.01477" lon="4.29065">
        <ele>292.8</ele>
        <time>2024-04-29T15:27:50Z</time>
      </trkpt>
      <trkpt lat="50.01479" lon="4.29075">
        <ele>292.8</ele>
        <time>2024-04-29T15:27:51Z</time>
      </trkpt>
      <trkpt lat="50.01481" lon="4.29085">
        <ele>293</ele>
        <time>2024-04-29T15:27:52Z</time>
      </trkpt>
      <trkpt lat="50.01483" lon="4.29096">
        <ele>293</ele>
        <time>2024-04-29T15:27:53Z</time>
      </trkpt>
      <trkpt lat="50.01485" lon="4.29106">
        <ele>292.8</ele>
        <time>2024-04-29T15:27:54Z</time>
      </trkpt>
      <trkpt lat="50.01487" lon="4.29115">
        <ele>293</ele>
        <time>2024-04-29T15:27:55Z</time>
      </trkpt>
      <trkpt lat="50.01489" lon="4.29125">
        <ele>293</ele>
        <time>2024-04-29T15:27:56Z</time>
      </trkpt>
      <trkpt lat="50.01492" lon="4.29135">
        <ele>293</ele>
        <time>2024-04-29T15:27:57Z</time>
      </trkpt>
      <trkpt lat="50.01494" lon="4.29145">
        <ele>293</ele>
        <time>2024-04-29T15:27:58Z</time>
      </trkpt>
      <trkpt lat="50.01496" lon="4.29155">
        <ele>293</ele>
        <time>2024-04-29T15:27:59Z</time>
      </trkpt>
      <trkpt lat="50.01498" lon="4.29165">
        <ele>293</ele>
        <time>2024-04-29T15:28:00Z</time>
      </trkpt>
      <trkpt lat="50.015" lon="4.29174">
        <ele>293</ele>
        <time>2024-04-29T15:28:01Z</time>
      </trkpt>
      <trkpt lat="50.01502" lon="4.29183">
        <ele>292.8</ele>
        <time>2024-04-29T15:28:02Z</time>
      </trkpt>
      <trkpt lat="50.01504" lon="4.29192">
        <ele>292.8</ele>
        <time>2024-04-29T15:28:03Z</time>
      </trkpt>
      <trkpt lat="50.01506" lon="4.29201">
        <ele>292.8</ele>
        <time>2024-04-29T15:28:04Z</time>
      </trkpt>
      <trkpt lat="50.01508" lon="4.2921">
        <ele>293</ele>
        <time>2024-04-29T15:28:05Z</time>
      </trkpt>
      <trkpt lat="50.0151" lon="4.2922">
        <ele>293</ele>
        <time>2024-04-29T15:28:06Z</time>
      </trkpt>
      <trkpt lat="50.01512" lon="4.2923">
        <ele>292.8</ele>
        <time>2024-04-29T15:28:07Z</time>
      </trkpt>
      <trkpt lat="50.01514" lon="4.29241">
        <ele>293</ele>
        <time>2024-04-29T15:28:08Z</time>
      </trkpt>
      <trkpt lat="50.01516" lon="4.2925">
        <ele>293.2</ele>
        <time>2024-04-29T15:28:09Z</time>
      </trkpt>
      <trkpt lat="50.01518" lon="4.2926">
        <ele>293.2</ele>
        <time>2024-04-29T15:28:10Z</time>
      </trkpt>
      <trkpt lat="50.0152" lon="4.2927">
        <ele>293.2</ele>
        <time>2024-04-29T15:28:11Z</time>
      </trkpt>
      <trkpt lat="50.01522" lon="4.2928">
        <ele>293.2</ele>
        <time>2024-04-29T15:28:12Z</time>
      </trkpt>
      <trkpt lat="50.01525" lon="4.2929">
        <ele>293.2</ele>
        <time>2024-04-29T15:28:13Z</time>
      </trkpt>
      <trkpt lat="50.01527" lon="4.293">
        <ele>293.2</ele>
        <time>2024-04-29T15:28:14Z</time>
      </trkpt>
      <trkpt lat="50.01529" lon="4.2931">
        <ele>293.2</ele>
        <time>2024-04-29T15:28:15Z</time>
      </trkpt>
      <trkpt lat="50.01531" lon="4.2932">
        <ele>293.2</ele>
        <time>2024-04-29T15:28:16Z</time>
      </trkpt>
      <trkpt lat="50.01533" lon="4.2933">
        <ele>293.4</ele>
        <time>2024-04-29T15:28:17Z</time>
      </trkpt>
      <trkpt lat="50.01535" lon="4.2934">
        <ele>293.2</ele>
        <time>2024-04-29T15:28:18Z</time>
      </trkpt>
      <trkpt lat="50.01537" lon="4.2935">
        <ele>293.4</ele>
        <time>2024-04-29T15:28:19Z</time>
      </trkpt>
      <trkpt lat="50.01539" lon="4.2936">
        <ele>293.2</ele>
        <time>2024-04-29T15:28:20Z</time>
      </trkpt>
      <trkpt lat="50.01541" lon="4.2937">
        <ele>293.4</ele>
        <time>2024-04-29T15:28:21Z</time>
      </trkpt>
      <trkpt lat="50.01544" lon="4.29381">
        <ele>293.4</ele>
        <time>2024-04-29T15:28:22Z</time>
      </trkpt>
      <trkpt lat="50.01546" lon="4.29391">
        <ele>293.2</ele>
        <time>2024-04-29T15:28:23Z</time>
      </trkpt>
      <trkpt lat="50.01548" lon="4.29401">
        <ele>293.2</ele>
        <time>2024-04-29T15:28:24Z</time>
      </trkpt>
      <trkpt lat="50.01551" lon="4.29411">
        <ele>293.2</ele>
        <time>2024-04-29T15:28:25Z</time>
      </trkpt>
      <trkpt lat="50.01553" lon="4.29421">
        <ele>293.2</ele>
        <time>2024-04-29T15:28:26Z</time>
      </trkpt>
      <trkpt lat="50.01555" lon="4.29431">
        <ele>293.2</ele>
        <time>2024-04-29T15:28:27Z</time>
      </trkpt>
      <trkpt lat="50.01557" lon="4.29441">
        <ele>293.4</ele>
        <time>2024-04-29T15:28:28Z</time>
      </trkpt>
      <trkpt lat="50.01559" lon="4.29451">
        <ele>293.2</ele>
        <time>2024-04-29T15:28:29Z</time>
      </trkpt>
      <trkpt lat="50.01561" lon="4.29461">
        <ele>293.4</ele>
        <time>2024-04-29T15:28:30Z</time>
      </trkpt>
      <trkpt lat="50.01563" lon="4.29471">
        <ele>293.2</ele>
        <time>2024-04-29T15:28:31Z</time>
      </trkpt>
      <trkpt lat="50.01565" lon="4.29481">
        <ele>293.2</ele>
        <time>2024-04-29T15:28:32Z</time>
      </trkpt>
      <trkpt lat="50.01567" lon="4.29491">
        <ele>293.2</ele>
        <time>2024-04-29T15:28:33Z</time>
      </trkpt>
      <trkpt lat="50.01569" lon="4.29501">
        <ele>293.2</ele>
        <time>2024-04-29T15:28:34Z</time>
      </trkpt>
      <trkpt lat="50.01571" lon="4.2951">
        <ele>293.2</ele>
        <time>2024-04-29T15:28:35Z</time>
      </trkpt>
      <trkpt lat="50.01574" lon="4.29519">
        <ele>293.2</ele>
        <time>2024-04-29T15:28:36Z</time>
      </trkpt>
      <trkpt lat="50.01576" lon="4.29527">
        <ele>293.2</ele>
        <time>2024-04-29T15:28:37Z</time>
      </trkpt>
      <trkpt lat="50.01578" lon="4.29535">
        <ele>293.2</ele>
        <time>2024-04-29T15:28:38Z</time>
      </trkpt>
      <trkpt lat="50.01579" lon="4.29543">
        <ele>293.2</ele>
        <time>2024-04-29T15:28:39Z</time>
      </trkpt>
      <trkpt lat="50.01581" lon="4.2955">
        <ele>293.2</ele>
        <time>2024-04-29T15:28:40Z</time>
      </trkpt>
      <trkpt lat="50.01583" lon="4.29557">
        <ele>293.2</ele>
        <time>2024-04-29T15:28:41Z</time>
      </trkpt>
      <trkpt lat="50.01584" lon="4.29563">
        <ele>293.4</ele>
        <time>2024-04-29T15:28:42Z</time>
      </trkpt>
      <trkpt lat="50.01586" lon="4.29567">
        <ele>293.6</ele>
        <time>2024-04-29T15:28:43Z</time>
      </trkpt>
      <trkpt lat="50.01588" lon="4.29567">
        <ele>293.8</ele>
        <time>2024-04-29T15:28:44Z</time>
      </trkpt>
      <trkpt lat="50.01589" lon="4.29566">
        <ele>294.2</ele>
        <time>2024-04-29T15:28:45Z</time>
      </trkpt>
      <trkpt lat="50.0159" lon="4.29565">
        <ele>294.8</ele>
        <time>2024-04-29T15:28:46Z</time>
      </trkpt>
      <trkpt lat="50.0159" lon="4.29565">
        <ele>295.4</ele>
        <time>2024-04-29T15:28:47Z</time>
      </trkpt>
      <trkpt lat="50.0159" lon="4.29565">
        <ele>295.6</ele>
        <time>2024-04-29T15:28:48Z</time>
      </trkpt>
      <trkpt lat="50.0159" lon="4.29565">
        <ele>295.6</ele>
        <time>2024-04-29T15:28:49Z</time>
      </trkpt>
      <trkpt lat="50.0159" lon="4.29565">
        <ele>295.8</ele>
        <time>2024-04-29T15:28:50Z</time>
      </trkpt>
      <trkpt lat="50.0159" lon="4.29565">
        <ele>296</ele>
        <time>2024-04-29T15:28:51Z</time>
      </trkpt>
      <trkpt lat="50.0159" lon="4.29565">
        <ele>296.2</ele>
        <time>2024-04-29T15:28:52Z</time>
      </trkpt>
      <trkpt lat="50.01591" lon="4.29563">
        <ele>296.8</ele>
        <time>2024-04-29T15:29:03Z</time>
      </trkpt>
      <trkpt lat="50.01592" lon="4.29561">
        <ele>296.6</ele>
        <time>2024-04-29T15:29:04Z</time>
      </trkpt>
      <trkpt lat="50.01592" lon="4.2956">
        <ele>296.6</ele>
        <time>2024-04-29T15:29:05Z</time>
      </trkpt>
      <trkpt lat="50.01593" lon="4.29558">
        <ele>296.6</ele>
        <time>2024-04-29T15:29:06Z</time>
      </trkpt>
      <trkpt lat="50.01593" lon="4.29556">
        <ele>296.8</ele>
        <time>2024-04-29T15:29:07Z</time>
      </trkpt>
      <trkpt lat="50.01594" lon="4.29555">
        <ele>296.6</ele>
        <time>2024-04-29T15:29:08Z</time>
      </trkpt>
      <trkpt lat="50.01594" lon="4.29553">
        <ele>296.6</ele>
        <time>2024-04-29T15:29:09Z</time>
      </trkpt>
      <trkpt lat="50.01595" lon="4.29553">
        <ele>296.6</ele>
        <time>2024-04-29T15:29:10Z</time>
      </trkpt>
      <trkpt lat="50.01595" lon="4.29552">
        <ele>296.8</ele>
        <time>2024-04-29T15:29:11Z</time>
      </trkpt>
      <trkpt lat="50.01595" lon="4.29552">
        <ele>296.6</ele>
        <time>2024-04-29T15:29:12Z</time>
      </trkpt>
      <trkpt lat="50.01595" lon="4.29551">
        <ele>296.6</ele>
        <time>2024-04-29T15:29:13Z</time>
      </trkpt>
      <trkpt lat="50.01596" lon="4.29551">
        <ele>296.8</ele>
        <time>2024-04-29T15:29:14Z</time>
      </trkpt>
      <trkpt lat="50.01596" lon="4.2955">
        <ele>296.6</ele>
        <time>2024-04-29T15:29:15Z</time>
      </trkpt>
      <trkpt lat="50.01596" lon="4.2955">
        <ele>296.6</ele>
        <time>2024-04-29T15:29:16Z</time>
      </trkpt>
      <trkpt lat="50.01594" lon="4.29554">
        <ele>297</ele>
        <time>2024-04-29T15:29:50Z</time>
      </trkpt>
      <trkpt lat="50.01594" lon="4.29555">
        <ele>296.8</ele>
        <time>2024-04-29T15:29:51Z</time>
      </trkpt>
      <trkpt lat="50.01593" lon="4.29557">
        <ele>296.8</ele>
        <time>2024-04-29T15:29:52Z</time>
      </trkpt>
      <trkpt lat="50.01592" lon="4.29559">
        <ele>296.8</ele>
        <time>2024-04-29T15:29:53Z</time>
      </trkpt>
      <trkpt lat="50.01591" lon="4.29561">
        <ele>296.8</ele>
        <time>2024-04-29T15:29:54Z</time>
      </trkpt>
      <trkpt lat="50.0159" lon="4.29563">
        <ele>296.8</ele>
        <time>2024-04-29T15:29:55Z</time>
      </trkpt>
      <trkpt lat="50.0159" lon="4.29564">
        <ele>296.8</ele>
        <time>2024-04-29T15:29:56Z</time>
      </trkpt>
      <trkpt lat="50.01589" lon="4.29565">
        <ele>296.8</ele>
        <time>2024-04-29T15:29:57Z</time>
      </trkpt>
      <trkpt lat="50.01589" lon="4.29566">
        <ele>296.8</ele>
        <time>2024-04-29T15:29:58Z</time>
      </trkpt>
      <trkpt lat="50.01588" lon="4.29566">
        <ele>296.8</ele>
        <time>2024-04-29T15:29:59Z</time>
      </trkpt>
      <trkpt lat="50.01588" lon="4.29566">
        <ele>296.8</ele>
        <time>2024-04-29T15:30:00Z</time>
      </trkpt>
      <trkpt lat="50.01588" lon="4.29566">
        <ele>296.8</ele>
        <time>2024-04-29T15:30:01Z</time>
      </trkpt>
      <trkpt lat="50.01588" lon="4.29566">
        <ele>296.8</ele>
        <time>2024-04-29T15:30:02Z</time>
      </trkpt>
      <trkpt lat="50.01588" lon="4.29566">
        <ele>297</ele>
        <time>2024-04-29T15:30:03Z</time>
      </trkpt>
      <trkpt lat="50.01588" lon="4.29566">
        <ele>296.8</ele>
        <time>2024-04-29T15:30:04Z</time>
      </trkpt>
      <trkpt lat="50.01587" lon="4.29569">
        <ele>297</ele>
        <time>2024-04-29T15:30:05Z</time>
      </trkpt>
      <trkpt lat="50.01586" lon="4.29571">
        <ele>297</ele>
        <time>2024-04-29T15:30:06Z</time>
      </trkpt>
      <trkpt lat="50.01586" lon="4.29574">
        <ele>297</ele>
        <time>2024-04-29T15:30:07Z</time>
      </trkpt>
      <trkpt lat="50.01586" lon="4.29578">
        <ele>297.2</ele>
        <time>2024-04-29T15:30:08Z</time>
      </trkpt>
      <trkpt lat="50.01586" lon="4.29584">
        <ele>297.2</ele>
        <time>2024-04-29T15:30:09Z</time>
      </trkpt>
      <trkpt lat="50.01587" lon="4.2959">
        <ele>297</ele>
        <time>2024-04-29T15:30:10Z</time>
      </trkpt>
      <trkpt lat="50.01589" lon="4.29596">
        <ele>297</ele>
        <time>2024-04-29T15:30:11Z</time>
      </trkpt>
      <trkpt lat="50.01591" lon="4.29603">
        <ele>297</ele>
        <time>2024-04-29T15:30:12Z</time>
      </trkpt>
      <trkpt lat="50.01592" lon="4.29611">
        <ele>297.2</ele>
        <time>2024-04-29T15:30:13Z</time>
      </trkpt>
      <trkpt lat="50.01594" lon="4.29619">
        <ele>297.2</ele>
        <time>2024-04-29T15:30:14Z</time>
      </trkpt>
      <trkpt lat="50.01595" lon="4.29627">
        <ele>297</ele>
        <time>2024-04-29T15:30:15Z</time>
      </trkpt>
      <trkpt lat="50.01597" lon="4.29636">
        <ele>297</ele>
        <time>2024-04-29T15:30:16Z</time>
      </trkpt>
      <trkpt lat="50.01599" lon="4.29645">
        <ele>297.2</ele>
        <time>2024-04-29T15:30:17Z</time>
      </trkpt>
      <trkpt lat="50.01601" lon="4.29654">
        <ele>297</ele>
        <time>2024-04-29T15:30:18Z</time>
      </trkpt>
      <trkpt lat="50.01603" lon="4.29663">
        <ele>297</ele>
        <time>2024-04-29T15:30:19Z</time>
      </trkpt>
      <trkpt lat="50.01605" lon="4.29673">
        <ele>297</ele>
        <time>2024-04-29T15:30:20Z</time>
      </trkpt>
      <trkpt lat="50.01607" lon="4.29683">
        <ele>297</ele>
        <time>2024-04-29T15:30:21Z</time>
      </trkpt>
      <trkpt lat="50.01609" lon="4.29692">
        <ele>297</ele>
        <time>2024-04-29T15:30:22Z</time>
      </trkpt>
      <trkpt lat="50.01611" lon="4.29702">
        <ele>296.8</ele>
        <time>2024-04-29T15:30:23Z</time>
      </trkpt>
      <trkpt lat="50.01613" lon="4.29712">
        <ele>296.8</ele>
        <time>2024-04-29T15:30:24Z</time>
      </trkpt>
      <trkpt lat="50.01615" lon="4.29722">
        <ele>296.8</ele>
        <time>2024-04-29T15:30:25Z</time>
      </trkpt>
      <trkpt lat="50.01618" lon="4.29732">
        <ele>296.8</ele>
        <time>2024-04-29T15:30:26Z</time>
      </trkpt>
      <trkpt lat="50.0162" lon="4.29741">
        <ele>296.8</ele>
        <time>2024-04-29T15:30:27Z</time>
      </trkpt>
      <trkpt lat="50.01622" lon="4.29751">
        <ele>296.8</ele>
        <time>2024-04-29T15:30:28Z</time>
      </trkpt>
      <trkpt lat="50.01624" lon="4.29761">
        <ele>296.8</ele>
        <time>2024-04-29T15:30:29Z</time>
      </trkpt>
      <trkpt lat="50.01626" lon="4.2977">
        <ele>297</ele>
        <time>2024-04-29T15:30:30Z</time>
      </trkpt>
      <trkpt lat="50.01628" lon="4.2978">
        <ele>297</ele>
        <time>2024-04-29T15:30:31Z</time>
      </trkpt>
      <trkpt lat="50.0163" lon="4.2979">
        <ele>297</ele>
        <time>2024-04-29T15:30:32Z</time>
      </trkpt>
      <trkpt lat="50.01633" lon="4.298">
        <ele>297</ele>
        <time>2024-04-29T15:30:33Z</time>
      </trkpt>
      <trkpt lat="50.01635" lon="4.2981">
        <ele>297</ele>
        <time>2024-04-29T15:30:34Z</time>
      </trkpt>
      <trkpt lat="50.01637" lon="4.29821">
        <ele>296.8</ele>
        <time>2024-04-29T15:30:35Z</time>
      </trkpt>
      <trkpt lat="50.0164" lon="4.29831">
        <ele>297</ele>
        <time>2024-04-29T15:30:36Z</time>
      </trkpt>
      <trkpt lat="50.01642" lon="4.29841">
        <ele>297.2</ele>
        <time>2024-04-29T15:30:37Z</time>
      </trkpt>
      <trkpt lat="50.01645" lon="4.29851">
        <ele>297</ele>
        <time>2024-04-29T15:30:38Z</time>
      </trkpt>
      <trkpt lat="50.01647" lon="4.29862">
        <ele>297</ele>
        <time>2024-04-29T15:30:39Z</time>
      </trkpt>
      <trkpt lat="50.01649" lon="4.29872">
        <ele>297</ele>
        <time>2024-04-29T15:30:40Z</time>
      </trkpt>
      <trkpt lat="50.01651" lon="4.29882">
        <ele>297.2</ele>
        <time>2024-04-29T15:30:41Z</time>
      </trkpt>
      <trkpt lat="50.01653" lon="4.29893">
        <ele>297</ele>
        <time>2024-04-29T15:30:42Z</time>
      </trkpt>
      <trkpt lat="50.01655" lon="4.29903">
        <ele>297.2</ele>
        <time>2024-04-29T15:30:43Z</time>
      </trkpt>
      <trkpt lat="50.01657" lon="4.29913">
        <ele>297.2</ele>
        <time>2024-04-29T15:30:44Z</time>
      </trkpt>
      <trkpt lat="50.0166" lon="4.29923">
        <ele>297.2</ele>
        <time>2024-04-29T15:30:45Z</time>
      </trkpt>
      <trkpt lat="50.01662" lon="4.29932">
        <ele>297.2</ele>
        <time>2024-04-29T15:30:46Z</time>
      </trkpt>
      <trkpt lat="50.01664" lon="4.29943">
        <ele>297.2</ele>
        <time>2024-04-29T15:30:47Z</time>
      </trkpt>
      <trkpt lat="50.01665" lon="4.29953">
        <ele>297.2</ele>
        <time>2024-04-29T15:30:48Z</time>
      </trkpt>
      <trkpt lat="50.01668" lon="4.29963">
        <ele>297.2</ele>
        <time>2024-04-29T15:30:49Z</time>
      </trkpt>
      <trkpt lat="50.0167" lon="4.29972">
        <ele>297.2</ele>
        <time>2024-04-29T15:30:50Z</time>
      </trkpt>
      <trkpt lat="50.01672" lon="4.29983">
        <ele>297.4</ele>
        <time>2024-04-29T15:30:51Z</time>
      </trkpt>
      <trkpt lat="50.01673" lon="4.29993">
        <ele>297.2</ele>
        <time>2024-04-29T15:30:52Z</time>
      </trkpt>
      <trkpt lat="50.01675" lon="4.30003">
        <ele>297.2</ele>
        <time>2024-04-29T15:30:53Z</time>
      </trkpt>
      <trkpt lat="50.01677" lon="4.30013">
        <ele>297.2</ele>
        <time>2024-04-29T15:30:54Z</time>
      </trkpt>
      <trkpt lat="50.01679" lon="4.30023">
        <ele>297.4</ele>
        <time>2024-04-29T15:30:55Z</time>
      </trkpt>
      <trkpt lat="50.01682" lon="4.30034">
        <ele>297.4</ele>
        <time>2024-04-29T15:30:56Z</time>
      </trkpt>
      <trkpt lat="50.01684" lon="4.30044">
        <ele>297.4</ele>
        <time>2024-04-29T15:30:57Z</time>
      </trkpt>
      <trkpt lat="50.01686" lon="4.30054">
        <ele>297.4</ele>
        <time>2024-04-29T15:30:58Z</time>
      </trkpt>
      <trkpt lat="50.01688" lon="4.30064">
        <ele>297.6</ele>
        <time>2024-04-29T15:30:59Z</time>
      </trkpt>
      <trkpt lat="50.0169" lon="4.30074">
        <ele>297.4</ele>
        <time>2024-04-29T15:31:00Z</time>
      </trkpt>
      <trkpt lat="50.01693" lon="4.30084">
        <ele>297.6</ele>
        <time>2024-04-29T15:31:01Z</time>
      </trkpt>
      <trkpt lat="50.01695" lon="4.30094">
        <ele>297.6</ele>
        <time>2024-04-29T15:31:02Z</time>
      </trkpt>
      <trkpt lat="50.01697" lon="4.30104">
        <ele>297.6</ele>
        <time>2024-04-29T15:31:03Z</time>
      </trkpt>
      <trkpt lat="50.017" lon="4.30114">
        <ele>297.6</ele>
        <time>2024-04-29T15:31:04Z</time>
      </trkpt>
      <trkpt lat="50.01702" lon="4.30124">
        <ele>297.8</ele>
        <time>2024-04-29T15:31:05Z</time>
      </trkpt>
      <trkpt lat="50.01705" lon="4.30135">
        <ele>297.8</ele>
        <time>2024-04-29T15:31:06Z</time>
      </trkpt>
      <trkpt lat="50.01707" lon="4.30145">
        <ele>297.8</ele>
        <time>2024-04-29T15:31:07Z</time>
      </trkpt>
      <trkpt lat="50.01709" lon="4.30155">
        <ele>297.8</ele>
        <time>2024-04-29T15:31:08Z</time>
      </trkpt>
      <trkpt lat="50.01711" lon="4.30165">
        <ele>298</ele>
        <time>2024-04-29T15:31:09Z</time>
      </trkpt>
      <trkpt lat="50.01713" lon="4.30175">
        <ele>297.8</ele>
        <time>2024-04-29T15:31:10Z</time>
      </trkpt>
      <trkpt lat="50.01716" lon="4.30185">
        <ele>297.8</ele>
        <time>2024-04-29T15:31:11Z</time>
      </trkpt>
      <trkpt lat="50.01718" lon="4.30196">
        <ele>297.8</ele>
        <time>2024-04-29T15:31:12Z</time>
      </trkpt>
      <trkpt lat="50.0172" lon="4.30205">
        <ele>297.8</ele>
        <time>2024-04-29T15:31:13Z</time>
      </trkpt>
      <trkpt lat="50.01723" lon="4.30215">
        <ele>297.8</ele>
        <time>2024-04-29T15:31:14Z</time>
      </trkpt>
      <trkpt lat="50.01725" lon="4.30225">
        <ele>297.8</ele>
        <time>2024-04-29T15:31:15Z</time>
      </trkpt>
      <trkpt lat="50.01727" lon="4.30235">
        <ele>297.6</ele>
        <time>2024-04-29T15:31:16Z</time>
      </trkpt>
      <trkpt lat="50.01729" lon="4.30245">
        <ele>297.6</ele>
        <time>2024-04-29T15:31:17Z</time>
      </trkpt>
      <trkpt lat="50.01732" lon="4.30255">
        <ele>297.6</ele>
        <time>2024-04-29T15:31:18Z</time>
      </trkpt>
      <trkpt lat="50.01734" lon="4.30265">
        <ele>297.2</ele>
        <time>2024-04-29T15:31:19Z</time>
      </trkpt>
      <trkpt lat="50.01736" lon="4.30276">
        <ele>297.2</ele>
        <time>2024-04-29T15:31:20Z</time>
      </trkpt>
      <trkpt lat="50.01738" lon="4.30286">
        <ele>297</ele>
        <time>2024-04-29T15:31:21Z</time>
      </trkpt>
      <trkpt lat="50.0174" lon="4.30296">
        <ele>297</ele>
        <time>2024-04-29T15:31:22Z</time>
      </trkpt>
      <trkpt lat="50.01742" lon="4.30307">
        <ele>296.8</ele>
        <time>2024-04-29T15:31:23Z</time>
      </trkpt>
      <trkpt lat="50.01745" lon="4.30318">
        <ele>297</ele>
        <time>2024-04-29T15:31:24Z</time>
      </trkpt>
      <trkpt lat="50.01747" lon="4.30328">
        <ele>296.8</ele>
        <time>2024-04-29T15:31:25Z</time>
      </trkpt>
      <trkpt lat="50.01749" lon="4.30338">
        <ele>296.8</ele>
        <time>2024-04-29T15:31:26Z</time>
      </trkpt>
      <trkpt lat="50.01752" lon="4.30349">
        <ele>296.6</ele>
        <time>2024-04-29T15:31:27Z</time>
      </trkpt>
      <trkpt lat="50.01755" lon="4.30359">
        <ele>296.6</ele>
        <time>2024-04-29T15:31:28Z</time>
      </trkpt>
      <trkpt lat="50.01757" lon="4.30369">
        <ele>296.6</ele>
        <time>2024-04-29T15:31:29Z</time>
      </trkpt>
      <trkpt lat="50.01759" lon="4.3038">
        <ele>296.6</ele>
        <time>2024-04-29T15:31:30Z</time>
      </trkpt>
      <trkpt lat="50.0176" lon="4.30392">
        <ele>296.4</ele>
        <time>2024-04-29T15:31:31Z</time>
      </trkpt>
      <trkpt lat="50.0176" lon="4.30404">
        <ele>296.6</ele>
        <time>2024-04-29T15:31:32Z</time>
      </trkpt>
      <trkpt lat="50.01758" lon="4.30416">
        <ele>296.6</ele>
        <time>2024-04-29T15:31:33Z</time>
      </trkpt>
      <trkpt lat="50.01757" lon="4.30428">
        <ele>296.4</ele>
        <time>2024-04-29T15:31:34Z</time>
      </trkpt>
      <trkpt lat="50.01754" lon="4.30439">
        <ele>296.4</ele>
        <time>2024-04-29T15:31:35Z</time>
      </trkpt>
      <trkpt lat="50.01752" lon="4.3045">
        <ele>296.4</ele>
        <time>2024-04-29T15:31:36Z</time>
      </trkpt>
      <trkpt lat="50.01749" lon="4.30461">
        <ele>296.4</ele>
        <time>2024-04-29T15:31:37Z</time>
      </trkpt>
      <trkpt lat="50.01747" lon="4.30471">
        <ele>296.2</ele>
        <time>2024-04-29T15:31:38Z</time>
      </trkpt>
      <trkpt lat="50.01744" lon="4.30482">
        <ele>296.2</ele>
        <time>2024-04-29T15:31:39Z</time>
      </trkpt>
      <trkpt lat="50.01742" lon="4.30494">
        <ele>296.2</ele>
        <time>2024-04-29T15:31:40Z</time>
      </trkpt>
      <trkpt lat="50.01739" lon="4.30505">
        <ele>295.8</ele>
        <time>2024-04-29T15:31:41Z</time>
      </trkpt>
      <trkpt lat="50.01737" lon="4.30516">
        <ele>295.8</ele>
        <time>2024-04-29T15:31:42Z</time>
      </trkpt>
      <trkpt lat="50.01735" lon="4.30527">
        <ele>295.6</ele>
        <time>2024-04-29T15:31:43Z</time>
      </trkpt>
      <trkpt lat="50.01733" lon="4.30539">
        <ele>295</ele>
        <time>2024-04-29T15:31:44Z</time>
      </trkpt>
      <trkpt lat="50.01731" lon="4.3055">
        <ele>295</ele>
        <time>2024-04-29T15:31:45Z</time>
      </trkpt>
      <trkpt lat="50.01729" lon="4.30561">
        <ele>295</ele>
        <time>2024-04-29T15:31:46Z</time>
      </trkpt>
      <trkpt lat="50.01727" lon="4.30573">
        <ele>294.6</ele>
        <time>2024-04-29T15:31:47Z</time>
      </trkpt>
      <trkpt lat="50.01725" lon="4.30584">
        <ele>294.8</ele>
        <time>2024-04-29T15:31:48Z</time>
      </trkpt>
      <trkpt lat="50.01722" lon="4.30595">
        <ele>294.6</ele>
        <time>2024-04-29T15:31:49Z</time>
      </trkpt>
      <trkpt lat="50.0172" lon="4.30606">
        <ele>294.4</ele>
        <time>2024-04-29T15:31:50Z</time>
      </trkpt>
      <trkpt lat="50.01717" lon="4.30617">
        <ele>294.4</ele>
        <time>2024-04-29T15:31:51Z</time>
      </trkpt>
      <trkpt lat="50.01715" lon="4.30628">
        <ele>294.2</ele>
        <time>2024-04-29T15:31:52Z</time>
      </trkpt>
      <trkpt lat="50.01712" lon="4.30639">
        <ele>294</ele>
        <time>2024-04-29T15:31:53Z</time>
      </trkpt>
      <trkpt lat="50.0171" lon="4.3065">
        <ele>294</ele>
        <time>2024-04-29T15:31:54Z</time>
      </trkpt>
      <trkpt lat="50.01707" lon="4.30661">
        <ele>294</ele>
        <time>2024-04-29T15:31:55Z</time>
      </trkpt>
      <trkpt lat="50.01705" lon="4.30672">
        <ele>294</ele>
        <time>2024-04-29T15:31:56Z</time>
      </trkpt>
      <trkpt lat="50.01703" lon="4.30684">
        <ele>293.8</ele>
        <time>2024-04-29T15:31:57Z</time>
      </trkpt>
      <trkpt lat="50.01701" lon="4.30695">
        <ele>293.8</ele>
        <time>2024-04-29T15:31:58Z</time>
      </trkpt>
      <trkpt lat="50.01698" lon="4.30706">
        <ele>293.8</ele>
        <time>2024-04-29T15:31:59Z</time>
      </trkpt>
      <trkpt lat="50.01696" lon="4.30717">
        <ele>293.6</ele>
        <time>2024-04-29T15:32:00Z</time>
      </trkpt>
      <trkpt lat="50.01694" lon="4.30727">
        <ele>293.4</ele>
        <time>2024-04-29T15:32:01Z</time>
      </trkpt>
      <trkpt lat="50.01692" lon="4.30738">
        <ele>293.4</ele>
        <time>2024-04-29T15:32:02Z</time>
      </trkpt>
      <trkpt lat="50.01689" lon="4.30749">
        <ele>293.2</ele>
        <time>2024-04-29T15:32:03Z</time>
      </trkpt>
      <trkpt lat="50.01687" lon="4.30759">
        <ele>292.8</ele>
        <time>2024-04-29T15:32:04Z</time>
      </trkpt>
      <trkpt lat="50.01685" lon="4.3077">
        <ele>292.8</ele>
        <time>2024-04-29T15:32:05Z</time>
      </trkpt>
      <trkpt lat="50.01683" lon="4.30781">
        <ele>292.8</ele>
        <time>2024-04-29T15:32:06Z</time>
      </trkpt>
      <trkpt lat="50.0168" lon="4.30792">
        <ele>292.6</ele>
        <time>2024-04-29T15:32:07Z</time>
      </trkpt>
      <trkpt lat="50.01678" lon="4.30802">
        <ele>292.6</ele>
        <time>2024-04-29T15:32:08Z</time>
      </trkpt>
      <trkpt lat="50.01676" lon="4.30813">
        <ele>292.4</ele>
        <time>2024-04-29T15:32:09Z</time>
      </trkpt>
      <trkpt lat="50.01673" lon="4.30824">
        <ele>292</ele>
        <time>2024-04-29T15:32:10Z</time>
      </trkpt>
      <trkpt lat="50.01671" lon="4.30834">
        <ele>292</ele>
        <time>2024-04-29T15:32:11Z</time>
      </trkpt>
      <trkpt lat="50.01669" lon="4.30844">
        <ele>292</ele>
        <time>2024-04-29T15:32:12Z</time>
      </trkpt>
      <trkpt lat="50.01667" lon="4.30855">
        <ele>291.8</ele>
        <time>2024-04-29T15:32:13Z</time>
      </trkpt>
      <trkpt lat="50.01665" lon="4.30865">
        <ele>292</ele>
        <time>2024-04-29T15:32:14Z</time>
      </trkpt>
      <trkpt lat="50.01662" lon="4.30875">
        <ele>292</ele>
        <time>2024-04-29T15:32:15Z</time>
      </trkpt>
      <trkpt lat="50.0166" lon="4.30885">
        <ele>291.8</ele>
        <time>2024-04-29T15:32:16Z</time>
      </trkpt>
      <trkpt lat="50.01658" lon="4.30894">
        <ele>292</ele>
        <time>2024-04-29T15:32:17Z</time>
      </trkpt>
      <trkpt lat="50.01656" lon="4.30904">
        <ele>291.8</ele>
        <time>2024-04-29T15:32:18Z</time>
      </trkpt>
      <trkpt lat="50.01654" lon="4.30914">
        <ele>291.8</ele>
        <time>2024-04-29T15:32:19Z</time>
      </trkpt>
      <trkpt lat="50.01652" lon="4.30923">
        <ele>292</ele>
        <time>2024-04-29T15:32:20Z</time>
      </trkpt>
      <trkpt lat="50.0165" lon="4.30933">
        <ele>292.2</ele>
        <time>2024-04-29T15:32:21Z</time>
      </trkpt>
      <trkpt lat="50.01648" lon="4.30942">
        <ele>292.4</ele>
        <time>2024-04-29T15:32:22Z</time>
      </trkpt>
      <trkpt lat="50.01646" lon="4.30952">
        <ele>292.4</ele>
        <time>2024-04-29T15:32:23Z</time>
      </trkpt>
      <trkpt lat="50.01644" lon="4.30961">
        <ele>292.4</ele>
        <time>2024-04-29T15:32:24Z</time>
      </trkpt>
      <trkpt lat="50.01642" lon="4.3097">
        <ele>292.6</ele>
        <time>2024-04-29T15:32:25Z</time>
      </trkpt>
      <trkpt lat="50.0164" lon="4.30979">
        <ele>292.8</ele>
        <time>2024-04-29T15:32:26Z</time>
      </trkpt>
      <trkpt lat="50.01638" lon="4.30988">
        <ele>292.6</ele>
        <time>2024-04-29T15:32:27Z</time>
      </trkpt>
      <trkpt lat="50.01636" lon="4.30997">
        <ele>292.8</ele>
        <time>2024-04-29T15:32:28Z</time>
      </trkpt>
      <trkpt lat="50.01634" lon="4.31006">
        <ele>293</ele>
        <time>2024-04-29T15:32:29Z</time>
      </trkpt>
      <trkpt lat="50.01632" lon="4.31014">
        <ele>293</ele>
        <time>2024-04-29T15:32:30Z</time>
      </trkpt>
      <trkpt lat="50.0163" lon="4.31023">
        <ele>293.2</ele>
        <time>2024-04-29T15:32:31Z</time>
      </trkpt>
      <trkpt lat="50.01629" lon="4.31032">
        <ele>293</ele>
        <time>2024-04-29T15:32:32Z</time>
      </trkpt>
      <trkpt lat="50.01627" lon="4.31041">
        <ele>293.2</ele>
        <time>2024-04-29T15:32:33Z</time>
      </trkpt>
      <trkpt lat="50.01625" lon="4.31049">
        <ele>293.6</ele>
        <time>2024-04-29T15:32:34Z</time>
      </trkpt>
      <trkpt lat="50.01623" lon="4.31058">
        <ele>293.6</ele>
        <time>2024-04-29T15:32:35Z</time>
      </trkpt>
      <trkpt lat="50.01621" lon="4.31067">
        <ele>294</ele>
        <time>2024-04-29T15:32:36Z</time>
      </trkpt>
      <trkpt lat="50.01619" lon="4.31076">
        <ele>294.2</ele>
        <time>2024-04-29T15:32:37Z</time>
      </trkpt>
      <trkpt lat="50.01617" lon="4.31085">
        <ele>294.6</ele>
        <time>2024-04-29T15:32:38Z</time>
      </trkpt>
      <trkpt lat="50.01615" lon="4.31094">
        <ele>295.2</ele>
        <time>2024-04-29T15:32:39Z</time>
      </trkpt>
      <trkpt lat="50.01613" lon="4.31102">
        <ele>295.2</ele>
        <time>2024-04-29T15:32:40Z</time>
      </trkpt>
      <trkpt lat="50.01612" lon="4.31111">
        <ele>295.4</ele>
        <time>2024-04-29T15:32:41Z</time>
      </trkpt>
      <trkpt lat="50.0161" lon="4.31119">
        <ele>295.6</ele>
        <time>2024-04-29T15:32:42Z</time>
      </trkpt>
      <trkpt lat="50.01608" lon="4.31128">
        <ele>295.6</ele>
        <time>2024-04-29T15:32:43Z</time>
      </trkpt>
      <trkpt lat="50.01606" lon="4.31137">
        <ele>296</ele>
        <time>2024-04-29T15:32:44Z</time>
      </trkpt>
      <trkpt lat="50.01605" lon="4.31146">
        <ele>296</ele>
        <time>2024-04-29T15:32:45Z</time>
      </trkpt>
      <trkpt lat="50.01603" lon="4.31154">
        <ele>296</ele>
        <time>2024-04-29T15:32:46Z</time>
      </trkpt>
      <trkpt lat="50.01602" lon="4.31163">
        <ele>296</ele>
        <time>2024-04-29T15:32:47Z</time>
      </trkpt>
      <trkpt lat="50.016" lon="4.31172">
        <ele>296.2</ele>
        <time>2024-04-29T15:32:48Z</time>
      </trkpt>
      <trkpt lat="50.01598" lon="4.3118">
        <ele>296.2</ele>
        <time>2024-04-29T15:32:49Z</time>
      </trkpt>
      <trkpt lat="50.01596" lon="4.31189">
        <ele>296.6</ele>
        <time>2024-04-29T15:32:50Z</time>
      </trkpt>
      <trkpt lat="50.01594" lon="4.31198">
        <ele>297</ele>
        <time>2024-04-29T15:32:51Z</time>
      </trkpt>
      <trkpt lat="50.01592" lon="4.31207">
        <ele>297.2</ele>
        <time>2024-04-29T15:32:52Z</time>
      </trkpt>
      <trkpt lat="50.0159" lon="4.31216">
        <ele>297.4</ele>
        <time>2024-04-29T15:32:53Z</time>
      </trkpt>
      <trkpt lat="50.01589" lon="4.31226">
        <ele>297.6</ele>
        <time>2024-04-29T15:32:54Z</time>
      </trkpt>
      <trkpt lat="50.01587" lon="4.31236">
        <ele>297.6</ele>
        <time>2024-04-29T15:32:55Z</time>
      </trkpt>
      <trkpt lat="50.01586" lon="4.31246">
        <ele>298</ele>
        <time>2024-04-29T15:32:56Z</time>
      </trkpt>
      <trkpt lat="50.01585" lon="4.31257">
        <ele>298.2</ele>
        <time>2024-04-29T15:32:57Z</time>
      </trkpt>
      <trkpt lat="50.01584" lon="4.31267">
        <ele>298.2</ele>
        <time>2024-04-29T15:32:58Z</time>
      </trkpt>
      <trkpt lat="50.01583" lon="4.31278">
        <ele>298.4</ele>
        <time>2024-04-29T15:32:59Z</time>
      </trkpt>
      <trkpt lat="50.01583" lon="4.31289">
        <ele>298.4</ele>
        <time>2024-04-29T15:33:00Z</time>
      </trkpt>
      <trkpt lat="50.01582" lon="4.313">
        <ele>298.2</ele>
        <time>2024-04-29T15:33:01Z</time>
      </trkpt>
      <trkpt lat="50.01581" lon="4.3131">
        <ele>298.4</ele>
        <time>2024-04-29T15:33:02Z</time>
      </trkpt>
      <trkpt lat="50.01581" lon="4.31321">
        <ele>298.4</ele>
        <time>2024-04-29T15:33:03Z</time>
      </trkpt>
      <trkpt lat="50.0158" lon="4.31332">
        <ele>298.4</ele>
        <time>2024-04-29T15:33:04Z</time>
      </trkpt>
      <trkpt lat="50.01579" lon="4.31343">
        <ele>298.4</ele>
        <time>2024-04-29T15:33:05Z</time>
      </trkpt>
      <trkpt lat="50.01578" lon="4.31354">
        <ele>298.6</ele>
        <time>2024-04-29T15:33:06Z</time>
      </trkpt>
      <trkpt lat="50.01578" lon="4.31364">
        <ele>298.6</ele>
        <time>2024-04-29T15:33:07Z</time>
      </trkpt>
      <trkpt lat="50.01577" lon="4.31375">
        <ele>298.6</ele>
        <time>2024-04-29T15:33:08Z</time>
      </trkpt>
      <trkpt lat="50.01577" lon="4.31386">
        <ele>298.4</ele>
        <time>2024-04-29T15:33:09Z</time>
      </trkpt>
      <trkpt lat="50.01576" lon="4.31397">
        <ele>298.4</ele>
        <time>2024-04-29T15:33:10Z</time>
      </trkpt>
      <trkpt lat="50.01576" lon="4.31408">
        <ele>298.4</ele>
        <time>2024-04-29T15:33:11Z</time>
      </trkpt>
      <trkpt lat="50.01575" lon="4.31418">
        <ele>298.4</ele>
        <time>2024-04-29T15:33:12Z</time>
      </trkpt>
      <trkpt lat="50.01575" lon="4.31429">
        <ele>298.4</ele>
        <time>2024-04-29T15:33:13Z</time>
      </trkpt>
      <trkpt lat="50.01574" lon="4.3144">
        <ele>298.4</ele>
        <time>2024-04-29T15:33:14Z</time>
      </trkpt>
      <trkpt lat="50.01574" lon="4.31451">
        <ele>298.4</ele>
        <time>2024-04-29T15:33:15Z</time>
      </trkpt>
      <trkpt lat="50.01573" lon="4.31462">
        <ele>298.2</ele>
        <time>2024-04-29T15:33:16Z</time>
      </trkpt>
      <trkpt lat="50.01573" lon="4.31473">
        <ele>298.2</ele>
        <time>2024-04-29T15:33:17Z</time>
      </trkpt>
      <trkpt lat="50.01572" lon="4.31484">
        <ele>298.4</ele>
        <time>2024-04-29T15:33:18Z</time>
      </trkpt>
      <trkpt lat="50.01572" lon="4.31495">
        <ele>298.4</ele>
        <time>2024-04-29T15:33:19Z</time>
      </trkpt>
      <trkpt lat="50.01571" lon="4.31506">
        <ele>298.2</ele>
        <time>2024-04-29T15:33:20Z</time>
      </trkpt>
      <trkpt lat="50.01571" lon="4.31517">
        <ele>298.2</ele>
        <time>2024-04-29T15:33:21Z</time>
      </trkpt>
      <trkpt lat="50.0157" lon="4.31528">
        <ele>298.4</ele>
        <time>2024-04-29T15:33:22Z</time>
      </trkpt>
      <trkpt lat="50.0157" lon="4.31539">
        <ele>298.4</ele>
        <time>2024-04-29T15:33:23Z</time>
      </trkpt>
      <trkpt lat="50.01569" lon="4.3155">
        <ele>298.4</ele>
        <time>2024-04-29T15:33:24Z</time>
      </trkpt>
      <trkpt lat="50.01569" lon="4.31561">
        <ele>298.2</ele>
        <time>2024-04-29T15:33:25Z</time>
      </trkpt>
      <trkpt lat="50.01568" lon="4.31572">
        <ele>298.4</ele>
        <time>2024-04-29T15:33:26Z</time>
      </trkpt>
      <trkpt lat="50.01568" lon="4.31583">
        <ele>298.2</ele>
        <time>2024-04-29T15:33:27Z</time>
      </trkpt>
      <trkpt lat="50.01567" lon="4.31594">
        <ele>298.2</ele>
        <time>2024-04-29T15:33:28Z</time>
      </trkpt>
      <trkpt lat="50.01567" lon="4.31605">
        <ele>298.4</ele>
        <time>2024-04-29T15:33:29Z</time>
      </trkpt>
      <trkpt lat="50.01566" lon="4.31616">
        <ele>298.4</ele>
        <time>2024-04-29T15:33:30Z</time>
      </trkpt>
      <trkpt lat="50.01565" lon="4.31627">
        <ele>298.2</ele>
        <time>2024-04-29T15:33:31Z</time>
      </trkpt>
      <trkpt lat="50.01565" lon="4.31638">
        <ele>298.2</ele>
        <time>2024-04-29T15:33:32Z</time>
      </trkpt>
      <trkpt lat="50.01564" lon="4.3165">
        <ele>298.4</ele>
        <time>2024-04-29T15:33:33Z</time>
      </trkpt>
      <trkpt lat="50.01564" lon="4.31661">
        <ele>298.4</ele>
        <time>2024-04-29T15:33:34Z</time>
      </trkpt>
      <trkpt lat="50.01563" lon="4.31672">
        <ele>298.2</ele>
        <time>2024-04-29T15:33:35Z</time>
      </trkpt>
      <trkpt lat="50.01563" lon="4.31684">
        <ele>298.2</ele>
        <time>2024-04-29T15:33:36Z</time>
      </trkpt>
      <trkpt lat="50.01562" lon="4.31695">
        <ele>298.2</ele>
        <time>2024-04-29T15:33:37Z</time>
      </trkpt>
      <trkpt lat="50.01562" lon="4.31707">
        <ele>298.2</ele>
        <time>2024-04-29T15:33:38Z</time>
      </trkpt>
      <trkpt lat="50.01561" lon="4.31718">
        <ele>298.2</ele>
        <time>2024-04-29T15:33:39Z</time>
      </trkpt>
      <trkpt lat="50.0156" lon="4.3173">
        <ele>298</ele>
        <time>2024-04-29T15:33:40Z</time>
      </trkpt>
      <trkpt lat="50.0156" lon="4.31741">
        <ele>298</ele>
        <time>2024-04-29T15:33:41Z</time>
      </trkpt>
      <trkpt lat="50.0156" lon="4.31753">
        <ele>297.8</ele>
        <time>2024-04-29T15:33:42Z</time>
      </trkpt>
      <trkpt lat="50.01559" lon="4.31765">
        <ele>297.8</ele>
        <time>2024-04-29T15:33:43Z</time>
      </trkpt>
      <trkpt lat="50.01558" lon="4.31777">
        <ele>297.6</ele>
        <time>2024-04-29T15:33:44Z</time>
      </trkpt>
      <trkpt lat="50.01558" lon="4.31789">
        <ele>297.4</ele>
        <time>2024-04-29T15:33:45Z</time>
      </trkpt>
      <trkpt lat="50.01557" lon="4.31802">
        <ele>297.2</ele>
        <time>2024-04-29T15:33:46Z</time>
      </trkpt>
      <trkpt lat="50.01557" lon="4.31815">
        <ele>297</ele>
        <time>2024-04-29T15:33:47Z</time>
      </trkpt>
      <trkpt lat="50.01556" lon="4.31828">
        <ele>296.8</ele>
        <time>2024-04-29T15:33:48Z</time>
      </trkpt>
      <trkpt lat="50.01555" lon="4.31841">
        <ele>296.2</ele>
        <time>2024-04-29T15:33:49Z</time>
      </trkpt>
      <trkpt lat="50.01554" lon="4.31855">
        <ele>296</ele>
        <time>2024-04-29T15:33:50Z</time>
      </trkpt>
      <trkpt lat="50.01554" lon="4.31869">
        <ele>295.8</ele>
        <time>2024-04-29T15:33:51Z</time>
      </trkpt>
      <trkpt lat="50.01553" lon="4.31882">
        <ele>295.8</ele>
        <time>2024-04-29T15:33:52Z</time>
      </trkpt>
      <trkpt lat="50.01552" lon="4.31896">
        <ele>295.4</ele>
        <time>2024-04-29T15:33:53Z</time>
      </trkpt>
      <trkpt lat="50.01552" lon="4.3191">
        <ele>294.8</ele>
        <time>2024-04-29T15:33:54Z</time>
      </trkpt>
      <trkpt lat="50.01551" lon="4.31923">
        <ele>294</ele>
        <time>2024-04-29T15:33:55Z</time>
      </trkpt>
      <trkpt lat="50.01551" lon="4.31936">
        <ele>293.2</ele>
        <time>2024-04-29T15:33:56Z</time>
      </trkpt>
      <trkpt lat="50.0155" lon="4.31947">
        <ele>292.6</ele>
        <time>2024-04-29T15:33:57Z</time>
      </trkpt>
      <trkpt lat="50.01549" lon="4.31958">
        <ele>292.2</ele>
        <time>2024-04-29T15:33:58Z</time>
      </trkpt>
      <trkpt lat="50.01548" lon="4.31968">
        <ele>291.8</ele>
        <time>2024-04-29T15:33:59Z</time>
      </trkpt>
      <trkpt lat="50.01547" lon="4.31976">
        <ele>291.4</ele>
        <time>2024-04-29T15:34:00Z</time>
      </trkpt>
      <trkpt lat="50.01548" lon="4.31984">
        <ele>291</ele>
        <time>2024-04-29T15:34:01Z</time>
      </trkpt>
      <trkpt lat="50.0155" lon="4.31992">
        <ele>290.6</ele>
        <time>2024-04-29T15:34:02Z</time>
      </trkpt>
      <trkpt lat="50.01553" lon="4.31999">
        <ele>289.8</ele>
        <time>2024-04-29T15:34:03Z</time>
      </trkpt>
      <trkpt lat="50.01558" lon="4.32005">
        <ele>289.4</ele>
        <time>2024-04-29T15:34:04Z</time>
      </trkpt>
      <trkpt lat="50.01563" lon="4.3201">
        <ele>289.2</ele>
        <time>2024-04-29T15:34:05Z</time>
      </trkpt>
      <trkpt lat="50.01568" lon="4.32015">
        <ele>289</ele>
        <time>2024-04-29T15:34:06Z</time>
      </trkpt>
      <trkpt lat="50.01573" lon="4.32019">
        <ele>288.6</ele>
        <time>2024-04-29T15:34:07Z</time>
      </trkpt>
      <trkpt lat="50.01579" lon="4.32024">
        <ele>288.6</ele>
        <time>2024-04-29T15:34:08Z</time>
      </trkpt>
      <trkpt lat="50.01586" lon="4.32028">
        <ele>288.4</ele>
        <time>2024-04-29T15:34:09Z</time>
      </trkpt>
      <trkpt lat="50.01592" lon="4.32032">
        <ele>287.8</ele>
        <time>2024-04-29T15:34:10Z</time>
      </trkpt>
      <trkpt lat="50.01599" lon="4.32036">
        <ele>287.8</ele>
        <time>2024-04-29T15:34:11Z</time>
      </trkpt>
      <trkpt lat="50.01606" lon="4.32039">
        <ele>287.8</ele>
        <time>2024-04-29T15:34:12Z</time>
      </trkpt>
      <trkpt lat="50.01613" lon="4.32042">
        <ele>287.6</ele>
        <time>2024-04-29T15:34:13Z</time>
      </trkpt>
      <trkpt lat="50.0162" lon="4.32045">
        <ele>287.6</ele>
        <time>2024-04-29T15:34:14Z</time>
      </trkpt>
      <trkpt lat="50.01627" lon="4.32047">
        <ele>287</ele>
        <time>2024-04-29T15:34:15Z</time>
      </trkpt>
      <trkpt lat="50.01634" lon="4.32049">
        <ele>286.8</ele>
        <time>2024-04-29T15:34:16Z</time>
      </trkpt>
      <trkpt lat="50.01641" lon="4.3205">
        <ele>286.8</ele>
        <time>2024-04-29T15:34:17Z</time>
      </trkpt>
      <trkpt lat="50.01649" lon="4.32051">
        <ele>286.4</ele>
        <time>2024-04-29T15:34:18Z</time>
      </trkpt>
      <trkpt lat="50.01655" lon="4.32051">
        <ele>286.4</ele>
        <time>2024-04-29T15:34:19Z</time>
      </trkpt>
      <trkpt lat="50.01662" lon="4.3205">
        <ele>286.2</ele>
        <time>2024-04-29T15:34:20Z</time>
      </trkpt>
      <trkpt lat="50.01669" lon="4.3205">
        <ele>286</ele>
        <time>2024-04-29T15:34:21Z</time>
      </trkpt>
      <trkpt lat="50.01676" lon="4.32049">
        <ele>285.8</ele>
        <time>2024-04-29T15:34:22Z</time>
      </trkpt>
      <trkpt lat="50.01683" lon="4.32049">
        <ele>286</ele>
        <time>2024-04-29T15:34:23Z</time>
      </trkpt>
      <trkpt lat="50.0169" lon="4.32048">
        <ele>286</ele>
        <time>2024-04-29T15:34:24Z</time>
      </trkpt>
      <trkpt lat="50.01697" lon="4.32047">
        <ele>285.8</ele>
        <time>2024-04-29T15:34:25Z</time>
      </trkpt>
      <trkpt lat="50.01704" lon="4.32046">
        <ele>286</ele>
        <time>2024-04-29T15:34:26Z</time>
      </trkpt>
      <trkpt lat="50.01711" lon="4.32045">
        <ele>285.8</ele>
        <time>2024-04-29T15:34:27Z</time>
      </trkpt>
      <trkpt lat="50.01718" lon="4.32044">
        <ele>285.8</ele>
        <time>2024-04-29T15:34:28Z</time>
      </trkpt>
      <trkpt lat="50.01725" lon="4.32044">
        <ele>285.8</ele>
        <time>2024-04-29T15:34:29Z</time>
      </trkpt>
      <trkpt lat="50.01732" lon="4.32043">
        <ele>286</ele>
        <time>2024-04-29T15:34:30Z</time>
      </trkpt>
      <trkpt lat="50.01739" lon="4.32042">
        <ele>285.8</ele>
        <time>2024-04-29T15:34:31Z</time>
      </trkpt>
      <trkpt lat="50.01746" lon="4.32042">
        <ele>285.8</ele>
        <time>2024-04-29T15:34:32Z</time>
      </trkpt>
      <trkpt lat="50.01753" lon="4.3204">
        <ele>286</ele>
        <time>2024-04-29T15:34:33Z</time>
      </trkpt>
      <trkpt lat="50.0176" lon="4.32039">
        <ele>286</ele>
        <time>2024-04-29T15:34:34Z</time>
      </trkpt>
      <trkpt lat="50.01767" lon="4.32036">
        <ele>286</ele>
        <time>2024-04-29T15:34:35Z</time>
      </trkpt>
      <trkpt lat="50.01773" lon="4.32034">
        <ele>286</ele>
        <time>2024-04-29T15:34:36Z</time>
      </trkpt>
      <trkpt lat="50.0178" lon="4.3203">
        <ele>286.2</ele>
        <time>2024-04-29T15:34:37Z</time>
      </trkpt>
      <trkpt lat="50.01786" lon="4.32027">
        <ele>286.2</ele>
        <time>2024-04-29T15:34:38Z</time>
      </trkpt>
      <trkpt lat="50.01793" lon="4.32024">
        <ele>286.2</ele>
        <time>2024-04-29T15:34:39Z</time>
      </trkpt>
      <trkpt lat="50.01799" lon="4.3202">
        <ele>286.4</ele>
        <time>2024-04-29T15:34:40Z</time>
      </trkpt>
      <trkpt lat="50.01805" lon="4.32017">
        <ele>286.4</ele>
        <time>2024-04-29T15:34:41Z</time>
      </trkpt>
      <trkpt lat="50.01812" lon="4.32013">
        <ele>286.4</ele>
        <time>2024-04-29T15:34:42Z</time>
      </trkpt>
      <trkpt lat="50.01818" lon="4.32009">
        <ele>286.4</ele>
        <time>2024-04-29T15:34:43Z</time>
      </trkpt>
      <trkpt lat="50.01824" lon="4.32005">
        <ele>286.6</ele>
        <time>2024-04-29T15:34:44Z</time>
      </trkpt>
      <trkpt lat="50.0183" lon="4.32">
        <ele>286.6</ele>
        <time>2024-04-29T15:34:45Z</time>
      </trkpt>
      <trkpt lat="50.01837" lon="4.31997">
        <ele>286.6</ele>
        <time>2024-04-29T15:34:46Z</time>
      </trkpt>
      <trkpt lat="50.01844" lon="4.31993">
        <ele>286.6</ele>
        <time>2024-04-29T15:34:47Z</time>
      </trkpt>
      <trkpt lat="50.01851" lon="4.3199">
        <ele>286.6</ele>
        <time>2024-04-29T15:34:48Z</time>
      </trkpt>
      <trkpt lat="50.01858" lon="4.31988">
        <ele>286.6</ele>
        <time>2024-04-29T15:34:49Z</time>
      </trkpt>
      <trkpt lat="50.01865" lon="4.31985">
        <ele>286.6</ele>
        <time>2024-04-29T15:34:50Z</time>
      </trkpt>
      <trkpt lat="50.01873" lon="4.31983">
        <ele>286.8</ele>
        <time>2024-04-29T15:34:51Z</time>
      </trkpt>
      <trkpt lat="50.01881" lon="4.31981">
        <ele>286.6</ele>
        <time>2024-04-29T15:34:52Z</time>
      </trkpt>
      <trkpt lat="50.01889" lon="4.3198">
        <ele>286.8</ele>
        <time>2024-04-29T15:34:53Z</time>
      </trkpt>
      <trkpt lat="50.01898" lon="4.3198">
        <ele>286.8</ele>
        <time>2024-04-29T15:34:54Z</time>
      </trkpt>
      <trkpt lat="50.01907" lon="4.31979">
        <ele>286.8</ele>
        <time>2024-04-29T15:34:55Z</time>
      </trkpt>
      <trkpt lat="50.01916" lon="4.31979">
        <ele>286.8</ele>
        <time>2024-04-29T15:34:56Z</time>
      </trkpt>
      <trkpt lat="50.01925" lon="4.31979">
        <ele>286.6</ele>
        <time>2024-04-29T15:34:57Z</time>
      </trkpt>
      <trkpt lat="50.01935" lon="4.31979">
        <ele>286.6</ele>
        <time>2024-04-29T15:34:58Z</time>
      </trkpt>
      <trkpt lat="50.01944" lon="4.31978">
        <ele>286.6</ele>
        <time>2024-04-29T15:34:59Z</time>
      </trkpt>
      <trkpt lat="50.01954" lon="4.31978">
        <ele>286.4</ele>
        <time>2024-04-29T15:35:00Z</time>
      </trkpt>
      <trkpt lat="50.01964" lon="4.31977">
        <ele>286.2</ele>
        <time>2024-04-29T15:35:01Z</time>
      </trkpt>
      <trkpt lat="50.01974" lon="4.31977">
        <ele>285.4</ele>
        <time>2024-04-29T15:35:02Z</time>
      </trkpt>
      <trkpt lat="50.01985" lon="4.31978">
        <ele>284.6</ele>
        <time>2024-04-29T15:35:03Z</time>
      </trkpt>
      <trkpt lat="50.01995" lon="4.31979">
        <ele>284</ele>
        <time>2024-04-29T15:35:04Z</time>
      </trkpt>
      <trkpt lat="50.02006" lon="4.3198">
        <ele>283.4</ele>
        <time>2024-04-29T15:35:05Z</time>
      </trkpt>
      <trkpt lat="50.02016" lon="4.31982">
        <ele>282.8</ele>
        <time>2024-04-29T15:35:06Z</time>
      </trkpt>
      <trkpt lat="50.02026" lon="4.31985">
        <ele>281</ele>
        <time>2024-04-29T15:35:07Z</time>
      </trkpt>
      <trkpt lat="50.02037" lon="4.31988">
        <ele>280.4</ele>
        <time>2024-04-29T15:35:08Z</time>
      </trkpt>
      <trkpt lat="50.02047" lon="4.3199">
        <ele>279.4</ele>
        <time>2024-04-29T15:35:09Z</time>
      </trkpt>
      <trkpt lat="50.02057" lon="4.31993">
        <ele>278.4</ele>
        <time>2024-04-29T15:35:10Z</time>
      </trkpt>
      <trkpt lat="50.02067" lon="4.31997">
        <ele>277.6</ele>
        <time>2024-04-29T15:35:11Z</time>
      </trkpt>
      <trkpt lat="50.02078" lon="4.31999">
        <ele>276.8</ele>
        <time>2024-04-29T15:35:12Z</time>
      </trkpt>
      <trkpt lat="50.02088" lon="4.32003">
        <ele>276.4</ele>
        <time>2024-04-29T15:35:13Z</time>
      </trkpt>
      <trkpt lat="50.02099" lon="4.32006">
        <ele>275.6</ele>
        <time>2024-04-29T15:35:14Z</time>
      </trkpt>
      <trkpt lat="50.02109" lon="4.3201">
        <ele>275.4</ele>
        <time>2024-04-29T15:35:15Z</time>
      </trkpt>
      <trkpt lat="50.02119" lon="4.32014">
        <ele>275</ele>
        <time>2024-04-29T15:35:16Z</time>
      </trkpt>
      <trkpt lat="50.02129" lon="4.32018">
        <ele>274.6</ele>
        <time>2024-04-29T15:35:17Z</time>
      </trkpt>
      <trkpt lat="50.02139" lon="4.32021">
        <ele>274.2</ele>
        <time>2024-04-29T15:35:18Z</time>
      </trkpt>
      <trkpt lat="50.0215" lon="4.32025">
        <ele>274</ele>
        <time>2024-04-29T15:35:19Z</time>
      </trkpt>
      <trkpt lat="50.0216" lon="4.32028">
        <ele>274</ele>
        <time>2024-04-29T15:35:20Z</time>
      </trkpt>
      <trkpt lat="50.02169" lon="4.32031">
        <ele>273.8</ele>
        <time>2024-04-29T15:35:21Z</time>
      </trkpt>
      <trkpt lat="50.02179" lon="4.32035">
        <ele>273.6</ele>
        <time>2024-04-29T15:35:22Z</time>
      </trkpt>
      <trkpt lat="50.02188" lon="4.3204">
        <ele>273.4</ele>
        <time>2024-04-29T15:35:23Z</time>
      </trkpt>
      <trkpt lat="50.02197" lon="4.32045">
        <ele>273</ele>
        <time>2024-04-29T15:35:24Z</time>
      </trkpt>
      <trkpt lat="50.02206" lon="4.3205">
        <ele>272.6</ele>
        <time>2024-04-29T15:35:25Z</time>
      </trkpt>
      <trkpt lat="50.02214" lon="4.32055">
        <ele>272</ele>
        <time>2024-04-29T15:35:26Z</time>
      </trkpt>
      <trkpt lat="50.02223" lon="4.32061">
        <ele>271.2</ele>
        <time>2024-04-29T15:35:27Z</time>
      </trkpt>
      <trkpt lat="50.02231" lon="4.32067">
        <ele>270.2</ele>
        <time>2024-04-29T15:35:28Z</time>
      </trkpt>
      <trkpt lat="50.02238" lon="4.32073">
        <ele>269.6</ele>
        <time>2024-04-29T15:35:29Z</time>
      </trkpt>
      <trkpt lat="50.02246" lon="4.32078">
        <ele>268.6</ele>
        <time>2024-04-29T15:35:30Z</time>
      </trkpt>
      <trkpt lat="50.02252" lon="4.32084">
        <ele>267.8</ele>
        <time>2024-04-29T15:35:31Z</time>
      </trkpt>
      <trkpt lat="50.02258" lon="4.32089">
        <ele>266.2</ele>
        <time>2024-04-29T15:35:32Z</time>
      </trkpt>
      <trkpt lat="50.02264" lon="4.32094">
        <ele>265</ele>
        <time>2024-04-29T15:35:33Z</time>
      </trkpt>
      <trkpt lat="50.02269" lon="4.32098">
        <ele>263.6</ele>
        <time>2024-04-29T15:35:34Z</time>
      </trkpt>
      <trkpt lat="50.02273" lon="4.321">
        <ele>262.4</ele>
        <time>2024-04-29T15:35:35Z</time>
      </trkpt>
      <trkpt lat="50.02276" lon="4.32102">
        <ele>261.8</ele>
        <time>2024-04-29T15:35:36Z</time>
      </trkpt>
      <trkpt lat="50.02279" lon="4.32104">
        <ele>261.4</ele>
        <time>2024-04-29T15:35:37Z</time>
      </trkpt>
      <trkpt lat="50.02282" lon="4.32106">
        <ele>261.2</ele>
        <time>2024-04-29T15:35:38Z</time>
      </trkpt>
      <trkpt lat="50.02284" lon="4.32105">
        <ele>260.6</ele>
        <time>2024-04-29T15:35:39Z</time>
      </trkpt>
      <trkpt lat="50.02285" lon="4.32104">
        <ele>260</ele>
        <time>2024-04-29T15:35:40Z</time>
      </trkpt>
      <trkpt lat="50.02286" lon="4.32102">
        <ele>259.2</ele>
        <time>2024-04-29T15:35:41Z</time>
      </trkpt>
      <trkpt lat="50.02287" lon="4.32099">
        <ele>259.2</ele>
        <time>2024-04-29T15:35:42Z</time>
      </trkpt>
      <trkpt lat="50.02289" lon="4.32096">
        <ele>259</ele>
        <time>2024-04-29T15:35:43Z</time>
      </trkpt>
      <trkpt lat="50.0229" lon="4.32093">
        <ele>258.6</ele>
        <time>2024-04-29T15:35:44Z</time>
      </trkpt>
      <trkpt lat="50.02292" lon="4.32091">
        <ele>258</ele>
        <time>2024-04-29T15:35:45Z</time>
      </trkpt>
      <trkpt lat="50.02293" lon="4.32089">
        <ele>257.6</ele>
        <time>2024-04-29T15:35:46Z</time>
      </trkpt>
      <trkpt lat="50.02293" lon="4.32087">
        <ele>256.8</ele>
        <time>2024-04-29T15:35:47Z</time>
      </trkpt>
    </trkseg>
  </trk>
</gpx>